<?xml version='1.0' encoding='UTF-8'?><gpx version="1.1" creator="JPX - https://github.com/jenetics/jpx" xmlns="http://www.topografix.com/GPX/1/1"><trk><trkseg><trkpt lat="45.6395714" lon="10.0384948"><ele>204.0</ele><time>2026-04-12T08:17:11.846Z</time></trkpt><trkpt lat="45.6395231" lon="10.0386699"><ele>204.0</ele><time>2026-04-12T08:17:26.862Z</time></trkpt><trkpt lat="45.6394533" lon="10.0386893"><ele>204.0</ele><time>2026-04-12T08:17:33.85Z</time></trkpt><trkpt lat="45.6393423" lon="10.0387802"><ele>204.0</ele><time>2026-04-12T08:17:47.856Z</time></trkpt><trkpt lat="45.6392913" lon="10.0388351"><ele>204.0</ele><time>2026-04-12T08:17:53.858Z</time></trkpt><trkpt lat="45.6392319" lon="10.0388719"><ele>205.2</ele><time>2026-04-12T08:18:01.855Z</time></trkpt><trkpt lat="45.6391215" lon="10.0389674"><ele>206.39999999999998</ele><time>2026-04-12T08:18:13.856Z</time></trkpt><trkpt lat="45.6390833" lon="10.0390398"><ele>207.6</ele><time>2026-04-12T08:18:20.856Z</time></trkpt><trkpt lat="45.6390321" lon="10.0390937"><ele>208.8</ele><time>2026-04-12T08:18:27.857Z</time></trkpt><trkpt lat="45.638925" lon="10.0392001"><ele>210.0</ele><time>2026-04-12T08:18:42.856Z</time></trkpt><trkpt lat="45.6388777" lon="10.0392618"><ele>210.33333333333331</ele><time>2026-04-12T08:18:48.856Z</time></trkpt><trkpt lat="45.6386626" lon="10.0394222"><ele>210.66666666666666</ele><time>2026-04-12T08:23:33.854Z</time></trkpt><trkpt lat="45.6385633" lon="10.0394869"><ele>211.0</ele><time>2026-04-12T08:23:34.859Z</time></trkpt><trkpt lat="45.6383951" lon="10.0395704"><ele>212.20000000000002</ele><time>2026-04-12T08:23:36.862Z</time></trkpt><trkpt lat="45.6383265" lon="10.0395979"><ele>213.4</ele><time>2026-04-12T08:23:37.874Z</time></trkpt><trkpt lat="45.6382073" lon="10.0396336"><ele>214.6</ele><time>2026-04-12T08:23:39.863Z</time></trkpt><trkpt lat="45.6381082" lon="10.0396853"><ele>215.8</ele><time>2026-04-12T08:23:41.864Z</time></trkpt><trkpt lat="45.6380446" lon="10.0398173"><ele>217.0</ele><time>2026-04-12T08:23:43.861Z</time></trkpt><trkpt lat="45.6380307" lon="10.0399235"><ele>216.28571428571428</ele><time>2026-04-12T08:23:44.859Z</time></trkpt><trkpt lat="45.6380315" lon="10.0400289"><ele>215.57142857142856</ele><time>2026-04-12T08:23:45.872Z</time></trkpt><trkpt lat="45.6380573" lon="10.0401153"><ele>214.85714285714286</ele><time>2026-04-12T08:23:46.863Z</time></trkpt><trkpt lat="45.6381047" lon="10.0401757"><ele>214.14285714285714</ele><time>2026-04-12T08:23:47.86Z</time></trkpt><trkpt lat="45.6381689" lon="10.0402077"><ele>213.42857142857142</ele><time>2026-04-12T08:23:48.861Z</time></trkpt><trkpt lat="45.6382434" lon="10.0401942"><ele>212.71428571428572</ele><time>2026-04-12T08:23:49.865Z</time></trkpt><trkpt lat="45.6383167" lon="10.0401433"><ele>212.0</ele><time>2026-04-12T08:23:50.86Z</time></trkpt><trkpt lat="45.6383939" lon="10.0400566"><ele>211.8</ele><time>2026-04-12T08:23:51.86Z</time></trkpt><trkpt lat="45.6384755" lon="10.0399567"><ele>211.6</ele><time>2026-04-12T08:23:52.874Z</time></trkpt><trkpt lat="45.6385562" lon="10.039866"><ele>211.4</ele><time>2026-04-12T08:23:53.869Z</time></trkpt><trkpt lat="45.6386297" lon="10.0397792"><ele>211.20000000000002</ele><time>2026-04-12T08:23:54.862Z</time></trkpt><trkpt lat="45.6387055" lon="10.0396981"><ele>211.0</ele><time>2026-04-12T08:23:55.861Z</time></trkpt><trkpt lat="45.6388292" lon="10.0395565"><ele>210.99999999999997</ele><time>2026-04-12T08:23:57.868Z</time></trkpt><trkpt lat="45.6388899" lon="10.0394941"><ele>211.0</ele><time>2026-04-12T08:23:58.873Z</time></trkpt><trkpt lat="45.6389527" lon="10.0394317"><ele>211.0</ele><time>2026-04-12T08:23:59.862Z</time></trkpt><trkpt lat="45.639019" lon="10.0393712"><ele>211.0</ele><time>2026-04-12T08:24:00.862Z</time></trkpt><trkpt lat="45.6390864" lon="10.0393105"><ele>210.99999999999997</ele><time>2026-04-12T08:24:01.863Z</time></trkpt><trkpt lat="45.6391555" lon="10.0392507"><ele>211.0</ele><time>2026-04-12T08:24:02.86Z</time></trkpt><trkpt lat="45.6392275" lon="10.0391917"><ele>210.83333333333331</ele><time>2026-04-12T08:24:03.87Z</time></trkpt><trkpt lat="45.6393031" lon="10.0391303"><ele>210.66666666666666</ele><time>2026-04-12T08:24:04.863Z</time></trkpt><trkpt lat="45.6393804" lon="10.0390644"><ele>210.5</ele><time>2026-04-12T08:24:05.859Z</time></trkpt><trkpt lat="45.6394572" lon="10.0389972"><ele>210.33333333333331</ele><time>2026-04-12T08:24:06.87Z</time></trkpt><trkpt lat="45.6395281" lon="10.0389289"><ele>210.16666666666666</ele><time>2026-04-12T08:24:07.852Z</time></trkpt><trkpt lat="45.6395957" lon="10.038862"><ele>210.0</ele><time>2026-04-12T08:24:08.868Z</time></trkpt><trkpt lat="45.6396616" lon="10.0387937"><ele>209.0</ele><time>2026-04-12T08:24:09.869Z</time></trkpt><trkpt lat="45.6397269" lon="10.0387273"><ele>208.0</ele><time>2026-04-12T08:24:10.862Z</time></trkpt><trkpt lat="45.6397899" lon="10.0386557"><ele>207.0</ele><time>2026-04-12T08:24:11.876Z</time></trkpt><trkpt lat="45.6398584" lon="10.0385838"><ele>206.0</ele><time>2026-04-12T08:24:12.858Z</time></trkpt><trkpt lat="45.6399305" lon="10.0385117"><ele>205.0</ele><time>2026-04-12T08:24:13.871Z</time></trkpt><trkpt lat="45.6400052" lon="10.0384469"><ele>204.0</ele><time>2026-04-12T08:24:14.861Z</time></trkpt><trkpt lat="45.6400776" lon="10.0383802"><ele>204.0</ele><time>2026-04-12T08:24:15.852Z</time></trkpt><trkpt lat="45.6401549" lon="10.0383069"><ele>204.0</ele><time>2026-04-12T08:24:16.859Z</time></trkpt><trkpt lat="45.6403267" lon="10.0381416"><ele>204.0</ele><time>2026-04-12T08:24:18.86Z</time></trkpt><trkpt lat="45.6404282" lon="10.0380456"><ele>204.0</ele><time>2026-04-12T08:24:19.871Z</time></trkpt><trkpt lat="45.640533" lon="10.0379485"><ele>204.0</ele><time>2026-04-12T08:24:20.86Z</time></trkpt><trkpt lat="45.6406408" lon="10.0378493"><ele>204.0</ele><time>2026-04-12T08:24:21.859Z</time></trkpt><trkpt lat="45.6407489" lon="10.0377513"><ele>204.0</ele><time>2026-04-12T08:24:22.856Z</time></trkpt><trkpt lat="45.6408607" lon="10.0376582"><ele>204.0</ele><time>2026-04-12T08:24:23.858Z</time></trkpt><trkpt lat="45.6409644" lon="10.0375673"><ele>204.0</ele><time>2026-04-12T08:24:24.857Z</time></trkpt><trkpt lat="45.6410591" lon="10.0374771"><ele>204.0</ele><time>2026-04-12T08:24:25.847Z</time></trkpt><trkpt lat="45.6411398" lon="10.0373791"><ele>204.0</ele><time>2026-04-12T08:24:26.867Z</time></trkpt><trkpt lat="45.6412025" lon="10.0372771"><ele>204.0</ele><time>2026-04-12T08:24:27.854Z</time></trkpt><trkpt lat="45.6412496" lon="10.0371693"><ele>204.0</ele><time>2026-04-12T08:24:28.859Z</time></trkpt><trkpt lat="45.6412852" lon="10.0370589"><ele>203.33333333333334</ele><time>2026-04-12T08:24:29.863Z</time></trkpt><trkpt lat="45.6413115" lon="10.0369423"><ele>202.66666666666669</ele><time>2026-04-12T08:24:30.85Z</time></trkpt><trkpt lat="45.6413423" lon="10.036828"><ele>202.0</ele><time>2026-04-12T08:24:31.86Z</time></trkpt><trkpt lat="45.6413811" lon="10.0367254"><ele>201.33333333333334</ele><time>2026-04-12T08:24:32.855Z</time></trkpt><trkpt lat="45.6414307" lon="10.0366314"><ele>200.66666666666669</ele><time>2026-04-12T08:24:33.854Z</time></trkpt><trkpt lat="45.6414885" lon="10.0365372"><ele>200.0</ele><time>2026-04-12T08:24:34.871Z</time></trkpt><trkpt lat="45.6415498" lon="10.0364433"><ele>198.8</ele><time>2026-04-12T08:24:35.859Z</time></trkpt><trkpt lat="45.641615" lon="10.0363508"><ele>197.6</ele><time>2026-04-12T08:24:36.865Z</time></trkpt><trkpt lat="45.6416811" lon="10.0362662"><ele>196.39999999999998</ele><time>2026-04-12T08:24:37.869Z</time></trkpt><trkpt lat="45.6418203" lon="10.0361215"><ele>195.2</ele><time>2026-04-12T08:24:39.854Z</time></trkpt><trkpt lat="45.6418975" lon="10.036055"><ele>194.0</ele><time>2026-04-12T08:24:40.861Z</time></trkpt><trkpt lat="45.641979" lon="10.0359856"><ele>194.00000000000003</ele><time>2026-04-12T08:24:41.862Z</time></trkpt><trkpt lat="45.6420604" lon="10.03592"><ele>194.0</ele><time>2026-04-12T08:24:42.865Z</time></trkpt><trkpt lat="45.6421408" lon="10.035859"><ele>194.0</ele><time>2026-04-12T08:24:43.859Z</time></trkpt><trkpt lat="45.6422206" lon="10.0358037"><ele>194.0</ele><time>2026-04-12T08:24:44.867Z</time></trkpt><trkpt lat="45.6423003" lon="10.0357507"><ele>194.00000000000003</ele><time>2026-04-12T08:24:45.854Z</time></trkpt><trkpt lat="45.6423786" lon="10.035697"><ele>194.0</ele><time>2026-04-12T08:24:46.865Z</time></trkpt><trkpt lat="45.6424562" lon="10.0356411"><ele>193.39999999999998</ele><time>2026-04-12T08:24:47.863Z</time></trkpt><trkpt lat="45.6425368" lon="10.0355818"><ele>192.8</ele><time>2026-04-12T08:24:48.853Z</time></trkpt><trkpt lat="45.6426188" lon="10.0355205"><ele>192.2</ele><time>2026-04-12T08:24:49.867Z</time></trkpt><trkpt lat="45.6427039" lon="10.0354553"><ele>191.60000000000002</ele><time>2026-04-12T08:24:50.862Z</time></trkpt><trkpt lat="45.6427909" lon="10.03539"><ele>191.0</ele><time>2026-04-12T08:24:51.859Z</time></trkpt><trkpt lat="45.6428857" lon="10.0353218"><ele>191.0</ele><time>2026-04-12T08:24:52.859Z</time></trkpt><trkpt lat="45.6429869" lon="10.0352528"><ele>191.0</ele><time>2026-04-12T08:24:53.862Z</time></trkpt><trkpt lat="45.6430922" lon="10.0351813"><ele>191.0</ele><time>2026-04-12T08:24:54.856Z</time></trkpt><trkpt lat="45.6431989" lon="10.0350948"><ele>191.0</ele><time>2026-04-12T08:24:55.855Z</time></trkpt><trkpt lat="45.6433132" lon="10.03501"><ele>189.33333333333331</ele><time>2026-04-12T08:24:56.868Z</time></trkpt><trkpt lat="45.6434368" lon="10.0349348"><ele>187.66666666666666</ele><time>2026-04-12T08:24:57.847Z</time></trkpt><trkpt lat="45.6435576" lon="10.0348625"><ele>186.0</ele><time>2026-04-12T08:24:58.862Z</time></trkpt><trkpt lat="45.6437821" lon="10.0347158"><ele>186.0</ele><time>2026-04-12T08:25:00.851Z</time></trkpt><trkpt lat="45.6438916" lon="10.0346618"><ele>186.0</ele><time>2026-04-12T08:25:01.859Z</time></trkpt><trkpt lat="45.6439994" lon="10.0346167"><ele>186.0</ele><time>2026-04-12T08:25:02.86Z</time></trkpt><trkpt lat="45.6440658" lon="10.03459"><ele>186.0</ele><time>2026-04-12T08:25:03.859Z</time></trkpt><trkpt lat="45.644183" lon="10.0345714"><ele>186.0</ele><time>2026-04-12T08:25:04.866Z</time></trkpt><trkpt lat="45.644301" lon="10.0345701"><ele>186.0</ele><time>2026-04-12T08:25:05.854Z</time></trkpt><trkpt lat="45.6444231" lon="10.0345872"><ele>186.0</ele><time>2026-04-12T08:25:06.861Z</time></trkpt><trkpt lat="45.64455" lon="10.0346216"><ele>186.0</ele><time>2026-04-12T08:25:07.861Z</time></trkpt><trkpt lat="45.6446773" lon="10.0346744"><ele>186.0</ele><time>2026-04-12T08:25:08.862Z</time></trkpt><trkpt lat="45.6448011" lon="10.0347381"><ele>186.25</ele><time>2026-04-12T08:25:09.861Z</time></trkpt><trkpt lat="45.6449225" lon="10.0348216"><ele>186.5</ele><time>2026-04-12T08:25:10.861Z</time></trkpt><trkpt lat="45.6450361" lon="10.0348965"><ele>186.75</ele><time>2026-04-12T08:25:11.865Z</time></trkpt><trkpt lat="45.6451455" lon="10.0349832"><ele>187.0</ele><time>2026-04-12T08:25:12.855Z</time></trkpt><trkpt lat="45.6452464" lon="10.035088"><ele>186.25</ele><time>2026-04-12T08:25:13.875Z</time></trkpt><trkpt lat="45.6453326" lon="10.0351931"><ele>185.5</ele><time>2026-04-12T08:25:14.862Z</time></trkpt><trkpt lat="45.6454181" lon="10.035315"><ele>184.75</ele><time>2026-04-12T08:25:15.863Z</time></trkpt><trkpt lat="45.6454926" lon="10.0354525"><ele>184.0</ele><time>2026-04-12T08:25:16.861Z</time></trkpt><trkpt lat="45.6455612" lon="10.0355962"><ele>184.0</ele><time>2026-04-12T08:25:17.868Z</time></trkpt><trkpt lat="45.6456257" lon="10.0357548"><ele>184.0</ele><time>2026-04-12T08:25:18.876Z</time></trkpt><trkpt lat="45.645681" lon="10.0359242"><ele>184.0</ele><time>2026-04-12T08:25:19.863Z</time></trkpt><trkpt lat="45.6457874" lon="10.0362982"><ele>184.66666666666669</ele><time>2026-04-12T08:25:21.86Z</time></trkpt><trkpt lat="45.6458491" lon="10.0365197"><ele>185.33333333333334</ele><time>2026-04-12T08:25:22.863Z</time></trkpt><trkpt lat="45.6459209" lon="10.0367659"><ele>186.0</ele><time>2026-04-12T08:25:23.868Z</time></trkpt><trkpt lat="45.6459939" lon="10.037016"><ele>186.0</ele><time>2026-04-12T08:25:24.863Z</time></trkpt><trkpt lat="45.6460644" lon="10.0372593"><ele>186.0</ele><time>2026-04-12T08:25:25.876Z</time></trkpt><trkpt lat="45.6461322" lon="10.0374878"><ele>186.0</ele><time>2026-04-12T08:25:26.854Z</time></trkpt><trkpt lat="45.6461962" lon="10.0376845"><ele>186.0</ele><time>2026-04-12T08:25:27.859Z</time></trkpt><trkpt lat="45.6462601" lon="10.0378494"><ele>186.0</ele><time>2026-04-12T08:25:28.863Z</time></trkpt><trkpt lat="45.6463118" lon="10.0379977"><ele>186.0</ele><time>2026-04-12T08:25:29.863Z</time></trkpt><trkpt lat="45.6463599" lon="10.0381328"><ele>186.0</ele><time>2026-04-12T08:25:30.859Z</time></trkpt><trkpt lat="45.6464066" lon="10.0382559"><ele>186.60000000000002</ele><time>2026-04-12T08:25:31.863Z</time></trkpt><trkpt lat="45.6464482" lon="10.0383843"><ele>187.2</ele><time>2026-04-12T08:25:32.858Z</time></trkpt><trkpt lat="45.6464926" lon="10.0385191"><ele>187.8</ele><time>2026-04-12T08:25:33.866Z</time></trkpt><trkpt lat="45.6465362" lon="10.0386576"><ele>188.39999999999998</ele><time>2026-04-12T08:25:34.868Z</time></trkpt><trkpt lat="45.646587" lon="10.038806"><ele>189.0</ele><time>2026-04-12T08:25:35.869Z</time></trkpt><trkpt lat="45.6466424" lon="10.0389576"><ele>189.0</ele><time>2026-04-12T08:25:36.867Z</time></trkpt><trkpt lat="45.646703" lon="10.0391139"><ele>189.0</ele><time>2026-04-12T08:25:37.874Z</time></trkpt><trkpt lat="45.646762" lon="10.0392692"><ele>189.0</ele><time>2026-04-12T08:25:38.853Z</time></trkpt><trkpt lat="45.6468178" lon="10.0394208"><ele>189.0</ele><time>2026-04-12T08:25:39.871Z</time></trkpt><trkpt lat="45.6468709" lon="10.0395677"><ele>188.0</ele><time>2026-04-12T08:25:40.862Z</time></trkpt><trkpt lat="45.6469817" lon="10.0398785"><ele>187.0</ele><time>2026-04-12T08:25:42.863Z</time></trkpt><trkpt lat="45.6470453" lon="10.0400443"><ele>186.0</ele><time>2026-04-12T08:25:43.855Z</time></trkpt><trkpt lat="45.6471075" lon="10.0402153"><ele>186.0</ele><time>2026-04-12T08:25:44.857Z</time></trkpt><trkpt lat="45.6471808" lon="10.0403935"><ele>186.0</ele><time>2026-04-12T08:25:45.86Z</time></trkpt><trkpt lat="45.6472759" lon="10.0405825"><ele>186.0</ele><time>2026-04-12T08:25:46.877Z</time></trkpt><trkpt lat="45.6474007" lon="10.0407909"><ele>189.0</ele><time>2026-04-12T08:25:47.862Z</time></trkpt><trkpt lat="45.647549" lon="10.0410324"><ele>192.0</ele><time>2026-04-12T08:25:48.861Z</time></trkpt><trkpt lat="45.6477159" lon="10.0413054"><ele>190.0</ele><time>2026-04-12T08:25:49.852Z</time></trkpt><trkpt lat="45.647864" lon="10.0415647"><ele>188.0</ele><time>2026-04-12T08:25:50.856Z</time></trkpt><trkpt lat="45.647999" lon="10.0418179"><ele>188.0</ele><time>2026-04-12T08:25:51.86Z</time></trkpt><trkpt lat="45.6481134" lon="10.0420723"><ele>188.0</ele><time>2026-04-12T08:25:52.852Z</time></trkpt><trkpt lat="45.6482205" lon="10.04234"><ele>188.0</ele><time>2026-04-12T08:25:53.872Z</time></trkpt><trkpt lat="45.6483215" lon="10.0426209"><ele>189.0</ele><time>2026-04-12T08:25:54.871Z</time></trkpt><trkpt lat="45.6484133" lon="10.0429216"><ele>190.0</ele><time>2026-04-12T08:25:55.862Z</time></trkpt><trkpt lat="45.648506" lon="10.043237"><ele>192.0</ele><time>2026-04-12T08:25:56.862Z</time></trkpt><trkpt lat="45.6485919" lon="10.0435511"><ele>194.0</ele><time>2026-04-12T08:25:57.856Z</time></trkpt><trkpt lat="45.6486839" lon="10.0438565"><ele>191.66666666666669</ele><time>2026-04-12T08:25:58.876Z</time></trkpt><trkpt lat="45.6487805" lon="10.0441509"><ele>189.33333333333334</ele><time>2026-04-12T08:25:59.864Z</time></trkpt><trkpt lat="45.6488812" lon="10.0444323"><ele>187.0</ele><time>2026-04-12T08:26:00.857Z</time></trkpt><trkpt lat="45.6489826" lon="10.0446888"><ele>189.0</ele><time>2026-04-12T08:26:01.86Z</time></trkpt><trkpt lat="45.6491943" lon="10.0451704"><ele>191.0</ele><time>2026-04-12T08:26:03.862Z</time></trkpt><trkpt lat="45.6493011" lon="10.0454023"><ele>191.0</ele><time>2026-04-12T08:26:04.865Z</time></trkpt><trkpt lat="45.6494027" lon="10.0456307"><ele>191.0</ele><time>2026-04-12T08:26:05.869Z</time></trkpt><trkpt lat="45.649507" lon="10.0458478"><ele>191.0</ele><time>2026-04-12T08:26:06.874Z</time></trkpt><trkpt lat="45.6496144" lon="10.046065"><ele>190.66666666666666</ele><time>2026-04-12T08:26:07.857Z</time></trkpt><trkpt lat="45.6497265" lon="10.046283"><ele>190.33333333333334</ele><time>2026-04-12T08:26:08.873Z</time></trkpt><trkpt lat="45.6498366" lon="10.0464949"><ele>190.0</ele><time>2026-04-12T08:26:09.862Z</time></trkpt><trkpt lat="45.6499463" lon="10.0466992"><ele>190.0</ele><time>2026-04-12T08:26:10.858Z</time></trkpt><trkpt lat="45.6500639" lon="10.0468966"><ele>190.0</ele><time>2026-04-12T08:26:11.883Z</time></trkpt><trkpt lat="45.6501862" lon="10.0470878"><ele>190.0</ele><time>2026-04-12T08:26:12.868Z</time></trkpt><trkpt lat="45.6503185" lon="10.047267"><ele>189.66666666666669</ele><time>2026-04-12T08:26:13.86Z</time></trkpt><trkpt lat="45.6504519" lon="10.0474143"><ele>189.33333333333334</ele><time>2026-04-12T08:26:14.856Z</time></trkpt><trkpt lat="45.6505906" lon="10.0475418"><ele>189.0</ele><time>2026-04-12T08:26:15.863Z</time></trkpt><trkpt lat="45.6507279" lon="10.0476586"><ele>189.0</ele><time>2026-04-12T08:26:16.88Z</time></trkpt><trkpt lat="45.6508659" lon="10.0477683"><ele>189.0</ele><time>2026-04-12T08:26:17.854Z</time></trkpt><trkpt lat="45.6509991" lon="10.0478674"><ele>189.0</ele><time>2026-04-12T08:26:18.874Z</time></trkpt><trkpt lat="45.6511287" lon="10.047962"><ele>188.66666666666666</ele><time>2026-04-12T08:26:19.861Z</time></trkpt><trkpt lat="45.6512563" lon="10.0480557"><ele>188.33333333333331</ele><time>2026-04-12T08:26:20.854Z</time></trkpt><trkpt lat="45.6513778" lon="10.0481467"><ele>188.0</ele><time>2026-04-12T08:26:21.882Z</time></trkpt><trkpt lat="45.6516247" lon="10.0483164"><ele>188.0</ele><time>2026-04-12T08:26:23.861Z</time></trkpt><trkpt lat="45.6517461" lon="10.0484033"><ele>188.0</ele><time>2026-04-12T08:26:24.855Z</time></trkpt><trkpt lat="45.6518616" lon="10.0484879"><ele>188.0</ele><time>2026-04-12T08:26:25.862Z</time></trkpt><trkpt lat="45.6519685" lon="10.048567"><ele>188.0</ele><time>2026-04-12T08:26:26.875Z</time></trkpt><trkpt lat="45.6520631" lon="10.0486367"><ele>187.66666666666666</ele><time>2026-04-12T08:26:27.854Z</time></trkpt><trkpt lat="45.6521494" lon="10.0486921"><ele>187.33333333333331</ele><time>2026-04-12T08:26:28.863Z</time></trkpt><trkpt lat="45.652229" lon="10.0487313"><ele>187.0</ele><time>2026-04-12T08:26:29.858Z</time></trkpt><trkpt lat="45.6523086" lon="10.0487682"><ele>186.66666666666666</ele><time>2026-04-12T08:26:30.868Z</time></trkpt><trkpt lat="45.6523824" lon="10.0487981"><ele>186.33333333333334</ele><time>2026-04-12T08:26:31.864Z</time></trkpt><trkpt lat="45.6524521" lon="10.0488291"><ele>186.0</ele><time>2026-04-12T08:26:32.88Z</time></trkpt><trkpt lat="45.6525161" lon="10.0488605"><ele>186.0</ele><time>2026-04-12T08:26:33.856Z</time></trkpt><trkpt lat="45.6526295" lon="10.048918"><ele>186.0</ele><time>2026-04-12T08:26:35.859Z</time></trkpt><trkpt lat="45.6527127" lon="10.0489633"><ele>186.0</ele><time>2026-04-12T08:26:37.864Z</time></trkpt><trkpt lat="45.6527855" lon="10.0490068"><ele>186.0</ele><time>2026-04-12T08:29:51.86Z</time></trkpt><trkpt lat="45.652887" lon="10.0491618"><ele>186.0</ele><time>2026-04-12T08:29:55.863Z</time></trkpt><trkpt lat="45.6529283" lon="10.0492539"><ele>186.5</ele><time>2026-04-12T08:29:57.863Z</time></trkpt><trkpt lat="45.6529805" lon="10.0493599"><ele>187.0</ele><time>2026-04-12T08:29:59.858Z</time></trkpt><trkpt lat="45.6530568" lon="10.0494841"><ele>187.5</ele><time>2026-04-12T08:30:01.869Z</time></trkpt><trkpt lat="45.6531141" lon="10.0495441"><ele>188.0</ele><time>2026-04-12T08:30:02.861Z</time></trkpt><trkpt lat="45.6531831" lon="10.0495942"><ele>188.5</ele><time>2026-04-12T08:30:03.863Z</time></trkpt><trkpt lat="45.6532677" lon="10.0496343"><ele>189.0</ele><time>2026-04-12T08:30:04.862Z</time></trkpt><trkpt lat="45.6533556" lon="10.0496605"><ele>189.0</ele><time>2026-04-12T08:30:05.856Z</time></trkpt><trkpt lat="45.6534475" lon="10.049685"><ele>189.0</ele><time>2026-04-12T08:30:06.862Z</time></trkpt><trkpt lat="45.6535478" lon="10.049721"><ele>189.0</ele><time>2026-04-12T08:30:07.879Z</time></trkpt><trkpt lat="45.653666" lon="10.0497544"><ele>189.0</ele><time>2026-04-12T08:30:08.859Z</time></trkpt><trkpt lat="45.6537865" lon="10.0497886"><ele>189.0</ele><time>2026-04-12T08:30:09.86Z</time></trkpt><trkpt lat="45.6538912" lon="10.0498191"><ele>189.0</ele><time>2026-04-12T08:30:10.872Z</time></trkpt><trkpt lat="45.6539883" lon="10.0498451"><ele>189.0</ele><time>2026-04-12T08:30:11.876Z</time></trkpt><trkpt lat="45.6542031" lon="10.0499153"><ele>189.0</ele><time>2026-04-12T08:30:13.875Z</time></trkpt><trkpt lat="45.6543173" lon="10.0499503"><ele>189.0</ele><time>2026-04-12T08:30:14.875Z</time></trkpt><trkpt lat="45.6544325" lon="10.0499793"><ele>189.0</ele><time>2026-04-12T08:30:15.862Z</time></trkpt><trkpt lat="45.6545419" lon="10.0500161"><ele>189.0</ele><time>2026-04-12T08:30:16.863Z</time></trkpt><trkpt lat="45.6546403" lon="10.0500523"><ele>189.0</ele><time>2026-04-12T08:30:17.857Z</time></trkpt><trkpt lat="45.6547412" lon="10.0500912"><ele>189.0</ele><time>2026-04-12T08:30:18.876Z</time></trkpt><trkpt lat="45.6548481" lon="10.0501299"><ele>189.0</ele><time>2026-04-12T08:30:19.863Z</time></trkpt><trkpt lat="45.65496" lon="10.0501696"><ele>189.0</ele><time>2026-04-12T08:30:20.865Z</time></trkpt><trkpt lat="45.6550715" lon="10.0502127"><ele>189.0</ele><time>2026-04-12T08:30:21.864Z</time></trkpt><trkpt lat="45.6551789" lon="10.050253"><ele>189.0</ele><time>2026-04-12T08:30:22.871Z</time></trkpt><trkpt lat="45.6552808" lon="10.0502862"><ele>189.0</ele><time>2026-04-12T08:30:23.871Z</time></trkpt><trkpt lat="45.6553712" lon="10.0503185"><ele>189.0</ele><time>2026-04-12T08:30:24.862Z</time></trkpt><trkpt lat="45.655456" lon="10.0503449"><ele>189.2</ele><time>2026-04-12T08:30:25.871Z</time></trkpt><trkpt lat="45.6555404" lon="10.0503683"><ele>189.39999999999998</ele><time>2026-04-12T08:30:26.869Z</time></trkpt><trkpt lat="45.6556274" lon="10.050399"><ele>189.6</ele><time>2026-04-12T08:30:27.877Z</time></trkpt><trkpt lat="45.6557139" lon="10.050429"><ele>189.8</ele><time>2026-04-12T08:30:28.867Z</time></trkpt><trkpt lat="45.6558069" lon="10.0504637"><ele>190.0</ele><time>2026-04-12T08:30:29.862Z</time></trkpt><trkpt lat="45.6559051" lon="10.0505036"><ele>190.0</ele><time>2026-04-12T08:30:30.859Z</time></trkpt><trkpt lat="45.6560074" lon="10.0505451"><ele>190.0</ele><time>2026-04-12T08:30:31.86Z</time></trkpt><trkpt lat="45.6561117" lon="10.0505828"><ele>190.0</ele><time>2026-04-12T08:30:32.867Z</time></trkpt><trkpt lat="45.656313" lon="10.0506514"><ele>190.0</ele><time>2026-04-12T08:30:34.857Z</time></trkpt><trkpt lat="45.656416" lon="10.0506831"><ele>190.0</ele><time>2026-04-12T08:30:35.86Z</time></trkpt><trkpt lat="45.6565334" lon="10.0507212"><ele>190.0</ele><time>2026-04-12T08:30:36.862Z</time></trkpt><trkpt lat="45.6566609" lon="10.0507651"><ele>190.0</ele><time>2026-04-12T08:30:37.856Z</time></trkpt><trkpt lat="45.6567889" lon="10.0508155"><ele>190.0</ele><time>2026-04-12T08:30:38.874Z</time></trkpt><trkpt lat="45.6569095" lon="10.0508725"><ele>190.0</ele><time>2026-04-12T08:30:39.859Z</time></trkpt><trkpt lat="45.6570146" lon="10.0509269"><ele>190.0</ele><time>2026-04-12T08:30:40.87Z</time></trkpt><trkpt lat="45.6571062" lon="10.0509815"><ele>190.0</ele><time>2026-04-12T08:30:41.865Z</time></trkpt><trkpt lat="45.6571893" lon="10.0510409"><ele>190.0</ele><time>2026-04-12T08:30:42.866Z</time></trkpt><trkpt lat="45.6572679" lon="10.0511071"><ele>190.0</ele><time>2026-04-12T08:30:43.86Z</time></trkpt><trkpt lat="45.6573371" lon="10.0511687"><ele>190.0</ele><time>2026-04-12T08:30:44.863Z</time></trkpt><trkpt lat="45.6574071" lon="10.0512325"><ele>190.0</ele><time>2026-04-12T08:30:45.863Z</time></trkpt><trkpt lat="45.6574746" lon="10.0513004"><ele>190.0</ele><time>2026-04-12T08:30:46.864Z</time></trkpt><trkpt lat="45.6575403" lon="10.0513669"><ele>190.0</ele><time>2026-04-12T08:30:47.875Z</time></trkpt><trkpt lat="45.6576037" lon="10.0514351"><ele>190.0</ele><time>2026-04-12T08:30:48.859Z</time></trkpt><trkpt lat="45.6576698" lon="10.0515064"><ele>190.0</ele><time>2026-04-12T08:30:49.859Z</time></trkpt><trkpt lat="45.6577424" lon="10.0515807"><ele>190.8</ele><time>2026-04-12T08:30:50.862Z</time></trkpt><trkpt lat="45.6578134" lon="10.0516527"><ele>191.6</ele><time>2026-04-12T08:30:51.857Z</time></trkpt><trkpt lat="45.6578805" lon="10.0517199"><ele>192.39999999999998</ele><time>2026-04-12T08:30:52.856Z</time></trkpt><trkpt lat="45.6579444" lon="10.0517839"><ele>193.2</ele><time>2026-04-12T08:30:53.863Z</time></trkpt><trkpt lat="45.6580771" lon="10.0519151"><ele>194.0</ele><time>2026-04-12T08:30:55.864Z</time></trkpt><trkpt lat="45.6581421" lon="10.051982"><ele>194.00000000000003</ele><time>2026-04-12T08:30:56.859Z</time></trkpt><trkpt lat="45.6582024" lon="10.0520471"><ele>194.0</ele><time>2026-04-12T08:30:57.852Z</time></trkpt><trkpt lat="45.6582557" lon="10.052105"><ele>194.0</ele><time>2026-04-12T08:30:58.864Z</time></trkpt><trkpt lat="45.6583451" lon="10.0522023"><ele>194.0</ele><time>2026-04-12T08:31:00.869Z</time></trkpt><trkpt lat="45.6584066" lon="10.0522769"><ele>194.00000000000003</ele><time>2026-04-12T08:31:02.861Z</time></trkpt><trkpt lat="45.6584833" lon="10.0523584"><ele>194.0</ele><time>2026-04-12T08:31:19.86Z</time></trkpt><trkpt lat="45.6586102" lon="10.0524989"><ele>194.2</ele><time>2026-04-12T08:31:21.88Z</time></trkpt><trkpt lat="45.6586939" lon="10.052586"><ele>194.39999999999998</ele><time>2026-04-12T08:31:22.864Z</time></trkpt><trkpt lat="45.6587715" lon="10.0526762"><ele>194.6</ele><time>2026-04-12T08:31:23.86Z</time></trkpt><trkpt lat="45.6588526" lon="10.0527642"><ele>194.8</ele><time>2026-04-12T08:31:24.864Z</time></trkpt><trkpt lat="45.6589312" lon="10.0528463"><ele>195.0</ele><time>2026-04-12T08:31:25.87Z</time></trkpt><trkpt lat="45.6589977" lon="10.0529205"><ele>195.0</ele><time>2026-04-12T08:31:26.858Z</time></trkpt><trkpt lat="45.659052" lon="10.0529856"><ele>195.0</ele><time>2026-04-12T08:31:27.868Z</time></trkpt><trkpt lat="45.6590968" lon="10.0530552"><ele>195.0</ele><time>2026-04-12T08:31:28.863Z</time></trkpt><trkpt lat="45.6591336" lon="10.0531297"><ele>195.0</ele><time>2026-04-12T08:31:29.861Z</time></trkpt><trkpt lat="45.6591971" lon="10.0532614"><ele>195.0</ele><time>2026-04-12T08:31:31.869Z</time></trkpt><trkpt lat="45.6593038" lon="10.0532851"><ele>195.0</ele><time>2026-04-12T08:31:33.86Z</time></trkpt><trkpt lat="45.6593803" lon="10.053301"><ele>195.6</ele><time>2026-04-12T08:31:34.861Z</time></trkpt><trkpt lat="45.6594669" lon="10.0533625"><ele>196.2</ele><time>2026-04-12T08:31:35.862Z</time></trkpt><trkpt lat="45.6595607" lon="10.0534507"><ele>196.8</ele><time>2026-04-12T08:31:36.863Z</time></trkpt><trkpt lat="45.6596559" lon="10.0535484"><ele>197.4</ele><time>2026-04-12T08:31:37.858Z</time></trkpt><trkpt lat="45.659752" lon="10.0536423"><ele>198.0</ele><time>2026-04-12T08:31:38.852Z</time></trkpt><trkpt lat="45.6598449" lon="10.0537244"><ele>198.0</ele><time>2026-04-12T08:31:39.873Z</time></trkpt><trkpt lat="45.6599303" lon="10.0538023"><ele>198.0</ele><time>2026-04-12T08:31:40.862Z</time></trkpt><trkpt lat="45.6600695" lon="10.0539295"><ele>198.0</ele><time>2026-04-12T08:31:42.876Z</time></trkpt><trkpt lat="45.660127" lon="10.0539985"><ele>198.0</ele><time>2026-04-12T08:31:43.874Z</time></trkpt><trkpt lat="45.6601652" lon="10.0540885"><ele>198.0</ele><time>2026-04-12T08:31:44.861Z</time></trkpt><trkpt lat="45.6601984" lon="10.0541915"><ele>198.25</ele><time>2026-04-12T08:31:45.859Z</time></trkpt><trkpt lat="45.6602159" lon="10.0543213"><ele>198.5</ele><time>2026-04-12T08:31:46.869Z</time></trkpt><trkpt lat="45.6602099" lon="10.0544861"><ele>198.75</ele><time>2026-04-12T08:31:47.872Z</time></trkpt><trkpt lat="45.660183" lon="10.0546822"><ele>199.0</ele><time>2026-04-12T08:31:48.877Z</time></trkpt><trkpt lat="45.6601409" lon="10.0548984"><ele>199.5</ele><time>2026-04-12T08:31:49.88Z</time></trkpt><trkpt lat="45.6601001" lon="10.0551066"><ele>200.0</ele><time>2026-04-12T08:31:50.863Z</time></trkpt><trkpt lat="45.6600575" lon="10.0553082"><ele>200.5</ele><time>2026-04-12T08:31:51.865Z</time></trkpt><trkpt lat="45.6600185" lon="10.0554782"><ele>201.0</ele><time>2026-04-12T08:31:52.875Z</time></trkpt><trkpt lat="45.6599829" lon="10.0556254"><ele>201.0</ele><time>2026-04-12T08:31:53.873Z</time></trkpt><trkpt lat="45.659948" lon="10.0557661"><ele>201.0</ele><time>2026-04-12T08:31:54.863Z</time></trkpt><trkpt lat="45.6599126" lon="10.0559159"><ele>201.0</ele><time>2026-04-12T08:31:55.864Z</time></trkpt><trkpt lat="45.6598768" lon="10.056078"><ele>201.0</ele><time>2026-04-12T08:31:56.871Z</time></trkpt><trkpt lat="45.6598408" lon="10.0562486"><ele>202.25</ele><time>2026-04-12T08:31:57.865Z</time></trkpt><trkpt lat="45.6598036" lon="10.0564265"><ele>203.5</ele><time>2026-04-12T08:31:58.873Z</time></trkpt><trkpt lat="45.6597645" lon="10.05661"><ele>204.75</ele><time>2026-04-12T08:31:59.858Z</time></trkpt><trkpt lat="45.6597274" lon="10.0567894"><ele>206.0</ele><time>2026-04-12T08:32:00.877Z</time></trkpt><trkpt lat="45.6596922" lon="10.0569575"><ele>207.33333333333334</ele><time>2026-04-12T08:32:01.861Z</time></trkpt><trkpt lat="45.6596197" lon="10.0572696"><ele>208.66666666666669</ele><time>2026-04-12T08:32:03.878Z</time></trkpt><trkpt lat="45.6595796" lon="10.0574295"><ele>210.0</ele><time>2026-04-12T08:32:04.871Z</time></trkpt><trkpt lat="45.6595366" lon="10.0575964"><ele>210.5</ele><time>2026-04-12T08:32:05.869Z</time></trkpt><trkpt lat="45.6594938" lon="10.057769"><ele>211.0</ele><time>2026-04-12T08:32:06.86Z</time></trkpt><trkpt lat="45.6594512" lon="10.0579438"><ele>211.5</ele><time>2026-04-12T08:32:07.875Z</time></trkpt><trkpt lat="45.6594077" lon="10.0581166"><ele>212.0</ele><time>2026-04-12T08:32:08.862Z</time></trkpt><trkpt lat="45.6593642" lon="10.0582872"><ele>213.25</ele><time>2026-04-12T08:32:09.871Z</time></trkpt><trkpt lat="45.6593201" lon="10.058458"><ele>214.5</ele><time>2026-04-12T08:32:10.861Z</time></trkpt><trkpt lat="45.6592764" lon="10.0586295"><ele>215.75</ele><time>2026-04-12T08:32:11.86Z</time></trkpt><trkpt lat="45.6592321" lon="10.0588"><ele>217.0</ele><time>2026-04-12T08:32:12.863Z</time></trkpt><trkpt lat="45.6591886" lon="10.0589652"><ele>217.6</ele><time>2026-04-12T08:32:13.873Z</time></trkpt><trkpt lat="45.659147" lon="10.0591224"><ele>218.2</ele><time>2026-04-12T08:32:14.883Z</time></trkpt><trkpt lat="45.6591126" lon="10.0592737"><ele>218.8</ele><time>2026-04-12T08:32:15.88Z</time></trkpt><trkpt lat="45.6590894" lon="10.059425"><ele>219.4</ele><time>2026-04-12T08:32:16.86Z</time></trkpt><trkpt lat="45.659092" lon="10.0595836"><ele>220.0</ele><time>2026-04-12T08:32:17.862Z</time></trkpt><trkpt lat="45.6591222" lon="10.0597361"><ele>220.0</ele><time>2026-04-12T08:32:18.857Z</time></trkpt><trkpt lat="45.6591756" lon="10.0598752"><ele>220.0</ele><time>2026-04-12T08:32:19.865Z</time></trkpt><trkpt lat="45.6592386" lon="10.0600003"><ele>220.0</ele><time>2026-04-12T08:32:20.859Z</time></trkpt><trkpt lat="45.6593279" lon="10.0601205"><ele>220.0</ele><time>2026-04-12T08:32:21.873Z</time></trkpt><trkpt lat="45.6594283" lon="10.0602353"><ele>218.33333333333331</ele><time>2026-04-12T08:32:22.877Z</time></trkpt><trkpt lat="45.6596458" lon="10.0604437"><ele>216.66666666666669</ele><time>2026-04-12T08:32:24.883Z</time></trkpt><trkpt lat="45.6597448" lon="10.0605589"><ele>215.0</ele><time>2026-04-12T08:32:25.876Z</time></trkpt><trkpt lat="45.6598358" lon="10.0606927"><ele>216.5</ele><time>2026-04-12T08:32:26.869Z</time></trkpt><trkpt lat="45.6599215" lon="10.0608509"><ele>218.0</ele><time>2026-04-12T08:32:27.873Z</time></trkpt><trkpt lat="45.6599922" lon="10.061024"><ele>219.5</ele><time>2026-04-12T08:32:28.877Z</time></trkpt><trkpt lat="45.6600401" lon="10.0612105"><ele>221.0</ele><time>2026-04-12T08:32:29.863Z</time></trkpt><trkpt lat="45.6600781" lon="10.0614051"><ele>221.0</ele><time>2026-04-12T08:32:30.87Z</time></trkpt><trkpt lat="45.6600946" lon="10.0615859"><ele>221.0</ele><time>2026-04-12T08:32:31.86Z</time></trkpt><trkpt lat="45.6600995" lon="10.0617734"><ele>221.0</ele><time>2026-04-12T08:32:32.865Z</time></trkpt><trkpt lat="45.6601091" lon="10.0619681"><ele>221.0</ele><time>2026-04-12T08:32:33.861Z</time></trkpt><trkpt lat="45.6601248" lon="10.0621712"><ele>222.25</ele><time>2026-04-12T08:32:34.877Z</time></trkpt><trkpt lat="45.6601483" lon="10.0623735"><ele>223.5</ele><time>2026-04-12T08:32:35.86Z</time></trkpt><trkpt lat="45.6601742" lon="10.0625746"><ele>224.75</ele><time>2026-04-12T08:32:36.859Z</time></trkpt><trkpt lat="45.6601945" lon="10.0627697"><ele>226.0</ele><time>2026-04-12T08:32:37.855Z</time></trkpt><trkpt lat="45.660218" lon="10.062961"><ele>227.25</ele><time>2026-04-12T08:32:38.879Z</time></trkpt><trkpt lat="45.6602387" lon="10.0631463"><ele>228.5</ele><time>2026-04-12T08:32:39.867Z</time></trkpt><trkpt lat="45.6602617" lon="10.063326"><ele>229.75</ele><time>2026-04-12T08:32:40.867Z</time></trkpt><trkpt lat="45.660285" lon="10.0635084"><ele>231.0</ele><time>2026-04-12T08:32:41.871Z</time></trkpt><trkpt lat="45.6603148" lon="10.0636803"><ele>232.0</ele><time>2026-04-12T08:32:42.863Z</time></trkpt><trkpt lat="45.6603589" lon="10.0638383"><ele>233.0</ele><time>2026-04-12T08:32:43.882Z</time></trkpt><trkpt lat="45.6605399" lon="10.0640704"><ele>234.0</ele><time>2026-04-12T08:32:45.86Z</time></trkpt><trkpt lat="45.660665" lon="10.0641577"><ele>235.25</ele><time>2026-04-12T08:32:46.859Z</time></trkpt><trkpt lat="45.6607936" lon="10.0642259"><ele>236.5</ele><time>2026-04-12T08:32:47.858Z</time></trkpt><trkpt lat="45.6609354" lon="10.0642762"><ele>237.75</ele><time>2026-04-12T08:32:48.863Z</time></trkpt><trkpt lat="45.6610662" lon="10.0643315"><ele>239.0</ele><time>2026-04-12T08:32:49.863Z</time></trkpt><trkpt lat="45.661195" lon="10.0643914"><ele>239.0</ele><time>2026-04-12T08:32:50.863Z</time></trkpt><trkpt lat="45.6613136" lon="10.0644399"><ele>238.99999999999997</ele><time>2026-04-12T08:32:51.862Z</time></trkpt><trkpt lat="45.6614219" lon="10.064462"><ele>238.99999999999997</ele><time>2026-04-12T08:32:52.876Z</time></trkpt><trkpt lat="45.661504" lon="10.0644792"><ele>239.0</ele><time>2026-04-12T08:32:53.862Z</time></trkpt><trkpt lat="45.6615786" lon="10.0645535"><ele>239.0</ele><time>2026-04-12T08:32:55.873Z</time></trkpt><trkpt lat="45.6615682" lon="10.0646788"><ele>239.0</ele><time>2026-04-12T08:32:57.859Z</time></trkpt><trkpt lat="45.6615063" lon="10.0647446"><ele>238.99999999999997</ele><time>2026-04-12T08:32:58.856Z</time></trkpt><trkpt lat="45.661421" lon="10.0647717"><ele>238.99999999999997</ele><time>2026-04-12T08:32:59.854Z</time></trkpt><trkpt lat="45.6613097" lon="10.0647488"><ele>239.0</ele><time>2026-04-12T08:33:00.857Z</time></trkpt><trkpt lat="45.6611733" lon="10.0646853"><ele>239.0</ele><time>2026-04-12T08:33:01.853Z</time></trkpt><trkpt lat="45.661016" lon="10.064631"><ele>240.33333333333334</ele><time>2026-04-12T08:33:02.856Z</time></trkpt><trkpt lat="45.6608529" lon="10.0645969"><ele>241.66666666666669</ele><time>2026-04-12T08:33:03.86Z</time></trkpt><trkpt lat="45.6606934" lon="10.0645766"><ele>243.0</ele><time>2026-04-12T08:33:04.849Z</time></trkpt><trkpt lat="45.6603565" lon="10.0644462"><ele>247.66666666666669</ele><time>2026-04-12T08:33:06.851Z</time></trkpt><trkpt lat="45.660174" lon="10.0643447"><ele>252.33333333333334</ele><time>2026-04-12T08:33:07.854Z</time></trkpt><trkpt lat="45.6599787" lon="10.0642363"><ele>257.0</ele><time>2026-04-12T08:33:08.857Z</time></trkpt><trkpt lat="45.6597797" lon="10.0641566"><ele>255.0</ele><time>2026-04-12T08:33:09.853Z</time></trkpt><trkpt lat="45.6595823" lon="10.0640944"><ele>253.0</ele><time>2026-04-12T08:33:10.853Z</time></trkpt><trkpt lat="45.6594009" lon="10.0640272"><ele>251.0</ele><time>2026-04-12T08:33:11.859Z</time></trkpt><trkpt lat="45.659232" lon="10.0639614"><ele>251.0</ele><time>2026-04-12T08:33:12.853Z</time></trkpt><trkpt lat="45.6590735" lon="10.0639065"><ele>251.0</ele><time>2026-04-12T08:33:13.858Z</time></trkpt><trkpt lat="45.6589213" lon="10.0638567"><ele>251.0</ele><time>2026-04-12T08:33:14.858Z</time></trkpt><trkpt lat="45.6587655" lon="10.0638118"><ele>255.0</ele><time>2026-04-12T08:33:15.851Z</time></trkpt><trkpt lat="45.6586115" lon="10.0637783"><ele>259.0</ele><time>2026-04-12T08:33:16.852Z</time></trkpt><trkpt lat="45.6584611" lon="10.063746"><ele>263.0</ele><time>2026-04-12T08:33:17.854Z</time></trkpt><trkpt lat="45.658309" lon="10.0637256"><ele>263.0</ele><time>2026-04-12T08:33:18.852Z</time></trkpt><trkpt lat="45.6581551" lon="10.0637397"><ele>263.0</ele><time>2026-04-12T08:33:19.852Z</time></trkpt><trkpt lat="45.6580219" lon="10.063825"><ele>263.0</ele><time>2026-04-12T08:33:20.857Z</time></trkpt><trkpt lat="45.6578883" lon="10.0639106"><ele>263.0</ele><time>2026-04-12T08:33:21.854Z</time></trkpt><trkpt lat="45.6577695" lon="10.0639117"><ele>264.8</ele><time>2026-04-12T08:33:22.85Z</time></trkpt><trkpt lat="45.657673" lon="10.0638659"><ele>266.6</ele><time>2026-04-12T08:33:23.852Z</time></trkpt><trkpt lat="45.6575959" lon="10.0638044"><ele>268.4</ele><time>2026-04-12T08:33:24.854Z</time></trkpt><trkpt lat="45.6575309" lon="10.063735"><ele>270.2</ele><time>2026-04-12T08:33:25.853Z</time></trkpt><trkpt lat="45.6573649" lon="10.0637466"><ele>272.0</ele><time>2026-04-12T08:33:28.854Z</time></trkpt><trkpt lat="45.6573391" lon="10.0638621"><ele>272.0</ele><time>2026-04-12T08:33:29.849Z</time></trkpt><trkpt lat="45.6573329" lon="10.0639939"><ele>272.0</ele><time>2026-04-12T08:33:30.855Z</time></trkpt><trkpt lat="45.6573529" lon="10.0641171"><ele>272.0</ele><time>2026-04-12T08:33:31.852Z</time></trkpt><trkpt lat="45.6574084" lon="10.064209"><ele>272.0</ele><time>2026-04-12T08:33:32.849Z</time></trkpt><trkpt lat="45.6574873" lon="10.0642779"><ele>272.0</ele><time>2026-04-12T08:33:33.852Z</time></trkpt><trkpt lat="45.6575955" lon="10.0643215"><ele>277.0</ele><time>2026-04-12T08:33:34.848Z</time></trkpt><trkpt lat="45.6577342" lon="10.0643442"><ele>282.0</ele><time>2026-04-12T08:33:35.85Z</time></trkpt><trkpt lat="45.6578901" lon="10.0643682"><ele>287.0</ele><time>2026-04-12T08:33:36.848Z</time></trkpt><trkpt lat="45.6580457" lon="10.0643963"><ele>287.0</ele><time>2026-04-12T08:33:37.858Z</time></trkpt><trkpt lat="45.6582035" lon="10.0644179"><ele>287.0</ele><time>2026-04-12T08:33:38.85Z</time></trkpt><trkpt lat="45.6583622" lon="10.0644446"><ele>287.0</ele><time>2026-04-12T08:33:39.853Z</time></trkpt><trkpt lat="45.6585207" lon="10.0644699"><ele>284.25</ele><time>2026-04-12T08:33:40.85Z</time></trkpt><trkpt lat="45.6586704" lon="10.0644917"><ele>281.5</ele><time>2026-04-12T08:33:41.862Z</time></trkpt><trkpt lat="45.6588052" lon="10.0645337"><ele>278.75</ele><time>2026-04-12T08:33:42.852Z</time></trkpt><trkpt lat="45.6589343" lon="10.0646195"><ele>276.0</ele><time>2026-04-12T08:33:43.85Z</time></trkpt><trkpt lat="45.6590556" lon="10.0647395"><ele>276.0</ele><time>2026-04-12T08:33:44.852Z</time></trkpt><trkpt lat="45.6591713" lon="10.0648738"><ele>276.0</ele><time>2026-04-12T08:33:45.859Z</time></trkpt><trkpt lat="45.6592816" lon="10.0650159"><ele>276.0</ele><time>2026-04-12T08:33:46.86Z</time></trkpt><trkpt lat="45.6594941" lon="10.0652991"><ele>277.5</ele><time>2026-04-12T08:33:48.858Z</time></trkpt><trkpt lat="45.6596019" lon="10.0654366"><ele>279.0</ele><time>2026-04-12T08:33:49.859Z</time></trkpt><trkpt lat="45.659703" lon="10.0655631"><ele>280.5</ele><time>2026-04-12T08:33:50.857Z</time></trkpt><trkpt lat="45.6597923" lon="10.0656837"><ele>282.0</ele><time>2026-04-12T08:33:51.859Z</time></trkpt><trkpt lat="45.6598726" lon="10.0658042"><ele>288.25</ele><time>2026-04-12T08:33:52.852Z</time></trkpt><trkpt lat="45.6599426" lon="10.0659326"><ele>294.5</ele><time>2026-04-12T08:33:53.854Z</time></trkpt><trkpt lat="45.6600132" lon="10.0660705"><ele>300.75</ele><time>2026-04-12T08:33:54.854Z</time></trkpt><trkpt lat="45.6600776" lon="10.0662212"><ele>307.0</ele><time>2026-04-12T08:33:55.857Z</time></trkpt><trkpt lat="45.6601381" lon="10.0663733"><ele>307.0</ele><time>2026-04-12T08:33:56.863Z</time></trkpt><trkpt lat="45.6601994" lon="10.0665251"><ele>307.0</ele><time>2026-04-12T08:33:57.854Z</time></trkpt><trkpt lat="45.6602666" lon="10.0666823"><ele>307.0</ele><time>2026-04-12T08:33:58.855Z</time></trkpt><trkpt lat="45.6603437" lon="10.0668469"><ele>307.0</ele><time>2026-04-12T08:33:59.855Z</time></trkpt><trkpt lat="45.6604229" lon="10.0670226"><ele>309.0</ele><time>2026-04-12T08:34:00.858Z</time></trkpt><trkpt lat="45.6605044" lon="10.0672104"><ele>311.0</ele><time>2026-04-12T08:34:01.862Z</time></trkpt><trkpt lat="45.6605879" lon="10.0674077"><ele>313.0</ele><time>2026-04-12T08:34:02.861Z</time></trkpt><trkpt lat="45.6606694" lon="10.0676107"><ele>313.0</ele><time>2026-04-12T08:34:03.858Z</time></trkpt><trkpt lat="45.6607475" lon="10.0678095"><ele>313.0</ele><time>2026-04-12T08:34:04.855Z</time></trkpt><trkpt lat="45.6608147" lon="10.0679967"><ele>313.0</ele><time>2026-04-12T08:34:05.86Z</time></trkpt><trkpt lat="45.6608721" lon="10.0681761"><ele>313.0</ele><time>2026-04-12T08:34:06.854Z</time></trkpt><trkpt lat="45.6609157" lon="10.0683524"><ele>317.5</ele><time>2026-04-12T08:34:07.855Z</time></trkpt><trkpt lat="45.6609391" lon="10.0686766"><ele>322.0</ele><time>2026-04-12T08:34:09.857Z</time></trkpt><trkpt lat="45.6609345" lon="10.0688085"><ele>326.5</ele><time>2026-04-12T08:34:10.858Z</time></trkpt><trkpt lat="45.6609401" lon="10.0689228"><ele>331.0</ele><time>2026-04-12T08:34:11.857Z</time></trkpt><trkpt lat="45.6609952" lon="10.0690617"><ele>331.0</ele><time>2026-04-12T08:34:13.86Z</time></trkpt><trkpt lat="45.6610561" lon="10.0690864"><ele>331.0</ele><time>2026-04-12T08:34:14.862Z</time></trkpt><trkpt lat="45.6611199" lon="10.0690799"><ele>331.0</ele><time>2026-04-12T08:34:15.855Z</time></trkpt><trkpt lat="45.6612161" lon="10.0689808"><ele>331.0</ele><time>2026-04-12T08:34:16.861Z</time></trkpt><trkpt lat="45.6612894" lon="10.0688426"><ele>331.0</ele><time>2026-04-12T08:34:17.862Z</time></trkpt><trkpt lat="45.661354" lon="10.0686582"><ele>331.75</ele><time>2026-04-12T08:34:18.853Z</time></trkpt><trkpt lat="45.6613881" lon="10.0684628"><ele>332.5</ele><time>2026-04-12T08:34:19.854Z</time></trkpt><trkpt lat="45.6614193" lon="10.0682761"><ele>333.25</ele><time>2026-04-12T08:34:20.854Z</time></trkpt><trkpt lat="45.6614572" lon="10.0681255"><ele>334.0</ele><time>2026-04-12T08:34:21.861Z</time></trkpt><trkpt lat="45.661518" lon="10.0680174"><ele>330.75</ele><time>2026-04-12T08:34:22.85Z</time></trkpt><trkpt lat="45.6616137" lon="10.0679551"><ele>327.5</ele><time>2026-04-12T08:34:23.856Z</time></trkpt><trkpt lat="45.6617387" lon="10.0679339"><ele>324.25</ele><time>2026-04-12T08:34:24.856Z</time></trkpt><trkpt lat="45.6618742" lon="10.0679524"><ele>321.0</ele><time>2026-04-12T08:34:25.854Z</time></trkpt><trkpt lat="45.6619961" lon="10.0679994"><ele>321.0</ele><time>2026-04-12T08:34:26.855Z</time></trkpt><trkpt lat="45.6620998" lon="10.0680843"><ele>321.0</ele><time>2026-04-12T08:34:27.856Z</time></trkpt><trkpt lat="45.6621951" lon="10.0682038"><ele>321.0</ele><time>2026-04-12T08:34:28.856Z</time></trkpt><trkpt lat="45.6623774" lon="10.0684829"><ele>324.0</ele><time>2026-04-12T08:34:30.853Z</time></trkpt><trkpt lat="45.6624615" lon="10.0686197"><ele>327.0</ele><time>2026-04-12T08:34:31.859Z</time></trkpt><trkpt lat="45.6625505" lon="10.0687646"><ele>330.0</ele><time>2026-04-12T08:34:32.857Z</time></trkpt><trkpt lat="45.6626431" lon="10.0688987"><ele>333.0</ele><time>2026-04-12T08:34:33.862Z</time></trkpt><trkpt lat="45.6627402" lon="10.0690112"><ele>335.4</ele><time>2026-04-12T08:34:34.862Z</time></trkpt><trkpt lat="45.6628366" lon="10.0690792"><ele>337.79999999999995</ele><time>2026-04-12T08:34:35.858Z</time></trkpt><trkpt lat="45.6629373" lon="10.0690994"><ele>340.2</ele><time>2026-04-12T08:34:36.854Z</time></trkpt><trkpt lat="45.6630523" lon="10.0690599"><ele>342.6</ele><time>2026-04-12T08:34:37.853Z</time></trkpt><trkpt lat="45.6631592" lon="10.0689756"><ele>345.0</ele><time>2026-04-12T08:34:38.855Z</time></trkpt><trkpt lat="45.6632604" lon="10.0688648"><ele>345.0</ele><time>2026-04-12T08:34:39.859Z</time></trkpt><trkpt lat="45.6633346" lon="10.0687417"><ele>345.0</ele><time>2026-04-12T08:34:40.858Z</time></trkpt><trkpt lat="45.6634077" lon="10.0686568"><ele>345.0</ele><time>2026-04-12T08:34:41.87Z</time></trkpt><trkpt lat="45.6634828" lon="10.0686106"><ele>345.0</ele><time>2026-04-12T08:34:42.858Z</time></trkpt><trkpt lat="45.6635637" lon="10.0686169"><ele>345.0</ele><time>2026-04-12T08:34:43.858Z</time></trkpt><trkpt lat="45.6636311" lon="10.0686989"><ele>345.5</ele><time>2026-04-12T08:34:44.859Z</time></trkpt><trkpt lat="45.6636767" lon="10.0688172"><ele>346.0</ele><time>2026-04-12T08:34:45.857Z</time></trkpt><trkpt lat="45.6636782" lon="10.0689733"><ele>346.5</ele><time>2026-04-12T08:34:46.861Z</time></trkpt><trkpt lat="45.6636248" lon="10.0691526"><ele>347.0</ele><time>2026-04-12T08:34:47.856Z</time></trkpt><trkpt lat="45.6635424" lon="10.0693049"><ele>347.0</ele><time>2026-04-12T08:34:48.859Z</time></trkpt><trkpt lat="45.6634434" lon="10.0694652"><ele>347.0</ele><time>2026-04-12T08:34:49.858Z</time></trkpt><trkpt lat="45.6633057" lon="10.0698103"><ele>347.0</ele><time>2026-04-12T08:34:51.863Z</time></trkpt><trkpt lat="45.6632662" lon="10.069951"><ele>347.0</ele><time>2026-04-12T08:34:52.856Z</time></trkpt><trkpt lat="45.6632214" lon="10.0700523"><ele>347.0</ele><time>2026-04-12T08:34:53.856Z</time></trkpt><trkpt lat="45.6631572" lon="10.0701118"><ele>347.0</ele><time>2026-04-12T08:34:54.857Z</time></trkpt><trkpt lat="45.6630837" lon="10.0700943"><ele>347.0</ele><time>2026-04-12T08:34:55.855Z</time></trkpt><trkpt lat="45.6630122" lon="10.0700076"><ele>347.0</ele><time>2026-04-12T08:34:56.856Z</time></trkpt><trkpt lat="45.6629472" lon="10.0698695"><ele>347.0</ele><time>2026-04-12T08:34:57.857Z</time></trkpt><trkpt lat="45.6628836" lon="10.0696892"><ele>347.0</ele><time>2026-04-12T08:34:58.856Z</time></trkpt><trkpt lat="45.6628159" lon="10.069524"><ele>347.0</ele><time>2026-04-12T08:34:59.851Z</time></trkpt><trkpt lat="45.6627433" lon="10.069377"><ele>347.0</ele><time>2026-04-12T08:35:00.861Z</time></trkpt><trkpt lat="45.662661" lon="10.0692741"><ele>347.0</ele><time>2026-04-12T08:35:01.862Z</time></trkpt><trkpt lat="45.6625318" lon="10.0692551"><ele>347.25</ele><time>2026-04-12T08:35:02.855Z</time></trkpt><trkpt lat="45.6623737" lon="10.0692719"><ele>347.5</ele><time>2026-04-12T08:35:03.853Z</time></trkpt><trkpt lat="45.6622329" lon="10.0692644"><ele>347.75</ele><time>2026-04-12T08:35:04.856Z</time></trkpt><trkpt lat="45.6621128" lon="10.0692352"><ele>348.0</ele><time>2026-04-12T08:35:05.854Z</time></trkpt><trkpt lat="45.6620091" lon="10.0691881"><ele>345.2</ele><time>2026-04-12T08:35:06.857Z</time></trkpt><trkpt lat="45.6619349" lon="10.0690927"><ele>342.4</ele><time>2026-04-12T08:35:07.855Z</time></trkpt><trkpt lat="45.6618958" lon="10.0689811"><ele>339.59999999999997</ele><time>2026-04-12T08:35:08.86Z</time></trkpt><trkpt lat="45.6618793" lon="10.0688711"><ele>336.79999999999995</ele><time>2026-04-12T08:35:09.854Z</time></trkpt><trkpt lat="45.6617897" lon="10.0687811"><ele>334.0</ele><time>2026-04-12T08:35:11.864Z</time></trkpt><trkpt lat="45.661613" lon="10.0689242"><ele>334.0</ele><time>2026-04-12T08:35:13.864Z</time></trkpt><trkpt lat="45.6615186" lon="10.0691035"><ele>334.0</ele><time>2026-04-12T08:35:14.859Z</time></trkpt><trkpt lat="45.6614168" lon="10.0693462"><ele>334.0</ele><time>2026-04-12T08:35:15.855Z</time></trkpt><trkpt lat="45.6613051" lon="10.06961"><ele>340.0</ele><time>2026-04-12T08:35:16.864Z</time></trkpt><trkpt lat="45.6611858" lon="10.0698656"><ele>346.0</ele><time>2026-04-12T08:35:17.861Z</time></trkpt><trkpt lat="45.6610561" lon="10.0701053"><ele>352.0</ele><time>2026-04-12T08:35:18.863Z</time></trkpt><trkpt lat="45.6609388" lon="10.0703302"><ele>356.66666666666663</ele><time>2026-04-12T08:35:19.856Z</time></trkpt><trkpt lat="45.6608194" lon="10.0705222"><ele>361.3333333333333</ele><time>2026-04-12T08:35:20.855Z</time></trkpt><trkpt lat="45.660705" lon="10.0706681"><ele>366.0</ele><time>2026-04-12T08:35:21.863Z</time></trkpt><trkpt lat="45.6605837" lon="10.0707615"><ele>366.0</ele><time>2026-04-12T08:35:22.864Z</time></trkpt><trkpt lat="45.6604935" lon="10.0707542"><ele>366.0</ele><time>2026-04-12T08:35:23.857Z</time></trkpt><trkpt lat="45.6604373" lon="10.070646"><ele>366.0</ele><time>2026-04-12T08:35:24.852Z</time></trkpt><trkpt lat="45.6604086" lon="10.0704812"><ele>366.0</ele><time>2026-04-12T08:35:25.858Z</time></trkpt><trkpt lat="45.6604397" lon="10.0702492"><ele>366.0</ele><time>2026-04-12T08:35:26.855Z</time></trkpt><trkpt lat="45.660428" lon="10.0700504"><ele>366.0</ele><time>2026-04-12T08:35:27.855Z</time></trkpt><trkpt lat="45.660352" lon="10.0699005"><ele>366.0</ele><time>2026-04-12T08:35:28.855Z</time></trkpt><trkpt lat="45.6602239" lon="10.0697835"><ele>366.0</ele><time>2026-04-12T08:35:29.853Z</time></trkpt><trkpt lat="45.6600593" lon="10.069664"><ele>368.0</ele><time>2026-04-12T08:35:30.854Z</time></trkpt><trkpt lat="45.65987" lon="10.0695485"><ele>370.0</ele><time>2026-04-12T08:35:31.86Z</time></trkpt><trkpt lat="45.6596992" lon="10.069438"><ele>372.0</ele><time>2026-04-12T08:35:32.854Z</time></trkpt><trkpt lat="45.6594391" lon="10.0692572"><ele>372.5</ele><time>2026-04-12T08:35:34.863Z</time></trkpt><trkpt lat="45.6593569" lon="10.0691602"><ele>373.0</ele><time>2026-04-12T08:35:35.856Z</time></trkpt><trkpt lat="45.6593152" lon="10.0690419"><ele>373.5</ele><time>2026-04-12T08:35:36.855Z</time></trkpt><trkpt lat="45.659314" lon="10.0689223"><ele>374.0</ele><time>2026-04-12T08:35:37.855Z</time></trkpt><trkpt lat="45.6593231" lon="10.0688026"><ele>374.5</ele><time>2026-04-12T08:35:38.857Z</time></trkpt><trkpt lat="45.6593286" lon="10.0686922"><ele>375.0</ele><time>2026-04-12T08:35:39.857Z</time></trkpt><trkpt lat="45.6592735" lon="10.0685617"><ele>375.0</ele><time>2026-04-12T08:35:41.867Z</time></trkpt><trkpt lat="45.659203" lon="10.0685733"><ele>375.0</ele><time>2026-04-12T08:35:42.856Z</time></trkpt><trkpt lat="45.6591204" lon="10.0686505"><ele>375.0</ele><time>2026-04-12T08:35:43.86Z</time></trkpt><trkpt lat="45.6590715" lon="10.0687691"><ele>375.0</ele><time>2026-04-12T08:35:44.855Z</time></trkpt><trkpt lat="45.6590617" lon="10.0688999"><ele>375.0</ele><time>2026-04-12T08:35:45.855Z</time></trkpt><trkpt lat="45.6591031" lon="10.0690291"><ele>378.66666666666663</ele><time>2026-04-12T08:35:46.85Z</time></trkpt><trkpt lat="45.6591802" lon="10.0691643"><ele>382.3333333333333</ele><time>2026-04-12T08:35:47.857Z</time></trkpt><trkpt lat="45.659289" lon="10.069333"><ele>386.0</ele><time>2026-04-12T08:35:48.859Z</time></trkpt><trkpt lat="45.6594189" lon="10.069535"><ele>385.0</ele><time>2026-04-12T08:35:49.86Z</time></trkpt><trkpt lat="45.6595515" lon="10.0697591"><ele>384.0</ele><time>2026-04-12T08:35:50.857Z</time></trkpt><trkpt lat="45.6596578" lon="10.0700019"><ele>383.0</ele><time>2026-04-12T08:35:51.858Z</time></trkpt><trkpt lat="45.6597369" lon="10.070241"><ele>383.0</ele><time>2026-04-12T08:35:52.856Z</time></trkpt><trkpt lat="45.6598009" lon="10.0704616"><ele>383.0</ele><time>2026-04-12T08:35:53.865Z</time></trkpt><trkpt lat="45.6598613" lon="10.0708451"><ele>383.0</ele><time>2026-04-12T08:35:55.855Z</time></trkpt><trkpt lat="45.659884" lon="10.0710233"><ele>386.5</ele><time>2026-04-12T08:35:56.864Z</time></trkpt><trkpt lat="45.659935" lon="10.0712061"><ele>390.0</ele><time>2026-04-12T08:35:57.861Z</time></trkpt><trkpt lat="45.6600095" lon="10.071383"><ele>393.5</ele><time>2026-04-12T08:35:58.856Z</time></trkpt><trkpt lat="45.660096" lon="10.0715546"><ele>397.0</ele><time>2026-04-12T08:35:59.855Z</time></trkpt><trkpt lat="45.6601891" lon="10.0717206"><ele>399.0</ele><time>2026-04-12T08:36:00.858Z</time></trkpt><trkpt lat="45.6603031" lon="10.0718746"><ele>401.0</ele><time>2026-04-12T08:36:01.857Z</time></trkpt><trkpt lat="45.6604433" lon="10.0720121"><ele>403.0</ele><time>2026-04-12T08:36:02.858Z</time></trkpt><trkpt lat="45.6606044" lon="10.0721328"><ele>403.0</ele><time>2026-04-12T08:36:03.856Z</time></trkpt><trkpt lat="45.6607819" lon="10.072224"><ele>403.0</ele><time>2026-04-12T08:36:04.857Z</time></trkpt><trkpt lat="45.6609568" lon="10.0722897"><ele>403.0</ele><time>2026-04-12T08:36:05.865Z</time></trkpt><trkpt lat="45.6611204" lon="10.0723259"><ele>401.0</ele><time>2026-04-12T08:36:06.857Z</time></trkpt><trkpt lat="45.6612649" lon="10.0723615"><ele>399.0</ele><time>2026-04-12T08:36:07.855Z</time></trkpt><trkpt lat="45.6613948" lon="10.0724226"><ele>397.0</ele><time>2026-04-12T08:36:08.855Z</time></trkpt><trkpt lat="45.6615173" lon="10.0725254"><ele>395.0</ele><time>2026-04-12T08:36:09.857Z</time></trkpt><trkpt lat="45.661634" lon="10.0726513"><ele>400.25</ele><time>2026-04-12T08:36:10.852Z</time></trkpt><trkpt lat="45.6617387" lon="10.0727837"><ele>405.5</ele><time>2026-04-12T08:36:11.862Z</time></trkpt><trkpt lat="45.6618173" lon="10.0729159"><ele>410.75</ele><time>2026-04-12T08:36:12.853Z</time></trkpt><trkpt lat="45.6618706" lon="10.0730632"><ele>416.0</ele><time>2026-04-12T08:36:13.858Z</time></trkpt><trkpt lat="45.6619104" lon="10.0732218"><ele>418.0</ele><time>2026-04-12T08:36:14.862Z</time></trkpt><trkpt lat="45.6619971" lon="10.0734756"><ele>420.0</ele><time>2026-04-12T08:36:16.854Z</time></trkpt><trkpt lat="45.6620342" lon="10.0735649"><ele>422.0</ele><time>2026-04-12T08:36:17.857Z</time></trkpt><trkpt lat="45.6620323" lon="10.0737163"><ele>424.0</ele><time>2026-04-12T08:36:19.857Z</time></trkpt><trkpt lat="45.6619884" lon="10.0737828"><ele>426.0</ele><time>2026-04-12T08:36:20.851Z</time></trkpt><trkpt lat="45.6619176" lon="10.073814"><ele>428.0</ele><time>2026-04-12T08:36:21.856Z</time></trkpt><trkpt lat="45.6618308" lon="10.0737958"><ele>430.0</ele><time>2026-04-12T08:36:22.851Z</time></trkpt><trkpt lat="45.6617495" lon="10.0737173"><ele>432.0</ele><time>2026-04-12T08:36:23.855Z</time></trkpt><trkpt lat="45.6617018" lon="10.073594"><ele>434.0</ele><time>2026-04-12T08:36:24.853Z</time></trkpt><trkpt lat="45.6616816" lon="10.0734512"><ele>436.0</ele><time>2026-04-12T08:36:25.855Z</time></trkpt><trkpt lat="45.6616778" lon="10.0732994"><ele>432.0</ele><time>2026-04-12T08:36:26.858Z</time></trkpt><trkpt lat="45.6616681" lon="10.0731403"><ele>428.0</ele><time>2026-04-12T08:36:27.849Z</time></trkpt><trkpt lat="45.6616439" lon="10.0729939"><ele>424.0</ele><time>2026-04-12T08:36:28.857Z</time></trkpt><trkpt lat="45.6615698" lon="10.072892"><ele>420.0</ele><time>2026-04-12T08:36:29.852Z</time></trkpt><trkpt lat="45.6614597" lon="10.0728165"><ele>416.0</ele><time>2026-04-12T08:36:30.855Z</time></trkpt><trkpt lat="45.6613127" lon="10.072766"><ele>416.0</ele><time>2026-04-12T08:36:31.859Z</time></trkpt><trkpt lat="45.6611396" lon="10.0727518"><ele>416.0</ele><time>2026-04-12T08:36:32.858Z</time></trkpt><trkpt lat="45.6609674" lon="10.072746"><ele>416.0</ele><time>2026-04-12T08:36:33.855Z</time></trkpt><trkpt lat="45.6608192" lon="10.0727236"><ele>418.5</ele><time>2026-04-12T08:36:34.856Z</time></trkpt><trkpt lat="45.6607029" lon="10.072708"><ele>421.0</ele><time>2026-04-12T08:36:35.853Z</time></trkpt><trkpt lat="45.6605238" lon="10.0727991"><ele>423.5</ele><time>2026-04-12T08:36:37.86Z</time></trkpt><trkpt lat="45.6604553" lon="10.0728982"><ele>426.0</ele><time>2026-04-12T08:36:38.854Z</time></trkpt><trkpt lat="45.6603905" lon="10.0729877"><ele>426.0</ele><time>2026-04-12T08:36:39.854Z</time></trkpt><trkpt lat="45.6603267" lon="10.0730581"><ele>426.0</ele><time>2026-04-12T08:36:40.856Z</time></trkpt><trkpt lat="45.6602651" lon="10.0731162"><ele>426.0</ele><time>2026-04-12T08:36:41.856Z</time></trkpt><trkpt lat="45.6602075" lon="10.0731625"><ele>426.0</ele><time>2026-04-12T08:36:42.849Z</time></trkpt><trkpt lat="45.6601039" lon="10.0732208"><ele>426.0</ele><time>2026-04-12T08:36:44.856Z</time></trkpt><trkpt lat="45.6600043" lon="10.0732309"><ele>426.0</ele><time>2026-04-12T08:36:46.853Z</time></trkpt><trkpt lat="45.6598979" lon="10.0731929"><ele>426.8</ele><time>2026-04-12T08:36:48.855Z</time></trkpt><trkpt lat="45.6598289" lon="10.0731543"><ele>427.6</ele><time>2026-04-12T08:36:49.854Z</time></trkpt><trkpt lat="45.6597446" lon="10.0731045"><ele>428.4</ele><time>2026-04-12T08:36:50.853Z</time></trkpt><trkpt lat="45.6596548" lon="10.0730435"><ele>429.2</ele><time>2026-04-12T08:36:51.855Z</time></trkpt><trkpt lat="45.6595597" lon="10.0729756"><ele>430.0</ele><time>2026-04-12T08:36:52.855Z</time></trkpt><trkpt lat="45.6594618" lon="10.0729209"><ele>434.5</ele><time>2026-04-12T08:36:53.853Z</time></trkpt><trkpt lat="45.6593556" lon="10.0728813"><ele>439.0</ele><time>2026-04-12T08:36:54.853Z</time></trkpt><trkpt lat="45.6592438" lon="10.07285"><ele>443.5</ele><time>2026-04-12T08:36:55.853Z</time></trkpt><trkpt lat="45.6591338" lon="10.0728105"><ele>448.0</ele><time>2026-04-12T08:36:56.86Z</time></trkpt><trkpt lat="45.6588953" lon="10.0726972"><ele>448.0</ele><time>2026-04-12T08:36:58.859Z</time></trkpt><trkpt lat="45.6587608" lon="10.0726313"><ele>448.0</ele><time>2026-04-12T08:36:59.854Z</time></trkpt><trkpt lat="45.6586256" lon="10.0725402"><ele>448.0</ele><time>2026-04-12T08:37:00.857Z</time></trkpt><trkpt lat="45.6584933" lon="10.0724293"><ele>448.0</ele><time>2026-04-12T08:37:01.858Z</time></trkpt><trkpt lat="45.6583726" lon="10.0723195"><ele>447.75</ele><time>2026-04-12T08:37:02.853Z</time></trkpt><trkpt lat="45.6582734" lon="10.0721995"><ele>447.5</ele><time>2026-04-12T08:37:03.856Z</time></trkpt><trkpt lat="45.6581849" lon="10.0720772"><ele>447.25</ele><time>2026-04-12T08:37:04.849Z</time></trkpt><trkpt lat="45.6580769" lon="10.0719764"><ele>447.0</ele><time>2026-04-12T08:37:05.853Z</time></trkpt><trkpt lat="45.6579349" lon="10.0719093"><ele>453.0</ele><time>2026-04-12T08:37:06.858Z</time></trkpt><trkpt lat="45.657767" lon="10.0718652"><ele>459.0</ele><time>2026-04-12T08:37:07.85Z</time></trkpt><trkpt lat="45.6575995" lon="10.0718421"><ele>465.0</ele><time>2026-04-12T08:37:08.858Z</time></trkpt><trkpt lat="45.65744" lon="10.0718356"><ele>465.0</ele><time>2026-04-12T08:37:09.858Z</time></trkpt><trkpt lat="45.6572829" lon="10.0718305"><ele>465.0</ele><time>2026-04-12T08:37:10.859Z</time></trkpt><trkpt lat="45.6571308" lon="10.0718181"><ele>465.0</ele><time>2026-04-12T08:37:11.859Z</time></trkpt><trkpt lat="45.6569848" lon="10.0717857"><ele>467.75</ele><time>2026-04-12T08:37:12.854Z</time></trkpt><trkpt lat="45.6568476" lon="10.0717365"><ele>470.5</ele><time>2026-04-12T08:37:13.852Z</time></trkpt><trkpt lat="45.6567223" lon="10.0716725"><ele>473.25</ele><time>2026-04-12T08:37:14.857Z</time></trkpt><trkpt lat="45.6566166" lon="10.0715948"><ele>476.0</ele><time>2026-04-12T08:37:15.854Z</time></trkpt><trkpt lat="45.6565271" lon="10.0715099"><ele>471.25</ele><time>2026-04-12T08:37:16.851Z</time></trkpt><trkpt lat="45.6564417" lon="10.071433"><ele>466.5</ele><time>2026-04-12T08:37:17.855Z</time></trkpt><trkpt lat="45.6562658" lon="10.0713325"><ele>461.75</ele><time>2026-04-12T08:37:19.856Z</time></trkpt><trkpt lat="45.6561832" lon="10.0712927"><ele>457.0</ele><time>2026-04-12T08:37:20.858Z</time></trkpt><trkpt lat="45.6561098" lon="10.0712456"><ele>457.00000000000006</ele><time>2026-04-12T08:37:21.854Z</time></trkpt><trkpt lat="45.6560496" lon="10.0711871"><ele>457.0</ele><time>2026-04-12T08:37:22.856Z</time></trkpt><trkpt lat="45.6559982" lon="10.0711147"><ele>457.0</ele><time>2026-04-12T08:37:23.854Z</time></trkpt><trkpt lat="45.6559489" lon="10.0710554"><ele>457.0</ele><time>2026-04-12T08:37:24.854Z</time></trkpt><trkpt lat="45.6558369" lon="10.0709905"><ele>457.00000000000006</ele><time>2026-04-12T08:37:26.856Z</time></trkpt><trkpt lat="45.6557303" lon="10.0710141"><ele>457.0</ele><time>2026-04-12T08:37:28.859Z</time></trkpt><trkpt lat="45.6556999" lon="10.0711023"><ele>457.0</ele><time>2026-04-12T08:37:30.858Z</time></trkpt><trkpt lat="45.6557008" lon="10.0712009"><ele>457.00000000000006</ele><time>2026-04-12T08:37:32.857Z</time></trkpt><trkpt lat="45.655692" lon="10.0712982"><ele>457.00000000000006</ele><time>2026-04-12T08:37:51.856Z</time></trkpt><trkpt lat="45.6557104" lon="10.0714958"><ele>457.0</ele><time>2026-04-12T08:37:54.853Z</time></trkpt><trkpt lat="45.655701" lon="10.0716219"><ele>457.0</ele><time>2026-04-12T08:37:55.858Z</time></trkpt><trkpt lat="45.6556718" lon="10.0717709"><ele>462.0</ele><time>2026-04-12T08:37:56.866Z</time></trkpt><trkpt lat="45.6556361" lon="10.0719331"><ele>467.0</ele><time>2026-04-12T08:37:57.858Z</time></trkpt><trkpt lat="45.6555935" lon="10.0720944"><ele>472.0</ele><time>2026-04-12T08:37:58.857Z</time></trkpt><trkpt lat="45.6555369" lon="10.072238"><ele>477.0</ele><time>2026-04-12T08:37:59.86Z</time></trkpt><trkpt lat="45.6554568" lon="10.0723502"><ele>477.0</ele><time>2026-04-12T08:38:00.86Z</time></trkpt><trkpt lat="45.6553535" lon="10.0724121"><ele>477.0</ele><time>2026-04-12T08:38:01.871Z</time></trkpt><trkpt lat="45.6552259" lon="10.0724088"><ele>477.0</ele><time>2026-04-12T08:38:02.859Z</time></trkpt><trkpt lat="45.6550795" lon="10.0723505"><ele>477.0</ele><time>2026-04-12T08:38:03.868Z</time></trkpt><trkpt lat="45.654928" lon="10.0722973"><ele>472.5</ele><time>2026-04-12T08:38:04.857Z</time></trkpt><trkpt lat="45.6547835" lon="10.072269"><ele>468.0</ele><time>2026-04-12T08:38:05.872Z</time></trkpt><trkpt lat="45.6546543" lon="10.0722538"><ele>463.5</ele><time>2026-04-12T08:38:06.855Z</time></trkpt><trkpt lat="45.6545436" lon="10.0722503"><ele>459.0</ele><time>2026-04-12T08:38:07.859Z</time></trkpt><trkpt lat="45.6544547" lon="10.0722565"><ele>459.0</ele><time>2026-04-12T08:38:08.864Z</time></trkpt><trkpt lat="45.6543875" lon="10.0722673"><ele>459.0</ele><time>2026-04-12T08:38:09.862Z</time></trkpt><trkpt lat="45.6543154" lon="10.0722995"><ele>459.0</ele><time>2026-04-12T08:38:11.861Z</time></trkpt><trkpt lat="45.6542756" lon="10.0723695"><ele>459.0</ele><time>2026-04-12T08:38:15.868Z</time></trkpt><trkpt lat="45.6544413" lon="10.0723859"><ele>459.0</ele><time>2026-04-12T08:38:21.862Z</time></trkpt><trkpt lat="45.6545149" lon="10.0723525"><ele>459.0</ele><time>2026-04-12T08:38:22.871Z</time></trkpt><trkpt lat="45.6546066" lon="10.0723287"><ele>459.0</ele><time>2026-04-12T08:38:23.856Z</time></trkpt><trkpt lat="45.6547013" lon="10.0723125"><ele>459.0</ele><time>2026-04-12T08:38:24.879Z</time></trkpt><trkpt lat="45.6547953" lon="10.0723101"><ele>459.0</ele><time>2026-04-12T08:38:25.861Z</time></trkpt><trkpt lat="45.6548808" lon="10.072309"><ele>459.0</ele><time>2026-04-12T08:38:26.874Z</time></trkpt><trkpt lat="45.6549599" lon="10.0723032"><ele>459.0</ele><time>2026-04-12T08:38:27.866Z</time></trkpt><trkpt lat="45.6550325" lon="10.0722985"><ele>459.0</ele><time>2026-04-12T08:38:28.879Z</time></trkpt><trkpt lat="45.6551011" lon="10.0723092"><ele>459.0</ele><time>2026-04-12T08:38:29.86Z</time></trkpt><trkpt lat="45.6551706" lon="10.0723224"><ele>459.0</ele><time>2026-04-12T08:38:30.858Z</time></trkpt><trkpt lat="45.6552401" lon="10.0723318"><ele>459.0</ele><time>2026-04-12T08:38:31.865Z</time></trkpt><trkpt lat="45.6553097" lon="10.0723434"><ele>459.0</ele><time>2026-04-12T08:38:32.867Z</time></trkpt><trkpt lat="45.6553785" lon="10.0723434"><ele>459.0</ele><time>2026-04-12T08:38:33.864Z</time></trkpt><trkpt lat="45.655448" lon="10.0723276"><ele>459.0</ele><time>2026-04-12T08:38:34.863Z</time></trkpt><trkpt lat="45.6555151" lon="10.0722953"><ele>462.6</ele><time>2026-04-12T08:38:35.869Z</time></trkpt><trkpt lat="45.6555727" lon="10.0722405"><ele>466.2</ele><time>2026-04-12T08:38:36.87Z</time></trkpt><trkpt lat="45.6556482" lon="10.0720593"><ele>469.80000000000007</ele><time>2026-04-12T08:38:38.861Z</time></trkpt><trkpt lat="45.6556641" lon="10.0719435"><ele>473.40000000000003</ele><time>2026-04-12T08:38:39.864Z</time></trkpt><trkpt lat="45.6556706" lon="10.0718295"><ele>477.0</ele><time>2026-04-12T08:38:40.859Z</time></trkpt><trkpt lat="45.6556821" lon="10.0717261"><ele>477.0</ele><time>2026-04-12T08:38:41.867Z</time></trkpt><trkpt lat="45.6556996" lon="10.0716303"><ele>477.00000000000006</ele><time>2026-04-12T08:38:42.863Z</time></trkpt><trkpt lat="45.6557381" lon="10.0714686"><ele>477.00000000000006</ele><time>2026-04-12T08:38:44.857Z</time></trkpt><trkpt lat="45.6557517" lon="10.0713138"><ele>477.0</ele><time>2026-04-12T08:38:46.853Z</time></trkpt><trkpt lat="45.6557411" lon="10.0711693"><ele>477.0</ele><time>2026-04-12T08:38:48.863Z</time></trkpt><trkpt lat="45.6557623" lon="10.0710682"><ele>457.0</ele><time>2026-04-12T08:38:50.871Z</time></trkpt><trkpt lat="45.6558466" lon="10.0710394"><ele>457.0</ele><time>2026-04-12T08:38:53.862Z</time></trkpt><trkpt lat="45.6558254" lon="10.071136"><ele>457.0</ele><time>2026-04-12T08:40:27.871Z</time></trkpt></trkseg><trkseg><trkpt lat="45.6557128" lon="10.071233"><ele>457.0</ele><time>2026-04-12T08:59:29.264Z</time></trkpt><trkpt lat="45.6557149" lon="10.0713654"><ele>457.0</ele><time>2026-04-12T08:59:30.271Z</time></trkpt><trkpt lat="45.6557184" lon="10.0715135"><ele>457.0</ele><time>2026-04-12T08:59:31.267Z</time></trkpt><trkpt lat="45.6556799" lon="10.0718291"><ele>457.0</ele><time>2026-04-12T08:59:33.266Z</time></trkpt><trkpt lat="45.6556379" lon="10.0719911"><ele>461.0</ele><time>2026-04-12T08:59:34.261Z</time></trkpt><trkpt lat="45.6556002" lon="10.0721462"><ele>465.00000000000006</ele><time>2026-04-12T08:59:35.268Z</time></trkpt><trkpt lat="45.6555537" lon="10.0722844"><ele>469.00000000000006</ele><time>2026-04-12T08:59:36.261Z</time></trkpt><trkpt lat="45.6554874" lon="10.0723893"><ele>473.0</ele><time>2026-04-12T08:59:37.262Z</time></trkpt><trkpt lat="45.6554051" lon="10.0724485"><ele>477.0</ele><time>2026-04-12T08:59:38.266Z</time></trkpt><trkpt lat="45.6553082" lon="10.072454"><ele>472.5</ele><time>2026-04-12T08:59:39.262Z</time></trkpt><trkpt lat="45.6552054" lon="10.0724119"><ele>468.0</ele><time>2026-04-12T08:59:40.264Z</time></trkpt><trkpt lat="45.6550969" lon="10.0723657"><ele>463.5</ele><time>2026-04-12T08:59:41.261Z</time></trkpt><trkpt lat="45.6549798" lon="10.0723239"><ele>459.0</ele><time>2026-04-12T08:59:42.266Z</time></trkpt><trkpt lat="45.6548608" lon="10.0723091"><ele>459.0</ele><time>2026-04-12T08:59:43.259Z</time></trkpt><trkpt lat="45.6547424" lon="10.0723082"><ele>459.0</ele><time>2026-04-12T08:59:44.266Z</time></trkpt><trkpt lat="45.6546278" lon="10.0723135"><ele>459.0</ele><time>2026-04-12T08:59:45.258Z</time></trkpt><trkpt lat="45.6545178" lon="10.0723248"><ele>459.0</ele><time>2026-04-12T08:59:46.268Z</time></trkpt><trkpt lat="45.6544135" lon="10.0723456"><ele>459.0</ele><time>2026-04-12T08:59:47.268Z</time></trkpt><trkpt lat="45.6543328" lon="10.0723872"><ele>461.79999999999995</ele><time>2026-04-12T08:59:48.258Z</time></trkpt><trkpt lat="45.6542799" lon="10.0724533"><ele>464.59999999999997</ele><time>2026-04-12T08:59:49.257Z</time></trkpt><trkpt lat="45.6542632" lon="10.072628"><ele>467.4</ele><time>2026-04-12T08:59:51.269Z</time></trkpt><trkpt lat="45.6542981" lon="10.0727125"><ele>470.2</ele><time>2026-04-12T08:59:52.261Z</time></trkpt><trkpt lat="45.6544105" lon="10.0728719"><ele>473.0</ele><time>2026-04-12T08:59:54.264Z</time></trkpt><trkpt lat="45.6544746" lon="10.072946"><ele>475.0</ele><time>2026-04-12T08:59:55.26Z</time></trkpt><trkpt lat="45.6545383" lon="10.0730262"><ele>476.99999999999994</ele><time>2026-04-12T08:59:56.257Z</time></trkpt><trkpt lat="45.6545997" lon="10.0731076"><ele>478.99999999999994</ele><time>2026-04-12T08:59:57.262Z</time></trkpt><trkpt lat="45.6546668" lon="10.0731874"><ele>481.0</ele><time>2026-04-12T08:59:58.265Z</time></trkpt><trkpt lat="45.65475" lon="10.0732597"><ele>483.0</ele><time>2026-04-12T08:59:59.262Z</time></trkpt><trkpt lat="45.6548461" lon="10.0733234"><ele>483.5</ele><time>2026-04-12T09:00:00.258Z</time></trkpt><trkpt lat="45.6549557" lon="10.0733832"><ele>484.0</ele><time>2026-04-12T09:00:01.258Z</time></trkpt><trkpt lat="45.6550725" lon="10.0734473"><ele>484.5</ele><time>2026-04-12T09:00:02.258Z</time></trkpt><trkpt lat="45.6551928" lon="10.0735261"><ele>485.0</ele><time>2026-04-12T09:00:03.261Z</time></trkpt><trkpt lat="45.6553106" lon="10.0736176"><ele>489.25</ele><time>2026-04-12T09:00:04.259Z</time></trkpt><trkpt lat="45.655421" lon="10.0737122"><ele>493.5</ele><time>2026-04-12T09:00:05.265Z</time></trkpt><trkpt lat="45.6555244" lon="10.0738035"><ele>497.75</ele><time>2026-04-12T09:00:06.261Z</time></trkpt><trkpt lat="45.6556294" lon="10.0739052"><ele>502.0</ele><time>2026-04-12T09:00:07.264Z</time></trkpt><trkpt lat="45.6557308" lon="10.0740282"><ele>497.6666666666667</ele><time>2026-04-12T09:00:08.257Z</time></trkpt><trkpt lat="45.6558253" lon="10.0741761"><ele>493.33333333333337</ele><time>2026-04-12T09:00:09.267Z</time></trkpt><trkpt lat="45.6559226" lon="10.074339"><ele>489.0</ele><time>2026-04-12T09:00:10.259Z</time></trkpt><trkpt lat="45.6560386" lon="10.0744991"><ele>490.33333333333337</ele><time>2026-04-12T09:00:11.268Z</time></trkpt><trkpt lat="45.656165" lon="10.0746587"><ele>491.6666666666667</ele><time>2026-04-12T09:00:12.258Z</time></trkpt><trkpt lat="45.6562828" lon="10.0748395"><ele>493.0</ele><time>2026-04-12T09:00:13.262Z</time></trkpt><trkpt lat="45.65646" lon="10.0752968"><ele>493.0</ele><time>2026-04-12T09:00:15.265Z</time></trkpt><trkpt lat="45.6565284" lon="10.0755409"><ele>493.0</ele><time>2026-04-12T09:00:16.268Z</time></trkpt><trkpt lat="45.6566056" lon="10.0757722"><ele>493.0</ele><time>2026-04-12T09:00:17.265Z</time></trkpt><trkpt lat="45.6566926" lon="10.0759876"><ele>494.0</ele><time>2026-04-12T09:00:18.286Z</time></trkpt><trkpt lat="45.6567809" lon="10.0761967"><ele>495.0</ele><time>2026-04-12T09:00:19.264Z</time></trkpt><trkpt lat="45.6568578" lon="10.0763939"><ele>496.0</ele><time>2026-04-12T09:00:20.271Z</time></trkpt><trkpt lat="45.6569342" lon="10.076582"><ele>497.5</ele><time>2026-04-12T09:00:21.263Z</time></trkpt><trkpt lat="45.6570169" lon="10.0767592"><ele>499.0</ele><time>2026-04-12T09:00:22.259Z</time></trkpt><trkpt lat="45.657109" lon="10.0769126"><ele>500.5</ele><time>2026-04-12T09:00:23.271Z</time></trkpt><trkpt lat="45.6572132" lon="10.0770405"><ele>502.0</ele><time>2026-04-12T09:00:24.275Z</time></trkpt><trkpt lat="45.6573247" lon="10.077145"><ele>502.0</ele><time>2026-04-12T09:00:25.267Z</time></trkpt><trkpt lat="45.6574334" lon="10.0772563"><ele>502.0</ele><time>2026-04-12T09:00:26.267Z</time></trkpt><trkpt lat="45.6575268" lon="10.07738"><ele>502.0</ele><time>2026-04-12T09:00:27.267Z</time></trkpt><trkpt lat="45.6576105" lon="10.0775259"><ele>502.0</ele><time>2026-04-12T09:00:28.266Z</time></trkpt><trkpt lat="45.6576907" lon="10.0776798"><ele>505.25</ele><time>2026-04-12T09:00:29.264Z</time></trkpt><trkpt lat="45.6577902" lon="10.0778256"><ele>508.5</ele><time>2026-04-12T09:00:30.263Z</time></trkpt><trkpt lat="45.6579094" lon="10.0779401"><ele>511.75</ele><time>2026-04-12T09:00:31.264Z</time></trkpt><trkpt lat="45.6580384" lon="10.0780568"><ele>515.0</ele><time>2026-04-12T09:00:32.258Z</time></trkpt><trkpt lat="45.6581687" lon="10.0781905"><ele>515.5</ele><time>2026-04-12T09:00:33.253Z</time></trkpt><trkpt lat="45.6583022" lon="10.0783313"><ele>516.0</ele><time>2026-04-12T09:00:34.262Z</time></trkpt><trkpt lat="45.6585757" lon="10.078612"><ele>518.5</ele><time>2026-04-12T09:00:36.264Z</time></trkpt><trkpt lat="45.6587007" lon="10.0787424"><ele>521.0</ele><time>2026-04-12T09:00:37.259Z</time></trkpt><trkpt lat="45.6588183" lon="10.0788615"><ele>523.5</ele><time>2026-04-12T09:00:38.255Z</time></trkpt><trkpt lat="45.6589284" lon="10.0789547"><ele>526.0</ele><time>2026-04-12T09:00:39.259Z</time></trkpt><trkpt lat="45.6590364" lon="10.0790178"><ele>526.0</ele><time>2026-04-12T09:00:40.263Z</time></trkpt><trkpt lat="45.6591539" lon="10.0790324"><ele>526.0</ele><time>2026-04-12T09:00:41.259Z</time></trkpt><trkpt lat="45.6592966" lon="10.0789989"><ele>526.0</ele><time>2026-04-12T09:00:42.26Z</time></trkpt><trkpt lat="45.6594526" lon="10.0789315"><ele>526.0</ele><time>2026-04-12T09:00:43.261Z</time></trkpt><trkpt lat="45.6596196" lon="10.0788614"><ele>528.6666666666667</ele><time>2026-04-12T09:00:44.255Z</time></trkpt><trkpt lat="45.6597874" lon="10.0787894"><ele>531.3333333333334</ele><time>2026-04-12T09:00:45.255Z</time></trkpt><trkpt lat="45.6599612" lon="10.0787177"><ele>534.0</ele><time>2026-04-12T09:00:46.259Z</time></trkpt><trkpt lat="45.6601387" lon="10.0786588"><ele>534.6666666666666</ele><time>2026-04-12T09:00:47.255Z</time></trkpt><trkpt lat="45.6603219" lon="10.0786312"><ele>535.3333333333333</ele><time>2026-04-12T09:00:48.262Z</time></trkpt><trkpt lat="45.6605106" lon="10.0786232"><ele>536.0</ele><time>2026-04-12T09:00:49.254Z</time></trkpt><trkpt lat="45.6607002" lon="10.0786028"><ele>536.0</ele><time>2026-04-12T09:00:50.262Z</time></trkpt><trkpt lat="45.6608864" lon="10.078558"><ele>536.0</ele><time>2026-04-12T09:00:51.267Z</time></trkpt><trkpt lat="45.6610594" lon="10.078507"><ele>536.0</ele><time>2026-04-12T09:00:52.259Z</time></trkpt><trkpt lat="45.6612146" lon="10.0784618"><ele>536.3333333333333</ele><time>2026-04-12T09:00:53.26Z</time></trkpt><trkpt lat="45.6613617" lon="10.0784342"><ele>536.6666666666666</ele><time>2026-04-12T09:00:54.259Z</time></trkpt><trkpt lat="45.6615121" lon="10.0784288"><ele>537.0</ele><time>2026-04-12T09:00:55.256Z</time></trkpt><trkpt lat="45.661853" lon="10.0785143"><ele>538.3333333333334</ele><time>2026-04-12T09:00:57.254Z</time></trkpt><trkpt lat="45.6620412" lon="10.0785996"><ele>539.6666666666667</ele><time>2026-04-12T09:00:58.258Z</time></trkpt><trkpt lat="45.6622251" lon="10.0787082"><ele>541.0</ele><time>2026-04-12T09:00:59.261Z</time></trkpt><trkpt lat="45.662406" lon="10.0788046"><ele>541.0</ele><time>2026-04-12T09:01:00.261Z</time></trkpt><trkpt lat="45.6625776" lon="10.078878"><ele>541.0</ele><time>2026-04-12T09:01:01.259Z</time></trkpt><trkpt lat="45.6627398" lon="10.0789384"><ele>541.0</ele><time>2026-04-12T09:01:02.257Z</time></trkpt><trkpt lat="45.6628818" lon="10.0789933"><ele>541.4</ele><time>2026-04-12T09:01:03.261Z</time></trkpt><trkpt lat="45.6629922" lon="10.0790501"><ele>541.8</ele><time>2026-04-12T09:01:04.259Z</time></trkpt><trkpt lat="45.6630683" lon="10.0791277"><ele>542.1999999999999</ele><time>2026-04-12T09:01:05.26Z</time></trkpt><trkpt lat="45.6631121" lon="10.0792325"><ele>542.6</ele><time>2026-04-12T09:01:06.263Z</time></trkpt><trkpt lat="45.6631315" lon="10.0793783"><ele>543.0</ele><time>2026-04-12T09:01:07.256Z</time></trkpt><trkpt lat="45.66314" lon="10.0795495"><ele>544.75</ele><time>2026-04-12T09:01:08.261Z</time></trkpt><trkpt lat="45.6631569" lon="10.0797397"><ele>546.5</ele><time>2026-04-12T09:01:09.262Z</time></trkpt><trkpt lat="45.663185" lon="10.0799371"><ele>548.25</ele><time>2026-04-12T09:01:10.259Z</time></trkpt><trkpt lat="45.6632333" lon="10.0801343"><ele>550.0</ele><time>2026-04-12T09:01:11.263Z</time></trkpt><trkpt lat="45.6632922" lon="10.0803432"><ele>552.6666666666667</ele><time>2026-04-12T09:01:12.259Z</time></trkpt><trkpt lat="45.6633568" lon="10.0805738"><ele>555.3333333333334</ele><time>2026-04-12T09:01:13.261Z</time></trkpt><trkpt lat="45.6634263" lon="10.0808134"><ele>558.0</ele><time>2026-04-12T09:01:14.265Z</time></trkpt><trkpt lat="45.6635021" lon="10.0810437"><ele>561.5</ele><time>2026-04-12T09:01:15.254Z</time></trkpt><trkpt lat="45.6635764" lon="10.0812621"><ele>565.0</ele><time>2026-04-12T09:01:16.259Z</time></trkpt><trkpt lat="45.6637288" lon="10.0816753"><ele>569.6666666666667</ele><time>2026-04-12T09:01:18.256Z</time></trkpt><trkpt lat="45.6638061" lon="10.0818837"><ele>574.3333333333334</ele><time>2026-04-12T09:01:19.262Z</time></trkpt><trkpt lat="45.6638811" lon="10.0821036"><ele>579.0</ele><time>2026-04-12T09:01:20.258Z</time></trkpt><trkpt lat="45.6639464" lon="10.0823411"><ele>580.3333333333334</ele><time>2026-04-12T09:01:21.259Z</time></trkpt><trkpt lat="45.6639922" lon="10.0825945"><ele>581.6666666666667</ele><time>2026-04-12T09:01:22.265Z</time></trkpt><trkpt lat="45.6640155" lon="10.0828748"><ele>583.0</ele><time>2026-04-12T09:01:23.263Z</time></trkpt><trkpt lat="45.6640089" lon="10.0831668"><ele>585.0</ele><time>2026-04-12T09:01:24.261Z</time></trkpt><trkpt lat="45.6639694" lon="10.083466"><ele>587.0</ele><time>2026-04-12T09:01:25.252Z</time></trkpt><trkpt lat="45.6639013" lon="10.0837639"><ele>589.0</ele><time>2026-04-12T09:01:26.259Z</time></trkpt><trkpt lat="45.6638201" lon="10.0840565"><ele>593.0</ele><time>2026-04-12T09:01:27.257Z</time></trkpt><trkpt lat="45.6637497" lon="10.0843243"><ele>597.0</ele><time>2026-04-12T09:01:28.258Z</time></trkpt><trkpt lat="45.663696" lon="10.0845698"><ele>601.0</ele><time>2026-04-12T09:01:29.252Z</time></trkpt><trkpt lat="45.6636585" lon="10.0848059"><ele>604.3333333333334</ele><time>2026-04-12T09:01:30.26Z</time></trkpt><trkpt lat="45.6636308" lon="10.0850234"><ele>607.6666666666666</ele><time>2026-04-12T09:01:31.258Z</time></trkpt><trkpt lat="45.6636172" lon="10.0852456"><ele>611.0</ele><time>2026-04-12T09:01:32.256Z</time></trkpt><trkpt lat="45.6636175" lon="10.0854767"><ele>611.0</ele><time>2026-04-12T09:01:33.252Z</time></trkpt><trkpt lat="45.6636224" lon="10.085715"><ele>611.0</ele><time>2026-04-12T09:01:34.264Z</time></trkpt><trkpt lat="45.6636136" lon="10.0859489"><ele>611.0</ele><time>2026-04-12T09:01:35.257Z</time></trkpt><trkpt lat="45.6635844" lon="10.0861696"><ele>603.6666666666666</ele><time>2026-04-12T09:01:36.255Z</time></trkpt><trkpt lat="45.6635435" lon="10.0863773"><ele>596.3333333333334</ele><time>2026-04-12T09:01:37.258Z</time></trkpt><trkpt lat="45.66346" lon="10.0867734"><ele>589.0</ele><time>2026-04-12T09:01:39.256Z</time></trkpt><trkpt lat="45.6634164" lon="10.0869649"><ele>589.0</ele><time>2026-04-12T09:01:40.259Z</time></trkpt><trkpt lat="45.663378" lon="10.0871554"><ele>589.0</ele><time>2026-04-12T09:01:41.254Z</time></trkpt><trkpt lat="45.6633417" lon="10.0873448"><ele>589.0</ele><time>2026-04-12T09:01:42.26Z</time></trkpt><trkpt lat="45.6633042" lon="10.0875338"><ele>589.0</ele><time>2026-04-12T09:01:43.258Z</time></trkpt><trkpt lat="45.6632642" lon="10.0877195"><ele>591.75</ele><time>2026-04-12T09:01:44.255Z</time></trkpt><trkpt lat="45.6632244" lon="10.0879056"><ele>594.5</ele><time>2026-04-12T09:01:45.257Z</time></trkpt><trkpt lat="45.663185" lon="10.088088"><ele>597.25</ele><time>2026-04-12T09:01:46.257Z</time></trkpt><trkpt lat="45.6631488" lon="10.0882714"><ele>600.0</ele><time>2026-04-12T09:01:47.259Z</time></trkpt><trkpt lat="45.663112" lon="10.0884504"><ele>604.25</ele><time>2026-04-12T09:01:48.255Z</time></trkpt><trkpt lat="45.6630671" lon="10.0886224"><ele>608.5</ele><time>2026-04-12T09:01:49.254Z</time></trkpt><trkpt lat="45.6630141" lon="10.0887961"><ele>612.75</ele><time>2026-04-12T09:01:50.254Z</time></trkpt><trkpt lat="45.6629531" lon="10.088979"><ele>617.0</ele><time>2026-04-12T09:01:51.257Z</time></trkpt><trkpt lat="45.6628853" lon="10.0891724"><ele>623.6666666666666</ele><time>2026-04-12T09:01:52.252Z</time></trkpt><trkpt lat="45.6628127" lon="10.0893768"><ele>630.3333333333334</ele><time>2026-04-12T09:01:53.253Z</time></trkpt><trkpt lat="45.6627345" lon="10.0895931"><ele>637.0</ele><time>2026-04-12T09:01:54.254Z</time></trkpt><trkpt lat="45.6626555" lon="10.0898124"><ele>629.3333333333334</ele><time>2026-04-12T09:01:55.252Z</time></trkpt><trkpt lat="45.6625785" lon="10.09003"><ele>621.6666666666666</ele><time>2026-04-12T09:01:56.256Z</time></trkpt><trkpt lat="45.6625034" lon="10.0902457"><ele>614.0</ele><time>2026-04-12T09:01:57.255Z</time></trkpt><trkpt lat="45.6624294" lon="10.0904628"><ele>623.0</ele><time>2026-04-12T09:01:58.258Z</time></trkpt><trkpt lat="45.6622761" lon="10.0908869"><ele>632.0</ele><time>2026-04-12T09:02:00.256Z</time></trkpt><trkpt lat="45.6622022" lon="10.0910959"><ele>632.0</ele><time>2026-04-12T09:02:01.258Z</time></trkpt><trkpt lat="45.6621285" lon="10.0913038"><ele>632.0</ele><time>2026-04-12T09:02:02.255Z</time></trkpt><trkpt lat="45.6620475" lon="10.0915012"><ele>632.0</ele><time>2026-04-12T09:02:03.255Z</time></trkpt><trkpt lat="45.6619534" lon="10.0916817"><ele>627.3333333333333</ele><time>2026-04-12T09:02:04.255Z</time></trkpt><trkpt lat="45.6618509" lon="10.0918543"><ele>622.6666666666666</ele><time>2026-04-12T09:02:05.253Z</time></trkpt><trkpt lat="45.6617405" lon="10.0920146"><ele>618.0</ele><time>2026-04-12T09:02:06.257Z</time></trkpt><trkpt lat="45.6616311" lon="10.092155"><ele>618.0</ele><time>2026-04-12T09:02:07.258Z</time></trkpt><trkpt lat="45.6615291" lon="10.0922844"><ele>618.0</ele><time>2026-04-12T09:02:08.254Z</time></trkpt><trkpt lat="45.6614503" lon="10.0924242"><ele>618.0</ele><time>2026-04-12T09:02:09.262Z</time></trkpt><trkpt lat="45.6614027" lon="10.0925847"><ele>618.0</ele><time>2026-04-12T09:02:10.255Z</time></trkpt><trkpt lat="45.6613827" lon="10.0927686"><ele>622.75</ele><time>2026-04-12T09:02:11.258Z</time></trkpt><trkpt lat="45.6613694" lon="10.0929665"><ele>627.5</ele><time>2026-04-12T09:02:12.262Z</time></trkpt><trkpt lat="45.6613344" lon="10.0931618"><ele>632.25</ele><time>2026-04-12T09:02:13.251Z</time></trkpt><trkpt lat="45.6612674" lon="10.0933437"><ele>637.0</ele><time>2026-04-12T09:02:14.254Z</time></trkpt><trkpt lat="45.6611763" lon="10.0934943"><ele>637.75</ele><time>2026-04-12T09:02:15.252Z</time></trkpt><trkpt lat="45.6610783" lon="10.0936252"><ele>638.5</ele><time>2026-04-12T09:02:16.255Z</time></trkpt><trkpt lat="45.6609889" lon="10.0937636"><ele>639.25</ele><time>2026-04-12T09:02:17.259Z</time></trkpt><trkpt lat="45.6609116" lon="10.0939186"><ele>640.0</ele><time>2026-04-12T09:02:18.258Z</time></trkpt><trkpt lat="45.660859" lon="10.0940904"><ele>640.0</ele><time>2026-04-12T09:02:19.258Z</time></trkpt><trkpt lat="45.6608149" lon="10.0944755"><ele>640.0</ele><time>2026-04-12T09:02:21.259Z</time></trkpt><trkpt lat="45.6608039" lon="10.094683"><ele>640.0</ele><time>2026-04-12T09:02:22.262Z</time></trkpt><trkpt lat="45.6607797" lon="10.0948849"><ele>642.0</ele><time>2026-04-12T09:02:23.26Z</time></trkpt><trkpt lat="45.6607331" lon="10.095078"><ele>644.0</ele><time>2026-04-12T09:02:24.253Z</time></trkpt><trkpt lat="45.6606698" lon="10.095255"><ele>646.0</ele><time>2026-04-12T09:02:25.258Z</time></trkpt><trkpt lat="45.6606052" lon="10.0954323"><ele>648.0</ele><time>2026-04-12T09:02:26.256Z</time></trkpt><trkpt lat="45.6605621" lon="10.0956097"><ele>650.3333333333334</ele><time>2026-04-12T09:02:27.26Z</time></trkpt><trkpt lat="45.6605409" lon="10.0957989"><ele>652.6666666666667</ele><time>2026-04-12T09:02:28.256Z</time></trkpt><trkpt lat="45.6605452" lon="10.0960234"><ele>655.0</ele><time>2026-04-12T09:02:29.258Z</time></trkpt><trkpt lat="45.6605693" lon="10.0962916"><ele>656.6666666666667</ele><time>2026-04-12T09:02:30.255Z</time></trkpt><trkpt lat="45.660595" lon="10.0965995"><ele>658.3333333333334</ele><time>2026-04-12T09:02:31.253Z</time></trkpt><trkpt lat="45.6606123" lon="10.0969285"><ele>660.0</ele><time>2026-04-12T09:02:32.253Z</time></trkpt><trkpt lat="45.6606254" lon="10.0972571"><ele>660.0</ele><time>2026-04-12T09:02:33.263Z</time></trkpt><trkpt lat="45.6606381" lon="10.0975784"><ele>660.0</ele><time>2026-04-12T09:02:34.258Z</time></trkpt><trkpt lat="45.6606502" lon="10.0978974"><ele>660.0</ele><time>2026-04-12T09:02:35.252Z</time></trkpt><trkpt lat="45.6606619" lon="10.0982158"><ele>661.0</ele><time>2026-04-12T09:02:36.253Z</time></trkpt><trkpt lat="45.6606733" lon="10.0985292"><ele>662.0</ele><time>2026-04-12T09:02:37.252Z</time></trkpt><trkpt lat="45.6606825" lon="10.0988404"><ele>663.0</ele><time>2026-04-12T09:02:38.257Z</time></trkpt><trkpt lat="45.6606924" lon="10.0991548"><ele>663.0</ele><time>2026-04-12T09:02:39.256Z</time></trkpt><trkpt lat="45.6607077" lon="10.0994734"><ele>663.0</ele><time>2026-04-12T09:02:40.258Z</time></trkpt><trkpt lat="45.6607648" lon="10.1001008"><ele>662.0</ele><time>2026-04-12T09:02:42.256Z</time></trkpt><trkpt lat="45.6607893" lon="10.1004022"><ele>661.0</ele><time>2026-04-12T09:02:43.258Z</time></trkpt><trkpt lat="45.660795" lon="10.1007062"><ele>660.0</ele><time>2026-04-12T09:02:44.259Z</time></trkpt><trkpt lat="45.6607826" lon="10.1010133"><ele>663.3333333333334</ele><time>2026-04-12T09:02:45.261Z</time></trkpt><trkpt lat="45.6607708" lon="10.1013188"><ele>666.6666666666667</ele><time>2026-04-12T09:02:46.261Z</time></trkpt><trkpt lat="45.6607701" lon="10.101621"><ele>670.0</ele><time>2026-04-12T09:02:47.254Z</time></trkpt><trkpt lat="45.6607856" lon="10.1019244"><ele>671.3333333333334</ele><time>2026-04-12T09:02:48.255Z</time></trkpt><trkpt lat="45.6608047" lon="10.1022258"><ele>672.6666666666666</ele><time>2026-04-12T09:02:49.257Z</time></trkpt><trkpt lat="45.6608209" lon="10.1025273"><ele>674.0</ele><time>2026-04-12T09:02:50.261Z</time></trkpt><trkpt lat="45.6608376" lon="10.1028173"><ele>674.0</ele><time>2026-04-12T09:02:51.262Z</time></trkpt><trkpt lat="45.6608521" lon="10.1030959"><ele>674.0</ele><time>2026-04-12T09:02:52.257Z</time></trkpt><trkpt lat="45.6608698" lon="10.1033603"><ele>674.0</ele><time>2026-04-12T09:02:53.262Z</time></trkpt><trkpt lat="45.6608956" lon="10.1036164"><ele>673.0</ele><time>2026-04-12T09:02:54.261Z</time></trkpt><trkpt lat="45.6609296" lon="10.1038609"><ele>672.0</ele><time>2026-04-12T09:02:55.256Z</time></trkpt><trkpt lat="45.6609704" lon="10.1040958"><ele>671.0</ele><time>2026-04-12T09:02:56.259Z</time></trkpt><trkpt lat="45.6610051" lon="10.1043244"><ele>670.3333333333333</ele><time>2026-04-12T09:02:57.257Z</time></trkpt><trkpt lat="45.6610225" lon="10.1045332"><ele>669.6666666666666</ele><time>2026-04-12T09:02:58.255Z</time></trkpt><trkpt lat="45.661016" lon="10.1047437"><ele>669.0</ele><time>2026-04-12T09:02:59.254Z</time></trkpt><trkpt lat="45.6609717" lon="10.1049599"><ele>671.3333333333334</ele><time>2026-04-12T09:03:00.261Z</time></trkpt><trkpt lat="45.6608992" lon="10.1051726"><ele>673.6666666666667</ele><time>2026-04-12T09:03:01.262Z</time></trkpt><trkpt lat="45.660759" lon="10.1055154"><ele>676.0</ele><time>2026-04-12T09:03:03.254Z</time></trkpt><trkpt lat="45.6607061" lon="10.1056404"><ele>676.0</ele><time>2026-04-12T09:03:04.254Z</time></trkpt><trkpt lat="45.6606638" lon="10.1057391"><ele>676.0</ele><time>2026-04-12T09:03:05.256Z</time></trkpt><trkpt lat="45.6606305" lon="10.1058203"><ele>676.0</ele><time>2026-04-12T09:03:06.251Z</time></trkpt><trkpt lat="45.660581" lon="10.105953"><ele>676.0</ele><time>2026-04-12T09:03:08.253Z</time></trkpt><trkpt lat="45.6605608" lon="10.1060937"><ele>676.0</ele><time>2026-04-12T09:03:10.256Z</time></trkpt><trkpt lat="45.6605696" lon="10.1061878"><ele>676.0</ele><time>2026-04-12T09:03:11.256Z</time></trkpt><trkpt lat="45.6605925" lon="10.1063007"><ele>678.75</ele><time>2026-04-12T09:03:12.254Z</time></trkpt><trkpt lat="45.6606307" lon="10.1064267"><ele>681.5</ele><time>2026-04-12T09:03:13.255Z</time></trkpt><trkpt lat="45.6606886" lon="10.1065648"><ele>684.25</ele><time>2026-04-12T09:03:14.261Z</time></trkpt><trkpt lat="45.660756" lon="10.1067093"><ele>687.0</ele><time>2026-04-12T09:03:15.254Z</time></trkpt><trkpt lat="45.6608302" lon="10.10686"><ele>687.0</ele><time>2026-04-12T09:03:16.256Z</time></trkpt><trkpt lat="45.6609055" lon="10.1070114"><ele>687.0</ele><time>2026-04-12T09:03:17.26Z</time></trkpt><trkpt lat="45.6609796" lon="10.1071597"><ele>687.0</ele><time>2026-04-12T09:03:18.258Z</time></trkpt><trkpt lat="45.6610561" lon="10.107316"><ele>687.0</ele><time>2026-04-12T09:03:19.258Z</time></trkpt><trkpt lat="45.661127" lon="10.1074744"><ele>700.6666666666666</ele><time>2026-04-12T09:03:20.257Z</time></trkpt><trkpt lat="45.6611808" lon="10.1076387"><ele>714.3333333333333</ele><time>2026-04-12T09:03:21.26Z</time></trkpt><trkpt lat="45.6612038" lon="10.1078129"><ele>728.0</ele><time>2026-04-12T09:03:22.257Z</time></trkpt><trkpt lat="45.6611463" lon="10.108156"><ele>716.5</ele><time>2026-04-12T09:03:24.267Z</time></trkpt><trkpt lat="45.6610607" lon="10.1083164"><ele>705.0</ele><time>2026-04-12T09:03:25.254Z</time></trkpt><trkpt lat="45.6609604" lon="10.1084567"><ele>693.5</ele><time>2026-04-12T09:03:26.251Z</time></trkpt><trkpt lat="45.6608579" lon="10.1085954"><ele>682.0</ele><time>2026-04-12T09:03:27.264Z</time></trkpt><trkpt lat="45.6607651" lon="10.1087464"><ele>682.0</ele><time>2026-04-12T09:03:28.255Z</time></trkpt><trkpt lat="45.6607065" lon="10.1089267"><ele>682.0</ele><time>2026-04-12T09:03:29.257Z</time></trkpt><trkpt lat="45.660686" lon="10.1091213"><ele>682.0</ele><time>2026-04-12T09:03:30.262Z</time></trkpt><trkpt lat="45.6607038" lon="10.1093246"><ele>682.0</ele><time>2026-04-12T09:03:31.261Z</time></trkpt><trkpt lat="45.6607491" lon="10.1095138"><ele>682.25</ele><time>2026-04-12T09:03:32.254Z</time></trkpt><trkpt lat="45.6608308" lon="10.1096943"><ele>682.5</ele><time>2026-04-12T09:03:33.26Z</time></trkpt><trkpt lat="45.6609183" lon="10.1098551"><ele>682.75</ele><time>2026-04-12T09:03:34.256Z</time></trkpt><trkpt lat="45.6610065" lon="10.1100102"><ele>683.0</ele><time>2026-04-12T09:03:35.262Z</time></trkpt><trkpt lat="45.6610823" lon="10.1101638"><ele>680.75</ele><time>2026-04-12T09:03:36.262Z</time></trkpt><trkpt lat="45.6611297" lon="10.1103169"><ele>678.5</ele><time>2026-04-12T09:03:37.26Z</time></trkpt><trkpt lat="45.6611305" lon="10.1104753"><ele>676.25</ele><time>2026-04-12T09:03:38.259Z</time></trkpt><trkpt lat="45.6610872" lon="10.110624"><ele>674.0</ele><time>2026-04-12T09:03:39.253Z</time></trkpt><trkpt lat="45.6610043" lon="10.1107656"><ele>672.5</ele><time>2026-04-12T09:03:40.258Z</time></trkpt><trkpt lat="45.6608933" lon="10.1109024"><ele>671.0</ele><time>2026-04-12T09:03:41.262Z</time></trkpt><trkpt lat="45.6607835" lon="10.1110439"><ele>669.5</ele><time>2026-04-12T09:03:42.259Z</time></trkpt><trkpt lat="45.6606781" lon="10.1111915"><ele>668.0</ele><time>2026-04-12T09:03:43.258Z</time></trkpt><trkpt lat="45.660498" lon="10.1114642"><ele>669.25</ele><time>2026-04-12T09:03:45.254Z</time></trkpt><trkpt lat="45.660429" lon="10.1116046"><ele>670.5</ele><time>2026-04-12T09:03:46.26Z</time></trkpt><trkpt lat="45.6603867" lon="10.1117634"><ele>671.75</ele><time>2026-04-12T09:03:47.263Z</time></trkpt><trkpt lat="45.6603818" lon="10.1119387"><ele>673.0</ele><time>2026-04-12T09:03:48.262Z</time></trkpt><trkpt lat="45.6604083" lon="10.1121251"><ele>673.0</ele><time>2026-04-12T09:03:49.264Z</time></trkpt><trkpt lat="45.6604602" lon="10.1122975"><ele>673.0</ele><time>2026-04-12T09:03:50.254Z</time></trkpt><trkpt lat="45.6605396" lon="10.1124548"><ele>673.0</ele><time>2026-04-12T09:03:51.265Z</time></trkpt><trkpt lat="45.6606328" lon="10.1126016"><ele>673.0</ele><time>2026-04-12T09:03:52.26Z</time></trkpt><trkpt lat="45.6607206" lon="10.1127402"><ele>670.5</ele><time>2026-04-12T09:03:53.258Z</time></trkpt><trkpt lat="45.660803" lon="10.1128792"><ele>668.0</ele><time>2026-04-12T09:03:54.26Z</time></trkpt><trkpt lat="45.660878" lon="10.1130236"><ele>665.5</ele><time>2026-04-12T09:03:55.256Z</time></trkpt><trkpt lat="45.66095" lon="10.1131658"><ele>663.0</ele><time>2026-04-12T09:03:56.258Z</time></trkpt><trkpt lat="45.6610216" lon="10.1133089"><ele>665.2</ele><time>2026-04-12T09:03:57.265Z</time></trkpt><trkpt lat="45.6610875" lon="10.1134518"><ele>667.4</ele><time>2026-04-12T09:03:58.258Z</time></trkpt><trkpt lat="45.6611474" lon="10.1135752"><ele>669.6</ele><time>2026-04-12T09:03:59.256Z</time></trkpt><trkpt lat="45.6612037" lon="10.1136852"><ele>671.8000000000001</ele><time>2026-04-12T09:04:00.259Z</time></trkpt><trkpt lat="45.6612507" lon="10.1137799"><ele>674.0</ele><time>2026-04-12T09:04:01.26Z</time></trkpt><trkpt lat="45.6612894" lon="10.1138588"><ele>674.0</ele><time>2026-04-12T09:04:02.257Z</time></trkpt><trkpt lat="45.6613443" lon="10.1139871"><ele>674.0</ele><time>2026-04-12T09:04:04.258Z</time></trkpt><trkpt lat="45.6614275" lon="10.1141807"><ele>674.0</ele><time>2026-04-12T09:04:09.259Z</time></trkpt><trkpt lat="45.6614786" lon="10.1142832"><ele>674.0</ele><time>2026-04-12T09:04:12.266Z</time></trkpt><trkpt lat="45.6615177" lon="10.1143569"><ele>674.0</ele><time>2026-04-12T09:04:14.26Z</time></trkpt><trkpt lat="45.6615529" lon="10.1144356"><ele>671.6666666666666</ele><time>2026-04-12T09:04:16.263Z</time></trkpt><trkpt lat="45.6615965" lon="10.1145132"><ele>669.3333333333333</ele><time>2026-04-12T09:04:18.261Z</time></trkpt><trkpt lat="45.6616507" lon="10.1145696"><ele>667.0</ele><time>2026-04-12T09:04:20.256Z</time></trkpt><trkpt lat="45.6617302" lon="10.1146133"><ele>664.6666666666666</ele><time>2026-04-12T09:04:23.257Z</time></trkpt><trkpt lat="45.6618155" lon="10.1146278"><ele>662.3333333333334</ele><time>2026-04-12T09:04:26.26Z</time></trkpt><trkpt lat="45.6619464" lon="10.1145893"><ele>660.0</ele><time>2026-04-12T09:04:30.259Z</time></trkpt><trkpt lat="45.6620163" lon="10.1145477"><ele>660.0</ele><time>2026-04-12T09:04:32.259Z</time></trkpt><trkpt lat="45.6620839" lon="10.1145117"><ele>660.0</ele><time>2026-04-12T09:04:34.26Z</time></trkpt><trkpt lat="45.6621714" lon="10.1144657"><ele>660.0</ele><time>2026-04-12T09:04:37.259Z</time></trkpt><trkpt lat="45.6622606" lon="10.1144955"><ele>660.0</ele><time>2026-04-12T09:04:40.255Z</time></trkpt><trkpt lat="45.6623118" lon="10.1145934"><ele>660.0</ele><time>2026-04-12T09:04:42.262Z</time></trkpt><trkpt lat="45.6623318" lon="10.1147257"><ele>660.0</ele><time>2026-04-12T09:04:44.263Z</time></trkpt><trkpt lat="45.6622889" lon="10.1148564"><ele>656.8</ele><time>2026-04-12T09:04:46.261Z</time></trkpt><trkpt lat="45.662244" lon="10.1149567"><ele>653.6</ele><time>2026-04-12T09:04:48.257Z</time></trkpt><trkpt lat="45.6622401" lon="10.11519"><ele>650.4000000000001</ele><time>2026-04-12T09:04:54.258Z</time></trkpt><trkpt lat="45.6622609" lon="10.1152959"><ele>647.2</ele><time>2026-04-12T09:04:58.257Z</time></trkpt><trkpt lat="45.6623209" lon="10.1153415"><ele>644.0</ele><time>2026-04-12T09:05:23.26Z</time></trkpt><trkpt lat="45.6623421" lon="10.1151309"><ele>644.0</ele><time>2026-04-12T09:05:27.257Z</time></trkpt><trkpt lat="45.6623439" lon="10.1149957"><ele>644.0</ele><time>2026-04-12T09:05:28.256Z</time></trkpt><trkpt lat="45.6623564" lon="10.114822"><ele>644.0</ele><time>2026-04-12T09:05:29.261Z</time></trkpt><trkpt lat="45.6623634" lon="10.1146607"><ele>644.0</ele><time>2026-04-12T09:05:30.257Z</time></trkpt><trkpt lat="45.6623533" lon="10.114524"><ele>644.0</ele><time>2026-04-12T09:05:31.262Z</time></trkpt><trkpt lat="45.6623044" lon="10.1144386"><ele>646.6</ele><time>2026-04-12T09:05:32.261Z</time></trkpt><trkpt lat="45.6622212" lon="10.1144084"><ele>649.2</ele><time>2026-04-12T09:05:33.264Z</time></trkpt><trkpt lat="45.6621235" lon="10.1144256"><ele>651.8000000000001</ele><time>2026-04-12T09:05:34.266Z</time></trkpt><trkpt lat="45.662021" lon="10.1144725"><ele>654.4000000000001</ele><time>2026-04-12T09:05:35.258Z</time></trkpt><trkpt lat="45.6619082" lon="10.1145355"><ele>657.0</ele><time>2026-04-12T09:05:36.262Z</time></trkpt><trkpt lat="45.6617887" lon="10.114584"><ele>657.0</ele><time>2026-04-12T09:05:37.259Z</time></trkpt><trkpt lat="45.6616791" lon="10.1145758"><ele>657.0</ele><time>2026-04-12T09:05:38.259Z</time></trkpt><trkpt lat="45.6615813" lon="10.1144956"><ele>657.0</ele><time>2026-04-12T09:05:39.259Z</time></trkpt><trkpt lat="45.6615025" lon="10.1143642"><ele>657.0</ele><time>2026-04-12T09:05:40.257Z</time></trkpt><trkpt lat="45.6614299" lon="10.1141834"><ele>662.6666666666666</ele><time>2026-04-12T09:05:41.258Z</time></trkpt><trkpt lat="45.6613507" lon="10.1139772"><ele>668.3333333333333</ele><time>2026-04-12T09:05:42.268Z</time></trkpt><trkpt lat="45.6612646" lon="10.1137798"><ele>674.0</ele><time>2026-04-12T09:05:43.261Z</time></trkpt><trkpt lat="45.6611787" lon="10.1136021"><ele>671.25</ele><time>2026-04-12T09:05:44.265Z</time></trkpt><trkpt lat="45.661031" lon="10.1133151"><ele>668.5</ele><time>2026-04-12T09:05:46.266Z</time></trkpt><trkpt lat="45.6609747" lon="10.1132178"><ele>665.75</ele><time>2026-04-12T09:05:47.266Z</time></trkpt><trkpt lat="45.6609224" lon="10.1131058"><ele>663.0</ele><time>2026-04-12T09:05:49.259Z</time></trkpt><trkpt lat="45.6610447" lon="10.1130918"><ele>663.0</ele><time>2026-04-12T09:05:52.257Z</time></trkpt><trkpt lat="45.6611107" lon="10.1131469"><ele>663.0</ele><time>2026-04-12T09:05:53.258Z</time></trkpt><trkpt lat="45.661162" lon="10.1132306"><ele>663.0</ele><time>2026-04-12T09:05:54.262Z</time></trkpt><trkpt lat="45.6612024" lon="10.113327"><ele>663.0</ele><time>2026-04-12T09:05:55.265Z</time></trkpt><trkpt lat="45.6612436" lon="10.1134203"><ele>663.0</ele><time>2026-04-12T09:05:56.267Z</time></trkpt><trkpt lat="45.6613022" lon="10.1135053"><ele>663.0</ele><time>2026-04-12T09:05:57.258Z</time></trkpt><trkpt lat="45.6613867" lon="10.1135759"><ele>665.2</ele><time>2026-04-12T09:05:58.269Z</time></trkpt><trkpt lat="45.6614848" lon="10.1136217"><ele>667.4</ele><time>2026-04-12T09:05:59.266Z</time></trkpt><trkpt lat="45.6615829" lon="10.1136644"><ele>669.6</ele><time>2026-04-12T09:06:00.268Z</time></trkpt><trkpt lat="45.6616623" lon="10.1137152"><ele>671.8000000000001</ele><time>2026-04-12T09:06:01.264Z</time></trkpt><trkpt lat="45.6617277" lon="10.1137921"><ele>674.0</ele><time>2026-04-12T09:06:02.257Z</time></trkpt><trkpt lat="45.6617849" lon="10.1138847"><ele>674.0</ele><time>2026-04-12T09:06:03.256Z</time></trkpt><trkpt lat="45.6618364" lon="10.1139702"><ele>674.0</ele><time>2026-04-12T09:06:04.267Z</time></trkpt><trkpt lat="45.6618863" lon="10.114034"><ele>674.0</ele><time>2026-04-12T09:06:05.272Z</time></trkpt><trkpt lat="45.6621006" lon="10.1139602"><ele>674.0</ele><time>2026-04-12T09:06:09.262Z</time></trkpt><trkpt lat="45.6621421" lon="10.1138544"><ele>674.4000000000001</ele><time>2026-04-12T09:06:10.263Z</time></trkpt><trkpt lat="45.6621618" lon="10.1137281"><ele>674.8</ele><time>2026-04-12T09:06:11.267Z</time></trkpt><trkpt lat="45.6621572" lon="10.1135868"><ele>675.2</ele><time>2026-04-12T09:06:12.267Z</time></trkpt><trkpt lat="45.6621357" lon="10.1134391"><ele>675.5999999999999</ele><time>2026-04-12T09:06:13.263Z</time></trkpt><trkpt lat="45.6620936" lon="10.113311"><ele>676.0</ele><time>2026-04-12T09:06:14.266Z</time></trkpt><trkpt lat="45.6620317" lon="10.1131978"><ele>677.8</ele><time>2026-04-12T09:06:15.265Z</time></trkpt><trkpt lat="45.6619604" lon="10.1130939"><ele>679.5999999999999</ele><time>2026-04-12T09:06:16.261Z</time></trkpt><trkpt lat="45.661884" lon="10.1129883"><ele>681.4</ele><time>2026-04-12T09:06:17.265Z</time></trkpt><trkpt lat="45.6618157" lon="10.1128845"><ele>683.2</ele><time>2026-04-12T09:06:18.268Z</time></trkpt><trkpt lat="45.6617524" lon="10.1127848"><ele>685.0</ele><time>2026-04-12T09:06:19.271Z</time></trkpt><trkpt lat="45.6616927" lon="10.1126867"><ele>685.0</ele><time>2026-04-12T09:06:20.261Z</time></trkpt><trkpt lat="45.6616339" lon="10.1125881"><ele>685.0</ele><time>2026-04-12T09:06:21.271Z</time></trkpt><trkpt lat="45.6615748" lon="10.1124868"><ele>685.0</ele><time>2026-04-12T09:06:22.268Z</time></trkpt><trkpt lat="45.6615194" lon="10.1123876"><ele>685.0</ele><time>2026-04-12T09:06:23.269Z</time></trkpt><trkpt lat="45.6614677" lon="10.1122943"><ele>685.0</ele><time>2026-04-12T09:06:24.269Z</time></trkpt><trkpt lat="45.6614194" lon="10.1122144"><ele>685.0</ele><time>2026-04-12T09:06:25.268Z</time></trkpt><trkpt lat="45.6613722" lon="10.1120585"><ele>687.3333333333334</ele><time>2026-04-12T09:06:27.264Z</time></trkpt><trkpt lat="45.6614307" lon="10.1119384"><ele>689.6666666666667</ele><time>2026-04-12T09:06:31.26Z</time></trkpt><trkpt lat="45.6614947" lon="10.1120508"><ele>692.0</ele><time>2026-04-12T09:06:33.257Z</time></trkpt><trkpt lat="45.6615285" lon="10.1121504"><ele>694.3333333333334</ele><time>2026-04-12T09:06:34.267Z</time></trkpt><trkpt lat="45.661568" lon="10.1122403"><ele>696.6666666666666</ele><time>2026-04-12T09:06:35.27Z</time></trkpt><trkpt lat="45.6616142" lon="10.112305"><ele>699.0</ele><time>2026-04-12T09:06:36.273Z</time></trkpt><trkpt lat="45.6617144" lon="10.1122881"><ele>699.0</ele><time>2026-04-12T09:06:38.263Z</time></trkpt><trkpt lat="45.6617465" lon="10.1121299"><ele>699.0</ele><time>2026-04-12T09:06:40.265Z</time></trkpt><trkpt lat="45.6617588" lon="10.1120337"><ele>699.0</ele><time>2026-04-12T09:06:41.269Z</time></trkpt><trkpt lat="45.6617746" lon="10.1119385"><ele>699.0</ele><time>2026-04-12T09:06:42.264Z</time></trkpt><trkpt lat="45.6618136" lon="10.1118516"><ele>699.0</ele><time>2026-04-12T09:06:43.269Z</time></trkpt><trkpt lat="45.6618785" lon="10.1117814"><ele>699.0</ele><time>2026-04-12T09:06:44.265Z</time></trkpt><trkpt lat="45.6619811" lon="10.1117349"><ele>703.75</ele><time>2026-04-12T09:06:45.261Z</time></trkpt><trkpt lat="45.6620875" lon="10.1117295"><ele>708.5</ele><time>2026-04-12T09:06:46.269Z</time></trkpt><trkpt lat="45.6621954" lon="10.1117677"><ele>713.25</ele><time>2026-04-12T09:06:47.269Z</time></trkpt><trkpt lat="45.6622811" lon="10.1118241"><ele>718.0</ele><time>2026-04-12T09:06:48.258Z</time></trkpt><trkpt lat="45.6624617" lon="10.1119181"><ele>718.0</ele><time>2026-04-12T09:06:50.266Z</time></trkpt><trkpt lat="45.662551" lon="10.1119187"><ele>718.0</ele><time>2026-04-12T09:06:51.264Z</time></trkpt><trkpt lat="45.6626409" lon="10.111898"><ele>718.0</ele><time>2026-04-12T09:06:52.269Z</time></trkpt><trkpt lat="45.6627369" lon="10.1118883"><ele>718.0</ele><time>2026-04-12T09:06:53.267Z</time></trkpt><trkpt lat="45.6628306" lon="10.1118989"><ele>718.0</ele><time>2026-04-12T09:06:54.259Z</time></trkpt><trkpt lat="45.6629259" lon="10.1119426"><ele>722.5999999999999</ele><time>2026-04-12T09:06:55.268Z</time></trkpt><trkpt lat="45.6630245" lon="10.1119874"><ele>727.1999999999999</ele><time>2026-04-12T09:06:56.261Z</time></trkpt><trkpt lat="45.6631268" lon="10.1120109"><ele>731.8</ele><time>2026-04-12T09:06:57.257Z</time></trkpt><trkpt lat="45.6632303" lon="10.1120121"><ele>736.4</ele><time>2026-04-12T09:06:58.266Z</time></trkpt><trkpt lat="45.6633477" lon="10.1120027"><ele>741.0</ele><time>2026-04-12T09:06:59.255Z</time></trkpt><trkpt lat="45.6634706" lon="10.1120106"><ele>741.0</ele><time>2026-04-12T09:07:00.273Z</time></trkpt><trkpt lat="45.6635963" lon="10.1120542"><ele>741.0</ele><time>2026-04-12T09:07:01.266Z</time></trkpt><trkpt lat="45.6637236" lon="10.1121267"><ele>741.0</ele><time>2026-04-12T09:07:02.272Z</time></trkpt><trkpt lat="45.6638376" lon="10.1121926"><ele>741.0</ele><time>2026-04-12T09:07:03.258Z</time></trkpt><trkpt lat="45.6639425" lon="10.112275"><ele>742.0</ele><time>2026-04-12T09:07:04.257Z</time></trkpt><trkpt lat="45.6640368" lon="10.1123746"><ele>743.0</ele><time>2026-04-12T09:07:05.264Z</time></trkpt><trkpt lat="45.6641224" lon="10.112486"><ele>744.0</ele><time>2026-04-12T09:07:06.265Z</time></trkpt><trkpt lat="45.6641972" lon="10.1126133"><ele>745.0</ele><time>2026-04-12T09:07:07.263Z</time></trkpt><trkpt lat="45.6642524" lon="10.112754"><ele>745.0</ele><time>2026-04-12T09:07:08.258Z</time></trkpt><trkpt lat="45.6642913" lon="10.1129201"><ele>745.0</ele><time>2026-04-12T09:07:09.265Z</time></trkpt><trkpt lat="45.6643488" lon="10.1133075"><ele>745.0</ele><time>2026-04-12T09:07:11.266Z</time></trkpt><trkpt lat="45.6643812" lon="10.113494"><ele>741.75</ele><time>2026-04-12T09:07:12.262Z</time></trkpt><trkpt lat="45.6644257" lon="10.1136783"><ele>738.5</ele><time>2026-04-12T09:07:13.266Z</time></trkpt><trkpt lat="45.6644852" lon="10.1138569"><ele>735.25</ele><time>2026-04-12T09:07:14.269Z</time></trkpt><trkpt lat="45.6645498" lon="10.1140253"><ele>732.0</ele><time>2026-04-12T09:07:15.258Z</time></trkpt><trkpt lat="45.6646146" lon="10.1141863"><ele>743.25</ele><time>2026-04-12T09:07:16.261Z</time></trkpt><trkpt lat="45.6646739" lon="10.1143358"><ele>754.5</ele><time>2026-04-12T09:07:17.263Z</time></trkpt><trkpt lat="45.6647353" lon="10.114477"><ele>765.75</ele><time>2026-04-12T09:07:18.255Z</time></trkpt><trkpt lat="45.6647954" lon="10.1146107"><ele>777.0</ele><time>2026-04-12T09:07:19.263Z</time></trkpt><trkpt lat="45.6648585" lon="10.11474"><ele>777.0</ele><time>2026-04-12T09:07:20.261Z</time></trkpt><trkpt lat="45.6649238" lon="10.114871"><ele>777.0</ele><time>2026-04-12T09:07:21.259Z</time></trkpt><trkpt lat="45.6649844" lon="10.1150112"><ele>777.0</ele><time>2026-04-12T09:07:22.256Z</time></trkpt><trkpt lat="45.6650379" lon="10.1151683"><ele>777.0</ele><time>2026-04-12T09:07:23.262Z</time></trkpt><trkpt lat="45.6650785" lon="10.1153295"><ele>774.0</ele><time>2026-04-12T09:07:24.255Z</time></trkpt><trkpt lat="45.6651132" lon="10.1155027"><ele>771.0</ele><time>2026-04-12T09:07:25.271Z</time></trkpt><trkpt lat="45.6651445" lon="10.1156873"><ele>768.0</ele><time>2026-04-12T09:07:26.272Z</time></trkpt><trkpt lat="45.6651774" lon="10.1158815"><ele>765.0</ele><time>2026-04-12T09:07:27.279Z</time></trkpt><trkpt lat="45.6652083" lon="10.1160763"><ele>760.3333333333334</ele><time>2026-04-12T09:07:28.267Z</time></trkpt><trkpt lat="45.6652354" lon="10.1162691"><ele>755.6666666666667</ele><time>2026-04-12T09:07:29.266Z</time></trkpt><trkpt lat="45.6652622" lon="10.1164704"><ele>751.0</ele><time>2026-04-12T09:07:30.272Z</time></trkpt><trkpt lat="45.6653046" lon="10.1168709"><ele>763.0</ele><time>2026-04-12T09:07:32.266Z</time></trkpt><trkpt lat="45.665315" lon="10.1170606"><ele>775.0</ele><time>2026-04-12T09:07:33.273Z</time></trkpt><trkpt lat="45.6653237" lon="10.1172426"><ele>787.0</ele><time>2026-04-12T09:07:34.277Z</time></trkpt><trkpt lat="45.6653252" lon="10.1174079"><ele>799.0</ele><time>2026-04-12T09:07:35.266Z</time></trkpt><trkpt lat="45.6653215" lon="10.1175763"><ele>799.0</ele><time>2026-04-12T09:07:36.262Z</time></trkpt><trkpt lat="45.6653052" lon="10.1177467"><ele>799.0</ele><time>2026-04-12T09:07:37.262Z</time></trkpt><trkpt lat="45.6652727" lon="10.1179183"><ele>799.0</ele><time>2026-04-12T09:07:38.269Z</time></trkpt><trkpt lat="45.6652271" lon="10.1180896"><ele>799.0</ele><time>2026-04-12T09:07:39.275Z</time></trkpt><trkpt lat="45.6651759" lon="10.1182555"><ele>785.25</ele><time>2026-04-12T09:07:40.266Z</time></trkpt><trkpt lat="45.6651289" lon="10.1184231"><ele>771.5</ele><time>2026-04-12T09:07:41.268Z</time></trkpt><trkpt lat="45.6650922" lon="10.1185961"><ele>757.75</ele><time>2026-04-12T09:07:42.268Z</time></trkpt><trkpt lat="45.665071" lon="10.1187697"><ele>744.0</ele><time>2026-04-12T09:07:43.267Z</time></trkpt><trkpt lat="45.6650678" lon="10.1189385"><ele>745.1666666666666</ele><time>2026-04-12T09:07:44.266Z</time></trkpt><trkpt lat="45.6650735" lon="10.1190878"><ele>746.3333333333334</ele><time>2026-04-12T09:07:45.261Z</time></trkpt><trkpt lat="45.6650811" lon="10.1192195"><ele>747.5</ele><time>2026-04-12T09:07:46.266Z</time></trkpt><trkpt lat="45.6650861" lon="10.1193374"><ele>748.6666666666667</ele><time>2026-04-12T09:07:47.257Z</time></trkpt><trkpt lat="45.6650886" lon="10.119442"><ele>749.8333333333334</ele><time>2026-04-12T09:07:48.275Z</time></trkpt><trkpt lat="45.6650976" lon="10.1195466"><ele>751.0</ele><time>2026-04-12T09:07:49.256Z</time></trkpt><trkpt lat="45.6651065" lon="10.1196514"><ele>751.0</ele><time>2026-04-12T09:07:50.266Z</time></trkpt><trkpt lat="45.6651171" lon="10.1197586"><ele>751.0</ele><time>2026-04-12T09:07:51.266Z</time></trkpt><trkpt lat="45.6651564" lon="10.1199779"><ele>751.0</ele><time>2026-04-12T09:07:53.26Z</time></trkpt><trkpt lat="45.6651911" lon="10.1200925"><ele>751.0</ele><time>2026-04-12T09:07:54.266Z</time></trkpt><trkpt lat="45.6652262" lon="10.1202175"><ele>751.0</ele><time>2026-04-12T09:07:55.273Z</time></trkpt><trkpt lat="45.665257" lon="10.1203533"><ele>753.5999999999999</ele><time>2026-04-12T09:07:56.267Z</time></trkpt><trkpt lat="45.6652766" lon="10.120504"><ele>756.2</ele><time>2026-04-12T09:07:57.254Z</time></trkpt><trkpt lat="45.6652885" lon="10.1206595"><ele>758.8</ele><time>2026-04-12T09:07:58.261Z</time></trkpt><trkpt lat="45.6652966" lon="10.1208268"><ele>761.4000000000001</ele><time>2026-04-12T09:07:59.258Z</time></trkpt><trkpt lat="45.6652959" lon="10.1209923"><ele>764.0</ele><time>2026-04-12T09:08:00.261Z</time></trkpt><trkpt lat="45.665296" lon="10.1211626"><ele>774.0</ele><time>2026-04-12T09:08:01.266Z</time></trkpt><trkpt lat="45.665298" lon="10.1213182"><ele>784.0</ele><time>2026-04-12T09:08:02.259Z</time></trkpt><trkpt lat="45.6653064" lon="10.1214563"><ele>794.0</ele><time>2026-04-12T09:08:03.263Z</time></trkpt><trkpt lat="45.66533" lon="10.1215869"><ele>804.0</ele><time>2026-04-12T09:08:04.263Z</time></trkpt><trkpt lat="45.6653697" lon="10.1217141"><ele>814.0</ele><time>2026-04-12T09:08:05.259Z</time></trkpt><trkpt lat="45.6654203" lon="10.1218416"><ele>814.0</ele><time>2026-04-12T09:08:06.262Z</time></trkpt><trkpt lat="45.6654688" lon="10.1219446"><ele>814.0</ele><time>2026-04-12T09:08:07.267Z</time></trkpt><trkpt lat="45.6655311" lon="10.1220757"><ele>814.0</ele><time>2026-04-12T09:08:09.258Z</time></trkpt><trkpt lat="45.6655681" lon="10.1221687"><ele>814.0</ele><time>2026-04-12T09:08:12.266Z</time></trkpt><trkpt lat="45.6656581" lon="10.1224275"><ele>812.4000000000001</ele><time>2026-04-12T09:08:16.263Z</time></trkpt><trkpt lat="45.6657217" lon="10.1225693"><ele>810.8</ele><time>2026-04-12T09:08:18.259Z</time></trkpt><trkpt lat="45.6657908" lon="10.12269"><ele>809.2</ele><time>2026-04-12T09:08:20.272Z</time></trkpt><trkpt lat="45.6658494" lon="10.122777"><ele>807.5999999999999</ele><time>2026-04-12T09:08:22.281Z</time></trkpt><trkpt lat="45.6659055" lon="10.1228462"><ele>806.0</ele><time>2026-04-12T09:08:24.262Z</time></trkpt><trkpt lat="45.6659658" lon="10.1228837"><ele>806.0</ele><time>2026-04-12T09:08:26.267Z</time></trkpt><trkpt lat="45.666036" lon="10.1228025"><ele>806.0</ele><time>2026-04-12T09:08:29.266Z</time></trkpt><trkpt lat="45.6660092" lon="10.1226718"><ele>806.0</ele><time>2026-04-12T09:08:31.261Z</time></trkpt><trkpt lat="45.6659645" lon="10.122588"><ele>806.0</ele><time>2026-04-12T09:08:32.267Z</time></trkpt><trkpt lat="45.6659407" lon="10.1224848"><ele>806.0</ele><time>2026-04-12T09:08:33.267Z</time></trkpt><trkpt lat="45.6659496" lon="10.1221995"><ele>807.5999999999999</ele><time>2026-04-12T09:08:35.259Z</time></trkpt><trkpt lat="45.6659473" lon="10.1220481"><ele>809.2</ele><time>2026-04-12T09:08:36.267Z</time></trkpt><trkpt lat="45.6659391" lon="10.1218996"><ele>810.8</ele><time>2026-04-12T09:08:37.262Z</time></trkpt><trkpt lat="45.6659345" lon="10.1217449"><ele>812.4000000000001</ele><time>2026-04-12T09:08:38.267Z</time></trkpt><trkpt lat="45.6659468" lon="10.1215799"><ele>814.0</ele><time>2026-04-12T09:08:39.27Z</time></trkpt><trkpt lat="45.6659716" lon="10.1213868"><ele>814.0</ele><time>2026-04-12T09:08:40.274Z</time></trkpt><trkpt lat="45.6660064" lon="10.1211785"><ele>814.0</ele><time>2026-04-12T09:08:41.267Z</time></trkpt><trkpt lat="45.6660278" lon="10.1209531"><ele>814.0</ele><time>2026-04-12T09:08:42.262Z</time></trkpt><trkpt lat="45.6660395" lon="10.1207431"><ele>814.0</ele><time>2026-04-12T09:08:43.262Z</time></trkpt><trkpt lat="45.6660432" lon="10.1205424"><ele>814.0</ele><time>2026-04-12T09:08:44.275Z</time></trkpt><trkpt lat="45.6660456" lon="10.1203517"><ele>814.0</ele><time>2026-04-12T09:08:45.259Z</time></trkpt><trkpt lat="45.6660488" lon="10.1201663"><ele>814.0</ele><time>2026-04-12T09:08:46.261Z</time></trkpt><trkpt lat="45.6660535" lon="10.1199853"><ele>813.75</ele><time>2026-04-12T09:08:47.269Z</time></trkpt><trkpt lat="45.6660607" lon="10.119809"><ele>813.5</ele><time>2026-04-12T09:08:48.265Z</time></trkpt><trkpt lat="45.6660726" lon="10.1196339"><ele>813.25</ele><time>2026-04-12T09:08:49.266Z</time></trkpt><trkpt lat="45.6660903" lon="10.1194609"><ele>813.0</ele><time>2026-04-12T09:08:50.266Z</time></trkpt><trkpt lat="45.6661148" lon="10.119286"><ele>826.25</ele><time>2026-04-12T09:08:51.273Z</time></trkpt><trkpt lat="45.66615" lon="10.1191155"><ele>839.5</ele><time>2026-04-12T09:08:52.258Z</time></trkpt><trkpt lat="45.6661989" lon="10.1189515"><ele>852.75</ele><time>2026-04-12T09:08:53.259Z</time></trkpt><trkpt lat="45.6662518" lon="10.1187902"><ele>866.0</ele><time>2026-04-12T09:08:54.267Z</time></trkpt><trkpt lat="45.6663403" lon="10.1184426"><ele>866.0</ele><time>2026-04-12T09:08:56.266Z</time></trkpt><trkpt lat="45.6663654" lon="10.1182478"><ele>866.0</ele><time>2026-04-12T09:08:57.256Z</time></trkpt><trkpt lat="45.6663908" lon="10.1180627"><ele>866.0</ele><time>2026-04-12T09:08:58.255Z</time></trkpt><trkpt lat="45.6664188" lon="10.1178769"><ele>866.0</ele><time>2026-04-12T09:08:59.263Z</time></trkpt><trkpt lat="45.6664497" lon="10.1176934"><ele>865.75</ele><time>2026-04-12T09:09:00.266Z</time></trkpt><trkpt lat="45.6664749" lon="10.11751"><ele>865.5</ele><time>2026-04-12T09:09:01.258Z</time></trkpt><trkpt lat="45.6664952" lon="10.1173262"><ele>865.25</ele><time>2026-04-12T09:09:02.259Z</time></trkpt><trkpt lat="45.6665129" lon="10.117141"><ele>865.0</ele><time>2026-04-12T09:09:03.262Z</time></trkpt><trkpt lat="45.6665274" lon="10.1169531"><ele>865.0</ele><time>2026-04-12T09:09:04.254Z</time></trkpt><trkpt lat="45.6665388" lon="10.1167642"><ele>865.0</ele><time>2026-04-12T09:09:05.26Z</time></trkpt><trkpt lat="45.6665501" lon="10.1165748"><ele>865.0</ele><time>2026-04-12T09:09:06.256Z</time></trkpt><trkpt lat="45.6665587" lon="10.116387"><ele>865.0</ele><time>2026-04-12T09:09:07.263Z</time></trkpt><trkpt lat="45.6665646" lon="10.1162004"><ele>864.75</ele><time>2026-04-12T09:09:08.261Z</time></trkpt><trkpt lat="45.6665705" lon="10.1160141"><ele>864.5</ele><time>2026-04-12T09:09:09.254Z</time></trkpt><trkpt lat="45.6665788" lon="10.1158291"><ele>864.25</ele><time>2026-04-12T09:09:10.266Z</time></trkpt><trkpt lat="45.6665875" lon="10.1156453"><ele>864.0</ele><time>2026-04-12T09:09:11.259Z</time></trkpt><trkpt lat="45.6665936" lon="10.1154596"><ele>866.25</ele><time>2026-04-12T09:09:12.27Z</time></trkpt><trkpt lat="45.6665921" lon="10.1152713"><ele>868.5</ele><time>2026-04-12T09:09:13.259Z</time></trkpt><trkpt lat="45.6665836" lon="10.1150809"><ele>870.75</ele><time>2026-04-12T09:09:14.274Z</time></trkpt><trkpt lat="45.6665671" lon="10.1148909"><ele>873.0</ele><time>2026-04-12T09:09:15.258Z</time></trkpt><trkpt lat="45.6665159" lon="10.1144986"><ele>874.25</ele><time>2026-04-12T09:09:17.256Z</time></trkpt><trkpt lat="45.6664846" lon="10.1143023"><ele>875.5</ele><time>2026-04-12T09:09:18.265Z</time></trkpt><trkpt lat="45.6664533" lon="10.1141141"><ele>876.75</ele><time>2026-04-12T09:09:19.261Z</time></trkpt><trkpt lat="45.6664219" lon="10.1139469"><ele>878.0</ele><time>2026-04-12T09:09:20.265Z</time></trkpt><trkpt lat="45.6663912" lon="10.1138036"><ele>878.1666666666667</ele><time>2026-04-12T09:09:21.265Z</time></trkpt><trkpt lat="45.6663571" lon="10.1136772"><ele>878.3333333333334</ele><time>2026-04-12T09:09:22.256Z</time></trkpt><trkpt lat="45.6663208" lon="10.11356"><ele>878.5</ele><time>2026-04-12T09:09:23.261Z</time></trkpt><trkpt lat="45.6662838" lon="10.113448"><ele>878.6666666666667</ele><time>2026-04-12T09:09:24.265Z</time></trkpt><trkpt lat="45.6662461" lon="10.1133483"><ele>878.8333333333334</ele><time>2026-04-12T09:09:25.281Z</time></trkpt><trkpt lat="45.6662172" lon="10.1132526"><ele>879.0</ele><time>2026-04-12T09:09:26.267Z</time></trkpt><trkpt lat="45.6661954" lon="10.1131669"><ele>879.0</ele><time>2026-04-12T09:09:27.268Z</time></trkpt><trkpt lat="45.6661685" lon="10.1130193"><ele>879.0</ele><time>2026-04-12T09:09:29.264Z</time></trkpt><trkpt lat="45.6661442" lon="10.1128546"><ele>879.0</ele><time>2026-04-12T09:09:31.276Z</time></trkpt><trkpt lat="45.666134" lon="10.1127645"><ele>879.0</ele><time>2026-04-12T09:09:32.28Z</time></trkpt><trkpt lat="45.6661286" lon="10.1126592"><ele>879.0</ele><time>2026-04-12T09:09:33.267Z</time></trkpt><trkpt lat="45.6661326" lon="10.1125367"><ele>879.0</ele><time>2026-04-12T09:09:34.278Z</time></trkpt><trkpt lat="45.666146" lon="10.1124017"><ele>880.75</ele><time>2026-04-12T09:09:35.267Z</time></trkpt><trkpt lat="45.6661682" lon="10.1122625"><ele>882.5</ele><time>2026-04-12T09:09:36.273Z</time></trkpt><trkpt lat="45.6662347" lon="10.1119953"><ele>884.25</ele><time>2026-04-12T09:09:38.273Z</time></trkpt><trkpt lat="45.6662882" lon="10.1119113"><ele>886.0</ele><time>2026-04-12T09:09:39.262Z</time></trkpt><trkpt lat="45.6663631" lon="10.1118787"><ele>886.0</ele><time>2026-04-12T09:09:40.264Z</time></trkpt><trkpt lat="45.6664541" lon="10.111886"><ele>885.9999999999999</ele><time>2026-04-12T09:09:41.262Z</time></trkpt><trkpt lat="45.6665689" lon="10.111926"><ele>885.9999999999999</ele><time>2026-04-12T09:09:42.265Z</time></trkpt><trkpt lat="45.6666715" lon="10.1119342"><ele>886.0</ele><time>2026-04-12T09:09:43.283Z</time></trkpt><trkpt lat="45.6667583" lon="10.1119279"><ele>886.0</ele><time>2026-04-12T09:09:44.265Z</time></trkpt><trkpt lat="45.6668263" lon="10.1119041"><ele>885.9999999999999</ele><time>2026-04-12T09:09:45.265Z</time></trkpt><trkpt lat="45.6668833" lon="10.1117786"><ele>886.0</ele><time>2026-04-12T09:09:47.276Z</time></trkpt><trkpt lat="45.6668932" lon="10.1116862"><ele>886.0</ele><time>2026-04-12T09:09:48.265Z</time></trkpt><trkpt lat="45.6669135" lon="10.111573"><ele>886.0</ele><time>2026-04-12T09:09:49.267Z</time></trkpt><trkpt lat="45.6669469" lon="10.1114582"><ele>885.9999999999999</ele><time>2026-04-12T09:09:50.264Z</time></trkpt><trkpt lat="45.6669865" lon="10.1113446"><ele>886.0</ele><time>2026-04-12T09:09:51.268Z</time></trkpt><trkpt lat="45.667019" lon="10.1112403"><ele>886.4999999999999</ele><time>2026-04-12T09:09:52.26Z</time></trkpt><trkpt lat="45.6670387" lon="10.1111285"><ele>887.0</ele><time>2026-04-12T09:09:53.259Z</time></trkpt><trkpt lat="45.6670398" lon="10.1110224"><ele>887.5</ele><time>2026-04-12T09:09:54.273Z</time></trkpt><trkpt lat="45.6670187" lon="10.1109312"><ele>888.0</ele><time>2026-04-12T09:09:55.272Z</time></trkpt><trkpt lat="45.6669794" lon="10.1108555"><ele>888.4999999999999</ele><time>2026-04-12T09:09:56.267Z</time></trkpt><trkpt lat="45.6669256" lon="10.1107956"><ele>889.0</ele><time>2026-04-12T09:09:57.269Z</time></trkpt><trkpt lat="45.6667713" lon="10.1107119"><ele>889.0</ele><time>2026-04-12T09:09:59.259Z</time></trkpt><trkpt lat="45.6666805" lon="10.11068"><ele>889.0000000000001</ele><time>2026-04-12T09:10:00.267Z</time></trkpt><trkpt lat="45.6665825" lon="10.1106522"><ele>889.0000000000001</ele><time>2026-04-12T09:10:01.266Z</time></trkpt><trkpt lat="45.6664871" lon="10.1106103"><ele>889.0</ele><time>2026-04-12T09:10:02.259Z</time></trkpt><trkpt lat="45.6664011" lon="10.1105644"><ele>889.0</ele><time>2026-04-12T09:10:03.261Z</time></trkpt><trkpt lat="45.6663276" lon="10.1105103"><ele>888.9999999999999</ele><time>2026-04-12T09:10:04.276Z</time></trkpt><trkpt lat="45.6662786" lon="10.1104448"><ele>889.0</ele><time>2026-04-12T09:10:05.27Z</time></trkpt><trkpt lat="45.6662653" lon="10.1103066"><ele>889.0</ele><time>2026-04-12T09:10:07.267Z</time></trkpt><trkpt lat="45.6663605" lon="10.1101988"><ele>889.0</ele><time>2026-04-12T09:10:09.266Z</time></trkpt><trkpt lat="45.6664324" lon="10.1101651"><ele>888.9999999999999</ele><time>2026-04-12T09:10:10.267Z</time></trkpt><trkpt lat="45.6665047" lon="10.1101334"><ele>889.0</ele><time>2026-04-12T09:10:11.267Z</time></trkpt><trkpt lat="45.6665812" lon="10.1100962"><ele>888.9999999999999</ele><time>2026-04-12T09:10:12.278Z</time></trkpt><trkpt lat="45.6666519" lon="10.1100642"><ele>889.0</ele><time>2026-04-12T09:10:13.267Z</time></trkpt><trkpt lat="45.6667163" lon="10.1100365"><ele>889.0</ele><time>2026-04-12T09:10:14.271Z</time></trkpt><trkpt lat="45.66678" lon="10.1100139"><ele>889.0</ele><time>2026-04-12T09:10:15.264Z</time></trkpt><trkpt lat="45.6668925" lon="10.1099588"><ele>888.9999999999999</ele><time>2026-04-12T09:10:17.264Z</time></trkpt><trkpt lat="45.6669648" lon="10.1098448"><ele>889.0</ele><time>2026-04-12T09:10:19.27Z</time></trkpt><trkpt lat="45.6669583" lon="10.1094836"><ele>886.5</ele><time>2026-04-12T09:10:22.267Z</time></trkpt><trkpt lat="45.6669641" lon="10.1093112"><ele>884.0</ele><time>2026-04-12T09:10:23.276Z</time></trkpt><trkpt lat="45.6669818" lon="10.1091216"><ele>881.5</ele><time>2026-04-12T09:10:24.266Z</time></trkpt><trkpt lat="45.6669995" lon="10.1089328"><ele>879.0</ele><time>2026-04-12T09:10:25.269Z</time></trkpt><trkpt lat="45.667021" lon="10.1087479"><ele>879.0</ele><time>2026-04-12T09:10:26.267Z</time></trkpt><trkpt lat="45.6670519" lon="10.1085732"><ele>879.0</ele><time>2026-04-12T09:10:27.264Z</time></trkpt><trkpt lat="45.6670919" lon="10.1084107"><ele>879.0</ele><time>2026-04-12T09:10:28.259Z</time></trkpt><trkpt lat="45.6671452" lon="10.1082665"><ele>879.0</ele><time>2026-04-12T09:10:29.266Z</time></trkpt><trkpt lat="45.6672128" lon="10.1081414"><ele>879.6</ele><time>2026-04-12T09:10:30.261Z</time></trkpt><trkpt lat="45.6672916" lon="10.10804"><ele>880.2</ele><time>2026-04-12T09:10:31.257Z</time></trkpt><trkpt lat="45.6673632" lon="10.1079519"><ele>880.8000000000001</ele><time>2026-04-12T09:10:32.278Z</time></trkpt><trkpt lat="45.6674331" lon="10.1078735"><ele>881.4000000000001</ele><time>2026-04-12T09:10:33.26Z</time></trkpt><trkpt lat="45.6674846" lon="10.1077927"><ele>882.0</ele><time>2026-04-12T09:10:34.271Z</time></trkpt><trkpt lat="45.6674975" lon="10.1076408"><ele>882.0</ele><time>2026-04-12T09:10:36.262Z</time></trkpt><trkpt lat="45.6674883" lon="10.10749"><ele>882.0</ele><time>2026-04-12T09:10:38.265Z</time></trkpt><trkpt lat="45.6675594" lon="10.1074123"><ele>882.0</ele><time>2026-04-12T09:10:40.282Z</time></trkpt><trkpt lat="45.667715" lon="10.1073582"><ele>882.0</ele><time>2026-04-12T09:10:42.269Z</time></trkpt><trkpt lat="45.667789" lon="10.1073064"><ele>882.0</ele><time>2026-04-12T09:10:43.27Z</time></trkpt><trkpt lat="45.6678665" lon="10.1072478"><ele>881.0</ele><time>2026-04-12T09:10:44.275Z</time></trkpt><trkpt lat="45.6679558" lon="10.1072096"><ele>880.0</ele><time>2026-04-12T09:10:45.274Z</time></trkpt><trkpt lat="45.6680513" lon="10.1071957"><ele>879.0</ele><time>2026-04-12T09:10:46.267Z</time></trkpt><trkpt lat="45.66815" lon="10.1072096"><ele>878.0</ele><time>2026-04-12T09:10:47.268Z</time></trkpt><trkpt lat="45.6682499" lon="10.1072277"><ele>877.0</ele><time>2026-04-12T09:10:48.267Z</time></trkpt><trkpt lat="45.6683523" lon="10.1072327"><ele>877.0</ele><time>2026-04-12T09:10:49.274Z</time></trkpt><trkpt lat="45.6684535" lon="10.1072128"><ele>877.0</ele><time>2026-04-12T09:10:50.262Z</time></trkpt><trkpt lat="45.6685579" lon="10.1071681"><ele>877.0</ele><time>2026-04-12T09:10:51.277Z</time></trkpt><trkpt lat="45.66866" lon="10.1070992"><ele>877.0</ele><time>2026-04-12T09:10:52.261Z</time></trkpt><trkpt lat="45.6687558" lon="10.1070085"><ele>877.0</ele><time>2026-04-12T09:10:53.258Z</time></trkpt><trkpt lat="45.668843" lon="10.1069168"><ele>874.2</ele><time>2026-04-12T09:10:54.257Z</time></trkpt><trkpt lat="45.6689248" lon="10.1068405"><ele>871.4000000000001</ele><time>2026-04-12T09:10:55.266Z</time></trkpt><trkpt lat="45.6690038" lon="10.106795"><ele>868.5999999999999</ele><time>2026-04-12T09:10:56.257Z</time></trkpt><trkpt lat="45.6691239" lon="10.106851"><ele>865.8</ele><time>2026-04-12T09:10:58.274Z</time></trkpt><trkpt lat="45.6691868" lon="10.1069373"><ele>863.0</ele><time>2026-04-12T09:10:59.265Z</time></trkpt><trkpt lat="45.6692622" lon="10.1070348"><ele>863.0</ele><time>2026-04-12T09:11:01.261Z</time></trkpt><trkpt lat="45.6694392" lon="10.1069736"><ele>863.0</ele><time>2026-04-12T09:11:04.263Z</time></trkpt><trkpt lat="45.6695027" lon="10.1070046"><ele>863.0</ele><time>2026-04-12T09:11:05.266Z</time></trkpt><trkpt lat="45.6695574" lon="10.1070723"><ele>863.0</ele><time>2026-04-12T09:11:06.266Z</time></trkpt><trkpt lat="45.6696136" lon="10.1071506"><ele>863.0</ele><time>2026-04-12T09:11:07.276Z</time></trkpt><trkpt lat="45.6696876" lon="10.1072256"><ele>861.0</ele><time>2026-04-12T09:11:08.276Z</time></trkpt><trkpt lat="45.6697705" lon="10.107284"><ele>859.0</ele><time>2026-04-12T09:11:09.26Z</time></trkpt><trkpt lat="45.6698619" lon="10.1073245"><ele>857.0</ele><time>2026-04-12T09:11:10.274Z</time></trkpt><trkpt lat="45.6699767" lon="10.1073683"><ele>855.0</ele><time>2026-04-12T09:11:11.27Z</time></trkpt><trkpt lat="45.670084" lon="10.1073782"><ele>853.0</ele><time>2026-04-12T09:11:12.259Z</time></trkpt><trkpt lat="45.6701966" lon="10.1073865"><ele>850.0</ele><time>2026-04-12T09:11:13.26Z</time></trkpt><trkpt lat="45.6703041" lon="10.1073872"><ele>847.0</ele><time>2026-04-12T09:11:14.265Z</time></trkpt><trkpt lat="45.6704092" lon="10.107388"><ele>844.0</ele><time>2026-04-12T09:11:15.273Z</time></trkpt><trkpt lat="45.6705115" lon="10.1073863"><ele>841.0</ele><time>2026-04-12T09:11:16.269Z</time></trkpt><trkpt lat="45.670604" lon="10.1073608"><ele>838.0</ele><time>2026-04-12T09:11:17.274Z</time></trkpt><trkpt lat="45.6706842" lon="10.1073084"><ele>838.0</ele><time>2026-04-12T09:11:18.266Z</time></trkpt><trkpt lat="45.6707566" lon="10.1072358"><ele>838.0</ele><time>2026-04-12T09:11:19.281Z</time></trkpt><trkpt lat="45.6708316" lon="10.1071574"><ele>838.0</ele><time>2026-04-12T09:11:20.261Z</time></trkpt><trkpt lat="45.6709066" lon="10.1070752"><ele>838.0</ele><time>2026-04-12T09:11:21.277Z</time></trkpt><trkpt lat="45.6709879" lon="10.1070029"><ele>838.0</ele><time>2026-04-12T09:11:22.277Z</time></trkpt><trkpt lat="45.6711658" lon="10.1068839"><ele>834.4</ele><time>2026-04-12T09:11:24.284Z</time></trkpt><trkpt lat="45.6712642" lon="10.1068292"><ele>830.8</ele><time>2026-04-12T09:11:25.266Z</time></trkpt><trkpt lat="45.6713625" lon="10.1067635"><ele>827.2</ele><time>2026-04-12T09:11:26.258Z</time></trkpt><trkpt lat="45.6714549" lon="10.1066858"><ele>823.6</ele><time>2026-04-12T09:11:27.266Z</time></trkpt><trkpt lat="45.6715347" lon="10.1065948"><ele>820.0</ele><time>2026-04-12T09:11:28.266Z</time></trkpt><trkpt lat="45.6715977" lon="10.1064911"><ele>819.9999999999999</ele><time>2026-04-12T09:11:29.259Z</time></trkpt><trkpt lat="45.6716433" lon="10.1063852"><ele>820.0</ele><time>2026-04-12T09:11:30.266Z</time></trkpt><trkpt lat="45.6716725" lon="10.1062767"><ele>820.0</ele><time>2026-04-12T09:11:31.284Z</time></trkpt><trkpt lat="45.6716826" lon="10.1061612"><ele>820.0</ele><time>2026-04-12T09:11:32.261Z</time></trkpt><trkpt lat="45.6716856" lon="10.106034"><ele>819.9999999999999</ele><time>2026-04-12T09:11:33.263Z</time></trkpt><trkpt lat="45.6716928" lon="10.1059"><ele>820.0</ele><time>2026-04-12T09:11:34.259Z</time></trkpt><trkpt lat="45.6717138" lon="10.1057767"><ele>820.6666666666666</ele><time>2026-04-12T09:11:35.263Z</time></trkpt><trkpt lat="45.6717454" lon="10.1056638"><ele>821.3333333333333</ele><time>2026-04-12T09:11:36.279Z</time></trkpt><trkpt lat="45.6717863" lon="10.105567"><ele>822.0</ele><time>2026-04-12T09:11:37.268Z</time></trkpt><trkpt lat="45.6718285" lon="10.1054865"><ele>822.6666666666667</ele><time>2026-04-12T09:11:38.267Z</time></trkpt><trkpt lat="45.6718701" lon="10.105407"><ele>823.3333333333334</ele><time>2026-04-12T09:11:39.265Z</time></trkpt><trkpt lat="45.6719165" lon="10.1053295"><ele>824.0</ele><time>2026-04-12T09:11:40.268Z</time></trkpt><trkpt lat="45.6719649" lon="10.1052439"><ele>819.2</ele><time>2026-04-12T09:11:41.267Z</time></trkpt><trkpt lat="45.6720138" lon="10.1051525"><ele>814.4000000000001</ele><time>2026-04-12T09:11:42.279Z</time></trkpt><trkpt lat="45.6720655" lon="10.1050508"><ele>809.6</ele><time>2026-04-12T09:11:43.267Z</time></trkpt><trkpt lat="45.6721703" lon="10.1048534"><ele>804.8</ele><time>2026-04-12T09:11:45.265Z</time></trkpt><trkpt lat="45.6722099" lon="10.1047534"><ele>800.0</ele><time>2026-04-12T09:11:46.265Z</time></trkpt><trkpt lat="45.6722476" lon="10.1046529"><ele>800.0000000000001</ele><time>2026-04-12T09:11:47.282Z</time></trkpt><trkpt lat="45.6722845" lon="10.1045466"><ele>800.0</ele><time>2026-04-12T09:11:48.264Z</time></trkpt><trkpt lat="45.6723191" lon="10.1044375"><ele>800.0</ele><time>2026-04-12T09:11:49.264Z</time></trkpt><trkpt lat="45.6723488" lon="10.1043235"><ele>800.0</ele><time>2026-04-12T09:11:50.263Z</time></trkpt><trkpt lat="45.6723782" lon="10.1042043"><ele>800.0000000000001</ele><time>2026-04-12T09:11:51.264Z</time></trkpt><trkpt lat="45.6724035" lon="10.1040833"><ele>800.0</ele><time>2026-04-12T09:11:52.266Z</time></trkpt><trkpt lat="45.672414" lon="10.1039617"><ele>799.6</ele><time>2026-04-12T09:11:53.263Z</time></trkpt><trkpt lat="45.67241" lon="10.1038382"><ele>799.2</ele><time>2026-04-12T09:11:54.266Z</time></trkpt><trkpt lat="45.6724014" lon="10.1037072"><ele>798.8</ele><time>2026-04-12T09:11:55.275Z</time></trkpt><trkpt lat="45.6724099" lon="10.1035732"><ele>798.4</ele><time>2026-04-12T09:11:56.267Z</time></trkpt><trkpt lat="45.6724417" lon="10.1034265"><ele>798.0</ele><time>2026-04-12T09:11:57.259Z</time></trkpt><trkpt lat="45.672487" lon="10.1032824"><ele>798.2</ele><time>2026-04-12T09:11:58.257Z</time></trkpt><trkpt lat="45.6725388" lon="10.1031405"><ele>798.4</ele><time>2026-04-12T09:11:59.264Z</time></trkpt><trkpt lat="45.6725892" lon="10.1030007"><ele>798.6</ele><time>2026-04-12T09:12:00.259Z</time></trkpt><trkpt lat="45.6726456" lon="10.1028606"><ele>798.8000000000001</ele><time>2026-04-12T09:12:01.261Z</time></trkpt><trkpt lat="45.6726941" lon="10.1027201"><ele>799.0</ele><time>2026-04-12T09:12:02.261Z</time></trkpt><trkpt lat="45.6727401" lon="10.1025847"><ele>792.25</ele><time>2026-04-12T09:12:03.256Z</time></trkpt><trkpt lat="45.6727836" lon="10.1024423"><ele>785.5</ele><time>2026-04-12T09:12:04.266Z</time></trkpt><trkpt lat="45.6728399" lon="10.1021319"><ele>778.75</ele><time>2026-04-12T09:12:06.258Z</time></trkpt><trkpt lat="45.6728551" lon="10.1019734"><ele>772.0</ele><time>2026-04-12T09:12:07.262Z</time></trkpt><trkpt lat="45.6728755" lon="10.1018126"><ele>772.0</ele><time>2026-04-12T09:12:08.263Z</time></trkpt><trkpt lat="45.6728983" lon="10.1016598"><ele>772.0</ele><time>2026-04-12T09:12:09.257Z</time></trkpt><trkpt lat="45.6729314" lon="10.1015177"><ele>772.0</ele><time>2026-04-12T09:12:10.267Z</time></trkpt><trkpt lat="45.6729749" lon="10.1013866"><ele>772.0</ele><time>2026-04-12T09:12:11.266Z</time></trkpt><trkpt lat="45.6730345" lon="10.1012752"><ele>772.0</ele><time>2026-04-12T09:12:12.262Z</time></trkpt><trkpt lat="45.6730975" lon="10.1011888"><ele>772.7142857142858</ele><time>2026-04-12T09:12:13.26Z</time></trkpt><trkpt lat="45.6731642" lon="10.1011276"><ele>773.4285714285714</ele><time>2026-04-12T09:12:14.268Z</time></trkpt><trkpt lat="45.6732255" lon="10.1011039"><ele>774.1428571428571</ele><time>2026-04-12T09:12:15.271Z</time></trkpt><trkpt lat="45.6732904" lon="10.101119"><ele>774.8571428571429</ele><time>2026-04-12T09:12:16.273Z</time></trkpt><trkpt lat="45.6733588" lon="10.1011602"><ele>775.5714285714286</ele><time>2026-04-12T09:12:17.271Z</time></trkpt><trkpt lat="45.6734557" lon="10.1011569"><ele>776.2857142857143</ele><time>2026-04-12T09:12:19.259Z</time></trkpt><trkpt lat="45.6734951" lon="10.1010808"><ele>777.0</ele><time>2026-04-12T09:12:20.26Z</time></trkpt><trkpt lat="45.6735144" lon="10.1009627"><ele>777.0</ele><time>2026-04-12T09:12:21.259Z</time></trkpt><trkpt lat="45.6735217" lon="10.1008331"><ele>777.0</ele><time>2026-04-12T09:12:22.261Z</time></trkpt><trkpt lat="45.6735302" lon="10.1007034"><ele>777.0</ele><time>2026-04-12T09:12:23.258Z</time></trkpt><trkpt lat="45.6735474" lon="10.1005845"><ele>777.0</ele><time>2026-04-12T09:12:24.264Z</time></trkpt><trkpt lat="45.6735648" lon="10.1004685"><ele>777.0</ele><time>2026-04-12T09:12:25.257Z</time></trkpt><trkpt lat="45.6735813" lon="10.1002359"><ele>777.0</ele><time>2026-04-12T09:12:27.259Z</time></trkpt><trkpt lat="45.6735756" lon="10.1001148"><ele>777.0</ele><time>2026-04-12T09:12:28.256Z</time></trkpt><trkpt lat="45.6735636" lon="10.0999921"><ele>777.0</ele><time>2026-04-12T09:12:29.259Z</time></trkpt><trkpt lat="45.6735503" lon="10.0998717"><ele>777.0</ele><time>2026-04-12T09:12:30.259Z</time></trkpt><trkpt lat="45.6735374" lon="10.0997508"><ele>777.0</ele><time>2026-04-12T09:12:31.257Z</time></trkpt><trkpt lat="45.6735244" lon="10.0996297"><ele>777.0</ele><time>2026-04-12T09:12:32.258Z</time></trkpt><trkpt lat="45.6735135" lon="10.0995108"><ele>776.2857142857143</ele><time>2026-04-12T09:12:33.255Z</time></trkpt><trkpt lat="45.673499" lon="10.0993976"><ele>775.5714285714286</ele><time>2026-04-12T09:12:34.258Z</time></trkpt><trkpt lat="45.6734771" lon="10.0992923"><ele>774.8571428571429</ele><time>2026-04-12T09:12:35.262Z</time></trkpt><trkpt lat="45.6734431" lon="10.0992009"><ele>774.1428571428571</ele><time>2026-04-12T09:12:36.257Z</time></trkpt><trkpt lat="45.6734017" lon="10.0991251"><ele>773.4285714285714</ele><time>2026-04-12T09:12:37.254Z</time></trkpt><trkpt lat="45.6733583" lon="10.0990581"><ele>772.7142857142858</ele><time>2026-04-12T09:12:38.255Z</time></trkpt><trkpt lat="45.6733417" lon="10.0989502"><ele>772.0</ele><time>2026-04-12T09:12:40.256Z</time></trkpt><trkpt lat="45.673426" lon="10.0989677"><ele>772.0</ele><time>2026-04-12T09:12:42.258Z</time></trkpt><trkpt lat="45.6735017" lon="10.0991246"><ele>772.0</ele><time>2026-04-12T09:12:44.259Z</time></trkpt><trkpt lat="45.6735425" lon="10.0992438"><ele>772.0</ele><time>2026-04-12T09:12:45.259Z</time></trkpt><trkpt lat="45.673589" lon="10.0993702"><ele>772.0</ele><time>2026-04-12T09:12:46.262Z</time></trkpt><trkpt lat="45.6736893" lon="10.0996371"><ele>764.0</ele><time>2026-04-12T09:12:48.262Z</time></trkpt><trkpt lat="45.6737409" lon="10.0997777"><ele>756.0</ele><time>2026-04-12T09:12:49.258Z</time></trkpt><trkpt lat="45.6738061" lon="10.0999201"><ele>748.0</ele><time>2026-04-12T09:12:50.256Z</time></trkpt><trkpt lat="45.6738852" lon="10.1000575"><ele>740.0</ele><time>2026-04-12T09:12:51.263Z</time></trkpt><trkpt lat="45.6739574" lon="10.1002029"><ele>740.0</ele><time>2026-04-12T09:12:52.257Z</time></trkpt><trkpt lat="45.6740189" lon="10.1003584"><ele>740.0</ele><time>2026-04-12T09:12:53.262Z</time></trkpt><trkpt lat="45.6740688" lon="10.1005236"><ele>740.0</ele><time>2026-04-12T09:12:54.264Z</time></trkpt><trkpt lat="45.6741133" lon="10.1006936"><ele>740.0</ele><time>2026-04-12T09:12:55.26Z</time></trkpt><trkpt lat="45.6741561" lon="10.1008664"><ele>741.5</ele><time>2026-04-12T09:12:56.258Z</time></trkpt><trkpt lat="45.6742021" lon="10.1010371"><ele>743.0</ele><time>2026-04-12T09:12:57.259Z</time></trkpt><trkpt lat="45.6742533" lon="10.1012087"><ele>744.5</ele><time>2026-04-12T09:12:58.258Z</time></trkpt><trkpt lat="45.6743054" lon="10.1013774"><ele>746.0</ele><time>2026-04-12T09:12:59.258Z</time></trkpt><trkpt lat="45.6743575" lon="10.1015432"><ele>746.25</ele><time>2026-04-12T09:13:00.259Z</time></trkpt><trkpt lat="45.6744103" lon="10.101707"><ele>746.5</ele><time>2026-04-12T09:13:01.267Z</time></trkpt><trkpt lat="45.6744599" lon="10.101872"><ele>746.75</ele><time>2026-04-12T09:13:02.262Z</time></trkpt><trkpt lat="45.6745019" lon="10.102032"><ele>747.0</ele><time>2026-04-12T09:13:03.261Z</time></trkpt><trkpt lat="45.674538" lon="10.1021941"><ele>738.5</ele><time>2026-04-12T09:13:04.263Z</time></trkpt><trkpt lat="45.6745693" lon="10.1023546"><ele>730.0</ele><time>2026-04-12T09:13:05.259Z</time></trkpt><trkpt lat="45.6745985" lon="10.1025159"><ele>721.5</ele><time>2026-04-12T09:13:06.254Z</time></trkpt><trkpt lat="45.6746283" lon="10.1026749"><ele>713.0</ele><time>2026-04-12T09:13:07.259Z</time></trkpt><trkpt lat="45.6746819" lon="10.1029837"><ele>712.5</ele><time>2026-04-12T09:13:09.26Z</time></trkpt><trkpt lat="45.6746984" lon="10.1031458"><ele>712.0</ele><time>2026-04-12T09:13:10.253Z</time></trkpt><trkpt lat="45.6747068" lon="10.1033201"><ele>711.5</ele><time>2026-04-12T09:13:11.264Z</time></trkpt><trkpt lat="45.6747085" lon="10.1034925"><ele>711.0</ele><time>2026-04-12T09:13:12.262Z</time></trkpt><trkpt lat="45.6747147" lon="10.1036533"><ele>711.0</ele><time>2026-04-12T09:13:13.262Z</time></trkpt><trkpt lat="45.674728" lon="10.1038051"><ele>711.0</ele><time>2026-04-12T09:13:14.26Z</time></trkpt><trkpt lat="45.6747423" lon="10.1039467"><ele>711.0</ele><time>2026-04-12T09:13:15.259Z</time></trkpt><trkpt lat="45.6747588" lon="10.104087"><ele>711.0</ele><time>2026-04-12T09:13:16.259Z</time></trkpt><trkpt lat="45.6747797" lon="10.1042271"><ele>711.0</ele><time>2026-04-12T09:13:17.257Z</time></trkpt><trkpt lat="45.6748045" lon="10.1043675"><ele>710.5999999999999</ele><time>2026-04-12T09:13:18.258Z</time></trkpt><trkpt lat="45.6748315" lon="10.1045085"><ele>710.2</ele><time>2026-04-12T09:13:19.259Z</time></trkpt><trkpt lat="45.6748533" lon="10.1046544"><ele>709.8</ele><time>2026-04-12T09:13:20.266Z</time></trkpt><trkpt lat="45.674864" lon="10.1048104"><ele>709.4000000000001</ele><time>2026-04-12T09:13:21.254Z</time></trkpt><trkpt lat="45.6748645" lon="10.104967"><ele>709.0</ele><time>2026-04-12T09:13:22.267Z</time></trkpt><trkpt lat="45.6748592" lon="10.1051204"><ele>708.6</ele><time>2026-04-12T09:13:23.262Z</time></trkpt><trkpt lat="45.6748523" lon="10.1052739"><ele>708.2</ele><time>2026-04-12T09:13:24.264Z</time></trkpt><trkpt lat="45.6748504" lon="10.1054286"><ele>707.8000000000001</ele><time>2026-04-12T09:13:25.266Z</time></trkpt><trkpt lat="45.6748526" lon="10.1055846"><ele>707.4000000000001</ele><time>2026-04-12T09:13:26.267Z</time></trkpt><trkpt lat="45.6748552" lon="10.1057425"><ele>707.0</ele><time>2026-04-12T09:13:27.263Z</time></trkpt><trkpt lat="45.6748555" lon="10.1059014"><ele>706.0</ele><time>2026-04-12T09:13:28.258Z</time></trkpt><trkpt lat="45.6748428" lon="10.1062167"><ele>705.0</ele><time>2026-04-12T09:13:30.255Z</time></trkpt><trkpt lat="45.6748254" lon="10.106375"><ele>704.0</ele><time>2026-04-12T09:13:31.256Z</time></trkpt><trkpt lat="45.6747873" lon="10.1065277"><ele>703.0</ele><time>2026-04-12T09:13:32.265Z</time></trkpt><trkpt lat="45.6747318" lon="10.1066758"><ele>701.0</ele><time>2026-04-12T09:13:33.258Z</time></trkpt><trkpt lat="45.6746845" lon="10.1068208"><ele>699.0</ele><time>2026-04-12T09:13:34.258Z</time></trkpt><trkpt lat="45.6746592" lon="10.1069689"><ele>697.0</ele><time>2026-04-12T09:13:35.254Z</time></trkpt><trkpt lat="45.6746592" lon="10.1071238"><ele>695.0</ele><time>2026-04-12T09:13:36.26Z</time></trkpt><trkpt lat="45.6746608" lon="10.1072848"><ele>693.0</ele><time>2026-04-12T09:13:37.262Z</time></trkpt><trkpt lat="45.6746454" lon="10.1074527"><ele>689.75</ele><time>2026-04-12T09:13:38.261Z</time></trkpt><trkpt lat="45.6746131" lon="10.1076175"><ele>686.5</ele><time>2026-04-12T09:13:39.261Z</time></trkpt><trkpt lat="45.6745717" lon="10.1077757"><ele>683.25</ele><time>2026-04-12T09:13:40.256Z</time></trkpt><trkpt lat="45.6745288" lon="10.1079313"><ele>680.0</ele><time>2026-04-12T09:13:41.266Z</time></trkpt><trkpt lat="45.6744959" lon="10.1080924"><ele>677.0</ele><time>2026-04-12T09:13:42.264Z</time></trkpt><trkpt lat="45.6744788" lon="10.1082618"><ele>674.0</ele><time>2026-04-12T09:13:43.255Z</time></trkpt><trkpt lat="45.6744685" lon="10.1084382"><ele>671.0</ele><time>2026-04-12T09:13:44.269Z</time></trkpt><trkpt lat="45.6744615" lon="10.1086125"><ele>668.0</ele><time>2026-04-12T09:13:45.26Z</time></trkpt><trkpt lat="45.6744497" lon="10.1087862"><ele>675.75</ele><time>2026-04-12T09:13:46.259Z</time></trkpt><trkpt lat="45.6744364" lon="10.1089561"><ele>683.5</ele><time>2026-04-12T09:13:47.26Z</time></trkpt><trkpt lat="45.6744224" lon="10.1091224"><ele>691.25</ele><time>2026-04-12T09:13:48.257Z</time></trkpt><trkpt lat="45.6744109" lon="10.1092888"><ele>699.0</ele><time>2026-04-12T09:13:49.264Z</time></trkpt><trkpt lat="45.6743935" lon="10.1096188"><ele>699.0</ele><time>2026-04-12T09:13:51.261Z</time></trkpt><trkpt lat="45.6743869" lon="10.1097769"><ele>699.0</ele><time>2026-04-12T09:13:52.258Z</time></trkpt><trkpt lat="45.6743841" lon="10.1099269"><ele>699.0</ele><time>2026-04-12T09:13:53.268Z</time></trkpt><trkpt lat="45.674394" lon="10.110066"><ele>699.0</ele><time>2026-04-12T09:13:54.256Z</time></trkpt><trkpt lat="45.6744189" lon="10.1101958"><ele>699.0</ele><time>2026-04-12T09:13:55.258Z</time></trkpt><trkpt lat="45.6744507" lon="10.1103104"><ele>692.6666666666666</ele><time>2026-04-12T09:13:56.262Z</time></trkpt><trkpt lat="45.6744961" lon="10.110409"><ele>686.3333333333334</ele><time>2026-04-12T09:13:57.256Z</time></trkpt><trkpt lat="45.6745534" lon="10.110483"><ele>680.0</ele><time>2026-04-12T09:13:58.262Z</time></trkpt><trkpt lat="45.6746215" lon="10.110536"><ele>673.6666666666667</ele><time>2026-04-12T09:13:59.258Z</time></trkpt><trkpt lat="45.6746931" lon="10.1105754"><ele>667.3333333333334</ele><time>2026-04-12T09:14:00.26Z</time></trkpt><trkpt lat="45.6747706" lon="10.1106163"><ele>661.0</ele><time>2026-04-12T09:14:01.26Z</time></trkpt><trkpt lat="45.6748464" lon="10.1106674"><ele>661.5999999999999</ele><time>2026-04-12T09:14:02.257Z</time></trkpt><trkpt lat="45.6749124" lon="10.1107421"><ele>662.2</ele><time>2026-04-12T09:14:03.263Z</time></trkpt><trkpt lat="45.6749615" lon="10.110847"><ele>662.8</ele><time>2026-04-12T09:14:04.261Z</time></trkpt><trkpt lat="45.6749914" lon="10.1109676"><ele>663.4000000000001</ele><time>2026-04-12T09:14:05.257Z</time></trkpt><trkpt lat="45.6749986" lon="10.1111094"><ele>664.0</ele><time>2026-04-12T09:14:06.259Z</time></trkpt><trkpt lat="45.6749876" lon="10.1112559"><ele>664.0</ele><time>2026-04-12T09:14:07.259Z</time></trkpt><trkpt lat="45.6749762" lon="10.1113957"><ele>664.0</ele><time>2026-04-12T09:14:08.255Z</time></trkpt><trkpt lat="45.6749827" lon="10.1115501"><ele>664.0</ele><time>2026-04-12T09:14:09.262Z</time></trkpt><trkpt lat="45.6749981" lon="10.1116855"><ele>664.0</ele><time>2026-04-12T09:14:10.255Z</time></trkpt><trkpt lat="45.6750581" lon="10.1119593"><ele>665.0</ele><time>2026-04-12T09:14:12.26Z</time></trkpt><trkpt lat="45.6751108" lon="10.1120938"><ele>666.0</ele><time>2026-04-12T09:14:13.256Z</time></trkpt><trkpt lat="45.6751752" lon="10.1122259"><ele>667.0</ele><time>2026-04-12T09:14:14.263Z</time></trkpt><trkpt lat="45.675253" lon="10.1123474"><ele>668.0</ele><time>2026-04-12T09:14:15.259Z</time></trkpt><trkpt lat="45.6753371" lon="10.1124554"><ele>669.0</ele><time>2026-04-12T09:14:16.267Z</time></trkpt><trkpt lat="45.6754217" lon="10.1125555"><ele>664.8000000000001</ele><time>2026-04-12T09:14:17.261Z</time></trkpt><trkpt lat="45.6754956" lon="10.1126635"><ele>660.6</ele><time>2026-04-12T09:14:18.255Z</time></trkpt><trkpt lat="45.6755648" lon="10.1127821"><ele>656.4</ele><time>2026-04-12T09:14:19.262Z</time></trkpt><trkpt lat="45.6756257" lon="10.1129084"><ele>652.2</ele><time>2026-04-12T09:14:20.256Z</time></trkpt><trkpt lat="45.6756819" lon="10.1130372"><ele>648.0</ele><time>2026-04-12T09:14:21.263Z</time></trkpt><trkpt lat="45.6757372" lon="10.1131692"><ele>649.0</ele><time>2026-04-12T09:14:22.261Z</time></trkpt><trkpt lat="45.6757898" lon="10.1132966"><ele>650.0</ele><time>2026-04-12T09:14:23.261Z</time></trkpt><trkpt lat="45.6758386" lon="10.1134218"><ele>651.0</ele><time>2026-04-12T09:14:24.257Z</time></trkpt><trkpt lat="45.6758717" lon="10.1135552"><ele>652.0</ele><time>2026-04-12T09:14:25.259Z</time></trkpt><trkpt lat="45.6758906" lon="10.1136834"><ele>653.0</ele><time>2026-04-12T09:14:26.262Z</time></trkpt><trkpt lat="45.675891" lon="10.1138017"><ele>653.0</ele><time>2026-04-12T09:14:27.261Z</time></trkpt><trkpt lat="45.6758776" lon="10.1139296"><ele>653.0</ele><time>2026-04-12T09:14:28.266Z</time></trkpt><trkpt lat="45.6758582" lon="10.1140557"><ele>653.0</ele><time>2026-04-12T09:14:29.261Z</time></trkpt><trkpt lat="45.6758421" lon="10.1141863"><ele>653.0</ele><time>2026-04-12T09:14:30.262Z</time></trkpt><trkpt lat="45.6758302" lon="10.1143198"><ele>653.0</ele><time>2026-04-12T09:14:31.259Z</time></trkpt><trkpt lat="45.675819" lon="10.1145964"><ele>652.2</ele><time>2026-04-12T09:14:33.258Z</time></trkpt><trkpt lat="45.6758216" lon="10.1147418"><ele>651.4</ele><time>2026-04-12T09:14:34.259Z</time></trkpt><trkpt lat="45.6758301" lon="10.1148887"><ele>650.6</ele><time>2026-04-12T09:14:35.256Z</time></trkpt><trkpt lat="45.6758444" lon="10.1150387"><ele>649.8000000000001</ele><time>2026-04-12T09:14:36.259Z</time></trkpt><trkpt lat="45.6758641" lon="10.1151908"><ele>649.0</ele><time>2026-04-12T09:14:37.261Z</time></trkpt><trkpt lat="45.6758875" lon="10.1153468"><ele>647.2</ele><time>2026-04-12T09:14:38.259Z</time></trkpt><trkpt lat="45.6759117" lon="10.1155016"><ele>645.4000000000001</ele><time>2026-04-12T09:14:39.254Z</time></trkpt><trkpt lat="45.6759382" lon="10.1156542"><ele>643.6</ele><time>2026-04-12T09:14:40.259Z</time></trkpt><trkpt lat="45.6759679" lon="10.115807"><ele>641.8</ele><time>2026-04-12T09:14:41.262Z</time></trkpt><trkpt lat="45.6760048" lon="10.1159588"><ele>640.0</ele><time>2026-04-12T09:14:42.266Z</time></trkpt><trkpt lat="45.6760439" lon="10.1161086"><ele>637.25</ele><time>2026-04-12T09:14:43.263Z</time></trkpt><trkpt lat="45.6760859" lon="10.1162594"><ele>634.5</ele><time>2026-04-12T09:14:44.259Z</time></trkpt><trkpt lat="45.6761295" lon="10.1164121"><ele>631.75</ele><time>2026-04-12T09:14:45.263Z</time></trkpt><trkpt lat="45.6761744" lon="10.1165662"><ele>629.0</ele><time>2026-04-12T09:14:46.26Z</time></trkpt><trkpt lat="45.6762188" lon="10.1167184"><ele>628.2</ele><time>2026-04-12T09:14:47.261Z</time></trkpt><trkpt lat="45.6762592" lon="10.1168682"><ele>627.4</ele><time>2026-04-12T09:14:48.257Z</time></trkpt><trkpt lat="45.6762897" lon="10.1170194"><ele>626.6</ele><time>2026-04-12T09:14:49.258Z</time></trkpt><trkpt lat="45.6763044" lon="10.1171743"><ele>625.8</ele><time>2026-04-12T09:14:50.259Z</time></trkpt><trkpt lat="45.6763012" lon="10.1173372"><ele>625.0</ele><time>2026-04-12T09:14:51.272Z</time></trkpt><trkpt lat="45.6762775" lon="10.1175005"><ele>622.5</ele><time>2026-04-12T09:14:52.26Z</time></trkpt><trkpt lat="45.6762438" lon="10.1177938"><ele>620.0</ele><time>2026-04-12T09:14:54.27Z</time></trkpt><trkpt lat="45.6762502" lon="10.1179262"><ele>617.5</ele><time>2026-04-12T09:14:55.261Z</time></trkpt><trkpt lat="45.6762545" lon="10.1180622"><ele>615.0</ele><time>2026-04-12T09:14:56.269Z</time></trkpt><trkpt lat="45.676254" lon="10.1181963"><ele>614.4</ele><time>2026-04-12T09:14:57.266Z</time></trkpt><trkpt lat="45.6762599" lon="10.1183251"><ele>613.8</ele><time>2026-04-12T09:14:58.267Z</time></trkpt><trkpt lat="45.6762756" lon="10.1184591"><ele>613.2</ele><time>2026-04-12T09:14:59.259Z</time></trkpt><trkpt lat="45.6762978" lon="10.1186061"><ele>612.6</ele><time>2026-04-12T09:15:00.259Z</time></trkpt><trkpt lat="45.6763282" lon="10.1187607"><ele>612.0</ele><time>2026-04-12T09:15:01.257Z</time></trkpt><trkpt lat="45.6763693" lon="10.1189177"><ele>611.25</ele><time>2026-04-12T09:15:02.254Z</time></trkpt><trkpt lat="45.6764203" lon="10.1190694"><ele>610.5</ele><time>2026-04-12T09:15:03.26Z</time></trkpt><trkpt lat="45.6764756" lon="10.1192163"><ele>609.75</ele><time>2026-04-12T09:15:04.255Z</time></trkpt><trkpt lat="45.6765383" lon="10.119355"><ele>609.0</ele><time>2026-04-12T09:15:05.252Z</time></trkpt><trkpt lat="45.6766148" lon="10.1194811"><ele>609.0</ele><time>2026-04-12T09:15:06.256Z</time></trkpt><trkpt lat="45.676699" lon="10.1195941"><ele>609.0</ele><time>2026-04-12T09:15:07.257Z</time></trkpt><trkpt lat="45.6767824" lon="10.1197034"><ele>609.0</ele><time>2026-04-12T09:15:08.255Z</time></trkpt><trkpt lat="45.6768565" lon="10.1198148"><ele>609.0</ele><time>2026-04-12T09:15:09.256Z</time></trkpt><trkpt lat="45.6769253" lon="10.1199349"><ele>609.0</ele><time>2026-04-12T09:15:10.253Z</time></trkpt><trkpt lat="45.6769949" lon="10.1200581"><ele>608.6666666666666</ele><time>2026-04-12T09:15:11.266Z</time></trkpt><trkpt lat="45.6770734" lon="10.1201813"><ele>608.3333333333333</ele><time>2026-04-12T09:15:12.258Z</time></trkpt><trkpt lat="45.6771689" lon="10.1202981"><ele>608.0</ele><time>2026-04-12T09:15:13.264Z</time></trkpt><trkpt lat="45.6773633" lon="10.1205294"><ele>608.0</ele><time>2026-04-12T09:15:15.265Z</time></trkpt><trkpt lat="45.6774465" lon="10.1206577"><ele>608.0</ele><time>2026-04-12T09:15:16.259Z</time></trkpt><trkpt lat="45.6775152" lon="10.1207877"><ele>608.0</ele><time>2026-04-12T09:15:17.256Z</time></trkpt><trkpt lat="45.6775752" lon="10.1209073"><ele>608.0</ele><time>2026-04-12T09:15:18.261Z</time></trkpt><trkpt lat="45.6776301" lon="10.1210289"><ele>608.0</ele><time>2026-04-12T09:15:19.258Z</time></trkpt><trkpt lat="45.6776853" lon="10.1211482"><ele>608.5</ele><time>2026-04-12T09:15:20.26Z</time></trkpt><trkpt lat="45.6777507" lon="10.1212631"><ele>609.0</ele><time>2026-04-12T09:15:21.266Z</time></trkpt><trkpt lat="45.6778258" lon="10.1213791"><ele>609.5</ele><time>2026-04-12T09:15:22.26Z</time></trkpt><trkpt lat="45.6779316" lon="10.1214875"><ele>610.0</ele><time>2026-04-12T09:15:23.259Z</time></trkpt><trkpt lat="45.6780683" lon="10.1215935"><ele>611.5</ele><time>2026-04-12T09:15:24.266Z</time></trkpt><trkpt lat="45.6782013" lon="10.1216971"><ele>613.0</ele><time>2026-04-12T09:15:25.262Z</time></trkpt><trkpt lat="45.6783291" lon="10.1217841"><ele>614.5</ele><time>2026-04-12T09:15:26.262Z</time></trkpt><trkpt lat="45.678448" lon="10.1218608"><ele>616.0</ele><time>2026-04-12T09:15:27.258Z</time></trkpt><trkpt lat="45.6785573" lon="10.1219347"><ele>616.25</ele><time>2026-04-12T09:15:28.261Z</time></trkpt><trkpt lat="45.6786598" lon="10.122014"><ele>616.5</ele><time>2026-04-12T09:15:29.253Z</time></trkpt><trkpt lat="45.678764" lon="10.1221027"><ele>616.75</ele><time>2026-04-12T09:15:30.252Z</time></trkpt><trkpt lat="45.6788694" lon="10.1221994"><ele>617.0</ele><time>2026-04-12T09:15:31.26Z</time></trkpt><trkpt lat="45.6789751" lon="10.1223074"><ele>614.0</ele><time>2026-04-12T09:15:32.253Z</time></trkpt><trkpt lat="45.679071" lon="10.1224269"><ele>611.0</ele><time>2026-04-12T09:15:33.262Z</time></trkpt><trkpt lat="45.6791464" lon="10.1225653"><ele>608.0</ele><time>2026-04-12T09:15:34.256Z</time></trkpt><trkpt lat="45.6792175" lon="10.1228844"><ele>608.0</ele><time>2026-04-12T09:15:36.254Z</time></trkpt><trkpt lat="45.6792373" lon="10.1230474"><ele>608.0</ele><time>2026-04-12T09:15:37.266Z</time></trkpt><trkpt lat="45.679275" lon="10.1231999"><ele>608.0</ele><time>2026-04-12T09:15:38.258Z</time></trkpt><trkpt lat="45.6793373" lon="10.1233278"><ele>608.0</ele><time>2026-04-12T09:15:39.255Z</time></trkpt><trkpt lat="45.6794051" lon="10.1234429"><ele>608.0</ele><time>2026-04-12T09:15:40.259Z</time></trkpt><trkpt lat="45.6794748" lon="10.1235579"><ele>607.1666666666666</ele><time>2026-04-12T09:15:41.257Z</time></trkpt><trkpt lat="45.6795357" lon="10.1236666"><ele>606.3333333333333</ele><time>2026-04-12T09:15:42.261Z</time></trkpt><trkpt lat="45.6795936" lon="10.1237672"><ele>605.5</ele><time>2026-04-12T09:15:43.258Z</time></trkpt><trkpt lat="45.6796533" lon="10.1238546"><ele>604.6666666666666</ele><time>2026-04-12T09:15:44.256Z</time></trkpt><trkpt lat="45.6797173" lon="10.1239168"><ele>603.8333333333334</ele><time>2026-04-12T09:15:45.266Z</time></trkpt><trkpt lat="45.679793" lon="10.1239559"><ele>603.0</ele><time>2026-04-12T09:15:46.264Z</time></trkpt><trkpt lat="45.6798766" lon="10.1239639"><ele>603.0</ele><time>2026-04-12T09:15:47.264Z</time></trkpt><trkpt lat="45.6799589" lon="10.1239448"><ele>603.0</ele><time>2026-04-12T09:15:48.262Z</time></trkpt><trkpt lat="45.6800488" lon="10.1239099"><ele>603.0</ele><time>2026-04-12T09:15:49.257Z</time></trkpt><trkpt lat="45.6801454" lon="10.1238695"><ele>603.0</ele><time>2026-04-12T09:15:50.26Z</time></trkpt><trkpt lat="45.680255" lon="10.1238518"><ele>603.0</ele><time>2026-04-12T09:15:51.263Z</time></trkpt><trkpt lat="45.6803736" lon="10.1238483"><ele>602.5</ele><time>2026-04-12T09:15:52.268Z</time></trkpt><trkpt lat="45.6804982" lon="10.1238472"><ele>602.0</ele><time>2026-04-12T09:15:53.26Z</time></trkpt><trkpt lat="45.6806304" lon="10.1238535"><ele>601.5</ele><time>2026-04-12T09:15:54.257Z</time></trkpt><trkpt lat="45.6807587" lon="10.1238723"><ele>601.0</ele><time>2026-04-12T09:15:55.256Z</time></trkpt><trkpt lat="45.6809727" lon="10.1239456"><ele>601.0</ele><time>2026-04-12T09:15:57.26Z</time></trkpt><trkpt lat="45.6810575" lon="10.1240061"><ele>601.0</ele><time>2026-04-12T09:15:58.262Z</time></trkpt><trkpt lat="45.6811376" lon="10.1240722"><ele>601.0</ele><time>2026-04-12T09:15:59.261Z</time></trkpt><trkpt lat="45.6812153" lon="10.1241234"><ele>601.0</ele><time>2026-04-12T09:16:00.258Z</time></trkpt><trkpt lat="45.6812985" lon="10.1241305"><ele>601.0</ele><time>2026-04-12T09:16:01.26Z</time></trkpt><trkpt lat="45.6813856" lon="10.1240915"><ele>601.0</ele><time>2026-04-12T09:16:02.26Z</time></trkpt><trkpt lat="45.6814782" lon="10.1240343"><ele>598.75</ele><time>2026-04-12T09:16:03.261Z</time></trkpt><trkpt lat="45.6815853" lon="10.1239897"><ele>596.5</ele><time>2026-04-12T09:16:04.261Z</time></trkpt><trkpt lat="45.6817019" lon="10.1239645"><ele>594.25</ele><time>2026-04-12T09:16:05.264Z</time></trkpt><trkpt lat="45.681817" lon="10.1239415"><ele>592.0</ele><time>2026-04-12T09:16:06.258Z</time></trkpt><trkpt lat="45.6819289" lon="10.1239362"><ele>593.6</ele><time>2026-04-12T09:16:07.262Z</time></trkpt><trkpt lat="45.6820487" lon="10.1239484"><ele>595.2</ele><time>2026-04-12T09:16:08.26Z</time></trkpt><trkpt lat="45.6821657" lon="10.1239587"><ele>596.8</ele><time>2026-04-12T09:16:09.26Z</time></trkpt><trkpt lat="45.6822733" lon="10.1239695"><ele>598.4</ele><time>2026-04-12T09:16:10.261Z</time></trkpt><trkpt lat="45.6823736" lon="10.1239886"><ele>600.0</ele><time>2026-04-12T09:16:11.264Z</time></trkpt><trkpt lat="45.6824667" lon="10.1240178"><ele>600.0</ele><time>2026-04-12T09:16:12.266Z</time></trkpt><trkpt lat="45.6825472" lon="10.124049"><ele>600.0</ele><time>2026-04-12T09:16:13.262Z</time></trkpt><trkpt lat="45.6826121" lon="10.1240765"><ele>600.0</ele><time>2026-04-12T09:16:14.262Z</time></trkpt><trkpt lat="45.6827146" lon="10.1240677"><ele>600.0</ele><time>2026-04-12T09:16:16.266Z</time></trkpt><trkpt lat="45.6827695" lon="10.1238245"><ele>600.0</ele><time>2026-04-12T09:16:19.261Z</time></trkpt><trkpt lat="45.6827645" lon="10.123706"><ele>601.8</ele><time>2026-04-12T09:16:20.26Z</time></trkpt><trkpt lat="45.6827743" lon="10.1235846"><ele>603.6</ele><time>2026-04-12T09:16:21.26Z</time></trkpt><trkpt lat="45.6827978" lon="10.1234751"><ele>605.4</ele><time>2026-04-12T09:16:22.26Z</time></trkpt><trkpt lat="45.6828288" lon="10.1233823"><ele>607.2</ele><time>2026-04-12T09:16:23.259Z</time></trkpt><trkpt lat="45.6828971" lon="10.1232547"><ele>609.0</ele><time>2026-04-12T09:16:25.258Z</time></trkpt><trkpt lat="45.6830147" lon="10.1231979"><ele>604.6666666666666</ele><time>2026-04-12T09:16:27.264Z</time></trkpt><trkpt lat="45.6830876" lon="10.12319"><ele>600.3333333333334</ele><time>2026-04-12T09:16:28.258Z</time></trkpt><trkpt lat="45.6831705" lon="10.1231815"><ele>596.0</ele><time>2026-04-12T09:16:29.26Z</time></trkpt><trkpt lat="45.683255" lon="10.1231756"><ele>591.6666666666667</ele><time>2026-04-12T09:16:30.256Z</time></trkpt><trkpt lat="45.6833455" lon="10.1231682"><ele>587.3333333333334</ele><time>2026-04-12T09:16:31.26Z</time></trkpt><trkpt lat="45.6834378" lon="10.1231728"><ele>583.0</ele><time>2026-04-12T09:16:32.259Z</time></trkpt><trkpt lat="45.6835278" lon="10.1231917"><ele>582.0</ele><time>2026-04-12T09:16:33.264Z</time></trkpt><trkpt lat="45.6836193" lon="10.1232191"><ele>581.0</ele><time>2026-04-12T09:16:34.258Z</time></trkpt><trkpt lat="45.6837111" lon="10.1232313"><ele>580.0</ele><time>2026-04-12T09:16:35.258Z</time></trkpt><trkpt lat="45.6838086" lon="10.1232278"><ele>579.0</ele><time>2026-04-12T09:16:36.264Z</time></trkpt><trkpt lat="45.6839149" lon="10.1232048"><ele>578.0</ele><time>2026-04-12T09:16:37.267Z</time></trkpt><trkpt lat="45.6841601" lon="10.1231516"><ele>578.0</ele><time>2026-04-12T09:16:39.262Z</time></trkpt><trkpt lat="45.6842834" lon="10.1231349"><ele>578.0</ele><time>2026-04-12T09:16:40.264Z</time></trkpt><trkpt lat="45.6843953" lon="10.1231242"><ele>578.0</ele><time>2026-04-12T09:16:41.258Z</time></trkpt><trkpt lat="45.6844892" lon="10.123094"><ele>578.0</ele><time>2026-04-12T09:16:42.253Z</time></trkpt><trkpt lat="45.6845559" lon="10.1230379"><ele>578.0</ele><time>2026-04-12T09:16:43.253Z</time></trkpt><trkpt lat="45.6845963" lon="10.122953"><ele>577.3333333333333</ele><time>2026-04-12T09:16:44.262Z</time></trkpt><trkpt lat="45.6846309" lon="10.1228512"><ele>576.6666666666666</ele><time>2026-04-12T09:16:45.264Z</time></trkpt><trkpt lat="45.6846658" lon="10.1227482"><ele>576.0</ele><time>2026-04-12T09:16:46.257Z</time></trkpt><trkpt lat="45.6847137" lon="10.1226651"><ele>575.3333333333334</ele><time>2026-04-12T09:16:47.256Z</time></trkpt><trkpt lat="45.6847865" lon="10.1226168"><ele>574.6666666666667</ele><time>2026-04-12T09:16:48.255Z</time></trkpt><trkpt lat="45.6848806" lon="10.1225933"><ele>574.0</ele><time>2026-04-12T09:16:49.262Z</time></trkpt><trkpt lat="45.6849892" lon="10.1225847"><ele>574.0</ele><time>2026-04-12T09:16:50.257Z</time></trkpt><trkpt lat="45.6851007" lon="10.1225816"><ele>574.0</ele><time>2026-04-12T09:16:51.257Z</time></trkpt><trkpt lat="45.6852152" lon="10.1225907"><ele>574.0</ele><time>2026-04-12T09:16:52.262Z</time></trkpt><trkpt lat="45.685327" lon="10.1225921"><ele>574.0</ele><time>2026-04-12T09:16:53.262Z</time></trkpt><trkpt lat="45.6854336" lon="10.1225877"><ele>574.0</ele><time>2026-04-12T09:16:54.259Z</time></trkpt><trkpt lat="45.6855408" lon="10.1225831"><ele>573.75</ele><time>2026-04-12T09:16:55.265Z</time></trkpt><trkpt lat="45.6856449" lon="10.1225607"><ele>573.5</ele><time>2026-04-12T09:16:56.259Z</time></trkpt><trkpt lat="45.68575" lon="10.1225102"><ele>573.25</ele><time>2026-04-12T09:16:57.259Z</time></trkpt><trkpt lat="45.6858587" lon="10.1224384"><ele>573.0</ele><time>2026-04-12T09:16:58.262Z</time></trkpt><trkpt lat="45.6860758" lon="10.1222698"><ele>568.5</ele><time>2026-04-12T09:17:00.255Z</time></trkpt><trkpt lat="45.6861825" lon="10.1221746"><ele>564.0</ele><time>2026-04-12T09:17:01.257Z</time></trkpt><trkpt lat="45.6862873" lon="10.1220723"><ele>559.5</ele><time>2026-04-12T09:17:02.262Z</time></trkpt><trkpt lat="45.6863903" lon="10.121976"><ele>555.0</ele><time>2026-04-12T09:17:03.26Z</time></trkpt><trkpt lat="45.6864853" lon="10.1218912"><ele>555.0</ele><time>2026-04-12T09:17:04.254Z</time></trkpt><trkpt lat="45.6865693" lon="10.1218005"><ele>555.0</ele><time>2026-04-12T09:17:05.259Z</time></trkpt><trkpt lat="45.6866398" lon="10.1217006"><ele>555.0</ele><time>2026-04-12T09:17:06.258Z</time></trkpt><trkpt lat="45.686697" lon="10.1215894"><ele>555.0</ele><time>2026-04-12T09:17:07.258Z</time></trkpt><trkpt lat="45.6867391" lon="10.1214686"><ele>555.0</ele><time>2026-04-12T09:17:08.254Z</time></trkpt><trkpt lat="45.6867784" lon="10.1213526"><ele>552.5</ele><time>2026-04-12T09:17:09.255Z</time></trkpt><trkpt lat="45.6868231" lon="10.1212512"><ele>550.0</ele><time>2026-04-12T09:17:10.253Z</time></trkpt><trkpt lat="45.6868854" lon="10.1211811"><ele>547.5</ele><time>2026-04-12T09:17:11.26Z</time></trkpt><trkpt lat="45.6869626" lon="10.121158"><ele>545.0</ele><time>2026-04-12T09:17:12.256Z</time></trkpt><trkpt lat="45.6870391" lon="10.1211829"><ele>542.5</ele><time>2026-04-12T09:17:13.261Z</time></trkpt><trkpt lat="45.687121" lon="10.1212422"><ele>540.0</ele><time>2026-04-12T09:17:14.256Z</time></trkpt><trkpt lat="45.6872148" lon="10.1212992"><ele>538.8</ele><time>2026-04-12T09:17:15.256Z</time></trkpt><trkpt lat="45.6873162" lon="10.1213252"><ele>537.6</ele><time>2026-04-12T09:17:16.26Z</time></trkpt><trkpt lat="45.6874171" lon="10.1213185"><ele>536.4</ele><time>2026-04-12T09:17:17.261Z</time></trkpt><trkpt lat="45.687509" lon="10.1212796"><ele>535.2</ele><time>2026-04-12T09:17:18.258Z</time></trkpt><trkpt lat="45.6876039" lon="10.1212308"><ele>534.0</ele><time>2026-04-12T09:17:19.256Z</time></trkpt><trkpt lat="45.6878033" lon="10.1211298"><ele>534.0</ele><time>2026-04-12T09:17:21.257Z</time></trkpt><trkpt lat="45.6878998" lon="10.1210977"><ele>534.0</ele><time>2026-04-12T09:17:22.255Z</time></trkpt><trkpt lat="45.6879883" lon="10.121079"><ele>534.0</ele><time>2026-04-12T09:17:23.258Z</time></trkpt><trkpt lat="45.6880718" lon="10.1210889"><ele>534.0</ele><time>2026-04-12T09:17:24.268Z</time></trkpt><trkpt lat="45.6881512" lon="10.1211252"><ele>534.0</ele><time>2026-04-12T09:17:25.258Z</time></trkpt><trkpt lat="45.6882243" lon="10.1211683"><ele>534.0</ele><time>2026-04-12T09:17:26.255Z</time></trkpt><trkpt lat="45.6882936" lon="10.1211902"><ele>534.0</ele><time>2026-04-12T09:17:27.258Z</time></trkpt><trkpt lat="45.6883655" lon="10.1211616"><ele>534.0</ele><time>2026-04-12T09:17:28.256Z</time></trkpt><trkpt lat="45.6884277" lon="10.1210907"><ele>534.0</ele><time>2026-04-12T09:17:29.256Z</time></trkpt><trkpt lat="45.6884691" lon="10.1209915"><ele>534.0</ele><time>2026-04-12T09:17:30.259Z</time></trkpt><trkpt lat="45.6885029" lon="10.1208762"><ele>534.0</ele><time>2026-04-12T09:17:31.257Z</time></trkpt><trkpt lat="45.6885515" lon="10.1207735"><ele>534.0</ele><time>2026-04-12T09:17:32.258Z</time></trkpt><trkpt lat="45.688615" lon="10.1206866"><ele>531.6666666666666</ele><time>2026-04-12T09:17:33.256Z</time></trkpt><trkpt lat="45.6886874" lon="10.1206223"><ele>529.3333333333334</ele><time>2026-04-12T09:17:34.261Z</time></trkpt><trkpt lat="45.6887676" lon="10.1205623"><ele>527.0</ele><time>2026-04-12T09:17:35.257Z</time></trkpt><trkpt lat="45.6888473" lon="10.1205033"><ele>524.6666666666667</ele><time>2026-04-12T09:17:36.259Z</time></trkpt><trkpt lat="45.6889263" lon="10.1204528"><ele>522.3333333333334</ele><time>2026-04-12T09:17:37.259Z</time></trkpt><trkpt lat="45.6890006" lon="10.1204151"><ele>520.0</ele><time>2026-04-12T09:17:38.258Z</time></trkpt><trkpt lat="45.6890806" lon="10.1203912"><ele>520.0</ele><time>2026-04-12T09:17:39.258Z</time></trkpt><trkpt lat="45.6891739" lon="10.1203838"><ele>520.0</ele><time>2026-04-12T09:17:40.258Z</time></trkpt><trkpt lat="45.6893924" lon="10.1204031"><ele>520.0</ele><time>2026-04-12T09:17:42.263Z</time></trkpt><trkpt lat="45.6895042" lon="10.1204148"><ele>520.0</ele><time>2026-04-12T09:17:43.267Z</time></trkpt><trkpt lat="45.6896135" lon="10.1204196"><ele>519.4</ele><time>2026-04-12T09:17:44.26Z</time></trkpt><trkpt lat="45.6897175" lon="10.1204095"><ele>518.8</ele><time>2026-04-12T09:17:45.26Z</time></trkpt><trkpt lat="45.689817" lon="10.1203742"><ele>518.2</ele><time>2026-04-12T09:17:46.257Z</time></trkpt><trkpt lat="45.6899033" lon="10.1203066"><ele>517.6</ele><time>2026-04-12T09:17:47.256Z</time></trkpt><trkpt lat="45.6899688" lon="10.1202223"><ele>517.0</ele><time>2026-04-12T09:17:48.264Z</time></trkpt><trkpt lat="45.69002" lon="10.1201306"><ele>517.0</ele><time>2026-04-12T09:17:49.255Z</time></trkpt><trkpt lat="45.6900628" lon="10.1200491"><ele>517.0</ele><time>2026-04-12T09:17:50.261Z</time></trkpt><trkpt lat="45.6901454" lon="10.1199489"><ele>517.0</ele><time>2026-04-12T09:17:52.26Z</time></trkpt><trkpt lat="45.6902306" lon="10.1199348"><ele>517.0</ele><time>2026-04-12T09:17:54.263Z</time></trkpt><trkpt lat="45.6903087" lon="10.119927"><ele>517.0</ele><time>2026-04-12T09:17:56.262Z</time></trkpt><trkpt lat="45.6903743" lon="10.1198873"><ele>517.0</ele><time>2026-04-12T09:18:00.26Z</time></trkpt><trkpt lat="45.6903078" lon="10.1198314"><ele>512.4</ele><time>2026-04-12T09:18:33.262Z</time></trkpt><trkpt lat="45.6901481" lon="10.1197479"><ele>507.80000000000007</ele><time>2026-04-12T09:18:36.255Z</time></trkpt><trkpt lat="45.6900831" lon="10.1197135"><ele>503.2</ele><time>2026-04-12T09:18:37.257Z</time></trkpt><trkpt lat="45.6900163" lon="10.1196852"><ele>498.6</ele><time>2026-04-12T09:18:38.255Z</time></trkpt><trkpt lat="45.689911" lon="10.1196428"><ele>494.0</ele><time>2026-04-12T09:18:40.257Z</time></trkpt><trkpt lat="45.6898522" lon="10.119608"><ele>494.0</ele><time>2026-04-12T09:18:42.258Z</time></trkpt><trkpt lat="45.6898705" lon="10.1195148"><ele>494.0</ele><time>2026-04-12T09:18:46.263Z</time></trkpt><trkpt lat="45.689938" lon="10.1195102"><ele>494.0</ele><time>2026-04-12T09:19:10.261Z</time></trkpt><trkpt lat="45.6902421" lon="10.1194283"><ele>494.0</ele><time>2026-04-12T09:19:50.285Z</time></trkpt><trkpt lat="45.690354" lon="10.1194012"><ele>493.2</ele><time>2026-04-12T09:19:51.283Z</time></trkpt><trkpt lat="45.6904626" lon="10.1193743"><ele>492.4</ele><time>2026-04-12T09:19:52.27Z</time></trkpt><trkpt lat="45.6905624" lon="10.1193418"><ele>491.6</ele><time>2026-04-12T09:19:53.274Z</time></trkpt><trkpt lat="45.6906538" lon="10.1193003"><ele>490.8</ele><time>2026-04-12T09:19:54.266Z</time></trkpt><trkpt lat="45.6907314" lon="10.1192502"><ele>490.0</ele><time>2026-04-12T09:19:55.263Z</time></trkpt><trkpt lat="45.6907985" lon="10.1191962"><ele>490.00000000000006</ele><time>2026-04-12T09:19:56.258Z</time></trkpt><trkpt lat="45.6908537" lon="10.1191506"><ele>490.0</ele><time>2026-04-12T09:19:57.268Z</time></trkpt><trkpt lat="45.690957" lon="10.1190898"><ele>490.0</ele><time>2026-04-12T09:19:59.266Z</time></trkpt><trkpt lat="45.69106" lon="10.1190687"><ele>490.0</ele><time>2026-04-12T09:20:01.26Z</time></trkpt><trkpt lat="45.6911215" lon="10.1190487"><ele>490.00000000000006</ele><time>2026-04-12T09:20:02.266Z</time></trkpt><trkpt lat="45.6911919" lon="10.1190245"><ele>490.0</ele><time>2026-04-12T09:20:03.261Z</time></trkpt><trkpt lat="45.6912658" lon="10.1189935"><ele>486.1666666666667</ele><time>2026-04-12T09:20:04.254Z</time></trkpt><trkpt lat="45.6913433" lon="10.118963"><ele>482.33333333333337</ele><time>2026-04-12T09:20:05.267Z</time></trkpt><trkpt lat="45.6914196" lon="10.1189316"><ele>478.5</ele><time>2026-04-12T09:20:06.26Z</time></trkpt><trkpt lat="45.6914898" lon="10.1189015"><ele>474.66666666666663</ele><time>2026-04-12T09:20:07.254Z</time></trkpt><trkpt lat="45.6915589" lon="10.1188799"><ele>470.8333333333333</ele><time>2026-04-12T09:20:08.263Z</time></trkpt><trkpt lat="45.691629" lon="10.118876"><ele>467.0</ele><time>2026-04-12T09:20:09.257Z</time></trkpt><trkpt lat="45.6917783" lon="10.1188776"><ele>466.99999999999994</ele><time>2026-04-12T09:20:11.266Z</time></trkpt><trkpt lat="45.6918509" lon="10.1188578"><ele>467.0</ele><time>2026-04-12T09:20:12.26Z</time></trkpt><trkpt lat="45.6919127" lon="10.1188182"><ele>466.99999999999994</ele><time>2026-04-12T09:20:13.259Z</time></trkpt><trkpt lat="45.6919623" lon="10.1187605"><ele>466.99999999999994</ele><time>2026-04-12T09:20:14.264Z</time></trkpt><trkpt lat="45.6920059" lon="10.1186861"><ele>467.0</ele><time>2026-04-12T09:20:15.268Z</time></trkpt><trkpt lat="45.6920508" lon="10.1186087"><ele>466.99999999999994</ele><time>2026-04-12T09:20:16.268Z</time></trkpt><trkpt lat="45.692095" lon="10.1185327"><ele>466.99999999999994</ele><time>2026-04-12T09:20:17.263Z</time></trkpt><trkpt lat="45.6921356" lon="10.118453"><ele>466.8</ele><time>2026-04-12T09:20:18.276Z</time></trkpt><trkpt lat="45.6921881" lon="10.1183218"><ele>466.6</ele><time>2026-04-12T09:20:20.264Z</time></trkpt><trkpt lat="45.692242" lon="10.118209"><ele>466.40000000000003</ele><time>2026-04-12T09:20:22.266Z</time></trkpt><trkpt lat="45.6923269" lon="10.1181218"><ele>466.20000000000005</ele><time>2026-04-12T09:20:24.264Z</time></trkpt><trkpt lat="45.692431" lon="10.1180614"><ele>466.0</ele><time>2026-04-12T09:20:26.269Z</time></trkpt><trkpt lat="45.6925305" lon="10.118033"><ele>461.5</ele><time>2026-04-12T09:20:28.268Z</time></trkpt><trkpt lat="45.6926204" lon="10.1179817"><ele>457.0</ele><time>2026-04-12T09:20:30.268Z</time></trkpt><trkpt lat="45.6928092" lon="10.1178619"><ele>452.5</ele><time>2026-04-12T09:20:34.259Z</time></trkpt><trkpt lat="45.692923" lon="10.1178254"><ele>448.0</ele><time>2026-04-12T09:20:36.261Z</time></trkpt><trkpt lat="45.6929946" lon="10.11779"><ele>447.2</ele><time>2026-04-12T09:20:37.261Z</time></trkpt><trkpt lat="45.6930727" lon="10.1177271"><ele>446.4</ele><time>2026-04-12T09:20:38.264Z</time></trkpt><trkpt lat="45.6931434" lon="10.1176475"><ele>445.59999999999997</ele><time>2026-04-12T09:20:39.258Z</time></trkpt><trkpt lat="45.6931926" lon="10.1175681"><ele>444.79999999999995</ele><time>2026-04-12T09:20:40.267Z</time></trkpt><trkpt lat="45.6932831" lon="10.1174835"><ele>444.0</ele><time>2026-04-12T09:20:42.267Z</time></trkpt><trkpt lat="45.6934008" lon="10.1175022"><ele>444.0</ele><time>2026-04-12T09:20:44.265Z</time></trkpt><trkpt lat="45.6934783" lon="10.1175078"><ele>444.0</ele><time>2026-04-12T09:20:45.278Z</time></trkpt><trkpt lat="45.6935733" lon="10.1175219"><ele>444.0</ele><time>2026-04-12T09:20:46.263Z</time></trkpt><trkpt lat="45.693675" lon="10.1175384"><ele>444.0</ele><time>2026-04-12T09:20:47.269Z</time></trkpt><trkpt lat="45.6937767" lon="10.1175514"><ele>444.0</ele><time>2026-04-12T09:20:48.267Z</time></trkpt><trkpt lat="45.6938825" lon="10.117558"><ele>440.75</ele><time>2026-04-12T09:20:49.266Z</time></trkpt><trkpt lat="45.6939863" lon="10.1175492"><ele>437.5</ele><time>2026-04-12T09:20:50.267Z</time></trkpt><trkpt lat="45.694084" lon="10.1175244"><ele>434.25</ele><time>2026-04-12T09:20:51.274Z</time></trkpt><trkpt lat="45.6942349" lon="10.117439"><ele>431.0</ele><time>2026-04-12T09:20:53.266Z</time></trkpt><trkpt lat="45.6943436" lon="10.1173968"><ele>426.3333333333333</ele><time>2026-04-12T09:20:55.282Z</time></trkpt><trkpt lat="45.6944718" lon="10.1173724"><ele>421.66666666666663</ele><time>2026-04-12T09:20:57.272Z</time></trkpt><trkpt lat="45.6945472" lon="10.1173392"><ele>417.0</ele><time>2026-04-12T09:20:58.271Z</time></trkpt><trkpt lat="45.6946251" lon="10.1172997"><ele>412.33333333333337</ele><time>2026-04-12T09:20:59.277Z</time></trkpt><trkpt lat="45.6946991" lon="10.1172664"><ele>407.6666666666667</ele><time>2026-04-12T09:21:00.267Z</time></trkpt><trkpt lat="45.6947726" lon="10.1172542"><ele>403.0</ele><time>2026-04-12T09:21:01.273Z</time></trkpt><trkpt lat="45.694889" lon="10.1172709"><ele>403.00000000000006</ele><time>2026-04-12T09:21:03.269Z</time></trkpt><trkpt lat="45.694935" lon="10.1172084"><ele>403.0</ele><time>2026-04-12T09:21:05.271Z</time></trkpt><trkpt lat="45.6949029" lon="10.1170969"><ele>403.0</ele><time>2026-04-12T09:21:07.274Z</time></trkpt><trkpt lat="45.6948154" lon="10.1170003"><ele>403.0</ele><time>2026-04-12T09:21:09.267Z</time></trkpt><trkpt lat="45.6947457" lon="10.1169433"><ele>403.00000000000006</ele><time>2026-04-12T09:21:10.263Z</time></trkpt><trkpt lat="45.6946677" lon="10.116887"><ele>403.0</ele><time>2026-04-12T09:21:11.276Z</time></trkpt><trkpt lat="45.694588" lon="10.1168336"><ele>403.0</ele><time>2026-04-12T09:21:12.273Z</time></trkpt><trkpt lat="45.6944351" lon="10.1167223"><ele>403.0</ele><time>2026-04-12T09:21:14.271Z</time></trkpt><trkpt lat="45.6943661" lon="10.1166437"><ele>403.0</ele><time>2026-04-12T09:21:15.266Z</time></trkpt><trkpt lat="45.6943019" lon="10.1165523"><ele>403.0</ele><time>2026-04-12T09:21:16.263Z</time></trkpt><trkpt lat="45.6942309" lon="10.1164492"><ele>399.4</ele><time>2026-04-12T09:21:17.276Z</time></trkpt><trkpt lat="45.6941535" lon="10.1163444"><ele>395.79999999999995</ele><time>2026-04-12T09:21:18.267Z</time></trkpt><trkpt lat="45.6940735" lon="10.116238"><ele>392.2</ele><time>2026-04-12T09:21:19.271Z</time></trkpt><trkpt lat="45.6940005" lon="10.1161345"><ele>388.6</ele><time>2026-04-12T09:21:20.27Z</time></trkpt><trkpt lat="45.6939428" lon="10.1160346"><ele>385.0</ele><time>2026-04-12T09:21:21.268Z</time></trkpt><trkpt lat="45.6938992" lon="10.1159335"><ele>385.00000000000006</ele><time>2026-04-12T09:21:22.268Z</time></trkpt><trkpt lat="45.6938679" lon="10.1158369"><ele>385.0</ele><time>2026-04-12T09:21:23.262Z</time></trkpt><trkpt lat="45.6938474" lon="10.1157351"><ele>385.0</ele><time>2026-04-12T09:21:24.264Z</time></trkpt><trkpt lat="45.6938234" lon="10.1156175"><ele>385.0</ele><time>2026-04-12T09:21:25.268Z</time></trkpt><trkpt lat="45.6937933" lon="10.1154853"><ele>385.00000000000006</ele><time>2026-04-12T09:21:26.268Z</time></trkpt><trkpt lat="45.6937662" lon="10.1153579"><ele>385.0</ele><time>2026-04-12T09:21:27.262Z</time></trkpt><trkpt lat="45.6937347" lon="10.1152337"><ele>385.00000000000006</ele><time>2026-04-12T09:21:28.276Z</time></trkpt><trkpt lat="45.6936934" lon="10.1151307"><ele>385.0</ele><time>2026-04-12T09:21:29.265Z</time></trkpt><trkpt lat="45.6936356" lon="10.115052"><ele>385.0</ele><time>2026-04-12T09:21:30.271Z</time></trkpt><trkpt lat="45.693562" lon="10.1149821"><ele>385.0</ele><time>2026-04-12T09:21:31.261Z</time></trkpt><trkpt lat="45.6934952" lon="10.1148972"><ele>385.00000000000006</ele><time>2026-04-12T09:21:32.265Z</time></trkpt><trkpt lat="45.6934412" lon="10.1148026"><ele>385.0</ele><time>2026-04-12T09:21:33.266Z</time></trkpt><trkpt lat="45.6933266" lon="10.1146302"><ele>382.33333333333337</ele><time>2026-04-12T09:21:35.273Z</time></trkpt><trkpt lat="45.6932567" lon="10.1145582"><ele>379.6666666666667</ele><time>2026-04-12T09:21:36.258Z</time></trkpt><trkpt lat="45.6931824" lon="10.114495"><ele>377.0</ele><time>2026-04-12T09:21:37.275Z</time></trkpt><trkpt lat="45.693106" lon="10.1144393"><ele>374.33333333333337</ele><time>2026-04-12T09:21:38.271Z</time></trkpt><trkpt lat="45.6930282" lon="10.1143801"><ele>371.6666666666667</ele><time>2026-04-12T09:21:39.275Z</time></trkpt><trkpt lat="45.6929547" lon="10.1143172"><ele>369.0</ele><time>2026-04-12T09:21:40.265Z</time></trkpt><trkpt lat="45.6928899" lon="10.1142586"><ele>369.0</ele><time>2026-04-12T09:21:41.263Z</time></trkpt><trkpt lat="45.6928371" lon="10.1141907"><ele>369.0</ele><time>2026-04-12T09:21:42.267Z</time></trkpt><trkpt lat="45.6928028" lon="10.1141136"><ele>369.0</ele><time>2026-04-12T09:21:43.264Z</time></trkpt><trkpt lat="45.6927934" lon="10.1139514"><ele>369.0</ele><time>2026-04-12T09:21:45.263Z</time></trkpt><trkpt lat="45.6928433" lon="10.1138222"><ele>369.0</ele><time>2026-04-12T09:21:47.263Z</time></trkpt><trkpt lat="45.6929461" lon="10.1138016"><ele>366.5</ele><time>2026-04-12T09:21:49.269Z</time></trkpt><trkpt lat="45.6930087" lon="10.1138198"><ele>364.0</ele><time>2026-04-12T09:21:50.271Z</time></trkpt><trkpt lat="45.693078" lon="10.1138167"><ele>361.5</ele><time>2026-04-12T09:21:51.265Z</time></trkpt><trkpt lat="45.6931491" lon="10.1137952"><ele>359.0</ele><time>2026-04-12T09:21:52.261Z</time></trkpt><trkpt lat="45.6932151" lon="10.113758"><ele>356.5</ele><time>2026-04-12T09:21:53.26Z</time></trkpt><trkpt lat="45.6932768" lon="10.1137006"><ele>354.0</ele><time>2026-04-12T09:21:54.275Z</time></trkpt><trkpt lat="45.6933948" lon="10.1135654"><ele>354.0</ele><time>2026-04-12T09:21:56.261Z</time></trkpt><trkpt lat="45.6934503" lon="10.1134934"><ele>354.0</ele><time>2026-04-12T09:21:57.269Z</time></trkpt><trkpt lat="45.6935093" lon="10.1134212"><ele>354.0</ele><time>2026-04-12T09:21:58.268Z</time></trkpt><trkpt lat="45.6935719" lon="10.1133485"><ele>354.0</ele><time>2026-04-12T09:21:59.274Z</time></trkpt><trkpt lat="45.693639" lon="10.1132892"><ele>354.0</ele><time>2026-04-12T09:22:00.263Z</time></trkpt><trkpt lat="45.6937048" lon="10.1132554"><ele>354.0</ele><time>2026-04-12T09:22:01.267Z</time></trkpt><trkpt lat="45.6937676" lon="10.1132113"><ele>349.8333333333333</ele><time>2026-04-12T09:22:02.27Z</time></trkpt><trkpt lat="45.69383" lon="10.1131624"><ele>345.6666666666667</ele><time>2026-04-12T09:22:03.259Z</time></trkpt><trkpt lat="45.6938947" lon="10.1131253"><ele>341.5</ele><time>2026-04-12T09:22:04.272Z</time></trkpt><trkpt lat="45.6939651" lon="10.1130979"><ele>337.33333333333337</ele><time>2026-04-12T09:22:05.266Z</time></trkpt><trkpt lat="45.6940412" lon="10.1130733"><ele>333.1666666666667</ele><time>2026-04-12T09:22:06.266Z</time></trkpt><trkpt lat="45.6941245" lon="10.1130431"><ele>329.0</ele><time>2026-04-12T09:22:07.262Z</time></trkpt><trkpt lat="45.6942103" lon="10.1130171"><ele>329.0</ele><time>2026-04-12T09:22:08.268Z</time></trkpt><trkpt lat="45.6942971" lon="10.1129988"><ele>329.0</ele><time>2026-04-12T09:22:09.269Z</time></trkpt><trkpt lat="45.6943869" lon="10.1130004"><ele>329.0</ele><time>2026-04-12T09:22:10.277Z</time></trkpt><trkpt lat="45.6944698" lon="10.1130191"><ele>329.0</ele><time>2026-04-12T09:22:11.266Z</time></trkpt><trkpt lat="45.6945529" lon="10.11306"><ele>329.0</ele><time>2026-04-12T09:22:12.268Z</time></trkpt><trkpt lat="45.6946354" lon="10.1131008"><ele>329.0</ele><time>2026-04-12T09:22:13.262Z</time></trkpt><trkpt lat="45.694714" lon="10.1131489"><ele>329.75</ele><time>2026-04-12T09:22:14.267Z</time></trkpt><trkpt lat="45.6948004" lon="10.1131986"><ele>330.5</ele><time>2026-04-12T09:22:15.272Z</time></trkpt><trkpt lat="45.6949496" lon="10.1132549"><ele>331.25</ele><time>2026-04-12T09:22:17.278Z</time></trkpt><trkpt lat="45.6950634" lon="10.1132369"><ele>332.0</ele><time>2026-04-12T09:22:19.27Z</time></trkpt><trkpt lat="45.6951349" lon="10.1131459"><ele>330.40000000000003</ele><time>2026-04-12T09:22:21.287Z</time></trkpt><trkpt lat="45.6951443" lon="10.1129939"><ele>328.8</ele><time>2026-04-12T09:22:23.263Z</time></trkpt><trkpt lat="45.6950851" lon="10.112849"><ele>327.2</ele><time>2026-04-12T09:22:25.264Z</time></trkpt><trkpt lat="45.695002" lon="10.1127353"><ele>325.6</ele><time>2026-04-12T09:22:27.267Z</time></trkpt><trkpt lat="45.6949818" lon="10.1126405"><ele>324.0</ele><time>2026-04-12T09:22:29.265Z</time></trkpt><trkpt lat="45.6950034" lon="10.1125532"><ele>324.0</ele><time>2026-04-12T09:22:32.275Z</time></trkpt><trkpt lat="45.6950726" lon="10.112493"><ele>324.0</ele><time>2026-04-12T09:23:56.259Z</time></trkpt><trkpt lat="45.69528" lon="10.1124572"><ele>324.0</ele><time>2026-04-12T09:23:59.273Z</time></trkpt><trkpt lat="45.6953699" lon="10.1124399"><ele>324.0</ele><time>2026-04-12T09:24:00.272Z</time></trkpt><trkpt lat="45.6954523" lon="10.1124335"><ele>323.42857142857144</ele><time>2026-04-12T09:24:01.268Z</time></trkpt><trkpt lat="45.6955341" lon="10.1124427"><ele>322.85714285714283</ele><time>2026-04-12T09:24:02.279Z</time></trkpt><trkpt lat="45.6956043" lon="10.1124655"><ele>322.2857142857143</ele><time>2026-04-12T09:24:03.285Z</time></trkpt><trkpt lat="45.6956698" lon="10.1124882"><ele>321.7142857142857</ele><time>2026-04-12T09:24:04.262Z</time></trkpt><trkpt lat="45.6957384" lon="10.1125159"><ele>321.14285714285717</ele><time>2026-04-12T09:24:05.283Z</time></trkpt><trkpt lat="45.6958114" lon="10.1125469"><ele>320.57142857142856</ele><time>2026-04-12T09:24:06.266Z</time></trkpt><trkpt lat="45.6958874" lon="10.112578"><ele>320.0</ele><time>2026-04-12T09:24:07.266Z</time></trkpt><trkpt lat="45.6959624" lon="10.1126089"><ele>320.0</ele><time>2026-04-12T09:24:08.278Z</time></trkpt><trkpt lat="45.6960378" lon="10.1126363"><ele>320.0</ele><time>2026-04-12T09:24:09.268Z</time></trkpt><trkpt lat="45.6961117" lon="10.112666"><ele>320.0</ele><time>2026-04-12T09:24:10.289Z</time></trkpt><trkpt lat="45.6961861" lon="10.1126982"><ele>320.0</ele><time>2026-04-12T09:24:11.27Z</time></trkpt><trkpt lat="45.696267" lon="10.1127291"><ele>320.0</ele><time>2026-04-12T09:24:12.267Z</time></trkpt><trkpt lat="45.6963535" lon="10.1127644"><ele>320.0</ele><time>2026-04-12T09:24:13.274Z</time></trkpt><trkpt lat="45.6964446" lon="10.1128028"><ele>316.5</ele><time>2026-04-12T09:24:14.264Z</time></trkpt><trkpt lat="45.6965431" lon="10.1128479"><ele>313.0</ele><time>2026-04-12T09:24:15.286Z</time></trkpt><trkpt lat="45.6966436" lon="10.1128768"><ele>309.5</ele><time>2026-04-12T09:24:16.267Z</time></trkpt><trkpt lat="45.6967515" lon="10.112887"><ele>306.0</ele><time>2026-04-12T09:24:17.27Z</time></trkpt><trkpt lat="45.696963" lon="10.1128588"><ele>303.6</ele><time>2026-04-12T09:24:19.27Z</time></trkpt><trkpt lat="45.6970694" lon="10.112853"><ele>301.20000000000005</ele><time>2026-04-12T09:24:20.268Z</time></trkpt><trkpt lat="45.6971823" lon="10.1128635"><ele>298.79999999999995</ele><time>2026-04-12T09:24:21.268Z</time></trkpt><trkpt lat="45.6972957" lon="10.1128821"><ele>296.4</ele><time>2026-04-12T09:24:22.284Z</time></trkpt><trkpt lat="45.6974105" lon="10.1129001"><ele>294.0</ele><time>2026-04-12T09:24:23.271Z</time></trkpt><trkpt lat="45.6975297" lon="10.1129159"><ele>294.0</ele><time>2026-04-12T09:24:24.269Z</time></trkpt><trkpt lat="45.6976454" lon="10.1129245"><ele>294.0</ele><time>2026-04-12T09:24:25.267Z</time></trkpt><trkpt lat="45.6977546" lon="10.1129237"><ele>294.0</ele><time>2026-04-12T09:24:26.266Z</time></trkpt><trkpt lat="45.6978564" lon="10.1129121"><ele>294.0</ele><time>2026-04-12T09:24:27.269Z</time></trkpt><trkpt lat="45.6979573" lon="10.1129036"><ele>294.0</ele><time>2026-04-12T09:24:28.26Z</time></trkpt><trkpt lat="45.6980592" lon="10.1129051"><ele>291.4</ele><time>2026-04-12T09:24:29.266Z</time></trkpt><trkpt lat="45.6981608" lon="10.1129181"><ele>288.79999999999995</ele><time>2026-04-12T09:24:30.265Z</time></trkpt><trkpt lat="45.6982613" lon="10.1129479"><ele>286.20000000000005</ele><time>2026-04-12T09:24:31.289Z</time></trkpt><trkpt lat="45.6983598" lon="10.1129929"><ele>283.6</ele><time>2026-04-12T09:24:32.274Z</time></trkpt><trkpt lat="45.698461" lon="10.1130452"><ele>281.0</ele><time>2026-04-12T09:24:33.261Z</time></trkpt><trkpt lat="45.6985604" lon="10.1130885"><ele>280.8</ele><time>2026-04-12T09:24:34.265Z</time></trkpt><trkpt lat="45.6986645" lon="10.1131331"><ele>280.6</ele><time>2026-04-12T09:24:35.267Z</time></trkpt><trkpt lat="45.6987682" lon="10.1131749"><ele>280.4</ele><time>2026-04-12T09:24:36.263Z</time></trkpt><trkpt lat="45.6988722" lon="10.1132179"><ele>280.2</ele><time>2026-04-12T09:24:37.272Z</time></trkpt><trkpt lat="45.6989763" lon="10.1132612"><ele>280.0</ele><time>2026-04-12T09:24:38.266Z</time></trkpt><trkpt lat="45.69918" lon="10.1133476"><ele>280.0</ele><time>2026-04-12T09:24:40.269Z</time></trkpt><trkpt lat="45.6992791" lon="10.1133913"><ele>280.0</ele><time>2026-04-12T09:24:41.264Z</time></trkpt><trkpt lat="45.6993788" lon="10.1134369"><ele>280.0</ele><time>2026-04-12T09:24:42.269Z</time></trkpt><trkpt lat="45.6994708" lon="10.1134843"><ele>280.0</ele><time>2026-04-12T09:24:43.267Z</time></trkpt><trkpt lat="45.69956" lon="10.1135263"><ele>280.0</ele><time>2026-04-12T09:24:44.266Z</time></trkpt><trkpt lat="45.6996473" lon="10.1135629"><ele>277.66666666666663</ele><time>2026-04-12T09:24:45.269Z</time></trkpt><trkpt lat="45.6997268" lon="10.1135979"><ele>275.3333333333333</ele><time>2026-04-12T09:24:46.263Z</time></trkpt><trkpt lat="45.6998054" lon="10.1136332"><ele>273.0</ele><time>2026-04-12T09:24:47.276Z</time></trkpt><trkpt lat="45.699883" lon="10.1136692"><ele>270.6666666666667</ele><time>2026-04-12T09:24:48.259Z</time></trkpt><trkpt lat="45.6999576" lon="10.1137093"><ele>268.33333333333337</ele><time>2026-04-12T09:24:49.277Z</time></trkpt><trkpt lat="45.7000322" lon="10.1137468"><ele>266.0</ele><time>2026-04-12T09:24:50.262Z</time></trkpt><trkpt lat="45.7001064" lon="10.1137794"><ele>266.0</ele><time>2026-04-12T09:24:51.262Z</time></trkpt><trkpt lat="45.7001832" lon="10.11381"><ele>266.0</ele><time>2026-04-12T09:24:52.268Z</time></trkpt><trkpt lat="45.7002569" lon="10.1138447"><ele>266.0</ele><time>2026-04-12T09:24:53.274Z</time></trkpt><trkpt lat="45.700328" lon="10.1138847"><ele>266.0</ele><time>2026-04-12T09:24:54.269Z</time></trkpt><trkpt lat="45.7004028" lon="10.1139293"><ele>266.0</ele><time>2026-04-12T09:24:55.269Z</time></trkpt><trkpt lat="45.7004832" lon="10.1139812"><ele>266.0</ele><time>2026-04-12T09:24:56.267Z</time></trkpt><trkpt lat="45.7005666" lon="10.1140298"><ele>266.0</ele><time>2026-04-12T09:24:57.267Z</time></trkpt><trkpt lat="45.7006537" lon="10.1140626"><ele>266.0</ele><time>2026-04-12T09:24:58.266Z</time></trkpt><trkpt lat="45.7007418" lon="10.1140759"><ele>266.0</ele><time>2026-04-12T09:24:59.267Z</time></trkpt><trkpt lat="45.7009219" lon="10.1140964"><ele>266.0</ele><time>2026-04-12T09:25:01.263Z</time></trkpt><trkpt lat="45.7010077" lon="10.114126"><ele>266.0</ele><time>2026-04-12T09:25:02.269Z</time></trkpt><trkpt lat="45.7010908" lon="10.114165"><ele>263.6</ele><time>2026-04-12T09:25:03.277Z</time></trkpt><trkpt lat="45.7011735" lon="10.1142097"><ele>261.20000000000005</ele><time>2026-04-12T09:25:04.261Z</time></trkpt><trkpt lat="45.701256" lon="10.1142537"><ele>258.79999999999995</ele><time>2026-04-12T09:25:05.265Z</time></trkpt><trkpt lat="45.7013397" lon="10.1142916"><ele>256.4</ele><time>2026-04-12T09:25:06.262Z</time></trkpt><trkpt lat="45.7014271" lon="10.1143327"><ele>254.0</ele><time>2026-04-12T09:25:07.261Z</time></trkpt><trkpt lat="45.7015126" lon="10.1143874"><ele>254.0</ele><time>2026-04-12T09:25:08.263Z</time></trkpt><trkpt lat="45.7015877" lon="10.1144617"><ele>253.99999999999997</ele><time>2026-04-12T09:25:09.265Z</time></trkpt><trkpt lat="45.7016591" lon="10.1145354"><ele>253.99999999999997</ele><time>2026-04-12T09:25:10.266Z</time></trkpt><trkpt lat="45.7017286" lon="10.1145795"><ele>254.0</ele><time>2026-04-12T09:25:11.267Z</time></trkpt><trkpt lat="45.7018397" lon="10.1145438"><ele>254.0</ele><time>2026-04-12T09:25:13.274Z</time></trkpt><trkpt lat="45.7018983" lon="10.114403"><ele>253.83333333333334</ele><time>2026-04-12T09:25:15.28Z</time></trkpt><trkpt lat="45.7019388" lon="10.1143142"><ele>253.66666666666669</ele><time>2026-04-12T09:25:16.277Z</time></trkpt><trkpt lat="45.7019776" lon="10.1142169"><ele>253.5</ele><time>2026-04-12T09:25:17.262Z</time></trkpt><trkpt lat="45.7020203" lon="10.1141137"><ele>253.33333333333331</ele><time>2026-04-12T09:25:18.276Z</time></trkpt><trkpt lat="45.7020608" lon="10.114003"><ele>253.16666666666666</ele><time>2026-04-12T09:25:19.261Z</time></trkpt><trkpt lat="45.7021058" lon="10.1138992"><ele>253.0</ele><time>2026-04-12T09:25:20.282Z</time></trkpt><trkpt lat="45.7022279" lon="10.1137114"><ele>250.8</ele><time>2026-04-12T09:25:22.275Z</time></trkpt><trkpt lat="45.7023056" lon="10.1136349"><ele>248.60000000000002</ele><time>2026-04-12T09:25:23.264Z</time></trkpt><trkpt lat="45.7023991" lon="10.1135814"><ele>246.39999999999998</ele><time>2026-04-12T09:25:24.281Z</time></trkpt><trkpt lat="45.7024943" lon="10.1135288"><ele>244.2</ele><time>2026-04-12T09:25:25.272Z</time></trkpt><trkpt lat="45.7025836" lon="10.1134806"><ele>242.0</ele><time>2026-04-12T09:25:26.263Z</time></trkpt><trkpt lat="45.7026778" lon="10.1134398"><ele>240.8</ele><time>2026-04-12T09:25:27.266Z</time></trkpt><trkpt lat="45.7027737" lon="10.1134154"><ele>239.6</ele><time>2026-04-12T09:25:28.266Z</time></trkpt><trkpt lat="45.702866" lon="10.1134167"><ele>238.40000000000003</ele><time>2026-04-12T09:25:29.266Z</time></trkpt><trkpt lat="45.7029588" lon="10.113447"><ele>237.20000000000002</ele><time>2026-04-12T09:25:30.269Z</time></trkpt><trkpt lat="45.7030601" lon="10.1134973"><ele>236.0</ele><time>2026-04-12T09:25:31.265Z</time></trkpt><trkpt lat="45.7031588" lon="10.1135636"><ele>236.0</ele><time>2026-04-12T09:25:32.263Z</time></trkpt><trkpt lat="45.7032583" lon="10.1136389"><ele>236.00000000000003</ele><time>2026-04-12T09:25:33.263Z</time></trkpt><trkpt lat="45.7033547" lon="10.1137202"><ele>236.00000000000003</ele><time>2026-04-12T09:25:34.265Z</time></trkpt><trkpt lat="45.7034484" lon="10.1137974"><ele>236.0</ele><time>2026-04-12T09:25:35.279Z</time></trkpt><trkpt lat="45.7035403" lon="10.1138611"><ele>236.0</ele><time>2026-04-12T09:25:36.258Z</time></trkpt><trkpt lat="45.7036291" lon="10.1139008"><ele>235.60000000000002</ele><time>2026-04-12T09:25:37.259Z</time></trkpt><trkpt lat="45.7037187" lon="10.1139067"><ele>235.20000000000002</ele><time>2026-04-12T09:25:38.268Z</time></trkpt><trkpt lat="45.7038078" lon="10.1138857"><ele>234.79999999999998</ele><time>2026-04-12T09:25:39.275Z</time></trkpt><trkpt lat="45.7038846" lon="10.113847"><ele>234.39999999999998</ele><time>2026-04-12T09:25:40.272Z</time></trkpt><trkpt lat="45.7039703" lon="10.1138103"><ele>234.0</ele><time>2026-04-12T09:25:41.268Z</time></trkpt><trkpt lat="45.7041691" lon="10.1137339"><ele>234.0</ele><time>2026-04-12T09:25:43.27Z</time></trkpt><trkpt lat="45.7042766" lon="10.1137076"><ele>234.0</ele><time>2026-04-12T09:25:44.265Z</time></trkpt><trkpt lat="45.704389" lon="10.1137028"><ele>234.0</ele><time>2026-04-12T09:25:45.263Z</time></trkpt><trkpt lat="45.7045012" lon="10.1137102"><ele>234.0</ele><time>2026-04-12T09:25:46.262Z</time></trkpt><trkpt lat="45.7046168" lon="10.1137192"><ele>233.2</ele><time>2026-04-12T09:25:47.265Z</time></trkpt><trkpt lat="45.7047324" lon="10.1137203"><ele>232.39999999999998</ele><time>2026-04-12T09:25:48.277Z</time></trkpt><trkpt lat="45.704844" lon="10.1137151"><ele>231.6</ele><time>2026-04-12T09:25:49.277Z</time></trkpt><trkpt lat="45.7049495" lon="10.1136965"><ele>230.8</ele><time>2026-04-12T09:25:50.274Z</time></trkpt><trkpt lat="45.7050522" lon="10.113665"><ele>230.0</ele><time>2026-04-12T09:25:51.262Z</time></trkpt><trkpt lat="45.7051523" lon="10.113615"><ele>229.8</ele><time>2026-04-12T09:25:52.275Z</time></trkpt><trkpt lat="45.7052526" lon="10.1135705"><ele>229.6</ele><time>2026-04-12T09:25:53.265Z</time></trkpt><trkpt lat="45.7053484" lon="10.1135292"><ele>229.39999999999998</ele><time>2026-04-12T09:25:54.268Z</time></trkpt><trkpt lat="45.70544" lon="10.1134957"><ele>229.2</ele><time>2026-04-12T09:25:55.269Z</time></trkpt><trkpt lat="45.7055304" lon="10.1134738"><ele>229.0</ele><time>2026-04-12T09:25:56.262Z</time></trkpt><trkpt lat="45.7056234" lon="10.1134684"><ele>229.0</ele><time>2026-04-12T09:25:57.269Z</time></trkpt><trkpt lat="45.7057252" lon="10.1134781"><ele>228.99999999999997</ele><time>2026-04-12T09:25:58.266Z</time></trkpt><trkpt lat="45.7058342" lon="10.1135021"><ele>228.99999999999997</ele><time>2026-04-12T09:25:59.262Z</time></trkpt><trkpt lat="45.7059481" lon="10.1135229"><ele>229.0</ele><time>2026-04-12T09:26:00.265Z</time></trkpt><trkpt lat="45.7060597" lon="10.1135289"><ele>229.0</ele><time>2026-04-12T09:26:01.266Z</time></trkpt><trkpt lat="45.7061731" lon="10.1135123"><ele>227.0</ele><time>2026-04-12T09:26:02.267Z</time></trkpt><trkpt lat="45.7063988" lon="10.1134422"><ele>225.0</ele><time>2026-04-12T09:26:04.269Z</time></trkpt><trkpt lat="45.7065094" lon="10.1134097"><ele>223.0</ele><time>2026-04-12T09:26:05.262Z</time></trkpt><trkpt lat="45.7066168" lon="10.1133815"><ele>223.0</ele><time>2026-04-12T09:26:06.264Z</time></trkpt><trkpt lat="45.7067179" lon="10.113358"><ele>223.0</ele><time>2026-04-12T09:26:07.268Z</time></trkpt><trkpt lat="45.7068015" lon="10.1133346"><ele>223.0</ele><time>2026-04-12T09:26:08.269Z</time></trkpt><trkpt lat="45.7068968" lon="10.1132767"><ele>223.0</ele><time>2026-04-12T09:26:10.267Z</time></trkpt><trkpt lat="45.7069484" lon="10.1133528"><ele>223.0</ele><time>2026-04-12T09:26:14.263Z</time></trkpt><trkpt lat="45.7068806" lon="10.1134405"><ele>222.99999999999997</ele><time>2026-04-12T09:26:16.263Z</time></trkpt><trkpt lat="45.7068159" lon="10.1134663"><ele>223.0</ele><time>2026-04-12T09:26:17.264Z</time></trkpt><trkpt lat="45.7067499" lon="10.113509"><ele>223.0</ele><time>2026-04-12T09:26:18.262Z</time></trkpt><trkpt lat="45.7066933" lon="10.1135775"><ele>223.0</ele><time>2026-04-12T09:26:19.261Z</time></trkpt><trkpt lat="45.7066495" lon="10.113682"><ele>222.99999999999997</ele><time>2026-04-12T09:26:20.264Z</time></trkpt><trkpt lat="45.7066226" lon="10.1138107"><ele>223.0</ele><time>2026-04-12T09:26:21.266Z</time></trkpt><trkpt lat="45.7066004" lon="10.1139449"><ele>223.0</ele><time>2026-04-12T09:26:22.257Z</time></trkpt><trkpt lat="45.706579" lon="10.1140688"><ele>223.0</ele><time>2026-04-12T09:26:23.256Z</time></trkpt><trkpt lat="45.7065069" lon="10.1142718"><ele>223.0</ele><time>2026-04-12T09:26:25.266Z</time></trkpt><trkpt lat="45.7064572" lon="10.1143588"><ele>223.0</ele><time>2026-04-12T09:26:26.262Z</time></trkpt><trkpt lat="45.7063978" lon="10.1144361"><ele>223.0</ele><time>2026-04-12T09:26:27.262Z</time></trkpt><trkpt lat="45.7063349" lon="10.1144973"><ele>224.33333333333331</ele><time>2026-04-12T09:26:28.263Z</time></trkpt><trkpt lat="45.7062736" lon="10.1145672"><ele>225.66666666666666</ele><time>2026-04-12T09:26:29.259Z</time></trkpt><trkpt lat="45.7062136" lon="10.1146447"><ele>227.0</ele><time>2026-04-12T09:26:30.26Z</time></trkpt><trkpt lat="45.7061648" lon="10.1147303"><ele>228.33333333333331</ele><time>2026-04-12T09:26:31.256Z</time></trkpt><trkpt lat="45.7061348" lon="10.1148304"><ele>229.66666666666666</ele><time>2026-04-12T09:26:32.261Z</time></trkpt><trkpt lat="45.7061173" lon="10.1149434"><ele>231.0</ele><time>2026-04-12T09:26:33.263Z</time></trkpt><trkpt lat="45.7060995" lon="10.1150705"><ele>232.33333333333334</ele><time>2026-04-12T09:26:34.259Z</time></trkpt><trkpt lat="45.70609" lon="10.1151957"><ele>233.66666666666669</ele><time>2026-04-12T09:26:35.261Z</time></trkpt><trkpt lat="45.7060684" lon="10.1153187"><ele>235.0</ele><time>2026-04-12T09:26:36.258Z</time></trkpt><trkpt lat="45.7060439" lon="10.1154317"><ele>236.33333333333334</ele><time>2026-04-12T09:26:37.265Z</time></trkpt><trkpt lat="45.7060055" lon="10.1155433"><ele>237.66666666666669</ele><time>2026-04-12T09:26:38.262Z</time></trkpt><trkpt lat="45.7059683" lon="10.1156533"><ele>239.0</ele><time>2026-04-12T09:26:39.265Z</time></trkpt><trkpt lat="45.7059335" lon="10.1157564"><ele>241.79999999999998</ele><time>2026-04-12T09:26:40.257Z</time></trkpt><trkpt lat="45.7059057" lon="10.1158612"><ele>244.59999999999997</ele><time>2026-04-12T09:26:41.264Z</time></trkpt><trkpt lat="45.7058751" lon="10.1159568"><ele>247.4</ele><time>2026-04-12T09:26:42.26Z</time></trkpt><trkpt lat="45.7058434" lon="10.116045"><ele>250.2</ele><time>2026-04-12T09:26:43.264Z</time></trkpt><trkpt lat="45.7058112" lon="10.1161238"><ele>253.0</ele><time>2026-04-12T09:26:44.263Z</time></trkpt><trkpt lat="45.7057241" lon="10.1163568"><ele>252.99999999999997</ele><time>2026-04-12T09:26:49.258Z</time></trkpt><trkpt lat="45.7057913" lon="10.1164409"><ele>253.0</ele><time>2026-04-12T09:26:51.262Z</time></trkpt><trkpt lat="45.7058474" lon="10.1164986"><ele>253.0</ele><time>2026-04-12T09:26:52.261Z</time></trkpt><trkpt lat="45.7058956" lon="10.1165634"><ele>253.0</ele><time>2026-04-12T09:26:53.258Z</time></trkpt><trkpt lat="45.7059438" lon="10.1167012"><ele>252.99999999999997</ele><time>2026-04-12T09:26:55.262Z</time></trkpt><trkpt lat="45.7059527" lon="10.1168687"><ele>253.0</ele><time>2026-04-12T09:26:57.269Z</time></trkpt><trkpt lat="45.7059823" lon="10.1170055"><ele>255.2</ele><time>2026-04-12T09:26:59.262Z</time></trkpt><trkpt lat="45.7060216" lon="10.1171043"><ele>257.4</ele><time>2026-04-12T09:27:01.261Z</time></trkpt><trkpt lat="45.7060135" lon="10.116999"><ele>259.59999999999997</ele><time>2026-04-12T09:27:43.263Z</time></trkpt><trkpt lat="45.7059377" lon="10.1167641"><ele>261.8</ele><time>2026-04-12T09:27:47.268Z</time></trkpt><trkpt lat="45.7059265" lon="10.1166661"><ele>264.0</ele><time>2026-04-12T09:27:49.259Z</time></trkpt><trkpt lat="45.7058877" lon="10.116585"><ele>261.8</ele><time>2026-04-12T09:27:58.259Z</time></trkpt><trkpt lat="45.7057905" lon="10.1164818"><ele>259.59999999999997</ele><time>2026-04-12T09:28:00.265Z</time></trkpt><trkpt lat="45.7057061" lon="10.1163855"><ele>257.4</ele><time>2026-04-12T09:28:02.262Z</time></trkpt><trkpt lat="45.7057126" lon="10.1162804"><ele>255.2</ele><time>2026-04-12T09:28:05.26Z</time></trkpt><trkpt lat="45.7057991" lon="10.1161232"><ele>253.0</ele><time>2026-04-12T09:28:15.262Z</time></trkpt><trkpt lat="45.7058803" lon="10.1161036"><ele>253.0</ele><time>2026-04-12T09:28:18.259Z</time></trkpt><trkpt lat="45.7059455" lon="10.1161224"><ele>253.0</ele><time>2026-04-12T09:28:20.263Z</time></trkpt><trkpt lat="45.7060236" lon="10.1161417"><ele>253.0</ele><time>2026-04-12T09:28:22.257Z</time></trkpt><trkpt lat="45.7060959" lon="10.1161339"><ele>253.0</ele><time>2026-04-12T09:28:24.262Z</time></trkpt><trkpt lat="45.7061834" lon="10.1161"><ele>253.0</ele><time>2026-04-12T09:28:26.261Z</time></trkpt><trkpt lat="45.7063661" lon="10.1160443"><ele>252.2</ele><time>2026-04-12T09:28:30.257Z</time></trkpt><trkpt lat="45.7064617" lon="10.1160326"><ele>251.4</ele><time>2026-04-12T09:28:32.263Z</time></trkpt><trkpt lat="45.7065635" lon="10.1160397"><ele>250.59999999999997</ele><time>2026-04-12T09:28:34.27Z</time></trkpt><trkpt lat="45.706666" lon="10.1160721"><ele>249.79999999999998</ele><time>2026-04-12T09:28:36.256Z</time></trkpt><trkpt lat="45.7067745" lon="10.1161087"><ele>249.0</ele><time>2026-04-12T09:28:38.264Z</time></trkpt><trkpt lat="45.7068393" lon="10.1161188"><ele>249.0</ele><time>2026-04-12T09:28:39.258Z</time></trkpt><trkpt lat="45.7069192" lon="10.1161262"><ele>249.0</ele><time>2026-04-12T09:28:40.261Z</time></trkpt><trkpt lat="45.7070038" lon="10.1161316"><ele>249.0</ele><time>2026-04-12T09:28:41.261Z</time></trkpt><trkpt lat="45.7070795" lon="10.116144"><ele>249.0</ele><time>2026-04-12T09:28:42.264Z</time></trkpt><trkpt lat="45.707148" lon="10.1161613"><ele>249.0</ele><time>2026-04-12T09:28:43.262Z</time></trkpt><trkpt lat="45.7072162" lon="10.1161895"><ele>249.0</ele><time>2026-04-12T09:28:44.259Z</time></trkpt><trkpt lat="45.7072897" lon="10.116226"><ele>249.0</ele><time>2026-04-12T09:28:45.259Z</time></trkpt><trkpt lat="45.7073753" lon="10.1162764"><ele>249.0</ele><time>2026-04-12T09:28:46.262Z</time></trkpt><trkpt lat="45.7074772" lon="10.116332"><ele>249.0</ele><time>2026-04-12T09:28:47.259Z</time></trkpt><trkpt lat="45.7076938" lon="10.1164187"><ele>249.0</ele><time>2026-04-12T09:28:49.26Z</time></trkpt><trkpt lat="45.7077931" lon="10.1164474"><ele>249.16666666666666</ele><time>2026-04-12T09:28:50.261Z</time></trkpt><trkpt lat="45.7078832" lon="10.116472"><ele>249.33333333333331</ele><time>2026-04-12T09:28:51.268Z</time></trkpt><trkpt lat="45.7079659" lon="10.1164876"><ele>249.5</ele><time>2026-04-12T09:28:52.268Z</time></trkpt><trkpt lat="45.7080473" lon="10.1164938"><ele>249.66666666666666</ele><time>2026-04-12T09:28:53.271Z</time></trkpt><trkpt lat="45.7081304" lon="10.1165001"><ele>249.83333333333331</ele><time>2026-04-12T09:28:54.268Z</time></trkpt><trkpt lat="45.7082151" lon="10.1165164"><ele>250.0</ele><time>2026-04-12T09:28:55.275Z</time></trkpt><trkpt lat="45.7083023" lon="10.1165518"><ele>250.0</ele><time>2026-04-12T09:28:56.263Z</time></trkpt><trkpt lat="45.7083884" lon="10.1165958"><ele>250.0</ele><time>2026-04-12T09:28:57.283Z</time></trkpt><trkpt lat="45.7084693" lon="10.1166354"><ele>250.0</ele><time>2026-04-12T09:28:58.261Z</time></trkpt><trkpt lat="45.7085425" lon="10.1166639"><ele>250.0</ele><time>2026-04-12T09:28:59.276Z</time></trkpt><trkpt lat="45.7086246" lon="10.1166962"><ele>250.0</ele><time>2026-04-12T09:29:01.262Z</time></trkpt><trkpt lat="45.7085624" lon="10.1166728"><ele>250.0</ele><time>2026-04-12T09:29:10.262Z</time></trkpt><trkpt lat="45.7085687" lon="10.1166145"><ele>250.0</ele><time>2026-04-12T09:29:29.259Z</time></trkpt><trkpt lat="45.7086421" lon="10.1165504"><ele>250.0</ele><time>2026-04-12T09:29:31.263Z</time></trkpt><trkpt lat="45.7088514" lon="10.1164145"><ele>250.0</ele><time>2026-04-12T09:29:35.263Z</time></trkpt><trkpt lat="45.7089357" lon="10.1164042"><ele>250.0</ele><time>2026-04-12T09:29:36.264Z</time></trkpt><trkpt lat="45.7090474" lon="10.1164122"><ele>250.0</ele><time>2026-04-12T09:29:37.261Z</time></trkpt><trkpt lat="45.7091668" lon="10.1164303"><ele>250.0</ele><time>2026-04-12T09:29:38.263Z</time></trkpt><trkpt lat="45.7092825" lon="10.1164471"><ele>250.0</ele><time>2026-04-12T09:29:39.259Z</time></trkpt><trkpt lat="45.7094019" lon="10.1164578"><ele>250.0</ele><time>2026-04-12T09:29:40.261Z</time></trkpt><trkpt lat="45.7095322" lon="10.1164703"><ele>250.0</ele><time>2026-04-12T09:29:41.269Z</time></trkpt><trkpt lat="45.7096614" lon="10.1164782"><ele>250.4</ele><time>2026-04-12T09:29:42.268Z</time></trkpt><trkpt lat="45.709783" lon="10.116479"><ele>250.8</ele><time>2026-04-12T09:29:43.272Z</time></trkpt><trkpt lat="45.7098902" lon="10.1164792"><ele>251.2</ele><time>2026-04-12T09:29:44.268Z</time></trkpt><trkpt lat="45.7099915" lon="10.1164823"><ele>251.6</ele><time>2026-04-12T09:29:45.273Z</time></trkpt><trkpt lat="45.7100926" lon="10.1164877"><ele>252.0</ele><time>2026-04-12T09:29:46.268Z</time></trkpt><trkpt lat="45.7101898" lon="10.1164941"><ele>252.0</ele><time>2026-04-12T09:29:47.274Z</time></trkpt><trkpt lat="45.7102788" lon="10.1164987"><ele>252.0</ele><time>2026-04-12T09:29:48.269Z</time></trkpt><trkpt lat="45.7103604" lon="10.116504"><ele>252.0</ele><time>2026-04-12T09:29:49.275Z</time></trkpt><trkpt lat="45.7104326" lon="10.1165082"><ele>252.0</ele><time>2026-04-12T09:29:50.278Z</time></trkpt><trkpt lat="45.7105016" lon="10.1165227"><ele>252.0</ele><time>2026-04-12T09:29:51.267Z</time></trkpt><trkpt lat="45.7105735" lon="10.1165561"><ele>252.0</ele><time>2026-04-12T09:29:52.262Z</time></trkpt><trkpt lat="45.7107231" lon="10.1166862"><ele>253.8</ele><time>2026-04-12T09:29:54.277Z</time></trkpt><trkpt lat="45.7108099" lon="10.1167584"><ele>255.6</ele><time>2026-04-12T09:29:55.273Z</time></trkpt><trkpt lat="45.7109123" lon="10.1168237"><ele>257.40000000000003</ele><time>2026-04-12T09:29:56.264Z</time></trkpt><trkpt lat="45.7110225" lon="10.1168749"><ele>259.2</ele><time>2026-04-12T09:29:57.275Z</time></trkpt><trkpt lat="45.7111227" lon="10.116915"><ele>261.0</ele><time>2026-04-12T09:29:58.265Z</time></trkpt><trkpt lat="45.7112097" lon="10.1169473"><ele>262.2</ele><time>2026-04-12T09:29:59.274Z</time></trkpt><trkpt lat="45.7112804" lon="10.1169687"><ele>263.40000000000003</ele><time>2026-04-12T09:30:00.265Z</time></trkpt><trkpt lat="45.7113814" lon="10.1169333"><ele>264.6</ele><time>2026-04-12T09:30:02.261Z</time></trkpt><trkpt lat="45.7114352" lon="10.1168467"><ele>265.8</ele><time>2026-04-12T09:30:04.259Z</time></trkpt><trkpt lat="45.7115062" lon="10.1168241"><ele>267.0</ele><time>2026-04-12T09:30:06.253Z</time></trkpt><trkpt lat="45.7116365" lon="10.1168253"><ele>267.0</ele><time>2026-04-12T09:30:08.26Z</time></trkpt><trkpt lat="45.7117227" lon="10.1168153"><ele>267.0</ele><time>2026-04-12T09:30:09.259Z</time></trkpt><trkpt lat="45.7118153" lon="10.1168221"><ele>267.0</ele><time>2026-04-12T09:30:10.262Z</time></trkpt><trkpt lat="45.7118998" lon="10.1168108"><ele>267.0</ele><time>2026-04-12T09:30:11.264Z</time></trkpt><trkpt lat="45.7119801" lon="10.1168064"><ele>267.0</ele><time>2026-04-12T09:30:12.262Z</time></trkpt><trkpt lat="45.7120643" lon="10.1168097"><ele>267.0</ele><time>2026-04-12T09:30:13.264Z</time></trkpt><trkpt lat="45.7122712" lon="10.1167477"><ele>266.0</ele><time>2026-04-12T09:30:15.261Z</time></trkpt><trkpt lat="45.7123923" lon="10.1166679"><ele>265.0</ele><time>2026-04-12T09:30:16.261Z</time></trkpt><trkpt lat="45.7125181" lon="10.1165748"><ele>264.0</ele><time>2026-04-12T09:30:17.258Z</time></trkpt><trkpt lat="45.7126434" lon="10.1164717"><ele>263.0</ele><time>2026-04-12T09:30:18.268Z</time></trkpt><trkpt lat="45.7127614" lon="10.1163781"><ele>263.0</ele><time>2026-04-12T09:30:19.271Z</time></trkpt><trkpt lat="45.712869" lon="10.1163036"><ele>263.0</ele><time>2026-04-12T09:30:20.27Z</time></trkpt><trkpt lat="45.7129731" lon="10.1162571"><ele>263.0</ele><time>2026-04-12T09:30:21.264Z</time></trkpt><trkpt lat="45.7130699" lon="10.1162455"><ele>263.0</ele><time>2026-04-12T09:30:22.259Z</time></trkpt><trkpt lat="45.7131584" lon="10.1162601"><ele>263.0</ele><time>2026-04-12T09:30:23.259Z</time></trkpt><trkpt lat="45.7132427" lon="10.116294"><ele>263.0</ele><time>2026-04-12T09:30:24.262Z</time></trkpt><trkpt lat="45.71332" lon="10.1163363"><ele>263.0</ele><time>2026-04-12T09:30:25.264Z</time></trkpt><trkpt lat="45.7133921" lon="10.1163986"><ele>263.0</ele><time>2026-04-12T09:30:26.269Z</time></trkpt><trkpt lat="45.713466" lon="10.116475"><ele>263.0</ele><time>2026-04-12T09:30:27.266Z</time></trkpt><trkpt lat="45.7135516" lon="10.1165515"><ele>263.0</ele><time>2026-04-12T09:30:28.262Z</time></trkpt><trkpt lat="45.7136481" lon="10.1166131"><ele>268.6</ele><time>2026-04-12T09:30:29.261Z</time></trkpt><trkpt lat="45.7137517" lon="10.1166527"><ele>274.20000000000005</ele><time>2026-04-12T09:30:30.263Z</time></trkpt><trkpt lat="45.7138492" lon="10.1166789"><ele>279.8</ele><time>2026-04-12T09:30:31.276Z</time></trkpt><trkpt lat="45.7139256" lon="10.1166852"><ele>285.40000000000003</ele><time>2026-04-12T09:30:32.258Z</time></trkpt><trkpt lat="45.7140158" lon="10.1167191"><ele>291.0</ele><time>2026-04-12T09:30:34.263Z</time></trkpt><trkpt lat="45.713917" lon="10.1169463"><ele>291.0</ele><time>2026-04-12T09:30:38.257Z</time></trkpt><trkpt lat="45.7138401" lon="10.1169583"><ele>291.0</ele><time>2026-04-12T09:30:39.259Z</time></trkpt><trkpt lat="45.7137393" lon="10.1169409"><ele>291.0</ele><time>2026-04-12T09:30:40.264Z</time></trkpt><trkpt lat="45.7136339" lon="10.1169188"><ele>291.0</ele><time>2026-04-12T09:30:41.269Z</time></trkpt><trkpt lat="45.7135356" lon="10.1169235"><ele>291.0</ele><time>2026-04-12T09:30:42.263Z</time></trkpt><trkpt lat="45.713449" lon="10.1169867"><ele>290.5</ele><time>2026-04-12T09:30:43.263Z</time></trkpt><trkpt lat="45.7133826" lon="10.1171052"><ele>290.0</ele><time>2026-04-12T09:30:44.269Z</time></trkpt><trkpt lat="45.7133151" lon="10.1172605"><ele>289.5</ele><time>2026-04-12T09:30:45.266Z</time></trkpt><trkpt lat="45.71324" lon="10.1174225"><ele>289.0</ele><time>2026-04-12T09:30:46.266Z</time></trkpt><trkpt lat="45.713143" lon="10.1175524"><ele>291.25</ele><time>2026-04-12T09:30:47.269Z</time></trkpt><trkpt lat="45.7130308" lon="10.1176602"><ele>293.5</ele><time>2026-04-12T09:30:48.265Z</time></trkpt><trkpt lat="45.712907" lon="10.1177522"><ele>295.75</ele><time>2026-04-12T09:30:49.265Z</time></trkpt><trkpt lat="45.7127826" lon="10.1178286"><ele>298.0</ele><time>2026-04-12T09:30:50.259Z</time></trkpt><trkpt lat="45.7126633" lon="10.1178915"><ele>298.0</ele><time>2026-04-12T09:30:51.271Z</time></trkpt><trkpt lat="45.7125537" lon="10.1179433"><ele>298.0</ele><time>2026-04-12T09:30:52.269Z</time></trkpt><trkpt lat="45.712455" lon="10.1179814"><ele>298.0</ele><time>2026-04-12T09:30:53.259Z</time></trkpt><trkpt lat="45.7123664" lon="10.1180177"><ele>298.0</ele><time>2026-04-12T09:30:54.264Z</time></trkpt><trkpt lat="45.7122867" lon="10.1180557"><ele>298.0</ele><time>2026-04-12T09:30:55.263Z</time></trkpt><trkpt lat="45.7121809" lon="10.1181765"><ele>301.6</ele><time>2026-04-12T09:30:57.261Z</time></trkpt><trkpt lat="45.7121586" lon="10.1182739"><ele>305.20000000000005</ele><time>2026-04-12T09:30:58.265Z</time></trkpt><trkpt lat="45.7121691" lon="10.1183981"><ele>308.8</ele><time>2026-04-12T09:30:59.261Z</time></trkpt><trkpt lat="45.7122232" lon="10.1185334"><ele>312.40000000000003</ele><time>2026-04-12T09:31:00.26Z</time></trkpt><trkpt lat="45.7123035" lon="10.118678"><ele>316.0</ele><time>2026-04-12T09:31:01.275Z</time></trkpt><trkpt lat="45.7124025" lon="10.1188062"><ele>316.0</ele><time>2026-04-12T09:31:02.262Z</time></trkpt><trkpt lat="45.7125017" lon="10.1188922"><ele>316.0</ele><time>2026-04-12T09:31:03.26Z</time></trkpt><trkpt lat="45.7126036" lon="10.118925"><ele>316.0</ele><time>2026-04-12T09:31:04.262Z</time></trkpt><trkpt lat="45.7126987" lon="10.1189042"><ele>316.0</ele><time>2026-04-12T09:31:05.259Z</time></trkpt><trkpt lat="45.7127918" lon="10.1188594"><ele>316.0</ele><time>2026-04-12T09:31:06.262Z</time></trkpt><trkpt lat="45.7128909" lon="10.1188185"><ele>319.25</ele><time>2026-04-12T09:31:07.263Z</time></trkpt><trkpt lat="45.7130055" lon="10.1187777"><ele>322.5</ele><time>2026-04-12T09:31:08.257Z</time></trkpt><trkpt lat="45.7131378" lon="10.1187275"><ele>325.75</ele><time>2026-04-12T09:31:09.261Z</time></trkpt><trkpt lat="45.713281" lon="10.1186692"><ele>329.0</ele><time>2026-04-12T09:31:10.27Z</time></trkpt><trkpt lat="45.7134319" lon="10.1186055"><ele>330.75</ele><time>2026-04-12T09:31:11.263Z</time></trkpt><trkpt lat="45.7135773" lon="10.1185496"><ele>332.5</ele><time>2026-04-12T09:31:12.267Z</time></trkpt><trkpt lat="45.7137102" lon="10.1184984"><ele>334.25</ele><time>2026-04-12T09:31:13.261Z</time></trkpt><trkpt lat="45.7138323" lon="10.1184499"><ele>336.0</ele><time>2026-04-12T09:31:14.27Z</time></trkpt><trkpt lat="45.7139498" lon="10.1184039"><ele>336.0</ele><time>2026-04-12T09:31:15.267Z</time></trkpt><trkpt lat="45.7140687" lon="10.118363"><ele>336.0</ele><time>2026-04-12T09:31:16.264Z</time></trkpt><trkpt lat="45.7143251" lon="10.1183039"><ele>336.0</ele><time>2026-04-12T09:31:18.26Z</time></trkpt><trkpt lat="45.714461" lon="10.1182876"><ele>338.5</ele><time>2026-04-12T09:31:19.268Z</time></trkpt><trkpt lat="45.7145933" lon="10.1182772"><ele>341.0</ele><time>2026-04-12T09:31:20.264Z</time></trkpt><trkpt lat="45.7147151" lon="10.1182722"><ele>343.5</ele><time>2026-04-12T09:31:21.27Z</time></trkpt><trkpt lat="45.7148239" lon="10.1182711"><ele>346.0</ele><time>2026-04-12T09:31:22.268Z</time></trkpt><trkpt lat="45.7149147" lon="10.1182658"><ele>346.0</ele><time>2026-04-12T09:31:23.267Z</time></trkpt><trkpt lat="45.714993" lon="10.1182509"><ele>346.0</ele><time>2026-04-12T09:31:24.265Z</time></trkpt><trkpt lat="45.7150653" lon="10.1182126"><ele>346.0</ele><time>2026-04-12T09:31:25.268Z</time></trkpt><trkpt lat="45.7151351" lon="10.1181445"><ele>346.0</ele><time>2026-04-12T09:31:26.265Z</time></trkpt><trkpt lat="45.7152066" lon="10.1180671"><ele>346.0</ele><time>2026-04-12T09:31:27.264Z</time></trkpt><trkpt lat="45.7152832" lon="10.1179874"><ele>346.0</ele><time>2026-04-12T09:31:28.266Z</time></trkpt><trkpt lat="45.7153657" lon="10.1179127"><ele>343.6</ele><time>2026-04-12T09:31:29.27Z</time></trkpt><trkpt lat="45.7154544" lon="10.1178421"><ele>341.20000000000005</ele><time>2026-04-12T09:31:30.259Z</time></trkpt><trkpt lat="45.7155453" lon="10.1177733"><ele>338.79999999999995</ele><time>2026-04-12T09:31:31.27Z</time></trkpt><trkpt lat="45.7156363" lon="10.1177002"><ele>336.4</ele><time>2026-04-12T09:31:32.261Z</time></trkpt><trkpt lat="45.7157244" lon="10.1176256"><ele>334.0</ele><time>2026-04-12T09:31:33.257Z</time></trkpt><trkpt lat="45.7158043" lon="10.11756"><ele>334.0</ele><time>2026-04-12T09:31:34.262Z</time></trkpt><trkpt lat="45.7158765" lon="10.1175026"><ele>334.0</ele><time>2026-04-12T09:31:35.261Z</time></trkpt><trkpt lat="45.7159438" lon="10.1174512"><ele>334.0</ele><time>2026-04-12T09:31:36.26Z</time></trkpt><trkpt lat="45.7160101" lon="10.1174017"><ele>334.0</ele><time>2026-04-12T09:31:37.257Z</time></trkpt><trkpt lat="45.7161751" lon="10.1173276"><ele>334.0</ele><time>2026-04-12T09:31:39.259Z</time></trkpt><trkpt lat="45.7162816" lon="10.1173242"><ele>335.0</ele><time>2026-04-12T09:31:40.258Z</time></trkpt><trkpt lat="45.7163913" lon="10.1173369"><ele>336.0</ele><time>2026-04-12T09:31:41.264Z</time></trkpt><trkpt lat="45.7164967" lon="10.1173653"><ele>337.0</ele><time>2026-04-12T09:31:42.269Z</time></trkpt><trkpt lat="45.7165918" lon="10.1174166"><ele>338.0</ele><time>2026-04-12T09:31:43.262Z</time></trkpt><trkpt lat="45.7166699" lon="10.1175018"><ele>339.0</ele><time>2026-04-12T09:31:44.264Z</time></trkpt><trkpt lat="45.7167436" lon="10.1176049"><ele>339.0</ele><time>2026-04-12T09:31:45.269Z</time></trkpt><trkpt lat="45.7168227" lon="10.1176934"><ele>339.0</ele><time>2026-04-12T09:31:46.261Z</time></trkpt><trkpt lat="45.7169049" lon="10.1177488"><ele>339.0</ele><time>2026-04-12T09:31:47.261Z</time></trkpt><trkpt lat="45.7169834" lon="10.1177793"><ele>339.0</ele><time>2026-04-12T09:31:48.259Z</time></trkpt><trkpt lat="45.7170523" lon="10.1178031"><ele>339.0</ele><time>2026-04-12T09:31:49.26Z</time></trkpt><trkpt lat="45.7171657" lon="10.1177817"><ele>337.79999999999995</ele><time>2026-04-12T09:31:51.262Z</time></trkpt><trkpt lat="45.7172159" lon="10.1176486"><ele>336.59999999999997</ele><time>2026-04-12T09:31:53.26Z</time></trkpt><trkpt lat="45.7172003" lon="10.1175484"><ele>335.4</ele><time>2026-04-12T09:31:54.267Z</time></trkpt><trkpt lat="45.7171672" lon="10.1174357"><ele>334.2</ele><time>2026-04-12T09:31:55.262Z</time></trkpt><trkpt lat="45.7171384" lon="10.1173062"><ele>333.0</ele><time>2026-04-12T09:31:56.263Z</time></trkpt><trkpt lat="45.7171328" lon="10.117159"><ele>333.0</ele><time>2026-04-12T09:31:57.275Z</time></trkpt><trkpt lat="45.7171548" lon="10.1170063"><ele>333.0</ele><time>2026-04-12T09:31:58.265Z</time></trkpt><trkpt lat="45.7172335" lon="10.1167375"><ele>333.0</ele><time>2026-04-12T09:32:00.268Z</time></trkpt><trkpt lat="45.7172706" lon="10.1166348"><ele>333.0</ele><time>2026-04-12T09:32:01.269Z</time></trkpt><trkpt lat="45.7173135" lon="10.1165654"><ele>333.0</ele><time>2026-04-12T09:32:02.266Z</time></trkpt><trkpt lat="45.7174245" lon="10.1165675"><ele>333.0</ele><time>2026-04-12T09:32:04.265Z</time></trkpt><trkpt lat="45.7174908" lon="10.1166374"><ele>333.0</ele><time>2026-04-12T09:32:05.261Z</time></trkpt><trkpt lat="45.7175652" lon="10.1167174"><ele>333.0</ele><time>2026-04-12T09:32:06.264Z</time></trkpt><trkpt lat="45.7176559" lon="10.1167707"><ele>333.0</ele><time>2026-04-12T09:32:07.257Z</time></trkpt><trkpt lat="45.717748" lon="10.1167755"><ele>332.2</ele><time>2026-04-12T09:32:08.265Z</time></trkpt><trkpt lat="45.7178298" lon="10.1167389"><ele>331.4</ele><time>2026-04-12T09:32:09.267Z</time></trkpt><trkpt lat="45.7178964" lon="10.1166673"><ele>330.59999999999997</ele><time>2026-04-12T09:32:10.265Z</time></trkpt><trkpt lat="45.717951" lon="10.1165492"><ele>329.79999999999995</ele><time>2026-04-12T09:32:11.268Z</time></trkpt><trkpt lat="45.7179971" lon="10.1164046"><ele>329.0</ele><time>2026-04-12T09:32:12.268Z</time></trkpt><trkpt lat="45.7180493" lon="10.1162588"><ele>329.0</ele><time>2026-04-12T09:32:13.27Z</time></trkpt><trkpt lat="45.7181154" lon="10.1161413"><ele>329.0</ele><time>2026-04-12T09:32:14.263Z</time></trkpt><trkpt lat="45.7181852" lon="10.1160601"><ele>329.0</ele><time>2026-04-12T09:32:15.271Z</time></trkpt><trkpt lat="45.718258" lon="10.1160166"><ele>329.0</ele><time>2026-04-12T09:32:16.266Z</time></trkpt><trkpt lat="45.7183421" lon="10.1160127"><ele>329.0</ele><time>2026-04-12T09:32:17.27Z</time></trkpt><trkpt lat="45.7184415" lon="10.1160377"><ele>329.0</ele><time>2026-04-12T09:32:18.267Z</time></trkpt><trkpt lat="45.7185537" lon="10.1160786"><ele>329.0</ele><time>2026-04-12T09:32:19.266Z</time></trkpt><trkpt lat="45.7187989" lon="10.1162064"><ele>329.0</ele><time>2026-04-12T09:32:21.261Z</time></trkpt><trkpt lat="45.7189187" lon="10.1162743"><ele>331.2</ele><time>2026-04-12T09:32:22.261Z</time></trkpt><trkpt lat="45.7190299" lon="10.1163228"><ele>333.4</ele><time>2026-04-12T09:32:23.265Z</time></trkpt><trkpt lat="45.7191376" lon="10.1163546"><ele>335.6</ele><time>2026-04-12T09:32:24.27Z</time></trkpt><trkpt lat="45.7192379" lon="10.1163679"><ele>337.8</ele><time>2026-04-12T09:32:25.259Z</time></trkpt><trkpt lat="45.7193308" lon="10.1163601"><ele>340.0</ele><time>2026-04-12T09:32:26.262Z</time></trkpt><trkpt lat="45.7194065" lon="10.1163169"><ele>341.8333333333333</ele><time>2026-04-12T09:32:27.262Z</time></trkpt><trkpt lat="45.7194648" lon="10.1162292"><ele>343.66666666666663</ele><time>2026-04-12T09:32:28.259Z</time></trkpt><trkpt lat="45.7195125" lon="10.1161283"><ele>345.5</ele><time>2026-04-12T09:32:29.269Z</time></trkpt><trkpt lat="45.7195685" lon="10.1160423"><ele>347.3333333333333</ele><time>2026-04-12T09:32:30.259Z</time></trkpt><trkpt lat="45.7196457" lon="10.1159859"><ele>349.1666666666667</ele><time>2026-04-12T09:32:31.265Z</time></trkpt><trkpt lat="45.7197473" lon="10.1159643"><ele>351.0</ele><time>2026-04-12T09:32:32.26Z</time></trkpt><trkpt lat="45.7198685" lon="10.1159597"><ele>351.0</ele><time>2026-04-12T09:32:33.267Z</time></trkpt><trkpt lat="45.7199958" lon="10.1159525"><ele>351.0</ele><time>2026-04-12T09:32:34.265Z</time></trkpt><trkpt lat="45.7201235" lon="10.1159394"><ele>351.0</ele><time>2026-04-12T09:32:35.262Z</time></trkpt><trkpt lat="45.7202397" lon="10.1159132"><ele>351.0</ele><time>2026-04-12T09:32:36.26Z</time></trkpt><trkpt lat="45.7203456" lon="10.115885"><ele>349.20000000000005</ele><time>2026-04-12T09:32:37.265Z</time></trkpt><trkpt lat="45.72044" lon="10.1158614"><ele>347.40000000000003</ele><time>2026-04-12T09:32:38.261Z</time></trkpt><trkpt lat="45.7205258" lon="10.1158403"><ele>345.6</ele><time>2026-04-12T09:32:39.262Z</time></trkpt><trkpt lat="45.720604" lon="10.115809"><ele>343.8</ele><time>2026-04-12T09:32:40.262Z</time></trkpt><trkpt lat="45.7207259" lon="10.1156775"><ele>342.0</ele><time>2026-04-12T09:32:42.265Z</time></trkpt><trkpt lat="45.7207674" lon="10.1155737"><ele>342.0</ele><time>2026-04-12T09:32:43.262Z</time></trkpt><trkpt lat="45.7207965" lon="10.1154577"><ele>342.0</ele><time>2026-04-12T09:32:44.268Z</time></trkpt><trkpt lat="45.7208151" lon="10.1153369"><ele>342.0</ele><time>2026-04-12T09:32:45.261Z</time></trkpt><trkpt lat="45.7208346" lon="10.1152224"><ele>342.0</ele><time>2026-04-12T09:32:46.264Z</time></trkpt><trkpt lat="45.7208561" lon="10.1151095"><ele>342.0</ele><time>2026-04-12T09:32:47.259Z</time></trkpt><trkpt lat="45.7208862" lon="10.115008"><ele>342.0</ele><time>2026-04-12T09:32:48.269Z</time></trkpt><trkpt lat="45.7209326" lon="10.1149277"><ele>341.6</ele><time>2026-04-12T09:32:49.259Z</time></trkpt><trkpt lat="45.7209997" lon="10.1148701"><ele>341.20000000000005</ele><time>2026-04-12T09:32:50.263Z</time></trkpt><trkpt lat="45.7210902" lon="10.114835"><ele>340.8</ele><time>2026-04-12T09:32:51.261Z</time></trkpt><trkpt lat="45.7211899" lon="10.1148059"><ele>340.4</ele><time>2026-04-12T09:32:52.267Z</time></trkpt><trkpt lat="45.7212866" lon="10.1147667"><ele>340.0</ele><time>2026-04-12T09:32:53.261Z</time></trkpt><trkpt lat="45.721372" lon="10.1147051"><ele>340.0</ele><time>2026-04-12T09:32:54.26Z</time></trkpt><trkpt lat="45.7214393" lon="10.1146163"><ele>340.0</ele><time>2026-04-12T09:32:55.265Z</time></trkpt><trkpt lat="45.7214802" lon="10.1145092"><ele>340.0</ele><time>2026-04-12T09:32:56.265Z</time></trkpt><trkpt lat="45.7215013" lon="10.1143903"><ele>340.0</ele><time>2026-04-12T09:32:57.263Z</time></trkpt><trkpt lat="45.721515" lon="10.114268"><ele>340.0</ele><time>2026-04-12T09:32:58.265Z</time></trkpt><trkpt lat="45.72154" lon="10.1141511"><ele>340.0</ele><time>2026-04-12T09:32:59.265Z</time></trkpt><trkpt lat="45.7215893" lon="10.1140538"><ele>340.75</ele><time>2026-04-12T09:33:00.263Z</time></trkpt><trkpt lat="45.721663" lon="10.113976"><ele>341.5</ele><time>2026-04-12T09:33:01.261Z</time></trkpt><trkpt lat="45.7218499" lon="10.1138537"><ele>342.25</ele><time>2026-04-12T09:33:03.259Z</time></trkpt><trkpt lat="45.7219362" lon="10.1137803"><ele>343.0</ele><time>2026-04-12T09:33:04.26Z</time></trkpt><trkpt lat="45.7220207" lon="10.1136981"><ele>343.0</ele><time>2026-04-12T09:33:05.263Z</time></trkpt><trkpt lat="45.7220832" lon="10.1135967"><ele>343.0</ele><time>2026-04-12T09:33:06.266Z</time></trkpt><trkpt lat="45.7221285" lon="10.1134867"><ele>343.0</ele><time>2026-04-12T09:33:07.266Z</time></trkpt><trkpt lat="45.7221787" lon="10.113386"><ele>343.0</ele><time>2026-04-12T09:33:08.27Z</time></trkpt><trkpt lat="45.7222481" lon="10.113305"><ele>343.0</ele><time>2026-04-12T09:33:09.261Z</time></trkpt><trkpt lat="45.7223385" lon="10.1132352"><ele>338.25</ele><time>2026-04-12T09:33:10.263Z</time></trkpt><trkpt lat="45.7224376" lon="10.1131524"><ele>333.5</ele><time>2026-04-12T09:33:11.266Z</time></trkpt><trkpt lat="45.7225305" lon="10.1130463"><ele>328.75</ele><time>2026-04-12T09:33:12.262Z</time></trkpt><trkpt lat="45.7226115" lon="10.1129237"><ele>324.0</ele><time>2026-04-12T09:33:13.261Z</time></trkpt><trkpt lat="45.7226725" lon="10.1127843"><ele>324.0</ele><time>2026-04-12T09:33:14.271Z</time></trkpt><trkpt lat="45.7227209" lon="10.1126458"><ele>324.0</ele><time>2026-04-12T09:33:15.266Z</time></trkpt><trkpt lat="45.7227672" lon="10.1125134"><ele>324.0</ele><time>2026-04-12T09:33:16.26Z</time></trkpt><trkpt lat="45.7228242" lon="10.1123939"><ele>324.0</ele><time>2026-04-12T09:33:17.264Z</time></trkpt><trkpt lat="45.7228946" lon="10.1122983"><ele>324.0</ele><time>2026-04-12T09:33:18.261Z</time></trkpt><trkpt lat="45.7229723" lon="10.1122344"><ele>322.8</ele><time>2026-04-12T09:33:19.263Z</time></trkpt><trkpt lat="45.7230528" lon="10.1122014"><ele>321.59999999999997</ele><time>2026-04-12T09:33:20.265Z</time></trkpt><trkpt lat="45.7231388" lon="10.1121959"><ele>320.4</ele><time>2026-04-12T09:33:21.267Z</time></trkpt><trkpt lat="45.7232186" lon="10.1121837"><ele>319.2</ele><time>2026-04-12T09:33:22.27Z</time></trkpt><trkpt lat="45.7233392" lon="10.1120785"><ele>318.0</ele><time>2026-04-12T09:33:24.261Z</time></trkpt><trkpt lat="45.723354" lon="10.1119843"><ele>318.0</ele><time>2026-04-12T09:33:25.264Z</time></trkpt><trkpt lat="45.723349" lon="10.1118702"><ele>318.0</ele><time>2026-04-12T09:33:26.266Z</time></trkpt><trkpt lat="45.7233404" lon="10.1117568"><ele>318.0</ele><time>2026-04-12T09:33:27.262Z</time></trkpt><trkpt lat="45.7233535" lon="10.1116514"><ele>318.0</ele><time>2026-04-12T09:33:28.26Z</time></trkpt><trkpt lat="45.7233885" lon="10.111573"><ele>318.0</ele><time>2026-04-12T09:33:29.262Z</time></trkpt><trkpt lat="45.7235047" lon="10.1115687"><ele>318.0</ele><time>2026-04-12T09:33:31.261Z</time></trkpt><trkpt lat="45.7235796" lon="10.1116265"><ele>319.2</ele><time>2026-04-12T09:33:32.261Z</time></trkpt><trkpt lat="45.7236595" lon="10.1117003"><ele>320.4</ele><time>2026-04-12T09:33:33.264Z</time></trkpt><trkpt lat="45.7237503" lon="10.1117814"><ele>321.59999999999997</ele><time>2026-04-12T09:33:34.264Z</time></trkpt><trkpt lat="45.7238381" lon="10.1118554"><ele>322.8</ele><time>2026-04-12T09:33:35.263Z</time></trkpt><trkpt lat="45.7239287" lon="10.1119154"><ele>324.0</ele><time>2026-04-12T09:33:36.261Z</time></trkpt><trkpt lat="45.7240222" lon="10.1119368"><ele>324.0</ele><time>2026-04-12T09:33:37.263Z</time></trkpt><trkpt lat="45.7241055" lon="10.111924"><ele>324.0</ele><time>2026-04-12T09:33:38.265Z</time></trkpt><trkpt lat="45.7241804" lon="10.1118713"><ele>324.0</ele><time>2026-04-12T09:33:39.264Z</time></trkpt><trkpt lat="45.7242317" lon="10.1117831"><ele>324.0</ele><time>2026-04-12T09:33:40.261Z</time></trkpt><trkpt lat="45.7242649" lon="10.111677"><ele>324.0</ele><time>2026-04-12T09:33:41.262Z</time></trkpt><trkpt lat="45.7243074" lon="10.1115833"><ele>324.0</ele><time>2026-04-12T09:33:42.267Z</time></trkpt><trkpt lat="45.7243613" lon="10.1114977"><ele>325.79999999999995</ele><time>2026-04-12T09:33:43.263Z</time></trkpt><trkpt lat="45.724499" lon="10.1113772"><ele>327.59999999999997</ele><time>2026-04-12T09:33:45.263Z</time></trkpt><trkpt lat="45.7245697" lon="10.1113215"><ele>329.4</ele><time>2026-04-12T09:33:46.261Z</time></trkpt><trkpt lat="45.7246294" lon="10.111247"><ele>331.2</ele><time>2026-04-12T09:33:47.264Z</time></trkpt><trkpt lat="45.724671" lon="10.1111446"><ele>333.0</ele><time>2026-04-12T09:33:48.261Z</time></trkpt><trkpt lat="45.7246991" lon="10.1110142"><ele>333.0</ele><time>2026-04-12T09:33:49.26Z</time></trkpt><trkpt lat="45.7247189" lon="10.1108703"><ele>333.0</ele><time>2026-04-12T09:33:50.262Z</time></trkpt><trkpt lat="45.7247284" lon="10.1107235"><ele>333.0</ele><time>2026-04-12T09:33:51.265Z</time></trkpt><trkpt lat="45.7247313" lon="10.1105768"><ele>333.0</ele><time>2026-04-12T09:33:52.261Z</time></trkpt><trkpt lat="45.7247314" lon="10.1104346"><ele>333.0</ele><time>2026-04-12T09:33:53.266Z</time></trkpt><trkpt lat="45.7247283" lon="10.1102987"><ele>327.79999999999995</ele><time>2026-04-12T09:33:54.269Z</time></trkpt><trkpt lat="45.724722" lon="10.1101656"><ele>322.59999999999997</ele><time>2026-04-12T09:33:55.261Z</time></trkpt><trkpt lat="45.7247188" lon="10.1100395"><ele>317.4</ele><time>2026-04-12T09:33:56.268Z</time></trkpt><trkpt lat="45.7247272" lon="10.1099334"><ele>312.2</ele><time>2026-04-12T09:33:57.259Z</time></trkpt><trkpt lat="45.7247996" lon="10.1098151"><ele>307.0</ele><time>2026-04-12T09:33:59.263Z</time></trkpt><trkpt lat="45.724923" lon="10.1098183"><ele>308.6</ele><time>2026-04-12T09:34:01.267Z</time></trkpt><trkpt lat="45.7250043" lon="10.1098344"><ele>310.2</ele><time>2026-04-12T09:34:02.264Z</time></trkpt><trkpt lat="45.7250913" lon="10.109848"><ele>311.8</ele><time>2026-04-12T09:34:03.263Z</time></trkpt><trkpt lat="45.7251724" lon="10.1098488"><ele>313.4</ele><time>2026-04-12T09:34:04.262Z</time></trkpt><trkpt lat="45.7253144" lon="10.1097838"><ele>315.0</ele><time>2026-04-12T09:34:06.263Z</time></trkpt><trkpt lat="45.7253663" lon="10.1097089"><ele>315.0</ele><time>2026-04-12T09:34:07.261Z</time></trkpt><trkpt lat="45.725389" lon="10.1096187"><ele>315.0</ele><time>2026-04-12T09:34:08.261Z</time></trkpt><trkpt lat="45.7253876" lon="10.1095156"><ele>315.0</ele><time>2026-04-12T09:34:09.265Z</time></trkpt><trkpt lat="45.7253647" lon="10.1093907"><ele>315.0</ele><time>2026-04-12T09:34:10.259Z</time></trkpt><trkpt lat="45.7253344" lon="10.1092552"><ele>315.0</ele><time>2026-04-12T09:34:11.265Z</time></trkpt><trkpt lat="45.7253231" lon="10.1091266"><ele>315.0</ele><time>2026-04-12T09:34:12.263Z</time></trkpt><trkpt lat="45.725329" lon="10.1090009"><ele>311.1666666666667</ele><time>2026-04-12T09:34:13.264Z</time></trkpt><trkpt lat="45.7253531" lon="10.1088887"><ele>307.3333333333333</ele><time>2026-04-12T09:34:14.266Z</time></trkpt><trkpt lat="45.7253992" lon="10.1088003"><ele>303.5</ele><time>2026-04-12T09:34:15.264Z</time></trkpt><trkpt lat="45.7254642" lon="10.1087347"><ele>299.66666666666663</ele><time>2026-04-12T09:34:16.261Z</time></trkpt><trkpt lat="45.7255437" lon="10.1086836"><ele>295.8333333333333</ele><time>2026-04-12T09:34:17.264Z</time></trkpt><trkpt lat="45.7256182" lon="10.1086365"><ele>292.0</ele><time>2026-04-12T09:34:18.259Z</time></trkpt><trkpt lat="45.7256829" lon="10.1085761"><ele>292.0</ele><time>2026-04-12T09:34:19.261Z</time></trkpt><trkpt lat="45.7257327" lon="10.1084985"><ele>292.0</ele><time>2026-04-12T09:34:20.269Z</time></trkpt><trkpt lat="45.7257671" lon="10.1084008"><ele>292.0</ele><time>2026-04-12T09:34:21.269Z</time></trkpt><trkpt lat="45.7257875" lon="10.1082916"><ele>292.0</ele><time>2026-04-12T09:34:22.263Z</time></trkpt><trkpt lat="45.7258032" lon="10.1081769"><ele>292.0</ele><time>2026-04-12T09:34:23.267Z</time></trkpt><trkpt lat="45.725822" lon="10.1080674"><ele>292.0</ele><time>2026-04-12T09:34:24.267Z</time></trkpt><trkpt lat="45.7258498" lon="10.1079721"><ele>292.0</ele><time>2026-04-12T09:34:25.263Z</time></trkpt><trkpt lat="45.7258454" lon="10.1077659"><ele>292.0</ele><time>2026-04-12T09:34:29.261Z</time></trkpt><trkpt lat="45.7257502" lon="10.1078664"><ele>292.0</ele><time>2026-04-12T09:34:31.268Z</time></trkpt><trkpt lat="45.7257183" lon="10.1079839"><ele>292.0</ele><time>2026-04-12T09:34:32.26Z</time></trkpt><trkpt lat="45.7256855" lon="10.1081173"><ele>292.0</ele><time>2026-04-12T09:34:33.265Z</time></trkpt><trkpt lat="45.725643" lon="10.1082559"><ele>292.0</ele><time>2026-04-12T09:34:34.259Z</time></trkpt><trkpt lat="45.725592" lon="10.1083842"><ele>292.0</ele><time>2026-04-12T09:34:35.259Z</time></trkpt><trkpt lat="45.7255233" lon="10.1084805"><ele>292.0</ele><time>2026-04-12T09:34:36.265Z</time></trkpt><trkpt lat="45.7254462" lon="10.1085504"><ele>292.0</ele><time>2026-04-12T09:34:37.261Z</time></trkpt><trkpt lat="45.7253574" lon="10.1085747"><ele>292.0</ele><time>2026-04-12T09:34:38.261Z</time></trkpt><trkpt lat="45.7252611" lon="10.1085759"><ele>284.6</ele><time>2026-04-12T09:34:39.268Z</time></trkpt><trkpt lat="45.7251644" lon="10.1085734"><ele>277.2</ele><time>2026-04-12T09:34:40.261Z</time></trkpt><trkpt lat="45.7250767" lon="10.1085983"><ele>269.8</ele><time>2026-04-12T09:34:41.265Z</time></trkpt><trkpt lat="45.7250022" lon="10.1086664"><ele>262.4</ele><time>2026-04-12T09:34:42.261Z</time></trkpt><trkpt lat="45.7249377" lon="10.1087624"><ele>255.0</ele><time>2026-04-12T09:34:43.262Z</time></trkpt><trkpt lat="45.7248667" lon="10.1088466"><ele>255.0</ele><time>2026-04-12T09:34:44.265Z</time></trkpt><trkpt lat="45.7247824" lon="10.1088913"><ele>255.0</ele><time>2026-04-12T09:34:45.264Z</time></trkpt><trkpt lat="45.7246866" lon="10.1088885"><ele>255.0</ele><time>2026-04-12T09:34:46.265Z</time></trkpt><trkpt lat="45.7244963" lon="10.1088465"><ele>255.0</ele><time>2026-04-12T09:34:48.265Z</time></trkpt><trkpt lat="45.7244048" lon="10.108852"><ele>255.0</ele><time>2026-04-12T09:34:49.262Z</time></trkpt><trkpt lat="45.7243258" lon="10.1088795"><ele>255.0</ele><time>2026-04-12T09:34:50.262Z</time></trkpt><trkpt lat="45.7242291" lon="10.1089311"><ele>255.0</ele><time>2026-04-12T09:34:52.263Z</time></trkpt><trkpt lat="45.7242187" lon="10.1088321"><ele>255.0</ele><time>2026-04-12T09:34:55.26Z</time></trkpt><trkpt lat="45.7243043" lon="10.1087639"><ele>255.0</ele><time>2026-04-12T09:34:57.261Z</time></trkpt><trkpt lat="45.7244068" lon="10.1086859"><ele>255.0</ele><time>2026-04-12T09:34:59.262Z</time></trkpt><trkpt lat="45.7244584" lon="10.1086294"><ele>255.0</ele><time>2026-04-12T09:35:00.261Z</time></trkpt><trkpt lat="45.7245282" lon="10.1085111"><ele>255.0</ele><time>2026-04-12T09:35:02.26Z</time></trkpt><trkpt lat="45.7245282" lon="10.1083883"><ele>255.0</ele><time>2026-04-12T09:35:04.263Z</time></trkpt><trkpt lat="45.724455" lon="10.108297"><ele>255.0</ele><time>2026-04-12T09:35:06.261Z</time></trkpt><trkpt lat="45.7244038" lon="10.1081819"><ele>251.4</ele><time>2026-04-12T09:35:08.271Z</time></trkpt><trkpt lat="45.7244931" lon="10.1079467"><ele>247.8</ele><time>2026-04-12T09:35:11.261Z</time></trkpt><trkpt lat="45.7245353" lon="10.1078583"><ele>244.2</ele><time>2026-04-12T09:35:12.263Z</time></trkpt><trkpt lat="45.7245771" lon="10.1077733"><ele>240.6</ele><time>2026-04-12T09:35:13.258Z</time></trkpt><trkpt lat="45.7246212" lon="10.1077051"><ele>237.0</ele><time>2026-04-12T09:35:14.269Z</time></trkpt><trkpt lat="45.7247099" lon="10.1075913"><ele>237.0</ele><time>2026-04-12T09:35:16.261Z</time></trkpt><trkpt lat="45.7247764" lon="10.1074751"><ele>237.0</ele><time>2026-04-12T09:35:18.267Z</time></trkpt><trkpt lat="45.7247902" lon="10.1073516"><ele>237.0</ele><time>2026-04-12T09:35:20.268Z</time></trkpt><trkpt lat="45.724744" lon="10.1072671"><ele>237.0</ele><time>2026-04-12T09:35:22.263Z</time></trkpt><trkpt lat="45.7246624" lon="10.1072554"><ele>237.0</ele><time>2026-04-12T09:35:24.26Z</time></trkpt><trkpt lat="45.7245596" lon="10.1073182"><ele>232.5</ele><time>2026-04-12T09:35:26.264Z</time></trkpt><trkpt lat="45.7244499" lon="10.1073819"><ele>228.0</ele><time>2026-04-12T09:35:28.263Z</time></trkpt><trkpt lat="45.7243433" lon="10.1073841"><ele>223.5</ele><time>2026-04-12T09:35:30.265Z</time></trkpt><trkpt lat="45.724215" lon="10.1073759"><ele>219.0</ele><time>2026-04-12T09:35:32.267Z</time></trkpt><trkpt lat="45.7240944" lon="10.1074221"><ele>218.83333333333334</ele><time>2026-04-12T09:35:34.269Z</time></trkpt><trkpt lat="45.7240302" lon="10.1074807"><ele>218.66666666666669</ele><time>2026-04-12T09:35:35.259Z</time></trkpt><trkpt lat="45.7239635" lon="10.1075651"><ele>218.5</ele><time>2026-04-12T09:35:36.264Z</time></trkpt><trkpt lat="45.7239115" lon="10.1076672"><ele>218.33333333333334</ele><time>2026-04-12T09:35:37.263Z</time></trkpt><trkpt lat="45.7238674" lon="10.1077645"><ele>218.16666666666669</ele><time>2026-04-12T09:35:38.267Z</time></trkpt><trkpt lat="45.7238322" lon="10.1078609"><ele>218.0</ele><time>2026-04-12T09:35:39.26Z</time></trkpt><trkpt lat="45.7237891" lon="10.1079629"><ele>218.00000000000003</ele><time>2026-04-12T09:35:40.264Z</time></trkpt><trkpt lat="45.7237391" lon="10.1080676"><ele>218.0</ele><time>2026-04-12T09:35:41.261Z</time></trkpt><trkpt lat="45.7236762" lon="10.1081586"><ele>218.0</ele><time>2026-04-12T09:35:42.263Z</time></trkpt><trkpt lat="45.7236047" lon="10.1082325"><ele>218.0</ele><time>2026-04-12T09:35:43.271Z</time></trkpt><trkpt lat="45.7235276" lon="10.1082915"><ele>218.00000000000003</ele><time>2026-04-12T09:35:44.265Z</time></trkpt><trkpt lat="45.723446" lon="10.108332"><ele>218.0</ele><time>2026-04-12T09:35:45.27Z</time></trkpt><trkpt lat="45.7233626" lon="10.108348"><ele>217.50000000000003</ele><time>2026-04-12T09:35:46.268Z</time></trkpt><trkpt lat="45.7232818" lon="10.1083511"><ele>217.0</ele><time>2026-04-12T09:35:47.267Z</time></trkpt><trkpt lat="45.7232023" lon="10.1083513"><ele>216.5</ele><time>2026-04-12T09:35:48.269Z</time></trkpt><trkpt lat="45.7231179" lon="10.1083585"><ele>216.0</ele><time>2026-04-12T09:35:49.268Z</time></trkpt><trkpt lat="45.7230286" lon="10.1083852"><ele>215.50000000000003</ele><time>2026-04-12T09:35:50.261Z</time></trkpt><trkpt lat="45.7229432" lon="10.1084306"><ele>215.0</ele><time>2026-04-12T09:35:51.27Z</time></trkpt><trkpt lat="45.7228176" lon="10.108564"><ele>215.00000000000003</ele><time>2026-04-12T09:35:53.268Z</time></trkpt><trkpt lat="45.7227688" lon="10.1086475"><ele>215.0</ele><time>2026-04-12T09:35:54.262Z</time></trkpt><trkpt lat="45.7227054" lon="10.1087301"><ele>215.0</ele><time>2026-04-12T09:35:55.269Z</time></trkpt><trkpt lat="45.7226405" lon="10.1088234"><ele>215.0</ele><time>2026-04-12T09:35:56.268Z</time></trkpt><trkpt lat="45.7225816" lon="10.1089247"><ele>215.00000000000003</ele><time>2026-04-12T09:35:57.264Z</time></trkpt><trkpt lat="45.722529" lon="10.1090282"><ele>215.0</ele><time>2026-04-12T09:35:58.264Z</time></trkpt><trkpt lat="45.7224706" lon="10.109125"><ele>214.8</ele><time>2026-04-12T09:35:59.261Z</time></trkpt><trkpt lat="45.7224017" lon="10.1092197"><ele>214.6</ele><time>2026-04-12T09:36:00.264Z</time></trkpt><trkpt lat="45.7223209" lon="10.1093101"><ele>214.39999999999998</ele><time>2026-04-12T09:36:01.264Z</time></trkpt><trkpt lat="45.72223" lon="10.1093899"><ele>214.2</ele><time>2026-04-12T09:36:02.262Z</time></trkpt><trkpt lat="45.7221321" lon="10.1094542"><ele>214.0</ele><time>2026-04-12T09:36:03.269Z</time></trkpt><trkpt lat="45.7220258" lon="10.1095024"><ele>214.0</ele><time>2026-04-12T09:36:04.263Z</time></trkpt><trkpt lat="45.7219102" lon="10.1095552"><ele>213.99999999999997</ele><time>2026-04-12T09:36:05.263Z</time></trkpt><trkpt lat="45.7218012" lon="10.1095886"><ele>213.99999999999997</ele><time>2026-04-12T09:36:06.267Z</time></trkpt><trkpt lat="45.7216995" lon="10.1096181"><ele>214.0</ele><time>2026-04-12T09:36:07.266Z</time></trkpt><trkpt lat="45.7216118" lon="10.1096568"><ele>214.0</ele><time>2026-04-12T09:36:08.259Z</time></trkpt><trkpt lat="45.7215432" lon="10.1097159"><ele>210.39999999999998</ele><time>2026-04-12T09:36:09.264Z</time></trkpt><trkpt lat="45.7214919" lon="10.1097813"><ele>206.79999999999998</ele><time>2026-04-12T09:36:10.258Z</time></trkpt><trkpt lat="45.7214015" lon="10.1098576"><ele>203.2</ele><time>2026-04-12T09:36:12.261Z</time></trkpt><trkpt lat="45.7213046" lon="10.10968"><ele>199.60000000000002</ele><time>2026-04-12T09:36:15.263Z</time></trkpt><trkpt lat="45.7213021" lon="10.1095686"><ele>196.0</ele><time>2026-04-12T09:36:16.266Z</time></trkpt><trkpt lat="45.7213289" lon="10.1094728"><ele>195.99999999999997</ele><time>2026-04-12T09:36:17.262Z</time></trkpt><trkpt lat="45.7213824" lon="10.1094069"><ele>196.0</ele><time>2026-04-12T09:36:18.268Z</time></trkpt><trkpt lat="45.7214549" lon="10.109371"><ele>196.0</ele><time>2026-04-12T09:36:19.26Z</time></trkpt><trkpt lat="45.721544" lon="10.1093452"><ele>196.0</ele><time>2026-04-12T09:36:20.263Z</time></trkpt><trkpt lat="45.7216339" lon="10.1093067"><ele>195.99999999999997</ele><time>2026-04-12T09:36:21.263Z</time></trkpt><trkpt lat="45.7217182" lon="10.1092398"><ele>196.0</ele><time>2026-04-12T09:36:22.261Z</time></trkpt><trkpt lat="45.7217887" lon="10.1091532"><ele>194.49999999999997</ele><time>2026-04-12T09:36:23.26Z</time></trkpt><trkpt lat="45.7218379" lon="10.1090606"><ele>193.0</ele><time>2026-04-12T09:36:24.261Z</time></trkpt><trkpt lat="45.7218658" lon="10.1089568"><ele>191.5</ele><time>2026-04-12T09:36:25.266Z</time></trkpt><trkpt lat="45.7218687" lon="10.1088443"><ele>190.0</ele><time>2026-04-12T09:36:26.261Z</time></trkpt><trkpt lat="45.7218363" lon="10.1087353"><ele>188.5</ele><time>2026-04-12T09:36:27.26Z</time></trkpt><trkpt lat="45.7217744" lon="10.1086441"><ele>187.0</ele><time>2026-04-12T09:36:28.267Z</time></trkpt><trkpt lat="45.7217197" lon="10.1085741"><ele>187.0</ele><time>2026-04-12T09:36:29.271Z</time></trkpt><trkpt lat="45.7216749" lon="10.108458"><ele>187.0</ele><time>2026-04-12T09:36:31.267Z</time></trkpt><trkpt lat="45.7217232" lon="10.1083497"><ele>187.0</ele><time>2026-04-12T09:37:20.261Z</time></trkpt><trkpt lat="45.7218797" lon="10.1081351"><ele>187.0</ele><time>2026-04-12T09:37:23.267Z</time></trkpt><trkpt lat="45.7219444" lon="10.1080407"><ele>188.0</ele><time>2026-04-12T09:37:24.265Z</time></trkpt><trkpt lat="45.7220135" lon="10.1079389"><ele>189.0</ele><time>2026-04-12T09:37:25.267Z</time></trkpt><trkpt lat="45.7220897" lon="10.107826"><ele>190.0</ele><time>2026-04-12T09:37:26.277Z</time></trkpt><trkpt lat="45.7221761" lon="10.1077009"><ele>191.0</ele><time>2026-04-12T09:37:27.277Z</time></trkpt><trkpt lat="45.7222698" lon="10.1075652"><ele>191.0</ele><time>2026-04-12T09:37:28.274Z</time></trkpt><trkpt lat="45.7223723" lon="10.1074232"><ele>191.0</ele><time>2026-04-12T09:37:29.271Z</time></trkpt><trkpt lat="45.7224805" lon="10.1072897"><ele>191.0</ele><time>2026-04-12T09:37:30.265Z</time></trkpt><trkpt lat="45.7225913" lon="10.107168"><ele>191.0</ele><time>2026-04-12T09:37:31.268Z</time></trkpt><trkpt lat="45.7227054" lon="10.1070519"><ele>191.0</ele><time>2026-04-12T09:37:32.265Z</time></trkpt><trkpt lat="45.7228241" lon="10.1069366"><ele>191.0</ele><time>2026-04-12T09:37:33.266Z</time></trkpt><trkpt lat="45.7229448" lon="10.1068278"><ele>191.0</ele><time>2026-04-12T09:37:34.265Z</time></trkpt><trkpt lat="45.7230618" lon="10.1067179"><ele>191.0</ele><time>2026-04-12T09:37:35.269Z</time></trkpt><trkpt lat="45.723179" lon="10.1066024"><ele>191.0</ele><time>2026-04-12T09:37:36.261Z</time></trkpt><trkpt lat="45.7232973" lon="10.1064854"><ele>191.0</ele><time>2026-04-12T09:37:37.267Z</time></trkpt><trkpt lat="45.7234171" lon="10.1063661"><ele>191.0</ele><time>2026-04-12T09:37:38.266Z</time></trkpt><trkpt lat="45.7235348" lon="10.1062469"><ele>191.0</ele><time>2026-04-12T09:37:39.265Z</time></trkpt><trkpt lat="45.7236478" lon="10.106134"><ele>191.0</ele><time>2026-04-12T09:37:40.266Z</time></trkpt><trkpt lat="45.7237591" lon="10.1060239"><ele>191.0</ele><time>2026-04-12T09:37:41.274Z</time></trkpt><trkpt lat="45.7239843" lon="10.1058"><ele>191.0</ele><time>2026-04-12T09:37:43.279Z</time></trkpt><trkpt lat="45.7240996" lon="10.1056884"><ele>191.75</ele><time>2026-04-12T09:37:44.269Z</time></trkpt><trkpt lat="45.7242153" lon="10.1055808"><ele>192.5</ele><time>2026-04-12T09:37:45.271Z</time></trkpt><trkpt lat="45.72433" lon="10.1054692"><ele>193.25</ele><time>2026-04-12T09:37:46.269Z</time></trkpt><trkpt lat="45.7244445" lon="10.1053574"><ele>194.0</ele><time>2026-04-12T09:37:47.263Z</time></trkpt><trkpt lat="45.7245586" lon="10.1052459"><ele>194.0</ele><time>2026-04-12T09:37:48.275Z</time></trkpt><trkpt lat="45.7246702" lon="10.105132"><ele>194.0</ele><time>2026-04-12T09:37:49.273Z</time></trkpt><trkpt lat="45.7247845" lon="10.1050173"><ele>194.0</ele><time>2026-04-12T09:37:50.28Z</time></trkpt><trkpt lat="45.7248993" lon="10.1049049"><ele>194.0</ele><time>2026-04-12T09:37:51.27Z</time></trkpt><trkpt lat="45.7250103" lon="10.1047958"><ele>193.5</ele><time>2026-04-12T09:37:52.279Z</time></trkpt><trkpt lat="45.7251142" lon="10.1046921"><ele>193.0</ele><time>2026-04-12T09:37:53.269Z</time></trkpt><trkpt lat="45.7252118" lon="10.1045959"><ele>192.5</ele><time>2026-04-12T09:37:54.286Z</time></trkpt><trkpt lat="45.725301" lon="10.1045031"><ele>192.0</ele><time>2026-04-12T09:37:55.271Z</time></trkpt><trkpt lat="45.7253842" lon="10.1044174"><ele>191.99999999999997</ele><time>2026-04-12T09:37:56.268Z</time></trkpt><trkpt lat="45.7254574" lon="10.1043428"><ele>192.0</ele><time>2026-04-12T09:37:57.276Z</time></trkpt><trkpt lat="45.7255266" lon="10.1042846"><ele>192.0</ele><time>2026-04-12T09:37:58.279Z</time></trkpt><trkpt lat="45.7255983" lon="10.1042575"><ele>192.0</ele><time>2026-04-12T09:37:59.276Z</time></trkpt><trkpt lat="45.725663" lon="10.1042472"><ele>192.0</ele><time>2026-04-12T09:38:00.279Z</time></trkpt><trkpt lat="45.7257312" lon="10.1042436"><ele>191.99999999999997</ele><time>2026-04-12T09:38:01.278Z</time></trkpt><trkpt lat="45.7257979" lon="10.1042262"><ele>192.0</ele><time>2026-04-12T09:38:02.271Z</time></trkpt><trkpt lat="45.7259358" lon="10.1041484"><ele>192.0</ele><time>2026-04-12T09:38:04.271Z</time></trkpt><trkpt lat="45.726004" lon="10.1040933"><ele>192.0</ele><time>2026-04-12T09:38:05.281Z</time></trkpt><trkpt lat="45.726064" lon="10.1040212"><ele>192.0</ele><time>2026-04-12T09:38:06.269Z</time></trkpt><trkpt lat="45.7261159" lon="10.1039265"><ele>192.0</ele><time>2026-04-12T09:38:07.27Z</time></trkpt><trkpt lat="45.7261626" lon="10.1038172"><ele>192.0</ele><time>2026-04-12T09:38:08.277Z</time></trkpt><trkpt lat="45.7262025" lon="10.103711"><ele>192.0</ele><time>2026-04-12T09:38:09.267Z</time></trkpt><trkpt lat="45.7262365" lon="10.1036181"><ele>195.25</ele><time>2026-04-12T09:38:10.284Z</time></trkpt><trkpt lat="45.7262697" lon="10.1035317"><ele>198.5</ele><time>2026-04-12T09:38:11.265Z</time></trkpt><trkpt lat="45.726317" lon="10.1033911"><ele>201.75</ele><time>2026-04-12T09:38:13.273Z</time></trkpt><trkpt lat="45.7263106" lon="10.103301"><ele>205.0</ele><time>2026-04-12T09:39:04.268Z</time></trkpt><trkpt lat="45.7262187" lon="10.1035895"><ele>205.0</ele><time>2026-04-12T09:39:11.279Z</time></trkpt><trkpt lat="45.7261671" lon="10.1037871"><ele>205.0</ele><time>2026-04-12T09:39:12.266Z</time></trkpt><trkpt lat="45.7260963" lon="10.1039497"><ele>205.0</ele><time>2026-04-12T09:39:13.282Z</time></trkpt><trkpt lat="45.7260338" lon="10.1040644"><ele>205.0</ele><time>2026-04-12T09:39:14.277Z</time></trkpt><trkpt lat="45.7259628" lon="10.1041162"><ele>202.4</ele><time>2026-04-12T09:39:15.269Z</time></trkpt><trkpt lat="45.725867" lon="10.104084"><ele>199.8</ele><time>2026-04-12T09:39:17.268Z</time></trkpt><trkpt lat="45.7258155" lon="10.1039688"><ele>197.2</ele><time>2026-04-12T09:39:19.283Z</time></trkpt><trkpt lat="45.7257743" lon="10.1037885"><ele>194.6</ele><time>2026-04-12T09:39:21.265Z</time></trkpt><trkpt lat="45.7257643" lon="10.1036709"><ele>192.0</ele><time>2026-04-12T09:39:22.266Z</time></trkpt><trkpt lat="45.7257741" lon="10.103554"><ele>191.75</ele><time>2026-04-12T09:39:23.265Z</time></trkpt><trkpt lat="45.7257962" lon="10.1034287"><ele>191.5</ele><time>2026-04-12T09:39:24.269Z</time></trkpt><trkpt lat="45.7258227" lon="10.1032979"><ele>191.25</ele><time>2026-04-12T09:39:25.276Z</time></trkpt><trkpt lat="45.7258553" lon="10.1030427"><ele>191.0</ele><time>2026-04-12T09:39:27.276Z</time></trkpt><trkpt lat="45.7258633" lon="10.1029126"><ele>189.8</ele><time>2026-04-12T09:39:28.268Z</time></trkpt><trkpt lat="45.7258713" lon="10.1027798"><ele>188.60000000000002</ele><time>2026-04-12T09:39:29.275Z</time></trkpt><trkpt lat="45.7258809" lon="10.1026406"><ele>187.4</ele><time>2026-04-12T09:39:30.276Z</time></trkpt><trkpt lat="45.7258894" lon="10.1025027"><ele>186.2</ele><time>2026-04-12T09:39:31.266Z</time></trkpt><trkpt lat="45.7258992" lon="10.1023658"><ele>185.0</ele><time>2026-04-12T09:39:32.276Z</time></trkpt><trkpt lat="45.7259089" lon="10.1022327"><ele>185.0</ele><time>2026-04-12T09:39:33.264Z</time></trkpt><trkpt lat="45.7259195" lon="10.1021023"><ele>185.0</ele><time>2026-04-12T09:39:34.267Z</time></trkpt><trkpt lat="45.7259337" lon="10.1019746"><ele>185.0</ele><time>2026-04-12T09:39:35.264Z</time></trkpt><trkpt lat="45.7259513" lon="10.1018463"><ele>185.0</ele><time>2026-04-12T09:39:36.275Z</time></trkpt><trkpt lat="45.725972" lon="10.1017161"><ele>185.0</ele><time>2026-04-12T09:39:37.267Z</time></trkpt><trkpt lat="45.726" lon="10.1015793"><ele>185.5</ele><time>2026-04-12T09:39:38.274Z</time></trkpt><trkpt lat="45.7260318" lon="10.1014273"><ele>186.0</ele><time>2026-04-12T09:39:39.275Z</time></trkpt><trkpt lat="45.7260735" lon="10.1012691"><ele>186.5</ele><time>2026-04-12T09:39:40.282Z</time></trkpt><trkpt lat="45.7261251" lon="10.1011042"><ele>187.0</ele><time>2026-04-12T09:39:41.279Z</time></trkpt><trkpt lat="45.7261719" lon="10.1009253"><ele>188.75</ele><time>2026-04-12T09:39:42.278Z</time></trkpt><trkpt lat="45.7262188" lon="10.1007437"><ele>190.5</ele><time>2026-04-12T09:39:43.268Z</time></trkpt><trkpt lat="45.7262638" lon="10.1005652"><ele>192.25</ele><time>2026-04-12T09:39:44.275Z</time></trkpt><trkpt lat="45.7263099" lon="10.1003806"><ele>194.0</ele><time>2026-04-12T09:39:45.277Z</time></trkpt><trkpt lat="45.7263613" lon="10.1001909"><ele>192.0</ele><time>2026-04-12T09:39:46.284Z</time></trkpt><trkpt lat="45.7264596" lon="10.099814"><ele>190.0</ele><time>2026-04-12T09:39:48.268Z</time></trkpt><trkpt lat="45.7265027" lon="10.099634"><ele>188.0</ele><time>2026-04-12T09:39:49.267Z</time></trkpt><trkpt lat="45.7265441" lon="10.0994603"><ele>188.0</ele><time>2026-04-12T09:39:50.286Z</time></trkpt><trkpt lat="45.726587" lon="10.0992883"><ele>188.0</ele><time>2026-04-12T09:39:51.277Z</time></trkpt><trkpt lat="45.7266339" lon="10.0991122"><ele>188.0</ele><time>2026-04-12T09:39:52.28Z</time></trkpt><trkpt lat="45.7266858" lon="10.0989343"><ele>188.0</ele><time>2026-04-12T09:39:53.276Z</time></trkpt><trkpt lat="45.7267478" lon="10.0987647"><ele>188.25</ele><time>2026-04-12T09:39:54.275Z</time></trkpt><trkpt lat="45.7268132" lon="10.098606"><ele>188.5</ele><time>2026-04-12T09:39:55.279Z</time></trkpt><trkpt lat="45.726878" lon="10.0984513"><ele>188.75</ele><time>2026-04-12T09:39:56.286Z</time></trkpt><trkpt lat="45.7269396" lon="10.0983083"><ele>189.0</ele><time>2026-04-12T09:39:57.278Z</time></trkpt><trkpt lat="45.7270038" lon="10.0981783"><ele>189.0</ele><time>2026-04-12T09:39:58.283Z</time></trkpt><trkpt lat="45.7270704" lon="10.0980458"><ele>189.0</ele><time>2026-04-12T09:39:59.275Z</time></trkpt><trkpt lat="45.7271432" lon="10.0979111"><ele>189.0</ele><time>2026-04-12T09:40:00.287Z</time></trkpt><trkpt lat="45.7272169" lon="10.0977699"><ele>189.0</ele><time>2026-04-12T09:40:01.289Z</time></trkpt><trkpt lat="45.7272958" lon="10.0976323"><ele>189.0</ele><time>2026-04-12T09:40:02.285Z</time></trkpt><trkpt lat="45.7273798" lon="10.0974987"><ele>189.0</ele><time>2026-04-12T09:40:03.285Z</time></trkpt><trkpt lat="45.7274691" lon="10.0973664"><ele>189.0</ele><time>2026-04-12T09:40:04.277Z</time></trkpt><trkpt lat="45.7275606" lon="10.0972377"><ele>189.0</ele><time>2026-04-12T09:40:05.276Z</time></trkpt><trkpt lat="45.7276517" lon="10.0971146"><ele>190.33333333333331</ele><time>2026-04-12T09:40:06.269Z</time></trkpt><trkpt lat="45.7277422" lon="10.0969971"><ele>191.66666666666666</ele><time>2026-04-12T09:40:07.287Z</time></trkpt><trkpt lat="45.7279238" lon="10.0967656"><ele>193.0</ele><time>2026-04-12T09:40:09.28Z</time></trkpt><trkpt lat="45.7280335" lon="10.0966409"><ele>190.66666666666666</ele><time>2026-04-12T09:40:10.282Z</time></trkpt><trkpt lat="45.7281749" lon="10.0965042"><ele>188.33333333333331</ele><time>2026-04-12T09:40:11.293Z</time></trkpt><trkpt lat="45.7283485" lon="10.0963634"><ele>186.0</ele><time>2026-04-12T09:40:12.282Z</time></trkpt><trkpt lat="45.7285368" lon="10.0961905"><ele>190.5</ele><time>2026-04-12T09:40:13.278Z</time></trkpt><trkpt lat="45.7287234" lon="10.0960009"><ele>195.0</ele><time>2026-04-12T09:40:14.279Z</time></trkpt><trkpt lat="45.7288959" lon="10.0958032"><ele>194.0</ele><time>2026-04-12T09:40:15.287Z</time></trkpt><trkpt lat="45.7290606" lon="10.0956111"><ele>193.0</ele><time>2026-04-12T09:40:16.282Z</time></trkpt><trkpt lat="45.729225" lon="10.0954319"><ele>192.0</ele><time>2026-04-12T09:40:17.278Z</time></trkpt><trkpt lat="45.729402" lon="10.0952737"><ele>192.0</ele><time>2026-04-12T09:40:18.288Z</time></trkpt><trkpt lat="45.7295862" lon="10.0951385"><ele>192.0</ele><time>2026-04-12T09:40:19.274Z</time></trkpt><trkpt lat="45.7297771" lon="10.0950071"><ele>192.0</ele><time>2026-04-12T09:40:20.274Z</time></trkpt><trkpt lat="45.7299755" lon="10.0948689"><ele>190.5</ele><time>2026-04-12T09:40:21.287Z</time></trkpt><trkpt lat="45.7301909" lon="10.0947394"><ele>189.0</ele><time>2026-04-12T09:40:22.281Z</time></trkpt><trkpt lat="45.7304216" lon="10.0946082"><ele>189.0</ele><time>2026-04-12T09:40:23.289Z</time></trkpt><trkpt lat="45.730645" lon="10.0944783"><ele>189.0</ele><time>2026-04-12T09:40:24.28Z</time></trkpt><trkpt lat="45.7308556" lon="10.0943488"><ele>189.0</ele><time>2026-04-12T09:40:25.279Z</time></trkpt><trkpt lat="45.7310472" lon="10.0942192"><ele>189.0</ele><time>2026-04-12T09:40:26.276Z</time></trkpt><trkpt lat="45.7312292" lon="10.0940951"><ele>189.0</ele><time>2026-04-12T09:40:27.283Z</time></trkpt><trkpt lat="45.7314068" lon="10.0939743"><ele>188.5</ele><time>2026-04-12T09:40:28.27Z</time></trkpt><trkpt lat="45.7317425" lon="10.0937577"><ele>188.0</ele><time>2026-04-12T09:40:30.283Z</time></trkpt><trkpt lat="45.7318925" lon="10.0936626"><ele>189.0</ele><time>2026-04-12T09:40:31.273Z</time></trkpt><trkpt lat="45.7320264" lon="10.093576"><ele>190.0</ele><time>2026-04-12T09:40:32.284Z</time></trkpt><trkpt lat="45.7321518" lon="10.0934903"><ele>191.0</ele><time>2026-04-12T09:40:33.285Z</time></trkpt><trkpt lat="45.732279" lon="10.0933996"><ele>192.0</ele><time>2026-04-12T09:40:34.274Z</time></trkpt><trkpt lat="45.7324173" lon="10.0933009"><ele>191.33333333333334</ele><time>2026-04-12T09:40:35.278Z</time></trkpt><trkpt lat="45.7325696" lon="10.0931976"><ele>190.66666666666669</ele><time>2026-04-12T09:40:36.27Z</time></trkpt><trkpt lat="45.7327296" lon="10.0930872"><ele>190.0</ele><time>2026-04-12T09:40:37.283Z</time></trkpt><trkpt lat="45.7328856" lon="10.0929833"><ele>190.0</ele><time>2026-04-12T09:40:38.286Z</time></trkpt><trkpt lat="45.7330354" lon="10.092881"><ele>190.0</ele><time>2026-04-12T09:40:39.277Z</time></trkpt><trkpt lat="45.7331777" lon="10.0927811"><ele>190.0</ele><time>2026-04-12T09:40:40.278Z</time></trkpt><trkpt lat="45.7333221" lon="10.0926823"><ele>190.0</ele><time>2026-04-12T09:40:41.284Z</time></trkpt><trkpt lat="45.7334747" lon="10.0925786"><ele>190.0</ele><time>2026-04-12T09:40:42.266Z</time></trkpt><trkpt lat="45.7336424" lon="10.092469"><ele>190.0</ele><time>2026-04-12T09:40:43.279Z</time></trkpt><trkpt lat="45.7338271" lon="10.0923547"><ele>191.0</ele><time>2026-04-12T09:40:44.278Z</time></trkpt><trkpt lat="45.7340328" lon="10.0922327"><ele>192.0</ele><time>2026-04-12T09:40:45.277Z</time></trkpt><trkpt lat="45.7342543" lon="10.0921084"><ele>192.5</ele><time>2026-04-12T09:40:46.283Z</time></trkpt><trkpt lat="45.734482" lon="10.0920001"><ele>193.0</ele><time>2026-04-12T09:40:47.277Z</time></trkpt><trkpt lat="45.7347008" lon="10.0919264"><ele>193.0</ele><time>2026-04-12T09:40:48.28Z</time></trkpt><trkpt lat="45.7349072" lon="10.0918805"><ele>193.0</ele><time>2026-04-12T09:40:49.283Z</time></trkpt><trkpt lat="45.7352672" lon="10.0918634"><ele>193.0</ele><time>2026-04-12T09:40:51.267Z</time></trkpt><trkpt lat="45.7354261" lon="10.0918734"><ele>193.0</ele><time>2026-04-12T09:40:52.276Z</time></trkpt><trkpt lat="45.7355827" lon="10.0918873"><ele>193.0</ele><time>2026-04-12T09:40:53.279Z</time></trkpt><trkpt lat="45.7357456" lon="10.0919094"><ele>193.0</ele><time>2026-04-12T09:40:54.274Z</time></trkpt><trkpt lat="45.7359131" lon="10.0919398"><ele>193.0</ele><time>2026-04-12T09:40:55.266Z</time></trkpt><trkpt lat="45.7360847" lon="10.0919749"><ele>193.0</ele><time>2026-04-12T09:40:56.288Z</time></trkpt><trkpt lat="45.7362578" lon="10.0920121"><ele>193.0</ele><time>2026-04-12T09:40:57.282Z</time></trkpt><trkpt lat="45.7364305" lon="10.0920488"><ele>193.0</ele><time>2026-04-12T09:40:58.287Z</time></trkpt><trkpt lat="45.7366015" lon="10.0920839"><ele>193.0</ele><time>2026-04-12T09:40:59.27Z</time></trkpt><trkpt lat="45.7367716" lon="10.092113"><ele>192.66666666666666</ele><time>2026-04-12T09:41:00.274Z</time></trkpt><trkpt lat="45.7369431" lon="10.0921364"><ele>192.33333333333331</ele><time>2026-04-12T09:41:01.264Z</time></trkpt><trkpt lat="45.7371189" lon="10.092157"><ele>192.0</ele><time>2026-04-12T09:41:02.268Z</time></trkpt><trkpt lat="45.7373002" lon="10.0921806"><ele>192.0</ele><time>2026-04-12T09:41:03.277Z</time></trkpt><trkpt lat="45.7374799" lon="10.0922053"><ele>192.0</ele><time>2026-04-12T09:41:04.279Z</time></trkpt><trkpt lat="45.7376537" lon="10.0922278"><ele>192.0</ele><time>2026-04-12T09:41:05.274Z</time></trkpt><trkpt lat="45.7378188" lon="10.0922468"><ele>191.66666666666666</ele><time>2026-04-12T09:41:06.27Z</time></trkpt><trkpt lat="45.7379754" lon="10.0922665"><ele>191.33333333333331</ele><time>2026-04-12T09:41:07.278Z</time></trkpt><trkpt lat="45.7381249" lon="10.0922861"><ele>191.0</ele><time>2026-04-12T09:41:08.275Z</time></trkpt><trkpt lat="45.7382701" lon="10.0923054"><ele>191.0</ele><time>2026-04-12T09:41:09.276Z</time></trkpt><trkpt lat="45.738413" lon="10.0923239"><ele>191.0</ele><time>2026-04-12T09:41:10.266Z</time></trkpt><trkpt lat="45.7386927" lon="10.0923592"><ele>191.0</ele><time>2026-04-12T09:41:12.276Z</time></trkpt><trkpt lat="45.7388308" lon="10.0923643"><ele>191.5</ele><time>2026-04-12T09:41:13.273Z</time></trkpt><trkpt lat="45.7389711" lon="10.0923546"><ele>192.0</ele><time>2026-04-12T09:41:14.275Z</time></trkpt><trkpt lat="45.7391092" lon="10.0923242"><ele>192.5</ele><time>2026-04-12T09:41:15.275Z</time></trkpt><trkpt lat="45.7392487" lon="10.0922736"><ele>193.0</ele><time>2026-04-12T09:41:16.268Z</time></trkpt><trkpt lat="45.7393738" lon="10.0922014"><ele>193.0</ele><time>2026-04-12T09:41:17.264Z</time></trkpt><trkpt lat="45.7394962" lon="10.0921089"><ele>193.0</ele><time>2026-04-12T09:41:18.286Z</time></trkpt><trkpt lat="45.7396247" lon="10.0920052"><ele>193.0</ele><time>2026-04-12T09:41:19.268Z</time></trkpt><trkpt lat="45.7397358" lon="10.0919079"><ele>193.0</ele><time>2026-04-12T09:41:20.277Z</time></trkpt><trkpt lat="45.7398481" lon="10.0918257"><ele>193.0</ele><time>2026-04-12T09:41:21.27Z</time></trkpt><trkpt lat="45.7399649" lon="10.0917708"><ele>193.0</ele><time>2026-04-12T09:41:22.268Z</time></trkpt><trkpt lat="45.7400904" lon="10.0917626"><ele>193.0</ele><time>2026-04-12T09:41:23.282Z</time></trkpt><trkpt lat="45.7402265" lon="10.091784"><ele>193.0</ele><time>2026-04-12T09:41:24.276Z</time></trkpt><trkpt lat="45.7403726" lon="10.0918083"><ele>192.33333333333331</ele><time>2026-04-12T09:41:25.275Z</time></trkpt><trkpt lat="45.7405285" lon="10.091837"><ele>191.66666666666666</ele><time>2026-04-12T09:41:26.275Z</time></trkpt><trkpt lat="45.7406926" lon="10.0918625"><ele>191.0</ele><time>2026-04-12T09:41:27.268Z</time></trkpt><trkpt lat="45.7408573" lon="10.0918927"><ele>191.0</ele><time>2026-04-12T09:41:28.273Z</time></trkpt><trkpt lat="45.7410165" lon="10.0919216"><ele>191.0</ele><time>2026-04-12T09:41:29.272Z</time></trkpt><trkpt lat="45.7411675" lon="10.0919502"><ele>191.0</ele><time>2026-04-12T09:41:30.267Z</time></trkpt><trkpt lat="45.7413105" lon="10.0919531"><ele>192.66666666666666</ele><time>2026-04-12T09:41:31.267Z</time></trkpt><trkpt lat="45.7415737" lon="10.0918426"><ele>194.33333333333331</ele><time>2026-04-12T09:41:33.284Z</time></trkpt><trkpt lat="45.741699" lon="10.091718"><ele>196.0</ele><time>2026-04-12T09:41:34.269Z</time></trkpt><trkpt lat="45.7418211" lon="10.0915677"><ele>203.0</ele><time>2026-04-12T09:41:35.285Z</time></trkpt><trkpt lat="45.7419533" lon="10.091413"><ele>210.0</ele><time>2026-04-12T09:41:36.274Z</time></trkpt><trkpt lat="45.7420929" lon="10.0912505"><ele>217.0</ele><time>2026-04-12T09:41:37.263Z</time></trkpt><trkpt lat="45.7422309" lon="10.0911048"><ele>217.0</ele><time>2026-04-12T09:41:38.261Z</time></trkpt><trkpt lat="45.7423693" lon="10.090968"><ele>217.0</ele><time>2026-04-12T09:41:39.257Z</time></trkpt><trkpt lat="45.7425075" lon="10.0909474"><ele>217.0</ele><time>2026-04-12T09:41:40.263Z</time></trkpt><trkpt lat="45.7426542" lon="10.0908379"><ele>215.0</ele><time>2026-04-12T09:41:41.259Z</time></trkpt><trkpt lat="45.7427919" lon="10.0907714"><ele>213.0</ele><time>2026-04-12T09:41:42.263Z</time></trkpt><trkpt lat="45.7429285" lon="10.0907362"><ele>211.0</ele><time>2026-04-12T09:41:43.27Z</time></trkpt><trkpt lat="45.7430891" lon="10.0906867"><ele>209.0</ele><time>2026-04-12T09:41:44.269Z</time></trkpt><trkpt lat="45.7432585" lon="10.0906355"><ele>209.0</ele><time>2026-04-12T09:41:45.269Z</time></trkpt><trkpt lat="45.7434112" lon="10.0905766"><ele>209.0</ele><time>2026-04-12T09:41:46.272Z</time></trkpt><trkpt lat="45.7436017" lon="10.0905029"><ele>209.0</ele><time>2026-04-12T09:41:47.257Z</time></trkpt><trkpt lat="45.743774" lon="10.0904244"><ele>208.66666666666669</ele><time>2026-04-12T09:41:48.267Z</time></trkpt><trkpt lat="45.7439492" lon="10.0903658"><ele>208.33333333333331</ele><time>2026-04-12T09:41:49.274Z</time></trkpt><trkpt lat="45.7441412" lon="10.0902377"><ele>208.0</ele><time>2026-04-12T09:41:50.268Z</time></trkpt><trkpt lat="45.7443335" lon="10.090085"><ele>211.5</ele><time>2026-04-12T09:41:51.279Z</time></trkpt><trkpt lat="45.7445322" lon="10.08998"><ele>215.0</ele><time>2026-04-12T09:41:52.267Z</time></trkpt><trkpt lat="45.7449371" lon="10.0898036"><ele>206.0</ele><time>2026-04-12T09:41:54.269Z</time></trkpt><trkpt lat="45.7451431" lon="10.0897186"><ele>197.0</ele><time>2026-04-12T09:41:55.268Z</time></trkpt><trkpt lat="45.7453376" lon="10.0896249"><ele>188.0</ele><time>2026-04-12T09:41:56.268Z</time></trkpt><trkpt lat="45.7455332" lon="10.089523"><ele>188.0</ele><time>2026-04-12T09:41:57.267Z</time></trkpt><trkpt lat="45.7457315" lon="10.0894159"><ele>188.0</ele><time>2026-04-12T09:41:58.277Z</time></trkpt><trkpt lat="45.7459283" lon="10.0893072"><ele>188.0</ele><time>2026-04-12T09:41:59.265Z</time></trkpt><trkpt lat="45.7461299" lon="10.0891965"><ele>186.33333333333331</ele><time>2026-04-12T09:42:00.266Z</time></trkpt><trkpt lat="45.7463332" lon="10.0890895"><ele>184.66666666666666</ele><time>2026-04-12T09:42:01.263Z</time></trkpt><trkpt lat="45.7465383" lon="10.0889852"><ele>183.0</ele><time>2026-04-12T09:42:02.268Z</time></trkpt><trkpt lat="45.74674" lon="10.0888888"><ele>185.33333333333334</ele><time>2026-04-12T09:42:03.275Z</time></trkpt><trkpt lat="45.746942" lon="10.0887969"><ele>187.66666666666669</ele><time>2026-04-12T09:42:04.267Z</time></trkpt><trkpt lat="45.7471409" lon="10.0887116"><ele>190.0</ele><time>2026-04-12T09:42:05.268Z</time></trkpt><trkpt lat="45.7473407" lon="10.0886305"><ele>190.0</ele><time>2026-04-12T09:42:06.267Z</time></trkpt><trkpt lat="45.7475412" lon="10.088549"><ele>190.0</ele><time>2026-04-12T09:42:07.265Z</time></trkpt><trkpt lat="45.7477388" lon="10.0884644"><ele>190.0</ele><time>2026-04-12T09:42:08.266Z</time></trkpt><trkpt lat="45.747933" lon="10.0883742"><ele>192.0</ele><time>2026-04-12T09:42:09.272Z</time></trkpt><trkpt lat="45.7481221" lon="10.0882676"><ele>194.0</ele><time>2026-04-12T09:42:10.27Z</time></trkpt><trkpt lat="45.7482998" lon="10.088143"><ele>196.0</ele><time>2026-04-12T09:42:11.258Z</time></trkpt><trkpt lat="45.7484687" lon="10.0879938"><ele>193.5</ele><time>2026-04-12T09:42:12.274Z</time></trkpt><trkpt lat="45.7486298" lon="10.0878259"><ele>191.0</ele><time>2026-04-12T09:42:13.266Z</time></trkpt><trkpt lat="45.7489429" lon="10.0875148"><ele>192.66666666666666</ele><time>2026-04-12T09:42:15.273Z</time></trkpt><trkpt lat="45.7490997" lon="10.087364"><ele>194.33333333333331</ele><time>2026-04-12T09:42:16.267Z</time></trkpt><trkpt lat="45.7492668" lon="10.0872165"><ele>196.0</ele><time>2026-04-12T09:42:17.279Z</time></trkpt><trkpt lat="45.7494252" lon="10.0870713"><ele>196.0</ele><time>2026-04-12T09:42:18.274Z</time></trkpt><trkpt lat="45.7495659" lon="10.0869404"><ele>196.0</ele><time>2026-04-12T09:42:19.267Z</time></trkpt><trkpt lat="45.7496848" lon="10.0868252"><ele>196.0</ele><time>2026-04-12T09:42:20.259Z</time></trkpt><trkpt lat="45.7497843" lon="10.0867283"><ele>196.0</ele><time>2026-04-12T09:42:21.277Z</time></trkpt><trkpt lat="45.7498655" lon="10.0866567"><ele>196.0</ele><time>2026-04-12T09:42:22.266Z</time></trkpt><trkpt lat="45.7499271" lon="10.0866004"><ele>196.0</ele><time>2026-04-12T09:42:23.285Z</time></trkpt><trkpt lat="45.7499863" lon="10.0865358"><ele>196.0</ele><time>2026-04-12T09:42:25.265Z</time></trkpt><trkpt lat="45.7500583" lon="10.0864326"><ele>196.0</ele><time>2026-04-12T09:45:32.266Z</time></trkpt><trkpt lat="45.7501962" lon="10.0862732"><ele>196.0</ele><time>2026-04-12T09:45:34.269Z</time></trkpt><trkpt lat="45.7502848" lon="10.0861817"><ele>197.25</ele><time>2026-04-12T09:45:35.274Z</time></trkpt><trkpt lat="45.7503854" lon="10.0860764"><ele>198.5</ele><time>2026-04-12T09:45:36.269Z</time></trkpt><trkpt lat="45.7504949" lon="10.0859591"><ele>199.75</ele><time>2026-04-12T09:45:37.257Z</time></trkpt><trkpt lat="45.7506105" lon="10.085837"><ele>201.0</ele><time>2026-04-12T09:45:38.273Z</time></trkpt><trkpt lat="45.7507276" lon="10.0857167"><ele>199.0</ele><time>2026-04-12T09:45:39.268Z</time></trkpt><trkpt lat="45.7508521" lon="10.0855932"><ele>197.0</ele><time>2026-04-12T09:45:40.275Z</time></trkpt><trkpt lat="45.7509833" lon="10.0854645"><ele>195.0</ele><time>2026-04-12T09:45:41.269Z</time></trkpt><trkpt lat="45.7511213" lon="10.0853274"><ele>195.0</ele><time>2026-04-12T09:45:42.267Z</time></trkpt><trkpt lat="45.7512667" lon="10.0851891"><ele>195.0</ele><time>2026-04-12T09:45:43.261Z</time></trkpt><trkpt lat="45.751414" lon="10.0850569"><ele>195.0</ele><time>2026-04-12T09:45:44.267Z</time></trkpt><trkpt lat="45.7515622" lon="10.0849346"><ele>197.33333333333331</ele><time>2026-04-12T09:45:45.265Z</time></trkpt><trkpt lat="45.7517155" lon="10.0848183"><ele>199.66666666666666</ele><time>2026-04-12T09:45:46.268Z</time></trkpt><trkpt lat="45.7518739" lon="10.0847038"><ele>202.0</ele><time>2026-04-12T09:45:47.264Z</time></trkpt><trkpt lat="45.7520355" lon="10.0845913"><ele>202.0</ele><time>2026-04-12T09:45:48.266Z</time></trkpt><trkpt lat="45.7522022" lon="10.0844778"><ele>202.0</ele><time>2026-04-12T09:45:49.263Z</time></trkpt><trkpt lat="45.7523711" lon="10.0843569"><ele>202.0</ele><time>2026-04-12T09:45:50.262Z</time></trkpt><trkpt lat="45.7525376" lon="10.0842297"><ele>204.33333333333331</ele><time>2026-04-12T09:45:51.262Z</time></trkpt><trkpt lat="45.7527046" lon="10.0840959"><ele>206.66666666666669</ele><time>2026-04-12T09:45:52.268Z</time></trkpt><trkpt lat="45.7528685" lon="10.0839607"><ele>209.0</ele><time>2026-04-12T09:45:53.263Z</time></trkpt><trkpt lat="45.7531978" lon="10.0836963"><ele>209.0</ele><time>2026-04-12T09:45:55.258Z</time></trkpt><trkpt lat="45.7533641" lon="10.083562"><ele>209.0</ele><time>2026-04-12T09:45:56.264Z</time></trkpt><trkpt lat="45.7535282" lon="10.083423"><ele>209.0</ele><time>2026-04-12T09:45:57.267Z</time></trkpt><trkpt lat="45.7536857" lon="10.0832807"><ele>208.33333333333334</ele><time>2026-04-12T09:45:58.264Z</time></trkpt><trkpt lat="45.7538453" lon="10.0831407"><ele>207.66666666666669</ele><time>2026-04-12T09:45:59.26Z</time></trkpt><trkpt lat="45.7539929" lon="10.0829763"><ele>207.0</ele><time>2026-04-12T09:46:00.264Z</time></trkpt><trkpt lat="45.7541383" lon="10.0828182"><ele>207.0</ele><time>2026-04-12T09:46:01.265Z</time></trkpt><trkpt lat="45.7542728" lon="10.0826744"><ele>207.0</ele><time>2026-04-12T09:46:02.267Z</time></trkpt><trkpt lat="45.7543859" lon="10.0825217"><ele>207.0</ele><time>2026-04-12T09:46:03.277Z</time></trkpt><trkpt lat="45.7544714" lon="10.0823748"><ele>209.6</ele><time>2026-04-12T09:46:04.273Z</time></trkpt><trkpt lat="45.7545372" lon="10.0822442"><ele>212.2</ele><time>2026-04-12T09:46:05.265Z</time></trkpt><trkpt lat="45.7545904" lon="10.0821339"><ele>214.8</ele><time>2026-04-12T09:46:06.261Z</time></trkpt><trkpt lat="45.7546324" lon="10.0820485"><ele>217.4</ele><time>2026-04-12T09:46:07.264Z</time></trkpt><trkpt lat="45.7546791" lon="10.0819385"><ele>220.0</ele><time>2026-04-12T09:46:09.264Z</time></trkpt><trkpt lat="45.7547249" lon="10.0818291"><ele>220.0</ele><time>2026-04-12T09:46:11.282Z</time></trkpt><trkpt lat="45.7547558" lon="10.0817475"><ele>220.0</ele><time>2026-04-12T09:46:12.273Z</time></trkpt><trkpt lat="45.7547924" lon="10.0816526"><ele>220.0</ele><time>2026-04-12T09:46:13.275Z</time></trkpt><trkpt lat="45.7548349" lon="10.0815503"><ele>220.0</ele><time>2026-04-12T09:46:14.274Z</time></trkpt><trkpt lat="45.7549369" lon="10.0813207"><ele>220.0</ele><time>2026-04-12T09:46:16.285Z</time></trkpt><trkpt lat="45.7549983" lon="10.0811947"><ele>216.75</ele><time>2026-04-12T09:46:17.27Z</time></trkpt><trkpt lat="45.7550686" lon="10.0810654"><ele>213.5</ele><time>2026-04-12T09:46:18.274Z</time></trkpt><trkpt lat="45.7551444" lon="10.080938"><ele>210.25</ele><time>2026-04-12T09:46:19.267Z</time></trkpt><trkpt lat="45.755225" lon="10.0808184"><ele>207.0</ele><time>2026-04-12T09:46:20.283Z</time></trkpt><trkpt lat="45.7553133" lon="10.0806971"><ele>207.0</ele><time>2026-04-12T09:46:21.272Z</time></trkpt><trkpt lat="45.755409" lon="10.0805774"><ele>207.0</ele><time>2026-04-12T09:46:22.266Z</time></trkpt><trkpt lat="45.7555128" lon="10.0804557"><ele>207.0</ele><time>2026-04-12T09:46:23.273Z</time></trkpt><trkpt lat="45.7556269" lon="10.0803327"><ele>207.0</ele><time>2026-04-12T09:46:24.275Z</time></trkpt><trkpt lat="45.7557488" lon="10.0802121"><ele>207.0</ele><time>2026-04-12T09:46:25.281Z</time></trkpt><trkpt lat="45.7558748" lon="10.0800971"><ele>207.0</ele><time>2026-04-12T09:46:26.268Z</time></trkpt><trkpt lat="45.7560021" lon="10.0799875"><ele>207.0</ele><time>2026-04-12T09:46:27.27Z</time></trkpt><trkpt lat="45.7561308" lon="10.0798791"><ele>207.0</ele><time>2026-04-12T09:46:28.283Z</time></trkpt><trkpt lat="45.7562607" lon="10.0797655"><ele>205.5</ele><time>2026-04-12T09:46:29.267Z</time></trkpt><trkpt lat="45.7563869" lon="10.0796508"><ele>204.0</ele><time>2026-04-12T09:46:30.285Z</time></trkpt><trkpt lat="45.7565023" lon="10.0795447"><ele>202.5</ele><time>2026-04-12T09:46:31.283Z</time></trkpt><trkpt lat="45.7566022" lon="10.0794568"><ele>201.0</ele><time>2026-04-12T09:46:32.271Z</time></trkpt><trkpt lat="45.7566918" lon="10.0793875"><ele>201.0</ele><time>2026-04-12T09:46:33.275Z</time></trkpt><trkpt lat="45.7567693" lon="10.0793389"><ele>201.0</ele><time>2026-04-12T09:46:34.282Z</time></trkpt><trkpt lat="45.7568364" lon="10.0793092"><ele>201.0</ele><time>2026-04-12T09:46:35.272Z</time></trkpt><trkpt lat="45.7569842" lon="10.0792641"><ele>201.0</ele><time>2026-04-12T09:46:38.271Z</time></trkpt><trkpt lat="45.7569947" lon="10.0791628"><ele>201.0</ele><time>2026-04-12T09:46:41.28Z</time></trkpt><trkpt lat="45.7569209" lon="10.0791226"><ele>201.0</ele><time>2026-04-12T09:46:43.267Z</time></trkpt><trkpt lat="45.7568001" lon="10.0791943"><ele>201.0</ele><time>2026-04-12T09:46:45.273Z</time></trkpt><trkpt lat="45.7567188" lon="10.079273"><ele>201.0</ele><time>2026-04-12T09:46:46.277Z</time></trkpt><trkpt lat="45.7566285" lon="10.0793674"><ele>201.0</ele><time>2026-04-12T09:46:47.283Z</time></trkpt><trkpt lat="45.7565302" lon="10.0794671"><ele>201.0</ele><time>2026-04-12T09:46:48.28Z</time></trkpt><trkpt lat="45.7564082" lon="10.0795723"><ele>201.0</ele><time>2026-04-12T09:46:49.277Z</time></trkpt><trkpt lat="45.7562906" lon="10.0796894"><ele>201.0</ele><time>2026-04-12T09:46:50.281Z</time></trkpt><trkpt lat="45.7561711" lon="10.0798062"><ele>201.0</ele><time>2026-04-12T09:46:51.278Z</time></trkpt><trkpt lat="45.7560463" lon="10.0799187"><ele>203.0</ele><time>2026-04-12T09:46:52.279Z</time></trkpt><trkpt lat="45.7559186" lon="10.080034"><ele>205.0</ele><time>2026-04-12T09:46:53.268Z</time></trkpt><trkpt lat="45.7557855" lon="10.0801548"><ele>207.0</ele><time>2026-04-12T09:46:54.277Z</time></trkpt><trkpt lat="45.75565" lon="10.0802782"><ele>207.0</ele><time>2026-04-12T09:46:55.27Z</time></trkpt><trkpt lat="45.7555162" lon="10.080403"><ele>207.0</ele><time>2026-04-12T09:46:56.267Z</time></trkpt><trkpt lat="45.7552829" lon="10.0806718"><ele>206.0</ele><time>2026-04-12T09:46:58.282Z</time></trkpt><trkpt lat="45.7551809" lon="10.0808164"><ele>205.0</ele><time>2026-04-12T09:46:59.265Z</time></trkpt><trkpt lat="45.7550812" lon="10.0809702"><ele>204.0</ele><time>2026-04-12T09:47:00.278Z</time></trkpt><trkpt lat="45.7549843" lon="10.081126"><ele>203.0</ele><time>2026-04-12T09:47:01.283Z</time></trkpt><trkpt lat="45.7548973" lon="10.0812825"><ele>203.0</ele><time>2026-04-12T09:47:02.274Z</time></trkpt><trkpt lat="45.7548214" lon="10.0814395"><ele>203.0</ele><time>2026-04-12T09:47:03.269Z</time></trkpt><trkpt lat="45.7547575" lon="10.0815906"><ele>203.0</ele><time>2026-04-12T09:47:04.275Z</time></trkpt><trkpt lat="45.7547082" lon="10.0817195"><ele>203.0</ele><time>2026-04-12T09:47:05.267Z</time></trkpt><trkpt lat="45.7546713" lon="10.0818245"><ele>203.0</ele><time>2026-04-12T09:47:06.275Z</time></trkpt><trkpt lat="45.7546545" lon="10.0819733"><ele>206.4</ele><time>2026-04-12T09:47:08.261Z</time></trkpt><trkpt lat="45.7547377" lon="10.0820643"><ele>209.8</ele><time>2026-04-12T09:47:10.265Z</time></trkpt><trkpt lat="45.754801" lon="10.0820583"><ele>213.2</ele><time>2026-04-12T09:47:11.272Z</time></trkpt><trkpt lat="45.7549289" lon="10.0820938"><ele>216.6</ele><time>2026-04-12T09:47:13.264Z</time></trkpt><trkpt lat="45.7550228" lon="10.0821297"><ele>220.0</ele><time>2026-04-12T09:47:14.267Z</time></trkpt><trkpt lat="45.7551278" lon="10.0821812"><ele>230.25</ele><time>2026-04-12T09:47:15.258Z</time></trkpt><trkpt lat="45.755238" lon="10.0822467"><ele>240.5</ele><time>2026-04-12T09:47:16.267Z</time></trkpt><trkpt lat="45.7553442" lon="10.0823076"><ele>250.75</ele><time>2026-04-12T09:47:17.261Z</time></trkpt><trkpt lat="45.7555197" lon="10.0823365"><ele>261.0</ele><time>2026-04-12T09:47:19.253Z</time></trkpt><trkpt lat="45.7556224" lon="10.0823051"><ele>261.0</ele><time>2026-04-12T09:47:20.25Z</time></trkpt><trkpt lat="45.75573" lon="10.0822476"><ele>261.0</ele><time>2026-04-12T09:47:21.256Z</time></trkpt><trkpt lat="45.7558341" lon="10.0821616"><ele>261.0</ele><time>2026-04-12T09:47:22.25Z</time></trkpt><trkpt lat="45.7559302" lon="10.0820528"><ele>261.0</ele><time>2026-04-12T09:47:23.252Z</time></trkpt><trkpt lat="45.75602" lon="10.0819368"><ele>265.0</ele><time>2026-04-12T09:47:24.254Z</time></trkpt><trkpt lat="45.7561077" lon="10.0818249"><ele>269.0</ele><time>2026-04-12T09:47:25.251Z</time></trkpt><trkpt lat="45.7561864" lon="10.0817276"><ele>273.0</ele><time>2026-04-12T09:47:26.253Z</time></trkpt><trkpt lat="45.7562573" lon="10.0816398"><ele>277.0</ele><time>2026-04-12T09:47:27.255Z</time></trkpt><trkpt lat="45.7563256" lon="10.0815547"><ele>281.0</ele><time>2026-04-12T09:47:28.255Z</time></trkpt><trkpt lat="45.7563913" lon="10.0814722"><ele>281.0</ele><time>2026-04-12T09:47:29.25Z</time></trkpt><trkpt lat="45.7564493" lon="10.0813984"><ele>281.0</ele><time>2026-04-12T09:47:30.25Z</time></trkpt><trkpt lat="45.7565009" lon="10.0813327"><ele>281.0</ele><time>2026-04-12T09:47:31.248Z</time></trkpt><trkpt lat="45.7565779" lon="10.0812329"><ele>281.0</ele><time>2026-04-12T09:47:33.246Z</time></trkpt><trkpt lat="45.7566671" lon="10.0811276"><ele>281.0</ele><time>2026-04-12T09:47:34.247Z</time></trkpt><trkpt lat="45.7568087" lon="10.0809422"><ele>286.0</ele><time>2026-04-12T09:47:35.249Z</time></trkpt><trkpt lat="45.7569021" lon="10.0807777"><ele>291.0</ele><time>2026-04-12T09:47:36.243Z</time></trkpt><trkpt lat="45.7569422" lon="10.0806487"><ele>296.0</ele><time>2026-04-12T09:47:37.249Z</time></trkpt><trkpt lat="45.7569432" lon="10.0805519"><ele>301.0</ele><time>2026-04-12T09:47:38.244Z</time></trkpt><trkpt lat="45.7572318" lon="10.0794697"><ele>226.0</ele><time>2026-04-12T09:47:43.266Z</time></trkpt><trkpt lat="45.757735" lon="10.078704"><ele>226.0</ele><time>2026-04-12T09:47:44.264Z</time></trkpt><trkpt lat="45.7579086" lon="10.0784637"><ele>226.0</ele><time>2026-04-12T09:47:45.261Z</time></trkpt><trkpt lat="45.7580311" lon="10.0782484"><ele>226.0</ele><time>2026-04-12T09:47:46.263Z</time></trkpt><trkpt lat="45.7581012" lon="10.078159"><ele>222.0</ele><time>2026-04-12T09:47:47.269Z</time></trkpt><trkpt lat="45.7582389" lon="10.078076"><ele>218.0</ele><time>2026-04-12T09:47:48.263Z</time></trkpt><trkpt lat="45.7583445" lon="10.0779686"><ele>214.0</ele><time>2026-04-12T09:47:49.261Z</time></trkpt><trkpt lat="45.7584535" lon="10.0778242"><ele>210.0</ele><time>2026-04-12T09:47:50.261Z</time></trkpt><trkpt lat="45.7585721" lon="10.0776585"><ele>220.33333333333331</ele><time>2026-04-12T09:47:51.27Z</time></trkpt><trkpt lat="45.7586896" lon="10.0774597"><ele>230.66666666666666</ele><time>2026-04-12T09:47:52.274Z</time></trkpt><trkpt lat="45.7588073" lon="10.0772608"><ele>241.0</ele><time>2026-04-12T09:47:53.265Z</time></trkpt><trkpt lat="45.7589254" lon="10.0770778"><ele>211.0</ele><time>2026-04-12T09:47:54.265Z</time></trkpt><trkpt lat="45.7622431" lon="10.0748095"><ele>211.0</ele><time>2026-04-12T09:48:14.265Z</time></trkpt><trkpt lat="45.7625189" lon="10.0746391"><ele>211.0</ele><time>2026-04-12T09:48:16.267Z</time></trkpt><trkpt lat="45.7626787" lon="10.0745079"><ele>220.66666666666666</ele><time>2026-04-12T09:48:17.278Z</time></trkpt><trkpt lat="45.7628313" lon="10.0744132"><ele>230.33333333333331</ele><time>2026-04-12T09:48:18.267Z</time></trkpt><trkpt lat="45.7629692" lon="10.0743244"><ele>240.0</ele><time>2026-04-12T09:48:19.269Z</time></trkpt><trkpt lat="45.7631878" lon="10.0742952"><ele>240.0</ele><time>2026-04-12T09:48:20.267Z</time></trkpt><trkpt lat="45.7633342" lon="10.0742238"><ele>240.0</ele><time>2026-04-12T09:48:21.265Z</time></trkpt><trkpt lat="45.7634933" lon="10.0741492"><ele>240.0</ele><time>2026-04-12T09:48:22.265Z</time></trkpt><trkpt lat="45.7636598" lon="10.0740666"><ele>241.5</ele><time>2026-04-12T09:48:23.266Z</time></trkpt><trkpt lat="45.7638325" lon="10.0739748"><ele>243.0</ele><time>2026-04-12T09:48:24.272Z</time></trkpt><trkpt lat="45.763835" lon="10.0738826"><ele>244.5</ele><time>2026-04-12T09:48:25.266Z</time></trkpt><trkpt lat="45.7639899" lon="10.0737971"><ele>246.0</ele><time>2026-04-12T09:48:26.267Z</time></trkpt><trkpt lat="45.7688226" lon="10.0698804"><ele>249.0</ele><time>2026-04-12T09:48:59.26Z</time></trkpt><trkpt lat="45.7690461" lon="10.0694044"><ele>252.0</ele><time>2026-04-12T09:49:01.261Z</time></trkpt><trkpt lat="45.7691836" lon="10.0691522"><ele>246.66666666666669</ele><time>2026-04-12T09:49:02.265Z</time></trkpt><trkpt lat="45.7693651" lon="10.0690583"><ele>241.33333333333334</ele><time>2026-04-12T09:49:03.277Z</time></trkpt><trkpt lat="45.7695192" lon="10.0689511"><ele>236.0</ele><time>2026-04-12T09:49:04.28Z</time></trkpt><trkpt lat="45.7696732" lon="10.0688875"><ele>236.0</ele><time>2026-04-12T09:49:05.279Z</time></trkpt><trkpt lat="45.7698369" lon="10.0688324"><ele>236.0</ele><time>2026-04-12T09:49:06.283Z</time></trkpt><trkpt lat="45.7700008" lon="10.0687958"><ele>236.0</ele><time>2026-04-12T09:49:07.262Z</time></trkpt><trkpt lat="45.7701495" lon="10.068753"><ele>236.5</ele><time>2026-04-12T09:49:08.266Z</time></trkpt><trkpt lat="45.7702909" lon="10.0687126"><ele>237.0</ele><time>2026-04-12T09:49:09.275Z</time></trkpt><trkpt lat="45.7704293" lon="10.0686797"><ele>237.5</ele><time>2026-04-12T09:49:10.279Z</time></trkpt><trkpt lat="45.7705681" lon="10.0686568"><ele>238.0</ele><time>2026-04-12T09:49:11.278Z</time></trkpt><trkpt lat="45.7707066" lon="10.0686376"><ele>238.0</ele><time>2026-04-12T09:49:12.28Z</time></trkpt><trkpt lat="45.7708475" lon="10.0686231"><ele>238.0</ele><time>2026-04-12T09:49:13.29Z</time></trkpt><trkpt lat="45.7709922" lon="10.0686141"><ele>238.0</ele><time>2026-04-12T09:49:14.281Z</time></trkpt><trkpt lat="45.7711435" lon="10.0686164"><ele>238.0</ele><time>2026-04-12T09:49:15.27Z</time></trkpt><trkpt lat="45.771287" lon="10.0686247"><ele>239.4</ele><time>2026-04-12T09:49:16.277Z</time></trkpt><trkpt lat="45.7714113" lon="10.0686409"><ele>240.8</ele><time>2026-04-12T09:49:17.265Z</time></trkpt><trkpt lat="45.7715178" lon="10.0686643"><ele>242.2</ele><time>2026-04-12T09:49:18.278Z</time></trkpt><trkpt lat="45.7716198" lon="10.0686984"><ele>243.6</ele><time>2026-04-12T09:49:19.266Z</time></trkpt><trkpt lat="45.7717125" lon="10.0687254"><ele>245.0</ele><time>2026-04-12T09:49:20.271Z</time></trkpt><trkpt lat="45.7718819" lon="10.0687586"><ele>249.75</ele><time>2026-04-12T09:49:22.267Z</time></trkpt><trkpt lat="45.7719766" lon="10.06879"><ele>254.5</ele><time>2026-04-12T09:49:23.268Z</time></trkpt><trkpt lat="45.772097" lon="10.0688342"><ele>259.25</ele><time>2026-04-12T09:49:24.265Z</time></trkpt><trkpt lat="45.7722382" lon="10.0688922"><ele>264.0</ele><time>2026-04-12T09:49:25.255Z</time></trkpt><trkpt lat="45.7723986" lon="10.0689614"><ele>264.0</ele><time>2026-04-12T09:49:26.254Z</time></trkpt><trkpt lat="45.7725791" lon="10.0690414"><ele>264.0</ele><time>2026-04-12T09:49:27.266Z</time></trkpt><trkpt lat="45.7727654" lon="10.0691318"><ele>264.0</ele><time>2026-04-12T09:49:28.264Z</time></trkpt><trkpt lat="45.7729634" lon="10.0692414"><ele>275.0</ele><time>2026-04-12T09:49:29.26Z</time></trkpt><trkpt lat="45.7731691" lon="10.0693608"><ele>286.0</ele><time>2026-04-12T09:49:30.26Z</time></trkpt><trkpt lat="45.7733365" lon="10.0694413"><ele>297.0</ele><time>2026-04-12T09:49:31.254Z</time></trkpt><trkpt lat="45.7734979" lon="10.0695182"><ele>288.3333333333333</ele><time>2026-04-12T09:49:32.269Z</time></trkpt><trkpt lat="45.7736436" lon="10.0695852"><ele>279.66666666666663</ele><time>2026-04-12T09:49:33.258Z</time></trkpt><trkpt lat="45.7737841" lon="10.0696536"><ele>271.0</ele><time>2026-04-12T09:49:34.26Z</time></trkpt><trkpt lat="45.773926" lon="10.069731"><ele>271.0</ele><time>2026-04-12T09:49:35.258Z</time></trkpt><trkpt lat="45.7740673" lon="10.0698293"><ele>271.0</ele><time>2026-04-12T09:49:36.265Z</time></trkpt><trkpt lat="45.7742046" lon="10.0699402"><ele>271.0</ele><time>2026-04-12T09:49:37.259Z</time></trkpt><trkpt lat="45.7743375" lon="10.0700633"><ele>277.66666666666663</ele><time>2026-04-12T09:49:38.247Z</time></trkpt><trkpt lat="45.7744667" lon="10.0701983"><ele>284.3333333333333</ele><time>2026-04-12T09:49:39.254Z</time></trkpt><trkpt lat="45.7745876" lon="10.0703373"><ele>291.0</ele><time>2026-04-12T09:49:40.251Z</time></trkpt><trkpt lat="45.7757156" lon="10.071389"><ele>279.3333333333333</ele><time>2026-04-12T09:49:48.262Z</time></trkpt><trkpt lat="45.7759549" lon="10.0716432"><ele>267.66666666666663</ele><time>2026-04-12T09:49:50.262Z</time></trkpt><trkpt lat="45.7760393" lon="10.0717338"><ele>256.0</ele><time>2026-04-12T09:49:51.264Z</time></trkpt><trkpt lat="45.7761207" lon="10.0718176"><ele>252.57142857142856</ele><time>2026-04-12T09:49:52.254Z</time></trkpt><trkpt lat="45.7761905" lon="10.0718796"><ele>249.1428571428571</ele><time>2026-04-12T09:49:53.252Z</time></trkpt><trkpt lat="45.7762579" lon="10.0719288"><ele>245.71428571428572</ele><time>2026-04-12T09:49:54.253Z</time></trkpt><trkpt lat="45.7763251" lon="10.0719681"><ele>242.28571428571428</ele><time>2026-04-12T09:49:55.254Z</time></trkpt><trkpt lat="45.7763886" lon="10.0719986"><ele>238.85714285714286</ele><time>2026-04-12T09:49:56.258Z</time></trkpt><trkpt lat="45.7764503" lon="10.0720237"><ele>235.42857142857144</ele><time>2026-04-12T09:49:57.252Z</time></trkpt><trkpt lat="45.7765139" lon="10.072046"><ele>232.00000000000003</ele><time>2026-04-12T09:49:58.253Z</time></trkpt><trkpt lat="45.7765857" lon="10.0720669"><ele>231.99999999999997</ele><time>2026-04-12T09:49:59.255Z</time></trkpt><trkpt lat="45.7766597" lon="10.0720837"><ele>232.0</ele><time>2026-04-12T09:50:00.248Z</time></trkpt><trkpt lat="45.7767614" lon="10.0720951"><ele>232.0</ele><time>2026-04-12T09:50:02.255Z</time></trkpt><trkpt lat="45.7768387" lon="10.0721044"><ele>232.0</ele><time>2026-04-12T09:50:04.255Z</time></trkpt><trkpt lat="45.7769029" lon="10.0721132"><ele>231.99999999999997</ele><time>2026-04-12T09:50:06.245Z</time></trkpt><trkpt lat="45.7769733" lon="10.0721225"><ele>232.0</ele><time>2026-04-12T09:50:08.25Z</time></trkpt><trkpt lat="45.7837277" lon="10.0794411"><ele>213.5</ele><time>2026-04-12T09:50:55.261Z</time></trkpt><trkpt lat="45.7838933" lon="10.0798455"><ele>195.0</ele><time>2026-04-12T09:50:57.261Z</time></trkpt><trkpt lat="45.7838287" lon="10.0800626"><ele>192.75</ele><time>2026-04-12T09:50:58.264Z</time></trkpt><trkpt lat="45.7838547" lon="10.080252"><ele>190.5</ele><time>2026-04-12T09:50:59.266Z</time></trkpt><trkpt lat="45.7838984" lon="10.080427"><ele>188.25</ele><time>2026-04-12T09:51:00.263Z</time></trkpt><trkpt lat="45.7839432" lon="10.0805837"><ele>186.0</ele><time>2026-04-12T09:51:01.264Z</time></trkpt><trkpt lat="45.7840167" lon="10.0807514"><ele>188.66666666666669</ele><time>2026-04-12T09:51:02.263Z</time></trkpt><trkpt lat="45.7841669" lon="10.0808979"><ele>191.33333333333334</ele><time>2026-04-12T09:51:03.268Z</time></trkpt><trkpt lat="45.7842476" lon="10.0810532"><ele>194.0</ele><time>2026-04-12T09:51:04.264Z</time></trkpt><trkpt lat="45.7843411" lon="10.0812036"><ele>191.75</ele><time>2026-04-12T09:51:05.275Z</time></trkpt><trkpt lat="45.7844393" lon="10.0813529"><ele>189.5</ele><time>2026-04-12T09:51:06.273Z</time></trkpt><trkpt lat="45.784537" lon="10.081507"><ele>187.25</ele><time>2026-04-12T09:51:07.278Z</time></trkpt><trkpt lat="45.7846329" lon="10.0816617"><ele>185.0</ele><time>2026-04-12T09:51:08.276Z</time></trkpt><trkpt lat="45.7847244" lon="10.0818178"><ele>185.0</ele><time>2026-04-12T09:51:09.265Z</time></trkpt><trkpt lat="45.7847939" lon="10.0819742"><ele>185.0</ele><time>2026-04-12T09:51:10.263Z</time></trkpt><trkpt lat="45.7848544" lon="10.0821348"><ele>185.0</ele><time>2026-04-12T09:51:11.279Z</time></trkpt><trkpt lat="45.7849245" lon="10.0823067"><ele>185.0</ele><time>2026-04-12T09:51:12.273Z</time></trkpt><trkpt lat="45.7849892" lon="10.0824907"><ele>184.25</ele><time>2026-04-12T09:51:13.266Z</time></trkpt><trkpt lat="45.7850449" lon="10.0826861"><ele>183.5</ele><time>2026-04-12T09:51:14.269Z</time></trkpt><trkpt lat="45.7850986" lon="10.0828861"><ele>182.75</ele><time>2026-04-12T09:51:15.278Z</time></trkpt><trkpt lat="45.7851479" lon="10.0830859"><ele>182.0</ele><time>2026-04-12T09:51:16.272Z</time></trkpt><trkpt lat="45.7852397" lon="10.0834871"><ele>182.0</ele><time>2026-04-12T09:51:18.277Z</time></trkpt><trkpt lat="45.7852877" lon="10.0836808"><ele>182.0</ele><time>2026-04-12T09:51:19.268Z</time></trkpt><trkpt lat="45.7853448" lon="10.0838711"><ele>182.0</ele><time>2026-04-12T09:51:20.273Z</time></trkpt><trkpt lat="45.7854132" lon="10.0840556"><ele>182.0</ele><time>2026-04-12T09:51:21.266Z</time></trkpt><trkpt lat="45.7854935" lon="10.0842316"><ele>182.25</ele><time>2026-04-12T09:51:22.28Z</time></trkpt><trkpt lat="45.7855715" lon="10.0844046"><ele>182.5</ele><time>2026-04-12T09:51:23.278Z</time></trkpt><trkpt lat="45.7856501" lon="10.0845788"><ele>182.75</ele><time>2026-04-12T09:51:24.283Z</time></trkpt><trkpt lat="45.7857232" lon="10.0847603"><ele>183.0</ele><time>2026-04-12T09:51:25.277Z</time></trkpt><trkpt lat="45.7857867" lon="10.0849529"><ele>185.0</ele><time>2026-04-12T09:51:26.269Z</time></trkpt><trkpt lat="45.7858381" lon="10.0851529"><ele>187.0</ele><time>2026-04-12T09:51:27.277Z</time></trkpt><trkpt lat="45.7858762" lon="10.0853659"><ele>189.0</ele><time>2026-04-12T09:51:28.276Z</time></trkpt><trkpt lat="45.785911" lon="10.0855825"><ele>191.33333333333331</ele><time>2026-04-12T09:51:29.268Z</time></trkpt><trkpt lat="45.7859392" lon="10.0858016"><ele>193.66666666666666</ele><time>2026-04-12T09:51:30.277Z</time></trkpt><trkpt lat="45.7859657" lon="10.0860267"><ele>196.0</ele><time>2026-04-12T09:51:31.277Z</time></trkpt><trkpt lat="45.7859824" lon="10.0862626"><ele>196.0</ele><time>2026-04-12T09:51:32.26Z</time></trkpt><trkpt lat="45.7859938" lon="10.086507"><ele>196.0</ele><time>2026-04-12T09:51:33.266Z</time></trkpt><trkpt lat="45.7860139" lon="10.086738"><ele>196.0</ele><time>2026-04-12T09:51:34.273Z</time></trkpt><trkpt lat="45.7860313" lon="10.0869679"><ele>196.33333333333331</ele><time>2026-04-12T09:51:35.264Z</time></trkpt><trkpt lat="45.7860504" lon="10.0872021"><ele>196.66666666666669</ele><time>2026-04-12T09:51:36.269Z</time></trkpt><trkpt lat="45.7860725" lon="10.0874331"><ele>197.0</ele><time>2026-04-12T09:51:37.26Z</time></trkpt><trkpt lat="45.7861585" lon="10.0878699"><ele>197.0</ele><time>2026-04-12T09:51:39.269Z</time></trkpt><trkpt lat="45.7861807" lon="10.0881055"><ele>197.0</ele><time>2026-04-12T09:51:40.255Z</time></trkpt><trkpt lat="45.786204" lon="10.0883555"><ele>197.0</ele><time>2026-04-12T09:51:41.259Z</time></trkpt><trkpt lat="45.7862344" lon="10.0886005"><ele>200.66666666666669</ele><time>2026-04-12T09:51:42.258Z</time></trkpt><trkpt lat="45.7862722" lon="10.0888458"><ele>204.33333333333331</ele><time>2026-04-12T09:51:43.254Z</time></trkpt><trkpt lat="45.7863129" lon="10.0890867"><ele>208.0</ele><time>2026-04-12T09:51:44.262Z</time></trkpt><trkpt lat="45.7863551" lon="10.0893242"><ele>210.66666666666666</ele><time>2026-04-12T09:51:45.255Z</time></trkpt><trkpt lat="45.7863994" lon="10.0895647"><ele>213.33333333333331</ele><time>2026-04-12T09:51:46.256Z</time></trkpt><trkpt lat="45.7864458" lon="10.0898066"><ele>216.0</ele><time>2026-04-12T09:51:47.251Z</time></trkpt><trkpt lat="45.7864974" lon="10.0900433"><ele>221.66666666666669</ele><time>2026-04-12T09:51:48.254Z</time></trkpt><trkpt lat="45.7865543" lon="10.09027"><ele>227.33333333333334</ele><time>2026-04-12T09:51:49.251Z</time></trkpt><trkpt lat="45.7866147" lon="10.0904859"><ele>233.0</ele><time>2026-04-12T09:51:50.252Z</time></trkpt><trkpt lat="45.7866777" lon="10.09069"><ele>233.5</ele><time>2026-04-12T09:51:51.253Z</time></trkpt><trkpt lat="45.7867385" lon="10.0908877"><ele>234.0</ele><time>2026-04-12T09:51:52.255Z</time></trkpt><trkpt lat="45.7867993" lon="10.0910769"><ele>234.5</ele><time>2026-04-12T09:51:53.255Z</time></trkpt><trkpt lat="45.7868613" lon="10.0912642"><ele>235.0</ele><time>2026-04-12T09:51:54.253Z</time></trkpt><trkpt lat="45.7869256" lon="10.0914374"><ele>241.75</ele><time>2026-04-12T09:51:55.25Z</time></trkpt><trkpt lat="45.7869915" lon="10.091607"><ele>248.5</ele><time>2026-04-12T09:51:56.256Z</time></trkpt><trkpt lat="45.7870573" lon="10.0917693"><ele>255.25</ele><time>2026-04-12T09:51:57.25Z</time></trkpt><trkpt lat="45.7871195" lon="10.0919214"><ele>262.0</ele><time>2026-04-12T09:51:58.249Z</time></trkpt><trkpt lat="45.7872205" lon="10.0921648"><ele>199.0</ele><time>2026-04-12T09:52:00.245Z</time></trkpt><trkpt lat="45.8171269" lon="10.1215156"><ele>199.0</ele><time>2026-04-12T09:55:54.268Z</time></trkpt><trkpt lat="45.8173612" lon="10.1215409"><ele>199.0</ele><time>2026-04-12T09:55:56.265Z</time></trkpt><trkpt lat="45.8174744" lon="10.1215248"><ele>199.0</ele><time>2026-04-12T09:55:57.27Z</time></trkpt><trkpt lat="45.8175891" lon="10.121492"><ele>197.75</ele><time>2026-04-12T09:55:58.275Z</time></trkpt><trkpt lat="45.8177035" lon="10.1214809"><ele>196.5</ele><time>2026-04-12T09:55:59.273Z</time></trkpt><trkpt lat="45.8178188" lon="10.1214611"><ele>195.25</ele><time>2026-04-12T09:56:00.268Z</time></trkpt><trkpt lat="45.8179338" lon="10.1214379"><ele>194.0</ele><time>2026-04-12T09:56:01.277Z</time></trkpt><trkpt lat="45.8180459" lon="10.1214105"><ele>194.0</ele><time>2026-04-12T09:56:02.268Z</time></trkpt><trkpt lat="45.8181545" lon="10.1213848"><ele>194.0</ele><time>2026-04-12T09:56:03.269Z</time></trkpt><trkpt lat="45.8182624" lon="10.1213622"><ele>194.0</ele><time>2026-04-12T09:56:04.263Z</time></trkpt><trkpt lat="45.8183706" lon="10.1213395"><ele>194.0</ele><time>2026-04-12T09:56:05.272Z</time></trkpt><trkpt lat="45.8184792" lon="10.1213132"><ele>194.0</ele><time>2026-04-12T09:56:06.267Z</time></trkpt><trkpt lat="45.8185822" lon="10.1212911"><ele>193.83333333333334</ele><time>2026-04-12T09:56:07.265Z</time></trkpt><trkpt lat="45.8186784" lon="10.1212777"><ele>193.66666666666669</ele><time>2026-04-12T09:56:08.267Z</time></trkpt><trkpt lat="45.8187642" lon="10.1212833"><ele>193.5</ele><time>2026-04-12T09:56:09.274Z</time></trkpt><trkpt lat="45.8188384" lon="10.1213159"><ele>193.33333333333331</ele><time>2026-04-12T09:56:10.277Z</time></trkpt><trkpt lat="45.8188963" lon="10.1213823"><ele>193.16666666666666</ele><time>2026-04-12T09:56:11.275Z</time></trkpt><trkpt lat="45.8189306" lon="10.1214797"><ele>193.0</ele><time>2026-04-12T09:56:12.28Z</time></trkpt><trkpt lat="45.8189371" lon="10.1215973"><ele>193.0</ele><time>2026-04-12T09:56:13.285Z</time></trkpt><trkpt lat="45.818914" lon="10.1217135"><ele>193.0</ele><time>2026-04-12T09:56:14.275Z</time></trkpt><trkpt lat="45.8188644" lon="10.1218163"><ele>193.0</ele><time>2026-04-12T09:56:15.279Z</time></trkpt><trkpt lat="45.8187006" lon="10.1219397"><ele>193.0</ele><time>2026-04-12T09:56:17.268Z</time></trkpt><trkpt lat="45.8185986" lon="10.1219365"><ele>193.0</ele><time>2026-04-12T09:56:18.268Z</time></trkpt><trkpt lat="45.8185056" lon="10.1218975"><ele>193.0</ele><time>2026-04-12T09:56:19.269Z</time></trkpt><trkpt lat="45.8184235" lon="10.1218211"><ele>193.0</ele><time>2026-04-12T09:56:20.274Z</time></trkpt><trkpt lat="45.8183474" lon="10.1217252"><ele>193.0</ele><time>2026-04-12T09:56:21.277Z</time></trkpt><trkpt lat="45.8182689" lon="10.1216315"><ele>193.0</ele><time>2026-04-12T09:56:22.271Z</time></trkpt><trkpt lat="45.8181876" lon="10.1215361"><ele>193.2</ele><time>2026-04-12T09:56:23.279Z</time></trkpt><trkpt lat="45.818112" lon="10.1214348"><ele>193.4</ele><time>2026-04-12T09:56:24.272Z</time></trkpt><trkpt lat="45.8180368" lon="10.1213256"><ele>193.6</ele><time>2026-04-12T09:56:25.274Z</time></trkpt><trkpt lat="45.8179614" lon="10.1212082"><ele>193.79999999999998</ele><time>2026-04-12T09:56:26.265Z</time></trkpt><trkpt lat="45.8178931" lon="10.1210844"><ele>194.0</ele><time>2026-04-12T09:56:27.268Z</time></trkpt><trkpt lat="45.817824" lon="10.1209539"><ele>194.0</ele><time>2026-04-12T09:56:28.272Z</time></trkpt><trkpt lat="45.8177501" lon="10.1208181"><ele>194.0</ele><time>2026-04-12T09:56:29.266Z</time></trkpt><trkpt lat="45.8176807" lon="10.1206765"><ele>194.0</ele><time>2026-04-12T09:56:30.28Z</time></trkpt><trkpt lat="45.817614" lon="10.1205249"><ele>194.0</ele><time>2026-04-12T09:56:31.267Z</time></trkpt><trkpt lat="45.8175517" lon="10.1203659"><ele>194.5</ele><time>2026-04-12T09:56:32.285Z</time></trkpt><trkpt lat="45.8174933" lon="10.1201973"><ele>195.0</ele><time>2026-04-12T09:56:33.266Z</time></trkpt><trkpt lat="45.8174379" lon="10.1200239"><ele>195.5</ele><time>2026-04-12T09:56:34.273Z</time></trkpt><trkpt lat="45.8173866" lon="10.1198481"><ele>196.0</ele><time>2026-04-12T09:56:35.268Z</time></trkpt><trkpt lat="45.8173432" lon="10.1196719"><ele>196.0</ele><time>2026-04-12T09:56:36.277Z</time></trkpt><trkpt lat="45.8172989" lon="10.1193269"><ele>196.0</ele><time>2026-04-12T09:56:38.268Z</time></trkpt><trkpt lat="45.8172817" lon="10.119167"><ele>196.0</ele><time>2026-04-12T09:56:39.27Z</time></trkpt><trkpt lat="45.8172521" lon="10.1190151"><ele>195.5</ele><time>2026-04-12T09:56:40.284Z</time></trkpt><trkpt lat="45.8172039" lon="10.1188714"><ele>195.0</ele><time>2026-04-12T09:56:41.278Z</time></trkpt><trkpt lat="45.8171381" lon="10.1187325"><ele>194.5</ele><time>2026-04-12T09:56:42.284Z</time></trkpt><trkpt lat="45.8170548" lon="10.1186022"><ele>194.0</ele><time>2026-04-12T09:56:43.279Z</time></trkpt><trkpt lat="45.8169671" lon="10.1184663"><ele>194.0</ele><time>2026-04-12T09:56:44.276Z</time></trkpt><trkpt lat="45.8168794" lon="10.1183201"><ele>194.0</ele><time>2026-04-12T09:56:45.268Z</time></trkpt><trkpt lat="45.8167931" lon="10.1181648"><ele>194.0</ele><time>2026-04-12T09:56:46.277Z</time></trkpt><trkpt lat="45.816707" lon="10.1179981"><ele>194.0</ele><time>2026-04-12T09:56:47.282Z</time></trkpt><trkpt lat="45.8166128" lon="10.1178314"><ele>194.66666666666669</ele><time>2026-04-12T09:56:48.28Z</time></trkpt><trkpt lat="45.8165084" lon="10.1176687"><ele>195.33333333333331</ele><time>2026-04-12T09:56:49.289Z</time></trkpt><trkpt lat="45.816402" lon="10.1175085"><ele>196.0</ele><time>2026-04-12T09:56:50.281Z</time></trkpt><trkpt lat="45.8162957" lon="10.1173492"><ele>196.0</ele><time>2026-04-12T09:56:51.282Z</time></trkpt><trkpt lat="45.816189" lon="10.117185"><ele>196.0</ele><time>2026-04-12T09:56:52.272Z</time></trkpt><trkpt lat="45.8160815" lon="10.1170236"><ele>196.0</ele><time>2026-04-12T09:56:53.282Z</time></trkpt><trkpt lat="45.8159748" lon="10.1168675"><ele>196.0</ele><time>2026-04-12T09:56:54.284Z</time></trkpt><trkpt lat="45.8158676" lon="10.1167157"><ele>196.0</ele><time>2026-04-12T09:56:55.287Z</time></trkpt><trkpt lat="45.8157556" lon="10.1165719"><ele>196.0</ele><time>2026-04-12T09:56:56.273Z</time></trkpt><trkpt lat="45.8156372" lon="10.1164345"><ele>194.0</ele><time>2026-04-12T09:56:57.284Z</time></trkpt><trkpt lat="45.8153733" lon="10.1161933"><ele>192.0</ele><time>2026-04-12T09:56:59.275Z</time></trkpt><trkpt lat="45.815233" lon="10.1160901"><ele>191.66666666666666</ele><time>2026-04-12T09:57:00.288Z</time></trkpt><trkpt lat="45.8150903" lon="10.1159929"><ele>191.33333333333331</ele><time>2026-04-12T09:57:01.277Z</time></trkpt><trkpt lat="45.8149505" lon="10.115899"><ele>191.0</ele><time>2026-04-12T09:57:02.278Z</time></trkpt><trkpt lat="45.8148174" lon="10.115805"><ele>190.5</ele><time>2026-04-12T09:57:03.281Z</time></trkpt><trkpt lat="45.8146893" lon="10.1157117"><ele>190.0</ele><time>2026-04-12T09:57:04.28Z</time></trkpt><trkpt lat="45.8145634" lon="10.1156223"><ele>189.5</ele><time>2026-04-12T09:57:05.271Z</time></trkpt><trkpt lat="45.8144355" lon="10.1155346"><ele>189.0</ele><time>2026-04-12T09:57:06.276Z</time></trkpt><trkpt lat="45.8143034" lon="10.1154439"><ele>188.66666666666666</ele><time>2026-04-12T09:57:07.275Z</time></trkpt><trkpt lat="45.8141674" lon="10.1153443"><ele>188.33333333333331</ele><time>2026-04-12T09:57:08.283Z</time></trkpt><trkpt lat="45.8140276" lon="10.1152406"><ele>188.0</ele><time>2026-04-12T09:57:09.267Z</time></trkpt><trkpt lat="45.8138863" lon="10.1151361"><ele>188.0</ele><time>2026-04-12T09:57:10.276Z</time></trkpt><trkpt lat="45.8137472" lon="10.1150323"><ele>188.0</ele><time>2026-04-12T09:57:11.286Z</time></trkpt><trkpt lat="45.8136067" lon="10.1149313"><ele>188.0</ele><time>2026-04-12T09:57:12.291Z</time></trkpt><trkpt lat="45.8134654" lon="10.1148313"><ele>187.66666666666666</ele><time>2026-04-12T09:57:13.266Z</time></trkpt><trkpt lat="45.8133236" lon="10.1147325"><ele>187.33333333333334</ele><time>2026-04-12T09:57:14.287Z</time></trkpt><trkpt lat="45.8131869" lon="10.1146338"><ele>187.0</ele><time>2026-04-12T09:57:15.283Z</time></trkpt><trkpt lat="45.8130562" lon="10.1145375"><ele>187.0</ele><time>2026-04-12T09:57:16.291Z</time></trkpt><trkpt lat="45.8129286" lon="10.1144436"><ele>187.0</ele><time>2026-04-12T09:57:17.287Z</time></trkpt><trkpt lat="45.8128032" lon="10.1143542"><ele>187.0</ele><time>2026-04-12T09:57:18.286Z</time></trkpt><trkpt lat="45.8125626" lon="10.1141739"><ele>187.0</ele><time>2026-04-12T09:57:20.287Z</time></trkpt><trkpt lat="45.8124513" lon="10.114081"><ele>187.0</ele><time>2026-04-12T09:57:21.283Z</time></trkpt><trkpt lat="45.8123436" lon="10.1139841"><ele>187.0</ele><time>2026-04-12T09:57:22.288Z</time></trkpt><trkpt lat="45.81224" lon="10.113881"><ele>187.0</ele><time>2026-04-12T09:57:23.276Z</time></trkpt><trkpt lat="45.81214" lon="10.1137744"><ele>187.0</ele><time>2026-04-12T09:57:24.279Z</time></trkpt><trkpt lat="45.8120396" lon="10.1136682"><ele>187.0</ele><time>2026-04-12T09:57:25.283Z</time></trkpt><trkpt lat="45.8119426" lon="10.113567"><ele>187.0</ele><time>2026-04-12T09:57:26.281Z</time></trkpt><trkpt lat="45.8118534" lon="10.1134691"><ele>187.0</ele><time>2026-04-12T09:57:27.28Z</time></trkpt><trkpt lat="45.8117775" lon="10.1133627"><ele>187.0</ele><time>2026-04-12T09:57:28.29Z</time></trkpt><trkpt lat="45.8117232" lon="10.1132442"><ele>187.0</ele><time>2026-04-12T09:57:29.275Z</time></trkpt><trkpt lat="45.8116827" lon="10.1131295"><ele>187.0</ele><time>2026-04-12T09:57:30.285Z</time></trkpt><trkpt lat="45.8116371" lon="10.1130343"><ele>187.0</ele><time>2026-04-12T09:57:31.275Z</time></trkpt><trkpt lat="45.811574" lon="10.1129767"><ele>187.0</ele><time>2026-04-12T09:57:32.28Z</time></trkpt><trkpt lat="45.8114856" lon="10.1129498"><ele>187.0</ele><time>2026-04-12T09:57:33.269Z</time></trkpt><trkpt lat="45.8113835" lon="10.1129279"><ele>187.0</ele><time>2026-04-12T09:57:34.283Z</time></trkpt><trkpt lat="45.8112767" lon="10.1128741"><ele>187.0</ele><time>2026-04-12T09:57:35.267Z</time></trkpt><trkpt lat="45.811175" lon="10.1127821"><ele>187.0</ele><time>2026-04-12T09:57:36.277Z</time></trkpt><trkpt lat="45.811078" lon="10.112673"><ele>187.0</ele><time>2026-04-12T09:57:37.275Z</time></trkpt><trkpt lat="45.8109907" lon="10.1125573"><ele>187.75</ele><time>2026-04-12T09:57:38.279Z</time></trkpt><trkpt lat="45.8109167" lon="10.1124405"><ele>188.5</ele><time>2026-04-12T09:57:39.275Z</time></trkpt><trkpt lat="45.8107923" lon="10.112224"><ele>189.25</ele><time>2026-04-12T09:57:41.285Z</time></trkpt><trkpt lat="45.8107369" lon="10.1121416"><ele>190.0</ele><time>2026-04-12T09:57:42.283Z</time></trkpt><trkpt lat="45.810639" lon="10.1120945"><ele>190.0</ele><time>2026-04-12T09:57:44.278Z</time></trkpt><trkpt lat="45.8105701" lon="10.1121427"><ele>190.0</ele><time>2026-04-12T09:57:46.27Z</time></trkpt><trkpt lat="45.8105053" lon="10.1121656"><ele>190.0</ele><time>2026-04-12T09:57:49.27Z</time></trkpt><trkpt lat="45.8104715" lon="10.1120785"><ele>190.0</ele><time>2026-04-12T09:57:53.274Z</time></trkpt><trkpt lat="45.8104662" lon="10.1119837"><ele>190.0</ele><time>2026-04-12T09:57:55.281Z</time></trkpt><trkpt lat="45.810479" lon="10.1118757"><ele>190.0</ele><time>2026-04-12T09:57:57.284Z</time></trkpt><trkpt lat="45.8104411" lon="10.1118024"><ele>190.0</ele><time>2026-04-12T09:57:59.267Z</time></trkpt><trkpt lat="45.8103714" lon="10.1118314"><ele>190.0</ele><time>2026-04-12T09:58:01.281Z</time></trkpt><trkpt lat="45.8104117" lon="10.1119962"><ele>190.0</ele><time>2026-04-12T09:58:05.281Z</time></trkpt><trkpt lat="45.8104803" lon="10.1120595"><ele>190.0</ele><time>2026-04-12T09:58:08.283Z</time></trkpt><trkpt lat="45.8105313" lon="10.1121212"><ele>190.0</ele><time>2026-04-12T10:02:28.274Z</time></trkpt><trkpt lat="45.8106993" lon="10.1121486"><ele>190.0</ele><time>2026-04-12T10:02:33.267Z</time></trkpt><trkpt lat="45.8107275" lon="10.1120517"><ele>190.0</ele><time>2026-04-12T10:02:36.277Z</time></trkpt><trkpt lat="45.8106535" lon="10.1119436"><ele>190.0</ele><time>2026-04-12T10:02:38.271Z</time></trkpt><trkpt lat="45.8106004" lon="10.1118665"><ele>190.0</ele><time>2026-04-12T10:02:39.286Z</time></trkpt><trkpt lat="45.8105445" lon="10.1117633"><ele>190.0</ele><time>2026-04-12T10:02:40.29Z</time></trkpt><trkpt lat="45.8104818" lon="10.1116404"><ele>190.0</ele><time>2026-04-12T10:02:41.285Z</time></trkpt><trkpt lat="45.8104164" lon="10.1115039"><ele>189.75</ele><time>2026-04-12T10:02:42.288Z</time></trkpt><trkpt lat="45.8103456" lon="10.1113557"><ele>189.5</ele><time>2026-04-12T10:02:43.283Z</time></trkpt><trkpt lat="45.8102637" lon="10.1111932"><ele>189.25</ele><time>2026-04-12T10:02:44.287Z</time></trkpt><trkpt lat="45.8101776" lon="10.1110218"><ele>189.0</ele><time>2026-04-12T10:02:45.287Z</time></trkpt><trkpt lat="45.8100914" lon="10.1108474"><ele>188.5</ele><time>2026-04-12T10:02:46.282Z</time></trkpt><trkpt lat="45.8100053" lon="10.1106728"><ele>188.0</ele><time>2026-04-12T10:02:47.281Z</time></trkpt><trkpt lat="45.8099216" lon="10.110501"><ele>187.5</ele><time>2026-04-12T10:02:48.286Z</time></trkpt><trkpt lat="45.8098398" lon="10.1103347"><ele>187.0</ele><time>2026-04-12T10:02:49.279Z</time></trkpt><trkpt lat="45.8096811" lon="10.1100159"><ele>187.25</ele><time>2026-04-12T10:02:51.283Z</time></trkpt><trkpt lat="45.809603" lon="10.1098592"><ele>187.5</ele><time>2026-04-12T10:02:52.285Z</time></trkpt><trkpt lat="45.8095241" lon="10.1097026"><ele>187.75</ele><time>2026-04-12T10:02:53.28Z</time></trkpt><trkpt lat="45.809448" lon="10.1095498"><ele>188.0</ele><time>2026-04-12T10:02:54.269Z</time></trkpt><trkpt lat="45.8093751" lon="10.1094014"><ele>188.0</ele><time>2026-04-12T10:02:55.287Z</time></trkpt><trkpt lat="45.8093041" lon="10.1092564"><ele>188.0</ele><time>2026-04-12T10:02:56.281Z</time></trkpt><trkpt lat="45.8092351" lon="10.1091179"><ele>188.0</ele><time>2026-04-12T10:02:57.269Z</time></trkpt><trkpt lat="45.8091718" lon="10.1089848"><ele>188.0</ele><time>2026-04-12T10:02:58.287Z</time></trkpt><trkpt lat="45.8091157" lon="10.1088554"><ele>188.0</ele><time>2026-04-12T10:02:59.276Z</time></trkpt><trkpt lat="45.8090734" lon="10.1087279"><ele>188.0</ele><time>2026-04-12T10:03:00.282Z</time></trkpt><trkpt lat="45.8090429" lon="10.1086089"><ele>188.0</ele><time>2026-04-12T10:03:01.283Z</time></trkpt><trkpt lat="45.809029" lon="10.1085009"><ele>188.0</ele><time>2026-04-12T10:03:02.277Z</time></trkpt><trkpt lat="45.8090352" lon="10.1083908"><ele>188.0</ele><time>2026-04-12T10:03:03.276Z</time></trkpt><trkpt lat="45.8090531" lon="10.108289"><ele>188.0</ele><time>2026-04-12T10:03:04.287Z</time></trkpt><trkpt lat="45.8090623" lon="10.1081346"><ele>187.75</ele><time>2026-04-12T10:03:06.285Z</time></trkpt><trkpt lat="45.8089993" lon="10.1080706"><ele>187.5</ele><time>2026-04-12T10:03:08.271Z</time></trkpt><trkpt lat="45.8088595" lon="10.1080734"><ele>187.25</ele><time>2026-04-12T10:03:10.281Z</time></trkpt><trkpt lat="45.8086785" lon="10.1080106"><ele>187.0</ele><time>2026-04-12T10:03:12.269Z</time></trkpt><trkpt lat="45.8085889" lon="10.1079323"><ele>187.0</ele><time>2026-04-12T10:03:13.282Z</time></trkpt><trkpt lat="45.808514" lon="10.1078265"><ele>187.0</ele><time>2026-04-12T10:03:14.271Z</time></trkpt><trkpt lat="45.8084459" lon="10.1077025"><ele>187.0</ele><time>2026-04-12T10:03:15.282Z</time></trkpt><trkpt lat="45.8083776" lon="10.1075754"><ele>187.0</ele><time>2026-04-12T10:03:16.284Z</time></trkpt><trkpt lat="45.8083018" lon="10.107451"><ele>187.0</ele><time>2026-04-12T10:03:17.284Z</time></trkpt><trkpt lat="45.808219" lon="10.1073273"><ele>187.0</ele><time>2026-04-12T10:03:18.279Z</time></trkpt><trkpt lat="45.8081303" lon="10.1072034"><ele>187.0</ele><time>2026-04-12T10:03:19.27Z</time></trkpt><trkpt lat="45.8080354" lon="10.1070757"><ele>187.0</ele><time>2026-04-12T10:03:20.28Z</time></trkpt><trkpt lat="45.807934" lon="10.1069474"><ele>187.0</ele><time>2026-04-12T10:03:21.286Z</time></trkpt><trkpt lat="45.8078313" lon="10.1068241"><ele>187.0</ele><time>2026-04-12T10:03:22.273Z</time></trkpt><trkpt lat="45.8077268" lon="10.1067005"><ele>187.0</ele><time>2026-04-12T10:03:23.275Z</time></trkpt><trkpt lat="45.8076233" lon="10.1065816"><ele>187.0</ele><time>2026-04-12T10:03:24.288Z</time></trkpt><trkpt lat="45.8075183" lon="10.1064651"><ele>187.0</ele><time>2026-04-12T10:03:25.279Z</time></trkpt><trkpt lat="45.8074123" lon="10.1063541"><ele>187.0</ele><time>2026-04-12T10:03:26.287Z</time></trkpt><trkpt lat="45.8073053" lon="10.106252"><ele>187.0</ele><time>2026-04-12T10:03:27.279Z</time></trkpt><trkpt lat="45.8071964" lon="10.1061595"><ele>187.0</ele><time>2026-04-12T10:03:28.284Z</time></trkpt><trkpt lat="45.8070906" lon="10.1060818"><ele>187.0</ele><time>2026-04-12T10:03:29.269Z</time></trkpt><trkpt lat="45.8069853" lon="10.1060187"><ele>187.0</ele><time>2026-04-12T10:03:30.286Z</time></trkpt><trkpt lat="45.8068798" lon="10.1059705"><ele>187.0</ele><time>2026-04-12T10:03:31.278Z</time></trkpt><trkpt lat="45.8066671" lon="10.1059082"><ele>187.0</ele><time>2026-04-12T10:03:33.279Z</time></trkpt><trkpt lat="45.8065591" lon="10.1058831"><ele>187.0</ele><time>2026-04-12T10:03:34.281Z</time></trkpt><trkpt lat="45.8064536" lon="10.1058677"><ele>187.0</ele><time>2026-04-12T10:03:35.276Z</time></trkpt><trkpt lat="45.8063497" lon="10.1058618"><ele>187.0</ele><time>2026-04-12T10:03:36.279Z</time></trkpt><trkpt lat="45.8062471" lon="10.1058653"><ele>187.0</ele><time>2026-04-12T10:03:37.27Z</time></trkpt><trkpt lat="45.8061476" lon="10.1058706"><ele>187.0</ele><time>2026-04-12T10:03:38.275Z</time></trkpt><trkpt lat="45.806047" lon="10.105871"><ele>187.0</ele><time>2026-04-12T10:03:39.269Z</time></trkpt><trkpt lat="45.8059433" lon="10.1058697"><ele>187.0</ele><time>2026-04-12T10:03:40.279Z</time></trkpt><trkpt lat="45.8058418" lon="10.1058685"><ele>187.0</ele><time>2026-04-12T10:03:41.279Z</time></trkpt><trkpt lat="45.8057478" lon="10.1058664"><ele>187.0</ele><time>2026-04-12T10:03:42.279Z</time></trkpt><trkpt lat="45.8056624" lon="10.1058634"><ele>187.0</ele><time>2026-04-12T10:03:43.274Z</time></trkpt><trkpt lat="45.8055873" lon="10.1058625"><ele>187.0</ele><time>2026-04-12T10:03:44.271Z</time></trkpt><trkpt lat="45.805519" lon="10.1058637"><ele>187.0</ele><time>2026-04-12T10:03:45.285Z</time></trkpt><trkpt lat="45.8054534" lon="10.105873"><ele>187.0</ele><time>2026-04-12T10:03:46.282Z</time></trkpt><trkpt lat="45.805334" lon="10.1059079"><ele>187.0</ele><time>2026-04-12T10:03:48.277Z</time></trkpt><trkpt lat="45.8052705" lon="10.1059327"><ele>187.0</ele><time>2026-04-12T10:03:49.277Z</time></trkpt><trkpt lat="45.8051996" lon="10.1059643"><ele>187.0</ele><time>2026-04-12T10:03:50.278Z</time></trkpt><trkpt lat="45.8051202" lon="10.1059887"><ele>187.0</ele><time>2026-04-12T10:03:51.278Z</time></trkpt><trkpt lat="45.8050331" lon="10.1060115"><ele>187.0</ele><time>2026-04-12T10:03:52.286Z</time></trkpt><trkpt lat="45.8048406" lon="10.1060723"><ele>186.83333333333334</ele><time>2026-04-12T10:03:54.284Z</time></trkpt><trkpt lat="45.8047472" lon="10.1061042"><ele>186.66666666666669</ele><time>2026-04-12T10:03:55.277Z</time></trkpt><trkpt lat="45.8046611" lon="10.1061345"><ele>186.5</ele><time>2026-04-12T10:03:56.28Z</time></trkpt><trkpt lat="45.8045766" lon="10.1061623"><ele>186.33333333333334</ele><time>2026-04-12T10:03:57.28Z</time></trkpt><trkpt lat="45.8044943" lon="10.10619"><ele>186.16666666666666</ele><time>2026-04-12T10:03:58.278Z</time></trkpt><trkpt lat="45.8044139" lon="10.106215"><ele>186.0</ele><time>2026-04-12T10:03:59.269Z</time></trkpt><trkpt lat="45.8043367" lon="10.1062374"><ele>186.0</ele><time>2026-04-12T10:04:00.278Z</time></trkpt><trkpt lat="45.8042672" lon="10.1062547"><ele>186.0</ele><time>2026-04-12T10:04:01.289Z</time></trkpt><trkpt lat="45.8041574" lon="10.1062838"><ele>186.0</ele><time>2026-04-12T10:04:03.282Z</time></trkpt><trkpt lat="45.8040818" lon="10.1062921"><ele>186.0</ele><time>2026-04-12T10:04:06.267Z</time></trkpt><trkpt lat="45.8040096" lon="10.1063694"><ele>186.0</ele><time>2026-04-12T10:07:02.279Z</time></trkpt><trkpt lat="45.8037723" lon="10.1064116"><ele>186.0</ele><time>2026-04-12T10:07:06.278Z</time></trkpt><trkpt lat="45.8036416" lon="10.1063889"><ele>186.0</ele><time>2026-04-12T10:07:08.281Z</time></trkpt><trkpt lat="45.803567" lon="10.1063811"><ele>186.0</ele><time>2026-04-12T10:07:09.274Z</time></trkpt><trkpt lat="45.8034871" lon="10.106373"><ele>186.0</ele><time>2026-04-12T10:07:10.274Z</time></trkpt><trkpt lat="45.8034095" lon="10.106362"><ele>186.0</ele><time>2026-04-12T10:07:11.281Z</time></trkpt><trkpt lat="45.803333" lon="10.1063453"><ele>186.0</ele><time>2026-04-12T10:07:12.267Z</time></trkpt><trkpt lat="45.8032544" lon="10.1063229"><ele>186.0</ele><time>2026-04-12T10:07:13.273Z</time></trkpt><trkpt lat="45.8031798" lon="10.1063103"><ele>186.0</ele><time>2026-04-12T10:07:14.281Z</time></trkpt><trkpt lat="45.8031029" lon="10.1062861"><ele>186.0</ele><time>2026-04-12T10:07:15.281Z</time></trkpt><trkpt lat="45.8030265" lon="10.1062699"><ele>186.0</ele><time>2026-04-12T10:07:16.286Z</time></trkpt><trkpt lat="45.8029486" lon="10.1062582"><ele>186.0</ele><time>2026-04-12T10:07:17.281Z</time></trkpt><trkpt lat="45.802871" lon="10.1062419"><ele>186.0</ele><time>2026-04-12T10:07:18.273Z</time></trkpt><trkpt lat="45.8027976" lon="10.106218"><ele>186.0</ele><time>2026-04-12T10:07:19.278Z</time></trkpt><trkpt lat="45.8027256" lon="10.1061984"><ele>186.0</ele><time>2026-04-12T10:07:20.282Z</time></trkpt><trkpt lat="45.8026541" lon="10.1061815"><ele>186.0</ele><time>2026-04-12T10:07:21.286Z</time></trkpt><trkpt lat="45.8025824" lon="10.1061641"><ele>186.0</ele><time>2026-04-12T10:07:22.28Z</time></trkpt><trkpt lat="45.8025121" lon="10.1061475"><ele>186.0</ele><time>2026-04-12T10:07:23.279Z</time></trkpt><trkpt lat="45.8023667" lon="10.1061225"><ele>186.0</ele><time>2026-04-12T10:07:25.28Z</time></trkpt><trkpt lat="45.8022938" lon="10.1061125"><ele>185.8</ele><time>2026-04-12T10:07:26.284Z</time></trkpt><trkpt lat="45.8022186" lon="10.1061022"><ele>185.60000000000002</ele><time>2026-04-12T10:07:27.27Z</time></trkpt><trkpt lat="45.8021371" lon="10.1060946"><ele>185.4</ele><time>2026-04-12T10:07:28.284Z</time></trkpt><trkpt lat="45.8020479" lon="10.1060884"><ele>185.2</ele><time>2026-04-12T10:07:29.278Z</time></trkpt><trkpt lat="45.8019454" lon="10.1060827"><ele>185.0</ele><time>2026-04-12T10:07:30.283Z</time></trkpt><trkpt lat="45.8018296" lon="10.1060746"><ele>186.5</ele><time>2026-04-12T10:07:31.284Z</time></trkpt><trkpt lat="45.8017092" lon="10.106069"><ele>188.0</ele><time>2026-04-12T10:07:32.274Z</time></trkpt><trkpt lat="45.8015867" lon="10.1060585"><ele>189.5</ele><time>2026-04-12T10:07:33.275Z</time></trkpt><trkpt lat="45.8014615" lon="10.1060472"><ele>191.0</ele><time>2026-04-12T10:07:34.267Z</time></trkpt><trkpt lat="45.8013328" lon="10.1060315"><ele>191.0</ele><time>2026-04-12T10:07:35.278Z</time></trkpt><trkpt lat="45.8012011" lon="10.1060168"><ele>191.0</ele><time>2026-04-12T10:07:36.279Z</time></trkpt><trkpt lat="45.8010665" lon="10.106005"><ele>191.0</ele><time>2026-04-12T10:07:37.28Z</time></trkpt><trkpt lat="45.8009303" lon="10.1059936"><ele>191.0</ele><time>2026-04-12T10:07:38.263Z</time></trkpt><trkpt lat="45.8007929" lon="10.1059787"><ele>191.0</ele><time>2026-04-12T10:07:39.283Z</time></trkpt><trkpt lat="45.8006541" lon="10.1059649"><ele>191.0</ele><time>2026-04-12T10:07:40.281Z</time></trkpt><trkpt lat="45.8005151" lon="10.1059499"><ele>191.0</ele><time>2026-04-12T10:07:41.298Z</time></trkpt><trkpt lat="45.8003744" lon="10.1059342"><ele>191.0</ele><time>2026-04-12T10:07:42.283Z</time></trkpt><trkpt lat="45.8002327" lon="10.1059176"><ele>190.33333333333331</ele><time>2026-04-12T10:07:43.284Z</time></trkpt><trkpt lat="45.7999501" lon="10.1058849"><ele>189.66666666666666</ele><time>2026-04-12T10:07:45.292Z</time></trkpt><trkpt lat="45.7998161" lon="10.1058722"><ele>189.0</ele><time>2026-04-12T10:07:46.279Z</time></trkpt><trkpt lat="45.7996908" lon="10.1058646"><ele>189.0</ele><time>2026-04-12T10:07:47.271Z</time></trkpt><trkpt lat="45.7995762" lon="10.1058634"><ele>189.0</ele><time>2026-04-12T10:07:48.291Z</time></trkpt><trkpt lat="45.7994734" lon="10.1058677"><ele>189.0</ele><time>2026-04-12T10:07:49.271Z</time></trkpt><trkpt lat="45.7993784" lon="10.1058727"><ele>189.0</ele><time>2026-04-12T10:07:50.28Z</time></trkpt><trkpt lat="45.7992911" lon="10.1058691"><ele>189.0</ele><time>2026-04-12T10:07:51.269Z</time></trkpt><trkpt lat="45.7992091" lon="10.1058547"><ele>189.0</ele><time>2026-04-12T10:07:52.268Z</time></trkpt><trkpt lat="45.7991252" lon="10.105846"><ele>189.0</ele><time>2026-04-12T10:07:53.279Z</time></trkpt><trkpt lat="45.7990361" lon="10.10584"><ele>189.0</ele><time>2026-04-12T10:07:54.269Z</time></trkpt><trkpt lat="45.7989443" lon="10.1058254"><ele>189.0</ele><time>2026-04-12T10:07:55.281Z</time></trkpt><trkpt lat="45.7988503" lon="10.1057928"><ele>189.0</ele><time>2026-04-12T10:07:56.274Z</time></trkpt><trkpt lat="45.7987555" lon="10.1057485"><ele>188.2</ele><time>2026-04-12T10:07:57.279Z</time></trkpt><trkpt lat="45.7986587" lon="10.1056997"><ele>187.39999999999998</ele><time>2026-04-12T10:07:58.28Z</time></trkpt><trkpt lat="45.7985638" lon="10.1056524"><ele>186.6</ele><time>2026-04-12T10:07:59.269Z</time></trkpt><trkpt lat="45.7984724" lon="10.1056064"><ele>185.8</ele><time>2026-04-12T10:08:00.279Z</time></trkpt><trkpt lat="45.7983822" lon="10.1055576"><ele>185.0</ele><time>2026-04-12T10:08:01.278Z</time></trkpt><trkpt lat="45.79829" lon="10.1055027"><ele>185.0</ele><time>2026-04-12T10:08:02.273Z</time></trkpt><trkpt lat="45.7981949" lon="10.1054403"><ele>185.0</ele><time>2026-04-12T10:08:03.266Z</time></trkpt><trkpt lat="45.7980976" lon="10.1053708"><ele>185.0</ele><time>2026-04-12T10:08:04.27Z</time></trkpt><trkpt lat="45.7979105" lon="10.1052102"><ele>185.0</ele><time>2026-04-12T10:08:06.267Z</time></trkpt><trkpt lat="45.7978236" lon="10.1051248"><ele>185.0</ele><time>2026-04-12T10:08:07.279Z</time></trkpt><trkpt lat="45.7977402" lon="10.1050354"><ele>185.0</ele><time>2026-04-12T10:08:08.281Z</time></trkpt><trkpt lat="45.7976591" lon="10.1049399"><ele>185.0</ele><time>2026-04-12T10:08:09.277Z</time></trkpt><trkpt lat="45.7975757" lon="10.1048367"><ele>185.0</ele><time>2026-04-12T10:08:10.284Z</time></trkpt><trkpt lat="45.7974894" lon="10.1047228"><ele>185.0</ele><time>2026-04-12T10:08:11.287Z</time></trkpt><trkpt lat="45.7974025" lon="10.1045975"><ele>185.0</ele><time>2026-04-12T10:08:12.281Z</time></trkpt><trkpt lat="45.7973159" lon="10.1044682"><ele>185.0</ele><time>2026-04-12T10:08:13.283Z</time></trkpt><trkpt lat="45.7972244" lon="10.1043396"><ele>185.0</ele><time>2026-04-12T10:08:14.279Z</time></trkpt><trkpt lat="45.7971286" lon="10.1042053"><ele>185.0</ele><time>2026-04-12T10:08:15.277Z</time></trkpt><trkpt lat="45.7970325" lon="10.1040698"><ele>185.0</ele><time>2026-04-12T10:08:16.284Z</time></trkpt><trkpt lat="45.7969317" lon="10.1039292"><ele>185.0</ele><time>2026-04-12T10:08:17.277Z</time></trkpt><trkpt lat="45.7968218" lon="10.1037976"><ele>185.0</ele><time>2026-04-12T10:08:18.274Z</time></trkpt><trkpt lat="45.7967066" lon="10.1036796"><ele>185.0</ele><time>2026-04-12T10:08:19.27Z</time></trkpt><trkpt lat="45.7965896" lon="10.1035855"><ele>186.0</ele><time>2026-04-12T10:08:20.281Z</time></trkpt><trkpt lat="45.7964696" lon="10.1035045"><ele>187.0</ele><time>2026-04-12T10:08:21.287Z</time></trkpt><trkpt lat="45.7963464" lon="10.1034312"><ele>188.0</ele><time>2026-04-12T10:08:22.268Z</time></trkpt><trkpt lat="45.7962251" lon="10.1033619"><ele>189.0</ele><time>2026-04-12T10:08:23.274Z</time></trkpt><trkpt lat="45.7961075" lon="10.1032955"><ele>188.0</ele><time>2026-04-12T10:08:24.285Z</time></trkpt><trkpt lat="45.7959943" lon="10.103229"><ele>187.0</ele><time>2026-04-12T10:08:25.269Z</time></trkpt><trkpt lat="45.7957873" lon="10.1030992"><ele>186.0</ele><time>2026-04-12T10:08:27.267Z</time></trkpt><trkpt lat="45.795692" lon="10.1030405"><ele>186.0</ele><time>2026-04-12T10:08:28.276Z</time></trkpt><trkpt lat="45.7956016" lon="10.1029805"><ele>186.0</ele><time>2026-04-12T10:08:29.282Z</time></trkpt><trkpt lat="45.7955183" lon="10.1029156"><ele>186.0</ele><time>2026-04-12T10:08:30.267Z</time></trkpt><trkpt lat="45.7954467" lon="10.1028374"><ele>186.0</ele><time>2026-04-12T10:08:31.289Z</time></trkpt><trkpt lat="45.7953911" lon="10.1027414"><ele>186.0</ele><time>2026-04-12T10:08:32.28Z</time></trkpt><trkpt lat="45.7953474" lon="10.1026352"><ele>186.0</ele><time>2026-04-12T10:08:33.282Z</time></trkpt><trkpt lat="45.7953074" lon="10.1025323"><ele>186.0</ele><time>2026-04-12T10:08:34.286Z</time></trkpt><trkpt lat="45.7952632" lon="10.1024298"><ele>186.0</ele><time>2026-04-12T10:08:35.277Z</time></trkpt><trkpt lat="45.7952085" lon="10.1023277"><ele>186.0</ele><time>2026-04-12T10:08:36.272Z</time></trkpt><trkpt lat="45.7951376" lon="10.1022299"><ele>186.0</ele><time>2026-04-12T10:08:37.269Z</time></trkpt><trkpt lat="45.7950519" lon="10.1021434"><ele>185.4</ele><time>2026-04-12T10:08:38.28Z</time></trkpt><trkpt lat="45.7949553" lon="10.1020722"><ele>184.8</ele><time>2026-04-12T10:08:39.276Z</time></trkpt><trkpt lat="45.7948578" lon="10.1020108"><ele>184.20000000000002</ele><time>2026-04-12T10:08:40.265Z</time></trkpt><trkpt lat="45.7947648" lon="10.1019446"><ele>183.60000000000002</ele><time>2026-04-12T10:08:41.287Z</time></trkpt><trkpt lat="45.794676" lon="10.1018681"><ele>183.0</ele><time>2026-04-12T10:08:42.281Z</time></trkpt><trkpt lat="45.7945948" lon="10.1017759"><ele>183.0</ele><time>2026-04-12T10:08:43.271Z</time></trkpt><trkpt lat="45.7945233" lon="10.1016745"><ele>183.0</ele><time>2026-04-12T10:08:44.274Z</time></trkpt><trkpt lat="45.7944542" lon="10.1015667"><ele>183.0</ele><time>2026-04-12T10:08:45.278Z</time></trkpt><trkpt lat="45.7943839" lon="10.1014589"><ele>183.0</ele><time>2026-04-12T10:08:46.282Z</time></trkpt><trkpt lat="45.794239" lon="10.101255"><ele>182.8</ele><time>2026-04-12T10:08:48.279Z</time></trkpt><trkpt lat="45.7941666" lon="10.1011527"><ele>182.60000000000002</ele><time>2026-04-12T10:08:49.283Z</time></trkpt><trkpt lat="45.7940911" lon="10.1010466"><ele>182.39999999999998</ele><time>2026-04-12T10:08:50.281Z</time></trkpt><trkpt lat="45.7940161" lon="10.100937"><ele>182.2</ele><time>2026-04-12T10:08:51.27Z</time></trkpt><trkpt lat="45.7939405" lon="10.1008227"><ele>182.0</ele><time>2026-04-12T10:08:52.28Z</time></trkpt><trkpt lat="45.7938625" lon="10.1007017"><ele>182.0</ele><time>2026-04-12T10:08:53.281Z</time></trkpt><trkpt lat="45.793787" lon="10.1005743"><ele>182.0</ele><time>2026-04-12T10:08:54.289Z</time></trkpt><trkpt lat="45.7937161" lon="10.1004404"><ele>182.0</ele><time>2026-04-12T10:08:55.279Z</time></trkpt><trkpt lat="45.7936483" lon="10.1003022"><ele>182.0</ele><time>2026-04-12T10:08:56.283Z</time></trkpt><trkpt lat="45.7935822" lon="10.1001626"><ele>182.0</ele><time>2026-04-12T10:08:57.278Z</time></trkpt><trkpt lat="45.7935146" lon="10.1000241"><ele>182.0</ele><time>2026-04-12T10:08:58.285Z</time></trkpt><trkpt lat="45.7934455" lon="10.0998897"><ele>182.0</ele><time>2026-04-12T10:08:59.281Z</time></trkpt><trkpt lat="45.7933781" lon="10.0997545"><ele>182.0</ele><time>2026-04-12T10:09:00.274Z</time></trkpt><trkpt lat="45.7933149" lon="10.0996178"><ele>182.0</ele><time>2026-04-12T10:09:01.282Z</time></trkpt><trkpt lat="45.7932657" lon="10.099475"><ele>182.0</ele><time>2026-04-12T10:09:02.278Z</time></trkpt><trkpt lat="45.7932422" lon="10.0993233"><ele>182.0</ele><time>2026-04-12T10:09:03.287Z</time></trkpt><trkpt lat="45.7932478" lon="10.0991749"><ele>182.0</ele><time>2026-04-12T10:09:04.286Z</time></trkpt><trkpt lat="45.7932583" lon="10.0990332"><ele>182.0</ele><time>2026-04-12T10:09:05.277Z</time></trkpt><trkpt lat="45.7932492" lon="10.0988832"><ele>182.0</ele><time>2026-04-12T10:09:06.285Z</time></trkpt><trkpt lat="45.7932217" lon="10.0987334"><ele>182.0</ele><time>2026-04-12T10:09:07.285Z</time></trkpt><trkpt lat="45.7930859" lon="10.0984652"><ele>182.0</ele><time>2026-04-12T10:09:09.28Z</time></trkpt><trkpt lat="45.7929972" lon="10.0983289"><ele>182.0</ele><time>2026-04-12T10:09:10.285Z</time></trkpt><trkpt lat="45.7928994" lon="10.0981913"><ele>182.0</ele><time>2026-04-12T10:09:11.291Z</time></trkpt><trkpt lat="45.792793" lon="10.0980565"><ele>182.0</ele><time>2026-04-12T10:09:12.271Z</time></trkpt><trkpt lat="45.7926885" lon="10.097919"><ele>182.0</ele><time>2026-04-12T10:09:13.273Z</time></trkpt><trkpt lat="45.7925893" lon="10.0977785"><ele>182.0</ele><time>2026-04-12T10:09:14.281Z</time></trkpt><trkpt lat="45.7924964" lon="10.0976315"><ele>182.0</ele><time>2026-04-12T10:09:15.284Z</time></trkpt><trkpt lat="45.7924147" lon="10.0974764"><ele>182.0</ele><time>2026-04-12T10:09:16.278Z</time></trkpt><trkpt lat="45.7923425" lon="10.0973171"><ele>182.0</ele><time>2026-04-12T10:09:17.277Z</time></trkpt><trkpt lat="45.7922731" lon="10.0971507"><ele>182.0</ele><time>2026-04-12T10:09:18.28Z</time></trkpt><trkpt lat="45.7922049" lon="10.0969851"><ele>182.0</ele><time>2026-04-12T10:09:19.276Z</time></trkpt><trkpt lat="45.7921369" lon="10.09682"><ele>182.0</ele><time>2026-04-12T10:09:20.28Z</time></trkpt><trkpt lat="45.7920691" lon="10.0966556"><ele>182.0</ele><time>2026-04-12T10:09:21.27Z</time></trkpt><trkpt lat="45.792" lon="10.0964919"><ele>182.0</ele><time>2026-04-12T10:09:22.285Z</time></trkpt><trkpt lat="45.7919294" lon="10.0963273"><ele>182.0</ele><time>2026-04-12T10:09:23.276Z</time></trkpt><trkpt lat="45.7918575" lon="10.0961601"><ele>182.0</ele><time>2026-04-12T10:09:24.287Z</time></trkpt><trkpt lat="45.7917839" lon="10.0959932"><ele>182.0</ele><time>2026-04-12T10:09:25.276Z</time></trkpt><trkpt lat="45.7917087" lon="10.0958305"><ele>183.66666666666666</ele><time>2026-04-12T10:09:26.275Z</time></trkpt><trkpt lat="45.7916304" lon="10.0956689"><ele>185.33333333333334</ele><time>2026-04-12T10:09:27.279Z</time></trkpt><trkpt lat="45.7915468" lon="10.0955132"><ele>187.0</ele><time>2026-04-12T10:09:28.277Z</time></trkpt><trkpt lat="45.7913672" lon="10.0952262"><ele>187.0</ele><time>2026-04-12T10:09:30.286Z</time></trkpt><trkpt lat="45.7912753" lon="10.0950997"><ele>187.0</ele><time>2026-04-12T10:09:31.281Z</time></trkpt><trkpt lat="45.7911904" lon="10.0949761"><ele>187.0</ele><time>2026-04-12T10:09:32.269Z</time></trkpt><trkpt lat="45.7911166" lon="10.0948464"><ele>187.0</ele><time>2026-04-12T10:09:33.28Z</time></trkpt><trkpt lat="45.7910605" lon="10.094708"><ele>186.0</ele><time>2026-04-12T10:09:34.276Z</time></trkpt><trkpt lat="45.7910265" lon="10.0945575"><ele>185.0</ele><time>2026-04-12T10:09:35.269Z</time></trkpt><trkpt lat="45.7910088" lon="10.0943983"><ele>184.0</ele><time>2026-04-12T10:09:36.266Z</time></trkpt><trkpt lat="45.7909881" lon="10.0942419"><ele>183.0</ele><time>2026-04-12T10:09:37.278Z</time></trkpt><trkpt lat="45.7909648" lon="10.0940783"><ele>185.0</ele><time>2026-04-12T10:09:38.263Z</time></trkpt><trkpt lat="45.7909203" lon="10.093932"><ele>187.0</ele><time>2026-04-12T10:09:39.267Z</time></trkpt><trkpt lat="45.7908636" lon="10.0937909"><ele>189.0</ele><time>2026-04-12T10:09:40.276Z</time></trkpt><trkpt lat="45.7907966" lon="10.0936487"><ele>191.0</ele><time>2026-04-12T10:09:41.283Z</time></trkpt><trkpt lat="45.7907317" lon="10.0935035"><ele>191.0</ele><time>2026-04-12T10:09:42.279Z</time></trkpt><trkpt lat="45.7906754" lon="10.0933514"><ele>191.0</ele><time>2026-04-12T10:09:43.281Z</time></trkpt><trkpt lat="45.7906255" lon="10.0931983"><ele>191.0</ele><time>2026-04-12T10:09:44.28Z</time></trkpt><trkpt lat="45.7905804" lon="10.0930411"><ele>191.0</ele><time>2026-04-12T10:09:45.274Z</time></trkpt><trkpt lat="45.7905347" lon="10.0928826"><ele>189.25</ele><time>2026-04-12T10:09:46.287Z</time></trkpt><trkpt lat="45.7904869" lon="10.0927296"><ele>187.5</ele><time>2026-04-12T10:09:47.281Z</time></trkpt><trkpt lat="45.7904333" lon="10.0925808"><ele>185.75</ele><time>2026-04-12T10:09:48.287Z</time></trkpt><trkpt lat="45.7903696" lon="10.092441"><ele>184.0</ele><time>2026-04-12T10:09:49.285Z</time></trkpt><trkpt lat="45.7902291" lon="10.0921782"><ele>185.5</ele><time>2026-04-12T10:09:51.278Z</time></trkpt><trkpt lat="45.7901483" lon="10.0920535"><ele>187.0</ele><time>2026-04-12T10:09:52.279Z</time></trkpt><trkpt lat="45.7900669" lon="10.0919333"><ele>188.5</ele><time>2026-04-12T10:09:53.285Z</time></trkpt><trkpt lat="45.7899884" lon="10.0918146"><ele>190.0</ele><time>2026-04-12T10:09:54.282Z</time></trkpt><trkpt lat="45.7899125" lon="10.0916983"><ele>188.6</ele><time>2026-04-12T10:09:55.284Z</time></trkpt><trkpt lat="45.7898414" lon="10.0915864"><ele>187.2</ele><time>2026-04-12T10:09:56.281Z</time></trkpt><trkpt lat="45.7897705" lon="10.0914775"><ele>185.8</ele><time>2026-04-12T10:09:57.28Z</time></trkpt><trkpt lat="45.7897001" lon="10.0913756"><ele>184.4</ele><time>2026-04-12T10:09:58.287Z</time></trkpt><trkpt lat="45.789628" lon="10.0912817"><ele>183.0</ele><time>2026-04-12T10:09:59.281Z</time></trkpt><trkpt lat="45.7895538" lon="10.0911947"><ele>183.0</ele><time>2026-04-12T10:10:00.286Z</time></trkpt><trkpt lat="45.7894809" lon="10.091115"><ele>183.0</ele><time>2026-04-12T10:10:01.281Z</time></trkpt><trkpt lat="45.7894103" lon="10.0910392"><ele>183.0</ele><time>2026-04-12T10:10:02.285Z</time></trkpt><trkpt lat="45.7893362" lon="10.0909628"><ele>183.0</ele><time>2026-04-12T10:10:03.279Z</time></trkpt><trkpt lat="45.7892583" lon="10.0908821"><ele>183.0</ele><time>2026-04-12T10:10:04.279Z</time></trkpt><trkpt lat="45.7891766" lon="10.090797"><ele>182.8</ele><time>2026-04-12T10:10:05.282Z</time></trkpt><trkpt lat="45.7890888" lon="10.0907072"><ele>182.60000000000002</ele><time>2026-04-12T10:10:06.279Z</time></trkpt><trkpt lat="45.7889958" lon="10.0906203"><ele>182.39999999999998</ele><time>2026-04-12T10:10:07.271Z</time></trkpt><trkpt lat="45.7889003" lon="10.0905377"><ele>182.2</ele><time>2026-04-12T10:10:08.286Z</time></trkpt><trkpt lat="45.7888014" lon="10.090456"><ele>182.0</ele><time>2026-04-12T10:10:09.289Z</time></trkpt><trkpt lat="45.7887021" lon="10.0903752"><ele>182.0</ele><time>2026-04-12T10:10:10.271Z</time></trkpt><trkpt lat="45.7885217" lon="10.0902118"><ele>182.0</ele><time>2026-04-12T10:10:12.275Z</time></trkpt><trkpt lat="45.788436" lon="10.0901279"><ele>182.0</ele><time>2026-04-12T10:10:13.286Z</time></trkpt><trkpt lat="45.7883533" lon="10.0900404"><ele>182.0</ele><time>2026-04-12T10:10:14.278Z</time></trkpt><trkpt lat="45.7882801" lon="10.0899446"><ele>183.0</ele><time>2026-04-12T10:10:15.283Z</time></trkpt><trkpt lat="45.7882225" lon="10.089834"><ele>184.0</ele><time>2026-04-12T10:10:16.29Z</time></trkpt><trkpt lat="45.7881842" lon="10.0897045"><ele>185.0</ele><time>2026-04-12T10:10:17.275Z</time></trkpt><trkpt lat="45.7881604" lon="10.0895628"><ele>186.0</ele><time>2026-04-12T10:10:18.285Z</time></trkpt><trkpt lat="45.7881501" lon="10.0894123"><ele>187.0</ele><time>2026-04-12T10:10:19.276Z</time></trkpt><trkpt lat="45.788144" lon="10.0892586"><ele>187.0</ele><time>2026-04-12T10:10:20.285Z</time></trkpt><trkpt lat="45.7881316" lon="10.0891038"><ele>187.0</ele><time>2026-04-12T10:10:21.287Z</time></trkpt><trkpt lat="45.7881124" lon="10.0889459"><ele>187.0</ele><time>2026-04-12T10:10:22.279Z</time></trkpt><trkpt lat="45.7880892" lon="10.0887884"><ele>187.0</ele><time>2026-04-12T10:10:23.286Z</time></trkpt><trkpt lat="45.788054" lon="10.0886377"><ele>187.0</ele><time>2026-04-12T10:10:24.28Z</time></trkpt><trkpt lat="45.7880064" lon="10.0884931"><ele>186.25</ele><time>2026-04-12T10:10:25.282Z</time></trkpt><trkpt lat="45.7879494" lon="10.0883537"><ele>185.5</ele><time>2026-04-12T10:10:26.287Z</time></trkpt><trkpt lat="45.7878904" lon="10.0882147"><ele>184.75</ele><time>2026-04-12T10:10:27.277Z</time></trkpt><trkpt lat="45.7878263" lon="10.0880764"><ele>184.0</ele><time>2026-04-12T10:10:28.285Z</time></trkpt><trkpt lat="45.7877588" lon="10.0879382"><ele>183.66666666666669</ele><time>2026-04-12T10:10:29.285Z</time></trkpt><trkpt lat="45.7876907" lon="10.0878022"><ele>183.33333333333334</ele><time>2026-04-12T10:10:30.287Z</time></trkpt><trkpt lat="45.787624" lon="10.0876643"><ele>183.0</ele><time>2026-04-12T10:10:31.283Z</time></trkpt><trkpt lat="45.7874807" lon="10.0874129"><ele>183.0</ele><time>2026-04-12T10:10:33.294Z</time></trkpt><trkpt lat="45.7874076" lon="10.0872991"><ele>183.0</ele><time>2026-04-12T10:10:34.282Z</time></trkpt><trkpt lat="45.7873355" lon="10.0871917"><ele>183.0</ele><time>2026-04-12T10:10:35.284Z</time></trkpt><trkpt lat="45.7872628" lon="10.087092"><ele>183.0</ele><time>2026-04-12T10:10:36.272Z</time></trkpt><trkpt lat="45.7871918" lon="10.0869884"><ele>183.0</ele><time>2026-04-12T10:10:37.289Z</time></trkpt><trkpt lat="45.7871192" lon="10.0868818"><ele>183.0</ele><time>2026-04-12T10:10:38.281Z</time></trkpt><trkpt lat="45.7870424" lon="10.0867737"><ele>183.0</ele><time>2026-04-12T10:10:39.282Z</time></trkpt><trkpt lat="45.7869602" lon="10.0866657"><ele>183.0</ele><time>2026-04-12T10:10:40.274Z</time></trkpt><trkpt lat="45.7868743" lon="10.0865546"><ele>183.0</ele><time>2026-04-12T10:10:41.29Z</time></trkpt><trkpt lat="45.7867824" lon="10.0864406"><ele>183.0</ele><time>2026-04-12T10:10:42.284Z</time></trkpt><trkpt lat="45.7866881" lon="10.086327"><ele>183.0</ele><time>2026-04-12T10:10:43.291Z</time></trkpt><trkpt lat="45.7865949" lon="10.0862123"><ele>183.0</ele><time>2026-04-12T10:10:44.282Z</time></trkpt><trkpt lat="45.7865007" lon="10.0860995"><ele>183.0</ele><time>2026-04-12T10:10:45.27Z</time></trkpt><trkpt lat="45.7864087" lon="10.0859964"><ele>183.0</ele><time>2026-04-12T10:10:46.285Z</time></trkpt><trkpt lat="45.7863168" lon="10.0859016"><ele>183.0</ele><time>2026-04-12T10:10:47.284Z</time></trkpt><trkpt lat="45.7862273" lon="10.0858096"><ele>183.0</ele><time>2026-04-12T10:10:48.281Z</time></trkpt><trkpt lat="45.7861469" lon="10.0857157"><ele>183.0</ele><time>2026-04-12T10:10:49.28Z</time></trkpt><trkpt lat="45.7860765" lon="10.0856121"><ele>183.0</ele><time>2026-04-12T10:10:50.283Z</time></trkpt><trkpt lat="45.7860136" lon="10.0854978"><ele>183.0</ele><time>2026-04-12T10:10:51.289Z</time></trkpt><trkpt lat="45.7859574" lon="10.085373"><ele>183.0</ele><time>2026-04-12T10:10:52.272Z</time></trkpt><trkpt lat="45.7858536" lon="10.085055"><ele>183.0</ele><time>2026-04-12T10:10:54.281Z</time></trkpt><trkpt lat="45.7857947" lon="10.0848669"><ele>183.0</ele><time>2026-04-12T10:10:55.29Z</time></trkpt><trkpt lat="45.7857269" lon="10.0846902"><ele>183.0</ele><time>2026-04-12T10:10:56.277Z</time></trkpt><trkpt lat="45.7856545" lon="10.0845243"><ele>183.0</ele><time>2026-04-12T10:10:57.267Z</time></trkpt><trkpt lat="45.7855726" lon="10.0843815"><ele>183.0</ele><time>2026-04-12T10:10:58.281Z</time></trkpt><trkpt lat="45.7854851" lon="10.0842542"><ele>183.0</ele><time>2026-04-12T10:10:59.284Z</time></trkpt><trkpt lat="45.7854008" lon="10.0841187"><ele>183.0</ele><time>2026-04-12T10:11:00.265Z</time></trkpt><trkpt lat="45.7853214" lon="10.0839685"><ele>183.0</ele><time>2026-04-12T10:11:01.29Z</time></trkpt><trkpt lat="45.7852511" lon="10.0838085"><ele>183.0</ele><time>2026-04-12T10:11:02.285Z</time></trkpt><trkpt lat="45.7851916" lon="10.0836443"><ele>184.4</ele><time>2026-04-12T10:11:03.288Z</time></trkpt><trkpt lat="45.785144" lon="10.0834825"><ele>185.8</ele><time>2026-04-12T10:11:04.278Z</time></trkpt><trkpt lat="45.7851077" lon="10.0833329"><ele>187.2</ele><time>2026-04-12T10:11:05.291Z</time></trkpt><trkpt lat="45.7850804" lon="10.0831883"><ele>188.6</ele><time>2026-04-12T10:11:06.277Z</time></trkpt><trkpt lat="45.7850526" lon="10.0830463"><ele>190.0</ele><time>2026-04-12T10:11:07.28Z</time></trkpt><trkpt lat="45.7850264" lon="10.0829119"><ele>190.0</ele><time>2026-04-12T10:11:08.283Z</time></trkpt><trkpt lat="45.7849986" lon="10.0827909"><ele>190.0</ele><time>2026-04-12T10:11:09.273Z</time></trkpt><trkpt lat="45.7849735" lon="10.0826878"><ele>190.0</ele><time>2026-04-12T10:11:10.287Z</time></trkpt><trkpt lat="45.7849533" lon="10.0826008"><ele>190.0</ele><time>2026-04-12T10:11:11.286Z</time></trkpt><trkpt lat="45.7849396" lon="10.0824688"><ele>190.0</ele><time>2026-04-12T10:11:13.278Z</time></trkpt><trkpt lat="45.7848969" lon="10.0824884"><ele>190.0</ele><time>2026-04-12T10:18:47.279Z</time></trkpt><trkpt lat="45.7849352" lon="10.0827824"><ele>190.0</ele><time>2026-04-12T10:18:51.283Z</time></trkpt><trkpt lat="45.7849755" lon="10.0829455"><ele>190.0</ele><time>2026-04-12T10:18:53.273Z</time></trkpt><trkpt lat="45.7850097" lon="10.083103"><ele>190.0</ele><time>2026-04-12T10:18:55.269Z</time></trkpt><trkpt lat="45.7850314" lon="10.0832339"><ele>190.0</ele><time>2026-04-12T10:18:57.283Z</time></trkpt><trkpt lat="45.7850532" lon="10.0833343"><ele>190.0</ele><time>2026-04-12T10:18:59.268Z</time></trkpt><trkpt lat="45.7850784" lon="10.0834459"><ele>191.33333333333334</ele><time>2026-04-12T10:19:02.284Z</time></trkpt><trkpt lat="45.7851035" lon="10.0835541"><ele>192.66666666666669</ele><time>2026-04-12T10:19:06.266Z</time></trkpt><trkpt lat="45.7851227" lon="10.0836473"><ele>194.0</ele><time>2026-04-12T10:19:10.267Z</time></trkpt><trkpt lat="45.7852565" lon="10.0841074"><ele>191.25</ele><time>2026-04-12T10:19:39.281Z</time></trkpt><trkpt lat="45.7853229" lon="10.0842558"><ele>188.5</ele><time>2026-04-12T10:19:40.269Z</time></trkpt><trkpt lat="45.7853988" lon="10.0844129"><ele>185.75</ele><time>2026-04-12T10:19:41.289Z</time></trkpt><trkpt lat="45.785473" lon="10.0845665"><ele>183.0</ele><time>2026-04-12T10:19:42.291Z</time></trkpt><trkpt lat="45.7855403" lon="10.0847181"><ele>183.0</ele><time>2026-04-12T10:19:43.284Z</time></trkpt><trkpt lat="45.7856024" lon="10.0848682"><ele>183.0</ele><time>2026-04-12T10:19:44.294Z</time></trkpt><trkpt lat="45.7856608" lon="10.0850238"><ele>183.0</ele><time>2026-04-12T10:19:45.273Z</time></trkpt><trkpt lat="45.7857093" lon="10.0851862"><ele>183.0</ele><time>2026-04-12T10:19:46.276Z</time></trkpt><trkpt lat="45.7857496" lon="10.0853585"><ele>183.0</ele><time>2026-04-12T10:19:47.281Z</time></trkpt><trkpt lat="45.7857866" lon="10.0855168"><ele>183.0</ele><time>2026-04-12T10:19:48.271Z</time></trkpt><trkpt lat="45.7858361" lon="10.0856448"><ele>183.0</ele><time>2026-04-12T10:19:49.29Z</time></trkpt><trkpt lat="45.7858979" lon="10.0857507"><ele>183.0</ele><time>2026-04-12T10:19:50.273Z</time></trkpt><trkpt lat="45.7859845" lon="10.0858364"><ele>183.0</ele><time>2026-04-12T10:19:51.285Z</time></trkpt><trkpt lat="45.786093" lon="10.0859159"><ele>183.0</ele><time>2026-04-12T10:19:52.282Z</time></trkpt><trkpt lat="45.7862102" lon="10.0859799"><ele>183.0</ele><time>2026-04-12T10:19:53.272Z</time></trkpt><trkpt lat="45.786318" lon="10.0860538"><ele>183.0</ele><time>2026-04-12T10:19:54.277Z</time></trkpt><trkpt lat="45.7864267" lon="10.0861397"><ele>183.0</ele><time>2026-04-12T10:19:55.281Z</time></trkpt><trkpt lat="45.7865239" lon="10.0862425"><ele>183.0</ele><time>2026-04-12T10:19:56.288Z</time></trkpt><trkpt lat="45.786608" lon="10.0863587"><ele>183.0</ele><time>2026-04-12T10:19:57.289Z</time></trkpt><trkpt lat="45.786696" lon="10.0864866"><ele>183.0</ele><time>2026-04-12T10:19:58.28Z</time></trkpt><trkpt lat="45.7869053" lon="10.0867401"><ele>183.0</ele><time>2026-04-12T10:20:00.282Z</time></trkpt><trkpt lat="45.7870283" lon="10.0868504"><ele>183.0</ele><time>2026-04-12T10:20:01.293Z</time></trkpt><trkpt lat="45.7871469" lon="10.0869727"><ele>183.0</ele><time>2026-04-12T10:20:02.281Z</time></trkpt><trkpt lat="45.7872506" lon="10.0871116"><ele>183.0</ele><time>2026-04-12T10:20:03.288Z</time></trkpt><trkpt lat="45.7873447" lon="10.0872618"><ele>183.0</ele><time>2026-04-12T10:20:04.285Z</time></trkpt><trkpt lat="45.7874321" lon="10.0874151"><ele>183.0</ele><time>2026-04-12T10:20:05.285Z</time></trkpt><trkpt lat="45.7875162" lon="10.0875695"><ele>183.0</ele><time>2026-04-12T10:20:06.287Z</time></trkpt><trkpt lat="45.7875994" lon="10.0877263"><ele>183.0</ele><time>2026-04-12T10:20:07.291Z</time></trkpt><trkpt lat="45.7876762" lon="10.0878934"><ele>182.75</ele><time>2026-04-12T10:20:08.287Z</time></trkpt><trkpt lat="45.7877487" lon="10.0880674"><ele>182.5</ele><time>2026-04-12T10:20:09.283Z</time></trkpt><trkpt lat="45.7878195" lon="10.0882382"><ele>182.25</ele><time>2026-04-12T10:20:10.286Z</time></trkpt><trkpt lat="45.7878865" lon="10.0883993"><ele>182.0</ele><time>2026-04-12T10:20:11.285Z</time></trkpt><trkpt lat="45.7879461" lon="10.0885537"><ele>182.5</ele><time>2026-04-12T10:20:12.289Z</time></trkpt><trkpt lat="45.7879953" lon="10.0887053"><ele>183.0</ele><time>2026-04-12T10:20:13.283Z</time></trkpt><trkpt lat="45.7880375" lon="10.0888569"><ele>183.5</ele><time>2026-04-12T10:20:14.29Z</time></trkpt><trkpt lat="45.7880715" lon="10.0890146"><ele>184.0</ele><time>2026-04-12T10:20:15.277Z</time></trkpt><trkpt lat="45.7880972" lon="10.0891884"><ele>184.75</ele><time>2026-04-12T10:20:16.286Z</time></trkpt><trkpt lat="45.7881168" lon="10.0893731"><ele>185.5</ele><time>2026-04-12T10:20:17.285Z</time></trkpt><trkpt lat="45.7881374" lon="10.089554"><ele>186.25</ele><time>2026-04-12T10:20:18.291Z</time></trkpt><trkpt lat="45.7881659" lon="10.0897253"><ele>187.0</ele><time>2026-04-12T10:20:19.289Z</time></trkpt><trkpt lat="45.7882752" lon="10.0900309"><ele>188.25</ele><time>2026-04-12T10:20:21.272Z</time></trkpt><trkpt lat="45.7883705" lon="10.090156"><ele>189.5</ele><time>2026-04-12T10:20:22.288Z</time></trkpt><trkpt lat="45.788503" lon="10.090258"><ele>190.75</ele><time>2026-04-12T10:20:23.281Z</time></trkpt><trkpt lat="45.7886364" lon="10.090357"><ele>192.0</ele><time>2026-04-12T10:20:24.287Z</time></trkpt><trkpt lat="45.7887723" lon="10.0904497"><ele>192.25</ele><time>2026-04-12T10:20:25.28Z</time></trkpt><trkpt lat="45.7889011" lon="10.0905519"><ele>192.5</ele><time>2026-04-12T10:20:26.284Z</time></trkpt><trkpt lat="45.7890256" lon="10.0906608"><ele>192.75</ele><time>2026-04-12T10:20:27.284Z</time></trkpt><trkpt lat="45.7891506" lon="10.0907757"><ele>193.0</ele><time>2026-04-12T10:20:28.292Z</time></trkpt><trkpt lat="45.7892777" lon="10.0908929"><ele>190.5</ele><time>2026-04-12T10:20:29.278Z</time></trkpt><trkpt lat="45.7894007" lon="10.0910161"><ele>188.0</ele><time>2026-04-12T10:20:30.284Z</time></trkpt><trkpt lat="45.7895171" lon="10.0911488"><ele>185.5</ele><time>2026-04-12T10:20:31.293Z</time></trkpt><trkpt lat="45.7896303" lon="10.0912823"><ele>183.0</ele><time>2026-04-12T10:20:32.284Z</time></trkpt><trkpt lat="45.7897416" lon="10.0914213"><ele>183.0</ele><time>2026-04-12T10:20:33.292Z</time></trkpt><trkpt lat="45.7898471" lon="10.091568"><ele>183.0</ele><time>2026-04-12T10:20:34.281Z</time></trkpt><trkpt lat="45.7899466" lon="10.0917276"><ele>183.0</ele><time>2026-04-12T10:20:35.285Z</time></trkpt><trkpt lat="45.7900441" lon="10.0918986"><ele>182.66666666666666</ele><time>2026-04-12T10:20:36.276Z</time></trkpt><trkpt lat="45.7901447" lon="10.0920848"><ele>182.33333333333331</ele><time>2026-04-12T10:20:37.284Z</time></trkpt><trkpt lat="45.7902514" lon="10.0922798"><ele>182.0</ele><time>2026-04-12T10:20:38.288Z</time></trkpt><trkpt lat="45.7903646" lon="10.0924966"><ele>183.0</ele><time>2026-04-12T10:20:39.274Z</time></trkpt><trkpt lat="45.790475" lon="10.0927501"><ele>184.0</ele><time>2026-04-12T10:20:40.274Z</time></trkpt><trkpt lat="45.7906439" lon="10.0933352"><ele>186.33333333333334</ele><time>2026-04-12T10:20:42.286Z</time></trkpt><trkpt lat="45.7907298" lon="10.093629"><ele>188.66666666666666</ele><time>2026-04-12T10:20:43.274Z</time></trkpt><trkpt lat="45.7908388" lon="10.0939106"><ele>191.0</ele><time>2026-04-12T10:20:44.278Z</time></trkpt><trkpt lat="45.7909602" lon="10.0941972"><ele>189.66666666666666</ele><time>2026-04-12T10:20:45.27Z</time></trkpt><trkpt lat="45.7910516" lon="10.0944638"><ele>188.33333333333334</ele><time>2026-04-12T10:20:46.271Z</time></trkpt><trkpt lat="45.7911205" lon="10.0947296"><ele>187.0</ele><time>2026-04-12T10:20:47.272Z</time></trkpt><trkpt lat="45.7911891" lon="10.0949712"><ele>187.0</ele><time>2026-04-12T10:20:48.275Z</time></trkpt><trkpt lat="45.791291" lon="10.0951789"><ele>187.0</ele><time>2026-04-12T10:20:49.273Z</time></trkpt><trkpt lat="45.7914177" lon="10.0953693"><ele>187.0</ele><time>2026-04-12T10:20:50.275Z</time></trkpt><trkpt lat="45.7915537" lon="10.0955639"><ele>185.33333333333334</ele><time>2026-04-12T10:20:51.273Z</time></trkpt><trkpt lat="45.7916859" lon="10.0957813"><ele>183.66666666666666</ele><time>2026-04-12T10:20:52.266Z</time></trkpt><trkpt lat="45.7918099" lon="10.0960267"><ele>182.0</ele><time>2026-04-12T10:20:53.269Z</time></trkpt><trkpt lat="45.791928" lon="10.0962939"><ele>182.0</ele><time>2026-04-12T10:20:54.272Z</time></trkpt><trkpt lat="45.7920425" lon="10.0965662"><ele>182.0</ele><time>2026-04-12T10:20:55.269Z</time></trkpt><trkpt lat="45.7921532" lon="10.0968339"><ele>182.0</ele><time>2026-04-12T10:20:56.273Z</time></trkpt><trkpt lat="45.7922582" lon="10.0970884"><ele>182.0</ele><time>2026-04-12T10:20:57.273Z</time></trkpt><trkpt lat="45.7923597" lon="10.097325"><ele>182.0</ele><time>2026-04-12T10:20:58.273Z</time></trkpt><trkpt lat="45.7924576" lon="10.0975531"><ele>182.0</ele><time>2026-04-12T10:20:59.265Z</time></trkpt><trkpt lat="45.7925538" lon="10.0977767"><ele>182.0</ele><time>2026-04-12T10:21:00.266Z</time></trkpt><trkpt lat="45.7926656" lon="10.0979867"><ele>182.0</ele><time>2026-04-12T10:21:01.268Z</time></trkpt><trkpt lat="45.7929269" lon="10.0983487"><ele>182.0</ele><time>2026-04-12T10:21:03.27Z</time></trkpt><trkpt lat="45.7930489" lon="10.098514"><ele>182.0</ele><time>2026-04-12T10:21:04.264Z</time></trkpt><trkpt lat="45.7931498" lon="10.0986801"><ele>182.0</ele><time>2026-04-12T10:21:05.268Z</time></trkpt><trkpt lat="45.7932247" lon="10.0988467"><ele>182.0</ele><time>2026-04-12T10:21:06.265Z</time></trkpt><trkpt lat="45.7932634" lon="10.0990121"><ele>182.0</ele><time>2026-04-12T10:21:07.266Z</time></trkpt><trkpt lat="45.7932688" lon="10.0991718"><ele>182.0</ele><time>2026-04-12T10:21:08.268Z</time></trkpt><trkpt lat="45.7932628" lon="10.0993196"><ele>182.0</ele><time>2026-04-12T10:21:09.26Z</time></trkpt><trkpt lat="45.7932611" lon="10.099459"><ele>182.0</ele><time>2026-04-12T10:21:10.264Z</time></trkpt><trkpt lat="45.7932738" lon="10.0996134"><ele>182.0</ele><time>2026-04-12T10:21:11.268Z</time></trkpt><trkpt lat="45.7933139" lon="10.0997855"><ele>182.0</ele><time>2026-04-12T10:21:12.27Z</time></trkpt><trkpt lat="45.7933857" lon="10.0999646"><ele>182.0</ele><time>2026-04-12T10:21:13.271Z</time></trkpt><trkpt lat="45.7934803" lon="10.1001349"><ele>182.0</ele><time>2026-04-12T10:21:14.266Z</time></trkpt><trkpt lat="45.7935853" lon="10.1002947"><ele>182.0</ele><time>2026-04-12T10:21:15.266Z</time></trkpt><trkpt lat="45.7936819" lon="10.1004609"><ele>182.0</ele><time>2026-04-12T10:21:16.266Z</time></trkpt><trkpt lat="45.7937794" lon="10.1006279"><ele>182.0</ele><time>2026-04-12T10:21:17.273Z</time></trkpt><trkpt lat="45.793883" lon="10.1007952"><ele>183.66666666666666</ele><time>2026-04-12T10:21:18.271Z</time></trkpt><trkpt lat="45.7939927" lon="10.1009644"><ele>185.33333333333334</ele><time>2026-04-12T10:21:19.267Z</time></trkpt><trkpt lat="45.7941085" lon="10.1011329"><ele>187.0</ele><time>2026-04-12T10:21:20.267Z</time></trkpt><trkpt lat="45.7942289" lon="10.1012957"><ele>185.0</ele><time>2026-04-12T10:21:21.266Z</time></trkpt><trkpt lat="45.7943479" lon="10.1014553"><ele>183.0</ele><time>2026-04-12T10:21:22.273Z</time></trkpt><trkpt lat="45.7945803" lon="10.1017533"><ele>183.0</ele><time>2026-04-12T10:21:24.273Z</time></trkpt><trkpt lat="45.7946882" lon="10.1018854"><ele>183.0</ele><time>2026-04-12T10:21:25.273Z</time></trkpt><trkpt lat="45.7947939" lon="10.1020037"><ele>183.0</ele><time>2026-04-12T10:21:26.267Z</time></trkpt><trkpt lat="45.7948991" lon="10.1021051"><ele>183.0</ele><time>2026-04-12T10:21:27.274Z</time></trkpt><trkpt lat="45.7950019" lon="10.1021915"><ele>183.0</ele><time>2026-04-12T10:21:28.279Z</time></trkpt><trkpt lat="45.7950974" lon="10.1022803"><ele>183.0</ele><time>2026-04-12T10:21:29.267Z</time></trkpt><trkpt lat="45.7951824" lon="10.1023772"><ele>183.0</ele><time>2026-04-12T10:21:30.267Z</time></trkpt><trkpt lat="45.7952541" lon="10.1024914"><ele>183.0</ele><time>2026-04-12T10:21:31.268Z</time></trkpt><trkpt lat="45.7953176" lon="10.1026224"><ele>183.0</ele><time>2026-04-12T10:21:32.266Z</time></trkpt><trkpt lat="45.795389" lon="10.1027603"><ele>183.75</ele><time>2026-04-12T10:21:33.27Z</time></trkpt><trkpt lat="45.7954771" lon="10.1028984"><ele>184.5</ele><time>2026-04-12T10:21:34.267Z</time></trkpt><trkpt lat="45.7955881" lon="10.1030234"><ele>185.25</ele><time>2026-04-12T10:21:35.269Z</time></trkpt><trkpt lat="45.7957202" lon="10.1031266"><ele>186.0</ele><time>2026-04-12T10:21:36.271Z</time></trkpt><trkpt lat="45.7958728" lon="10.1032079"><ele>187.0</ele><time>2026-04-12T10:21:37.267Z</time></trkpt><trkpt lat="45.7960273" lon="10.1032856"><ele>188.0</ele><time>2026-04-12T10:21:38.262Z</time></trkpt><trkpt lat="45.7961738" lon="10.1033674"><ele>189.0</ele><time>2026-04-12T10:21:39.271Z</time></trkpt><trkpt lat="45.7963149" lon="10.1034498"><ele>189.0</ele><time>2026-04-12T10:21:40.269Z</time></trkpt><trkpt lat="45.7964506" lon="10.1035361"><ele>189.0</ele><time>2026-04-12T10:21:41.273Z</time></trkpt><trkpt lat="45.7965817" lon="10.10363"><ele>189.0</ele><time>2026-04-12T10:21:42.274Z</time></trkpt><trkpt lat="45.7967042" lon="10.1037301"><ele>189.0</ele><time>2026-04-12T10:21:43.276Z</time></trkpt><trkpt lat="45.7969153" lon="10.103948"><ele>188.75</ele><time>2026-04-12T10:21:45.268Z</time></trkpt><trkpt lat="45.797011" lon="10.1040685"><ele>188.5</ele><time>2026-04-12T10:21:46.269Z</time></trkpt><trkpt lat="45.797105" lon="10.1042039"><ele>188.25</ele><time>2026-04-12T10:21:47.27Z</time></trkpt><trkpt lat="45.7972004" lon="10.1043443"><ele>188.0</ele><time>2026-04-12T10:21:48.265Z</time></trkpt><trkpt lat="45.7972981" lon="10.1044824"><ele>188.0</ele><time>2026-04-12T10:21:49.269Z</time></trkpt><trkpt lat="45.7973924" lon="10.1046141"><ele>188.0</ele><time>2026-04-12T10:21:50.264Z</time></trkpt><trkpt lat="45.7974834" lon="10.1047387"><ele>188.0</ele><time>2026-04-12T10:21:51.272Z</time></trkpt><trkpt lat="45.797575" lon="10.1048587"><ele>188.0</ele><time>2026-04-12T10:21:52.269Z</time></trkpt><trkpt lat="45.7976682" lon="10.1049705"><ele>187.25</ele><time>2026-04-12T10:21:53.268Z</time></trkpt><trkpt lat="45.7977612" lon="10.1050772"><ele>186.5</ele><time>2026-04-12T10:21:54.264Z</time></trkpt><trkpt lat="45.7978583" lon="10.1051793"><ele>185.75</ele><time>2026-04-12T10:21:55.271Z</time></trkpt><trkpt lat="45.7979635" lon="10.1052778"><ele>185.0</ele><time>2026-04-12T10:21:56.271Z</time></trkpt><trkpt lat="45.7980744" lon="10.1053723"><ele>185.0</ele><time>2026-04-12T10:21:57.268Z</time></trkpt><trkpt lat="45.7981913" lon="10.1054597"><ele>185.0</ele><time>2026-04-12T10:21:58.267Z</time></trkpt><trkpt lat="45.7983066" lon="10.1055383"><ele>185.0</ele><time>2026-04-12T10:21:59.267Z</time></trkpt><trkpt lat="45.7984174" lon="10.1056041"><ele>185.0</ele><time>2026-04-12T10:22:00.267Z</time></trkpt><trkpt lat="45.7985239" lon="10.1056582"><ele>184.75</ele><time>2026-04-12T10:22:01.269Z</time></trkpt><trkpt lat="45.7986264" lon="10.1057068"><ele>184.5</ele><time>2026-04-12T10:22:02.271Z</time></trkpt><trkpt lat="45.7987244" lon="10.1057518"><ele>184.25</ele><time>2026-04-12T10:22:03.268Z</time></trkpt><trkpt lat="45.7988158" lon="10.1057998"><ele>184.0</ele><time>2026-04-12T10:22:04.272Z</time></trkpt><trkpt lat="45.7989762" lon="10.1059091"><ele>184.83333333333334</ele><time>2026-04-12T10:22:06.271Z</time></trkpt><trkpt lat="45.799042" lon="10.105983"><ele>185.66666666666669</ele><time>2026-04-12T10:22:07.266Z</time></trkpt><trkpt lat="45.799096" lon="10.1060685"><ele>186.5</ele><time>2026-04-12T10:22:08.27Z</time></trkpt><trkpt lat="45.7991459" lon="10.1061534"><ele>187.33333333333334</ele><time>2026-04-12T10:22:09.271Z</time></trkpt><trkpt lat="45.7991966" lon="10.1062172"><ele>188.16666666666666</ele><time>2026-04-12T10:22:10.274Z</time></trkpt><trkpt lat="45.7993026" lon="10.1062527"><ele>189.0</ele><time>2026-04-12T10:22:12.275Z</time></trkpt><trkpt lat="45.7993583" lon="10.106208"><ele>189.0</ele><time>2026-04-12T10:22:13.275Z</time></trkpt><trkpt lat="45.7994014" lon="10.1061353"><ele>189.0</ele><time>2026-04-12T10:22:14.278Z</time></trkpt><trkpt lat="45.7994599" lon="10.1059728"><ele>189.0</ele><time>2026-04-12T10:22:16.267Z</time></trkpt><trkpt lat="45.7995197" lon="10.1059052"><ele>189.0</ele><time>2026-04-12T10:22:17.265Z</time></trkpt><trkpt lat="45.7996081" lon="10.1058736"><ele>189.0</ele><time>2026-04-12T10:22:18.269Z</time></trkpt><trkpt lat="45.7997122" lon="10.105875"><ele>189.0</ele><time>2026-04-12T10:22:19.276Z</time></trkpt><trkpt lat="45.7998275" lon="10.1058957"><ele>189.0</ele><time>2026-04-12T10:22:20.27Z</time></trkpt><trkpt lat="45.7999586" lon="10.1059221"><ele>189.0</ele><time>2026-04-12T10:22:21.271Z</time></trkpt><trkpt lat="45.8000925" lon="10.1059436"><ele>189.0</ele><time>2026-04-12T10:22:22.269Z</time></trkpt><trkpt lat="45.8002235" lon="10.1059603"><ele>189.66666666666666</ele><time>2026-04-12T10:22:23.277Z</time></trkpt><trkpt lat="45.8003494" lon="10.1059752"><ele>190.33333333333331</ele><time>2026-04-12T10:22:24.271Z</time></trkpt><trkpt lat="45.8004763" lon="10.1059894"><ele>191.0</ele><time>2026-04-12T10:22:25.272Z</time></trkpt><trkpt lat="45.8007394" lon="10.1060124"><ele>191.0</ele><time>2026-04-12T10:22:27.27Z</time></trkpt><trkpt lat="45.800874" lon="10.106027"><ele>191.0</ele><time>2026-04-12T10:22:28.265Z</time></trkpt><trkpt lat="45.8010097" lon="10.106043"><ele>191.0</ele><time>2026-04-12T10:22:29.27Z</time></trkpt><trkpt lat="45.8011416" lon="10.1060588"><ele>191.0</ele><time>2026-04-12T10:22:30.267Z</time></trkpt><trkpt lat="45.8012689" lon="10.1060726"><ele>191.0</ele><time>2026-04-12T10:22:31.278Z</time></trkpt><trkpt lat="45.8013914" lon="10.1060832"><ele>191.0</ele><time>2026-04-12T10:22:32.266Z</time></trkpt><trkpt lat="45.8015083" lon="10.1060916"><ele>191.0</ele><time>2026-04-12T10:22:33.266Z</time></trkpt><trkpt lat="45.801623" lon="10.1060997"><ele>191.0</ele><time>2026-04-12T10:22:34.272Z</time></trkpt><trkpt lat="45.8017376" lon="10.106109"><ele>189.5</ele><time>2026-04-12T10:22:35.265Z</time></trkpt><trkpt lat="45.8018542" lon="10.1061171"><ele>188.0</ele><time>2026-04-12T10:22:36.264Z</time></trkpt><trkpt lat="45.8019753" lon="10.1061234"><ele>186.5</ele><time>2026-04-12T10:22:37.267Z</time></trkpt><trkpt lat="45.8020999" lon="10.1061296"><ele>185.0</ele><time>2026-04-12T10:22:38.272Z</time></trkpt><trkpt lat="45.8022236" lon="10.1061374"><ele>185.0</ele><time>2026-04-12T10:22:39.264Z</time></trkpt><trkpt lat="45.802342" lon="10.1061496"><ele>185.0</ele><time>2026-04-12T10:22:40.272Z</time></trkpt><trkpt lat="45.8024572" lon="10.1061678"><ele>185.0</ele><time>2026-04-12T10:22:41.286Z</time></trkpt><trkpt lat="45.8025675" lon="10.1061891"><ele>185.0</ele><time>2026-04-12T10:22:42.271Z</time></trkpt><trkpt lat="45.8026748" lon="10.1062132"><ele>185.25</ele><time>2026-04-12T10:22:43.285Z</time></trkpt><trkpt lat="45.802782" lon="10.1062419"><ele>185.5</ele><time>2026-04-12T10:22:44.273Z</time></trkpt><trkpt lat="45.8028879" lon="10.1062715"><ele>185.75</ele><time>2026-04-12T10:22:45.281Z</time></trkpt><trkpt lat="45.8029913" lon="10.1062986"><ele>186.0</ele><time>2026-04-12T10:22:46.271Z</time></trkpt><trkpt lat="45.8031966" lon="10.1063569"><ele>186.0</ele><time>2026-04-12T10:22:48.283Z</time></trkpt><trkpt lat="45.8032923" lon="10.106387"><ele>186.0</ele><time>2026-04-12T10:22:49.277Z</time></trkpt><trkpt lat="45.8033873" lon="10.1064149"><ele>186.0</ele><time>2026-04-12T10:22:50.276Z</time></trkpt><trkpt lat="45.8034805" lon="10.1064352"><ele>186.0</ele><time>2026-04-12T10:22:51.293Z</time></trkpt><trkpt lat="45.8035727" lon="10.106447"><ele>186.0</ele><time>2026-04-12T10:22:52.272Z</time></trkpt><trkpt lat="45.8036635" lon="10.1064546"><ele>186.0</ele><time>2026-04-12T10:22:53.276Z</time></trkpt><trkpt lat="45.8037507" lon="10.1064578"><ele>186.0</ele><time>2026-04-12T10:22:54.28Z</time></trkpt><trkpt lat="45.8038361" lon="10.1064607"><ele>186.0</ele><time>2026-04-12T10:22:55.272Z</time></trkpt><trkpt lat="45.8039213" lon="10.1064568"><ele>186.0</ele><time>2026-04-12T10:22:56.284Z</time></trkpt><trkpt lat="45.8040067" lon="10.1064407"><ele>186.0</ele><time>2026-04-12T10:22:57.277Z</time></trkpt><trkpt lat="45.8040876" lon="10.1064196"><ele>186.0</ele><time>2026-04-12T10:22:58.281Z</time></trkpt><trkpt lat="45.8041637" lon="10.1063975"><ele>186.0</ele><time>2026-04-12T10:22:59.277Z</time></trkpt><trkpt lat="45.8042324" lon="10.1063721"><ele>186.0</ele><time>2026-04-12T10:23:00.279Z</time></trkpt><trkpt lat="45.8043422" lon="10.1063316"><ele>186.0</ele><time>2026-04-12T10:23:02.269Z</time></trkpt><trkpt lat="45.8044319" lon="10.106297"><ele>186.0</ele><time>2026-04-12T10:23:04.27Z</time></trkpt><trkpt lat="45.8045049" lon="10.106321"><ele>186.0</ele><time>2026-04-12T10:23:07.274Z</time></trkpt><trkpt lat="45.8046405" lon="10.106167"><ele>186.0</ele><time>2026-04-12T10:27:50.279Z</time></trkpt><trkpt lat="45.8047262" lon="10.106143"><ele>186.0</ele><time>2026-04-12T10:27:51.287Z</time></trkpt><trkpt lat="45.8048244" lon="10.1061204"><ele>186.0</ele><time>2026-04-12T10:27:52.286Z</time></trkpt><trkpt lat="45.8049299" lon="10.1060927"><ele>186.0</ele><time>2026-04-12T10:27:53.28Z</time></trkpt><trkpt lat="45.8050378" lon="10.1060608"><ele>186.0</ele><time>2026-04-12T10:27:54.283Z</time></trkpt><trkpt lat="45.805135" lon="10.1060293"><ele>186.16666666666666</ele><time>2026-04-12T10:27:55.269Z</time></trkpt><trkpt lat="45.8052216" lon="10.1059999"><ele>186.33333333333334</ele><time>2026-04-12T10:27:56.294Z</time></trkpt><trkpt lat="45.8052999" lon="10.1059708"><ele>186.5</ele><time>2026-04-12T10:27:57.285Z</time></trkpt><trkpt lat="45.8053765" lon="10.1059453"><ele>186.66666666666669</ele><time>2026-04-12T10:27:58.285Z</time></trkpt><trkpt lat="45.8054589" lon="10.1059234"><ele>186.83333333333334</ele><time>2026-04-12T10:27:59.28Z</time></trkpt><trkpt lat="45.8055476" lon="10.1059141"><ele>187.0</ele><time>2026-04-12T10:28:00.281Z</time></trkpt><trkpt lat="45.8056475" lon="10.1059093"><ele>187.0</ele><time>2026-04-12T10:28:01.279Z</time></trkpt><trkpt lat="45.805758" lon="10.1059078"><ele>187.0</ele><time>2026-04-12T10:28:02.287Z</time></trkpt><trkpt lat="45.8058647" lon="10.1059099"><ele>187.0</ele><time>2026-04-12T10:28:03.281Z</time></trkpt><trkpt lat="45.8059699" lon="10.1059127"><ele>187.0</ele><time>2026-04-12T10:28:04.283Z</time></trkpt><trkpt lat="45.8060805" lon="10.105918"><ele>187.0</ele><time>2026-04-12T10:28:05.288Z</time></trkpt><trkpt lat="45.8061912" lon="10.105918"><ele>186.66666666666669</ele><time>2026-04-12T10:28:06.286Z</time></trkpt><trkpt lat="45.8063062" lon="10.1059176"><ele>186.33333333333334</ele><time>2026-04-12T10:28:07.29Z</time></trkpt><trkpt lat="45.8064244" lon="10.105923"><ele>186.0</ele><time>2026-04-12T10:28:08.282Z</time></trkpt><trkpt lat="45.8066759" lon="10.1059662"><ele>186.0</ele><time>2026-04-12T10:28:10.284Z</time></trkpt><trkpt lat="45.80681" lon="10.1060107"><ele>186.0</ele><time>2026-04-12T10:28:11.272Z</time></trkpt><trkpt lat="45.8069437" lon="10.1060712"><ele>186.0</ele><time>2026-04-12T10:28:12.286Z</time></trkpt><trkpt lat="45.8070784" lon="10.1061459"><ele>186.0</ele><time>2026-04-12T10:28:13.286Z</time></trkpt><trkpt lat="45.8072107" lon="10.1062329"><ele>186.33333333333334</ele><time>2026-04-12T10:28:14.272Z</time></trkpt><trkpt lat="45.8073421" lon="10.1063349"><ele>186.66666666666669</ele><time>2026-04-12T10:28:15.286Z</time></trkpt><trkpt lat="45.8074646" lon="10.1064618"><ele>187.0</ele><time>2026-04-12T10:28:16.288Z</time></trkpt><trkpt lat="45.8075789" lon="10.1066035"><ele>187.0</ele><time>2026-04-12T10:28:17.276Z</time></trkpt><trkpt lat="45.8076875" lon="10.1067435"><ele>187.0</ele><time>2026-04-12T10:28:18.288Z</time></trkpt><trkpt lat="45.8077966" lon="10.1068918"><ele>187.0</ele><time>2026-04-12T10:28:19.273Z</time></trkpt><trkpt lat="45.8079129" lon="10.1070444"><ele>187.0</ele><time>2026-04-12T10:28:20.286Z</time></trkpt><trkpt lat="45.8080208" lon="10.1071885"><ele>187.0</ele><time>2026-04-12T10:28:21.283Z</time></trkpt><trkpt lat="45.808125" lon="10.1073261"><ele>187.0</ele><time>2026-04-12T10:28:22.292Z</time></trkpt><trkpt lat="45.8082245" lon="10.1074587"><ele>187.0</ele><time>2026-04-12T10:28:23.281Z</time></trkpt><trkpt lat="45.808318" lon="10.107586"><ele>187.0</ele><time>2026-04-12T10:28:24.287Z</time></trkpt><trkpt lat="45.8084015" lon="10.1076988"><ele>187.0</ele><time>2026-04-12T10:28:25.284Z</time></trkpt><trkpt lat="45.8084678" lon="10.1077799"><ele>187.0</ele><time>2026-04-12T10:28:26.282Z</time></trkpt><trkpt lat="45.8085163" lon="10.1078379"><ele>187.0</ele><time>2026-04-12T10:28:28.284Z</time></trkpt><trkpt lat="45.8086345" lon="10.10804"><ele>187.0</ele><time>2026-04-12T10:28:32.281Z</time></trkpt><trkpt lat="45.8087078" lon="10.1081133"><ele>187.0</ele><time>2026-04-12T10:28:33.278Z</time></trkpt><trkpt lat="45.8087808" lon="10.108199"><ele>187.0</ele><time>2026-04-12T10:28:34.293Z</time></trkpt><trkpt lat="45.8088366" lon="10.1083086"><ele>187.0</ele><time>2026-04-12T10:28:35.282Z</time></trkpt><trkpt lat="45.8088847" lon="10.1084294"><ele>187.0</ele><time>2026-04-12T10:28:36.287Z</time></trkpt><trkpt lat="45.8089396" lon="10.1085526"><ele>187.0</ele><time>2026-04-12T10:28:37.277Z</time></trkpt><trkpt lat="45.8090024" lon="10.1086887"><ele>187.25</ele><time>2026-04-12T10:28:38.283Z</time></trkpt><trkpt lat="45.8090674" lon="10.1088343"><ele>187.5</ele><time>2026-04-12T10:28:39.276Z</time></trkpt><trkpt lat="45.8091289" lon="10.1089904"><ele>187.75</ele><time>2026-04-12T10:28:40.298Z</time></trkpt><trkpt lat="45.8091946" lon="10.1091463"><ele>188.0</ele><time>2026-04-12T10:28:41.287Z</time></trkpt><trkpt lat="45.809266" lon="10.1092955"><ele>188.0</ele><time>2026-04-12T10:28:42.283Z</time></trkpt><trkpt lat="45.8093399" lon="10.1094414"><ele>188.0</ele><time>2026-04-12T10:28:43.296Z</time></trkpt><trkpt lat="45.8094175" lon="10.1095841"><ele>188.0</ele><time>2026-04-12T10:28:44.281Z</time></trkpt><trkpt lat="45.8094942" lon="10.1097264"><ele>188.0</ele><time>2026-04-12T10:28:45.284Z</time></trkpt><trkpt lat="45.8095698" lon="10.1098669"><ele>187.75</ele><time>2026-04-12T10:28:46.287Z</time></trkpt><trkpt lat="45.809642" lon="10.1100074"><ele>187.5</ele><time>2026-04-12T10:28:47.285Z</time></trkpt><trkpt lat="45.8097142" lon="10.1101462"><ele>187.25</ele><time>2026-04-12T10:28:48.281Z</time></trkpt><trkpt lat="45.8097859" lon="10.1102855"><ele>187.0</ele><time>2026-04-12T10:28:49.27Z</time></trkpt><trkpt lat="45.8099358" lon="10.1105769"><ele>187.0</ele><time>2026-04-12T10:28:51.286Z</time></trkpt><trkpt lat="45.810012" lon="10.1107295"><ele>187.0</ele><time>2026-04-12T10:28:52.281Z</time></trkpt><trkpt lat="45.8100905" lon="10.1108847"><ele>187.0</ele><time>2026-04-12T10:28:53.284Z</time></trkpt><trkpt lat="45.8101679" lon="10.1110415"><ele>187.0</ele><time>2026-04-12T10:28:54.282Z</time></trkpt><trkpt lat="45.8102467" lon="10.111202"><ele>187.66666666666669</ele><time>2026-04-12T10:28:55.298Z</time></trkpt><trkpt lat="45.8103296" lon="10.1113702"><ele>188.33333333333334</ele><time>2026-04-12T10:28:56.283Z</time></trkpt><trkpt lat="45.8104165" lon="10.1115479"><ele>189.0</ele><time>2026-04-12T10:28:57.268Z</time></trkpt><trkpt lat="45.8105044" lon="10.111731"><ele>189.33333333333334</ele><time>2026-04-12T10:28:58.293Z</time></trkpt><trkpt lat="45.8105941" lon="10.1119142"><ele>189.66666666666669</ele><time>2026-04-12T10:28:59.283Z</time></trkpt><trkpt lat="45.8106852" lon="10.1120951"><ele>190.0</ele><time>2026-04-12T10:29:00.271Z</time></trkpt><trkpt lat="45.8107715" lon="10.1122669"><ele>190.0</ele><time>2026-04-12T10:29:01.291Z</time></trkpt><trkpt lat="45.8108558" lon="10.1124253"><ele>190.0</ele><time>2026-04-12T10:29:02.284Z</time></trkpt><trkpt lat="45.8109438" lon="10.1125675"><ele>190.0</ele><time>2026-04-12T10:29:03.285Z</time></trkpt><trkpt lat="45.8110304" lon="10.1126917"><ele>190.0</ele><time>2026-04-12T10:29:04.283Z</time></trkpt><trkpt lat="45.8111122" lon="10.1127934"><ele>189.66666666666669</ele><time>2026-04-12T10:29:05.292Z</time></trkpt><trkpt lat="45.8111967" lon="10.1128757"><ele>189.33333333333334</ele><time>2026-04-12T10:29:06.284Z</time></trkpt><trkpt lat="45.8112806" lon="10.1129432"><ele>189.0</ele><time>2026-04-12T10:29:07.287Z</time></trkpt><trkpt lat="45.8113529" lon="10.1130134"><ele>188.66666666666666</ele><time>2026-04-12T10:29:08.279Z</time></trkpt><trkpt lat="45.8114052" lon="10.1131027"><ele>188.33333333333331</ele><time>2026-04-12T10:29:09.289Z</time></trkpt><trkpt lat="45.8114366" lon="10.1132025"><ele>188.0</ele><time>2026-04-12T10:29:10.273Z</time></trkpt><trkpt lat="45.8114895" lon="10.1133957"><ele>188.0</ele><time>2026-04-12T10:29:12.28Z</time></trkpt><trkpt lat="45.8115344" lon="10.1134611"><ele>188.0</ele><time>2026-04-12T10:29:13.282Z</time></trkpt><trkpt lat="45.8116032" lon="10.1134875"><ele>188.0</ele><time>2026-04-12T10:29:14.279Z</time></trkpt><trkpt lat="45.8116861" lon="10.1134866"><ele>188.0</ele><time>2026-04-12T10:29:15.28Z</time></trkpt><trkpt lat="45.81177" lon="10.1134949"><ele>188.0</ele><time>2026-04-12T10:29:16.289Z</time></trkpt><trkpt lat="45.811862" lon="10.1135308"><ele>188.0</ele><time>2026-04-12T10:29:17.284Z</time></trkpt><trkpt lat="45.8119553" lon="10.1136058"><ele>187.75</ele><time>2026-04-12T10:29:18.281Z</time></trkpt><trkpt lat="45.81205" lon="10.1136996"><ele>187.5</ele><time>2026-04-12T10:29:19.285Z</time></trkpt><trkpt lat="45.8121482" lon="10.1138064"><ele>187.25</ele><time>2026-04-12T10:29:20.281Z</time></trkpt><trkpt lat="45.8122522" lon="10.1139159"><ele>187.0</ele><time>2026-04-12T10:29:21.288Z</time></trkpt><trkpt lat="45.8123646" lon="10.1140235"><ele>187.0</ele><time>2026-04-12T10:29:22.29Z</time></trkpt><trkpt lat="45.8124916" lon="10.1141309"><ele>187.0</ele><time>2026-04-12T10:29:23.292Z</time></trkpt><trkpt lat="45.8126256" lon="10.114238"><ele>187.0</ele><time>2026-04-12T10:29:24.273Z</time></trkpt><trkpt lat="45.8127595" lon="10.1143382"><ele>187.0</ele><time>2026-04-12T10:29:25.275Z</time></trkpt><trkpt lat="45.8128915" lon="10.1144392"><ele>187.0</ele><time>2026-04-12T10:29:26.284Z</time></trkpt><trkpt lat="45.813023" lon="10.1145344"><ele>187.0</ele><time>2026-04-12T10:29:27.271Z</time></trkpt><trkpt lat="45.8131523" lon="10.1146285"><ele>187.0</ele><time>2026-04-12T10:29:28.294Z</time></trkpt><trkpt lat="45.8132836" lon="10.114719"><ele>187.0</ele><time>2026-04-12T10:29:29.283Z</time></trkpt><trkpt lat="45.8134167" lon="10.1148128"><ele>187.0</ele><time>2026-04-12T10:29:30.286Z</time></trkpt><trkpt lat="45.8135531" lon="10.1149101"><ele>187.0</ele><time>2026-04-12T10:29:31.28Z</time></trkpt><trkpt lat="45.813832" lon="10.1151006"><ele>187.33333333333334</ele><time>2026-04-12T10:29:33.289Z</time></trkpt><trkpt lat="45.8139682" lon="10.1151992"><ele>187.66666666666666</ele><time>2026-04-12T10:29:34.286Z</time></trkpt><trkpt lat="45.8141028" lon="10.1152962"><ele>188.0</ele><time>2026-04-12T10:29:35.27Z</time></trkpt><trkpt lat="45.8142334" lon="10.1153928"><ele>188.25</ele><time>2026-04-12T10:29:36.276Z</time></trkpt><trkpt lat="45.8143605" lon="10.1154873"><ele>188.5</ele><time>2026-04-12T10:29:37.274Z</time></trkpt><trkpt lat="45.8144845" lon="10.1155793"><ele>188.75</ele><time>2026-04-12T10:29:38.268Z</time></trkpt><trkpt lat="45.814606" lon="10.115668"><ele>189.0</ele><time>2026-04-12T10:29:39.283Z</time></trkpt><trkpt lat="45.8147274" lon="10.1157564"><ele>189.5</ele><time>2026-04-12T10:29:40.279Z</time></trkpt><trkpt lat="45.8148495" lon="10.1158451"><ele>190.0</ele><time>2026-04-12T10:29:41.281Z</time></trkpt><trkpt lat="45.8149685" lon="10.1159315"><ele>190.5</ele><time>2026-04-12T10:29:42.281Z</time></trkpt><trkpt lat="45.8150816" lon="10.1160147"><ele>191.0</ele><time>2026-04-12T10:29:43.278Z</time></trkpt><trkpt lat="45.8151888" lon="10.1160943"><ele>191.25</ele><time>2026-04-12T10:29:44.28Z</time></trkpt><trkpt lat="45.8152919" lon="10.1161681"><ele>191.5</ele><time>2026-04-12T10:29:45.269Z</time></trkpt><trkpt lat="45.8153919" lon="10.1162431"><ele>191.75</ele><time>2026-04-12T10:29:46.281Z</time></trkpt><trkpt lat="45.8154908" lon="10.1163295"><ele>192.0</ele><time>2026-04-12T10:29:47.268Z</time></trkpt><trkpt lat="45.8155935" lon="10.1164322"><ele>192.0</ele><time>2026-04-12T10:29:48.272Z</time></trkpt><trkpt lat="45.8157016" lon="10.1165462"><ele>192.0</ele><time>2026-04-12T10:29:49.272Z</time></trkpt><trkpt lat="45.8158138" lon="10.1166678"><ele>192.0</ele><time>2026-04-12T10:29:50.268Z</time></trkpt><trkpt lat="45.8159242" lon="10.116802"><ele>192.0</ele><time>2026-04-12T10:29:51.283Z</time></trkpt><trkpt lat="45.8160302" lon="10.1169508"><ele>193.33333333333331</ele><time>2026-04-12T10:29:52.27Z</time></trkpt><trkpt lat="45.8162198" lon="10.1172523"><ele>194.66666666666666</ele><time>2026-04-12T10:29:54.282Z</time></trkpt><trkpt lat="45.8163139" lon="10.1173984"><ele>196.0</ele><time>2026-04-12T10:29:55.287Z</time></trkpt><trkpt lat="45.8164093" lon="10.1175408"><ele>196.5</ele><time>2026-04-12T10:29:56.267Z</time></trkpt><trkpt lat="45.8165014" lon="10.1176831"><ele>197.0</ele><time>2026-04-12T10:29:57.277Z</time></trkpt><trkpt lat="45.8165869" lon="10.1178237"><ele>197.5</ele><time>2026-04-12T10:29:58.279Z</time></trkpt><trkpt lat="45.8166663" lon="10.1179594"><ele>198.0</ele><time>2026-04-12T10:29:59.265Z</time></trkpt><trkpt lat="45.816738" lon="10.1180908"><ele>198.0</ele><time>2026-04-12T10:30:00.274Z</time></trkpt><trkpt lat="45.8167994" lon="10.1182228"><ele>198.0</ele><time>2026-04-12T10:30:01.28Z</time></trkpt><trkpt lat="45.8168473" lon="10.1183629"><ele>198.0</ele><time>2026-04-12T10:30:02.269Z</time></trkpt><trkpt lat="45.8168809" lon="10.118511"><ele>198.0</ele><time>2026-04-12T10:30:03.278Z</time></trkpt><trkpt lat="45.8169017" lon="10.118656"><ele>198.0</ele><time>2026-04-12T10:30:04.267Z</time></trkpt><trkpt lat="45.8169121" lon="10.1188092"><ele>197.60000000000002</ele><time>2026-04-12T10:30:05.281Z</time></trkpt><trkpt lat="45.8169217" lon="10.1189543"><ele>197.20000000000002</ele><time>2026-04-12T10:30:06.281Z</time></trkpt><trkpt lat="45.8169379" lon="10.1190942"><ele>196.8</ele><time>2026-04-12T10:30:07.271Z</time></trkpt><trkpt lat="45.8169615" lon="10.1192233"><ele>196.4</ele><time>2026-04-12T10:30:08.28Z</time></trkpt><trkpt lat="45.8170004" lon="10.1193374"><ele>196.0</ele><time>2026-04-12T10:30:09.277Z</time></trkpt><trkpt lat="45.8170608" lon="10.1194346"><ele>196.0</ele><time>2026-04-12T10:30:10.273Z</time></trkpt><trkpt lat="45.8171227" lon="10.1195152"><ele>196.0</ele><time>2026-04-12T10:30:11.269Z</time></trkpt><trkpt lat="45.8171837" lon="10.1196028"><ele>196.0</ele><time>2026-04-12T10:30:12.285Z</time></trkpt><trkpt lat="45.8172452" lon="10.1197024"><ele>196.0</ele><time>2026-04-12T10:30:13.287Z</time></trkpt><trkpt lat="45.8173718" lon="10.1199687"><ele>197.0</ele><time>2026-04-12T10:30:15.277Z</time></trkpt><trkpt lat="45.817433" lon="10.120135"><ele>198.0</ele><time>2026-04-12T10:30:16.275Z</time></trkpt><trkpt lat="45.8174912" lon="10.1203161"><ele>199.0</ele><time>2026-04-12T10:30:17.287Z</time></trkpt><trkpt lat="45.8175529" lon="10.120507"><ele>200.0</ele><time>2026-04-12T10:30:18.279Z</time></trkpt><trkpt lat="45.8176218" lon="10.120702"><ele>198.0</ele><time>2026-04-12T10:30:19.286Z</time></trkpt><trkpt lat="45.8177" lon="10.1208945"><ele>196.0</ele><time>2026-04-12T10:30:20.279Z</time></trkpt><trkpt lat="45.8177891" lon="10.1210721"><ele>194.0</ele><time>2026-04-12T10:30:21.283Z</time></trkpt><trkpt lat="45.8178852" lon="10.1212313"><ele>194.0</ele><time>2026-04-12T10:30:22.272Z</time></trkpt><trkpt lat="45.817981" lon="10.1213824"><ele>194.0</ele><time>2026-04-12T10:30:23.286Z</time></trkpt><trkpt lat="45.8180737" lon="10.1215202"><ele>194.0</ele><time>2026-04-12T10:30:24.28Z</time></trkpt><trkpt lat="45.8181664" lon="10.1216419"><ele>194.0</ele><time>2026-04-12T10:30:25.279Z</time></trkpt><trkpt lat="45.8182572" lon="10.1217447"><ele>194.0</ele><time>2026-04-12T10:30:26.281Z</time></trkpt><trkpt lat="45.8183334" lon="10.1218299"><ele>194.0</ele><time>2026-04-12T10:30:27.282Z</time></trkpt><trkpt lat="45.8183916" lon="10.1218893"><ele>194.0</ele><time>2026-04-12T10:30:28.279Z</time></trkpt><trkpt lat="45.8184663" lon="10.1219896"><ele>194.0</ele><time>2026-04-12T10:30:30.28Z</time></trkpt><trkpt lat="45.8185047" lon="10.1221071"><ele>194.0</ele><time>2026-04-12T10:30:32.28Z</time></trkpt><trkpt lat="45.8185229" lon="10.1222707"><ele>193.75</ele><time>2026-04-12T10:30:34.282Z</time></trkpt><trkpt lat="45.8187247" lon="10.122433"><ele>193.5</ele><time>2026-04-12T10:30:38.284Z</time></trkpt><trkpt lat="45.8188087" lon="10.1224131"><ele>193.25</ele><time>2026-04-12T10:30:39.278Z</time></trkpt><trkpt lat="45.8188984" lon="10.1223977"><ele>193.0</ele><time>2026-04-12T10:30:40.28Z</time></trkpt><trkpt lat="45.8189965" lon="10.1224129"><ele>192.5</ele><time>2026-04-12T10:30:41.284Z</time></trkpt><trkpt lat="45.8191072" lon="10.1224722"><ele>192.0</ele><time>2026-04-12T10:30:42.282Z</time></trkpt><trkpt lat="45.819239" lon="10.1225736"><ele>191.5</ele><time>2026-04-12T10:30:43.277Z</time></trkpt><trkpt lat="45.8193871" lon="10.1226925"><ele>191.0</ele><time>2026-04-12T10:30:44.281Z</time></trkpt><trkpt lat="45.8195422" lon="10.1228121"><ele>191.0</ele><time>2026-04-12T10:30:45.281Z</time></trkpt><trkpt lat="45.8197058" lon="10.1229312"><ele>191.0</ele><time>2026-04-12T10:30:46.281Z</time></trkpt><trkpt lat="45.819876" lon="10.1230527"><ele>191.0</ele><time>2026-04-12T10:30:47.282Z</time></trkpt><trkpt lat="45.8200463" lon="10.1231803"><ele>191.33333333333331</ele><time>2026-04-12T10:30:48.274Z</time></trkpt><trkpt lat="45.8202145" lon="10.1232991"><ele>191.66666666666666</ele><time>2026-04-12T10:30:49.277Z</time></trkpt><trkpt lat="45.8203795" lon="10.1234148"><ele>192.0</ele><time>2026-04-12T10:30:50.287Z</time></trkpt><trkpt lat="45.8205418" lon="10.1235291"><ele>192.0</ele><time>2026-04-12T10:30:51.285Z</time></trkpt><trkpt lat="45.8207035" lon="10.1236409"><ele>192.0</ele><time>2026-04-12T10:30:52.268Z</time></trkpt><trkpt lat="45.8208661" lon="10.1237568"><ele>192.0</ele><time>2026-04-12T10:30:53.284Z</time></trkpt><trkpt lat="45.8210317" lon="10.1238733"><ele>190.0</ele><time>2026-04-12T10:30:54.287Z</time></trkpt><trkpt lat="45.8211955" lon="10.1239908"><ele>188.0</ele><time>2026-04-12T10:30:55.291Z</time></trkpt><trkpt lat="45.8215179" lon="10.1242197"><ele>187.66666666666666</ele><time>2026-04-12T10:30:57.285Z</time></trkpt><trkpt lat="45.8216766" lon="10.1243329"><ele>187.33333333333334</ele><time>2026-04-12T10:30:58.28Z</time></trkpt><trkpt lat="45.8218305" lon="10.124444"><ele>187.0</ele><time>2026-04-12T10:30:59.28Z</time></trkpt><trkpt lat="45.8219821" lon="10.1245527"><ele>188.0</ele><time>2026-04-12T10:31:00.286Z</time></trkpt><trkpt lat="45.8221299" lon="10.1246592"><ele>189.0</ele><time>2026-04-12T10:31:01.277Z</time></trkpt><trkpt lat="45.8222776" lon="10.1247684"><ele>190.0</ele><time>2026-04-12T10:31:02.28Z</time></trkpt><trkpt lat="45.8224264" lon="10.1248765"><ele>191.0</ele><time>2026-04-12T10:31:03.277Z</time></trkpt><trkpt lat="45.822577" lon="10.1249859"><ele>192.0</ele><time>2026-04-12T10:31:04.278Z</time></trkpt><trkpt lat="45.8227326" lon="10.1250968"><ele>193.0</ele><time>2026-04-12T10:31:05.281Z</time></trkpt><trkpt lat="45.8228909" lon="10.1252111"><ele>193.0</ele><time>2026-04-12T10:31:06.284Z</time></trkpt><trkpt lat="45.823051" lon="10.1253239"><ele>193.0</ele><time>2026-04-12T10:31:07.277Z</time></trkpt><trkpt lat="45.8232115" lon="10.1254355"><ele>193.0</ele><time>2026-04-12T10:31:08.28Z</time></trkpt><trkpt lat="45.8233714" lon="10.1255461"><ele>193.33333333333331</ele><time>2026-04-12T10:31:09.288Z</time></trkpt><trkpt lat="45.82353" lon="10.1256607"><ele>193.66666666666669</ele><time>2026-04-12T10:31:10.29Z</time></trkpt><trkpt lat="45.8236894" lon="10.1257773"><ele>194.0</ele><time>2026-04-12T10:31:11.29Z</time></trkpt><trkpt lat="45.8238508" lon="10.1258918"><ele>194.0</ele><time>2026-04-12T10:31:12.276Z</time></trkpt><trkpt lat="45.8240148" lon="10.1260043"><ele>194.0</ele><time>2026-04-12T10:31:13.285Z</time></trkpt><trkpt lat="45.8241795" lon="10.1261234"><ele>194.0</ele><time>2026-04-12T10:31:14.271Z</time></trkpt><trkpt lat="45.8243459" lon="10.1262413"><ele>192.5</ele><time>2026-04-12T10:31:15.278Z</time></trkpt><trkpt lat="45.8245116" lon="10.1263602"><ele>191.0</ele><time>2026-04-12T10:31:16.274Z</time></trkpt><trkpt lat="45.8248429" lon="10.1266044"><ele>191.0</ele><time>2026-04-12T10:31:18.277Z</time></trkpt><trkpt lat="45.8250062" lon="10.1267251"><ele>191.0</ele><time>2026-04-12T10:31:19.272Z</time></trkpt><trkpt lat="45.8251697" lon="10.1268434"><ele>191.0</ele><time>2026-04-12T10:31:20.283Z</time></trkpt><trkpt lat="45.8253311" lon="10.1269639"><ele>191.0</ele><time>2026-04-12T10:31:21.277Z</time></trkpt><trkpt lat="45.8254979" lon="10.1270815"><ele>191.0</ele><time>2026-04-12T10:31:22.283Z</time></trkpt><trkpt lat="45.8256749" lon="10.1271901"><ele>191.0</ele><time>2026-04-12T10:31:23.276Z</time></trkpt><trkpt lat="45.8258598" lon="10.1272801"><ele>191.0</ele><time>2026-04-12T10:31:24.276Z</time></trkpt><trkpt lat="45.8260486" lon="10.1273434"><ele>191.0</ele><time>2026-04-12T10:31:25.278Z</time></trkpt><trkpt lat="45.8262347" lon="10.1273835"><ele>191.0</ele><time>2026-04-12T10:31:26.276Z</time></trkpt><trkpt lat="45.8264096" lon="10.1274131"><ele>190.75</ele><time>2026-04-12T10:31:27.276Z</time></trkpt><trkpt lat="45.826566" lon="10.1274364"><ele>190.5</ele><time>2026-04-12T10:31:28.287Z</time></trkpt><trkpt lat="45.8267092" lon="10.1274602"><ele>190.25</ele><time>2026-04-12T10:31:29.279Z</time></trkpt><trkpt lat="45.8268518" lon="10.12748"><ele>190.0</ele><time>2026-04-12T10:31:30.28Z</time></trkpt><trkpt lat="45.8269869" lon="10.1274968"><ele>190.6</ele><time>2026-04-12T10:31:31.287Z</time></trkpt><trkpt lat="45.8271062" lon="10.1275054"><ele>191.2</ele><time>2026-04-12T10:31:32.269Z</time></trkpt><trkpt lat="45.8272075" lon="10.1275111"><ele>191.8</ele><time>2026-04-12T10:31:33.277Z</time></trkpt><trkpt lat="45.8272957" lon="10.1275151"><ele>192.4</ele><time>2026-04-12T10:31:34.281Z</time></trkpt><trkpt lat="45.8273794" lon="10.1275327"><ele>193.0</ele><time>2026-04-12T10:31:35.281Z</time></trkpt><trkpt lat="45.8274631" lon="10.1275647"><ele>193.0</ele><time>2026-04-12T10:31:36.276Z</time></trkpt><trkpt lat="45.8275483" lon="10.1276075"><ele>193.0</ele><time>2026-04-12T10:31:37.272Z</time></trkpt><trkpt lat="45.8277396" lon="10.1276567"><ele>193.0</ele><time>2026-04-12T10:31:39.275Z</time></trkpt><trkpt lat="45.8278473" lon="10.1276792"><ele>193.0</ele><time>2026-04-12T10:31:40.281Z</time></trkpt><trkpt lat="45.8279618" lon="10.1277254"><ele>193.0</ele><time>2026-04-12T10:31:41.275Z</time></trkpt><trkpt lat="45.8280876" lon="10.127806"><ele>193.0</ele><time>2026-04-12T10:31:42.282Z</time></trkpt><trkpt lat="45.8282072" lon="10.1278931"><ele>193.0</ele><time>2026-04-12T10:31:43.276Z</time></trkpt><trkpt lat="45.8283146" lon="10.1279794"><ele>193.0</ele><time>2026-04-12T10:31:44.282Z</time></trkpt><trkpt lat="45.8284169" lon="10.1280636"><ele>193.75</ele><time>2026-04-12T10:31:45.28Z</time></trkpt><trkpt lat="45.8285256" lon="10.1281496"><ele>194.5</ele><time>2026-04-12T10:31:46.282Z</time></trkpt><trkpt lat="45.8286362" lon="10.1282489"><ele>195.25</ele><time>2026-04-12T10:31:47.279Z</time></trkpt><trkpt lat="45.8287678" lon="10.1283565"><ele>196.0</ele><time>2026-04-12T10:31:48.283Z</time></trkpt><trkpt lat="45.8289124" lon="10.1284708"><ele>196.66666666666666</ele><time>2026-04-12T10:31:49.279Z</time></trkpt><trkpt lat="45.829066" lon="10.1285904"><ele>197.33333333333331</ele><time>2026-04-12T10:31:50.28Z</time></trkpt><trkpt lat="45.8292188" lon="10.1287086"><ele>198.0</ele><time>2026-04-12T10:31:51.283Z</time></trkpt><trkpt lat="45.8293666" lon="10.1288213"><ele>198.66666666666669</ele><time>2026-04-12T10:31:52.283Z</time></trkpt><trkpt lat="45.8295072" lon="10.1289343"><ele>199.33333333333334</ele><time>2026-04-12T10:31:53.285Z</time></trkpt><trkpt lat="45.829644" lon="10.129041"><ele>200.0</ele><time>2026-04-12T10:31:54.281Z</time></trkpt><trkpt lat="45.8297737" lon="10.129145"><ele>200.5</ele><time>2026-04-12T10:31:55.282Z</time></trkpt><trkpt lat="45.8299007" lon="10.1292472"><ele>201.0</ele><time>2026-04-12T10:31:56.281Z</time></trkpt><trkpt lat="45.8300195" lon="10.1293411"><ele>201.5</ele><time>2026-04-12T10:31:57.282Z</time></trkpt><trkpt lat="45.8301308" lon="10.1294318"><ele>202.0</ele><time>2026-04-12T10:31:58.27Z</time></trkpt><trkpt lat="45.8303403" lon="10.1295992"><ele>202.0</ele><time>2026-04-12T10:32:00.285Z</time></trkpt><trkpt lat="45.8304434" lon="10.1296837"><ele>202.0</ele><time>2026-04-12T10:32:01.28Z</time></trkpt><trkpt lat="45.830546" lon="10.1297677"><ele>202.0</ele><time>2026-04-12T10:32:02.271Z</time></trkpt><trkpt lat="45.8306459" lon="10.1298493"><ele>202.0</ele><time>2026-04-12T10:32:03.281Z</time></trkpt><trkpt lat="45.8307416" lon="10.1299257"><ele>202.39999999999998</ele><time>2026-04-12T10:32:04.283Z</time></trkpt><trkpt lat="45.8308356" lon="10.1299976"><ele>202.79999999999998</ele><time>2026-04-12T10:32:05.281Z</time></trkpt><trkpt lat="45.8309268" lon="10.1300673"><ele>203.2</ele><time>2026-04-12T10:32:06.278Z</time></trkpt><trkpt lat="45.831014" lon="10.1301365"><ele>203.6</ele><time>2026-04-12T10:32:07.27Z</time></trkpt><trkpt lat="45.8310998" lon="10.1302009"><ele>204.0</ele><time>2026-04-12T10:32:08.28Z</time></trkpt><trkpt lat="45.8311893" lon="10.1302608"><ele>204.0</ele><time>2026-04-12T10:32:09.277Z</time></trkpt><trkpt lat="45.8312782" lon="10.1303265"><ele>204.0</ele><time>2026-04-12T10:32:10.284Z</time></trkpt><trkpt lat="45.8313666" lon="10.1303998"><ele>204.0</ele><time>2026-04-12T10:32:11.267Z</time></trkpt><trkpt lat="45.8314566" lon="10.1304838"><ele>204.0</ele><time>2026-04-12T10:32:12.287Z</time></trkpt><trkpt lat="45.8315558" lon="10.1305742"><ele>204.0</ele><time>2026-04-12T10:32:13.283Z</time></trkpt><trkpt lat="45.831663" lon="10.1306653"><ele>204.25</ele><time>2026-04-12T10:32:14.282Z</time></trkpt><trkpt lat="45.8317789" lon="10.1307559"><ele>204.5</ele><time>2026-04-12T10:32:15.286Z</time></trkpt><trkpt lat="45.8319042" lon="10.130846"><ele>204.75</ele><time>2026-04-12T10:32:16.284Z</time></trkpt><trkpt lat="45.8320287" lon="10.1309426"><ele>205.0</ele><time>2026-04-12T10:32:17.276Z</time></trkpt><trkpt lat="45.8321558" lon="10.1310383"><ele>205.0</ele><time>2026-04-12T10:32:18.281Z</time></trkpt><trkpt lat="45.8322793" lon="10.1311373"><ele>205.0</ele><time>2026-04-12T10:32:19.269Z</time></trkpt><trkpt lat="45.8325338" lon="10.1313371"><ele>205.0</ele><time>2026-04-12T10:32:21.278Z</time></trkpt><trkpt lat="45.8326677" lon="10.1314369"><ele>204.66666666666666</ele><time>2026-04-12T10:32:22.286Z</time></trkpt><trkpt lat="45.8328026" lon="10.1315399"><ele>204.33333333333331</ele><time>2026-04-12T10:32:23.284Z</time></trkpt><trkpt lat="45.8329396" lon="10.1316455"><ele>204.0</ele><time>2026-04-12T10:32:24.287Z</time></trkpt><trkpt lat="45.8330784" lon="10.1317528"><ele>204.33333333333331</ele><time>2026-04-12T10:32:25.285Z</time></trkpt><trkpt lat="45.8332178" lon="10.1318665"><ele>204.66666666666666</ele><time>2026-04-12T10:32:26.291Z</time></trkpt><trkpt lat="45.8333601" lon="10.1319825"><ele>205.0</ele><time>2026-04-12T10:32:27.279Z</time></trkpt><trkpt lat="45.8335016" lon="10.1321011"><ele>205.0</ele><time>2026-04-12T10:32:28.271Z</time></trkpt><trkpt lat="45.8336364" lon="10.1322173"><ele>205.0</ele><time>2026-04-12T10:32:29.283Z</time></trkpt><trkpt lat="45.8337619" lon="10.1323316"><ele>205.0</ele><time>2026-04-12T10:32:30.283Z</time></trkpt><trkpt lat="45.8338756" lon="10.132445"><ele>205.0</ele><time>2026-04-12T10:32:31.276Z</time></trkpt><trkpt lat="45.8339802" lon="10.1325524"><ele>205.25</ele><time>2026-04-12T10:32:32.282Z</time></trkpt><trkpt lat="45.8340793" lon="10.1326594"><ele>205.5</ele><time>2026-04-12T10:32:33.268Z</time></trkpt><trkpt lat="45.8341771" lon="10.1327692"><ele>205.75</ele><time>2026-04-12T10:32:34.277Z</time></trkpt><trkpt lat="45.8342813" lon="10.1328835"><ele>206.0</ele><time>2026-04-12T10:32:35.283Z</time></trkpt><trkpt lat="45.8343904" lon="10.1329952"><ele>206.0</ele><time>2026-04-12T10:32:36.278Z</time></trkpt><trkpt lat="45.8344977" lon="10.1331058"><ele>206.0</ele><time>2026-04-12T10:32:37.286Z</time></trkpt><trkpt lat="45.8346037" lon="10.1332134"><ele>206.0</ele><time>2026-04-12T10:32:38.275Z</time></trkpt><trkpt lat="45.8347075" lon="10.1333202"><ele>206.0</ele><time>2026-04-12T10:32:39.284Z</time></trkpt><trkpt lat="45.8348086" lon="10.1334292"><ele>206.66666666666669</ele><time>2026-04-12T10:32:40.277Z</time></trkpt><trkpt lat="45.8350084" lon="10.1336451"><ele>207.33333333333331</ele><time>2026-04-12T10:32:42.281Z</time></trkpt><trkpt lat="45.8351115" lon="10.1337542"><ele>208.0</ele><time>2026-04-12T10:32:43.28Z</time></trkpt><trkpt lat="45.8352168" lon="10.133867"><ele>208.0</ele><time>2026-04-12T10:32:44.281Z</time></trkpt><trkpt lat="45.8353218" lon="10.1339787"><ele>208.0</ele><time>2026-04-12T10:32:45.281Z</time></trkpt><trkpt lat="45.8354264" lon="10.134091"><ele>208.0</ele><time>2026-04-12T10:32:46.274Z</time></trkpt><trkpt lat="45.8355289" lon="10.1342035"><ele>208.0</ele><time>2026-04-12T10:32:47.289Z</time></trkpt><trkpt lat="45.8356346" lon="10.1343172"><ele>208.0</ele><time>2026-04-12T10:32:48.269Z</time></trkpt><trkpt lat="45.8357459" lon="10.1344368"><ele>208.0</ele><time>2026-04-12T10:32:49.284Z</time></trkpt><trkpt lat="45.8358635" lon="10.1345638"><ele>208.0</ele><time>2026-04-12T10:32:50.276Z</time></trkpt><trkpt lat="45.8359879" lon="10.134697"><ele>208.0</ele><time>2026-04-12T10:32:51.281Z</time></trkpt><trkpt lat="45.8361143" lon="10.1348348"><ele>206.33333333333331</ele><time>2026-04-12T10:32:52.279Z</time></trkpt><trkpt lat="45.8362414" lon="10.134971"><ele>204.66666666666669</ele><time>2026-04-12T10:32:53.275Z</time></trkpt><trkpt lat="45.8363714" lon="10.1350989"><ele>203.0</ele><time>2026-04-12T10:32:54.277Z</time></trkpt><trkpt lat="45.8364963" lon="10.1352269"><ele>203.0</ele><time>2026-04-12T10:32:55.287Z</time></trkpt><trkpt lat="45.8366172" lon="10.1353498"><ele>203.0</ele><time>2026-04-12T10:32:56.267Z</time></trkpt><trkpt lat="45.8367331" lon="10.1354738"><ele>203.0</ele><time>2026-04-12T10:32:57.271Z</time></trkpt><trkpt lat="45.8368476" lon="10.1355917"><ele>203.0</ele><time>2026-04-12T10:32:58.282Z</time></trkpt><trkpt lat="45.8369582" lon="10.1357093"><ele>202.66666666666669</ele><time>2026-04-12T10:32:59.278Z</time></trkpt><trkpt lat="45.8370615" lon="10.1358273"><ele>202.33333333333331</ele><time>2026-04-12T10:33:00.283Z</time></trkpt><trkpt lat="45.8371638" lon="10.1359427"><ele>202.0</ele><time>2026-04-12T10:33:01.285Z</time></trkpt><trkpt lat="45.8373713" lon="10.1361563"><ele>202.0</ele><time>2026-04-12T10:33:03.288Z</time></trkpt><trkpt lat="45.8374736" lon="10.1362642"><ele>202.0</ele><time>2026-04-12T10:33:04.283Z</time></trkpt><trkpt lat="45.8375768" lon="10.1363722"><ele>202.0</ele><time>2026-04-12T10:33:05.283Z</time></trkpt><trkpt lat="45.8376801" lon="10.1364789"><ele>202.0</ele><time>2026-04-12T10:33:06.285Z</time></trkpt><trkpt lat="45.8377797" lon="10.1365843"><ele>201.6</ele><time>2026-04-12T10:33:07.271Z</time></trkpt><trkpt lat="45.8378716" lon="10.1366832"><ele>201.2</ele><time>2026-04-12T10:33:08.286Z</time></trkpt><trkpt lat="45.8379508" lon="10.1367753"><ele>200.8</ele><time>2026-04-12T10:33:09.282Z</time></trkpt><trkpt lat="45.8380072" lon="10.1368759"><ele>200.4</ele><time>2026-04-12T10:33:10.286Z</time></trkpt><trkpt lat="45.8380342" lon="10.1369891"><ele>200.0</ele><time>2026-04-12T10:33:11.278Z</time></trkpt><trkpt lat="45.8380388" lon="10.1371103"><ele>200.00000000000003</ele><time>2026-04-12T10:33:12.28Z</time></trkpt><trkpt lat="45.8380334" lon="10.1372255"><ele>200.0</ele><time>2026-04-12T10:33:13.285Z</time></trkpt><trkpt lat="45.8380386" lon="10.1373242"><ele>200.0</ele><time>2026-04-12T10:33:14.277Z</time></trkpt><trkpt lat="45.8381211" lon="10.137432"><ele>200.0</ele><time>2026-04-12T10:33:16.286Z</time></trkpt><trkpt lat="45.8381877" lon="10.137436"><ele>200.00000000000003</ele><time>2026-04-12T10:33:17.272Z</time></trkpt><trkpt lat="45.838263" lon="10.1374113"><ele>200.0</ele><time>2026-04-12T10:33:18.276Z</time></trkpt><trkpt lat="45.8383471" lon="10.1373982"><ele>200.0</ele><time>2026-04-12T10:33:19.287Z</time></trkpt><trkpt lat="45.8384417" lon="10.1374103"><ele>200.0</ele><time>2026-04-12T10:33:20.297Z</time></trkpt><trkpt lat="45.8385457" lon="10.1374633"><ele>200.0</ele><time>2026-04-12T10:33:21.277Z</time></trkpt><trkpt lat="45.8386493" lon="10.1375538"><ele>200.0</ele><time>2026-04-12T10:33:22.287Z</time></trkpt><trkpt lat="45.8388648" lon="10.137785"><ele>199.5</ele><time>2026-04-12T10:33:24.284Z</time></trkpt><trkpt lat="45.8389746" lon="10.1379025"><ele>199.0</ele><time>2026-04-12T10:33:25.291Z</time></trkpt><trkpt lat="45.8390893" lon="10.1380222"><ele>198.5</ele><time>2026-04-12T10:33:26.278Z</time></trkpt><trkpt lat="45.8392078" lon="10.138151"><ele>198.0</ele><time>2026-04-12T10:33:27.287Z</time></trkpt><trkpt lat="45.8393305" lon="10.138284"><ele>198.0</ele><time>2026-04-12T10:33:28.277Z</time></trkpt><trkpt lat="45.8394561" lon="10.1384241"><ele>198.0</ele><time>2026-04-12T10:33:29.269Z</time></trkpt><trkpt lat="45.8395848" lon="10.138569"><ele>198.0</ele><time>2026-04-12T10:33:30.286Z</time></trkpt><trkpt lat="45.8397128" lon="10.1387111"><ele>198.0</ele><time>2026-04-12T10:33:31.278Z</time></trkpt><trkpt lat="45.8398392" lon="10.1388494"><ele>198.0</ele><time>2026-04-12T10:33:32.281Z</time></trkpt><trkpt lat="45.8399706" lon="10.1389853"><ele>198.0</ele><time>2026-04-12T10:33:33.284Z</time></trkpt><trkpt lat="45.8401046" lon="10.1391232"><ele>198.0</ele><time>2026-04-12T10:33:34.285Z</time></trkpt><trkpt lat="45.8402409" lon="10.139267"><ele>198.0</ele><time>2026-04-12T10:33:35.27Z</time></trkpt><trkpt lat="45.8403808" lon="10.1394143"><ele>198.0</ele><time>2026-04-12T10:33:36.274Z</time></trkpt><trkpt lat="45.8405227" lon="10.1395676"><ele>198.0</ele><time>2026-04-12T10:33:37.288Z</time></trkpt><trkpt lat="45.8406677" lon="10.139723"><ele>198.0</ele><time>2026-04-12T10:33:38.286Z</time></trkpt><trkpt lat="45.8408124" lon="10.139881"><ele>198.0</ele><time>2026-04-12T10:33:39.285Z</time></trkpt><trkpt lat="45.8409606" lon="10.1400401"><ele>198.33333333333331</ele><time>2026-04-12T10:33:40.268Z</time></trkpt><trkpt lat="45.8411115" lon="10.1402032"><ele>198.66666666666666</ele><time>2026-04-12T10:33:41.283Z</time></trkpt><trkpt lat="45.8412648" lon="10.1403646"><ele>199.0</ele><time>2026-04-12T10:33:42.279Z</time></trkpt><trkpt lat="45.8414179" lon="10.1405227"><ele>198.5</ele><time>2026-04-12T10:33:43.297Z</time></trkpt><trkpt lat="45.8417121" lon="10.1408323"><ele>198.0</ele><time>2026-04-12T10:33:45.276Z</time></trkpt><trkpt lat="45.8418564" lon="10.1409821"><ele>199.33333333333331</ele><time>2026-04-12T10:33:46.274Z</time></trkpt><trkpt lat="45.8419964" lon="10.1411307"><ele>200.66666666666666</ele><time>2026-04-12T10:33:47.284Z</time></trkpt><trkpt lat="45.8421339" lon="10.1412766"><ele>202.0</ele><time>2026-04-12T10:33:48.281Z</time></trkpt><trkpt lat="45.8422706" lon="10.1414254"><ele>202.0</ele><time>2026-04-12T10:33:49.288Z</time></trkpt><trkpt lat="45.8424051" lon="10.141577"><ele>202.0</ele><time>2026-04-12T10:33:50.292Z</time></trkpt><trkpt lat="45.8425441" lon="10.1417271"><ele>202.0</ele><time>2026-04-12T10:33:51.269Z</time></trkpt><trkpt lat="45.8426854" lon="10.1418782"><ele>203.0</ele><time>2026-04-12T10:33:52.294Z</time></trkpt><trkpt lat="45.8428238" lon="10.142027"><ele>204.0</ele><time>2026-04-12T10:33:53.271Z</time></trkpt><trkpt lat="45.842958" lon="10.1421724"><ele>205.0</ele><time>2026-04-12T10:33:54.278Z</time></trkpt><trkpt lat="45.843084" lon="10.1423149"><ele>204.75</ele><time>2026-04-12T10:33:55.274Z</time></trkpt><trkpt lat="45.8432063" lon="10.1424535"><ele>204.5</ele><time>2026-04-12T10:33:56.269Z</time></trkpt><trkpt lat="45.8433215" lon="10.1425866"><ele>204.25</ele><time>2026-04-12T10:33:57.282Z</time></trkpt><trkpt lat="45.8434326" lon="10.1427146"><ele>204.0</ele><time>2026-04-12T10:33:58.274Z</time></trkpt><trkpt lat="45.8435381" lon="10.1428378"><ele>204.25</ele><time>2026-04-12T10:33:59.287Z</time></trkpt><trkpt lat="45.8436385" lon="10.1429605"><ele>204.5</ele><time>2026-04-12T10:34:00.281Z</time></trkpt><trkpt lat="45.8437355" lon="10.1430778"><ele>204.75</ele><time>2026-04-12T10:34:01.291Z</time></trkpt><trkpt lat="45.8438255" lon="10.1431974"><ele>205.0</ele><time>2026-04-12T10:34:02.276Z</time></trkpt><trkpt lat="45.8439004" lon="10.1433224"><ele>205.0</ele><time>2026-04-12T10:34:03.287Z</time></trkpt><trkpt lat="45.8439539" lon="10.1434532"><ele>205.0</ele><time>2026-04-12T10:34:04.286Z</time></trkpt><trkpt lat="45.8439934" lon="10.1437388"><ele>205.0</ele><time>2026-04-12T10:34:06.282Z</time></trkpt><trkpt lat="45.8439876" lon="10.1438795"><ele>205.0</ele><time>2026-04-12T10:34:07.291Z</time></trkpt><trkpt lat="45.843997" lon="10.1440033"><ele>204.8</ele><time>2026-04-12T10:34:08.286Z</time></trkpt><trkpt lat="45.8440274" lon="10.1441013"><ele>204.6</ele><time>2026-04-12T10:34:09.277Z</time></trkpt><trkpt lat="45.8440891" lon="10.1441693"><ele>204.39999999999998</ele><time>2026-04-12T10:34:10.278Z</time></trkpt><trkpt lat="45.8441798" lon="10.1442058"><ele>204.2</ele><time>2026-04-12T10:34:11.279Z</time></trkpt><trkpt lat="45.8442858" lon="10.1442095"><ele>204.0</ele><time>2026-04-12T10:34:12.285Z</time></trkpt><trkpt lat="45.8443941" lon="10.1441977"><ele>204.0</ele><time>2026-04-12T10:34:13.27Z</time></trkpt><trkpt lat="45.8445109" lon="10.1441939"><ele>204.0</ele><time>2026-04-12T10:34:14.296Z</time></trkpt><trkpt lat="45.8446278" lon="10.1442142"><ele>204.0</ele><time>2026-04-12T10:34:15.272Z</time></trkpt><trkpt lat="45.8447499" lon="10.1442412"><ele>204.0</ele><time>2026-04-12T10:34:16.288Z</time></trkpt><trkpt lat="45.8448747" lon="10.1442927"><ele>204.0</ele><time>2026-04-12T10:34:17.282Z</time></trkpt><trkpt lat="45.8449926" lon="10.1443849"><ele>204.0</ele><time>2026-04-12T10:34:18.272Z</time></trkpt><trkpt lat="45.8451105" lon="10.1445117"><ele>204.0</ele><time>2026-04-12T10:34:19.275Z</time></trkpt><trkpt lat="45.8452347" lon="10.1446478"><ele>204.0</ele><time>2026-04-12T10:34:20.283Z</time></trkpt><trkpt lat="45.8453596" lon="10.1447817"><ele>203.66666666666669</ele><time>2026-04-12T10:34:21.288Z</time></trkpt><trkpt lat="45.8454942" lon="10.1449076"><ele>203.33333333333334</ele><time>2026-04-12T10:34:22.286Z</time></trkpt><trkpt lat="45.8456133" lon="10.1450286"><ele>203.0</ele><time>2026-04-12T10:34:23.28Z</time></trkpt><trkpt lat="45.8457273" lon="10.1451556"><ele>203.0</ele><time>2026-04-12T10:34:24.269Z</time></trkpt><trkpt lat="45.845846" lon="10.1452867"><ele>203.0</ele><time>2026-04-12T10:34:25.287Z</time></trkpt><trkpt lat="45.8461078" lon="10.1455778"><ele>203.33333333333334</ele><time>2026-04-12T10:34:27.295Z</time></trkpt><trkpt lat="45.8462483" lon="10.1457268"><ele>203.66666666666669</ele><time>2026-04-12T10:34:28.276Z</time></trkpt><trkpt lat="45.8463909" lon="10.145869"><ele>204.0</ele><time>2026-04-12T10:34:29.283Z</time></trkpt><trkpt lat="45.8465325" lon="10.1460133"><ele>204.0</ele><time>2026-04-12T10:34:30.278Z</time></trkpt><trkpt lat="45.8466742" lon="10.1461575"><ele>204.0</ele><time>2026-04-12T10:34:31.286Z</time></trkpt><trkpt lat="45.8468118" lon="10.1462976"><ele>204.0</ele><time>2026-04-12T10:34:32.295Z</time></trkpt><trkpt lat="45.8469395" lon="10.1464315"><ele>204.5</ele><time>2026-04-12T10:34:33.284Z</time></trkpt><trkpt lat="45.8470598" lon="10.146556"><ele>205.0</ele><time>2026-04-12T10:34:34.288Z</time></trkpt><trkpt lat="45.8471712" lon="10.1466751"><ele>205.5</ele><time>2026-04-12T10:34:35.281Z</time></trkpt><trkpt lat="45.8472808" lon="10.1467944"><ele>206.0</ele><time>2026-04-12T10:34:36.278Z</time></trkpt><trkpt lat="45.8473913" lon="10.1469218"><ele>206.0</ele><time>2026-04-12T10:34:37.279Z</time></trkpt><trkpt lat="45.8475058" lon="10.147047"><ele>206.0</ele><time>2026-04-12T10:34:38.278Z</time></trkpt><trkpt lat="45.847622" lon="10.1471705"><ele>206.0</ele><time>2026-04-12T10:34:39.279Z</time></trkpt><trkpt lat="45.8477383" lon="10.1472912"><ele>206.0</ele><time>2026-04-12T10:34:40.276Z</time></trkpt><trkpt lat="45.8478533" lon="10.1474106"><ele>206.5</ele><time>2026-04-12T10:34:41.288Z</time></trkpt><trkpt lat="45.8479642" lon="10.1475322"><ele>207.0</ele><time>2026-04-12T10:34:42.287Z</time></trkpt><trkpt lat="45.8480783" lon="10.1476516"><ele>207.5</ele><time>2026-04-12T10:34:43.281Z</time></trkpt><trkpt lat="45.8481929" lon="10.1477768"><ele>208.0</ele><time>2026-04-12T10:34:44.284Z</time></trkpt><trkpt lat="45.8483127" lon="10.1479053"><ele>208.0</ele><time>2026-04-12T10:34:45.28Z</time></trkpt><trkpt lat="45.848437" lon="10.1480354"><ele>208.0</ele><time>2026-04-12T10:34:46.282Z</time></trkpt><trkpt lat="45.8486925" lon="10.1483058"><ele>209.66666666666666</ele><time>2026-04-12T10:34:48.287Z</time></trkpt><trkpt lat="45.848823" lon="10.148442"><ele>211.33333333333331</ele><time>2026-04-12T10:34:49.284Z</time></trkpt><trkpt lat="45.8489524" lon="10.1485799"><ele>213.0</ele><time>2026-04-12T10:34:50.285Z</time></trkpt><trkpt lat="45.8490831" lon="10.148717"><ele>213.0</ele><time>2026-04-12T10:34:51.299Z</time></trkpt><trkpt lat="45.8492145" lon="10.148855"><ele>213.0</ele><time>2026-04-12T10:34:52.289Z</time></trkpt><trkpt lat="45.8493463" lon="10.1489982"><ele>213.0</ele><time>2026-04-12T10:34:53.283Z</time></trkpt><trkpt lat="45.8494807" lon="10.1491442"><ele>213.33333333333331</ele><time>2026-04-12T10:34:54.287Z</time></trkpt><trkpt lat="45.849618" lon="10.1492922"><ele>213.66666666666666</ele><time>2026-04-12T10:34:55.284Z</time></trkpt><trkpt lat="45.8497539" lon="10.1494352"><ele>214.0</ele><time>2026-04-12T10:34:56.283Z</time></trkpt><trkpt lat="45.849886" lon="10.1495706"><ele>214.0</ele><time>2026-04-12T10:34:57.281Z</time></trkpt><trkpt lat="45.8500155" lon="10.1497042"><ele>214.0</ele><time>2026-04-12T10:34:58.291Z</time></trkpt><trkpt lat="45.8501455" lon="10.1498416"><ele>214.0</ele><time>2026-04-12T10:34:59.289Z</time></trkpt><trkpt lat="45.8502761" lon="10.1499793"><ele>212.66666666666666</ele><time>2026-04-12T10:35:00.277Z</time></trkpt><trkpt lat="45.8504058" lon="10.1501176"><ele>211.33333333333331</ele><time>2026-04-12T10:35:01.279Z</time></trkpt><trkpt lat="45.8505333" lon="10.1502562"><ele>210.0</ele><time>2026-04-12T10:35:02.281Z</time></trkpt><trkpt lat="45.8506582" lon="10.1503934"><ele>210.0</ele><time>2026-04-12T10:35:03.287Z</time></trkpt><trkpt lat="45.8507812" lon="10.1505245"><ele>210.0</ele><time>2026-04-12T10:35:04.279Z</time></trkpt><trkpt lat="45.8508985" lon="10.1506478"><ele>210.0</ele><time>2026-04-12T10:35:05.274Z</time></trkpt><trkpt lat="45.8510029" lon="10.1507599"><ele>210.0</ele><time>2026-04-12T10:35:06.282Z</time></trkpt><trkpt lat="45.8510911" lon="10.1508553"><ele>210.4</ele><time>2026-04-12T10:35:07.281Z</time></trkpt><trkpt lat="45.8512187" lon="10.1509833"><ele>210.8</ele><time>2026-04-12T10:35:09.277Z</time></trkpt><trkpt lat="45.8512938" lon="10.1510296"><ele>211.2</ele><time>2026-04-12T10:35:11.291Z</time></trkpt><trkpt lat="45.8513573" lon="10.1509232"><ele>211.6</ele><time>2026-04-12T10:35:14.292Z</time></trkpt><trkpt lat="45.8514008" lon="10.1508201"><ele>212.0</ele><time>2026-04-12T10:35:16.284Z</time></trkpt><trkpt lat="45.851466" lon="10.1507762"><ele>212.0</ele><time>2026-04-12T10:35:19.285Z</time></trkpt></trkseg><trkseg><trkpt lat="45.8514432" lon="10.1507174"><ele>212.0</ele><time>2026-04-12T12:39:36.286Z</time></trkpt><trkpt lat="45.8513849" lon="10.1507529"><ele>212.0</ele><time>2026-04-12T12:41:19.289Z</time></trkpt><trkpt lat="45.8513267" lon="10.1509416"><ele>212.0</ele><time>2026-04-12T12:41:31.29Z</time></trkpt><trkpt lat="45.8512774" lon="10.1510023"><ele>212.0</ele><time>2026-04-12T12:41:33.289Z</time></trkpt><trkpt lat="45.8511757" lon="10.1509446"><ele>212.0</ele><time>2026-04-12T12:41:36.3Z</time></trkpt><trkpt lat="45.851109" lon="10.150867"><ele>212.0</ele><time>2026-04-12T12:41:37.302Z</time></trkpt><trkpt lat="45.8510274" lon="10.1507668"><ele>212.0</ele><time>2026-04-12T12:41:38.296Z</time></trkpt><trkpt lat="45.8509385" lon="10.1506724"><ele>212.0</ele><time>2026-04-12T12:41:39.298Z</time></trkpt><trkpt lat="45.8507555" lon="10.1504666"><ele>211.5</ele><time>2026-04-12T12:41:41.308Z</time></trkpt><trkpt lat="45.8506602" lon="10.1503586"><ele>211.0</ele><time>2026-04-12T12:41:42.302Z</time></trkpt><trkpt lat="45.8505601" lon="10.1502466"><ele>210.5</ele><time>2026-04-12T12:41:43.302Z</time></trkpt><trkpt lat="45.8504622" lon="10.1501402"><ele>210.0</ele><time>2026-04-12T12:41:44.295Z</time></trkpt><trkpt lat="45.8503663" lon="10.1500394"><ele>210.0</ele><time>2026-04-12T12:41:45.299Z</time></trkpt><trkpt lat="45.8502688" lon="10.1499345"><ele>210.0</ele><time>2026-04-12T12:41:46.301Z</time></trkpt><trkpt lat="45.8501656" lon="10.1498251"><ele>210.0</ele><time>2026-04-12T12:41:47.294Z</time></trkpt><trkpt lat="45.8500572" lon="10.1497103"><ele>210.0</ele><time>2026-04-12T12:41:48.303Z</time></trkpt><trkpt lat="45.8499418" lon="10.1495902"><ele>211.33333333333331</ele><time>2026-04-12T12:41:49.297Z</time></trkpt><trkpt lat="45.8498231" lon="10.1494633"><ele>212.66666666666666</ele><time>2026-04-12T12:41:50.296Z</time></trkpt><trkpt lat="45.849702" lon="10.1493315"><ele>214.0</ele><time>2026-04-12T12:41:51.303Z</time></trkpt><trkpt lat="45.8495779" lon="10.1491971"><ele>214.0</ele><time>2026-04-12T12:41:52.296Z</time></trkpt><trkpt lat="45.8494481" lon="10.1490583"><ele>214.0</ele><time>2026-04-12T12:41:53.313Z</time></trkpt><trkpt lat="45.8493128" lon="10.1489132"><ele>214.0</ele><time>2026-04-12T12:41:54.295Z</time></trkpt><trkpt lat="45.8491763" lon="10.1487607"><ele>213.66666666666666</ele><time>2026-04-12T12:41:55.296Z</time></trkpt><trkpt lat="45.8490348" lon="10.1486042"><ele>213.33333333333331</ele><time>2026-04-12T12:41:56.302Z</time></trkpt><trkpt lat="45.8488875" lon="10.1484488"><ele>213.0</ele><time>2026-04-12T12:41:57.304Z</time></trkpt><trkpt lat="45.8487401" lon="10.1482956"><ele>211.66666666666669</ele><time>2026-04-12T12:41:58.304Z</time></trkpt><trkpt lat="45.8485946" lon="10.1481436"><ele>210.33333333333334</ele><time>2026-04-12T12:41:59.294Z</time></trkpt><trkpt lat="45.8484516" lon="10.1479918"><ele>209.0</ele><time>2026-04-12T12:42:00.291Z</time></trkpt><trkpt lat="45.8481736" lon="10.14769"><ele>208.66666666666669</ele><time>2026-04-12T12:42:02.294Z</time></trkpt><trkpt lat="45.8480361" lon="10.1475397"><ele>208.33333333333331</ele><time>2026-04-12T12:42:03.304Z</time></trkpt><trkpt lat="45.8478935" lon="10.1473846"><ele>208.0</ele><time>2026-04-12T12:42:04.292Z</time></trkpt><trkpt lat="45.8477441" lon="10.1472231"><ele>207.33333333333331</ele><time>2026-04-12T12:42:05.302Z</time></trkpt><trkpt lat="45.8475896" lon="10.1470568"><ele>206.66666666666669</ele><time>2026-04-12T12:42:06.302Z</time></trkpt><trkpt lat="45.8474321" lon="10.1468911"><ele>206.0</ele><time>2026-04-12T12:42:07.303Z</time></trkpt><trkpt lat="45.8472767" lon="10.1467265"><ele>206.0</ele><time>2026-04-12T12:42:08.306Z</time></trkpt><trkpt lat="45.8471262" lon="10.1465642"><ele>206.0</ele><time>2026-04-12T12:42:09.3Z</time></trkpt><trkpt lat="45.8469569" lon="10.1464082"><ele>206.0</ele><time>2026-04-12T12:42:10.301Z</time></trkpt><trkpt lat="45.8468167" lon="10.1462614"><ele>205.33333333333334</ele><time>2026-04-12T12:42:11.305Z</time></trkpt><trkpt lat="45.8466811" lon="10.1461167"><ele>204.66666666666669</ele><time>2026-04-12T12:42:12.3Z</time></trkpt><trkpt lat="45.8465454" lon="10.1459697"><ele>204.0</ele><time>2026-04-12T12:42:13.309Z</time></trkpt><trkpt lat="45.8464126" lon="10.145826"><ele>204.0</ele><time>2026-04-12T12:42:14.292Z</time></trkpt><trkpt lat="45.8462847" lon="10.1456886"><ele>204.0</ele><time>2026-04-12T12:42:15.292Z</time></trkpt><trkpt lat="45.8461623" lon="10.1455551"><ele>204.0</ele><time>2026-04-12T12:42:16.297Z</time></trkpt><trkpt lat="45.8460437" lon="10.1454239"><ele>203.75</ele><time>2026-04-12T12:42:17.295Z</time></trkpt><trkpt lat="45.8459296" lon="10.1452975"><ele>203.5</ele><time>2026-04-12T12:42:18.309Z</time></trkpt><trkpt lat="45.8458197" lon="10.145177"><ele>203.25</ele><time>2026-04-12T12:42:19.295Z</time></trkpt><trkpt lat="45.8457137" lon="10.1450617"><ele>203.0</ele><time>2026-04-12T12:42:20.303Z</time></trkpt><trkpt lat="45.845611" lon="10.1449505"><ele>202.5</ele><time>2026-04-12T12:42:21.307Z</time></trkpt><trkpt lat="45.84543" lon="10.1447554"><ele>202.0</ele><time>2026-04-12T12:42:23.302Z</time></trkpt><trkpt lat="45.8453536" lon="10.144671"><ele>201.5</ele><time>2026-04-12T12:42:24.298Z</time></trkpt><trkpt lat="45.8452819" lon="10.1445905"><ele>201.0</ele><time>2026-04-12T12:42:25.303Z</time></trkpt><trkpt lat="45.8452172" lon="10.1445167"><ele>201.0</ele><time>2026-04-12T12:42:26.291Z</time></trkpt><trkpt lat="45.8451614" lon="10.1444522"><ele>201.0</ele><time>2026-04-12T12:42:27.31Z</time></trkpt><trkpt lat="45.8451131" lon="10.1443933"><ele>201.0</ele><time>2026-04-12T12:42:28.302Z</time></trkpt><trkpt lat="45.8450356" lon="10.1442886"><ele>201.0</ele><time>2026-04-12T12:42:30.302Z</time></trkpt><trkpt lat="45.8449893" lon="10.1441818"><ele>201.0</ele><time>2026-04-12T12:42:32.295Z</time></trkpt><trkpt lat="45.8449988" lon="10.1440813"><ele>201.0</ele><time>2026-04-12T12:42:41.292Z</time></trkpt><trkpt lat="45.8450341" lon="10.1439424"><ele>201.20000000000002</ele><time>2026-04-12T12:42:43.299Z</time></trkpt><trkpt lat="45.8450966" lon="10.1437404"><ele>201.4</ele><time>2026-04-12T12:42:45.291Z</time></trkpt><trkpt lat="45.8451281" lon="10.1436266"><ele>201.6</ele><time>2026-04-12T12:42:46.29Z</time></trkpt><trkpt lat="45.8451607" lon="10.1435076"><ele>201.8</ele><time>2026-04-12T12:42:47.297Z</time></trkpt><trkpt lat="45.8451951" lon="10.1433806"><ele>202.0</ele><time>2026-04-12T12:42:48.293Z</time></trkpt><trkpt lat="45.8452363" lon="10.1432493"><ele>201.8</ele><time>2026-04-12T12:42:49.292Z</time></trkpt><trkpt lat="45.8452857" lon="10.1431175"><ele>201.6</ele><time>2026-04-12T12:42:50.29Z</time></trkpt><trkpt lat="45.8453403" lon="10.1429935"><ele>201.4</ele><time>2026-04-12T12:42:51.29Z</time></trkpt><trkpt lat="45.845399" lon="10.1428788"><ele>201.20000000000002</ele><time>2026-04-12T12:42:52.292Z</time></trkpt><trkpt lat="45.8454653" lon="10.1427697"><ele>201.0</ele><time>2026-04-12T12:42:53.288Z</time></trkpt><trkpt lat="45.8455392" lon="10.1426617"><ele>201.0</ele><time>2026-04-12T12:42:54.294Z</time></trkpt><trkpt lat="45.8456172" lon="10.1425499"><ele>201.0</ele><time>2026-04-12T12:42:55.286Z</time></trkpt><trkpt lat="45.845701" lon="10.1424452"><ele>201.0</ele><time>2026-04-12T12:42:56.286Z</time></trkpt><trkpt lat="45.8457871" lon="10.1423468"><ele>201.0</ele><time>2026-04-12T12:42:57.288Z</time></trkpt><trkpt lat="45.8458733" lon="10.1422582"><ele>201.0</ele><time>2026-04-12T12:42:58.291Z</time></trkpt><trkpt lat="45.8459628" lon="10.1421754"><ele>200.8</ele><time>2026-04-12T12:42:59.287Z</time></trkpt><trkpt lat="45.8460543" lon="10.1420866"><ele>200.60000000000002</ele><time>2026-04-12T12:43:00.29Z</time></trkpt><trkpt lat="45.8461482" lon="10.1419938"><ele>200.4</ele><time>2026-04-12T12:43:01.295Z</time></trkpt><trkpt lat="45.8462495" lon="10.1419114"><ele>200.2</ele><time>2026-04-12T12:43:02.302Z</time></trkpt><trkpt lat="45.84634" lon="10.1418279"><ele>200.0</ele><time>2026-04-12T12:43:03.288Z</time></trkpt><trkpt lat="45.846417" lon="10.1417462"><ele>200.0</ele><time>2026-04-12T12:43:04.288Z</time></trkpt><trkpt lat="45.8465386" lon="10.1416292"><ele>200.0</ele><time>2026-04-12T12:43:06.286Z</time></trkpt><trkpt lat="45.8466318" lon="10.1415094"><ele>200.0</ele><time>2026-04-12T12:43:08.29Z</time></trkpt><trkpt lat="45.8466883" lon="10.1414211"><ele>200.0</ele><time>2026-04-12T12:43:09.289Z</time></trkpt><trkpt lat="45.8467441" lon="10.1413288"><ele>200.0</ele><time>2026-04-12T12:43:10.292Z</time></trkpt><trkpt lat="45.8467962" lon="10.1412478"><ele>200.2</ele><time>2026-04-12T12:43:11.299Z</time></trkpt><trkpt lat="45.84684" lon="10.1411753"><ele>200.4</ele><time>2026-04-12T12:43:12.29Z</time></trkpt><trkpt lat="45.8469014" lon="10.1410493"><ele>200.60000000000002</ele><time>2026-04-12T12:43:14.288Z</time></trkpt><trkpt lat="45.8468793" lon="10.140953"><ele>200.8</ele><time>2026-04-12T12:43:29.295Z</time></trkpt><trkpt lat="45.8467351" lon="10.1408861"><ele>201.0</ele><time>2026-04-12T12:43:32.29Z</time></trkpt><trkpt lat="45.8466642" lon="10.1408047"><ele>200.83333333333334</ele><time>2026-04-12T12:43:33.291Z</time></trkpt><trkpt lat="45.8466042" lon="10.1407135"><ele>200.66666666666669</ele><time>2026-04-12T12:43:34.289Z</time></trkpt><trkpt lat="45.8465649" lon="10.1406362"><ele>200.5</ele><time>2026-04-12T12:43:35.292Z</time></trkpt><trkpt lat="45.846529" lon="10.1405423"><ele>200.33333333333334</ele><time>2026-04-12T12:43:37.291Z</time></trkpt><trkpt lat="45.8464866" lon="10.1404621"><ele>200.16666666666669</ele><time>2026-04-12T12:43:44.302Z</time></trkpt><trkpt lat="45.8464317" lon="10.1403843"><ele>200.0</ele><time>2026-04-12T12:44:07.296Z</time></trkpt><trkpt lat="45.84631" lon="10.1402089"><ele>200.00000000000003</ele><time>2026-04-12T12:44:10.296Z</time></trkpt><trkpt lat="45.8461991" lon="10.1401663"><ele>200.0</ele><time>2026-04-12T12:44:12.296Z</time></trkpt><trkpt lat="45.8461484" lon="10.1402498"><ele>200.0</ele><time>2026-04-12T12:44:14.289Z</time></trkpt><trkpt lat="45.8461956" lon="10.1403338"><ele>200.0</ele><time>2026-04-12T12:44:16.293Z</time></trkpt><trkpt lat="45.8462713" lon="10.1403294"><ele>200.00000000000003</ele><time>2026-04-12T12:44:18.299Z</time></trkpt><trkpt lat="45.8463355" lon="10.1403351"><ele>200.0</ele><time>2026-04-12T12:44:20.299Z</time></trkpt><trkpt lat="45.8464179" lon="10.1403765"><ele>200.0</ele><time>2026-04-12T12:44:55.293Z</time></trkpt><trkpt lat="45.846554" lon="10.1406189"><ele>200.0</ele><time>2026-04-12T12:45:08.298Z</time></trkpt><trkpt lat="45.8465924" lon="10.1407298"><ele>200.0</ele><time>2026-04-12T12:45:09.299Z</time></trkpt><trkpt lat="45.8466329" lon="10.1408323"><ele>200.0</ele><time>2026-04-12T12:45:10.299Z</time></trkpt><trkpt lat="45.8466721" lon="10.1409099"><ele>199.75</ele><time>2026-04-12T12:45:11.303Z</time></trkpt><trkpt lat="45.8467326" lon="10.1410437"><ele>199.5</ele><time>2026-04-12T12:45:13.293Z</time></trkpt><trkpt lat="45.8467666" lon="10.1411685"><ele>199.25</ele><time>2026-04-12T12:45:15.298Z</time></trkpt><trkpt lat="45.8468408" lon="10.141233"><ele>199.0</ele><time>2026-04-12T12:45:36.296Z</time></trkpt><trkpt lat="45.8470287" lon="10.1410072"><ele>199.66666666666666</ele><time>2026-04-12T12:45:39.291Z</time></trkpt><trkpt lat="45.847109" lon="10.1408523"><ele>200.33333333333331</ele><time>2026-04-12T12:45:40.303Z</time></trkpt><trkpt lat="45.847202" lon="10.1406744"><ele>201.0</ele><time>2026-04-12T12:45:41.295Z</time></trkpt><trkpt lat="45.8473133" lon="10.1404581"><ele>201.33333333333331</ele><time>2026-04-12T12:45:42.322Z</time></trkpt><trkpt lat="45.8474312" lon="10.1402216"><ele>201.66666666666666</ele><time>2026-04-12T12:45:43.305Z</time></trkpt><trkpt lat="45.8475549" lon="10.1399573"><ele>202.0</ele><time>2026-04-12T12:45:44.3Z</time></trkpt><trkpt lat="45.8476886" lon="10.1396735"><ele>201.0</ele><time>2026-04-12T12:45:45.303Z</time></trkpt><trkpt lat="45.8478313" lon="10.1393617"><ele>200.0</ele><time>2026-04-12T12:45:46.315Z</time></trkpt><trkpt lat="45.8479723" lon="10.1390373"><ele>199.0</ele><time>2026-04-12T12:45:47.295Z</time></trkpt><trkpt lat="45.8481159" lon="10.1387279"><ele>198.0</ele><time>2026-04-12T12:45:48.308Z</time></trkpt><trkpt lat="45.8482623" lon="10.1384485"><ele>198.0</ele><time>2026-04-12T12:45:49.303Z</time></trkpt><trkpt lat="45.8484" lon="10.1382062"><ele>198.0</ele><time>2026-04-12T12:45:50.291Z</time></trkpt><trkpt lat="45.8485181" lon="10.138006"><ele>198.0</ele><time>2026-04-12T12:45:51.313Z</time></trkpt><trkpt lat="45.8486048" lon="10.1378266"><ele>197.75</ele><time>2026-04-12T12:45:52.303Z</time></trkpt><trkpt lat="45.8486475" lon="10.1376576"><ele>197.5</ele><time>2026-04-12T12:45:53.294Z</time></trkpt><trkpt lat="45.8486467" lon="10.1374915"><ele>197.25</ele><time>2026-04-12T12:45:54.304Z</time></trkpt><trkpt lat="45.8486102" lon="10.1373269"><ele>197.0</ele><time>2026-04-12T12:45:55.294Z</time></trkpt><trkpt lat="45.8485456" lon="10.137174"><ele>197.0</ele><time>2026-04-12T12:45:56.295Z</time></trkpt><trkpt lat="45.8484541" lon="10.1370432"><ele>197.0</ele><time>2026-04-12T12:45:57.294Z</time></trkpt><trkpt lat="45.8481882" lon="10.1368549"><ele>197.0</ele><time>2026-04-12T12:45:59.301Z</time></trkpt><trkpt lat="45.8480313" lon="10.1368276"><ele>197.0</ele><time>2026-04-12T12:46:00.306Z</time></trkpt><trkpt lat="45.8478797" lon="10.1368624"><ele>197.0</ele><time>2026-04-12T12:46:01.302Z</time></trkpt><trkpt lat="45.8477381" lon="10.1369532"><ele>197.0</ele><time>2026-04-12T12:46:02.303Z</time></trkpt><trkpt lat="45.8475964" lon="10.1370794"><ele>197.0</ele><time>2026-04-12T12:46:03.292Z</time></trkpt><trkpt lat="45.847447" lon="10.1371961"><ele>197.0</ele><time>2026-04-12T12:46:04.295Z</time></trkpt><trkpt lat="45.8472746" lon="10.1372824"><ele>197.0</ele><time>2026-04-12T12:46:05.297Z</time></trkpt><trkpt lat="45.8470952" lon="10.1373121"><ele>197.0</ele><time>2026-04-12T12:46:06.302Z</time></trkpt><trkpt lat="45.8469247" lon="10.1372848"><ele>197.0</ele><time>2026-04-12T12:46:07.302Z</time></trkpt><trkpt lat="45.8467679" lon="10.1372049"><ele>197.0</ele><time>2026-04-12T12:46:08.297Z</time></trkpt><trkpt lat="45.8466145" lon="10.137084"><ele>198.33333333333334</ele><time>2026-04-12T12:46:09.292Z</time></trkpt><trkpt lat="45.8464508" lon="10.1369253"><ele>199.66666666666669</ele><time>2026-04-12T12:46:10.292Z</time></trkpt><trkpt lat="45.8462818" lon="10.1367458"><ele>201.0</ele><time>2026-04-12T12:46:11.306Z</time></trkpt><trkpt lat="45.8461093" lon="10.1365822"><ele>200.66666666666669</ele><time>2026-04-12T12:46:12.296Z</time></trkpt><trkpt lat="45.8459423" lon="10.1364276"><ele>200.33333333333334</ele><time>2026-04-12T12:46:13.305Z</time></trkpt><trkpt lat="45.8457716" lon="10.1362779"><ele>200.0</ele><time>2026-04-12T12:46:14.289Z</time></trkpt><trkpt lat="45.8455993" lon="10.136133"><ele>200.0</ele><time>2026-04-12T12:46:15.293Z</time></trkpt><trkpt lat="45.8454311" lon="10.1359919"><ele>200.0</ele><time>2026-04-12T12:46:16.294Z</time></trkpt><trkpt lat="45.8452727" lon="10.1358533"><ele>200.0</ele><time>2026-04-12T12:46:17.296Z</time></trkpt><trkpt lat="45.8451258" lon="10.1357225"><ele>198.5</ele><time>2026-04-12T12:46:18.299Z</time></trkpt><trkpt lat="45.844853" lon="10.1354786"><ele>197.0</ele><time>2026-04-12T12:46:20.297Z</time></trkpt><trkpt lat="45.8447225" lon="10.135363"><ele>197.0</ele><time>2026-04-12T12:46:21.301Z</time></trkpt><trkpt lat="45.8445978" lon="10.1352559"><ele>197.0</ele><time>2026-04-12T12:46:22.299Z</time></trkpt><trkpt lat="45.8444864" lon="10.1351596"><ele>197.0</ele><time>2026-04-12T12:46:23.294Z</time></trkpt><trkpt lat="45.844385" lon="10.1350696"><ele>197.0</ele><time>2026-04-12T12:46:24.291Z</time></trkpt><trkpt lat="45.8442881" lon="10.1349841"><ele>196.8</ele><time>2026-04-12T12:46:25.294Z</time></trkpt><trkpt lat="45.8441923" lon="10.1348993"><ele>196.6</ele><time>2026-04-12T12:46:26.3Z</time></trkpt><trkpt lat="45.8440967" lon="10.1348168"><ele>196.4</ele><time>2026-04-12T12:46:27.294Z</time></trkpt><trkpt lat="45.8440052" lon="10.1347328"><ele>196.20000000000002</ele><time>2026-04-12T12:46:28.29Z</time></trkpt><trkpt lat="45.8439161" lon="10.1346514"><ele>196.0</ele><time>2026-04-12T12:46:29.294Z</time></trkpt><trkpt lat="45.8438251" lon="10.1345667"><ele>196.0</ele><time>2026-04-12T12:46:30.302Z</time></trkpt><trkpt lat="45.8437241" lon="10.1344724"><ele>196.0</ele><time>2026-04-12T12:46:31.303Z</time></trkpt><trkpt lat="45.8436107" lon="10.1343679"><ele>196.0</ele><time>2026-04-12T12:46:32.293Z</time></trkpt><trkpt lat="45.8434875" lon="10.1342564"><ele>196.0</ele><time>2026-04-12T12:46:33.302Z</time></trkpt><trkpt lat="45.8433604" lon="10.1341434"><ele>195.66666666666666</ele><time>2026-04-12T12:46:34.289Z</time></trkpt><trkpt lat="45.8432323" lon="10.1340287"><ele>195.33333333333331</ele><time>2026-04-12T12:46:35.3Z</time></trkpt><trkpt lat="45.8430992" lon="10.1339122"><ele>195.0</ele><time>2026-04-12T12:46:36.297Z</time></trkpt><trkpt lat="45.8429617" lon="10.133791"><ele>195.0</ele><time>2026-04-12T12:46:37.297Z</time></trkpt><trkpt lat="45.8428186" lon="10.1336655"><ele>195.0</ele><time>2026-04-12T12:46:38.301Z</time></trkpt><trkpt lat="45.8426724" lon="10.1335358"><ele>195.0</ele><time>2026-04-12T12:46:39.298Z</time></trkpt><trkpt lat="45.8423638" lon="10.1332652"><ele>196.0</ele><time>2026-04-12T12:46:41.31Z</time></trkpt><trkpt lat="45.8421976" lon="10.1331201"><ele>197.0</ele><time>2026-04-12T12:46:42.291Z</time></trkpt><trkpt lat="45.8420234" lon="10.1329707"><ele>198.0</ele><time>2026-04-12T12:46:43.302Z</time></trkpt><trkpt lat="45.8418455" lon="10.132815"><ele>198.0</ele><time>2026-04-12T12:46:44.29Z</time></trkpt><trkpt lat="45.8416654" lon="10.1326537"><ele>198.0</ele><time>2026-04-12T12:46:45.301Z</time></trkpt><trkpt lat="45.8414833" lon="10.1324881"><ele>198.0</ele><time>2026-04-12T12:46:46.294Z</time></trkpt><trkpt lat="45.8413006" lon="10.1323169"><ele>197.66666666666669</ele><time>2026-04-12T12:46:47.293Z</time></trkpt><trkpt lat="45.8411201" lon="10.132134"><ele>197.33333333333334</ele><time>2026-04-12T12:46:48.294Z</time></trkpt><trkpt lat="45.8409446" lon="10.1319349"><ele>197.0</ele><time>2026-04-12T12:46:49.295Z</time></trkpt><trkpt lat="45.8407762" lon="10.13172"><ele>197.0</ele><time>2026-04-12T12:46:50.295Z</time></trkpt><trkpt lat="45.8406162" lon="10.1314891"><ele>197.0</ele><time>2026-04-12T12:46:51.299Z</time></trkpt><trkpt lat="45.8404625" lon="10.1312447"><ele>197.0</ele><time>2026-04-12T12:46:52.299Z</time></trkpt><trkpt lat="45.8403206" lon="10.1309915"><ele>197.0</ele><time>2026-04-12T12:46:53.294Z</time></trkpt><trkpt lat="45.84019" lon="10.1307309"><ele>197.0</ele><time>2026-04-12T12:46:54.295Z</time></trkpt><trkpt lat="45.8400663" lon="10.1304647"><ele>197.0</ele><time>2026-04-12T12:46:55.293Z</time></trkpt><trkpt lat="45.8399425" lon="10.1302"><ele>197.0</ele><time>2026-04-12T12:46:56.302Z</time></trkpt><trkpt lat="45.8398162" lon="10.1299341"><ele>197.0</ele><time>2026-04-12T12:46:57.301Z</time></trkpt><trkpt lat="45.8396877" lon="10.1296646"><ele>197.0</ele><time>2026-04-12T12:46:58.293Z</time></trkpt><trkpt lat="45.8395563" lon="10.129393"><ele>197.0</ele><time>2026-04-12T12:46:59.291Z</time></trkpt><trkpt lat="45.8394215" lon="10.1291155"><ele>197.0</ele><time>2026-04-12T12:47:00.294Z</time></trkpt><trkpt lat="45.839144" lon="10.1285563"><ele>196.5</ele><time>2026-04-12T12:47:02.292Z</time></trkpt><trkpt lat="45.839004" lon="10.1282788"><ele>196.0</ele><time>2026-04-12T12:47:03.296Z</time></trkpt><trkpt lat="45.8388658" lon="10.1280038"><ele>195.5</ele><time>2026-04-12T12:47:04.303Z</time></trkpt><trkpt lat="45.8387296" lon="10.1277321"><ele>195.0</ele><time>2026-04-12T12:47:05.293Z</time></trkpt><trkpt lat="45.838594" lon="10.1274603"><ele>195.0</ele><time>2026-04-12T12:47:06.301Z</time></trkpt><trkpt lat="45.8384604" lon="10.1271833"><ele>195.0</ele><time>2026-04-12T12:47:07.296Z</time></trkpt><trkpt lat="45.8383328" lon="10.1269005"><ele>195.0</ele><time>2026-04-12T12:47:08.298Z</time></trkpt><trkpt lat="45.8382104" lon="10.1266115"><ele>195.0</ele><time>2026-04-12T12:47:09.294Z</time></trkpt><trkpt lat="45.8380904" lon="10.126319"><ele>194.0</ele><time>2026-04-12T12:47:10.295Z</time></trkpt><trkpt lat="45.8379726" lon="10.1260206"><ele>193.0</ele><time>2026-04-12T12:47:11.302Z</time></trkpt><trkpt lat="45.8378619" lon="10.1257175"><ele>193.0</ele><time>2026-04-12T12:47:12.293Z</time></trkpt><trkpt lat="45.837756" lon="10.1254128"><ele>193.0</ele><time>2026-04-12T12:47:13.296Z</time></trkpt><trkpt lat="45.8376575" lon="10.125106"><ele>193.5</ele><time>2026-04-12T12:47:14.295Z</time></trkpt><trkpt lat="45.8375653" lon="10.1247972"><ele>194.0</ele><time>2026-04-12T12:47:15.293Z</time></trkpt><trkpt lat="45.8374801" lon="10.1244846"><ele>194.0</ele><time>2026-04-12T12:47:16.301Z</time></trkpt><trkpt lat="45.8374002" lon="10.1241689"><ele>194.0</ele><time>2026-04-12T12:47:17.297Z</time></trkpt><trkpt lat="45.8373282" lon="10.1238466"><ele>194.0</ele><time>2026-04-12T12:47:18.299Z</time></trkpt><trkpt lat="45.8372555" lon="10.123512"><ele>194.0</ele><time>2026-04-12T12:47:19.299Z</time></trkpt><trkpt lat="45.8371829" lon="10.1231673"><ele>194.5</ele><time>2026-04-12T12:47:20.298Z</time></trkpt><trkpt lat="45.837112" lon="10.1228135"><ele>195.0</ele><time>2026-04-12T12:47:21.297Z</time></trkpt><trkpt lat="45.8369649" lon="10.1220925"><ele>195.0</ele><time>2026-04-12T12:47:23.297Z</time></trkpt><trkpt lat="45.836893" lon="10.1217353"><ele>195.0</ele><time>2026-04-12T12:47:24.293Z</time></trkpt><trkpt lat="45.8368218" lon="10.1213892"><ele>194.0</ele><time>2026-04-12T12:47:25.294Z</time></trkpt><trkpt lat="45.8367524" lon="10.1210545"><ele>193.0</ele><time>2026-04-12T12:47:26.294Z</time></trkpt><trkpt lat="45.8366829" lon="10.1207251"><ele>193.0</ele><time>2026-04-12T12:47:27.296Z</time></trkpt><trkpt lat="45.8366098" lon="10.1203932"><ele>193.0</ele><time>2026-04-12T12:47:28.299Z</time></trkpt><trkpt lat="45.8365367" lon="10.120059"><ele>193.0</ele><time>2026-04-12T12:47:29.297Z</time></trkpt><trkpt lat="45.8364624" lon="10.1197198"><ele>193.0</ele><time>2026-04-12T12:47:30.296Z</time></trkpt><trkpt lat="45.8363875" lon="10.1193743"><ele>193.0</ele><time>2026-04-12T12:47:31.298Z</time></trkpt><trkpt lat="45.8363108" lon="10.1190204"><ele>193.0</ele><time>2026-04-12T12:47:32.294Z</time></trkpt><trkpt lat="45.8362324" lon="10.1186595"><ele>193.0</ele><time>2026-04-12T12:47:33.302Z</time></trkpt><trkpt lat="45.8361542" lon="10.1182985"><ele>193.0</ele><time>2026-04-12T12:47:34.291Z</time></trkpt><trkpt lat="45.8360812" lon="10.1179343"><ele>192.5</ele><time>2026-04-12T12:47:35.295Z</time></trkpt><trkpt lat="45.8360196" lon="10.1175651"><ele>192.0</ele><time>2026-04-12T12:47:36.3Z</time></trkpt><trkpt lat="45.8359748" lon="10.1171924"><ele>191.5</ele><time>2026-04-12T12:47:37.292Z</time></trkpt><trkpt lat="45.835945" lon="10.1168152"><ele>191.0</ele><time>2026-04-12T12:47:38.299Z</time></trkpt><trkpt lat="45.8359283" lon="10.1164351"><ele>191.0</ele><time>2026-04-12T12:47:39.297Z</time></trkpt><trkpt lat="45.835929" lon="10.1160585"><ele>191.0</ele><time>2026-04-12T12:47:40.29Z</time></trkpt><trkpt lat="45.8359442" lon="10.1156943"><ele>191.5</ele><time>2026-04-12T12:47:41.301Z</time></trkpt><trkpt lat="45.8359736" lon="10.1153503"><ele>192.0</ele><time>2026-04-12T12:47:42.294Z</time></trkpt><trkpt lat="45.8360609" lon="10.1147451"><ele>192.0</ele><time>2026-04-12T12:47:44.295Z</time></trkpt><trkpt lat="45.8361136" lon="10.1144817"><ele>192.0</ele><time>2026-04-12T12:47:45.3Z</time></trkpt><trkpt lat="45.8361695" lon="10.1142357"><ele>192.0</ele><time>2026-04-12T12:47:46.297Z</time></trkpt><trkpt lat="45.836233" lon="10.1140048"><ele>191.66666666666666</ele><time>2026-04-12T12:47:47.29Z</time></trkpt><trkpt lat="45.8362992" lon="10.1137842"><ele>191.33333333333331</ele><time>2026-04-12T12:47:48.29Z</time></trkpt><trkpt lat="45.836364" lon="10.1135784"><ele>191.0</ele><time>2026-04-12T12:47:49.293Z</time></trkpt><trkpt lat="45.8364311" lon="10.1133839"><ele>191.0</ele><time>2026-04-12T12:47:50.299Z</time></trkpt><trkpt lat="45.8365016" lon="10.1131997"><ele>191.0</ele><time>2026-04-12T12:47:51.294Z</time></trkpt><trkpt lat="45.836569" lon="10.1130269"><ele>191.0</ele><time>2026-04-12T12:47:52.298Z</time></trkpt><trkpt lat="45.8366379" lon="10.1128716"><ele>191.0</ele><time>2026-04-12T12:47:53.296Z</time></trkpt><trkpt lat="45.8367042" lon="10.1127212"><ele>191.0</ele><time>2026-04-12T12:47:54.297Z</time></trkpt><trkpt lat="45.8367677" lon="10.112563"><ele>191.0</ele><time>2026-04-12T12:47:55.305Z</time></trkpt><trkpt lat="45.8368311" lon="10.1123967"><ele>191.0</ele><time>2026-04-12T12:47:56.305Z</time></trkpt><trkpt lat="45.8368941" lon="10.1122215"><ele>191.0</ele><time>2026-04-12T12:47:57.293Z</time></trkpt><trkpt lat="45.8369564" lon="10.1120417"><ele>190.75</ele><time>2026-04-12T12:47:58.296Z</time></trkpt><trkpt lat="45.8370191" lon="10.1118643"><ele>190.5</ele><time>2026-04-12T12:47:59.297Z</time></trkpt><trkpt lat="45.8370837" lon="10.1116891"><ele>190.25</ele><time>2026-04-12T12:48:00.302Z</time></trkpt><trkpt lat="45.8371475" lon="10.1115194"><ele>190.0</ele><time>2026-04-12T12:48:01.3Z</time></trkpt><trkpt lat="45.8372122" lon="10.1113507"><ele>191.0</ele><time>2026-04-12T12:48:02.293Z</time></trkpt><trkpt lat="45.8372811" lon="10.1111773"><ele>192.0</ele><time>2026-04-12T12:48:03.292Z</time></trkpt><trkpt lat="45.8374244" lon="10.110819"><ele>193.0</ele><time>2026-04-12T12:48:05.297Z</time></trkpt><trkpt lat="45.8374937" lon="10.1106386"><ele>193.0</ele><time>2026-04-12T12:48:06.293Z</time></trkpt><trkpt lat="45.8375598" lon="10.110466"><ele>193.0</ele><time>2026-04-12T12:48:07.302Z</time></trkpt><trkpt lat="45.8376214" lon="10.1103043"><ele>193.0</ele><time>2026-04-12T12:48:08.294Z</time></trkpt><trkpt lat="45.8376836" lon="10.1101572"><ele>193.0</ele><time>2026-04-12T12:48:09.293Z</time></trkpt><trkpt lat="45.8377492" lon="10.110025"><ele>192.0</ele><time>2026-04-12T12:48:10.294Z</time></trkpt><trkpt lat="45.8378275" lon="10.1099141"><ele>191.0</ele><time>2026-04-12T12:48:11.294Z</time></trkpt><trkpt lat="45.837922" lon="10.1098252"><ele>190.0</ele><time>2026-04-12T12:48:12.297Z</time></trkpt><trkpt lat="45.8380317" lon="10.109753"><ele>189.0</ele><time>2026-04-12T12:48:13.296Z</time></trkpt><trkpt lat="45.8381572" lon="10.1097074"><ele>189.0</ele><time>2026-04-12T12:48:14.296Z</time></trkpt><trkpt lat="45.8382938" lon="10.1097032"><ele>189.0</ele><time>2026-04-12T12:48:15.298Z</time></trkpt><trkpt lat="45.8384294" lon="10.1097129"><ele>189.0</ele><time>2026-04-12T12:48:16.3Z</time></trkpt><trkpt lat="45.8385632" lon="10.1097189"><ele>189.0</ele><time>2026-04-12T12:48:17.299Z</time></trkpt><trkpt lat="45.8386945" lon="10.1097059"><ele>190.0</ele><time>2026-04-12T12:48:18.293Z</time></trkpt><trkpt lat="45.8388156" lon="10.1096689"><ele>191.0</ele><time>2026-04-12T12:48:19.295Z</time></trkpt><trkpt lat="45.8389264" lon="10.1096076"><ele>192.0</ele><time>2026-04-12T12:48:20.3Z</time></trkpt><trkpt lat="45.8390244" lon="10.1095217"><ele>193.0</ele><time>2026-04-12T12:48:21.296Z</time></trkpt><trkpt lat="45.8391087" lon="10.1094067"><ele>193.0</ele><time>2026-04-12T12:48:22.299Z</time></trkpt><trkpt lat="45.8391751" lon="10.1092737"><ele>193.0</ele><time>2026-04-12T12:48:23.295Z</time></trkpt><trkpt lat="45.8392223" lon="10.1091267"><ele>193.0</ele><time>2026-04-12T12:48:24.3Z</time></trkpt><trkpt lat="45.8392546" lon="10.1087841"><ele>193.25</ele><time>2026-04-12T12:48:26.3Z</time></trkpt><trkpt lat="45.8392564" lon="10.1086037"><ele>193.5</ele><time>2026-04-12T12:48:27.304Z</time></trkpt><trkpt lat="45.8392621" lon="10.1084278"><ele>193.75</ele><time>2026-04-12T12:48:28.297Z</time></trkpt><trkpt lat="45.8392724" lon="10.1082579"><ele>194.0</ele><time>2026-04-12T12:48:29.297Z</time></trkpt><trkpt lat="45.8392862" lon="10.1080958"><ele>195.16666666666669</ele><time>2026-04-12T12:48:30.298Z</time></trkpt><trkpt lat="45.8393067" lon="10.107949"><ele>196.33333333333334</ele><time>2026-04-12T12:48:31.301Z</time></trkpt><trkpt lat="45.8393315" lon="10.1078223"><ele>197.5</ele><time>2026-04-12T12:48:32.295Z</time></trkpt><trkpt lat="45.8393615" lon="10.1077165"><ele>198.66666666666669</ele><time>2026-04-12T12:48:33.295Z</time></trkpt><trkpt lat="45.8394012" lon="10.1076374"><ele>199.83333333333334</ele><time>2026-04-12T12:48:34.292Z</time></trkpt><trkpt lat="45.8394705" lon="10.1075554"><ele>201.0</ele><time>2026-04-12T12:48:36.292Z</time></trkpt><trkpt lat="45.8395552" lon="10.1075247"><ele>201.0</ele><time>2026-04-12T12:48:39.3Z</time></trkpt><trkpt lat="45.839626" lon="10.1074303"><ele>201.0</ele><time>2026-04-12T12:48:41.301Z</time></trkpt><trkpt lat="45.839646" lon="10.1073373"><ele>201.0</ele><time>2026-04-12T12:48:42.298Z</time></trkpt><trkpt lat="45.8396426" lon="10.1072166"><ele>201.0</ele><time>2026-04-12T12:48:43.293Z</time></trkpt><trkpt lat="45.8396051" lon="10.1071029"><ele>201.0</ele><time>2026-04-12T12:48:44.293Z</time></trkpt><trkpt lat="45.8395322" lon="10.1070039"><ele>201.0</ele><time>2026-04-12T12:48:45.296Z</time></trkpt><trkpt lat="45.8393006" lon="10.1068201"><ele>201.5</ele><time>2026-04-12T12:48:47.297Z</time></trkpt><trkpt lat="45.8391656" lon="10.1067285"><ele>202.0</ele><time>2026-04-12T12:48:48.303Z</time></trkpt><trkpt lat="45.8390322" lon="10.106652"><ele>202.5</ele><time>2026-04-12T12:48:49.306Z</time></trkpt><trkpt lat="45.8388944" lon="10.1065926"><ele>203.0</ele><time>2026-04-12T12:48:50.296Z</time></trkpt><trkpt lat="45.8387568" lon="10.106546"><ele>203.75</ele><time>2026-04-12T12:48:51.293Z</time></trkpt><trkpt lat="45.8386279" lon="10.1065056"><ele>204.5</ele><time>2026-04-12T12:48:52.292Z</time></trkpt><trkpt lat="45.8385047" lon="10.1064694"><ele>205.25</ele><time>2026-04-12T12:48:53.298Z</time></trkpt><trkpt lat="45.8383918" lon="10.1064299"><ele>206.0</ele><time>2026-04-12T12:48:54.294Z</time></trkpt><trkpt lat="45.8382763" lon="10.1063813"><ele>206.0</ele><time>2026-04-12T12:48:55.301Z</time></trkpt><trkpt lat="45.8381563" lon="10.1063162"><ele>206.0</ele><time>2026-04-12T12:48:56.296Z</time></trkpt><trkpt lat="45.8380372" lon="10.1062383"><ele>206.0</ele><time>2026-04-12T12:48:57.298Z</time></trkpt><trkpt lat="45.837924" lon="10.1061549"><ele>206.0</ele><time>2026-04-12T12:48:58.291Z</time></trkpt><trkpt lat="45.8378154" lon="10.1060638"><ele>206.0</ele><time>2026-04-12T12:48:59.296Z</time></trkpt><trkpt lat="45.837698" lon="10.1059603"><ele>206.0</ele><time>2026-04-12T12:49:00.301Z</time></trkpt><trkpt lat="45.8375681" lon="10.1058408"><ele>206.0</ele><time>2026-04-12T12:49:01.297Z</time></trkpt><trkpt lat="45.8374251" lon="10.1056919"><ele>203.0</ele><time>2026-04-12T12:49:02.293Z</time></trkpt><trkpt lat="45.8372725" lon="10.1055386"><ele>200.0</ele><time>2026-04-12T12:49:03.296Z</time></trkpt><trkpt lat="45.8371269" lon="10.1053928"><ele>197.0</ele><time>2026-04-12T12:49:04.301Z</time></trkpt><trkpt lat="45.8369903" lon="10.1052588"><ele>197.0</ele><time>2026-04-12T12:49:05.291Z</time></trkpt><trkpt lat="45.8368627" lon="10.1051396"><ele>197.0</ele><time>2026-04-12T12:49:06.291Z</time></trkpt><trkpt lat="45.8366251" lon="10.104901"><ele>197.0</ele><time>2026-04-12T12:49:08.297Z</time></trkpt><trkpt lat="45.836499" lon="10.1047643"><ele>198.0</ele><time>2026-04-12T12:49:09.305Z</time></trkpt><trkpt lat="45.8363661" lon="10.1046085"><ele>199.0</ele><time>2026-04-12T12:49:10.3Z</time></trkpt><trkpt lat="45.8362283" lon="10.1044342"><ele>200.0</ele><time>2026-04-12T12:49:11.304Z</time></trkpt><trkpt lat="45.8360933" lon="10.1042464"><ele>200.66666666666669</ele><time>2026-04-12T12:49:12.295Z</time></trkpt><trkpt lat="45.8359707" lon="10.104066"><ele>201.33333333333331</ele><time>2026-04-12T12:49:13.29Z</time></trkpt><trkpt lat="45.8358577" lon="10.1038988"><ele>202.0</ele><time>2026-04-12T12:49:14.293Z</time></trkpt><trkpt lat="45.8357537" lon="10.1037415"><ele>201.0</ele><time>2026-04-12T12:49:15.3Z</time></trkpt><trkpt lat="45.8356554" lon="10.1035969"><ele>200.0</ele><time>2026-04-12T12:49:16.3Z</time></trkpt><trkpt lat="45.8355605" lon="10.1034618"><ele>199.0</ele><time>2026-04-12T12:49:17.293Z</time></trkpt><trkpt lat="45.8354696" lon="10.1033344"><ele>198.0</ele><time>2026-04-12T12:49:18.296Z</time></trkpt><trkpt lat="45.8353808" lon="10.1032164"><ele>198.0</ele><time>2026-04-12T12:49:19.295Z</time></trkpt><trkpt lat="45.8352948" lon="10.1031074"><ele>198.0</ele><time>2026-04-12T12:49:20.301Z</time></trkpt><trkpt lat="45.8352115" lon="10.1030113"><ele>198.0</ele><time>2026-04-12T12:49:21.297Z</time></trkpt><trkpt lat="45.8351365" lon="10.10293"><ele>198.0</ele><time>2026-04-12T12:49:22.296Z</time></trkpt><trkpt lat="45.8350736" lon="10.1028562"><ele>198.0</ele><time>2026-04-12T12:49:23.296Z</time></trkpt><trkpt lat="45.8350255" lon="10.102778"><ele>197.16666666666666</ele><time>2026-04-12T12:49:24.299Z</time></trkpt><trkpt lat="45.8349836" lon="10.1027009"><ele>196.33333333333331</ele><time>2026-04-12T12:49:25.291Z</time></trkpt><trkpt lat="45.8349362" lon="10.1026344"><ele>195.5</ele><time>2026-04-12T12:49:26.298Z</time></trkpt><trkpt lat="45.8348805" lon="10.1025906"><ele>194.66666666666666</ele><time>2026-04-12T12:49:27.3Z</time></trkpt><trkpt lat="45.8347415" lon="10.1025703"><ele>193.83333333333331</ele><time>2026-04-12T12:49:29.302Z</time></trkpt><trkpt lat="45.83465" lon="10.1025592"><ele>193.0</ele><time>2026-04-12T12:49:30.298Z</time></trkpt><trkpt lat="45.8345469" lon="10.1025171"><ele>193.0</ele><time>2026-04-12T12:49:31.308Z</time></trkpt><trkpt lat="45.8344374" lon="10.1024398"><ele>193.0</ele><time>2026-04-12T12:49:32.292Z</time></trkpt><trkpt lat="45.8343225" lon="10.102349"><ele>193.0</ele><time>2026-04-12T12:49:33.304Z</time></trkpt><trkpt lat="45.8341962" lon="10.1022531"><ele>193.0</ele><time>2026-04-12T12:49:34.294Z</time></trkpt><trkpt lat="45.8340533" lon="10.1021536"><ele>194.0</ele><time>2026-04-12T12:49:35.297Z</time></trkpt><trkpt lat="45.8338824" lon="10.102034"><ele>195.0</ele><time>2026-04-12T12:49:36.295Z</time></trkpt><trkpt lat="45.8336949" lon="10.1018757"><ele>196.0</ele><time>2026-04-12T12:49:37.302Z</time></trkpt><trkpt lat="45.8335004" lon="10.1017103"><ele>195.33333333333331</ele><time>2026-04-12T12:49:38.302Z</time></trkpt><trkpt lat="45.8333058" lon="10.1015626"><ele>194.66666666666669</ele><time>2026-04-12T12:49:39.293Z</time></trkpt><trkpt lat="45.8331241" lon="10.1014295"><ele>194.0</ele><time>2026-04-12T12:49:40.294Z</time></trkpt><trkpt lat="45.8329594" lon="10.1013134"><ele>194.0</ele><time>2026-04-12T12:49:41.293Z</time></trkpt><trkpt lat="45.8328031" lon="10.1012255"><ele>194.0</ele><time>2026-04-12T12:49:42.296Z</time></trkpt><trkpt lat="45.832652" lon="10.1011698"><ele>194.0</ele><time>2026-04-12T12:49:43.299Z</time></trkpt><trkpt lat="45.8324977" lon="10.1011463"><ele>194.33333333333334</ele><time>2026-04-12T12:49:44.298Z</time></trkpt><trkpt lat="45.8323428" lon="10.1011601"><ele>194.66666666666669</ele><time>2026-04-12T12:49:45.292Z</time></trkpt><trkpt lat="45.8321949" lon="10.1012074"><ele>195.0</ele><time>2026-04-12T12:49:46.294Z</time></trkpt><trkpt lat="45.8320521" lon="10.1012835"><ele>195.0</ele><time>2026-04-12T12:49:47.299Z</time></trkpt><trkpt lat="45.8319112" lon="10.1013856"><ele>195.0</ele><time>2026-04-12T12:49:48.29Z</time></trkpt><trkpt lat="45.8316412" lon="10.1016233"><ele>195.25</ele><time>2026-04-12T12:49:50.3Z</time></trkpt><trkpt lat="45.8315061" lon="10.1017354"><ele>195.5</ele><time>2026-04-12T12:49:51.295Z</time></trkpt><trkpt lat="45.8313756" lon="10.101838"><ele>195.75</ele><time>2026-04-12T12:49:52.29Z</time></trkpt><trkpt lat="45.831251" lon="10.1019303"><ele>196.0</ele><time>2026-04-12T12:49:53.296Z</time></trkpt><trkpt lat="45.831133" lon="10.1020141"><ele>196.0</ele><time>2026-04-12T12:49:54.294Z</time></trkpt><trkpt lat="45.8310264" lon="10.1020918"><ele>196.0</ele><time>2026-04-12T12:49:55.293Z</time></trkpt><trkpt lat="45.8309257" lon="10.1021652"><ele>196.0</ele><time>2026-04-12T12:49:56.29Z</time></trkpt><trkpt lat="45.8308282" lon="10.1022326"><ele>196.0</ele><time>2026-04-12T12:49:57.296Z</time></trkpt><trkpt lat="45.8307361" lon="10.102299"><ele>196.0</ele><time>2026-04-12T12:49:58.294Z</time></trkpt><trkpt lat="45.8306484" lon="10.1023627"><ele>195.66666666666666</ele><time>2026-04-12T12:49:59.302Z</time></trkpt><trkpt lat="45.8305643" lon="10.1024256"><ele>195.33333333333331</ele><time>2026-04-12T12:50:00.293Z</time></trkpt><trkpt lat="45.8304846" lon="10.1024858"><ele>195.0</ele><time>2026-04-12T12:50:01.294Z</time></trkpt><trkpt lat="45.8304046" lon="10.1025428"><ele>194.66666666666669</ele><time>2026-04-12T12:50:02.292Z</time></trkpt><trkpt lat="45.83033" lon="10.1025971"><ele>194.33333333333334</ele><time>2026-04-12T12:50:03.302Z</time></trkpt><trkpt lat="45.8302594" lon="10.1026487"><ele>194.0</ele><time>2026-04-12T12:50:04.294Z</time></trkpt><trkpt lat="45.8301885" lon="10.1026964"><ele>194.2</ele><time>2026-04-12T12:50:05.293Z</time></trkpt><trkpt lat="45.8301221" lon="10.102742"><ele>194.39999999999998</ele><time>2026-04-12T12:50:06.299Z</time></trkpt><trkpt lat="45.8300597" lon="10.102781"><ele>194.6</ele><time>2026-04-12T12:50:07.294Z</time></trkpt><trkpt lat="45.8299586" lon="10.1028298"><ele>194.8</ele><time>2026-04-12T12:50:09.295Z</time></trkpt><trkpt lat="45.8298235" lon="10.1028733"><ele>195.0</ele><time>2026-04-12T12:50:14.291Z</time></trkpt><trkpt lat="45.8297548" lon="10.1029045"><ele>195.0</ele><time>2026-04-12T12:50:17.291Z</time></trkpt><trkpt lat="45.8296904" lon="10.1029217"><ele>195.0</ele><time>2026-04-12T12:50:21.295Z</time></trkpt><trkpt lat="45.8296202" lon="10.1029343"><ele>195.0</ele><time>2026-04-12T12:50:24.295Z</time></trkpt><trkpt lat="45.8295165" lon="10.102915"><ele>195.0</ele><time>2026-04-12T12:50:29.291Z</time></trkpt><trkpt lat="45.8293862" lon="10.1028779"><ele>195.0</ele><time>2026-04-12T12:50:31.308Z</time></trkpt><trkpt lat="45.829226" lon="10.102829"><ele>195.2</ele><time>2026-04-12T12:50:33.291Z</time></trkpt><trkpt lat="45.8291378" lon="10.1027875"><ele>195.4</ele><time>2026-04-12T12:50:34.299Z</time></trkpt><trkpt lat="45.8290448" lon="10.1027304"><ele>195.60000000000002</ele><time>2026-04-12T12:50:35.299Z</time></trkpt><trkpt lat="45.8289491" lon="10.1026674"><ele>195.8</ele><time>2026-04-12T12:50:36.303Z</time></trkpt><trkpt lat="45.8288559" lon="10.102609"><ele>196.0</ele><time>2026-04-12T12:50:37.293Z</time></trkpt><trkpt lat="45.8287687" lon="10.1025581"><ele>195.99999999999997</ele><time>2026-04-12T12:50:38.292Z</time></trkpt><trkpt lat="45.8286861" lon="10.1025118"><ele>196.0</ele><time>2026-04-12T12:50:39.295Z</time></trkpt><trkpt lat="45.8286098" lon="10.1024687"><ele>196.0</ele><time>2026-04-12T12:50:40.294Z</time></trkpt><trkpt lat="45.8285378" lon="10.1024257"><ele>196.0</ele><time>2026-04-12T12:50:41.306Z</time></trkpt><trkpt lat="45.8284644" lon="10.1023783"><ele>195.99999999999997</ele><time>2026-04-12T12:50:42.292Z</time></trkpt><trkpt lat="45.8283811" lon="10.1023194"><ele>196.0</ele><time>2026-04-12T12:50:43.292Z</time></trkpt><trkpt lat="45.8282933" lon="10.1022436"><ele>195.60000000000002</ele><time>2026-04-12T12:50:44.292Z</time></trkpt><trkpt lat="45.8282072" lon="10.1021507"><ele>195.2</ele><time>2026-04-12T12:50:45.295Z</time></trkpt><trkpt lat="45.8281279" lon="10.1020457"><ele>194.8</ele><time>2026-04-12T12:50:46.299Z</time></trkpt><trkpt lat="45.8280544" lon="10.1019287"><ele>194.39999999999998</ele><time>2026-04-12T12:50:47.299Z</time></trkpt><trkpt lat="45.8279838" lon="10.1017999"><ele>194.0</ele><time>2026-04-12T12:50:48.302Z</time></trkpt><trkpt lat="45.8279206" lon="10.1016599"><ele>194.75</ele><time>2026-04-12T12:50:49.299Z</time></trkpt><trkpt lat="45.8278667" lon="10.1015224"><ele>195.5</ele><time>2026-04-12T12:50:50.29Z</time></trkpt><trkpt lat="45.8278193" lon="10.1013849"><ele>196.25</ele><time>2026-04-12T12:50:51.294Z</time></trkpt><trkpt lat="45.8277729" lon="10.1012529"><ele>197.0</ele><time>2026-04-12T12:50:52.294Z</time></trkpt><trkpt lat="45.8276803" lon="10.1010126"><ele>196.8</ele><time>2026-04-12T12:50:54.294Z</time></trkpt><trkpt lat="45.827635" lon="10.1009009"><ele>196.6</ele><time>2026-04-12T12:50:55.292Z</time></trkpt><trkpt lat="45.8275915" lon="10.100797"><ele>196.4</ele><time>2026-04-12T12:50:56.293Z</time></trkpt><trkpt lat="45.8275504" lon="10.1006947"><ele>196.20000000000002</ele><time>2026-04-12T12:50:57.289Z</time></trkpt><trkpt lat="45.8274804" lon="10.1004839"><ele>196.0</ele><time>2026-04-12T12:50:59.3Z</time></trkpt><trkpt lat="45.8274459" lon="10.1003715"><ele>195.99999999999997</ele><time>2026-04-12T12:51:00.296Z</time></trkpt><trkpt lat="45.8274049" lon="10.100258"><ele>196.0</ele><time>2026-04-12T12:51:01.308Z</time></trkpt><trkpt lat="45.8273579" lon="10.1001449"><ele>196.0</ele><time>2026-04-12T12:51:02.299Z</time></trkpt><trkpt lat="45.8273081" lon="10.1000395"><ele>196.0</ele><time>2026-04-12T12:51:03.304Z</time></trkpt><trkpt lat="45.8272591" lon="10.0999376"><ele>195.99999999999997</ele><time>2026-04-12T12:51:04.3Z</time></trkpt><trkpt lat="45.8272129" lon="10.0998373"><ele>196.0</ele><time>2026-04-12T12:51:05.301Z</time></trkpt><trkpt lat="45.8271745" lon="10.0997395"><ele>196.33333333333331</ele><time>2026-04-12T12:51:06.298Z</time></trkpt><trkpt lat="45.8271517" lon="10.0996451"><ele>196.66666666666666</ele><time>2026-04-12T12:51:07.292Z</time></trkpt><trkpt lat="45.8271818" lon="10.0994913"><ele>197.0</ele><time>2026-04-12T12:51:09.296Z</time></trkpt><trkpt lat="45.8272417" lon="10.0994407"><ele>197.33333333333331</ele><time>2026-04-12T12:51:10.299Z</time></trkpt><trkpt lat="45.8273161" lon="10.0993955"><ele>197.66666666666666</ele><time>2026-04-12T12:51:11.301Z</time></trkpt><trkpt lat="45.8274005" lon="10.0993403"><ele>198.0</ele><time>2026-04-12T12:51:12.297Z</time></trkpt><trkpt lat="45.827498" lon="10.0992694"><ele>199.33333333333331</ele><time>2026-04-12T12:51:13.301Z</time></trkpt><trkpt lat="45.8277295" lon="10.0990903"><ele>200.66666666666666</ele><time>2026-04-12T12:51:15.301Z</time></trkpt><trkpt lat="45.8278546" lon="10.0989898"><ele>202.0</ele><time>2026-04-12T12:51:16.305Z</time></trkpt><trkpt lat="45.8279755" lon="10.0988891"><ele>202.5</ele><time>2026-04-12T12:51:17.295Z</time></trkpt><trkpt lat="45.8280954" lon="10.0987884"><ele>203.0</ele><time>2026-04-12T12:51:18.293Z</time></trkpt><trkpt lat="45.8282176" lon="10.0986859"><ele>203.5</ele><time>2026-04-12T12:51:19.302Z</time></trkpt><trkpt lat="45.8283398" lon="10.0985832"><ele>204.0</ele><time>2026-04-12T12:51:20.291Z</time></trkpt><trkpt lat="45.8284615" lon="10.0984833"><ele>205.25</ele><time>2026-04-12T12:51:21.303Z</time></trkpt><trkpt lat="45.8285803" lon="10.0983864"><ele>206.5</ele><time>2026-04-12T12:51:22.292Z</time></trkpt><trkpt lat="45.828695" lon="10.0982916"><ele>207.75</ele><time>2026-04-12T12:51:23.301Z</time></trkpt><trkpt lat="45.8288054" lon="10.0981987"><ele>209.0</ele><time>2026-04-12T12:51:24.296Z</time></trkpt><trkpt lat="45.8289107" lon="10.0981114"><ele>209.79999999999998</ele><time>2026-04-12T12:51:25.296Z</time></trkpt><trkpt lat="45.8290104" lon="10.0980313"><ele>210.6</ele><time>2026-04-12T12:51:26.291Z</time></trkpt><trkpt lat="45.8291008" lon="10.0979584"><ele>211.4</ele><time>2026-04-12T12:51:27.29Z</time></trkpt><trkpt lat="45.8291831" lon="10.0978911"><ele>212.2</ele><time>2026-04-12T12:51:28.295Z</time></trkpt><trkpt lat="45.8292582" lon="10.0978283"><ele>213.0</ele><time>2026-04-12T12:51:29.299Z</time></trkpt><trkpt lat="45.829327" lon="10.0977694"><ele>213.60000000000002</ele><time>2026-04-12T12:51:30.291Z</time></trkpt><trkpt lat="45.8293934" lon="10.0977143"><ele>214.20000000000002</ele><time>2026-04-12T12:51:31.301Z</time></trkpt><trkpt lat="45.8294597" lon="10.0976572"><ele>214.8</ele><time>2026-04-12T12:51:32.294Z</time></trkpt><trkpt lat="45.8295242" lon="10.0975976"><ele>215.4</ele><time>2026-04-12T12:51:33.296Z</time></trkpt><trkpt lat="45.8295845" lon="10.0975389"><ele>216.0</ele><time>2026-04-12T12:51:34.291Z</time></trkpt><trkpt lat="45.8297052" lon="10.0973753"><ele>216.8</ele><time>2026-04-12T12:51:37.294Z</time></trkpt><trkpt lat="45.829765" lon="10.0972491"><ele>217.60000000000002</ele><time>2026-04-12T12:51:39.29Z</time></trkpt><trkpt lat="45.8297958" lon="10.0971642"><ele>218.4</ele><time>2026-04-12T12:51:40.297Z</time></trkpt><trkpt lat="45.8298306" lon="10.097056"><ele>219.2</ele><time>2026-04-12T12:51:41.295Z</time></trkpt><trkpt lat="45.829865" lon="10.0969133"><ele>220.0</ele><time>2026-04-12T12:51:42.296Z</time></trkpt><trkpt lat="45.8299042" lon="10.0967482"><ele>221.5</ele><time>2026-04-12T12:51:43.292Z</time></trkpt><trkpt lat="45.8299519" lon="10.0965844"><ele>223.0</ele><time>2026-04-12T12:51:44.295Z</time></trkpt><trkpt lat="45.8300075" lon="10.0964132"><ele>224.5</ele><time>2026-04-12T12:51:45.292Z</time></trkpt><trkpt lat="45.8300695" lon="10.0962401"><ele>226.0</ele><time>2026-04-12T12:51:46.303Z</time></trkpt><trkpt lat="45.8301325" lon="10.0960684"><ele>227.0</ele><time>2026-04-12T12:51:47.294Z</time></trkpt><trkpt lat="45.8301859" lon="10.0959037"><ele>228.00000000000003</ele><time>2026-04-12T12:51:48.294Z</time></trkpt><trkpt lat="45.8302248" lon="10.0957513"><ele>229.00000000000003</ele><time>2026-04-12T12:51:49.296Z</time></trkpt><trkpt lat="45.8302466" lon="10.0956046"><ele>230.0</ele><time>2026-04-12T12:51:50.298Z</time></trkpt><trkpt lat="45.830257" lon="10.0954663"><ele>231.0</ele><time>2026-04-12T12:51:51.3Z</time></trkpt><trkpt lat="45.830259" lon="10.0953426"><ele>232.4</ele><time>2026-04-12T12:51:52.3Z</time></trkpt><trkpt lat="45.8302482" lon="10.095225"><ele>233.8</ele><time>2026-04-12T12:51:53.3Z</time></trkpt><trkpt lat="45.8302353" lon="10.0951231"><ele>235.20000000000002</ele><time>2026-04-12T12:51:54.295Z</time></trkpt><trkpt lat="45.8302188" lon="10.094955"><ele>236.60000000000002</ele><time>2026-04-12T12:51:56.292Z</time></trkpt><trkpt lat="45.8302074" lon="10.094732"><ele>238.0</ele><time>2026-04-12T12:52:00.294Z</time></trkpt><trkpt lat="45.8301349" lon="10.0946206"><ele>239.49999999999997</ele><time>2026-04-12T12:52:02.296Z</time></trkpt><trkpt lat="45.8300779" lon="10.0945607"><ele>241.0</ele><time>2026-04-12T12:52:03.303Z</time></trkpt><trkpt lat="45.8300104" lon="10.094497"><ele>242.5</ele><time>2026-04-12T12:52:04.289Z</time></trkpt><trkpt lat="45.8299352" lon="10.0944278"><ele>244.0</ele><time>2026-04-12T12:52:05.293Z</time></trkpt><trkpt lat="45.8298703" lon="10.0943593"><ele>245.49999999999997</ele><time>2026-04-12T12:52:06.297Z</time></trkpt><trkpt lat="45.8298051" lon="10.0942918"><ele>247.0</ele><time>2026-04-12T12:52:07.298Z</time></trkpt><trkpt lat="45.8297332" lon="10.0942298"><ele>247.0</ele><time>2026-04-12T12:52:08.292Z</time></trkpt><trkpt lat="45.8296622" lon="10.0941665"><ele>247.0</ele><time>2026-04-12T12:52:09.298Z</time></trkpt><trkpt lat="45.8295935" lon="10.0941087"><ele>247.0</ele><time>2026-04-12T12:52:10.291Z</time></trkpt><trkpt lat="45.8295363" lon="10.0940556"><ele>247.0</ele><time>2026-04-12T12:52:11.301Z</time></trkpt><trkpt lat="45.8294448" lon="10.0939695"><ele>247.0</ele><time>2026-04-12T12:52:13.295Z</time></trkpt><trkpt lat="45.8293279" lon="10.0938833"><ele>247.5</ele><time>2026-04-12T12:52:15.293Z</time></trkpt><trkpt lat="45.8292535" lon="10.0938207"><ele>248.0</ele><time>2026-04-12T12:52:16.3Z</time></trkpt><trkpt lat="45.8291744" lon="10.0937371"><ele>248.5</ele><time>2026-04-12T12:52:17.296Z</time></trkpt><trkpt lat="45.8290153" lon="10.093542"><ele>249.0</ele><time>2026-04-12T12:52:19.293Z</time></trkpt><trkpt lat="45.8289276" lon="10.0934547"><ele>249.0</ele><time>2026-04-12T12:52:20.292Z</time></trkpt><trkpt lat="45.8288352" lon="10.0933843"><ele>248.99999999999997</ele><time>2026-04-12T12:52:21.305Z</time></trkpt><trkpt lat="45.8287383" lon="10.0933299"><ele>248.99999999999997</ele><time>2026-04-12T12:52:22.292Z</time></trkpt><trkpt lat="45.8286449" lon="10.0932867"><ele>249.0</ele><time>2026-04-12T12:52:23.297Z</time></trkpt><trkpt lat="45.8285559" lon="10.093246"><ele>249.0</ele><time>2026-04-12T12:52:24.3Z</time></trkpt><trkpt lat="45.8284743" lon="10.0931998"><ele>249.0</ele><time>2026-04-12T12:52:25.301Z</time></trkpt><trkpt lat="45.828393" lon="10.0931415"><ele>248.99999999999997</ele><time>2026-04-12T12:52:26.297Z</time></trkpt><trkpt lat="45.8283136" lon="10.0930668"><ele>248.99999999999997</ele><time>2026-04-12T12:52:27.295Z</time></trkpt><trkpt lat="45.8282375" lon="10.0929749"><ele>249.0</ele><time>2026-04-12T12:52:28.298Z</time></trkpt><trkpt lat="45.8281604" lon="10.0928673"><ele>249.0</ele><time>2026-04-12T12:52:29.297Z</time></trkpt><trkpt lat="45.8280821" lon="10.0927472"><ele>249.0</ele><time>2026-04-12T12:52:30.301Z</time></trkpt><trkpt lat="45.8280053" lon="10.0926213"><ele>248.99999999999997</ele><time>2026-04-12T12:52:31.3Z</time></trkpt><trkpt lat="45.8279349" lon="10.0925013"><ele>248.99999999999997</ele><time>2026-04-12T12:52:32.303Z</time></trkpt><trkpt lat="45.8278753" lon="10.0923921"><ele>249.0</ele><time>2026-04-12T12:52:33.294Z</time></trkpt><trkpt lat="45.8278286" lon="10.0922996"><ele>249.0</ele><time>2026-04-12T12:52:34.298Z</time></trkpt><trkpt lat="45.8277896" lon="10.0922266"><ele>249.0</ele><time>2026-04-12T12:52:35.295Z</time></trkpt><trkpt lat="45.8277392" lon="10.0921197"><ele>248.99999999999997</ele><time>2026-04-12T12:52:37.296Z</time></trkpt><trkpt lat="45.8276862" lon="10.0920182"><ele>248.99999999999997</ele><time>2026-04-12T12:52:40.292Z</time></trkpt><trkpt lat="45.8275793" lon="10.0918671"><ele>249.0</ele><time>2026-04-12T12:52:46.298Z</time></trkpt><trkpt lat="45.8275544" lon="10.0917798"><ele>249.0</ele><time>2026-04-12T12:53:02.297Z</time></trkpt><trkpt lat="45.8275083" lon="10.0915761"><ele>249.0</ele><time>2026-04-12T12:53:17.301Z</time></trkpt><trkpt lat="45.8274893" lon="10.0914799"><ele>249.0</ele><time>2026-04-12T12:53:18.302Z</time></trkpt><trkpt lat="45.8274769" lon="10.0913618"><ele>249.0</ele><time>2026-04-12T12:53:19.301Z</time></trkpt><trkpt lat="45.827469" lon="10.0912385"><ele>249.0</ele><time>2026-04-12T12:53:20.293Z</time></trkpt><trkpt lat="45.8274619" lon="10.0911162"><ele>249.0</ele><time>2026-04-12T12:53:21.303Z</time></trkpt><trkpt lat="45.8274538" lon="10.0909884"><ele>249.0</ele><time>2026-04-12T12:53:22.302Z</time></trkpt><trkpt lat="45.8274485" lon="10.0908595"><ele>252.66666666666669</ele><time>2026-04-12T12:53:23.3Z</time></trkpt><trkpt lat="45.8274424" lon="10.0907288"><ele>256.33333333333337</ele><time>2026-04-12T12:53:24.292Z</time></trkpt><trkpt lat="45.8273685" lon="10.0902881"><ele>260.0</ele><time>2026-04-12T12:53:27.298Z</time></trkpt><trkpt lat="45.8273271" lon="10.0901268"><ele>260.0</ele><time>2026-04-12T12:53:28.299Z</time></trkpt><trkpt lat="45.8272776" lon="10.0899738"><ele>260.0</ele><time>2026-04-12T12:53:29.303Z</time></trkpt><trkpt lat="45.8272236" lon="10.0898265"><ele>260.0</ele><time>2026-04-12T12:53:30.31Z</time></trkpt><trkpt lat="45.8271669" lon="10.0896819"><ele>260.0</ele><time>2026-04-12T12:53:31.308Z</time></trkpt><trkpt lat="45.827112" lon="10.0895424"><ele>264.5</ele><time>2026-04-12T12:53:32.304Z</time></trkpt><trkpt lat="45.8270569" lon="10.0894023"><ele>269.0</ele><time>2026-04-12T12:53:33.312Z</time></trkpt><trkpt lat="45.8270021" lon="10.0892591"><ele>273.5</ele><time>2026-04-12T12:53:34.309Z</time></trkpt><trkpt lat="45.8269486" lon="10.0891165"><ele>278.0</ele><time>2026-04-12T12:53:35.314Z</time></trkpt><trkpt lat="45.826895" lon="10.0889741"><ele>276.0</ele><time>2026-04-12T12:53:36.303Z</time></trkpt><trkpt lat="45.8268411" lon="10.0888306"><ele>274.0</ele><time>2026-04-12T12:53:37.302Z</time></trkpt><trkpt lat="45.8267879" lon="10.0886896"><ele>272.0</ele><time>2026-04-12T12:53:38.299Z</time></trkpt><trkpt lat="45.8267374" lon="10.0885536"><ele>270.0</ele><time>2026-04-12T12:53:39.305Z</time></trkpt><trkpt lat="45.8266914" lon="10.088427"><ele>268.0</ele><time>2026-04-12T12:53:40.307Z</time></trkpt><trkpt lat="45.8266489" lon="10.0883135"><ele>270.0</ele><time>2026-04-12T12:53:41.301Z</time></trkpt><trkpt lat="45.8266112" lon="10.0882085"><ele>272.0</ele><time>2026-04-12T12:53:42.315Z</time></trkpt><trkpt lat="45.8265755" lon="10.0881066"><ele>274.0</ele><time>2026-04-12T12:53:43.311Z</time></trkpt><trkpt lat="45.8265388" lon="10.088006"><ele>276.0</ele><time>2026-04-12T12:53:44.31Z</time></trkpt><trkpt lat="45.8265007" lon="10.0879023"><ele>278.0</ele><time>2026-04-12T12:53:45.316Z</time></trkpt><trkpt lat="45.8264221" lon="10.0876788"><ele>278.0</ele><time>2026-04-12T12:53:47.301Z</time></trkpt><trkpt lat="45.8263857" lon="10.0875617"><ele>278.0</ele><time>2026-04-12T12:53:48.295Z</time></trkpt><trkpt lat="45.8263615" lon="10.0874426"><ele>278.0</ele><time>2026-04-12T12:53:49.303Z</time></trkpt><trkpt lat="45.8263535" lon="10.087325"><ele>278.0</ele><time>2026-04-12T12:53:50.302Z</time></trkpt><trkpt lat="45.8263624" lon="10.0872107"><ele>278.0</ele><time>2026-04-12T12:53:51.307Z</time></trkpt><trkpt lat="45.8263884" lon="10.0871038"><ele>278.0</ele><time>2026-04-12T12:53:52.296Z</time></trkpt><trkpt lat="45.8264338" lon="10.0870083"><ele>278.5</ele><time>2026-04-12T12:53:53.301Z</time></trkpt><trkpt lat="45.8264862" lon="10.0869203"><ele>279.0</ele><time>2026-04-12T12:53:54.302Z</time></trkpt><trkpt lat="45.8265348" lon="10.0868295"><ele>279.5</ele><time>2026-04-12T12:53:55.308Z</time></trkpt><trkpt lat="45.8265774" lon="10.0867334"><ele>280.0</ele><time>2026-04-12T12:53:56.307Z</time></trkpt><trkpt lat="45.8266113" lon="10.0866337"><ele>280.5</ele><time>2026-04-12T12:53:57.303Z</time></trkpt><trkpt lat="45.8266345" lon="10.0865337"><ele>281.0</ele><time>2026-04-12T12:53:58.303Z</time></trkpt><trkpt lat="45.826655" lon="10.0863712"><ele>281.0</ele><time>2026-04-12T12:54:00.304Z</time></trkpt><trkpt lat="45.8266426" lon="10.0862398"><ele>281.0</ele><time>2026-04-12T12:54:02.313Z</time></trkpt><trkpt lat="45.8266002" lon="10.0863478"><ele>281.0</ele><time>2026-04-12T12:54:22.301Z</time></trkpt><trkpt lat="45.8265845" lon="10.0866707"><ele>281.0</ele><time>2026-04-12T12:54:24.315Z</time></trkpt><trkpt lat="45.8265301" lon="10.0868609"><ele>281.0</ele><time>2026-04-12T12:54:25.296Z</time></trkpt><trkpt lat="45.8264501" lon="10.0870406"><ele>281.0</ele><time>2026-04-12T12:54:26.307Z</time></trkpt><trkpt lat="45.8263824" lon="10.0872053"><ele>281.0</ele><time>2026-04-12T12:54:27.304Z</time></trkpt><trkpt lat="45.8263418" lon="10.0873684"><ele>281.0</ele><time>2026-04-12T12:54:28.297Z</time></trkpt><trkpt lat="45.8263276" lon="10.0875412"><ele>280.25</ele><time>2026-04-12T12:54:29.313Z</time></trkpt><trkpt lat="45.8263546" lon="10.0877008"><ele>279.5</ele><time>2026-04-12T12:54:30.296Z</time></trkpt><trkpt lat="45.8264212" lon="10.0878632"><ele>278.75</ele><time>2026-04-12T12:54:31.302Z</time></trkpt><trkpt lat="45.826499" lon="10.0880555"><ele>278.0</ele><time>2026-04-12T12:54:32.303Z</time></trkpt><trkpt lat="45.8265897" lon="10.0882665"><ele>274.6666666666667</ele><time>2026-04-12T12:54:33.302Z</time></trkpt><trkpt lat="45.8266869" lon="10.0884838"><ele>271.3333333333333</ele><time>2026-04-12T12:54:34.302Z</time></trkpt><trkpt lat="45.8267801" lon="10.0887038"><ele>268.0</ele><time>2026-04-12T12:54:35.316Z</time></trkpt><trkpt lat="45.8268617" lon="10.0889174"><ele>271.3333333333333</ele><time>2026-04-12T12:54:36.3Z</time></trkpt><trkpt lat="45.8269417" lon="10.0891239"><ele>274.6666666666667</ele><time>2026-04-12T12:54:37.31Z</time></trkpt><trkpt lat="45.8270176" lon="10.0893209"><ele>278.0</ele><time>2026-04-12T12:54:38.302Z</time></trkpt><trkpt lat="45.8270892" lon="10.0895119"><ele>278.0</ele><time>2026-04-12T12:54:39.319Z</time></trkpt><trkpt lat="45.8271591" lon="10.0897021"><ele>278.0</ele><time>2026-04-12T12:54:40.312Z</time></trkpt><trkpt lat="45.8272308" lon="10.0898899"><ele>278.0</ele><time>2026-04-12T12:54:41.306Z</time></trkpt><trkpt lat="45.8273002" lon="10.0900762"><ele>278.0</ele><time>2026-04-12T12:54:42.308Z</time></trkpt><trkpt lat="45.827362" lon="10.0902601"><ele>272.0</ele><time>2026-04-12T12:54:43.3Z</time></trkpt><trkpt lat="45.8274529" lon="10.0906178"><ele>266.0</ele><time>2026-04-12T12:54:45.303Z</time></trkpt><trkpt lat="45.8274836" lon="10.0907863"><ele>260.0</ele><time>2026-04-12T12:54:46.302Z</time></trkpt><trkpt lat="45.8274941" lon="10.0909435"><ele>257.8</ele><time>2026-04-12T12:54:47.314Z</time></trkpt><trkpt lat="45.8274974" lon="10.0910942"><ele>255.6</ele><time>2026-04-12T12:54:48.304Z</time></trkpt><trkpt lat="45.8274963" lon="10.0912246"><ele>253.39999999999998</ele><time>2026-04-12T12:54:49.299Z</time></trkpt><trkpt lat="45.8274874" lon="10.0913273"><ele>251.2</ele><time>2026-04-12T12:54:50.305Z</time></trkpt><trkpt lat="45.827437" lon="10.0914671"><ele>249.0</ele><time>2026-04-12T12:54:52.3Z</time></trkpt><trkpt lat="45.8273424" lon="10.0915192"><ele>249.0</ele><time>2026-04-12T12:54:54.295Z</time></trkpt><trkpt lat="45.8272264" lon="10.0914558"><ele>248.99999999999997</ele><time>2026-04-12T12:54:56.311Z</time></trkpt><trkpt lat="45.8271727" lon="10.0913788"><ele>248.99999999999997</ele><time>2026-04-12T12:54:57.309Z</time></trkpt><trkpt lat="45.8271156" lon="10.0912923"><ele>249.0</ele><time>2026-04-12T12:54:58.312Z</time></trkpt><trkpt lat="45.8270527" lon="10.0911857"><ele>249.0</ele><time>2026-04-12T12:54:59.317Z</time></trkpt><trkpt lat="45.8269883" lon="10.0910565"><ele>249.0</ele><time>2026-04-12T12:55:00.304Z</time></trkpt><trkpt lat="45.8269153" lon="10.0908894"><ele>249.0</ele><time>2026-04-12T12:55:01.304Z</time></trkpt><trkpt lat="45.8268398" lon="10.0906674"><ele>249.0</ele><time>2026-04-12T12:55:02.301Z</time></trkpt><trkpt lat="45.826767" lon="10.0904265"><ele>249.0</ele><time>2026-04-12T12:55:03.302Z</time></trkpt><trkpt lat="45.8266791" lon="10.0901766"><ele>249.0</ele><time>2026-04-12T12:55:04.303Z</time></trkpt><trkpt lat="45.8264783" lon="10.0896448"><ele>251.33333333333331</ele><time>2026-04-12T12:55:06.31Z</time></trkpt><trkpt lat="45.8263776" lon="10.0893801"><ele>253.66666666666666</ele><time>2026-04-12T12:55:07.309Z</time></trkpt><trkpt lat="45.8262781" lon="10.089127"><ele>256.0</ele><time>2026-04-12T12:55:08.308Z</time></trkpt><trkpt lat="45.8261884" lon="10.0888858"><ele>260.0</ele><time>2026-04-12T12:55:09.303Z</time></trkpt><trkpt lat="45.8261125" lon="10.0886536"><ele>264.0</ele><time>2026-04-12T12:55:10.315Z</time></trkpt><trkpt lat="45.8260527" lon="10.0884204"><ele>268.0</ele><time>2026-04-12T12:55:11.302Z</time></trkpt><trkpt lat="45.8260107" lon="10.088184"><ele>270.5</ele><time>2026-04-12T12:55:12.303Z</time></trkpt><trkpt lat="45.825979" lon="10.0879599"><ele>273.0</ele><time>2026-04-12T12:55:13.297Z</time></trkpt><trkpt lat="45.8259358" lon="10.0877544"><ele>275.5</ele><time>2026-04-12T12:55:14.304Z</time></trkpt><trkpt lat="45.825881" lon="10.0875867"><ele>278.0</ele><time>2026-04-12T12:55:15.304Z</time></trkpt><trkpt lat="45.8258001" lon="10.0874376"><ele>270.33333333333337</ele><time>2026-04-12T12:55:16.302Z</time></trkpt><trkpt lat="45.8256952" lon="10.0872911"><ele>262.6666666666667</ele><time>2026-04-12T12:55:17.302Z</time></trkpt><trkpt lat="45.8255833" lon="10.0871028"><ele>255.0</ele><time>2026-04-12T12:55:18.295Z</time></trkpt><trkpt lat="45.8254689" lon="10.0868958"><ele>255.0</ele><time>2026-04-12T12:55:19.295Z</time></trkpt><trkpt lat="45.825351" lon="10.0867097"><ele>255.0</ele><time>2026-04-12T12:55:20.291Z</time></trkpt><trkpt lat="45.8252193" lon="10.0865465"><ele>255.0</ele><time>2026-04-12T12:55:21.302Z</time></trkpt><trkpt lat="45.8250887" lon="10.0863945"><ele>248.66666666666669</ele><time>2026-04-12T12:55:22.297Z</time></trkpt><trkpt lat="45.824971" lon="10.0862215"><ele>242.33333333333334</ele><time>2026-04-12T12:55:23.293Z</time></trkpt><trkpt lat="45.8248525" lon="10.0860483"><ele>236.0</ele><time>2026-04-12T12:55:24.301Z</time></trkpt><trkpt lat="45.8247232" lon="10.085913"><ele>245.5</ele><time>2026-04-12T12:55:25.294Z</time></trkpt><trkpt lat="45.8244745" lon="10.0856564"><ele>255.0</ele><time>2026-04-12T12:55:27.291Z</time></trkpt><trkpt lat="45.824378" lon="10.0854957"><ele>245.33333333333331</ele><time>2026-04-12T12:55:28.299Z</time></trkpt><trkpt lat="45.8242957" lon="10.0853114"><ele>235.66666666666666</ele><time>2026-04-12T12:55:29.3Z</time></trkpt><trkpt lat="45.8242149" lon="10.0851248"><ele>226.0</ele><time>2026-04-12T12:55:30.292Z</time></trkpt><trkpt lat="45.8241282" lon="10.0849529"><ele>231.0</ele><time>2026-04-12T12:55:31.3Z</time></trkpt><trkpt lat="45.8240275" lon="10.084802"><ele>236.0</ele><time>2026-04-12T12:55:32.295Z</time></trkpt><trkpt lat="45.823907" lon="10.0846721"><ele>241.0</ele><time>2026-04-12T12:55:33.295Z</time></trkpt><trkpt lat="45.8237724" lon="10.0845666"><ele>241.0</ele><time>2026-04-12T12:55:34.297Z</time></trkpt><trkpt lat="45.8236337" lon="10.0844807"><ele>241.0</ele><time>2026-04-12T12:55:35.302Z</time></trkpt><trkpt lat="45.823504" lon="10.0843994"><ele>241.0</ele><time>2026-04-12T12:55:36.301Z</time></trkpt><trkpt lat="45.8233962" lon="10.0843042"><ele>241.0</ele><time>2026-04-12T12:55:37.297Z</time></trkpt><trkpt lat="45.8233086" lon="10.0841831"><ele>236.0</ele><time>2026-04-12T12:55:38.301Z</time></trkpt><trkpt lat="45.8232355" lon="10.084044"><ele>231.0</ele><time>2026-04-12T12:55:39.291Z</time></trkpt><trkpt lat="45.8231669" lon="10.0839077"><ele>226.0</ele><time>2026-04-12T12:55:40.293Z</time></trkpt><trkpt lat="45.82309" lon="10.0837908"><ele>221.0</ele><time>2026-04-12T12:55:41.304Z</time></trkpt><trkpt lat="45.8230039" lon="10.0837029"><ele>221.0</ele><time>2026-04-12T12:55:42.29Z</time></trkpt><trkpt lat="45.822912" lon="10.0836109"><ele>221.0</ele><time>2026-04-12T12:55:43.29Z</time></trkpt><trkpt lat="45.8228282" lon="10.0835004"><ele>221.0</ele><time>2026-04-12T12:55:44.299Z</time></trkpt><trkpt lat="45.8227577" lon="10.0833678"><ele>221.0</ele><time>2026-04-12T12:55:45.294Z</time></trkpt><trkpt lat="45.822695" lon="10.0832286"><ele>215.75</ele><time>2026-04-12T12:55:46.302Z</time></trkpt><trkpt lat="45.8226002" lon="10.0829328"><ele>210.5</ele><time>2026-04-12T12:55:48.298Z</time></trkpt><trkpt lat="45.8225838" lon="10.0827775"><ele>205.25</ele><time>2026-04-12T12:55:49.293Z</time></trkpt><trkpt lat="45.8225924" lon="10.0826241"><ele>200.0</ele><time>2026-04-12T12:55:50.292Z</time></trkpt><trkpt lat="45.8226276" lon="10.0824787"><ele>201.4</ele><time>2026-04-12T12:55:51.296Z</time></trkpt><trkpt lat="45.8226724" lon="10.0823475"><ele>202.8</ele><time>2026-04-12T12:55:52.294Z</time></trkpt><trkpt lat="45.8226964" lon="10.0822058"><ele>204.2</ele><time>2026-04-12T12:55:53.293Z</time></trkpt><trkpt lat="45.8226859" lon="10.0820512"><ele>205.6</ele><time>2026-04-12T12:55:54.293Z</time></trkpt><trkpt lat="45.8226417" lon="10.0818986"><ele>207.0</ele><time>2026-04-12T12:55:55.293Z</time></trkpt><trkpt lat="45.822577" lon="10.0817559"><ele>207.0</ele><time>2026-04-12T12:55:56.293Z</time></trkpt><trkpt lat="45.8225081" lon="10.0816231"><ele>207.0</ele><time>2026-04-12T12:55:57.297Z</time></trkpt><trkpt lat="45.8224475" lon="10.0814837"><ele>207.0</ele><time>2026-04-12T12:55:58.29Z</time></trkpt><trkpt lat="45.8223942" lon="10.0813324"><ele>207.0</ele><time>2026-04-12T12:55:59.303Z</time></trkpt><trkpt lat="45.822347" lon="10.0811713"><ele>210.25</ele><time>2026-04-12T12:56:00.289Z</time></trkpt><trkpt lat="45.8222984" lon="10.0810088"><ele>213.5</ele><time>2026-04-12T12:56:01.291Z</time></trkpt><trkpt lat="45.8222492" lon="10.0808551"><ele>216.75</ele><time>2026-04-12T12:56:02.299Z</time></trkpt><trkpt lat="45.8222007" lon="10.080711"><ele>220.0</ele><time>2026-04-12T12:56:03.296Z</time></trkpt><trkpt lat="45.8221507" lon="10.0805807"><ele>223.5</ele><time>2026-04-12T12:56:04.294Z</time></trkpt><trkpt lat="45.8220977" lon="10.0804628"><ele>227.0</ele><time>2026-04-12T12:56:05.295Z</time></trkpt><trkpt lat="45.8220445" lon="10.0803498"><ele>230.5</ele><time>2026-04-12T12:56:06.298Z</time></trkpt><trkpt lat="45.8219908" lon="10.0802371"><ele>234.0</ele><time>2026-04-12T12:56:07.291Z</time></trkpt><trkpt lat="45.8218845" lon="10.0800016"><ele>236.39999999999998</ele><time>2026-04-12T12:56:09.294Z</time></trkpt><trkpt lat="45.8218346" lon="10.0798843"><ele>238.79999999999998</ele><time>2026-04-12T12:56:10.299Z</time></trkpt><trkpt lat="45.821786" lon="10.0797669"><ele>241.20000000000002</ele><time>2026-04-12T12:56:11.292Z</time></trkpt><trkpt lat="45.8217387" lon="10.0796519"><ele>243.60000000000002</ele><time>2026-04-12T12:56:12.292Z</time></trkpt><trkpt lat="45.8216952" lon="10.0795391"><ele>246.0</ele><time>2026-04-12T12:56:13.298Z</time></trkpt><trkpt lat="45.8216526" lon="10.0794327"><ele>242.66666666666666</ele><time>2026-04-12T12:56:14.294Z</time></trkpt><trkpt lat="45.821608" lon="10.0793356"><ele>239.33333333333331</ele><time>2026-04-12T12:56:15.296Z</time></trkpt><trkpt lat="45.8215612" lon="10.0792474"><ele>236.0</ele><time>2026-04-12T12:56:16.297Z</time></trkpt><trkpt lat="45.8215135" lon="10.0791649"><ele>232.66666666666666</ele><time>2026-04-12T12:56:17.292Z</time></trkpt><trkpt lat="45.8214702" lon="10.0790783"><ele>229.33333333333331</ele><time>2026-04-12T12:56:18.3Z</time></trkpt><trkpt lat="45.8214291" lon="10.0789854"><ele>226.0</ele><time>2026-04-12T12:56:19.297Z</time></trkpt><trkpt lat="45.8213902" lon="10.0788881"><ele>225.99999999999997</ele><time>2026-04-12T12:56:20.292Z</time></trkpt><trkpt lat="45.8213508" lon="10.0787895"><ele>226.0</ele><time>2026-04-12T12:56:21.298Z</time></trkpt><trkpt lat="45.8213111" lon="10.0786908"><ele>226.0</ele><time>2026-04-12T12:56:22.296Z</time></trkpt><trkpt lat="45.8212713" lon="10.0785896"><ele>226.0</ele><time>2026-04-12T12:56:23.295Z</time></trkpt><trkpt lat="45.8212326" lon="10.0784896"><ele>225.99999999999997</ele><time>2026-04-12T12:56:24.295Z</time></trkpt><trkpt lat="45.821194" lon="10.0783925"><ele>226.0</ele><time>2026-04-12T12:56:25.29Z</time></trkpt><trkpt lat="45.8211534" lon="10.0782998"><ele>224.4</ele><time>2026-04-12T12:56:26.291Z</time></trkpt><trkpt lat="45.8211064" lon="10.0782165"><ele>222.8</ele><time>2026-04-12T12:56:27.297Z</time></trkpt><trkpt lat="45.8210544" lon="10.0781405"><ele>221.20000000000002</ele><time>2026-04-12T12:56:28.3Z</time></trkpt><trkpt lat="45.8209326" lon="10.0779887"><ele>219.60000000000002</ele><time>2026-04-12T12:56:30.298Z</time></trkpt><trkpt lat="45.8208681" lon="10.0779107"><ele>218.0</ele><time>2026-04-12T12:56:31.306Z</time></trkpt><trkpt lat="45.8208044" lon="10.0778365"><ele>218.00000000000003</ele><time>2026-04-12T12:56:32.302Z</time></trkpt><trkpt lat="45.8207409" lon="10.0777642"><ele>218.0</ele><time>2026-04-12T12:56:33.296Z</time></trkpt><trkpt lat="45.8206805" lon="10.0776945"><ele>218.0</ele><time>2026-04-12T12:56:34.297Z</time></trkpt><trkpt lat="45.8206228" lon="10.0776271"><ele>218.0</ele><time>2026-04-12T12:56:35.299Z</time></trkpt><trkpt lat="45.8205666" lon="10.0775616"><ele>218.00000000000003</ele><time>2026-04-12T12:56:36.297Z</time></trkpt><trkpt lat="45.8205111" lon="10.0774945"><ele>218.0</ele><time>2026-04-12T12:56:37.298Z</time></trkpt><trkpt lat="45.820454" lon="10.0774259"><ele>217.66666666666669</ele><time>2026-04-12T12:56:38.294Z</time></trkpt><trkpt lat="45.8203935" lon="10.0773566"><ele>217.33333333333334</ele><time>2026-04-12T12:56:39.298Z</time></trkpt><trkpt lat="45.8203298" lon="10.0772895"><ele>217.0</ele><time>2026-04-12T12:56:40.298Z</time></trkpt><trkpt lat="45.8202653" lon="10.0772171"><ele>216.66666666666669</ele><time>2026-04-12T12:56:41.295Z</time></trkpt><trkpt lat="45.8202006" lon="10.0771429"><ele>216.33333333333334</ele><time>2026-04-12T12:56:42.295Z</time></trkpt><trkpt lat="45.8201381" lon="10.0770678"><ele>216.0</ele><time>2026-04-12T12:56:43.291Z</time></trkpt><trkpt lat="45.8200768" lon="10.0769944"><ele>216.0</ele><time>2026-04-12T12:56:44.298Z</time></trkpt><trkpt lat="45.8200148" lon="10.0769284"><ele>216.0</ele><time>2026-04-12T12:56:45.292Z</time></trkpt><trkpt lat="45.8199562" lon="10.0768643"><ele>216.0</ele><time>2026-04-12T12:56:46.297Z</time></trkpt><trkpt lat="45.8199004" lon="10.0768082"><ele>216.0</ele><time>2026-04-12T12:56:47.295Z</time></trkpt><trkpt lat="45.8198472" lon="10.076753"><ele>216.0</ele><time>2026-04-12T12:56:48.298Z</time></trkpt><trkpt lat="45.8197495" lon="10.0766695"><ele>216.0</ele><time>2026-04-12T12:56:50.299Z</time></trkpt><trkpt lat="45.8195536" lon="10.0768204"><ele>216.0</ele><time>2026-04-12T12:56:54.295Z</time></trkpt><trkpt lat="45.8194978" lon="10.0769051"><ele>216.0</ele><time>2026-04-12T12:56:55.293Z</time></trkpt><trkpt lat="45.8194339" lon="10.0769951"><ele>216.0</ele><time>2026-04-12T12:56:56.299Z</time></trkpt><trkpt lat="45.8193694" lon="10.077078"><ele>216.0</ele><time>2026-04-12T12:56:57.292Z</time></trkpt><trkpt lat="45.8193044" lon="10.0771671"><ele>216.0</ele><time>2026-04-12T12:56:58.298Z</time></trkpt><trkpt lat="45.8192375" lon="10.0772584"><ele>216.0</ele><time>2026-04-12T12:56:59.293Z</time></trkpt><trkpt lat="45.8191708" lon="10.0773438"><ele>214.33333333333334</ele><time>2026-04-12T12:57:00.296Z</time></trkpt><trkpt lat="45.8191081" lon="10.077425"><ele>212.66666666666669</ele><time>2026-04-12T12:57:01.305Z</time></trkpt><trkpt lat="45.8190457" lon="10.0775032"><ele>211.0</ele><time>2026-04-12T12:57:02.296Z</time></trkpt><trkpt lat="45.8189873" lon="10.0775779"><ele>209.33333333333334</ele><time>2026-04-12T12:57:03.299Z</time></trkpt><trkpt lat="45.8189299" lon="10.0776564"><ele>207.66666666666669</ele><time>2026-04-12T12:57:04.305Z</time></trkpt><trkpt lat="45.8188768" lon="10.0777391"><ele>206.0</ele><time>2026-04-12T12:57:05.297Z</time></trkpt><trkpt lat="45.818816" lon="10.0778136"><ele>205.00000000000003</ele><time>2026-04-12T12:57:06.291Z</time></trkpt><trkpt lat="45.8187567" lon="10.0778866"><ele>204.0</ele><time>2026-04-12T12:57:07.292Z</time></trkpt><trkpt lat="45.8186995" lon="10.0779646"><ele>203.0</ele><time>2026-04-12T12:57:08.298Z</time></trkpt><trkpt lat="45.8186482" lon="10.0780311"><ele>202.0</ele><time>2026-04-12T12:57:09.291Z</time></trkpt><trkpt lat="45.8185951" lon="10.0780894"><ele>201.00000000000003</ele><time>2026-04-12T12:57:10.291Z</time></trkpt><trkpt lat="45.8185124" lon="10.0781591"><ele>200.0</ele><time>2026-04-12T12:57:12.301Z</time></trkpt><trkpt lat="45.8183798" lon="10.0780383"><ele>199.50000000000003</ele><time>2026-04-12T12:57:53.31Z</time></trkpt><trkpt lat="45.8183148" lon="10.0778741"><ele>199.0</ele><time>2026-04-12T12:57:55.297Z</time></trkpt><trkpt lat="45.8182798" lon="10.0777864"><ele>198.5</ele><time>2026-04-12T12:57:56.304Z</time></trkpt><trkpt lat="45.8182491" lon="10.0777013"><ele>198.0</ele><time>2026-04-12T12:57:57.312Z</time></trkpt><trkpt lat="45.818216" lon="10.0776158"><ele>197.50000000000003</ele><time>2026-04-12T12:57:58.304Z</time></trkpt><trkpt lat="45.8181797" lon="10.0775275"><ele>197.0</ele><time>2026-04-12T12:57:59.305Z</time></trkpt><trkpt lat="45.8181356" lon="10.0774346"><ele>197.00000000000003</ele><time>2026-04-12T12:58:00.31Z</time></trkpt><trkpt lat="45.8180878" lon="10.0773377"><ele>197.0</ele><time>2026-04-12T12:58:01.319Z</time></trkpt><trkpt lat="45.8180356" lon="10.077238"><ele>197.0</ele><time>2026-04-12T12:58:02.295Z</time></trkpt><trkpt lat="45.8179794" lon="10.0771413"><ele>197.0</ele><time>2026-04-12T12:58:03.296Z</time></trkpt><trkpt lat="45.8179232" lon="10.0770456"><ele>197.00000000000003</ele><time>2026-04-12T12:58:04.3Z</time></trkpt><trkpt lat="45.8178632" lon="10.0769537"><ele>197.0</ele><time>2026-04-12T12:58:05.31Z</time></trkpt><trkpt lat="45.817801" lon="10.0768684"><ele>197.00000000000003</ele><time>2026-04-12T12:58:06.317Z</time></trkpt><trkpt lat="45.8177381" lon="10.0767852"><ele>197.0</ele><time>2026-04-12T12:58:07.315Z</time></trkpt><trkpt lat="45.8176758" lon="10.0767024"><ele>197.0</ele><time>2026-04-12T12:58:08.302Z</time></trkpt><trkpt lat="45.8176148" lon="10.0766179"><ele>197.0</ele><time>2026-04-12T12:58:09.31Z</time></trkpt><trkpt lat="45.8175536" lon="10.0765452"><ele>197.00000000000003</ele><time>2026-04-12T12:58:10.297Z</time></trkpt><trkpt lat="45.8174948" lon="10.0764757"><ele>197.0</ele><time>2026-04-12T12:58:11.316Z</time></trkpt><trkpt lat="45.8174389" lon="10.0764124"><ele>197.0</ele><time>2026-04-12T12:58:12.303Z</time></trkpt><trkpt lat="45.8173858" lon="10.076357"><ele>197.0</ele><time>2026-04-12T12:58:13.309Z</time></trkpt><trkpt lat="45.8172983" lon="10.0762568"><ele>197.0</ele><time>2026-04-12T12:58:15.297Z</time></trkpt><trkpt lat="45.8171469" lon="10.0760509"><ele>197.0</ele><time>2026-04-12T12:58:19.302Z</time></trkpt><trkpt lat="45.8170648" lon="10.0759123"><ele>197.00000000000003</ele><time>2026-04-12T12:58:21.302Z</time></trkpt><trkpt lat="45.8170274" lon="10.0758376"><ele>197.0</ele><time>2026-04-12T12:58:22.303Z</time></trkpt><trkpt lat="45.8169687" lon="10.0756941"><ele>197.0</ele><time>2026-04-12T12:58:24.299Z</time></trkpt><trkpt lat="45.816921" lon="10.0756036"><ele>197.0</ele><time>2026-04-12T12:58:26.304Z</time></trkpt><trkpt lat="45.8168864" lon="10.0755274"><ele>197.00000000000003</ele><time>2026-04-12T12:58:30.303Z</time></trkpt><trkpt lat="45.8168318" lon="10.0754548"><ele>197.0</ele><time>2026-04-12T12:59:08.311Z</time></trkpt><trkpt lat="45.8167178" lon="10.0752455"><ele>197.16666666666669</ele><time>2026-04-12T12:59:11.295Z</time></trkpt><trkpt lat="45.8166755" lon="10.0751706"><ele>197.33333333333334</ele><time>2026-04-12T12:59:12.309Z</time></trkpt><trkpt lat="45.8166342" lon="10.075102"><ele>197.5</ele><time>2026-04-12T12:59:13.311Z</time></trkpt><trkpt lat="45.8165365" lon="10.0749856"><ele>197.66666666666669</ele><time>2026-04-12T12:59:15.3Z</time></trkpt><trkpt lat="45.8164754" lon="10.0749318"><ele>197.83333333333334</ele><time>2026-04-12T12:59:16.303Z</time></trkpt><trkpt lat="45.8164123" lon="10.0748853"><ele>198.0</ele><time>2026-04-12T12:59:17.303Z</time></trkpt><trkpt lat="45.8163105" lon="10.0748257"><ele>200.33333333333334</ele><time>2026-04-12T12:59:19.316Z</time></trkpt><trkpt lat="45.8162266" lon="10.074778"><ele>202.66666666666669</ele><time>2026-04-12T12:59:23.303Z</time></trkpt><trkpt lat="45.8161569" lon="10.0747252"><ele>205.0</ele><time>2026-04-12T12:59:25.297Z</time></trkpt><trkpt lat="45.8161012" lon="10.0746721"><ele>207.33333333333334</ele><time>2026-04-12T12:59:27.303Z</time></trkpt><trkpt lat="45.8160358" lon="10.0746098"><ele>209.66666666666669</ele><time>2026-04-12T12:59:30.295Z</time></trkpt><trkpt lat="45.8160182" lon="10.0746713"><ele>212.0</ele><time>2026-04-12T13:05:01.298Z</time></trkpt><trkpt lat="45.8161447" lon="10.0747116"><ele>212.0</ele><time>2026-04-12T13:05:25.329Z</time></trkpt></trkseg><trkseg><trkpt lat="45.8153422" lon="10.0740734"><ele>203.6</ele><time>2026-04-12T13:41:19.18Z</time></trkpt><trkpt lat="45.8154556" lon="10.074149"><ele>202.2</ele><time>2026-04-12T13:41:32.214Z</time></trkpt><trkpt lat="45.8155134" lon="10.0742073"><ele>200.8</ele><time>2026-04-12T13:41:43.197Z</time></trkpt><trkpt lat="45.8155929" lon="10.0743542"><ele>199.4</ele><time>2026-04-12T13:41:54.214Z</time></trkpt><trkpt lat="45.8156506" lon="10.074405"><ele>198.0</ele><time>2026-04-12T13:41:59.047Z</time></trkpt><trkpt lat="45.8157083" lon="10.074453"><ele>198.0</ele><time>2026-04-12T13:42:07.16Z</time></trkpt><trkpt lat="45.815814" lon="10.0745576"><ele>198.0</ele><time>2026-04-12T13:42:23.214Z</time></trkpt><trkpt lat="45.8158642" lon="10.0746177"><ele>198.0</ele><time>2026-04-12T13:42:30.161Z</time></trkpt><trkpt lat="45.8159146" lon="10.0745322"><ele>198.0</ele><time>2026-04-12T13:51:00.199Z</time></trkpt><trkpt lat="45.815834" lon="10.07438"><ele>198.0</ele><time>2026-04-12T13:51:06.204Z</time></trkpt><trkpt lat="45.8157901" lon="10.0743034"><ele>198.0</ele><time>2026-04-12T13:51:09.214Z</time></trkpt><trkpt lat="45.8157265" lon="10.0742332"><ele>198.0</ele><time>2026-04-12T13:51:12.203Z</time></trkpt><trkpt lat="45.8156673" lon="10.0741619"><ele>198.0</ele><time>2026-04-12T13:51:15.214Z</time></trkpt><trkpt lat="45.8156216" lon="10.0740864"><ele>198.0</ele><time>2026-04-12T13:51:18.202Z</time></trkpt><trkpt lat="45.8155652" lon="10.0740218"><ele>198.0</ele><time>2026-04-12T13:51:20.214Z</time></trkpt><trkpt lat="45.8154649" lon="10.0739194"><ele>198.0</ele><time>2026-04-12T13:51:22.218Z</time></trkpt><trkpt lat="45.8153468" lon="10.0737957"><ele>197.0</ele><time>2026-04-12T13:51:24.199Z</time></trkpt><trkpt lat="45.815286" lon="10.0737403"><ele>196.0</ele><time>2026-04-12T13:51:25.2Z</time></trkpt><trkpt lat="45.8152175" lon="10.0736896"><ele>195.0</ele><time>2026-04-12T13:51:26.21Z</time></trkpt><trkpt lat="45.8151398" lon="10.0736422"><ele>194.0</ele><time>2026-04-12T13:51:27.211Z</time></trkpt><trkpt lat="45.8150553" lon="10.0736069"><ele>193.0</ele><time>2026-04-12T13:51:28.212Z</time></trkpt><trkpt lat="45.8149731" lon="10.0735647"><ele>192.0</ele><time>2026-04-12T13:51:29.221Z</time></trkpt><trkpt lat="45.8148956" lon="10.0735156"><ele>192.0</ele><time>2026-04-12T13:51:30.215Z</time></trkpt><trkpt lat="45.8148261" lon="10.0734564"><ele>192.0</ele><time>2026-04-12T13:51:31.221Z</time></trkpt><trkpt lat="45.8147662" lon="10.0733808"><ele>192.0</ele><time>2026-04-12T13:51:32.213Z</time></trkpt><trkpt lat="45.8147166" lon="10.0732878"><ele>192.0</ele><time>2026-04-12T13:51:33.213Z</time></trkpt><trkpt lat="45.8146694" lon="10.0731869"><ele>192.0</ele><time>2026-04-12T13:51:34.211Z</time></trkpt><trkpt lat="45.8146231" lon="10.0730786"><ele>192.0</ele><time>2026-04-12T13:51:35.202Z</time></trkpt><trkpt lat="45.8145744" lon="10.0729687"><ele>192.6</ele><time>2026-04-12T13:51:36.212Z</time></trkpt><trkpt lat="45.814519" lon="10.0728582"><ele>193.2</ele><time>2026-04-12T13:51:37.207Z</time></trkpt><trkpt lat="45.8144573" lon="10.0727464"><ele>193.8</ele><time>2026-04-12T13:51:38.206Z</time></trkpt><trkpt lat="45.8143854" lon="10.0726396"><ele>194.4</ele><time>2026-04-12T13:51:39.213Z</time></trkpt><trkpt lat="45.8143046" lon="10.072547"><ele>195.0</ele><time>2026-04-12T13:51:40.213Z</time></trkpt><trkpt lat="45.8142243" lon="10.072454"><ele>196.33333333333331</ele><time>2026-04-12T13:51:41.213Z</time></trkpt><trkpt lat="45.8141253" lon="10.07238"><ele>197.66666666666666</ele><time>2026-04-12T13:51:42.217Z</time></trkpt><trkpt lat="45.8140161" lon="10.0723169"><ele>199.0</ele><time>2026-04-12T13:51:43.211Z</time></trkpt><trkpt lat="45.8137876" lon="10.0721951"><ele>199.0</ele><time>2026-04-12T13:51:45.211Z</time></trkpt><trkpt lat="45.8136702" lon="10.0721341"><ele>199.0</ele><time>2026-04-12T13:51:46.214Z</time></trkpt><trkpt lat="45.8135521" lon="10.0720696"><ele>199.0</ele><time>2026-04-12T13:51:47.205Z</time></trkpt><trkpt lat="45.813436" lon="10.0720043"><ele>199.0</ele><time>2026-04-12T13:51:48.22Z</time></trkpt><trkpt lat="45.8133227" lon="10.0719413"><ele>197.25</ele><time>2026-04-12T13:51:49.212Z</time></trkpt><trkpt lat="45.8132097" lon="10.0718741"><ele>195.5</ele><time>2026-04-12T13:51:50.208Z</time></trkpt><trkpt lat="45.8130982" lon="10.0718102"><ele>193.75</ele><time>2026-04-12T13:51:51.211Z</time></trkpt><trkpt lat="45.8129902" lon="10.0717492"><ele>192.0</ele><time>2026-04-12T13:51:52.213Z</time></trkpt><trkpt lat="45.8128857" lon="10.0716891"><ele>192.0</ele><time>2026-04-12T13:51:53.216Z</time></trkpt><trkpt lat="45.8127814" lon="10.0716319"><ele>192.0</ele><time>2026-04-12T13:51:54.208Z</time></trkpt><trkpt lat="45.8126813" lon="10.0715739"><ele>192.0</ele><time>2026-04-12T13:51:55.213Z</time></trkpt><trkpt lat="45.8125826" lon="10.0715136"><ele>192.0</ele><time>2026-04-12T13:51:56.212Z</time></trkpt><trkpt lat="45.8124841" lon="10.0714519"><ele>192.0</ele><time>2026-04-12T13:51:57.211Z</time></trkpt><trkpt lat="45.81239" lon="10.0713911"><ele>192.83333333333334</ele><time>2026-04-12T13:51:58.213Z</time></trkpt><trkpt lat="45.8123048" lon="10.0713264"><ele>193.66666666666669</ele><time>2026-04-12T13:51:59.211Z</time></trkpt><trkpt lat="45.8122319" lon="10.0712674"><ele>194.5</ele><time>2026-04-12T13:52:00.204Z</time></trkpt><trkpt lat="45.8121748" lon="10.0712102"><ele>195.33333333333334</ele><time>2026-04-12T13:52:01.208Z</time></trkpt><trkpt lat="45.8121102" lon="10.0711288"><ele>196.16666666666669</ele><time>2026-04-12T13:52:03.212Z</time></trkpt><trkpt lat="45.81205" lon="10.0710582"><ele>197.0</ele><time>2026-04-12T13:52:06.218Z</time></trkpt><trkpt lat="45.8118458" lon="10.0710193"><ele>195.0</ele><time>2026-04-12T13:52:09.208Z</time></trkpt><trkpt lat="45.8117338" lon="10.0709677"><ele>193.0</ele><time>2026-04-12T13:52:10.222Z</time></trkpt><trkpt lat="45.811625" lon="10.0709176"><ele>191.0</ele><time>2026-04-12T13:52:11.218Z</time></trkpt><trkpt lat="45.8115069" lon="10.0708628"><ele>189.0</ele><time>2026-04-12T13:52:12.21Z</time></trkpt><trkpt lat="45.8113828" lon="10.0708013"><ele>190.25</ele><time>2026-04-12T13:52:13.218Z</time></trkpt><trkpt lat="45.8112695" lon="10.0707418"><ele>191.5</ele><time>2026-04-12T13:52:14.215Z</time></trkpt><trkpt lat="45.8111614" lon="10.0706893"><ele>192.75</ele><time>2026-04-12T13:52:15.205Z</time></trkpt><trkpt lat="45.8110518" lon="10.0706344"><ele>194.0</ele><time>2026-04-12T13:52:16.212Z</time></trkpt><trkpt lat="45.810939" lon="10.0705767"><ele>194.0</ele><time>2026-04-12T13:52:17.223Z</time></trkpt><trkpt lat="45.8108223" lon="10.0705218"><ele>194.0</ele><time>2026-04-12T13:52:18.212Z</time></trkpt><trkpt lat="45.8107066" lon="10.0704712"><ele>194.0</ele><time>2026-04-12T13:52:19.212Z</time></trkpt><trkpt lat="45.8106001" lon="10.0704054"><ele>194.0</ele><time>2026-04-12T13:52:20.22Z</time></trkpt><trkpt lat="45.8105055" lon="10.0703194"><ele>194.0</ele><time>2026-04-12T13:52:21.209Z</time></trkpt><trkpt lat="45.8104344" lon="10.0702041"><ele>194.0</ele><time>2026-04-12T13:52:22.229Z</time></trkpt><trkpt lat="45.8103912" lon="10.0700671"><ele>194.0</ele><time>2026-04-12T13:52:23.216Z</time></trkpt><trkpt lat="45.8103727" lon="10.0698818"><ele>194.0</ele><time>2026-04-12T13:52:24.211Z</time></trkpt><trkpt lat="45.810371" lon="10.069716"><ele>196.33333333333334</ele><time>2026-04-12T13:52:25.219Z</time></trkpt><trkpt lat="45.8103582" lon="10.0695526"><ele>198.66666666666669</ele><time>2026-04-12T13:52:26.211Z</time></trkpt><trkpt lat="45.8103225" lon="10.0693948"><ele>201.0</ele><time>2026-04-12T13:52:27.225Z</time></trkpt><trkpt lat="45.8101901" lon="10.0690837"><ele>203.25</ele><time>2026-04-12T13:52:29.199Z</time></trkpt><trkpt lat="45.8101202" lon="10.0689335"><ele>205.5</ele><time>2026-04-12T13:52:30.213Z</time></trkpt><trkpt lat="45.8100461" lon="10.0687916"><ele>207.75</ele><time>2026-04-12T13:52:31.207Z</time></trkpt><trkpt lat="45.8099664" lon="10.0686671"><ele>210.0</ele><time>2026-04-12T13:52:32.226Z</time></trkpt><trkpt lat="45.8098808" lon="10.0685681"><ele>210.0</ele><time>2026-04-12T13:52:33.214Z</time></trkpt><trkpt lat="45.8097885" lon="10.0685004"><ele>210.0</ele><time>2026-04-12T13:52:34.211Z</time></trkpt><trkpt lat="45.809685" lon="10.0684584"><ele>210.0</ele><time>2026-04-12T13:52:35.216Z</time></trkpt><trkpt lat="45.8095691" lon="10.0684343"><ele>210.0</ele><time>2026-04-12T13:52:36.202Z</time></trkpt><trkpt lat="45.8094539" lon="10.0684187"><ele>210.0</ele><time>2026-04-12T13:52:37.223Z</time></trkpt><trkpt lat="45.8093411" lon="10.0683978"><ele>208.0</ele><time>2026-04-12T13:52:38.217Z</time></trkpt><trkpt lat="45.8092286" lon="10.068364"><ele>206.0</ele><time>2026-04-12T13:52:39.207Z</time></trkpt><trkpt lat="45.809122" lon="10.0683246"><ele>204.0</ele><time>2026-04-12T13:52:40.214Z</time></trkpt><trkpt lat="45.8090374" lon="10.0682787"><ele>202.0</ele><time>2026-04-12T13:52:41.216Z</time></trkpt><trkpt lat="45.8089541" lon="10.0682386"><ele>200.0</ele><time>2026-04-12T13:52:43.213Z</time></trkpt><trkpt lat="45.8088172" lon="10.0681742"><ele>204.0</ele><time>2026-04-12T13:52:51.212Z</time></trkpt><trkpt lat="45.8085978" lon="10.0681171"><ele>208.0</ele><time>2026-04-12T13:52:53.221Z</time></trkpt><trkpt lat="45.8084776" lon="10.0680848"><ele>212.0</ele><time>2026-04-12T13:52:54.21Z</time></trkpt><trkpt lat="45.8083527" lon="10.0680498"><ele>212.0</ele><time>2026-04-12T13:52:55.22Z</time></trkpt><trkpt lat="45.8082284" lon="10.0680179"><ele>212.0</ele><time>2026-04-12T13:52:56.22Z</time></trkpt><trkpt lat="45.8081012" lon="10.067985"><ele>212.0</ele><time>2026-04-12T13:52:57.211Z</time></trkpt><trkpt lat="45.8079691" lon="10.0679521"><ele>212.0</ele><time>2026-04-12T13:52:58.2Z</time></trkpt><trkpt lat="45.8078302" lon="10.0679185"><ele>212.0</ele><time>2026-04-12T13:52:59.218Z</time></trkpt><trkpt lat="45.8076875" lon="10.0678807"><ele>212.0</ele><time>2026-04-12T13:53:00.214Z</time></trkpt><trkpt lat="45.8075413" lon="10.0678384"><ele>212.0</ele><time>2026-04-12T13:53:01.217Z</time></trkpt><trkpt lat="45.8073928" lon="10.0677971"><ele>212.0</ele><time>2026-04-12T13:53:02.227Z</time></trkpt><trkpt lat="45.8072451" lon="10.0677572"><ele>209.75</ele><time>2026-04-12T13:53:03.203Z</time></trkpt><trkpt lat="45.8070995" lon="10.0677164"><ele>207.5</ele><time>2026-04-12T13:53:04.209Z</time></trkpt><trkpt lat="45.8069557" lon="10.0676749"><ele>205.25</ele><time>2026-04-12T13:53:05.223Z</time></trkpt><trkpt lat="45.8068099" lon="10.0676296"><ele>203.0</ele><time>2026-04-12T13:53:06.216Z</time></trkpt><trkpt lat="45.8066635" lon="10.0675866"><ele>201.0</ele><time>2026-04-12T13:53:07.209Z</time></trkpt><trkpt lat="45.8065138" lon="10.0675432"><ele>199.0</ele><time>2026-04-12T13:53:08.216Z</time></trkpt><trkpt lat="45.8063632" lon="10.0674982"><ele>197.0</ele><time>2026-04-12T13:53:09.221Z</time></trkpt><trkpt lat="45.8062139" lon="10.0674532"><ele>197.66666666666669</ele><time>2026-04-12T13:53:10.218Z</time></trkpt><trkpt lat="45.8060649" lon="10.0674101"><ele>198.33333333333331</ele><time>2026-04-12T13:53:11.214Z</time></trkpt><trkpt lat="45.805918" lon="10.0673642"><ele>199.0</ele><time>2026-04-12T13:53:12.221Z</time></trkpt><trkpt lat="45.8056332" lon="10.0672813"><ele>199.0</ele><time>2026-04-12T13:53:14.215Z</time></trkpt><trkpt lat="45.8054984" lon="10.067247"><ele>199.0</ele><time>2026-04-12T13:53:15.215Z</time></trkpt><trkpt lat="45.8053626" lon="10.0672168"><ele>199.0</ele><time>2026-04-12T13:53:16.206Z</time></trkpt><trkpt lat="45.8052277" lon="10.0671978"><ele>199.0</ele><time>2026-04-12T13:53:17.211Z</time></trkpt><trkpt lat="45.8050915" lon="10.0672007"><ele>198.25</ele><time>2026-04-12T13:53:18.215Z</time></trkpt><trkpt lat="45.8049605" lon="10.0672336"><ele>197.5</ele><time>2026-04-12T13:53:19.214Z</time></trkpt><trkpt lat="45.8048282" lon="10.0672784"><ele>196.75</ele><time>2026-04-12T13:53:20.224Z</time></trkpt><trkpt lat="45.8046883" lon="10.0672978"><ele>196.0</ele><time>2026-04-12T13:53:21.203Z</time></trkpt><trkpt lat="45.8045585" lon="10.0673125"><ele>196.0</ele><time>2026-04-12T13:53:22.217Z</time></trkpt><trkpt lat="45.8044316" lon="10.0673265"><ele>196.0</ele><time>2026-04-12T13:53:23.207Z</time></trkpt><trkpt lat="45.8043079" lon="10.0673487"><ele>196.0</ele><time>2026-04-12T13:53:24.222Z</time></trkpt><trkpt lat="45.8041748" lon="10.0673628"><ele>196.0</ele><time>2026-04-12T13:53:25.219Z</time></trkpt><trkpt lat="45.8040397" lon="10.0673818"><ele>195.75</ele><time>2026-04-12T13:53:26.216Z</time></trkpt><trkpt lat="45.8039011" lon="10.0673985"><ele>195.5</ele><time>2026-04-12T13:53:27.213Z</time></trkpt><trkpt lat="45.8037631" lon="10.0674191"><ele>195.25</ele><time>2026-04-12T13:53:28.219Z</time></trkpt><trkpt lat="45.8036283" lon="10.0674486"><ele>195.0</ele><time>2026-04-12T13:53:29.215Z</time></trkpt><trkpt lat="45.803497" lon="10.067484"><ele>194.0</ele><time>2026-04-12T13:53:30.211Z</time></trkpt><trkpt lat="45.8033701" lon="10.0675263"><ele>193.0</ele><time>2026-04-12T13:53:31.213Z</time></trkpt><trkpt lat="45.8032476" lon="10.0675712"><ele>192.0</ele><time>2026-04-12T13:53:32.218Z</time></trkpt><trkpt lat="45.8031296" lon="10.067616"><ele>191.0</ele><time>2026-04-12T13:53:33.213Z</time></trkpt><trkpt lat="45.8029045" lon="10.0676986"><ele>191.0</ele><time>2026-04-12T13:53:35.219Z</time></trkpt><trkpt lat="45.8027994" lon="10.0677383"><ele>191.0</ele><time>2026-04-12T13:53:36.219Z</time></trkpt><trkpt lat="45.8027014" lon="10.0677726"><ele>191.0</ele><time>2026-04-12T13:53:37.215Z</time></trkpt><trkpt lat="45.8026131" lon="10.0678021"><ele>191.0</ele><time>2026-04-12T13:53:38.208Z</time></trkpt><trkpt lat="45.8025391" lon="10.067826"><ele>191.0</ele><time>2026-04-12T13:53:39.215Z</time></trkpt><trkpt lat="45.8024686" lon="10.0678299"><ele>191.0</ele><time>2026-04-12T13:53:40.214Z</time></trkpt><trkpt lat="45.8023956" lon="10.067798"><ele>191.0</ele><time>2026-04-12T13:53:41.208Z</time></trkpt><trkpt lat="45.802336" lon="10.0677387"><ele>191.0</ele><time>2026-04-12T13:53:42.21Z</time></trkpt><trkpt lat="45.8022959" lon="10.0676403"><ele>191.0</ele><time>2026-04-12T13:53:43.223Z</time></trkpt><trkpt lat="45.8022705" lon="10.0675118"><ele>191.0</ele><time>2026-04-12T13:53:44.216Z</time></trkpt><trkpt lat="45.8022542" lon="10.0673554"><ele>191.0</ele><time>2026-04-12T13:53:45.23Z</time></trkpt><trkpt lat="45.8022478" lon="10.0671997"><ele>191.0</ele><time>2026-04-12T13:53:46.222Z</time></trkpt><trkpt lat="45.8022613" lon="10.06704"><ele>191.0</ele><time>2026-04-12T13:53:47.223Z</time></trkpt><trkpt lat="45.8022874" lon="10.0668784"><ele>191.0</ele><time>2026-04-12T13:53:48.214Z</time></trkpt><trkpt lat="45.8023252" lon="10.0667194"><ele>191.0</ele><time>2026-04-12T13:53:49.215Z</time></trkpt><trkpt lat="45.8023637" lon="10.0665635"><ele>191.4</ele><time>2026-04-12T13:53:50.22Z</time></trkpt><trkpt lat="45.8023981" lon="10.0664039"><ele>191.8</ele><time>2026-04-12T13:53:51.214Z</time></trkpt><trkpt lat="45.8024207" lon="10.0662454"><ele>192.20000000000002</ele><time>2026-04-12T13:53:52.217Z</time></trkpt><trkpt lat="45.8024308" lon="10.066091"><ele>192.60000000000002</ele><time>2026-04-12T13:53:53.219Z</time></trkpt><trkpt lat="45.8024343" lon="10.0659392"><ele>193.0</ele><time>2026-04-12T13:53:54.214Z</time></trkpt><trkpt lat="45.8024203" lon="10.0656367"><ele>193.5</ele><time>2026-04-12T13:53:56.223Z</time></trkpt><trkpt lat="45.8023934" lon="10.065494"><ele>194.0</ele><time>2026-04-12T13:53:57.217Z</time></trkpt><trkpt lat="45.8023467" lon="10.0653381"><ele>194.5</ele><time>2026-04-12T13:53:58.213Z</time></trkpt><trkpt lat="45.8022887" lon="10.0651899"><ele>195.0</ele><time>2026-04-12T13:53:59.215Z</time></trkpt><trkpt lat="45.8022273" lon="10.0650328"><ele>195.5</ele><time>2026-04-12T13:54:00.211Z</time></trkpt><trkpt lat="45.8021709" lon="10.064871"><ele>196.0</ele><time>2026-04-12T13:54:01.216Z</time></trkpt><trkpt lat="45.8021371" lon="10.0646999"><ele>196.5</ele><time>2026-04-12T13:54:02.227Z</time></trkpt><trkpt lat="45.8021214" lon="10.0645126"><ele>197.0</ele><time>2026-04-12T13:54:03.212Z</time></trkpt><trkpt lat="45.8021088" lon="10.0643214"><ele>197.0</ele><time>2026-04-12T13:54:04.202Z</time></trkpt><trkpt lat="45.802106" lon="10.0641202"><ele>197.0</ele><time>2026-04-12T13:54:05.209Z</time></trkpt><trkpt lat="45.8021118" lon="10.063927"><ele>197.0</ele><time>2026-04-12T13:54:06.21Z</time></trkpt><trkpt lat="45.8021187" lon="10.0637334"><ele>197.0</ele><time>2026-04-12T13:54:07.211Z</time></trkpt><trkpt lat="45.8021168" lon="10.0635439"><ele>197.25</ele><time>2026-04-12T13:54:08.223Z</time></trkpt><trkpt lat="45.8021025" lon="10.0633514"><ele>197.5</ele><time>2026-04-12T13:54:09.218Z</time></trkpt><trkpt lat="45.8020747" lon="10.063163"><ele>197.75</ele><time>2026-04-12T13:54:10.22Z</time></trkpt><trkpt lat="45.8020351" lon="10.0629809"><ele>198.0</ele><time>2026-04-12T13:54:11.218Z</time></trkpt><trkpt lat="45.8019897" lon="10.0627994"><ele>198.5</ele><time>2026-04-12T13:54:12.2Z</time></trkpt><trkpt lat="45.8019361" lon="10.0626274"><ele>199.0</ele><time>2026-04-12T13:54:13.216Z</time></trkpt><trkpt lat="45.8018756" lon="10.0624669"><ele>199.5</ele><time>2026-04-12T13:54:14.21Z</time></trkpt><trkpt lat="45.801814" lon="10.0623094"><ele>200.0</ele><time>2026-04-12T13:54:15.223Z</time></trkpt><trkpt lat="45.8017383" lon="10.0619829"><ele>200.0</ele><time>2026-04-12T13:54:17.216Z</time></trkpt><trkpt lat="45.8017281" lon="10.0618109"><ele>200.0</ele><time>2026-04-12T13:54:18.216Z</time></trkpt><trkpt lat="45.8017387" lon="10.0616324"><ele>200.0</ele><time>2026-04-12T13:54:19.215Z</time></trkpt><trkpt lat="45.8017693" lon="10.0614665"><ele>200.0</ele><time>2026-04-12T13:54:20.213Z</time></trkpt><trkpt lat="45.8018151" lon="10.061305"><ele>204.8</ele><time>2026-04-12T13:54:21.201Z</time></trkpt><trkpt lat="45.8018671" lon="10.0611465"><ele>209.6</ele><time>2026-04-12T13:54:22.207Z</time></trkpt><trkpt lat="45.8019256" lon="10.0610052"><ele>214.39999999999998</ele><time>2026-04-12T13:54:23.212Z</time></trkpt><trkpt lat="45.8019857" lon="10.0608724"><ele>219.2</ele><time>2026-04-12T13:54:24.218Z</time></trkpt><trkpt lat="45.8020269" lon="10.060744"><ele>224.0</ele><time>2026-04-12T13:54:25.206Z</time></trkpt><trkpt lat="45.8020476" lon="10.0606235"><ele>225.83333333333334</ele><time>2026-04-12T13:54:26.201Z</time></trkpt><trkpt lat="45.8020416" lon="10.0605183"><ele>227.66666666666669</ele><time>2026-04-12T13:54:27.201Z</time></trkpt><trkpt lat="45.8020114" lon="10.0604147"><ele>229.5</ele><time>2026-04-12T13:54:28.21Z</time></trkpt><trkpt lat="45.8019894" lon="10.0603038"><ele>231.33333333333331</ele><time>2026-04-12T13:54:29.213Z</time></trkpt><trkpt lat="45.8019767" lon="10.0601836"><ele>233.16666666666666</ele><time>2026-04-12T13:54:30.216Z</time></trkpt><trkpt lat="45.8019851" lon="10.0600684"><ele>235.0</ele><time>2026-04-12T13:54:31.202Z</time></trkpt><trkpt lat="45.8019962" lon="10.0599485"><ele>240.8</ele><time>2026-04-12T13:54:32.197Z</time></trkpt><trkpt lat="45.8020135" lon="10.0598288"><ele>246.6</ele><time>2026-04-12T13:54:33.204Z</time></trkpt><trkpt lat="45.8020355" lon="10.0597148"><ele>252.39999999999998</ele><time>2026-04-12T13:54:34.209Z</time></trkpt><trkpt lat="45.8020568" lon="10.059586"><ele>258.2</ele><time>2026-04-12T13:54:35.206Z</time></trkpt><trkpt lat="45.8020719" lon="10.0594648"><ele>264.0</ele><time>2026-04-12T13:54:36.207Z</time></trkpt><trkpt lat="45.8021021" lon="10.0592022"><ele>270.59999999999997</ele><time>2026-04-12T13:54:38.199Z</time></trkpt><trkpt lat="45.8021142" lon="10.0590654"><ele>277.2</ele><time>2026-04-12T13:54:39.206Z</time></trkpt><trkpt lat="45.8021218" lon="10.0589187"><ele>283.79999999999995</ele><time>2026-04-12T13:54:40.193Z</time></trkpt><trkpt lat="45.8021233" lon="10.0587691"><ele>290.4</ele><time>2026-04-12T13:54:41.189Z</time></trkpt><trkpt lat="45.8021173" lon="10.0586145"><ele>297.0</ele><time>2026-04-12T13:54:42.192Z</time></trkpt><trkpt lat="45.8021032" lon="10.058458"><ele>297.0</ele><time>2026-04-12T13:54:43.189Z</time></trkpt><trkpt lat="45.8020778" lon="10.058298"><ele>297.0</ele><time>2026-04-12T13:54:44.198Z</time></trkpt><trkpt lat="45.8020447" lon="10.0581396"><ele>297.0</ele><time>2026-04-12T13:54:45.196Z</time></trkpt><trkpt lat="45.802002" lon="10.0579865"><ele>297.0</ele><time>2026-04-12T13:54:46.186Z</time></trkpt><trkpt lat="45.8019505" lon="10.0578448"><ele>308.3333333333333</ele><time>2026-04-12T13:54:47.188Z</time></trkpt><trkpt lat="45.8018925" lon="10.0577249"><ele>319.66666666666663</ele><time>2026-04-12T13:54:48.189Z</time></trkpt><trkpt lat="45.8018286" lon="10.0576472"><ele>331.0</ele><time>2026-04-12T13:54:49.194Z</time></trkpt><trkpt lat="45.8015855" lon="10.0572424"><ele>341.75</ele><time>2026-04-12T13:54:52.203Z</time></trkpt><trkpt lat="45.8014861" lon="10.0570592"><ele>352.5</ele><time>2026-04-12T13:54:53.201Z</time></trkpt><trkpt lat="45.8014101" lon="10.0569339"><ele>363.25</ele><time>2026-04-12T13:54:54.197Z</time></trkpt><trkpt lat="45.8013181" lon="10.0568171"><ele>374.0</ele><time>2026-04-12T13:54:55.195Z</time></trkpt><trkpt lat="45.801227" lon="10.0567382"><ele>374.0</ele><time>2026-04-12T13:54:56.189Z</time></trkpt><trkpt lat="45.8011297" lon="10.0566899"><ele>374.0</ele><time>2026-04-12T13:54:57.197Z</time></trkpt><trkpt lat="45.8009187" lon="10.0565968"><ele>374.0</ele><time>2026-04-12T13:54:59.197Z</time></trkpt><trkpt lat="45.800814" lon="10.0565533"><ele>374.0</ele><time>2026-04-12T13:55:00.212Z</time></trkpt><trkpt lat="45.8007007" lon="10.0565276"><ele>378.6</ele><time>2026-04-12T13:55:01.206Z</time></trkpt><trkpt lat="45.8005859" lon="10.0565189"><ele>383.2</ele><time>2026-04-12T13:55:02.208Z</time></trkpt><trkpt lat="45.8004756" lon="10.0565213"><ele>387.8</ele><time>2026-04-12T13:55:03.2Z</time></trkpt><trkpt lat="45.8003687" lon="10.0565205"><ele>392.40000000000003</ele><time>2026-04-12T13:55:04.204Z</time></trkpt><trkpt lat="45.8002718" lon="10.056509"><ele>397.0</ele><time>2026-04-12T13:55:05.207Z</time></trkpt><trkpt lat="45.8001768" lon="10.0564944"><ele>396.40000000000003</ele><time>2026-04-12T13:55:06.198Z</time></trkpt><trkpt lat="45.8000818" lon="10.0564945"><ele>395.8</ele><time>2026-04-12T13:55:07.206Z</time></trkpt><trkpt lat="45.7999872" lon="10.0565171"><ele>395.2</ele><time>2026-04-12T13:55:08.205Z</time></trkpt><trkpt lat="45.7998909" lon="10.0565705"><ele>394.6</ele><time>2026-04-12T13:55:09.214Z</time></trkpt><trkpt lat="45.7997911" lon="10.0566422"><ele>394.0</ele><time>2026-04-12T13:55:10.199Z</time></trkpt><trkpt lat="45.7996876" lon="10.0567234"><ele>394.0</ele><time>2026-04-12T13:55:11.206Z</time></trkpt><trkpt lat="45.7995821" lon="10.0568062"><ele>394.0</ele><time>2026-04-12T13:55:12.202Z</time></trkpt><trkpt lat="45.7994705" lon="10.0568847"><ele>394.0</ele><time>2026-04-12T13:55:13.204Z</time></trkpt><trkpt lat="45.7993698" lon="10.0569627"><ele>394.0</ele><time>2026-04-12T13:55:14.207Z</time></trkpt><trkpt lat="45.7992732" lon="10.057054"><ele>402.25</ele><time>2026-04-12T13:55:15.199Z</time></trkpt><trkpt lat="45.7991734" lon="10.0571271"><ele>410.5</ele><time>2026-04-12T13:55:16.207Z</time></trkpt><trkpt lat="45.7990724" lon="10.0571983"><ele>418.75</ele><time>2026-04-12T13:55:17.197Z</time></trkpt><trkpt lat="45.7989709" lon="10.0572744"><ele>427.0</ele><time>2026-04-12T13:55:18.206Z</time></trkpt><trkpt lat="45.7987702" lon="10.0574276"><ele>414.8</ele><time>2026-04-12T13:55:20.209Z</time></trkpt><trkpt lat="45.7986683" lon="10.0574986"><ele>402.6</ele><time>2026-04-12T13:55:21.205Z</time></trkpt><trkpt lat="45.7985664" lon="10.0575743"><ele>390.40000000000003</ele><time>2026-04-12T13:55:22.197Z</time></trkpt><trkpt lat="45.7984554" lon="10.0576535"><ele>378.20000000000005</ele><time>2026-04-12T13:55:23.207Z</time></trkpt><trkpt lat="45.798371" lon="10.057689"><ele>366.0</ele><time>2026-04-12T13:55:24.198Z</time></trkpt><trkpt lat="45.7982829" lon="10.0577023"><ele>366.0</ele><time>2026-04-12T13:55:25.202Z</time></trkpt><trkpt lat="45.7981812" lon="10.0577342"><ele>366.0</ele><time>2026-04-12T13:55:26.201Z</time></trkpt><trkpt lat="45.7980873" lon="10.0577502"><ele>366.0</ele><time>2026-04-12T13:55:27.198Z</time></trkpt><trkpt lat="45.7980007" lon="10.0577673"><ele>366.0</ele><time>2026-04-12T13:55:28.207Z</time></trkpt><trkpt lat="45.7979268" lon="10.057784"><ele>366.0</ele><time>2026-04-12T13:55:29.205Z</time></trkpt><trkpt lat="45.7978299" lon="10.0578158"><ele>366.0</ele><time>2026-04-12T13:55:31.207Z</time></trkpt><trkpt lat="45.7977608" lon="10.0578917"><ele>366.0</ele><time>2026-04-12T13:55:34.214Z</time></trkpt><trkpt lat="45.7977238" lon="10.0580039"><ele>366.0</ele><time>2026-04-12T13:55:37.207Z</time></trkpt><trkpt lat="45.7976704" lon="10.0581202"><ele>366.0</ele><time>2026-04-12T13:55:39.197Z</time></trkpt><trkpt lat="45.7975282" lon="10.0582456"><ele>366.0</ele><time>2026-04-12T13:55:41.201Z</time></trkpt><trkpt lat="45.7974346" lon="10.0583267"><ele>350.40000000000003</ele><time>2026-04-12T13:55:42.204Z</time></trkpt><trkpt lat="45.7973427" lon="10.0584527"><ele>334.8</ele><time>2026-04-12T13:55:43.21Z</time></trkpt><trkpt lat="45.7972537" lon="10.0585565"><ele>319.20000000000005</ele><time>2026-04-12T13:55:44.201Z</time></trkpt><trkpt lat="45.7971991" lon="10.0586593"><ele>303.6</ele><time>2026-04-12T13:55:45.208Z</time></trkpt><trkpt lat="45.7971555" lon="10.0587624"><ele>288.0</ele><time>2026-04-12T13:55:46.2Z</time></trkpt><trkpt lat="45.7970697" lon="10.0588118"><ele>288.0</ele><time>2026-04-12T13:55:48.201Z</time></trkpt><trkpt lat="45.7969425" lon="10.0587642"><ele>288.0</ele><time>2026-04-12T13:55:50.21Z</time></trkpt><trkpt lat="45.796851" lon="10.0587391"><ele>288.0</ele><time>2026-04-12T13:55:51.209Z</time></trkpt><trkpt lat="45.7967484" lon="10.0587143"><ele>288.0</ele><time>2026-04-12T13:55:52.204Z</time></trkpt><trkpt lat="45.7966298" lon="10.0586855"><ele>288.0</ele><time>2026-04-12T13:55:53.199Z</time></trkpt><trkpt lat="45.7965037" lon="10.0586582"><ele>281.8</ele><time>2026-04-12T13:55:54.211Z</time></trkpt><trkpt lat="45.7963973" lon="10.0586363"><ele>275.6</ele><time>2026-04-12T13:55:55.208Z</time></trkpt><trkpt lat="45.7962912" lon="10.0585998"><ele>269.4</ele><time>2026-04-12T13:55:56.22Z</time></trkpt><trkpt lat="45.7961835" lon="10.0585719"><ele>263.2</ele><time>2026-04-12T13:55:57.198Z</time></trkpt><trkpt lat="45.7960737" lon="10.0585673"><ele>257.0</ele><time>2026-04-12T13:55:58.208Z</time></trkpt><trkpt lat="45.7959627" lon="10.0585696"><ele>250.5</ele><time>2026-04-12T13:55:59.199Z</time></trkpt><trkpt lat="45.7958587" lon="10.0585451"><ele>244.0</ele><time>2026-04-12T13:56:00.201Z</time></trkpt><trkpt lat="45.795658" lon="10.0584323"><ele>237.5</ele><time>2026-04-12T13:56:02.211Z</time></trkpt><trkpt lat="45.7955777" lon="10.0583534"><ele>231.0</ele><time>2026-04-12T13:56:03.219Z</time></trkpt><trkpt lat="45.7954919" lon="10.058313"><ele>231.0</ele><time>2026-04-12T13:56:04.213Z</time></trkpt><trkpt lat="45.7953975" lon="10.0583084"><ele>231.00000000000003</ele><time>2026-04-12T13:56:05.212Z</time></trkpt><trkpt lat="45.7953002" lon="10.058323"><ele>231.00000000000003</ele><time>2026-04-12T13:56:06.21Z</time></trkpt><trkpt lat="45.7952011" lon="10.0583586"><ele>231.0</ele><time>2026-04-12T13:56:07.204Z</time></trkpt><trkpt lat="45.7951014" lon="10.0584311"><ele>231.0</ele><time>2026-04-12T13:56:08.212Z</time></trkpt><trkpt lat="45.7950005" lon="10.0585068"><ele>227.5</ele><time>2026-04-12T13:56:09.209Z</time></trkpt><trkpt lat="45.7948746" lon="10.0585846"><ele>224.0</ele><time>2026-04-12T13:56:10.207Z</time></trkpt><trkpt lat="45.7947631" lon="10.058626"><ele>220.5</ele><time>2026-04-12T13:56:11.209Z</time></trkpt><trkpt lat="45.7946451" lon="10.058652"><ele>217.0</ele><time>2026-04-12T13:56:12.211Z</time></trkpt><trkpt lat="45.7945413" lon="10.0586574"><ele>217.0</ele><time>2026-04-12T13:56:13.207Z</time></trkpt><trkpt lat="45.7944574" lon="10.058632"><ele>217.0</ele><time>2026-04-12T13:56:14.209Z</time></trkpt><trkpt lat="45.7943782" lon="10.0585552"><ele>217.0</ele><time>2026-04-12T13:56:15.199Z</time></trkpt><trkpt lat="45.7943178" lon="10.0584336"><ele>217.0</ele><time>2026-04-12T13:56:16.211Z</time></trkpt><trkpt lat="45.7942546" lon="10.0582964"><ele>217.0</ele><time>2026-04-12T13:56:17.198Z</time></trkpt><trkpt lat="45.7941769" lon="10.0581322"><ele>217.0</ele><time>2026-04-12T13:56:18.202Z</time></trkpt><trkpt lat="45.7941005" lon="10.0579775"><ele>217.0</ele><time>2026-04-12T13:56:19.213Z</time></trkpt><trkpt lat="45.7940173" lon="10.0578"><ele>217.0</ele><time>2026-04-12T13:56:20.21Z</time></trkpt><trkpt lat="45.7939273" lon="10.0576069"><ele>217.0</ele><time>2026-04-12T13:56:21.21Z</time></trkpt><trkpt lat="45.7937397" lon="10.0572202"><ele>222.5</ele><time>2026-04-12T13:56:23.215Z</time></trkpt><trkpt lat="45.7936465" lon="10.0570497"><ele>228.0</ele><time>2026-04-12T13:56:24.213Z</time></trkpt><trkpt lat="45.7935452" lon="10.0569003"><ele>233.5</ele><time>2026-04-12T13:56:25.213Z</time></trkpt><trkpt lat="45.7934446" lon="10.0567647"><ele>239.0</ele><time>2026-04-12T13:56:26.218Z</time></trkpt><trkpt lat="45.7933488" lon="10.0566365"><ele>233.25</ele><time>2026-04-12T13:56:27.213Z</time></trkpt><trkpt lat="45.7932599" lon="10.0565062"><ele>227.5</ele><time>2026-04-12T13:56:28.216Z</time></trkpt><trkpt lat="45.7931698" lon="10.0563715"><ele>221.75</ele><time>2026-04-12T13:56:29.212Z</time></trkpt><trkpt lat="45.7930783" lon="10.0562459"><ele>216.0</ele><time>2026-04-12T13:56:30.217Z</time></trkpt><trkpt lat="45.7929889" lon="10.0561162"><ele>216.0</ele><time>2026-04-12T13:56:31.22Z</time></trkpt><trkpt lat="45.7928948" lon="10.0559843"><ele>216.0</ele><time>2026-04-12T13:56:32.214Z</time></trkpt><trkpt lat="45.7927942" lon="10.0558592"><ele>216.0</ele><time>2026-04-12T13:56:33.217Z</time></trkpt><trkpt lat="45.79269" lon="10.055759"><ele>216.0</ele><time>2026-04-12T13:56:34.21Z</time></trkpt><trkpt lat="45.7925796" lon="10.0556911"><ele>218.5</ele><time>2026-04-12T13:56:35.2Z</time></trkpt><trkpt lat="45.7924578" lon="10.0556529"><ele>221.0</ele><time>2026-04-12T13:56:36.201Z</time></trkpt><trkpt lat="45.7923168" lon="10.0556417"><ele>223.5</ele><time>2026-04-12T13:56:37.201Z</time></trkpt><trkpt lat="45.7921648" lon="10.0556511"><ele>226.0</ele><time>2026-04-12T13:56:38.212Z</time></trkpt><trkpt lat="45.7920088" lon="10.0556697"><ele>226.0</ele><time>2026-04-12T13:56:39.207Z</time></trkpt><trkpt lat="45.7918529" lon="10.0556867"><ele>226.0</ele><time>2026-04-12T13:56:40.205Z</time></trkpt><trkpt lat="45.7916978" lon="10.0556918"><ele>226.0</ele><time>2026-04-12T13:56:41.222Z</time></trkpt><trkpt lat="45.7915373" lon="10.0556902"><ele>219.5</ele><time>2026-04-12T13:56:42.216Z</time></trkpt><trkpt lat="45.7912226" lon="10.0556288"><ele>213.0</ele><time>2026-04-12T13:56:44.211Z</time></trkpt><trkpt lat="45.7910716" lon="10.0555649"><ele>209.66666666666669</ele><time>2026-04-12T13:56:45.2Z</time></trkpt><trkpt lat="45.7909234" lon="10.0554834"><ele>206.33333333333334</ele><time>2026-04-12T13:56:46.213Z</time></trkpt><trkpt lat="45.7907799" lon="10.0553974"><ele>203.0</ele><time>2026-04-12T13:56:47.218Z</time></trkpt><trkpt lat="45.7906385" lon="10.055303"><ele>203.0</ele><time>2026-04-12T13:56:48.218Z</time></trkpt><trkpt lat="45.7904944" lon="10.0552139"><ele>203.0</ele><time>2026-04-12T13:56:49.214Z</time></trkpt><trkpt lat="45.7903457" lon="10.0551388"><ele>203.0</ele><time>2026-04-12T13:56:50.211Z</time></trkpt><trkpt lat="45.7902031" lon="10.055081"><ele>200.66666666666669</ele><time>2026-04-12T13:56:51.217Z</time></trkpt><trkpt lat="45.790067" lon="10.0549997"><ele>198.33333333333331</ele><time>2026-04-12T13:56:52.22Z</time></trkpt><trkpt lat="45.7899416" lon="10.0548947"><ele>196.0</ele><time>2026-04-12T13:56:53.222Z</time></trkpt><trkpt lat="45.7898179" lon="10.0547534"><ele>208.66666666666666</ele><time>2026-04-12T13:56:54.211Z</time></trkpt><trkpt lat="45.7896815" lon="10.0545875"><ele>221.33333333333331</ele><time>2026-04-12T13:56:55.211Z</time></trkpt><trkpt lat="45.7895367" lon="10.0544356"><ele>234.0</ele><time>2026-04-12T13:56:56.206Z</time></trkpt><trkpt lat="45.7893618" lon="10.0543184"><ele>243.0</ele><time>2026-04-12T13:56:57.218Z</time></trkpt><trkpt lat="45.7891685" lon="10.0542371"><ele>252.0</ele><time>2026-04-12T13:56:58.202Z</time></trkpt><trkpt lat="45.7889786" lon="10.0541713"><ele>261.0</ele><time>2026-04-12T13:56:59.208Z</time></trkpt><trkpt lat="45.7888052" lon="10.0541091"><ele>261.0</ele><time>2026-04-12T13:57:00.201Z</time></trkpt><trkpt lat="45.7886418" lon="10.0540229"><ele>261.0</ele><time>2026-04-12T13:57:01.208Z</time></trkpt><trkpt lat="45.788474" lon="10.053907"><ele>261.0</ele><time>2026-04-12T13:57:02.208Z</time></trkpt><trkpt lat="45.7883148" lon="10.0537865"><ele>249.66666666666669</ele><time>2026-04-12T13:57:03.212Z</time></trkpt><trkpt lat="45.7880546" lon="10.0535593"><ele>238.33333333333334</ele><time>2026-04-12T13:57:05.214Z</time></trkpt><trkpt lat="45.7879334" lon="10.0534497"><ele>227.0</ele><time>2026-04-12T13:57:06.221Z</time></trkpt><trkpt lat="45.787819" lon="10.0533461"><ele>234.25</ele><time>2026-04-12T13:57:07.21Z</time></trkpt><trkpt lat="45.787704" lon="10.0532742"><ele>241.5</ele><time>2026-04-12T13:57:08.21Z</time></trkpt><trkpt lat="45.7875787" lon="10.053246"><ele>248.75</ele><time>2026-04-12T13:57:09.201Z</time></trkpt><trkpt lat="45.7874386" lon="10.0532592"><ele>256.0</ele><time>2026-04-12T13:57:10.197Z</time></trkpt><trkpt lat="45.7873033" lon="10.0532785"><ele>256.0</ele><time>2026-04-12T13:57:11.206Z</time></trkpt><trkpt lat="45.7871693" lon="10.0532762"><ele>256.0</ele><time>2026-04-12T13:57:12.201Z</time></trkpt><trkpt lat="45.7870409" lon="10.0532688"><ele>256.0</ele><time>2026-04-12T13:57:13.208Z</time></trkpt><trkpt lat="45.7869149" lon="10.0532694"><ele>256.0</ele><time>2026-04-12T13:57:14.195Z</time></trkpt><trkpt lat="45.786784" lon="10.0532577"><ele>251.25</ele><time>2026-04-12T13:57:15.198Z</time></trkpt><trkpt lat="45.7866573" lon="10.053235"><ele>246.5</ele><time>2026-04-12T13:57:16.198Z</time></trkpt><trkpt lat="45.7865261" lon="10.0531787"><ele>241.75</ele><time>2026-04-12T13:57:17.202Z</time></trkpt><trkpt lat="45.7863945" lon="10.0530909"><ele>237.0</ele><time>2026-04-12T13:57:18.2Z</time></trkpt><trkpt lat="45.7862652" lon="10.0529944"><ele>237.0</ele><time>2026-04-12T13:57:19.196Z</time></trkpt><trkpt lat="45.7861386" lon="10.0529037"><ele>237.0</ele><time>2026-04-12T13:57:20.197Z</time></trkpt><trkpt lat="45.7860063" lon="10.0528445"><ele>237.0</ele><time>2026-04-12T13:57:21.197Z</time></trkpt><trkpt lat="45.7858703" lon="10.0528209"><ele>237.0</ele><time>2026-04-12T13:57:22.199Z</time></trkpt><trkpt lat="45.7857419" lon="10.0528322"><ele>236.66666666666669</ele><time>2026-04-12T13:57:23.197Z</time></trkpt><trkpt lat="45.7856289" lon="10.0528785"><ele>236.33333333333334</ele><time>2026-04-12T13:57:24.202Z</time></trkpt><trkpt lat="45.785436" lon="10.0530481"><ele>236.0</ele><time>2026-04-12T13:57:26.195Z</time></trkpt><trkpt lat="45.7853276" lon="10.0531425"><ele>236.0</ele><time>2026-04-12T13:57:27.195Z</time></trkpt><trkpt lat="45.7852033" lon="10.0532154"><ele>236.0</ele><time>2026-04-12T13:57:28.206Z</time></trkpt><trkpt lat="45.7850711" lon="10.0532806"><ele>236.0</ele><time>2026-04-12T13:57:29.198Z</time></trkpt><trkpt lat="45.7849415" lon="10.05334"><ele>236.0</ele><time>2026-04-12T13:57:30.203Z</time></trkpt><trkpt lat="45.7848296" lon="10.0533891"><ele>232.4</ele><time>2026-04-12T13:57:31.204Z</time></trkpt><trkpt lat="45.7847343" lon="10.0534041"><ele>228.8</ele><time>2026-04-12T13:57:32.198Z</time></trkpt><trkpt lat="45.7846634" lon="10.0533897"><ele>225.20000000000002</ele><time>2026-04-12T13:57:33.194Z</time></trkpt><trkpt lat="45.7845597" lon="10.0533082"><ele>221.60000000000002</ele><time>2026-04-12T13:57:35.202Z</time></trkpt><trkpt lat="45.7844457" lon="10.0533557"><ele>218.0</ele><time>2026-04-12T13:57:37.204Z</time></trkpt><trkpt lat="45.7843762" lon="10.0534736"><ele>225.5</ele><time>2026-04-12T13:57:38.199Z</time></trkpt><trkpt lat="45.7842969" lon="10.0536059"><ele>233.0</ele><time>2026-04-12T13:57:39.195Z</time></trkpt><trkpt lat="45.7842038" lon="10.0537532"><ele>240.5</ele><time>2026-04-12T13:57:40.194Z</time></trkpt><trkpt lat="45.7841164" lon="10.0538985"><ele>248.0</ele><time>2026-04-12T13:57:41.201Z</time></trkpt><trkpt lat="45.7840407" lon="10.0540524"><ele>240.25</ele><time>2026-04-12T13:57:42.203Z</time></trkpt><trkpt lat="45.7839646" lon="10.054199"><ele>232.5</ele><time>2026-04-12T13:57:43.197Z</time></trkpt><trkpt lat="45.7838892" lon="10.0543457"><ele>224.75</ele><time>2026-04-12T13:57:44.195Z</time></trkpt><trkpt lat="45.7838102" lon="10.0544964"><ele>217.0</ele><time>2026-04-12T13:57:45.2Z</time></trkpt><trkpt lat="45.7836504" lon="10.0547834"><ele>217.0</ele><time>2026-04-12T13:57:47.199Z</time></trkpt><trkpt lat="45.7835691" lon="10.054899"><ele>217.0</ele><time>2026-04-12T13:57:48.202Z</time></trkpt><trkpt lat="45.7834767" lon="10.0549943"><ele>217.0</ele><time>2026-04-12T13:57:49.202Z</time></trkpt><trkpt lat="45.7833752" lon="10.0550624"><ele>217.0</ele><time>2026-04-12T13:57:50.203Z</time></trkpt><trkpt lat="45.7832646" lon="10.0550995"><ele>217.0</ele><time>2026-04-12T13:57:51.204Z</time></trkpt><trkpt lat="45.7831554" lon="10.0551019"><ele>217.0</ele><time>2026-04-12T13:57:52.201Z</time></trkpt><trkpt lat="45.783044" lon="10.0550698"><ele>217.0</ele><time>2026-04-12T13:57:53.204Z</time></trkpt><trkpt lat="45.7829401" lon="10.0549957"><ele>217.0</ele><time>2026-04-12T13:57:54.205Z</time></trkpt><trkpt lat="45.7828556" lon="10.0548966"><ele>217.0</ele><time>2026-04-12T13:57:55.199Z</time></trkpt><trkpt lat="45.7828083" lon="10.0547714"><ele>217.0</ele><time>2026-04-12T13:57:56.215Z</time></trkpt><trkpt lat="45.7828047" lon="10.0546318"><ele>217.0</ele><time>2026-04-12T13:57:57.207Z</time></trkpt><trkpt lat="45.7828199" lon="10.0544933"><ele>217.0</ele><time>2026-04-12T13:57:58.203Z</time></trkpt><trkpt lat="45.7828399" lon="10.0543549"><ele>217.0</ele><time>2026-04-12T13:57:59.202Z</time></trkpt><trkpt lat="45.782878" lon="10.0542234"><ele>217.0</ele><time>2026-04-12T13:58:00.209Z</time></trkpt><trkpt lat="45.7829238" lon="10.0540956"><ele>222.39999999999998</ele><time>2026-04-12T13:58:01.207Z</time></trkpt><trkpt lat="45.7829548" lon="10.0539653"><ele>227.79999999999998</ele><time>2026-04-12T13:58:02.201Z</time></trkpt><trkpt lat="45.7829575" lon="10.0538339"><ele>233.2</ele><time>2026-04-12T13:58:03.209Z</time></trkpt><trkpt lat="45.7829253" lon="10.0537099"><ele>238.6</ele><time>2026-04-12T13:58:04.206Z</time></trkpt><trkpt lat="45.7828559" lon="10.0535957"><ele>244.0</ele><time>2026-04-12T13:58:05.204Z</time></trkpt><trkpt lat="45.7827622" lon="10.0534963"><ele>233.25</ele><time>2026-04-12T13:58:06.201Z</time></trkpt><trkpt lat="45.7825806" lon="10.0533166"><ele>222.5</ele><time>2026-04-12T13:58:08.217Z</time></trkpt><trkpt lat="45.782526" lon="10.0532194"><ele>211.75</ele><time>2026-04-12T13:58:09.204Z</time></trkpt><trkpt lat="45.7824919" lon="10.0531076"><ele>201.0</ele><time>2026-04-12T13:58:10.203Z</time></trkpt><trkpt lat="45.782455" lon="10.0529808"><ele>196.25</ele><time>2026-04-12T13:58:11.193Z</time></trkpt><trkpt lat="45.7823984" lon="10.0528406"><ele>191.5</ele><time>2026-04-12T13:58:12.199Z</time></trkpt><trkpt lat="45.7823392" lon="10.0526999"><ele>186.75</ele><time>2026-04-12T13:58:13.203Z</time></trkpt><trkpt lat="45.7822845" lon="10.0525385"><ele>182.0</ele><time>2026-04-12T13:58:14.197Z</time></trkpt><trkpt lat="45.7822341" lon="10.0523712"><ele>182.0</ele><time>2026-04-12T13:58:15.204Z</time></trkpt><trkpt lat="45.7821941" lon="10.0522038"><ele>182.0</ele><time>2026-04-12T13:58:16.198Z</time></trkpt><trkpt lat="45.7821704" lon="10.0520314"><ele>182.0</ele><time>2026-04-12T13:58:17.201Z</time></trkpt><trkpt lat="45.7821578" lon="10.0518763"><ele>182.0</ele><time>2026-04-12T13:58:18.207Z</time></trkpt><trkpt lat="45.7821616" lon="10.0517463"><ele>182.0</ele><time>2026-04-12T13:58:19.202Z</time></trkpt><trkpt lat="45.7821883" lon="10.0516403"><ele>182.0</ele><time>2026-04-12T13:58:20.199Z</time></trkpt><trkpt lat="45.7822409" lon="10.0515533"><ele>182.0</ele><time>2026-04-12T13:58:21.198Z</time></trkpt><trkpt lat="45.782305" lon="10.0514755"><ele>182.0</ele><time>2026-04-12T13:58:22.197Z</time></trkpt><trkpt lat="45.7823657" lon="10.0513907"><ele>182.0</ele><time>2026-04-12T13:58:23.202Z</time></trkpt><trkpt lat="45.7824176" lon="10.0513001"><ele>182.0</ele><time>2026-04-12T13:58:24.201Z</time></trkpt><trkpt lat="45.7824538" lon="10.051208"><ele>182.0</ele><time>2026-04-12T13:58:25.199Z</time></trkpt><trkpt lat="45.7824416" lon="10.0510427"><ele>185.8</ele><time>2026-04-12T13:58:27.195Z</time></trkpt><trkpt lat="45.7823616" lon="10.0508102"><ele>189.6</ele><time>2026-04-12T13:58:29.2Z</time></trkpt><trkpt lat="45.7823529" lon="10.0506835"><ele>193.4</ele><time>2026-04-12T13:58:30.205Z</time></trkpt><trkpt lat="45.7823701" lon="10.0505708"><ele>197.20000000000002</ele><time>2026-04-12T13:58:31.199Z</time></trkpt><trkpt lat="45.7824238" lon="10.0504728"><ele>201.0</ele><time>2026-04-12T13:58:32.2Z</time></trkpt><trkpt lat="45.7824911" lon="10.0503691"><ele>201.0</ele><time>2026-04-12T13:58:33.198Z</time></trkpt><trkpt lat="45.7825565" lon="10.0502548"><ele>201.0</ele><time>2026-04-12T13:58:34.203Z</time></trkpt><trkpt lat="45.7826128" lon="10.0501229"><ele>201.0</ele><time>2026-04-12T13:58:35.197Z</time></trkpt><trkpt lat="45.7826546" lon="10.0499881"><ele>201.0</ele><time>2026-04-12T13:58:36.2Z</time></trkpt><trkpt lat="45.7826916" lon="10.0498528"><ele>201.0</ele><time>2026-04-12T13:58:37.2Z</time></trkpt><trkpt lat="45.7827287" lon="10.049723"><ele>201.0</ele><time>2026-04-12T13:58:38.197Z</time></trkpt><trkpt lat="45.782765" lon="10.0495981"><ele>201.0</ele><time>2026-04-12T13:58:39.2Z</time></trkpt><trkpt lat="45.7828048" lon="10.0494914"><ele>201.0</ele><time>2026-04-12T13:58:40.203Z</time></trkpt><trkpt lat="45.7828533" lon="10.0493919"><ele>201.0</ele><time>2026-04-12T13:58:41.199Z</time></trkpt><trkpt lat="45.7829038" lon="10.0492903"><ele>201.0</ele><time>2026-04-12T13:58:42.193Z</time></trkpt><trkpt lat="45.7829501" lon="10.0491932"><ele>201.0</ele><time>2026-04-12T13:58:43.194Z</time></trkpt><trkpt lat="45.7829881" lon="10.0490962"><ele>201.0</ele><time>2026-04-12T13:58:44.197Z</time></trkpt><trkpt lat="45.7830112" lon="10.0490017"><ele>201.0</ele><time>2026-04-12T13:58:45.194Z</time></trkpt><trkpt lat="45.7830063" lon="10.0489048"><ele>201.0</ele><time>2026-04-12T13:58:46.195Z</time></trkpt><trkpt lat="45.7829768" lon="10.048807"><ele>201.0</ele><time>2026-04-12T13:58:47.201Z</time></trkpt><trkpt lat="45.7829338" lon="10.0487193"><ele>201.0</ele><time>2026-04-12T13:58:48.201Z</time></trkpt><trkpt lat="45.7828467" lon="10.04849"><ele>208.0</ele><time>2026-04-12T13:58:51.197Z</time></trkpt><trkpt lat="45.7828237" lon="10.048334"><ele>215.0</ele><time>2026-04-12T13:58:53.196Z</time></trkpt><trkpt lat="45.782792" lon="10.0481862"><ele>222.0</ele><time>2026-04-12T13:58:55.192Z</time></trkpt><trkpt lat="45.7786852" lon="10.0477345"><ele>222.0</ele><time>2026-04-12T13:59:26.195Z</time></trkpt><trkpt lat="45.7785373" lon="10.0476552"><ele>222.0</ele><time>2026-04-12T13:59:28.196Z</time></trkpt><trkpt lat="45.7784564" lon="10.0475329"><ele>222.0</ele><time>2026-04-12T13:59:29.2Z</time></trkpt><trkpt lat="45.7784311" lon="10.0474319"><ele>222.0</ele><time>2026-04-12T13:59:30.2Z</time></trkpt><trkpt lat="45.7783974" lon="10.0473388"><ele>222.0</ele><time>2026-04-12T13:59:31.203Z</time></trkpt><trkpt lat="45.778356" lon="10.0472354"><ele>219.16666666666666</ele><time>2026-04-12T13:59:32.201Z</time></trkpt><trkpt lat="45.7783162" lon="10.0471427"><ele>216.33333333333331</ele><time>2026-04-12T13:59:33.197Z</time></trkpt><trkpt lat="45.7782769" lon="10.0470599"><ele>213.5</ele><time>2026-04-12T13:59:34.2Z</time></trkpt><trkpt lat="45.7782329" lon="10.0469833"><ele>210.66666666666666</ele><time>2026-04-12T13:59:35.207Z</time></trkpt><trkpt lat="45.7781917" lon="10.0469078"><ele>207.83333333333331</ele><time>2026-04-12T13:59:36.202Z</time></trkpt><trkpt lat="45.7781526" lon="10.0468359"><ele>205.0</ele><time>2026-04-12T13:59:37.198Z</time></trkpt><trkpt lat="45.7780734" lon="10.0467026"><ele>203.4</ele><time>2026-04-12T13:59:39.204Z</time></trkpt><trkpt lat="45.7780012" lon="10.0465817"><ele>201.8</ele><time>2026-04-12T13:59:41.2Z</time></trkpt><trkpt lat="45.7779311" lon="10.0464728"><ele>200.2</ele><time>2026-04-12T13:59:43.194Z</time></trkpt><trkpt lat="45.7778654" lon="10.0463641"><ele>198.6</ele><time>2026-04-12T13:59:45.2Z</time></trkpt><trkpt lat="45.7777969" lon="10.0462666"><ele>197.0</ele><time>2026-04-12T13:59:47.205Z</time></trkpt><trkpt lat="45.7776709" lon="10.0461083"><ele>197.0</ele><time>2026-04-12T13:59:51.199Z</time></trkpt><trkpt lat="45.7775892" lon="10.0460161"><ele>197.0</ele><time>2026-04-12T13:59:53.201Z</time></trkpt><trkpt lat="45.7774953" lon="10.0459126"><ele>197.0</ele><time>2026-04-12T13:59:55.194Z</time></trkpt><trkpt lat="45.7774037" lon="10.0458225"><ele>197.0</ele><time>2026-04-12T13:59:57.202Z</time></trkpt><trkpt lat="45.7773106" lon="10.0457482"><ele>197.0</ele><time>2026-04-12T13:59:59.2Z</time></trkpt><trkpt lat="45.7772109" lon="10.0456566"><ele>197.2</ele><time>2026-04-12T14:00:01.205Z</time></trkpt><trkpt lat="45.7771011" lon="10.0455663"><ele>197.39999999999998</ele><time>2026-04-12T14:00:03.199Z</time></trkpt><trkpt lat="45.7770391" lon="10.0455145"><ele>197.60000000000002</ele><time>2026-04-12T14:00:04.197Z</time></trkpt><trkpt lat="45.7769711" lon="10.0454547"><ele>197.8</ele><time>2026-04-12T14:00:05.194Z</time></trkpt><trkpt lat="45.7768878" lon="10.0453883"><ele>198.0</ele><time>2026-04-12T14:00:06.198Z</time></trkpt><trkpt lat="45.7767945" lon="10.0453177"><ele>198.0</ele><time>2026-04-12T14:00:07.197Z</time></trkpt><trkpt lat="45.7767024" lon="10.0452426"><ele>198.0</ele><time>2026-04-12T14:00:08.199Z</time></trkpt><trkpt lat="45.7765204" lon="10.0450598"><ele>198.0</ele><time>2026-04-12T14:00:10.206Z</time></trkpt><trkpt lat="45.7764299" lon="10.0449581"><ele>198.0</ele><time>2026-04-12T14:00:11.209Z</time></trkpt><trkpt lat="45.7763404" lon="10.0448447"><ele>198.75</ele><time>2026-04-12T14:00:12.201Z</time></trkpt><trkpt lat="45.7762486" lon="10.0447234"><ele>199.5</ele><time>2026-04-12T14:00:13.209Z</time></trkpt><trkpt lat="45.7761606" lon="10.0445952"><ele>200.25</ele><time>2026-04-12T14:00:14.207Z</time></trkpt><trkpt lat="45.776074" lon="10.0444646"><ele>201.0</ele><time>2026-04-12T14:00:15.216Z</time></trkpt><trkpt lat="45.7759927" lon="10.0443296"><ele>201.0</ele><time>2026-04-12T14:00:16.215Z</time></trkpt><trkpt lat="45.7759175" lon="10.0441818"><ele>201.0</ele><time>2026-04-12T14:00:17.202Z</time></trkpt><trkpt lat="45.7758478" lon="10.0440145"><ele>201.0</ele><time>2026-04-12T14:00:18.211Z</time></trkpt><trkpt lat="45.7757825" lon="10.0438478"><ele>201.0</ele><time>2026-04-12T14:00:19.202Z</time></trkpt><trkpt lat="45.7757173" lon="10.0436858"><ele>205.0</ele><time>2026-04-12T14:00:20.21Z</time></trkpt><trkpt lat="45.775643" lon="10.0435282"><ele>209.0</ele><time>2026-04-12T14:00:21.207Z</time></trkpt><trkpt lat="45.7755587" lon="10.0433766"><ele>213.0</ele><time>2026-04-12T14:00:22.217Z</time></trkpt><trkpt lat="45.7754689" lon="10.0432298"><ele>217.0</ele><time>2026-04-12T14:00:23.214Z</time></trkpt><trkpt lat="45.7753741" lon="10.043084"><ele>220.25</ele><time>2026-04-12T14:00:24.214Z</time></trkpt><trkpt lat="45.7752765" lon="10.0429386"><ele>223.5</ele><time>2026-04-12T14:00:25.208Z</time></trkpt><trkpt lat="45.7751806" lon="10.0427977"><ele>226.75</ele><time>2026-04-12T14:00:26.206Z</time></trkpt><trkpt lat="45.7750833" lon="10.0426537"><ele>230.0</ele><time>2026-04-12T14:00:27.206Z</time></trkpt><trkpt lat="45.7749867" lon="10.0424969"><ele>220.0</ele><time>2026-04-12T14:00:28.211Z</time></trkpt><trkpt lat="45.7748953" lon="10.0423269"><ele>210.0</ele><time>2026-04-12T14:00:29.2Z</time></trkpt><trkpt lat="45.7747125" lon="10.041966"><ele>210.0</ele><time>2026-04-12T14:00:31.202Z</time></trkpt><trkpt lat="45.774636" lon="10.041701"><ele>210.0</ele><time>2026-04-12T14:00:32.207Z</time></trkpt><trkpt lat="45.7746184" lon="10.0414711"><ele>210.0</ele><time>2026-04-12T14:00:33.21Z</time></trkpt><trkpt lat="45.7746332" lon="10.0412397"><ele>208.33333333333331</ele><time>2026-04-12T14:00:34.201Z</time></trkpt><trkpt lat="45.7746773" lon="10.0410071"><ele>206.66666666666666</ele><time>2026-04-12T14:00:35.211Z</time></trkpt><trkpt lat="45.77475" lon="10.0407635"><ele>205.0</ele><time>2026-04-12T14:00:36.203Z</time></trkpt><trkpt lat="45.7748021" lon="10.0405355"><ele>204.75</ele><time>2026-04-12T14:00:37.209Z</time></trkpt><trkpt lat="45.774851" lon="10.0403312"><ele>204.5</ele><time>2026-04-12T14:00:38.209Z</time></trkpt><trkpt lat="45.7748895" lon="10.0401507"><ele>204.25</ele><time>2026-04-12T14:00:39.198Z</time></trkpt><trkpt lat="45.7748924" lon="10.039966"><ele>204.0</ele><time>2026-04-12T14:00:40.199Z</time></trkpt><trkpt lat="45.7748672" lon="10.0397866"><ele>206.25</ele><time>2026-04-12T14:00:41.2Z</time></trkpt><trkpt lat="45.7748117" lon="10.0396139"><ele>208.5</ele><time>2026-04-12T14:00:42.204Z</time></trkpt><trkpt lat="45.7747315" lon="10.0394423"><ele>210.75</ele><time>2026-04-12T14:00:43.219Z</time></trkpt><trkpt lat="45.7746264" lon="10.0392764"><ele>213.0</ele><time>2026-04-12T14:00:44.215Z</time></trkpt><trkpt lat="45.7745034" lon="10.0390984"><ele>210.33333333333331</ele><time>2026-04-12T14:00:45.209Z</time></trkpt><trkpt lat="45.7743787" lon="10.0389205"><ele>207.66666666666666</ele><time>2026-04-12T14:00:46.207Z</time></trkpt><trkpt lat="45.7742603" lon="10.0387549"><ele>205.0</ele><time>2026-04-12T14:00:47.208Z</time></trkpt><trkpt lat="45.7741478" lon="10.0385948"><ele>205.0</ele><time>2026-04-12T14:00:48.206Z</time></trkpt><trkpt lat="45.7740376" lon="10.0384366"><ele>205.0</ele><time>2026-04-12T14:00:49.215Z</time></trkpt><trkpt lat="45.7739279" lon="10.038278"><ele>205.0</ele><time>2026-04-12T14:00:50.211Z</time></trkpt><trkpt lat="45.7737118" lon="10.0379551"><ele>203.33333333333331</ele><time>2026-04-12T14:00:52.216Z</time></trkpt><trkpt lat="45.7736047" lon="10.03779"><ele>201.66666666666669</ele><time>2026-04-12T14:00:53.207Z</time></trkpt><trkpt lat="45.773496" lon="10.0376211"><ele>200.0</ele><time>2026-04-12T14:00:54.21Z</time></trkpt><trkpt lat="45.7733858" lon="10.0374551"><ele>203.33333333333334</ele><time>2026-04-12T14:00:55.202Z</time></trkpt><trkpt lat="45.7732759" lon="10.0372861"><ele>206.66666666666669</ele><time>2026-04-12T14:00:56.222Z</time></trkpt><trkpt lat="45.7731674" lon="10.0371153"><ele>210.0</ele><time>2026-04-12T14:00:57.21Z</time></trkpt><trkpt lat="45.773061" lon="10.0369478"><ele>210.0</ele><time>2026-04-12T14:00:58.216Z</time></trkpt><trkpt lat="45.7729573" lon="10.0367868"><ele>210.0</ele><time>2026-04-12T14:00:59.219Z</time></trkpt><trkpt lat="45.7728541" lon="10.0366306"><ele>210.0</ele><time>2026-04-12T14:01:00.213Z</time></trkpt><trkpt lat="45.772749" lon="10.0364881"><ele>210.0</ele><time>2026-04-12T14:01:01.22Z</time></trkpt><trkpt lat="45.7726356" lon="10.036359"><ele>206.66666666666669</ele><time>2026-04-12T14:01:02.208Z</time></trkpt><trkpt lat="45.7725068" lon="10.0362449"><ele>203.33333333333334</ele><time>2026-04-12T14:01:03.212Z</time></trkpt><trkpt lat="45.7723605" lon="10.0361428"><ele>200.0</ele><time>2026-04-12T14:01:04.211Z</time></trkpt><trkpt lat="45.7722001" lon="10.0360578"><ele>200.0</ele><time>2026-04-12T14:01:05.217Z</time></trkpt><trkpt lat="45.7720293" lon="10.0359875"><ele>200.0</ele><time>2026-04-12T14:01:06.221Z</time></trkpt><trkpt lat="45.7718516" lon="10.0359206"><ele>200.0</ele><time>2026-04-12T14:01:07.212Z</time></trkpt><trkpt lat="45.7716754" lon="10.0358432"><ele>202.33333333333334</ele><time>2026-04-12T14:01:08.206Z</time></trkpt><trkpt lat="45.7715009" lon="10.03576"><ele>204.66666666666669</ele><time>2026-04-12T14:01:09.199Z</time></trkpt><trkpt lat="45.771327" lon="10.0356791"><ele>207.0</ele><time>2026-04-12T14:01:10.214Z</time></trkpt><trkpt lat="45.7711534" lon="10.035599"><ele>210.5</ele><time>2026-04-12T14:01:11.208Z</time></trkpt><trkpt lat="45.7707966" lon="10.0354608"><ele>214.0</ele><time>2026-04-12T14:01:13.217Z</time></trkpt><trkpt lat="45.7706116" lon="10.0354256"><ele>214.0</ele><time>2026-04-12T14:01:14.211Z</time></trkpt><trkpt lat="45.7704255" lon="10.0354082"><ele>214.0</ele><time>2026-04-12T14:01:15.212Z</time></trkpt><trkpt lat="45.7702412" lon="10.035401"><ele>214.0</ele><time>2026-04-12T14:01:16.214Z</time></trkpt><trkpt lat="45.7700716" lon="10.0353995"><ele>211.33333333333331</ele><time>2026-04-12T14:01:17.214Z</time></trkpt><trkpt lat="45.7699153" lon="10.035391"><ele>208.66666666666669</ele><time>2026-04-12T14:01:18.217Z</time></trkpt><trkpt lat="45.7697672" lon="10.0353376"><ele>206.0</ele><time>2026-04-12T14:01:19.199Z</time></trkpt><trkpt lat="45.7696265" lon="10.0352435"><ele>206.0</ele><time>2026-04-12T14:01:20.202Z</time></trkpt><trkpt lat="45.7694925" lon="10.0351292"><ele>206.0</ele><time>2026-04-12T14:01:21.207Z</time></trkpt><trkpt lat="45.7693519" lon="10.0350314"><ele>206.0</ele><time>2026-04-12T14:01:22.209Z</time></trkpt><trkpt lat="45.7692089" lon="10.0349779"><ele>215.0</ele><time>2026-04-12T14:01:23.215Z</time></trkpt><trkpt lat="45.7690571" lon="10.0349417"><ele>224.0</ele><time>2026-04-12T14:01:24.215Z</time></trkpt><trkpt lat="45.7689045" lon="10.0349332"><ele>233.0</ele><time>2026-04-12T14:01:25.221Z</time></trkpt><trkpt lat="45.7687524" lon="10.0349329"><ele>233.0</ele><time>2026-04-12T14:01:26.206Z</time></trkpt><trkpt lat="45.7686022" lon="10.0349436"><ele>233.0</ele><time>2026-04-12T14:01:27.209Z</time></trkpt><trkpt lat="45.7684561" lon="10.0349814"><ele>233.0</ele><time>2026-04-12T14:01:28.208Z</time></trkpt><trkpt lat="45.7683126" lon="10.0350461"><ele>233.0</ele><time>2026-04-12T14:01:29.208Z</time></trkpt><trkpt lat="45.7681771" lon="10.0351299"><ele>223.33333333333334</ele><time>2026-04-12T14:01:30.217Z</time></trkpt><trkpt lat="45.768053" lon="10.0352303"><ele>213.66666666666669</ele><time>2026-04-12T14:01:31.219Z</time></trkpt><trkpt lat="45.7679357" lon="10.0353308"><ele>204.0</ele><time>2026-04-12T14:01:32.205Z</time></trkpt><trkpt lat="45.7677196" lon="10.035521"><ele>207.39999999999998</ele><time>2026-04-12T14:01:34.213Z</time></trkpt><trkpt lat="45.767619" lon="10.0356125"><ele>210.8</ele><time>2026-04-12T14:01:35.201Z</time></trkpt><trkpt lat="45.7675203" lon="10.0356903"><ele>214.20000000000002</ele><time>2026-04-12T14:01:36.212Z</time></trkpt><trkpt lat="45.7674192" lon="10.0357476"><ele>217.60000000000002</ele><time>2026-04-12T14:01:37.199Z</time></trkpt><trkpt lat="45.7673141" lon="10.0357839"><ele>221.0</ele><time>2026-04-12T14:01:38.217Z</time></trkpt><trkpt lat="45.7672082" lon="10.035794"><ele>221.0</ele><time>2026-04-12T14:01:39.209Z</time></trkpt><trkpt lat="45.7671038" lon="10.0357763"><ele>221.0</ele><time>2026-04-12T14:01:40.202Z</time></trkpt><trkpt lat="45.766991" lon="10.0357309"><ele>221.0</ele><time>2026-04-12T14:01:41.211Z</time></trkpt><trkpt lat="45.766869" lon="10.0356771"><ele>221.0</ele><time>2026-04-12T14:01:42.218Z</time></trkpt><trkpt lat="45.7667417" lon="10.0356355"><ele>223.25</ele><time>2026-04-12T14:01:43.22Z</time></trkpt><trkpt lat="45.7666014" lon="10.0356051"><ele>225.5</ele><time>2026-04-12T14:01:44.201Z</time></trkpt><trkpt lat="45.7664539" lon="10.0355787"><ele>227.75</ele><time>2026-04-12T14:01:45.217Z</time></trkpt><trkpt lat="45.7663062" lon="10.0355656"><ele>230.0</ele><time>2026-04-12T14:01:46.208Z</time></trkpt><trkpt lat="45.7661631" lon="10.0355774"><ele>230.0</ele><time>2026-04-12T14:01:47.217Z</time></trkpt><trkpt lat="45.7660284" lon="10.0356208"><ele>230.0</ele><time>2026-04-12T14:01:48.219Z</time></trkpt><trkpt lat="45.7658989" lon="10.035685"><ele>230.0</ele><time>2026-04-12T14:01:49.212Z</time></trkpt><trkpt lat="45.7657692" lon="10.0357425"><ele>230.0</ele><time>2026-04-12T14:01:50.212Z</time></trkpt><trkpt lat="45.765643" lon="10.0357819"><ele>231.66666666666669</ele><time>2026-04-12T14:01:51.212Z</time></trkpt><trkpt lat="45.7655285" lon="10.0357912"><ele>233.33333333333331</ele><time>2026-04-12T14:01:52.209Z</time></trkpt><trkpt lat="45.7654178" lon="10.0357852"><ele>235.0</ele><time>2026-04-12T14:01:53.21Z</time></trkpt><trkpt lat="45.7651941" lon="10.035723"><ele>236.4</ele><time>2026-04-12T14:01:55.21Z</time></trkpt><trkpt lat="45.7650839" lon="10.0357006"><ele>237.8</ele><time>2026-04-12T14:01:56.199Z</time></trkpt><trkpt lat="45.7649816" lon="10.035717"><ele>239.2</ele><time>2026-04-12T14:01:57.203Z</time></trkpt><trkpt lat="45.7648907" lon="10.035775"><ele>240.6</ele><time>2026-04-12T14:01:58.209Z</time></trkpt><trkpt lat="45.7647998" lon="10.0358913"><ele>242.0</ele><time>2026-04-12T14:01:59.21Z</time></trkpt><trkpt lat="45.7646915" lon="10.0360478"><ele>239.66666666666669</ele><time>2026-04-12T14:02:00.208Z</time></trkpt><trkpt lat="45.7645592" lon="10.036207"><ele>237.33333333333331</ele><time>2026-04-12T14:02:01.216Z</time></trkpt><trkpt lat="45.7643883" lon="10.0363494"><ele>235.0</ele><time>2026-04-12T14:02:02.213Z</time></trkpt><trkpt lat="45.7641807" lon="10.0364804"><ele>235.0</ele><time>2026-04-12T14:02:03.199Z</time></trkpt><trkpt lat="45.7639685" lon="10.0366159"><ele>235.0</ele><time>2026-04-12T14:02:04.209Z</time></trkpt><trkpt lat="45.7637451" lon="10.0367582"><ele>233.33333333333331</ele><time>2026-04-12T14:02:05.204Z</time></trkpt><trkpt lat="45.7635453" lon="10.0369066"><ele>231.66666666666669</ele><time>2026-04-12T14:02:06.204Z</time></trkpt><trkpt lat="45.7633482" lon="10.0370266"><ele>230.0</ele><time>2026-04-12T14:02:07.197Z</time></trkpt><trkpt lat="45.763157" lon="10.0371076"><ele>230.0</ele><time>2026-04-12T14:02:08.201Z</time></trkpt><trkpt lat="45.7629496" lon="10.0371531"><ele>230.0</ele><time>2026-04-12T14:02:09.203Z</time></trkpt><trkpt lat="45.7627301" lon="10.0371545"><ele>230.0</ele><time>2026-04-12T14:02:10.199Z</time></trkpt><trkpt lat="45.7625075" lon="10.03712"><ele>234.66666666666669</ele><time>2026-04-12T14:02:11.204Z</time></trkpt><trkpt lat="45.7622893" lon="10.0370922"><ele>239.33333333333331</ele><time>2026-04-12T14:02:12.203Z</time></trkpt><trkpt lat="45.7620891" lon="10.0370684"><ele>244.0</ele><time>2026-04-12T14:02:13.205Z</time></trkpt><trkpt lat="45.7619045" lon="10.0370554"><ele>241.5</ele><time>2026-04-12T14:02:14.197Z</time></trkpt><trkpt lat="45.7615567" lon="10.0370225"><ele>239.0</ele><time>2026-04-12T14:02:16.197Z</time></trkpt><trkpt lat="45.7613895" lon="10.0369871"><ele>239.0</ele><time>2026-04-12T14:02:17.199Z</time></trkpt><trkpt lat="45.7612326" lon="10.0369213"><ele>239.0</ele><time>2026-04-12T14:02:18.199Z</time></trkpt><trkpt lat="45.7610895" lon="10.0368297"><ele>239.0</ele><time>2026-04-12T14:02:19.202Z</time></trkpt><trkpt lat="45.7609478" lon="10.0367457"><ele>235.0</ele><time>2026-04-12T14:02:20.202Z</time></trkpt><trkpt lat="45.7608074" lon="10.0367051"><ele>231.0</ele><time>2026-04-12T14:02:21.211Z</time></trkpt><trkpt lat="45.7606809" lon="10.0367278"><ele>227.0</ele><time>2026-04-12T14:02:22.201Z</time></trkpt><trkpt lat="45.7605752" lon="10.0368132"><ele>223.0</ele><time>2026-04-12T14:02:23.201Z</time></trkpt><trkpt lat="45.7604981" lon="10.036958"><ele>223.0</ele><time>2026-04-12T14:02:24.198Z</time></trkpt><trkpt lat="45.7604167" lon="10.0371082"><ele>223.0</ele><time>2026-04-12T14:02:25.203Z</time></trkpt><trkpt lat="45.7603034" lon="10.0372302"><ele>223.0</ele><time>2026-04-12T14:02:26.201Z</time></trkpt><trkpt lat="45.7601636" lon="10.0373013"><ele>223.0</ele><time>2026-04-12T14:02:27.203Z</time></trkpt><trkpt lat="45.7599995" lon="10.0373358"><ele>234.33333333333331</ele><time>2026-04-12T14:02:28.201Z</time></trkpt><trkpt lat="45.7598161" lon="10.0373415"><ele>245.66666666666669</ele><time>2026-04-12T14:02:29.205Z</time></trkpt><trkpt lat="45.7596162" lon="10.037338"><ele>257.0</ele><time>2026-04-12T14:02:30.203Z</time></trkpt><trkpt lat="45.7594144" lon="10.0373343"><ele>261.0</ele><time>2026-04-12T14:02:31.197Z</time></trkpt><trkpt lat="45.7592184" lon="10.0373315"><ele>265.0</ele><time>2026-04-12T14:02:32.198Z</time></trkpt><trkpt lat="45.7590403" lon="10.0373301"><ele>269.0</ele><time>2026-04-12T14:02:33.198Z</time></trkpt><trkpt lat="45.7588773" lon="10.0373299"><ele>269.0</ele><time>2026-04-12T14:02:34.203Z</time></trkpt><trkpt lat="45.7587141" lon="10.0373258"><ele>269.0</ele><time>2026-04-12T14:02:35.201Z</time></trkpt><trkpt lat="45.758375" lon="10.0373087"><ele>269.6666666666667</ele><time>2026-04-12T14:02:37.198Z</time></trkpt><trkpt lat="45.7582029" lon="10.0373178"><ele>270.3333333333333</ele><time>2026-04-12T14:02:38.199Z</time></trkpt><trkpt lat="45.7580306" lon="10.0373562"><ele>271.0</ele><time>2026-04-12T14:02:39.205Z</time></trkpt><trkpt lat="45.7578605" lon="10.0374326"><ele>254.66666666666666</ele><time>2026-04-12T14:02:40.196Z</time></trkpt><trkpt lat="45.7576938" lon="10.0375344"><ele>238.33333333333331</ele><time>2026-04-12T14:02:41.2Z</time></trkpt><trkpt lat="45.7575384" lon="10.0376557"><ele>222.0</ele><time>2026-04-12T14:02:42.203Z</time></trkpt><trkpt lat="45.7573903" lon="10.0377811"><ele>222.0</ele><time>2026-04-12T14:02:43.2Z</time></trkpt><trkpt lat="45.7572398" lon="10.0378988"><ele>222.0</ele><time>2026-04-12T14:02:44.199Z</time></trkpt><trkpt lat="45.7570866" lon="10.0380022"><ele>222.0</ele><time>2026-04-12T14:02:45.196Z</time></trkpt><trkpt lat="45.7569219" lon="10.0380776"><ele>229.0</ele><time>2026-04-12T14:02:46.202Z</time></trkpt><trkpt lat="45.7567388" lon="10.0381225"><ele>236.0</ele><time>2026-04-12T14:02:47.207Z</time></trkpt><trkpt lat="45.7565457" lon="10.0381492"><ele>243.0</ele><time>2026-04-12T14:02:48.196Z</time></trkpt><trkpt lat="45.7563581" lon="10.0381758"><ele>243.0</ele><time>2026-04-12T14:02:49.197Z</time></trkpt><trkpt lat="45.7561731" lon="10.0382042"><ele>243.0</ele><time>2026-04-12T14:02:50.196Z</time></trkpt><trkpt lat="45.7559955" lon="10.0382358"><ele>243.0</ele><time>2026-04-12T14:02:51.196Z</time></trkpt><trkpt lat="45.7558248" lon="10.0382658"><ele>244.0</ele><time>2026-04-12T14:02:52.202Z</time></trkpt><trkpt lat="45.7556576" lon="10.0382911"><ele>245.0</ele><time>2026-04-12T14:02:53.196Z</time></trkpt><trkpt lat="45.7554965" lon="10.0383091"><ele>246.0</ele><time>2026-04-12T14:02:54.205Z</time></trkpt><trkpt lat="45.7553317" lon="10.0383402"><ele>224.5</ele><time>2026-04-12T14:02:55.202Z</time></trkpt><trkpt lat="45.7551603" lon="10.0383933"><ele>203.0</ele><time>2026-04-12T14:02:56.205Z</time></trkpt><trkpt lat="45.75479" lon="10.0386034"><ele>203.0</ele><time>2026-04-12T14:02:58.199Z</time></trkpt><trkpt lat="45.7545922" lon="10.0387301"><ele>203.0</ele><time>2026-04-12T14:02:59.194Z</time></trkpt><trkpt lat="45.7543792" lon="10.0388514"><ele>203.0</ele><time>2026-04-12T14:03:00.202Z</time></trkpt><trkpt lat="45.754158" lon="10.0389818"><ele>208.5</ele><time>2026-04-12T14:03:01.201Z</time></trkpt><trkpt lat="45.7539392" lon="10.0391254"><ele>214.0</ele><time>2026-04-12T14:03:02.199Z</time></trkpt><trkpt lat="45.7537308" lon="10.0392841"><ele>216.5</ele><time>2026-04-12T14:03:03.2Z</time></trkpt><trkpt lat="45.7535318" lon="10.0394505"><ele>219.0</ele><time>2026-04-12T14:03:04.201Z</time></trkpt><trkpt lat="45.7533368" lon="10.0396024"><ele>219.0</ele><time>2026-04-12T14:03:05.199Z</time></trkpt><trkpt lat="45.7531438" lon="10.0397246"><ele>219.0</ele><time>2026-04-12T14:03:06.2Z</time></trkpt><trkpt lat="45.7529492" lon="10.0398056"><ele>219.0</ele><time>2026-04-12T14:03:07.202Z</time></trkpt><trkpt lat="45.7527552" lon="10.0398519"><ele>211.33333333333331</ele><time>2026-04-12T14:03:08.205Z</time></trkpt><trkpt lat="45.7525622" lon="10.0398976"><ele>203.66666666666666</ele><time>2026-04-12T14:03:09.201Z</time></trkpt><trkpt lat="45.7523732" lon="10.039946"><ele>196.0</ele><time>2026-04-12T14:03:10.196Z</time></trkpt><trkpt lat="45.7521814" lon="10.0399795"><ele>196.0</ele><time>2026-04-12T14:03:11.196Z</time></trkpt><trkpt lat="45.7519836" lon="10.0399937"><ele>196.0</ele><time>2026-04-12T14:03:12.196Z</time></trkpt><trkpt lat="45.7517839" lon="10.0400208"><ele>196.0</ele><time>2026-04-12T14:03:13.204Z</time></trkpt><trkpt lat="45.7515878" lon="10.0400752"><ele>198.66666666666666</ele><time>2026-04-12T14:03:14.195Z</time></trkpt><trkpt lat="45.7514011" lon="10.0401679"><ele>201.33333333333331</ele><time>2026-04-12T14:03:15.202Z</time></trkpt><trkpt lat="45.7512316" lon="10.0402963"><ele>204.0</ele><time>2026-04-12T14:03:16.194Z</time></trkpt><trkpt lat="45.7510742" lon="10.0404524"><ele>198.5</ele><time>2026-04-12T14:03:17.198Z</time></trkpt><trkpt lat="45.7507736" lon="10.0407985"><ele>193.0</ele><time>2026-04-12T14:03:19.2Z</time></trkpt><trkpt lat="45.7506275" lon="10.0409576"><ele>193.0</ele><time>2026-04-12T14:03:20.205Z</time></trkpt><trkpt lat="45.7504754" lon="10.0411038"><ele>193.0</ele><time>2026-04-12T14:03:21.197Z</time></trkpt><trkpt lat="45.7503173" lon="10.0412394"><ele>193.0</ele><time>2026-04-12T14:03:22.203Z</time></trkpt><trkpt lat="45.7501547" lon="10.041352"><ele>200.33333333333331</ele><time>2026-04-12T14:03:23.205Z</time></trkpt><trkpt lat="45.7499816" lon="10.0414301"><ele>207.66666666666669</ele><time>2026-04-12T14:03:24.2Z</time></trkpt><trkpt lat="45.7498164" lon="10.0415045"><ele>215.0</ele><time>2026-04-12T14:03:25.2Z</time></trkpt><trkpt lat="45.7496672" lon="10.0415914"><ele>216.66666666666669</ele><time>2026-04-12T14:03:26.2Z</time></trkpt><trkpt lat="45.7495348" lon="10.0417053"><ele>218.33333333333331</ele><time>2026-04-12T14:03:27.202Z</time></trkpt><trkpt lat="45.7494246" lon="10.0418636"><ele>220.0</ele><time>2026-04-12T14:03:28.199Z</time></trkpt><trkpt lat="45.7493258" lon="10.0420455"><ele>220.0</ele><time>2026-04-12T14:03:29.203Z</time></trkpt><trkpt lat="45.749232" lon="10.0422264"><ele>220.0</ele><time>2026-04-12T14:03:30.196Z</time></trkpt><trkpt lat="45.7491337" lon="10.0423911"><ele>220.0</ele><time>2026-04-12T14:03:31.202Z</time></trkpt><trkpt lat="45.7490251" lon="10.0425375"><ele>212.0</ele><time>2026-04-12T14:03:32.195Z</time></trkpt><trkpt lat="45.7488938" lon="10.0426552"><ele>204.0</ele><time>2026-04-12T14:03:33.203Z</time></trkpt><trkpt lat="45.7487412" lon="10.042743"><ele>196.0</ele><time>2026-04-12T14:03:34.204Z</time></trkpt><trkpt lat="45.7485611" lon="10.0428068"><ele>203.66666666666666</ele><time>2026-04-12T14:03:35.203Z</time></trkpt><trkpt lat="45.7483751" lon="10.0428742"><ele>211.33333333333331</ele><time>2026-04-12T14:03:36.199Z</time></trkpt><trkpt lat="45.7482063" lon="10.0429729"><ele>219.0</ele><time>2026-04-12T14:03:37.199Z</time></trkpt><trkpt lat="45.7480583" lon="10.0431179"><ele>216.0</ele><time>2026-04-12T14:03:38.198Z</time></trkpt><trkpt lat="45.747813" lon="10.0435159"><ele>213.0</ele><time>2026-04-12T14:03:40.2Z</time></trkpt><trkpt lat="45.747695" lon="10.0437152"><ele>213.0</ele><time>2026-04-12T14:03:41.2Z</time></trkpt><trkpt lat="45.7475749" lon="10.0439108"><ele>213.0</ele><time>2026-04-12T14:03:42.198Z</time></trkpt><trkpt lat="45.7474545" lon="10.044097"><ele>213.0</ele><time>2026-04-12T14:03:43.196Z</time></trkpt><trkpt lat="45.7473409" lon="10.0442854"><ele>207.0</ele><time>2026-04-12T14:03:44.194Z</time></trkpt><trkpt lat="45.7472406" lon="10.0444798"><ele>201.0</ele><time>2026-04-12T14:03:45.204Z</time></trkpt><trkpt lat="45.7471607" lon="10.044693"><ele>195.0</ele><time>2026-04-12T14:03:46.198Z</time></trkpt><trkpt lat="45.7471037" lon="10.0449305"><ele>192.0</ele><time>2026-04-12T14:03:47.199Z</time></trkpt><trkpt lat="45.7470615" lon="10.0451754"><ele>189.0</ele><time>2026-04-12T14:03:48.199Z</time></trkpt><trkpt lat="45.7470176" lon="10.0454053"><ele>186.0</ele><time>2026-04-12T14:03:49.199Z</time></trkpt><trkpt lat="45.7469736" lon="10.0456254"><ele>185.25</ele><time>2026-04-12T14:03:50.203Z</time></trkpt><trkpt lat="45.7469257" lon="10.0458358"><ele>184.5</ele><time>2026-04-12T14:03:51.203Z</time></trkpt><trkpt lat="45.7468689" lon="10.0460295"><ele>183.75</ele><time>2026-04-12T14:03:52.203Z</time></trkpt><trkpt lat="45.7467926" lon="10.046206"><ele>183.0</ele><time>2026-04-12T14:03:53.202Z</time></trkpt><trkpt lat="45.7466946" lon="10.0463665"><ele>185.66666666666666</ele><time>2026-04-12T14:03:54.198Z</time></trkpt><trkpt lat="45.7465802" lon="10.0465198"><ele>188.33333333333331</ele><time>2026-04-12T14:03:55.201Z</time></trkpt><trkpt lat="45.7464585" lon="10.0466716"><ele>191.0</ele><time>2026-04-12T14:03:56.2Z</time></trkpt><trkpt lat="45.7463407" lon="10.0468266"><ele>191.0</ele><time>2026-04-12T14:03:57.205Z</time></trkpt><trkpt lat="45.746228" lon="10.046976"><ele>191.0</ele><time>2026-04-12T14:03:58.202Z</time></trkpt><trkpt lat="45.7461144" lon="10.0471133"><ele>191.0</ele><time>2026-04-12T14:03:59.201Z</time></trkpt><trkpt lat="45.7458437" lon="10.0473265"><ele>191.66666666666666</ele><time>2026-04-12T14:04:01.198Z</time></trkpt><trkpt lat="45.7456835" lon="10.0474071"><ele>192.33333333333331</ele><time>2026-04-12T14:04:02.202Z</time></trkpt><trkpt lat="45.7455092" lon="10.047478"><ele>193.0</ele><time>2026-04-12T14:04:03.2Z</time></trkpt><trkpt lat="45.7453282" lon="10.0475416"><ele>198.0</ele><time>2026-04-12T14:04:04.204Z</time></trkpt><trkpt lat="45.745144" lon="10.0476021"><ele>203.0</ele><time>2026-04-12T14:04:05.195Z</time></trkpt><trkpt lat="45.7449611" lon="10.047678"><ele>208.0</ele><time>2026-04-12T14:04:06.195Z</time></trkpt><trkpt lat="45.7447801" lon="10.0477802"><ele>208.0</ele><time>2026-04-12T14:04:07.195Z</time></trkpt><trkpt lat="45.7446047" lon="10.0479151"><ele>208.0</ele><time>2026-04-12T14:04:08.199Z</time></trkpt><trkpt lat="45.7444305" lon="10.0480749"><ele>208.0</ele><time>2026-04-12T14:04:09.203Z</time></trkpt><trkpt lat="45.7442544" lon="10.0482428"><ele>205.33333333333331</ele><time>2026-04-12T14:04:10.196Z</time></trkpt><trkpt lat="45.7440764" lon="10.0484113"><ele>202.66666666666669</ele><time>2026-04-12T14:04:11.197Z</time></trkpt><trkpt lat="45.7438903" lon="10.048561"><ele>200.0</ele><time>2026-04-12T14:04:12.203Z</time></trkpt><trkpt lat="45.7437069" lon="10.0486919"><ele>199.0</ele><time>2026-04-12T14:04:13.194Z</time></trkpt><trkpt lat="45.7435355" lon="10.0488255"><ele>198.0</ele><time>2026-04-12T14:04:14.2Z</time></trkpt><trkpt lat="45.7433779" lon="10.0489773"><ele>197.0</ele><time>2026-04-12T14:04:15.197Z</time></trkpt><trkpt lat="45.7432256" lon="10.0491327"><ele>197.0</ele><time>2026-04-12T14:04:16.196Z</time></trkpt><trkpt lat="45.7430735" lon="10.0492743"><ele>197.0</ele><time>2026-04-12T14:04:17.201Z</time></trkpt><trkpt lat="45.742918" lon="10.0494046"><ele>197.0</ele><time>2026-04-12T14:04:18.198Z</time></trkpt><trkpt lat="45.7427642" lon="10.0495132"><ele>211.0</ele><time>2026-04-12T14:04:19.202Z</time></trkpt><trkpt lat="45.7426048" lon="10.0496022"><ele>225.0</ele><time>2026-04-12T14:04:20.194Z</time></trkpt><trkpt lat="45.7319847" lon="10.0522844"><ele>225.0</ele><time>2026-04-12T14:05:30.2Z</time></trkpt><trkpt lat="45.7317465" lon="10.0521376"><ele>225.0</ele><time>2026-04-12T14:05:32.201Z</time></trkpt><trkpt lat="45.7316252" lon="10.0520503"><ele>225.0</ele><time>2026-04-12T14:05:33.2Z</time></trkpt><trkpt lat="45.731505" lon="10.051967"><ele>225.0</ele><time>2026-04-12T14:05:34.212Z</time></trkpt><trkpt lat="45.7313931" lon="10.0518756"><ele>225.0</ele><time>2026-04-12T14:05:35.204Z</time></trkpt><trkpt lat="45.7312857" lon="10.0517755"><ele>225.0</ele><time>2026-04-12T14:05:36.204Z</time></trkpt><trkpt lat="45.7311783" lon="10.0516818"><ele>225.0</ele><time>2026-04-12T14:05:37.205Z</time></trkpt><trkpt lat="45.7310631" lon="10.051588"><ele>224.75</ele><time>2026-04-12T14:05:38.204Z</time></trkpt><trkpt lat="45.730937" lon="10.0514951"><ele>224.5</ele><time>2026-04-12T14:05:39.2Z</time></trkpt><trkpt lat="45.730806" lon="10.0513946"><ele>224.25</ele><time>2026-04-12T14:05:40.204Z</time></trkpt><trkpt lat="45.7306826" lon="10.0512923"><ele>224.0</ele><time>2026-04-12T14:05:41.202Z</time></trkpt><trkpt lat="45.7305728" lon="10.0511822"><ele>224.0</ele><time>2026-04-12T14:05:42.205Z</time></trkpt><trkpt lat="45.7304774" lon="10.0510665"><ele>224.0</ele><time>2026-04-12T14:05:43.204Z</time></trkpt><trkpt lat="45.7303903" lon="10.0509525"><ele>224.0</ele><time>2026-04-12T14:05:44.209Z</time></trkpt><trkpt lat="45.7303115" lon="10.0508399"><ele>224.0</ele><time>2026-04-12T14:05:45.204Z</time></trkpt><trkpt lat="45.7302297" lon="10.0507378"><ele>227.0</ele><time>2026-04-12T14:05:46.208Z</time></trkpt><trkpt lat="45.7301322" lon="10.0506622"><ele>230.0</ele><time>2026-04-12T14:05:47.208Z</time></trkpt><trkpt lat="45.7300124" lon="10.0506198"><ele>233.0</ele><time>2026-04-12T14:05:48.205Z</time></trkpt><trkpt lat="45.7298702" lon="10.0506066"><ele>236.0</ele><time>2026-04-12T14:05:49.203Z</time></trkpt><trkpt lat="45.7297207" lon="10.0506023"><ele>236.0</ele><time>2026-04-12T14:05:50.202Z</time></trkpt><trkpt lat="45.7295722" lon="10.0505871"><ele>236.0</ele><time>2026-04-12T14:05:51.202Z</time></trkpt><trkpt lat="45.729271" lon="10.0505208"><ele>230.33333333333334</ele><time>2026-04-12T14:05:53.207Z</time></trkpt><trkpt lat="45.7291237" lon="10.0504701"><ele>224.66666666666669</ele><time>2026-04-12T14:05:54.206Z</time></trkpt><trkpt lat="45.7289835" lon="10.0504014"><ele>219.0</ele><time>2026-04-12T14:05:55.205Z</time></trkpt><trkpt lat="45.7288422" lon="10.0503232"><ele>219.0</ele><time>2026-04-12T14:05:56.206Z</time></trkpt><trkpt lat="45.7286944" lon="10.0502486"><ele>219.0</ele><time>2026-04-12T14:05:57.209Z</time></trkpt><trkpt lat="45.7285402" lon="10.0501672"><ele>219.0</ele><time>2026-04-12T14:05:58.203Z</time></trkpt><trkpt lat="45.7283852" lon="10.0500798"><ele>211.66666666666669</ele><time>2026-04-12T14:05:59.203Z</time></trkpt><trkpt lat="45.7282321" lon="10.0499923"><ele>204.33333333333334</ele><time>2026-04-12T14:06:00.202Z</time></trkpt><trkpt lat="45.7280783" lon="10.0499084"><ele>197.0</ele><time>2026-04-12T14:06:01.208Z</time></trkpt><trkpt lat="45.7279236" lon="10.0498228"><ele>204.0</ele><time>2026-04-12T14:06:02.207Z</time></trkpt><trkpt lat="45.7277683" lon="10.0497408"><ele>211.0</ele><time>2026-04-12T14:06:03.205Z</time></trkpt><trkpt lat="45.7276097" lon="10.0496659"><ele>218.0</ele><time>2026-04-12T14:06:04.203Z</time></trkpt><trkpt lat="45.7274475" lon="10.0496002"><ele>218.0</ele><time>2026-04-12T14:06:05.206Z</time></trkpt><trkpt lat="45.7272825" lon="10.0495506"><ele>218.0</ele><time>2026-04-12T14:06:06.207Z</time></trkpt><trkpt lat="45.7271146" lon="10.0495187"><ele>218.0</ele><time>2026-04-12T14:06:07.203Z</time></trkpt><trkpt lat="45.7269441" lon="10.0495017"><ele>215.66666666666669</ele><time>2026-04-12T14:06:08.2Z</time></trkpt><trkpt lat="45.7267724" lon="10.0495035"><ele>213.33333333333331</ele><time>2026-04-12T14:06:09.204Z</time></trkpt><trkpt lat="45.7266025" lon="10.0495072"><ele>211.0</ele><time>2026-04-12T14:06:10.205Z</time></trkpt><trkpt lat="45.726434" lon="10.049505"><ele>211.0</ele><time>2026-04-12T14:06:11.206Z</time></trkpt><trkpt lat="45.7262671" lon="10.0494988"><ele>211.0</ele><time>2026-04-12T14:06:12.205Z</time></trkpt><trkpt lat="45.7259358" lon="10.0494724"><ele>211.0</ele><time>2026-04-12T14:06:14.206Z</time></trkpt><trkpt lat="45.7257669" lon="10.0494568"><ele>211.0</ele><time>2026-04-12T14:06:15.21Z</time></trkpt><trkpt lat="45.7255976" lon="10.0494459"><ele>211.0</ele><time>2026-04-12T14:06:16.202Z</time></trkpt><trkpt lat="45.7254277" lon="10.0494411"><ele>211.0</ele><time>2026-04-12T14:06:17.203Z</time></trkpt><trkpt lat="45.725258" lon="10.0494403"><ele>211.0</ele><time>2026-04-12T14:06:18.202Z</time></trkpt><trkpt lat="45.7250886" lon="10.0494424"><ele>211.0</ele><time>2026-04-12T14:06:19.203Z</time></trkpt><trkpt lat="45.724921" lon="10.0494465"><ele>210.66666666666666</ele><time>2026-04-12T14:06:20.21Z</time></trkpt><trkpt lat="45.7247558" lon="10.0494393"><ele>210.33333333333331</ele><time>2026-04-12T14:06:21.204Z</time></trkpt><trkpt lat="45.7245912" lon="10.049417"><ele>210.0</ele><time>2026-04-12T14:06:22.207Z</time></trkpt><trkpt lat="45.7244276" lon="10.0493782"><ele>206.66666666666669</ele><time>2026-04-12T14:06:23.205Z</time></trkpt><trkpt lat="45.7242627" lon="10.0493284"><ele>203.33333333333334</ele><time>2026-04-12T14:06:24.21Z</time></trkpt><trkpt lat="45.7240983" lon="10.049275"><ele>200.0</ele><time>2026-04-12T14:06:25.209Z</time></trkpt><trkpt lat="45.7239318" lon="10.0492262"><ele>200.0</ele><time>2026-04-12T14:06:26.204Z</time></trkpt><trkpt lat="45.7237619" lon="10.0491889"><ele>200.0</ele><time>2026-04-12T14:06:27.203Z</time></trkpt><trkpt lat="45.7235911" lon="10.0491607"><ele>200.0</ele><time>2026-04-12T14:06:28.201Z</time></trkpt><trkpt lat="45.7234214" lon="10.0491479"><ele>198.0</ele><time>2026-04-12T14:06:29.201Z</time></trkpt><trkpt lat="45.7232536" lon="10.0491422"><ele>196.0</ele><time>2026-04-12T14:06:30.2Z</time></trkpt><trkpt lat="45.7230884" lon="10.0491347"><ele>194.0</ele><time>2026-04-12T14:06:31.202Z</time></trkpt><trkpt lat="45.7229259" lon="10.0491346"><ele>194.0</ele><time>2026-04-12T14:06:32.202Z</time></trkpt><trkpt lat="45.7227661" lon="10.0491263"><ele>194.0</ele><time>2026-04-12T14:06:33.202Z</time></trkpt><trkpt lat="45.7224551" lon="10.0491112"><ele>209.33333333333334</ele><time>2026-04-12T14:06:35.204Z</time></trkpt><trkpt lat="45.7223049" lon="10.0490932"><ele>224.66666666666669</ele><time>2026-04-12T14:06:36.201Z</time></trkpt><trkpt lat="45.7221537" lon="10.0490762"><ele>240.0</ele><time>2026-04-12T14:06:37.205Z</time></trkpt><trkpt lat="45.722002" lon="10.0490553"><ele>237.33333333333331</ele><time>2026-04-12T14:06:38.202Z</time></trkpt><trkpt lat="45.7218503" lon="10.0490282"><ele>234.66666666666666</ele><time>2026-04-12T14:06:39.201Z</time></trkpt><trkpt lat="45.7216956" lon="10.0490024"><ele>232.0</ele><time>2026-04-12T14:06:40.201Z</time></trkpt><trkpt lat="45.721542" lon="10.0489783"><ele>232.0</ele><time>2026-04-12T14:06:41.202Z</time></trkpt><trkpt lat="45.7213943" lon="10.0489545"><ele>232.0</ele><time>2026-04-12T14:06:42.205Z</time></trkpt><trkpt lat="45.7212552" lon="10.0489243"><ele>232.0</ele><time>2026-04-12T14:06:43.207Z</time></trkpt><trkpt lat="45.7211276" lon="10.0488877"><ele>232.0</ele><time>2026-04-12T14:06:44.202Z</time></trkpt><trkpt lat="45.7210073" lon="10.0488487"><ele>228.0</ele><time>2026-04-12T14:06:45.202Z</time></trkpt><trkpt lat="45.7208971" lon="10.0487973"><ele>224.0</ele><time>2026-04-12T14:06:46.202Z</time></trkpt><trkpt lat="45.7207902" lon="10.0487371"><ele>220.0</ele><time>2026-04-12T14:06:47.205Z</time></trkpt><trkpt lat="45.7206803" lon="10.0486617"><ele>216.0</ele><time>2026-04-12T14:06:48.205Z</time></trkpt><trkpt lat="45.7205653" lon="10.0485944"><ele>216.0</ele><time>2026-04-12T14:06:49.203Z</time></trkpt><trkpt lat="45.7204439" lon="10.048536"><ele>216.0</ele><time>2026-04-12T14:06:50.199Z</time></trkpt><trkpt lat="45.7203173" lon="10.0484855"><ele>216.0</ele><time>2026-04-12T14:06:51.206Z</time></trkpt><trkpt lat="45.7201831" lon="10.0484514"><ele>216.0</ele><time>2026-04-12T14:06:52.203Z</time></trkpt><trkpt lat="45.7200494" lon="10.0484277"><ele>212.0</ele><time>2026-04-12T14:06:53.204Z</time></trkpt><trkpt lat="45.7199208" lon="10.0484116"><ele>208.0</ele><time>2026-04-12T14:06:54.202Z</time></trkpt><trkpt lat="45.7196729" lon="10.0483865"><ele>204.0</ele><time>2026-04-12T14:06:56.201Z</time></trkpt><trkpt lat="45.7195571" lon="10.0483769"><ele>204.0</ele><time>2026-04-12T14:06:57.201Z</time></trkpt><trkpt lat="45.7194524" lon="10.0483608"><ele>204.0</ele><time>2026-04-12T14:06:58.201Z</time></trkpt><trkpt lat="45.7193626" lon="10.048334"><ele>204.0</ele><time>2026-04-12T14:06:59.204Z</time></trkpt><trkpt lat="45.7192907" lon="10.0482915"><ele>204.0</ele><time>2026-04-12T14:07:00.202Z</time></trkpt><trkpt lat="45.7192368" lon="10.0482161"><ele>204.0</ele><time>2026-04-12T14:07:01.208Z</time></trkpt><trkpt lat="45.7192011" lon="10.0481078"><ele>204.0</ele><time>2026-04-12T14:07:02.2Z</time></trkpt><trkpt lat="45.7191867" lon="10.0479711"><ele>205.79999999999998</ele><time>2026-04-12T14:07:03.21Z</time></trkpt><trkpt lat="45.7191757" lon="10.0478227"><ele>207.6</ele><time>2026-04-12T14:07:04.202Z</time></trkpt><trkpt lat="45.7191528" lon="10.0476775"><ele>209.4</ele><time>2026-04-12T14:07:05.201Z</time></trkpt><trkpt lat="45.7191031" lon="10.0475583"><ele>211.2</ele><time>2026-04-12T14:07:06.207Z</time></trkpt><trkpt lat="45.7190151" lon="10.0474662"><ele>213.0</ele><time>2026-04-12T14:07:07.2Z</time></trkpt><trkpt lat="45.7189015" lon="10.0474048"><ele>215.75</ele><time>2026-04-12T14:07:08.203Z</time></trkpt><trkpt lat="45.7187781" lon="10.0473642"><ele>218.5</ele><time>2026-04-12T14:07:09.203Z</time></trkpt><trkpt lat="45.7186539" lon="10.0473323"><ele>221.25</ele><time>2026-04-12T14:07:10.201Z</time></trkpt><trkpt lat="45.7185318" lon="10.0472983"><ele>224.0</ele><time>2026-04-12T14:07:11.206Z</time></trkpt><trkpt lat="45.7184217" lon="10.0472731"><ele>224.0</ele><time>2026-04-12T14:07:12.211Z</time></trkpt><trkpt lat="45.7183249" lon="10.0472589"><ele>223.99999999999997</ele><time>2026-04-12T14:07:13.21Z</time></trkpt><trkpt lat="45.7182416" lon="10.0472519"><ele>223.99999999999997</ele><time>2026-04-12T14:07:14.204Z</time></trkpt><trkpt lat="45.7181728" lon="10.0472279"><ele>224.0</ele><time>2026-04-12T14:07:15.204Z</time></trkpt><trkpt lat="45.7181864" lon="10.0469681"><ele>224.0</ele><time>2026-04-12T14:07:19.2Z</time></trkpt><trkpt lat="45.7182681" lon="10.0469494"><ele>224.0</ele><time>2026-04-12T14:07:20.199Z</time></trkpt><trkpt lat="45.7183623" lon="10.0469814"><ele>224.0</ele><time>2026-04-12T14:07:21.207Z</time></trkpt><trkpt lat="45.7184651" lon="10.0470457"><ele>224.0</ele><time>2026-04-12T14:07:22.205Z</time></trkpt><trkpt lat="45.7185745" lon="10.0470947"><ele>224.0</ele><time>2026-04-12T14:07:23.203Z</time></trkpt><trkpt lat="45.7186974" lon="10.0471429"><ele>232.0</ele><time>2026-04-12T14:07:24.196Z</time></trkpt><trkpt lat="45.7188378" lon="10.0471882"><ele>240.0</ele><time>2026-04-12T14:07:25.205Z</time></trkpt><trkpt lat="45.718993" lon="10.0472391"><ele>248.0</ele><time>2026-04-12T14:07:26.198Z</time></trkpt><trkpt lat="45.719143" lon="10.0473129"><ele>248.0</ele><time>2026-04-12T14:07:27.203Z</time></trkpt><trkpt lat="45.7192739" lon="10.0473892"><ele>248.0</ele><time>2026-04-12T14:07:28.209Z</time></trkpt><trkpt lat="45.7193815" lon="10.0474736"><ele>248.0</ele><time>2026-04-12T14:07:29.203Z</time></trkpt><trkpt lat="45.7194718" lon="10.0475663"><ele>248.0</ele><time>2026-04-12T14:07:30.207Z</time></trkpt><trkpt lat="45.7195402" lon="10.0476634"><ele>248.8</ele><time>2026-04-12T14:07:31.207Z</time></trkpt><trkpt lat="45.719589" lon="10.0477478"><ele>249.60000000000002</ele><time>2026-04-12T14:07:32.206Z</time></trkpt><trkpt lat="45.7196309" lon="10.0478178"><ele>250.39999999999998</ele><time>2026-04-12T14:07:33.208Z</time></trkpt><trkpt lat="45.7197359" lon="10.047838"><ele>251.2</ele><time>2026-04-12T14:07:35.204Z</time></trkpt><trkpt lat="45.7197882" lon="10.0477793"><ele>252.0</ele><time>2026-04-12T14:07:36.201Z</time></trkpt><trkpt lat="45.7198293" lon="10.0475385"><ele>260.5</ele><time>2026-04-12T14:07:38.205Z</time></trkpt><trkpt lat="45.7197865" lon="10.0474072"><ele>269.0</ele><time>2026-04-12T14:07:39.203Z</time></trkpt><trkpt lat="45.7197109" lon="10.0473117"><ele>277.5</ele><time>2026-04-12T14:07:40.207Z</time></trkpt><trkpt lat="45.7196023" lon="10.0472465"><ele>286.0</ele><time>2026-04-12T14:07:41.207Z</time></trkpt><trkpt lat="45.7194695" lon="10.0471771"><ele>273.3333333333333</ele><time>2026-04-12T14:07:42.204Z</time></trkpt><trkpt lat="45.7193324" lon="10.0470754"><ele>260.6666666666667</ele><time>2026-04-12T14:07:43.207Z</time></trkpt><trkpt lat="45.7191921" lon="10.0469565"><ele>248.0</ele><time>2026-04-12T14:07:44.203Z</time></trkpt><trkpt lat="45.7190439" lon="10.0468318"><ele>248.0</ele><time>2026-04-12T14:07:45.2Z</time></trkpt><trkpt lat="45.7188893" lon="10.0467355"><ele>248.0</ele><time>2026-04-12T14:07:46.205Z</time></trkpt><trkpt lat="45.7187466" lon="10.0466795"><ele>248.0</ele><time>2026-04-12T14:07:47.209Z</time></trkpt><trkpt lat="45.7186201" lon="10.0466748"><ele>248.0</ele><time>2026-04-12T14:07:48.197Z</time></trkpt><trkpt lat="45.7184892" lon="10.0466742"><ele>242.0</ele><time>2026-04-12T14:07:49.201Z</time></trkpt><trkpt lat="45.7183535" lon="10.0466395"><ele>236.0</ele><time>2026-04-12T14:07:50.207Z</time></trkpt><trkpt lat="45.7182195" lon="10.0465676"><ele>230.0</ele><time>2026-04-12T14:07:51.201Z</time></trkpt><trkpt lat="45.718088" lon="10.0464811"><ele>224.0</ele><time>2026-04-12T14:07:52.206Z</time></trkpt><trkpt lat="45.7179697" lon="10.0463875"><ele>232.0</ele><time>2026-04-12T14:07:53.207Z</time></trkpt><trkpt lat="45.7178568" lon="10.0462925"><ele>240.0</ele><time>2026-04-12T14:07:54.204Z</time></trkpt><trkpt lat="45.7177454" lon="10.0461988"><ele>248.0</ele><time>2026-04-12T14:07:55.197Z</time></trkpt><trkpt lat="45.717637" lon="10.046095"><ele>256.0</ele><time>2026-04-12T14:07:56.203Z</time></trkpt><trkpt lat="45.7175361" lon="10.0459755"><ele>266.66666666666663</ele><time>2026-04-12T14:07:57.2Z</time></trkpt><trkpt lat="45.7173645" lon="10.0456691"><ele>277.3333333333333</ele><time>2026-04-12T14:07:59.209Z</time></trkpt><trkpt lat="45.7172927" lon="10.0455115"><ele>288.0</ele><time>2026-04-12T14:08:00.202Z</time></trkpt><trkpt lat="45.7172259" lon="10.0453531"><ele>288.0</ele><time>2026-04-12T14:08:01.201Z</time></trkpt><trkpt lat="45.7171499" lon="10.045208"><ele>288.0</ele><time>2026-04-12T14:08:02.201Z</time></trkpt><trkpt lat="45.7170652" lon="10.045083"><ele>288.0</ele><time>2026-04-12T14:08:03.2Z</time></trkpt><trkpt lat="45.7169619" lon="10.0449852"><ele>288.0</ele><time>2026-04-12T14:08:04.2Z</time></trkpt><trkpt lat="45.7168458" lon="10.0449204"><ele>291.2</ele><time>2026-04-12T14:08:05.206Z</time></trkpt><trkpt lat="45.7167226" lon="10.0449297"><ele>294.4</ele><time>2026-04-12T14:08:06.202Z</time></trkpt><trkpt lat="45.7166115" lon="10.0450179"><ele>297.59999999999997</ele><time>2026-04-12T14:08:07.208Z</time></trkpt><trkpt lat="45.7165312" lon="10.045113"><ele>300.8</ele><time>2026-04-12T14:08:08.202Z</time></trkpt><trkpt lat="45.7164607" lon="10.0451691"><ele>304.0</ele><time>2026-04-12T14:08:09.207Z</time></trkpt><trkpt lat="45.7163722" lon="10.0451204"><ele>304.0</ele><time>2026-04-12T14:08:11.199Z</time></trkpt><trkpt lat="45.7163853" lon="10.045031"><ele>304.0</ele><time>2026-04-12T14:08:12.201Z</time></trkpt><trkpt lat="45.7164589" lon="10.0449316"><ele>304.0</ele><time>2026-04-12T14:08:13.201Z</time></trkpt><trkpt lat="45.716559" lon="10.0448604"><ele>304.0</ele><time>2026-04-12T14:08:14.201Z</time></trkpt><trkpt lat="45.7166884" lon="10.0448114"><ele>304.0</ele><time>2026-04-12T14:08:15.201Z</time></trkpt><trkpt lat="45.7168393" lon="10.0447884"><ele>298.66666666666663</ele><time>2026-04-12T14:08:16.204Z</time></trkpt><trkpt lat="45.7169862" lon="10.044817"><ele>293.3333333333333</ele><time>2026-04-12T14:08:17.201Z</time></trkpt><trkpt lat="45.7171282" lon="10.0448957"><ele>288.0</ele><time>2026-04-12T14:08:18.203Z</time></trkpt><trkpt lat="45.7173569" lon="10.0451322"><ele>288.0</ele><time>2026-04-12T14:08:20.202Z</time></trkpt><trkpt lat="45.7174578" lon="10.0452603"><ele>288.0</ele><time>2026-04-12T14:08:21.204Z</time></trkpt><trkpt lat="45.7175493" lon="10.0453889"><ele>288.0</ele><time>2026-04-12T14:08:22.203Z</time></trkpt><trkpt lat="45.7176425" lon="10.0455108"><ele>288.0</ele><time>2026-04-12T14:08:23.203Z</time></trkpt><trkpt lat="45.7177485" lon="10.0456208"><ele>284.5</ele><time>2026-04-12T14:08:24.201Z</time></trkpt><trkpt lat="45.7178627" lon="10.045705"><ele>281.0</ele><time>2026-04-12T14:08:25.211Z</time></trkpt><trkpt lat="45.7179848" lon="10.0457747"><ele>277.5</ele><time>2026-04-12T14:08:26.213Z</time></trkpt><trkpt lat="45.7181156" lon="10.0458291"><ele>274.0</ele><time>2026-04-12T14:08:27.203Z</time></trkpt><trkpt lat="45.7182523" lon="10.0458721"><ele>274.0</ele><time>2026-04-12T14:08:28.205Z</time></trkpt><trkpt lat="45.7183905" lon="10.0459067"><ele>274.0</ele><time>2026-04-12T14:08:29.204Z</time></trkpt><trkpt lat="45.7185308" lon="10.0459252"><ele>274.0</ele><time>2026-04-12T14:08:30.203Z</time></trkpt><trkpt lat="45.7186708" lon="10.0459307"><ele>274.0</ele><time>2026-04-12T14:08:31.199Z</time></trkpt><trkpt lat="45.7188101" lon="10.0459376"><ele>282.0</ele><time>2026-04-12T14:08:32.201Z</time></trkpt><trkpt lat="45.7189492" lon="10.0459514"><ele>290.0</ele><time>2026-04-12T14:08:33.207Z</time></trkpt><trkpt lat="45.7190837" lon="10.0459784"><ele>298.0</ele><time>2026-04-12T14:08:34.201Z</time></trkpt><trkpt lat="45.7192142" lon="10.0460241"><ele>306.0</ele><time>2026-04-12T14:08:35.208Z</time></trkpt><trkpt lat="45.7193441" lon="10.046082"><ele>312.25</ele><time>2026-04-12T14:08:36.204Z</time></trkpt><trkpt lat="45.7194697" lon="10.0461445"><ele>318.5</ele><time>2026-04-12T14:08:37.21Z</time></trkpt><trkpt lat="45.7195932" lon="10.0462059"><ele>324.75</ele><time>2026-04-12T14:08:38.208Z</time></trkpt><trkpt lat="45.7197232" lon="10.0462583"><ele>331.0</ele><time>2026-04-12T14:08:39.2Z</time></trkpt><trkpt lat="45.7200097" lon="10.0463443"><ele>331.0</ele><time>2026-04-12T14:08:41.205Z</time></trkpt><trkpt lat="45.7201563" lon="10.0463724"><ele>331.0</ele><time>2026-04-12T14:08:42.213Z</time></trkpt><trkpt lat="45.7202984" lon="10.0464107"><ele>331.0</ele><time>2026-04-12T14:08:43.201Z</time></trkpt><trkpt lat="45.7204265" lon="10.0464699"><ele>331.0</ele><time>2026-04-12T14:08:44.21Z</time></trkpt><trkpt lat="45.7205251" lon="10.0465549"><ele>330.0</ele><time>2026-04-12T14:08:45.209Z</time></trkpt><trkpt lat="45.7205939" lon="10.0466609"><ele>329.0</ele><time>2026-04-12T14:08:46.205Z</time></trkpt><trkpt lat="45.7206292" lon="10.0467893"><ele>328.0</ele><time>2026-04-12T14:08:47.214Z</time></trkpt><trkpt lat="45.7206311" lon="10.0469202"><ele>327.0</ele><time>2026-04-12T14:08:48.205Z</time></trkpt><trkpt lat="45.720631" lon="10.0470266"><ele>326.0</ele><time>2026-04-12T14:08:49.202Z</time></trkpt><trkpt lat="45.7207074" lon="10.0471362"><ele>326.0</ele><time>2026-04-12T14:08:51.206Z</time></trkpt><trkpt lat="45.7208321" lon="10.0470925"><ele>326.0</ele><time>2026-04-12T14:08:53.203Z</time></trkpt><trkpt lat="45.7209355" lon="10.0470327"><ele>326.0</ele><time>2026-04-12T14:08:55.209Z</time></trkpt><trkpt lat="45.7210103" lon="10.0469662"><ele>326.0</ele><time>2026-04-12T14:09:18.203Z</time></trkpt><trkpt lat="45.7212283" lon="10.0469955"><ele>330.0</ele><time>2026-04-12T14:09:21.205Z</time></trkpt><trkpt lat="45.7213165" lon="10.047065"><ele>334.0</ele><time>2026-04-12T14:09:22.204Z</time></trkpt><trkpt lat="45.7214071" lon="10.04717"><ele>338.0</ele><time>2026-04-12T14:09:23.204Z</time></trkpt><trkpt lat="45.7214993" lon="10.047275"><ele>342.0</ele><time>2026-04-12T14:09:24.204Z</time></trkpt><trkpt lat="45.7215974" lon="10.0473522"><ele>346.0</ele><time>2026-04-12T14:09:25.211Z</time></trkpt><trkpt lat="45.7217088" lon="10.0473803"><ele>346.0</ele><time>2026-04-12T14:09:26.205Z</time></trkpt><trkpt lat="45.721831" lon="10.0473652"><ele>346.0</ele><time>2026-04-12T14:09:27.208Z</time></trkpt><trkpt lat="45.7219692" lon="10.0473323"><ele>346.0</ele><time>2026-04-12T14:09:28.207Z</time></trkpt><trkpt lat="45.7221138" lon="10.0472844"><ele>346.0</ele><time>2026-04-12T14:09:29.207Z</time></trkpt><trkpt lat="45.7222579" lon="10.0472354"><ele>350.25</ele><time>2026-04-12T14:09:30.203Z</time></trkpt><trkpt lat="45.7223993" lon="10.0471886"><ele>354.5</ele><time>2026-04-12T14:09:31.203Z</time></trkpt><trkpt lat="45.7225413" lon="10.0471483"><ele>358.75</ele><time>2026-04-12T14:09:32.212Z</time></trkpt><trkpt lat="45.7226841" lon="10.0471219"><ele>363.0</ele><time>2026-04-12T14:09:33.211Z</time></trkpt><trkpt lat="45.7228239" lon="10.0471046"><ele>364.0</ele><time>2026-04-12T14:09:34.216Z</time></trkpt><trkpt lat="45.7229617" lon="10.0470811"><ele>365.0</ele><time>2026-04-12T14:09:35.21Z</time></trkpt><trkpt lat="45.7230879" lon="10.0470549"><ele>366.0</ele><time>2026-04-12T14:09:36.21Z</time></trkpt><trkpt lat="45.7232015" lon="10.0470167"><ele>367.0</ele><time>2026-04-12T14:09:37.206Z</time></trkpt><trkpt lat="45.7233158" lon="10.0469807"><ele>367.0</ele><time>2026-04-12T14:09:38.209Z</time></trkpt><trkpt lat="45.7234347" lon="10.0469641"><ele>367.0</ele><time>2026-04-12T14:09:39.204Z</time></trkpt><trkpt lat="45.7236783" lon="10.0470112"><ele>367.0</ele><time>2026-04-12T14:09:41.209Z</time></trkpt><trkpt lat="45.723806" lon="10.0470198"><ele>367.40000000000003</ele><time>2026-04-12T14:09:42.203Z</time></trkpt><trkpt lat="45.7239279" lon="10.0469992"><ele>367.8</ele><time>2026-04-12T14:09:43.202Z</time></trkpt><trkpt lat="45.7240397" lon="10.0469487"><ele>368.2</ele><time>2026-04-12T14:09:44.202Z</time></trkpt><trkpt lat="45.7241405" lon="10.0469076"><ele>368.6</ele><time>2026-04-12T14:09:45.211Z</time></trkpt><trkpt lat="45.7242403" lon="10.0469166"><ele>369.0</ele><time>2026-04-12T14:09:46.203Z</time></trkpt><trkpt lat="45.7243457" lon="10.0469601"><ele>369.0</ele><time>2026-04-12T14:09:47.203Z</time></trkpt><trkpt lat="45.7244549" lon="10.0470077"><ele>369.0</ele><time>2026-04-12T14:09:48.206Z</time></trkpt><trkpt lat="45.7245839" lon="10.0470182"><ele>369.0</ele><time>2026-04-12T14:09:49.205Z</time></trkpt><trkpt lat="45.7247277" lon="10.0469806"><ele>369.0</ele><time>2026-04-12T14:09:50.206Z</time></trkpt><trkpt lat="45.724873" lon="10.0469286"><ele>369.0</ele><time>2026-04-12T14:09:51.203Z</time></trkpt><trkpt lat="45.7250183" lon="10.0468989"><ele>369.0</ele><time>2026-04-12T14:09:52.215Z</time></trkpt><trkpt lat="45.7251746" lon="10.0468558"><ele>369.0</ele><time>2026-04-12T14:09:53.204Z</time></trkpt><trkpt lat="45.7253387" lon="10.0467954"><ele>365.0</ele><time>2026-04-12T14:09:54.203Z</time></trkpt><trkpt lat="45.7255079" lon="10.0467155"><ele>361.0</ele><time>2026-04-12T14:09:55.211Z</time></trkpt><trkpt lat="45.7256743" lon="10.0466151"><ele>357.0</ele><time>2026-04-12T14:09:56.202Z</time></trkpt><trkpt lat="45.7258342" lon="10.0465076"><ele>367.5</ele><time>2026-04-12T14:09:57.205Z</time></trkpt><trkpt lat="45.7259825" lon="10.0464201"><ele>378.0</ele><time>2026-04-12T14:09:58.204Z</time></trkpt><trkpt lat="45.7261095" lon="10.0463508"><ele>388.5</ele><time>2026-04-12T14:09:59.204Z</time></trkpt><trkpt lat="45.726214" lon="10.0462737"><ele>399.0</ele><time>2026-04-12T14:10:00.201Z</time></trkpt><trkpt lat="45.7263813" lon="10.0460934"><ele>399.0</ele><time>2026-04-12T14:10:02.201Z</time></trkpt><trkpt lat="45.7264698" lon="10.0460445"><ele>399.0</ele><time>2026-04-12T14:10:03.2Z</time></trkpt><trkpt lat="45.726577" lon="10.0460512"><ele>399.0</ele><time>2026-04-12T14:10:04.204Z</time></trkpt><trkpt lat="45.7267036" lon="10.0461144"><ele>399.0</ele><time>2026-04-12T14:10:05.203Z</time></trkpt><trkpt lat="45.7268445" lon="10.0461721"><ele>403.0</ele><time>2026-04-12T14:10:06.209Z</time></trkpt><trkpt lat="45.7270016" lon="10.0461824"><ele>407.0</ele><time>2026-04-12T14:10:07.201Z</time></trkpt><trkpt lat="45.7271877" lon="10.0461605"><ele>411.0</ele><time>2026-04-12T14:10:08.205Z</time></trkpt><trkpt lat="45.7273591" lon="10.0461381"><ele>411.0</ele><time>2026-04-12T14:10:09.207Z</time></trkpt><trkpt lat="45.7275368" lon="10.0461206"><ele>411.0</ele><time>2026-04-12T14:10:10.206Z</time></trkpt><trkpt lat="45.7277152" lon="10.046126"><ele>411.0</ele><time>2026-04-12T14:10:11.204Z</time></trkpt><trkpt lat="45.7278984" lon="10.046162"><ele>413.66666666666663</ele><time>2026-04-12T14:10:12.204Z</time></trkpt><trkpt lat="45.7280707" lon="10.0462084"><ele>416.3333333333333</ele><time>2026-04-12T14:10:13.204Z</time></trkpt><trkpt lat="45.7282304" lon="10.046249"><ele>419.0</ele><time>2026-04-12T14:10:14.203Z</time></trkpt><trkpt lat="45.7283863" lon="10.0462793"><ele>419.0</ele><time>2026-04-12T14:10:15.205Z</time></trkpt><trkpt lat="45.7285476" lon="10.0462943"><ele>419.0</ele><time>2026-04-12T14:10:16.206Z</time></trkpt><trkpt lat="45.7287146" lon="10.0462776"><ele>419.0</ele><time>2026-04-12T14:10:17.203Z</time></trkpt><trkpt lat="45.728882" lon="10.0462324"><ele>418.0</ele><time>2026-04-12T14:10:18.205Z</time></trkpt><trkpt lat="45.7290427" lon="10.0461737"><ele>417.0</ele><time>2026-04-12T14:10:19.205Z</time></trkpt><trkpt lat="45.7291908" lon="10.0461239"><ele>416.0</ele><time>2026-04-12T14:10:20.204Z</time></trkpt><trkpt lat="45.7293197" lon="10.0460932"><ele>415.0</ele><time>2026-04-12T14:10:21.21Z</time></trkpt><trkpt lat="45.7295188" lon="10.0460797"><ele>413.2</ele><time>2026-04-12T14:10:23.205Z</time></trkpt><trkpt lat="45.7295999" lon="10.0460565"><ele>411.4</ele><time>2026-04-12T14:10:24.213Z</time></trkpt><trkpt lat="45.729663" lon="10.0459986"><ele>409.6</ele><time>2026-04-12T14:10:25.215Z</time></trkpt><trkpt lat="45.7297119" lon="10.0458976"><ele>407.8</ele><time>2026-04-12T14:10:26.203Z</time></trkpt><trkpt lat="45.7297408" lon="10.0457436"><ele>406.0</ele><time>2026-04-12T14:10:27.215Z</time></trkpt><trkpt lat="45.7297661" lon="10.0455386"><ele>406.0</ele><time>2026-04-12T14:10:28.21Z</time></trkpt><trkpt lat="45.729804" lon="10.0453149"><ele>406.0</ele><time>2026-04-12T14:10:29.208Z</time></trkpt><trkpt lat="45.7298657" lon="10.0450879"><ele>406.0</ele><time>2026-04-12T14:10:30.207Z</time></trkpt><trkpt lat="45.7299486" lon="10.0448616"><ele>401.0</ele><time>2026-04-12T14:10:31.209Z</time></trkpt><trkpt lat="45.7300498" lon="10.0446355"><ele>396.0</ele><time>2026-04-12T14:10:32.215Z</time></trkpt><trkpt lat="45.7301439" lon="10.0444034"><ele>391.0</ele><time>2026-04-12T14:10:33.21Z</time></trkpt><trkpt lat="45.7302253" lon="10.044155"><ele>397.33333333333337</ele><time>2026-04-12T14:10:34.205Z</time></trkpt><trkpt lat="45.7303001" lon="10.0438953"><ele>403.66666666666663</ele><time>2026-04-12T14:10:35.204Z</time></trkpt><trkpt lat="45.7303726" lon="10.0436316"><ele>410.0</ele><time>2026-04-12T14:10:36.199Z</time></trkpt><trkpt lat="45.7304485" lon="10.0433664"><ele>415.0</ele><time>2026-04-12T14:10:37.205Z</time></trkpt><trkpt lat="45.7305158" lon="10.0431095"><ele>420.0</ele><time>2026-04-12T14:10:38.205Z</time></trkpt><trkpt lat="45.7305711" lon="10.0428559"><ele>425.0</ele><time>2026-04-12T14:10:39.209Z</time></trkpt><trkpt lat="45.7306156" lon="10.0426169"><ele>433.0</ele><time>2026-04-12T14:10:40.199Z</time></trkpt><trkpt lat="45.7306533" lon="10.0423982"><ele>441.0</ele><time>2026-04-12T14:10:41.206Z</time></trkpt><trkpt lat="45.7306779" lon="10.0422014"><ele>449.0</ele><time>2026-04-12T14:10:42.212Z</time></trkpt><trkpt lat="45.7306877" lon="10.0419035"><ele>448.99999999999994</ele><time>2026-04-12T14:10:44.209Z</time></trkpt><trkpt lat="45.7307148" lon="10.0418022"><ele>449.0</ele><time>2026-04-12T14:10:45.2Z</time></trkpt><trkpt lat="45.7307716" lon="10.0417343"><ele>449.0</ele><time>2026-04-12T14:10:46.199Z</time></trkpt><trkpt lat="45.7308502" lon="10.0417048"><ele>449.0</ele><time>2026-04-12T14:10:47.199Z</time></trkpt><trkpt lat="45.7309479" lon="10.0416966"><ele>448.99999999999994</ele><time>2026-04-12T14:10:48.204Z</time></trkpt><trkpt lat="45.7310467" lon="10.0417127"><ele>449.0</ele><time>2026-04-12T14:10:49.205Z</time></trkpt><trkpt lat="45.7311348" lon="10.0417604"><ele>451.5</ele><time>2026-04-12T14:10:50.204Z</time></trkpt><trkpt lat="45.7312016" lon="10.0418545"><ele>454.0</ele><time>2026-04-12T14:10:51.2Z</time></trkpt><trkpt lat="45.7312441" lon="10.0419978"><ele>456.5</ele><time>2026-04-12T14:10:52.204Z</time></trkpt><trkpt lat="45.731272" lon="10.0421844"><ele>459.0</ele><time>2026-04-12T14:10:53.202Z</time></trkpt><trkpt lat="45.7313048" lon="10.0423782"><ele>455.33333333333337</ele><time>2026-04-12T14:10:54.204Z</time></trkpt><trkpt lat="45.7313564" lon="10.0425935"><ele>451.6666666666667</ele><time>2026-04-12T14:10:55.204Z</time></trkpt><trkpt lat="45.7314074" lon="10.0428292"><ele>448.0</ele><time>2026-04-12T14:10:56.201Z</time></trkpt><trkpt lat="45.7314316" lon="10.0430723"><ele>446.6666666666667</ele><time>2026-04-12T14:10:57.205Z</time></trkpt><trkpt lat="45.7314486" lon="10.043329"><ele>445.33333333333337</ele><time>2026-04-12T14:10:58.209Z</time></trkpt><trkpt lat="45.7314766" lon="10.0436008"><ele>444.0</ele><time>2026-04-12T14:10:59.209Z</time></trkpt><trkpt lat="45.7315171" lon="10.0438819"><ele>437.66666666666663</ele><time>2026-04-12T14:11:00.201Z</time></trkpt><trkpt lat="45.7315638" lon="10.0441665"><ele>431.3333333333333</ele><time>2026-04-12T14:11:01.203Z</time></trkpt><trkpt lat="45.7316103" lon="10.044437"><ele>425.0</ele><time>2026-04-12T14:11:02.2Z</time></trkpt><trkpt lat="45.7316635" lon="10.0446969"><ele>422.0</ele><time>2026-04-12T14:11:03.202Z</time></trkpt><trkpt lat="45.7317782" lon="10.0451709"><ele>419.0</ele><time>2026-04-12T14:11:05.204Z</time></trkpt><trkpt lat="45.731814" lon="10.0454043"><ele>419.0</ele><time>2026-04-12T14:11:06.207Z</time></trkpt><trkpt lat="45.7318502" lon="10.0456342"><ele>419.0</ele><time>2026-04-12T14:11:07.207Z</time></trkpt><trkpt lat="45.7319029" lon="10.0458573"><ele>419.0</ele><time>2026-04-12T14:11:08.211Z</time></trkpt><trkpt lat="45.7319698" lon="10.0460745"><ele>432.66666666666663</ele><time>2026-04-12T14:11:09.214Z</time></trkpt><trkpt lat="45.7320344" lon="10.0462755"><ele>446.33333333333337</ele><time>2026-04-12T14:11:10.203Z</time></trkpt><trkpt lat="45.7321051" lon="10.0464705"><ele>460.0</ele><time>2026-04-12T14:11:11.207Z</time></trkpt><trkpt lat="45.7321954" lon="10.0466577"><ele>460.0</ele><time>2026-04-12T14:11:12.21Z</time></trkpt><trkpt lat="45.7323096" lon="10.0468396"><ele>460.0</ele><time>2026-04-12T14:11:13.213Z</time></trkpt><trkpt lat="45.7324477" lon="10.0470207"><ele>460.0</ele><time>2026-04-12T14:11:14.207Z</time></trkpt><trkpt lat="45.7325996" lon="10.0471965"><ele>463.33333333333337</ele><time>2026-04-12T14:11:15.21Z</time></trkpt><trkpt lat="45.7327518" lon="10.0473696"><ele>466.66666666666663</ele><time>2026-04-12T14:11:16.211Z</time></trkpt><trkpt lat="45.7329073" lon="10.0475289"><ele>470.0</ele><time>2026-04-12T14:11:17.206Z</time></trkpt><trkpt lat="45.7330641" lon="10.0476766"><ele>470.0</ele><time>2026-04-12T14:11:18.212Z</time></trkpt><trkpt lat="45.7332172" lon="10.0478248"><ele>470.0</ele><time>2026-04-12T14:11:19.205Z</time></trkpt><trkpt lat="45.7333695" lon="10.047962"><ele>470.0</ele><time>2026-04-12T14:11:20.211Z</time></trkpt><trkpt lat="45.7335144" lon="10.0480829"><ele>474.25</ele><time>2026-04-12T14:11:21.219Z</time></trkpt><trkpt lat="45.7336343" lon="10.0481894"><ele>478.5</ele><time>2026-04-12T14:11:22.222Z</time></trkpt><trkpt lat="45.7337522" lon="10.0482892"><ele>482.75</ele><time>2026-04-12T14:11:23.208Z</time></trkpt><trkpt lat="45.733867" lon="10.0483913"><ele>487.0</ele><time>2026-04-12T14:11:24.208Z</time></trkpt><trkpt lat="45.7340652" lon="10.0486495"><ele>487.0</ele><time>2026-04-12T14:11:26.204Z</time></trkpt><trkpt lat="45.7341232" lon="10.0488107"><ele>487.00000000000006</ele><time>2026-04-12T14:11:27.203Z</time></trkpt><trkpt lat="45.7341574" lon="10.0489675"><ele>487.00000000000006</ele><time>2026-04-12T14:11:28.208Z</time></trkpt><trkpt lat="45.734191" lon="10.0490974"><ele>487.0</ele><time>2026-04-12T14:11:29.21Z</time></trkpt><trkpt lat="45.7342259" lon="10.0491831"><ele>487.0</ele><time>2026-04-12T14:11:30.206Z</time></trkpt><trkpt lat="45.7343195" lon="10.0491934"><ele>487.0</ele><time>2026-04-12T14:11:32.204Z</time></trkpt><trkpt lat="45.734373" lon="10.049035"><ele>487.00000000000006</ele><time>2026-04-12T14:11:34.207Z</time></trkpt><trkpt lat="45.7343622" lon="10.0489278"><ele>487.00000000000006</ele><time>2026-04-12T14:11:35.203Z</time></trkpt><trkpt lat="45.734314" lon="10.0488161"><ele>487.0</ele><time>2026-04-12T14:11:36.204Z</time></trkpt><trkpt lat="45.7342393" lon="10.0486965"><ele>487.0</ele><time>2026-04-12T14:11:37.203Z</time></trkpt><trkpt lat="45.7341581" lon="10.0485464"><ele>487.0</ele><time>2026-04-12T14:11:38.211Z</time></trkpt><trkpt lat="45.7340741" lon="10.0483753"><ele>487.0</ele><time>2026-04-12T14:11:39.212Z</time></trkpt><trkpt lat="45.7339848" lon="10.0482054"><ele>487.0</ele><time>2026-04-12T14:11:40.209Z</time></trkpt><trkpt lat="45.7338891" lon="10.0480569"><ele>487.0</ele><time>2026-04-12T14:11:41.204Z</time></trkpt><trkpt lat="45.7338093" lon="10.047921"><ele>493.25</ele><time>2026-04-12T14:11:42.205Z</time></trkpt><trkpt lat="45.7337569" lon="10.0477803"><ele>499.5</ele><time>2026-04-12T14:11:43.211Z</time></trkpt><trkpt lat="45.7337365" lon="10.0476262"><ele>505.75</ele><time>2026-04-12T14:11:44.212Z</time></trkpt><trkpt lat="45.7337271" lon="10.0474585"><ele>512.0</ele><time>2026-04-12T14:11:45.203Z</time></trkpt><trkpt lat="45.7336727" lon="10.0471329"><ele>516.5</ele><time>2026-04-12T14:11:47.212Z</time></trkpt><trkpt lat="45.7336167" lon="10.0469954"><ele>521.0</ele><time>2026-04-12T14:11:48.202Z</time></trkpt><trkpt lat="45.7335442" lon="10.0468813"><ele>525.5</ele><time>2026-04-12T14:11:49.211Z</time></trkpt><trkpt lat="45.7334527" lon="10.0467761"><ele>530.0</ele><time>2026-04-12T14:11:50.203Z</time></trkpt><trkpt lat="45.733352" lon="10.0466511"><ele>524.5</ele><time>2026-04-12T14:11:51.207Z</time></trkpt><trkpt lat="45.7332501" lon="10.0465203"><ele>519.0</ele><time>2026-04-12T14:11:52.214Z</time></trkpt><trkpt lat="45.7331642" lon="10.04638"><ele>513.5</ele><time>2026-04-12T14:11:53.21Z</time></trkpt><trkpt lat="45.7330957" lon="10.0462189"><ele>508.0</ele><time>2026-04-12T14:11:54.206Z</time></trkpt><trkpt lat="45.7330442" lon="10.0460386"><ele>508.0</ele><time>2026-04-12T14:11:55.211Z</time></trkpt><trkpt lat="45.7330069" lon="10.045834"><ele>508.0</ele><time>2026-04-12T14:11:56.211Z</time></trkpt><trkpt lat="45.7329617" lon="10.0456216"><ele>508.0</ele><time>2026-04-12T14:11:57.209Z</time></trkpt><trkpt lat="45.7329037" lon="10.0454185"><ele>510.59999999999997</ele><time>2026-04-12T14:11:58.21Z</time></trkpt><trkpt lat="45.7328435" lon="10.0452371"><ele>513.1999999999999</ele><time>2026-04-12T14:11:59.21Z</time></trkpt><trkpt lat="45.7327975" lon="10.0450861"><ele>515.8</ele><time>2026-04-12T14:12:00.211Z</time></trkpt><trkpt lat="45.7327755" lon="10.0449611"><ele>518.4</ele><time>2026-04-12T14:12:01.213Z</time></trkpt><trkpt lat="45.7327766" lon="10.0448573"><ele>521.0</ele><time>2026-04-12T14:12:02.216Z</time></trkpt><trkpt lat="45.7328405" lon="10.0447465"><ele>521.0</ele><time>2026-04-12T14:12:04.203Z</time></trkpt><trkpt lat="45.7329552" lon="10.0448203"><ele>521.0</ele><time>2026-04-12T14:12:06.214Z</time></trkpt><trkpt lat="45.7330665" lon="10.0450492"><ele>521.0</ele><time>2026-04-12T14:12:08.211Z</time></trkpt><trkpt lat="45.7331259" lon="10.0451872"><ele>521.0</ele><time>2026-04-12T14:12:09.208Z</time></trkpt><trkpt lat="45.7331919" lon="10.045328"><ele>521.0</ele><time>2026-04-12T14:12:10.208Z</time></trkpt><trkpt lat="45.7332617" lon="10.0454923"><ele>521.0</ele><time>2026-04-12T14:12:11.208Z</time></trkpt><trkpt lat="45.7333186" lon="10.0456616"><ele>521.0</ele><time>2026-04-12T14:12:12.207Z</time></trkpt><trkpt lat="45.7333711" lon="10.0458379"><ele>521.0</ele><time>2026-04-12T14:12:13.214Z</time></trkpt><trkpt lat="45.7334353" lon="10.0460105"><ele>516.6666666666666</ele><time>2026-04-12T14:12:14.203Z</time></trkpt><trkpt lat="45.7335257" lon="10.0461695"><ele>512.3333333333334</ele><time>2026-04-12T14:12:15.213Z</time></trkpt><trkpt lat="45.7336369" lon="10.0463187"><ele>508.0</ele><time>2026-04-12T14:12:16.213Z</time></trkpt><trkpt lat="45.7337503" lon="10.0464688"><ele>515.3333333333334</ele><time>2026-04-12T14:12:17.216Z</time></trkpt><trkpt lat="45.7338673" lon="10.0466246"><ele>522.6666666666666</ele><time>2026-04-12T14:12:18.208Z</time></trkpt><trkpt lat="45.7339956" lon="10.04677"><ele>530.0</ele><time>2026-04-12T14:12:19.205Z</time></trkpt><trkpt lat="45.7341183" lon="10.0468818"><ele>530.0</ele><time>2026-04-12T14:12:20.211Z</time></trkpt><trkpt lat="45.7342259" lon="10.0469819"><ele>530.0</ele><time>2026-04-12T14:12:21.21Z</time></trkpt><trkpt lat="45.734309" lon="10.0470951"><ele>530.0</ele><time>2026-04-12T14:12:22.217Z</time></trkpt><trkpt lat="45.7343669" lon="10.0472041"><ele>530.0</ele><time>2026-04-12T14:12:23.205Z</time></trkpt><trkpt lat="45.734408" lon="10.0472978"><ele>530.0</ele><time>2026-04-12T14:12:24.217Z</time></trkpt><trkpt lat="45.7344677" lon="10.0473652"><ele>530.0</ele><time>2026-04-12T14:12:26.208Z</time></trkpt><trkpt lat="45.734483" lon="10.0472139"><ele>530.0</ele><time>2026-04-12T14:12:28.212Z</time></trkpt><trkpt lat="45.7344146" lon="10.0469971"><ele>530.0</ele><time>2026-04-12T14:12:30.204Z</time></trkpt><trkpt lat="45.7343436" lon="10.0468728"><ele>530.0</ele><time>2026-04-12T14:12:31.206Z</time></trkpt><trkpt lat="45.7342645" lon="10.0467192"><ele>533.5</ele><time>2026-04-12T14:12:32.212Z</time></trkpt><trkpt lat="45.7341877" lon="10.046541"><ele>537.0</ele><time>2026-04-12T14:12:33.203Z</time></trkpt><trkpt lat="45.73412" lon="10.046362"><ele>540.5</ele><time>2026-04-12T14:12:34.21Z</time></trkpt><trkpt lat="45.7340643" lon="10.0461907"><ele>544.0</ele><time>2026-04-12T14:12:35.211Z</time></trkpt><trkpt lat="45.734028" lon="10.0460171"><ele>544.0</ele><time>2026-04-12T14:12:36.205Z</time></trkpt><trkpt lat="45.7340176" lon="10.0458228"><ele>544.0</ele><time>2026-04-12T14:12:37.212Z</time></trkpt><trkpt lat="45.7340285" lon="10.0456153"><ele>544.0</ele><time>2026-04-12T14:12:38.208Z</time></trkpt><trkpt lat="45.7340478" lon="10.045402"><ele>544.0</ele><time>2026-04-12T14:12:39.207Z</time></trkpt><trkpt lat="45.7340693" lon="10.0451998"><ele>545.25</ele><time>2026-04-12T14:12:40.207Z</time></trkpt><trkpt lat="45.7340875" lon="10.045011"><ele>546.5</ele><time>2026-04-12T14:12:41.208Z</time></trkpt><trkpt lat="45.7340911" lon="10.0448274"><ele>547.75</ele><time>2026-04-12T14:12:42.215Z</time></trkpt><trkpt lat="45.7340692" lon="10.0446411"><ele>549.0</ele><time>2026-04-12T14:12:43.203Z</time></trkpt><trkpt lat="45.734019" lon="10.0444559"><ele>549.75</ele><time>2026-04-12T14:12:44.21Z</time></trkpt><trkpt lat="45.73396" lon="10.0442807"><ele>550.5</ele><time>2026-04-12T14:12:45.204Z</time></trkpt><trkpt lat="45.7339126" lon="10.0441225"><ele>551.25</ele><time>2026-04-12T14:12:46.224Z</time></trkpt><trkpt lat="45.7338737" lon="10.0439767"><ele>552.0</ele><time>2026-04-12T14:12:47.206Z</time></trkpt><trkpt lat="45.7338523" lon="10.0438492"><ele>552.75</ele><time>2026-04-12T14:12:48.203Z</time></trkpt><trkpt lat="45.7338581" lon="10.0437501"><ele>553.5</ele><time>2026-04-12T14:12:49.21Z</time></trkpt><trkpt lat="45.7340381" lon="10.0437529"><ele>554.25</ele><time>2026-04-12T14:12:53.215Z</time></trkpt><trkpt lat="45.7340803" lon="10.0438643"><ele>555.0</ele><time>2026-04-12T14:12:54.212Z</time></trkpt><trkpt lat="45.7341242" lon="10.0440139"><ele>554.25</ele><time>2026-04-12T14:12:55.209Z</time></trkpt><trkpt lat="45.7341656" lon="10.0441751"><ele>553.5</ele><time>2026-04-12T14:12:56.205Z</time></trkpt><trkpt lat="45.7342191" lon="10.0443167"><ele>552.75</ele><time>2026-04-12T14:12:57.209Z</time></trkpt><trkpt lat="45.734276" lon="10.0444613"><ele>552.0</ele><time>2026-04-12T14:12:58.21Z</time></trkpt><trkpt lat="45.7343149" lon="10.0446124"><ele>552.0</ele><time>2026-04-12T14:12:59.21Z</time></trkpt><trkpt lat="45.7343279" lon="10.0447743"><ele>552.0</ele><time>2026-04-12T14:13:00.213Z</time></trkpt><trkpt lat="45.7343138" lon="10.0449544"><ele>552.0</ele><time>2026-04-12T14:13:01.204Z</time></trkpt><trkpt lat="45.7342937" lon="10.0451475"><ele>552.0</ele><time>2026-04-12T14:13:02.206Z</time></trkpt><trkpt lat="45.7342837" lon="10.0453485"><ele>551.4</ele><time>2026-04-12T14:13:03.211Z</time></trkpt><trkpt lat="45.7342887" lon="10.0455113"><ele>550.8000000000001</ele><time>2026-04-12T14:13:04.213Z</time></trkpt><trkpt lat="45.7342987" lon="10.0456203"><ele>550.2</ele><time>2026-04-12T14:13:05.213Z</time></trkpt><trkpt lat="45.7343518" lon="10.0457519"><ele>549.6</ele><time>2026-04-12T14:13:07.214Z</time></trkpt><trkpt lat="45.7344431" lon="10.0457215"><ele>549.0</ele><time>2026-04-12T14:13:09.211Z</time></trkpt><trkpt lat="45.7344737" lon="10.0456387"><ele>559.6666666666666</ele><time>2026-04-12T14:13:10.211Z</time></trkpt><trkpt lat="45.7344533" lon="10.04536"><ele>570.3333333333333</ele><time>2026-04-12T14:13:12.212Z</time></trkpt><trkpt lat="45.734444" lon="10.0451802"><ele>581.0</ele><time>2026-04-12T14:13:13.212Z</time></trkpt><trkpt lat="45.7344598" lon="10.044998"><ele>581.3333333333333</ele><time>2026-04-12T14:13:14.213Z</time></trkpt><trkpt lat="45.7344878" lon="10.0448443"><ele>581.6666666666666</ele><time>2026-04-12T14:13:15.21Z</time></trkpt><trkpt lat="45.734521" lon="10.0447171"><ele>582.0</ele><time>2026-04-12T14:13:16.213Z</time></trkpt><trkpt lat="45.7345595" lon="10.044626"><ele>582.3333333333334</ele><time>2026-04-12T14:13:17.207Z</time></trkpt><trkpt lat="45.7346118" lon="10.0445749"><ele>582.6666666666667</ele><time>2026-04-12T14:13:18.202Z</time></trkpt><trkpt lat="45.7347129" lon="10.0446182"><ele>583.0</ele><time>2026-04-12T14:13:20.215Z</time></trkpt><trkpt lat="45.734734" lon="10.04471"><ele>583.0</ele><time>2026-04-12T14:13:21.207Z</time></trkpt><trkpt lat="45.7347172" lon="10.0448489"><ele>583.0</ele><time>2026-04-12T14:13:22.214Z</time></trkpt><trkpt lat="45.7346839" lon="10.0450281"><ele>583.0</ele><time>2026-04-12T14:13:23.22Z</time></trkpt><trkpt lat="45.7346555" lon="10.045218"><ele>583.0</ele><time>2026-04-12T14:13:24.211Z</time></trkpt><trkpt lat="45.7346599" lon="10.0454105"><ele>582.3333333333334</ele><time>2026-04-12T14:13:25.213Z</time></trkpt><trkpt lat="45.7346983" lon="10.0456055"><ele>581.6666666666666</ele><time>2026-04-12T14:13:26.216Z</time></trkpt><trkpt lat="45.7347465" lon="10.045826"><ele>581.0</ele><time>2026-04-12T14:13:27.211Z</time></trkpt><trkpt lat="45.7348128" lon="10.0460353"><ele>578.6666666666666</ele><time>2026-04-12T14:13:28.212Z</time></trkpt><trkpt lat="45.7348885" lon="10.0462412"><ele>576.3333333333334</ele><time>2026-04-12T14:13:29.213Z</time></trkpt><trkpt lat="45.7349728" lon="10.0464459"><ele>574.0</ele><time>2026-04-12T14:13:30.21Z</time></trkpt><trkpt lat="45.7350601" lon="10.0466552"><ele>571.5</ele><time>2026-04-12T14:13:31.215Z</time></trkpt><trkpt lat="45.735216" lon="10.0470534"><ele>569.0</ele><time>2026-04-12T14:13:33.215Z</time></trkpt><trkpt lat="45.735286" lon="10.0472366"><ele>574.5</ele><time>2026-04-12T14:13:34.209Z</time></trkpt><trkpt lat="45.7353544" lon="10.0474104"><ele>580.0</ele><time>2026-04-12T14:13:35.207Z</time></trkpt><trkpt lat="45.735427" lon="10.047558"><ele>585.5</ele><time>2026-04-12T14:13:36.216Z</time></trkpt><trkpt lat="45.7354965" lon="10.0476782"><ele>591.0</ele><time>2026-04-12T14:13:37.211Z</time></trkpt><trkpt lat="45.735559" lon="10.0477695"><ele>591.0</ele><time>2026-04-12T14:13:38.209Z</time></trkpt><trkpt lat="45.7356128" lon="10.0478282"><ele>591.0</ele><time>2026-04-12T14:13:39.209Z</time></trkpt><trkpt lat="45.7357104" lon="10.0478457"><ele>591.0</ele><time>2026-04-12T14:13:41.211Z</time></trkpt><trkpt lat="45.7357342" lon="10.0476461"><ele>591.0</ele><time>2026-04-12T14:13:43.212Z</time></trkpt><trkpt lat="45.7357062" lon="10.0474973"><ele>591.0</ele><time>2026-04-12T14:13:44.212Z</time></trkpt><trkpt lat="45.7356617" lon="10.0473245"><ele>595.0</ele><time>2026-04-12T14:13:45.209Z</time></trkpt><trkpt lat="45.7356183" lon="10.0471338"><ele>599.0</ele><time>2026-04-12T14:13:46.212Z</time></trkpt><trkpt lat="45.7355937" lon="10.046914"><ele>603.0</ele><time>2026-04-12T14:13:47.225Z</time></trkpt><trkpt lat="45.73559" lon="10.0466805"><ele>603.6666666666666</ele><time>2026-04-12T14:13:48.209Z</time></trkpt><trkpt lat="45.7355981" lon="10.0464501"><ele>604.3333333333333</ele><time>2026-04-12T14:13:49.216Z</time></trkpt><trkpt lat="45.7356083" lon="10.0462187"><ele>605.0</ele><time>2026-04-12T14:13:50.215Z</time></trkpt><trkpt lat="45.735616" lon="10.0459838"><ele>610.0</ele><time>2026-04-12T14:13:51.205Z</time></trkpt><trkpt lat="45.7356162" lon="10.0457404"><ele>615.0</ele><time>2026-04-12T14:13:52.211Z</time></trkpt><trkpt lat="45.7355864" lon="10.0452271"><ele>615.0</ele><time>2026-04-12T14:13:54.208Z</time></trkpt><trkpt lat="45.7355693" lon="10.0449706"><ele>615.0</ele><time>2026-04-12T14:13:55.207Z</time></trkpt><trkpt lat="45.7355603" lon="10.0447205"><ele>615.0</ele><time>2026-04-12T14:13:56.207Z</time></trkpt><trkpt lat="45.7355705" lon="10.044476"><ele>615.75</ele><time>2026-04-12T14:13:57.211Z</time></trkpt><trkpt lat="45.7355967" lon="10.0442452"><ele>616.5</ele><time>2026-04-12T14:13:58.204Z</time></trkpt><trkpt lat="45.73563" lon="10.0440337"><ele>617.25</ele><time>2026-04-12T14:13:59.208Z</time></trkpt><trkpt lat="45.7356433" lon="10.0438435"><ele>618.0</ele><time>2026-04-12T14:14:00.206Z</time></trkpt><trkpt lat="45.7356305" lon="10.0436702"><ele>618.1999999999999</ele><time>2026-04-12T14:14:01.205Z</time></trkpt><trkpt lat="45.7355931" lon="10.0435243"><ele>618.4</ele><time>2026-04-12T14:14:02.208Z</time></trkpt><trkpt lat="45.7355621" lon="10.0433903"><ele>618.5999999999999</ele><time>2026-04-12T14:14:03.205Z</time></trkpt><trkpt lat="45.7355548" lon="10.0432541"><ele>618.8</ele><time>2026-04-12T14:14:04.21Z</time></trkpt><trkpt lat="45.7355809" lon="10.0431123"><ele>619.0</ele><time>2026-04-12T14:14:05.208Z</time></trkpt><trkpt lat="45.7356292" lon="10.0429742"><ele>619.0</ele><time>2026-04-12T14:14:06.204Z</time></trkpt><trkpt lat="45.7356742" lon="10.0428586"><ele>619.0</ele><time>2026-04-12T14:14:07.205Z</time></trkpt><trkpt lat="45.7357196" lon="10.0427737"><ele>619.0</ele><time>2026-04-12T14:14:08.206Z</time></trkpt><trkpt lat="45.7358274" lon="10.0427435"><ele>619.0</ele><time>2026-04-12T14:14:10.207Z</time></trkpt><trkpt lat="45.7358753" lon="10.042809"><ele>619.0</ele><time>2026-04-12T14:14:11.203Z</time></trkpt><trkpt lat="45.7358941" lon="10.0429276"><ele>619.0</ele><time>2026-04-12T14:14:12.212Z</time></trkpt><trkpt lat="45.735898" lon="10.0430893"><ele>620.0</ele><time>2026-04-12T14:14:13.211Z</time></trkpt><trkpt lat="45.7359251" lon="10.0434723"><ele>621.0</ele><time>2026-04-12T14:14:15.208Z</time></trkpt><trkpt lat="45.735966" lon="10.0436851"><ele>622.0</ele><time>2026-04-12T14:14:16.208Z</time></trkpt><trkpt lat="45.7360211" lon="10.0438952"><ele>633.0</ele><time>2026-04-12T14:14:17.209Z</time></trkpt><trkpt lat="45.7360925" lon="10.0440984"><ele>644.0</ele><time>2026-04-12T14:14:18.209Z</time></trkpt><trkpt lat="45.7361758" lon="10.0443194"><ele>655.0</ele><time>2026-04-12T14:14:19.211Z</time></trkpt><trkpt lat="45.7362708" lon="10.0445442"><ele>655.0</ele><time>2026-04-12T14:14:20.211Z</time></trkpt><trkpt lat="45.7363726" lon="10.0447707"><ele>655.0</ele><time>2026-04-12T14:14:21.213Z</time></trkpt><trkpt lat="45.7364821" lon="10.0449962"><ele>655.0</ele><time>2026-04-12T14:14:22.219Z</time></trkpt><trkpt lat="45.7365872" lon="10.0452251"><ele>650.6666666666667</ele><time>2026-04-12T14:14:23.217Z</time></trkpt><trkpt lat="45.7366841" lon="10.045437"><ele>646.3333333333334</ele><time>2026-04-12T14:14:24.208Z</time></trkpt><trkpt lat="45.7367737" lon="10.0456225"><ele>642.0</ele><time>2026-04-12T14:14:25.214Z</time></trkpt><trkpt lat="45.7368579" lon="10.045789"><ele>646.2</ele><time>2026-04-12T14:14:26.214Z</time></trkpt><trkpt lat="45.7369324" lon="10.0459339"><ele>650.4000000000001</ele><time>2026-04-12T14:14:27.22Z</time></trkpt><trkpt lat="45.7369974" lon="10.046048"><ele>654.5999999999999</ele><time>2026-04-12T14:14:28.215Z</time></trkpt><trkpt lat="45.7370577" lon="10.0461254"><ele>658.8</ele><time>2026-04-12T14:14:29.217Z</time></trkpt><trkpt lat="45.7371514" lon="10.0461374"><ele>663.0</ele><time>2026-04-12T14:14:31.215Z</time></trkpt><trkpt lat="45.7371951" lon="10.0459608"><ele>663.0</ele><time>2026-04-12T14:14:33.221Z</time></trkpt><trkpt lat="45.7371781" lon="10.045832"><ele>663.0</ele><time>2026-04-12T14:14:34.212Z</time></trkpt><trkpt lat="45.7370949" lon="10.0455313"><ele>663.0</ele><time>2026-04-12T14:14:36.213Z</time></trkpt><trkpt lat="45.7370535" lon="10.0453429"><ele>669.6666666666666</ele><time>2026-04-12T14:14:37.214Z</time></trkpt><trkpt lat="45.7370111" lon="10.0451313"><ele>676.3333333333333</ele><time>2026-04-12T14:14:38.215Z</time></trkpt><trkpt lat="45.7369721" lon="10.0449219"><ele>683.0</ele><time>2026-04-12T14:14:39.212Z</time></trkpt><trkpt lat="45.736934" lon="10.0447171"><ele>686.75</ele><time>2026-04-12T14:14:40.216Z</time></trkpt><trkpt lat="45.7368956" lon="10.0445114"><ele>690.5</ele><time>2026-04-12T14:14:41.215Z</time></trkpt><trkpt lat="45.7368522" lon="10.0443034"><ele>694.25</ele><time>2026-04-12T14:14:42.222Z</time></trkpt><trkpt lat="45.736814" lon="10.0440989"><ele>698.0</ele><time>2026-04-12T14:14:43.216Z</time></trkpt><trkpt lat="45.7367851" lon="10.0439002"><ele>689.25</ele><time>2026-04-12T14:14:44.212Z</time></trkpt><trkpt lat="45.7367705" lon="10.0436974"><ele>680.5</ele><time>2026-04-12T14:14:45.216Z</time></trkpt><trkpt lat="45.7367665" lon="10.0434901"><ele>671.75</ele><time>2026-04-12T14:14:46.215Z</time></trkpt><trkpt lat="45.7367731" lon="10.0432948"><ele>663.0</ele><time>2026-04-12T14:14:47.213Z</time></trkpt><trkpt lat="45.7367933" lon="10.0431131"><ele>661.75</ele><time>2026-04-12T14:14:48.205Z</time></trkpt><trkpt lat="45.7368382" lon="10.0429287"><ele>660.5</ele><time>2026-04-12T14:14:49.209Z</time></trkpt><trkpt lat="45.7368989" lon="10.0427407"><ele>659.25</ele><time>2026-04-12T14:14:50.219Z</time></trkpt><trkpt lat="45.7369658" lon="10.0425491"><ele>658.0</ele><time>2026-04-12T14:14:51.214Z</time></trkpt><trkpt lat="45.7370345" lon="10.0423534"><ele>670.25</ele><time>2026-04-12T14:14:52.213Z</time></trkpt><trkpt lat="45.7370981" lon="10.0421631"><ele>682.5</ele><time>2026-04-12T14:14:53.209Z</time></trkpt><trkpt lat="45.7371536" lon="10.0419808"><ele>694.75</ele><time>2026-04-12T14:14:54.212Z</time></trkpt><trkpt lat="45.7371935" lon="10.0417988"><ele>707.0</ele><time>2026-04-12T14:14:55.208Z</time></trkpt><trkpt lat="45.7371886" lon="10.0414049"><ele>709.6666666666666</ele><time>2026-04-12T14:14:57.208Z</time></trkpt><trkpt lat="45.737148" lon="10.0411864"><ele>712.3333333333334</ele><time>2026-04-12T14:14:58.206Z</time></trkpt><trkpt lat="45.7371012" lon="10.0409615"><ele>715.0</ele><time>2026-04-12T14:14:59.209Z</time></trkpt><trkpt lat="45.73707" lon="10.0407296"><ele>717.25</ele><time>2026-04-12T14:15:00.204Z</time></trkpt><trkpt lat="45.737053" lon="10.0405005"><ele>719.5</ele><time>2026-04-12T14:15:01.208Z</time></trkpt><trkpt lat="45.7370414" lon="10.0402814"><ele>721.75</ele><time>2026-04-12T14:15:02.206Z</time></trkpt><trkpt lat="45.7370241" lon="10.0401028"><ele>724.0</ele><time>2026-04-12T14:15:03.205Z</time></trkpt><trkpt lat="45.7370049" lon="10.0399734"><ele>724.0</ele><time>2026-04-12T14:15:04.206Z</time></trkpt><trkpt lat="45.736989" lon="10.0398794"><ele>724.0</ele><time>2026-04-12T14:15:05.203Z</time></trkpt><trkpt lat="45.7369916" lon="10.0397743"><ele>724.0</ele><time>2026-04-12T14:15:07.204Z</time></trkpt><trkpt lat="45.7370778" lon="10.0397792"><ele>724.0</ele><time>2026-04-12T14:15:09.208Z</time></trkpt><trkpt lat="45.7371221" lon="10.0398623"><ele>724.0</ele><time>2026-04-12T14:15:10.208Z</time></trkpt><trkpt lat="45.7371562" lon="10.0399954"><ele>724.0</ele><time>2026-04-12T14:15:11.218Z</time></trkpt><trkpt lat="45.737185" lon="10.0401749"><ele>724.0</ele><time>2026-04-12T14:15:12.214Z</time></trkpt><trkpt lat="45.7372156" lon="10.0403563"><ele>724.0</ele><time>2026-04-12T14:15:13.208Z</time></trkpt><trkpt lat="45.7372553" lon="10.0405314"><ele>724.0</ele><time>2026-04-12T14:15:14.209Z</time></trkpt><trkpt lat="45.7373078" lon="10.0407142"><ele>724.0</ele><time>2026-04-12T14:15:15.208Z</time></trkpt><trkpt lat="45.7373702" lon="10.0408967"><ele>721.0</ele><time>2026-04-12T14:15:16.212Z</time></trkpt><trkpt lat="45.7374945" lon="10.0412472"><ele>718.0</ele><time>2026-04-12T14:15:18.217Z</time></trkpt><trkpt lat="45.7375542" lon="10.0414134"><ele>715.0</ele><time>2026-04-12T14:15:19.207Z</time></trkpt><trkpt lat="45.737605" lon="10.0415888"><ele>713.0</ele><time>2026-04-12T14:15:20.209Z</time></trkpt><trkpt lat="45.7376477" lon="10.0417648"><ele>711.0</ele><time>2026-04-12T14:15:21.208Z</time></trkpt><trkpt lat="45.7376785" lon="10.0419523"><ele>709.0</ele><time>2026-04-12T14:15:22.215Z</time></trkpt><trkpt lat="45.7376899" lon="10.0421546"><ele>707.0</ele><time>2026-04-12T14:15:23.215Z</time></trkpt><trkpt lat="45.7376912" lon="10.0423605"><ele>706.75</ele><time>2026-04-12T14:15:24.208Z</time></trkpt><trkpt lat="45.7376888" lon="10.0425563"><ele>706.5</ele><time>2026-04-12T14:15:25.21Z</time></trkpt><trkpt lat="45.7376853" lon="10.0427501"><ele>706.25</ele><time>2026-04-12T14:15:26.209Z</time></trkpt><trkpt lat="45.7376812" lon="10.0429496"><ele>706.0</ele><time>2026-04-12T14:15:27.212Z</time></trkpt><trkpt lat="45.7376794" lon="10.0431531"><ele>706.25</ele><time>2026-04-12T14:15:28.208Z</time></trkpt><trkpt lat="45.7376834" lon="10.0433498"><ele>706.5</ele><time>2026-04-12T14:15:29.205Z</time></trkpt><trkpt lat="45.7376958" lon="10.0435386"><ele>706.75</ele><time>2026-04-12T14:15:30.21Z</time></trkpt><trkpt lat="45.7377123" lon="10.0437099"><ele>707.0</ele><time>2026-04-12T14:15:31.209Z</time></trkpt><trkpt lat="45.7377315" lon="10.0438629"><ele>714.8</ele><time>2026-04-12T14:15:32.213Z</time></trkpt><trkpt lat="45.7377469" lon="10.0440046"><ele>722.6</ele><time>2026-04-12T14:15:33.221Z</time></trkpt><trkpt lat="45.7377632" lon="10.0441322"><ele>730.4</ele><time>2026-04-12T14:15:34.209Z</time></trkpt><trkpt lat="45.737785" lon="10.044233"><ele>738.1999999999999</ele><time>2026-04-12T14:15:35.209Z</time></trkpt><trkpt lat="45.7378531" lon="10.0443461"><ele>746.0</ele><time>2026-04-12T14:15:37.208Z</time></trkpt><trkpt lat="45.7379385" lon="10.0441249"><ele>748.1999999999999</ele><time>2026-04-12T14:15:41.209Z</time></trkpt><trkpt lat="45.7379142" lon="10.0439849"><ele>750.4</ele><time>2026-04-12T14:15:42.215Z</time></trkpt><trkpt lat="45.7378816" lon="10.043826"><ele>752.6</ele><time>2026-04-12T14:15:43.225Z</time></trkpt><trkpt lat="45.7378592" lon="10.0436673"><ele>754.8</ele><time>2026-04-12T14:15:44.213Z</time></trkpt><trkpt lat="45.7378539" lon="10.0435172"><ele>757.0</ele><time>2026-04-12T14:15:45.215Z</time></trkpt><trkpt lat="45.7378665" lon="10.0433736"><ele>756.4000000000001</ele><time>2026-04-12T14:15:46.215Z</time></trkpt><trkpt lat="45.7378898" lon="10.0432373"><ele>755.8000000000001</ele><time>2026-04-12T14:15:47.206Z</time></trkpt><trkpt lat="45.7379199" lon="10.0431059"><ele>755.2</ele><time>2026-04-12T14:15:48.212Z</time></trkpt><trkpt lat="45.737953" lon="10.042978"><ele>754.6</ele><time>2026-04-12T14:15:49.21Z</time></trkpt><trkpt lat="45.7379885" lon="10.0428483"><ele>754.0</ele><time>2026-04-12T14:15:50.217Z</time></trkpt><trkpt lat="45.7380294" lon="10.042712"><ele>754.0</ele><time>2026-04-12T14:15:51.205Z</time></trkpt><trkpt lat="45.7380692" lon="10.0425573"><ele>754.0</ele><time>2026-04-12T14:15:52.208Z</time></trkpt><trkpt lat="45.7381143" lon="10.0423956"><ele>754.0</ele><time>2026-04-12T14:15:53.207Z</time></trkpt><trkpt lat="45.7381598" lon="10.0422397"><ele>754.0</ele><time>2026-04-12T14:15:54.21Z</time></trkpt><trkpt lat="45.7382003" lon="10.0420901"><ele>754.0</ele><time>2026-04-12T14:15:55.215Z</time></trkpt><trkpt lat="45.7382371" lon="10.0419444"><ele>754.0</ele><time>2026-04-12T14:15:56.209Z</time></trkpt><trkpt lat="45.7382637" lon="10.0417981"><ele>754.0</ele><time>2026-04-12T14:15:57.212Z</time></trkpt><trkpt lat="45.7382679" lon="10.0416444"><ele>754.0</ele><time>2026-04-12T14:15:58.205Z</time></trkpt><trkpt lat="45.7381958" lon="10.0413193"><ele>755.25</ele><time>2026-04-12T14:16:00.214Z</time></trkpt><trkpt lat="45.7381346" lon="10.0411505"><ele>756.5</ele><time>2026-04-12T14:16:01.211Z</time></trkpt><trkpt lat="45.7380678" lon="10.0409937"><ele>757.75</ele><time>2026-04-12T14:16:02.211Z</time></trkpt><trkpt lat="45.7380023" lon="10.0408498"><ele>759.0</ele><time>2026-04-12T14:16:03.209Z</time></trkpt><trkpt lat="45.7379467" lon="10.0407076"><ele>759.75</ele><time>2026-04-12T14:16:04.21Z</time></trkpt><trkpt lat="45.7379066" lon="10.0405541"><ele>760.5</ele><time>2026-04-12T14:16:05.205Z</time></trkpt><trkpt lat="45.7378897" lon="10.0403823"><ele>761.25</ele><time>2026-04-12T14:16:06.209Z</time></trkpt><trkpt lat="45.7379052" lon="10.0402049"><ele>762.0</ele><time>2026-04-12T14:16:07.21Z</time></trkpt><trkpt lat="45.7379443" lon="10.0400229"><ele>759.5</ele><time>2026-04-12T14:16:08.206Z</time></trkpt><trkpt lat="45.737992" lon="10.0398444"><ele>757.0</ele><time>2026-04-12T14:16:09.214Z</time></trkpt><trkpt lat="45.7380469" lon="10.0396718"><ele>754.5</ele><time>2026-04-12T14:16:10.211Z</time></trkpt><trkpt lat="45.7381035" lon="10.0395126"><ele>752.0</ele><time>2026-04-12T14:16:11.204Z</time></trkpt><trkpt lat="45.7381652" lon="10.0393638"><ele>752.0</ele><time>2026-04-12T14:16:12.208Z</time></trkpt><trkpt lat="45.73824" lon="10.0392308"><ele>752.0</ele><time>2026-04-12T14:16:13.211Z</time></trkpt><trkpt lat="45.7383236" lon="10.0391292"><ele>752.0</ele><time>2026-04-12T14:16:14.207Z</time></trkpt><trkpt lat="45.7384172" lon="10.0390651"><ele>752.0</ele><time>2026-04-12T14:16:15.211Z</time></trkpt><trkpt lat="45.7385144" lon="10.0390545"><ele>752.0</ele><time>2026-04-12T14:16:16.209Z</time></trkpt><trkpt lat="45.7386261" lon="10.0390773"><ele>756.75</ele><time>2026-04-12T14:16:17.213Z</time></trkpt><trkpt lat="45.7387369" lon="10.039102"><ele>761.5</ele><time>2026-04-12T14:16:18.21Z</time></trkpt><trkpt lat="45.7388435" lon="10.0391127"><ele>766.25</ele><time>2026-04-12T14:16:19.205Z</time></trkpt><trkpt lat="45.7390285" lon="10.0391127"><ele>771.0</ele><time>2026-04-12T14:16:21.21Z</time></trkpt><trkpt lat="45.7391064" lon="10.0390925"><ele>771.0</ele><time>2026-04-12T14:16:22.212Z</time></trkpt><trkpt lat="45.7391738" lon="10.0390396"><ele>771.0</ele><time>2026-04-12T14:16:23.203Z</time></trkpt><trkpt lat="45.7392281" lon="10.0389573"><ele>771.0</ele><time>2026-04-12T14:16:24.208Z</time></trkpt><trkpt lat="45.7392675" lon="10.0388513"><ele>771.0</ele><time>2026-04-12T14:16:25.211Z</time></trkpt><trkpt lat="45.739293" lon="10.0387266"><ele>771.0</ele><time>2026-04-12T14:16:26.204Z</time></trkpt><trkpt lat="45.739293" lon="10.0386002"><ele>771.0</ele><time>2026-04-12T14:16:27.212Z</time></trkpt><trkpt lat="45.7392738" lon="10.0384799"><ele>771.0</ele><time>2026-04-12T14:16:28.204Z</time></trkpt><trkpt lat="45.7392307" lon="10.0383723"><ele>771.0</ele><time>2026-04-12T14:16:29.204Z</time></trkpt><trkpt lat="45.7391673" lon="10.0382773"><ele>771.0</ele><time>2026-04-12T14:16:30.209Z</time></trkpt><trkpt lat="45.7390858" lon="10.0381938"><ele>771.0</ele><time>2026-04-12T14:16:31.213Z</time></trkpt><trkpt lat="45.7389952" lon="10.0381151"><ele>771.0</ele><time>2026-04-12T14:16:32.21Z</time></trkpt><trkpt lat="45.7389073" lon="10.0380369"><ele>774.4</ele><time>2026-04-12T14:16:33.208Z</time></trkpt><trkpt lat="45.7388298" lon="10.0379495"><ele>777.8</ele><time>2026-04-12T14:16:34.207Z</time></trkpt><trkpt lat="45.7387668" lon="10.0378513"><ele>781.1999999999999</ele><time>2026-04-12T14:16:35.205Z</time></trkpt><trkpt lat="45.7387155" lon="10.0377326"><ele>784.5999999999999</ele><time>2026-04-12T14:16:36.205Z</time></trkpt><trkpt lat="45.7386735" lon="10.0376078"><ele>788.0</ele><time>2026-04-12T14:16:37.204Z</time></trkpt><trkpt lat="45.7386336" lon="10.0374863"><ele>791.2</ele><time>2026-04-12T14:16:38.204Z</time></trkpt><trkpt lat="45.7385954" lon="10.0373732"><ele>794.4</ele><time>2026-04-12T14:16:39.207Z</time></trkpt><trkpt lat="45.7385559" lon="10.0372713"><ele>797.6</ele><time>2026-04-12T14:16:40.203Z</time></trkpt><trkpt lat="45.7384453" lon="10.0371034"><ele>800.8000000000001</ele><time>2026-04-12T14:16:42.207Z</time></trkpt><trkpt lat="45.7383794" lon="10.0370141"><ele>804.0</ele><time>2026-04-12T14:16:43.203Z</time></trkpt><trkpt lat="45.7383105" lon="10.0369197"><ele>797.2</ele><time>2026-04-12T14:16:44.204Z</time></trkpt><trkpt lat="45.7382404" lon="10.0368255"><ele>790.4000000000001</ele><time>2026-04-12T14:16:45.21Z</time></trkpt><trkpt lat="45.7381688" lon="10.0367287"><ele>783.6</ele><time>2026-04-12T14:16:46.204Z</time></trkpt><trkpt lat="45.7381002" lon="10.0366248"><ele>776.8</ele><time>2026-04-12T14:16:47.21Z</time></trkpt><trkpt lat="45.7380402" lon="10.0365207"><ele>770.0</ele><time>2026-04-12T14:16:48.207Z</time></trkpt><trkpt lat="45.7379833" lon="10.0364141"><ele>770.0</ele><time>2026-04-12T14:16:49.21Z</time></trkpt><trkpt lat="45.7379406" lon="10.0363169"><ele>770.0</ele><time>2026-04-12T14:16:50.203Z</time></trkpt><trkpt lat="45.7379141" lon="10.0362223"><ele>770.0</ele><time>2026-04-12T14:16:51.21Z</time></trkpt><trkpt lat="45.7378927" lon="10.0361312"><ele>770.0</ele><time>2026-04-12T14:16:52.211Z</time></trkpt><trkpt lat="45.7378836" lon="10.0360411"><ele>770.0</ele><time>2026-04-12T14:16:53.205Z</time></trkpt><trkpt lat="45.7378856" lon="10.0359498"><ele>770.0</ele><time>2026-04-12T14:16:54.21Z</time></trkpt><trkpt lat="45.7378879" lon="10.0358559"><ele>770.0</ele><time>2026-04-12T14:16:55.209Z</time></trkpt><trkpt lat="45.7378996" lon="10.035693"><ele>768.5</ele><time>2026-04-12T14:16:57.21Z</time></trkpt><trkpt lat="45.7379151" lon="10.0355368"><ele>767.0</ele><time>2026-04-12T14:16:59.208Z</time></trkpt><trkpt lat="45.7379461" lon="10.0353496"><ele>765.5</ele><time>2026-04-12T14:17:01.206Z</time></trkpt><trkpt lat="45.7380038" lon="10.0351574"><ele>764.0</ele><time>2026-04-12T14:17:03.203Z</time></trkpt><trkpt lat="45.7380345" lon="10.0350674"><ele>764.0</ele><time>2026-04-12T14:17:04.214Z</time></trkpt><trkpt lat="45.7380635" lon="10.0349802"><ele>764.0</ele><time>2026-04-12T14:17:05.211Z</time></trkpt><trkpt lat="45.7380876" lon="10.034887"><ele>764.0</ele><time>2026-04-12T14:17:06.211Z</time></trkpt><trkpt lat="45.7381084" lon="10.0347976"><ele>764.0</ele><time>2026-04-12T14:17:07.209Z</time></trkpt><trkpt lat="45.7381425" lon="10.0346315"><ele>764.0</ele><time>2026-04-12T14:17:09.212Z</time></trkpt><trkpt lat="45.7381681" lon="10.0344496"><ele>763.1666666666666</ele><time>2026-04-12T14:17:11.208Z</time></trkpt><trkpt lat="45.738177" lon="10.034358"><ele>762.3333333333333</ele><time>2026-04-12T14:17:12.208Z</time></trkpt><trkpt lat="45.7382002" lon="10.0341802"><ele>761.5</ele><time>2026-04-12T14:17:14.205Z</time></trkpt><trkpt lat="45.7382205" lon="10.0340896"><ele>760.6666666666666</ele><time>2026-04-12T14:17:15.205Z</time></trkpt><trkpt lat="45.7382516" lon="10.0340065"><ele>759.8333333333334</ele><time>2026-04-12T14:17:16.2Z</time></trkpt><trkpt lat="45.7382954" lon="10.0339299"><ele>759.0</ele><time>2026-04-12T14:17:17.205Z</time></trkpt><trkpt lat="45.7383469" lon="10.0338556"><ele>758.2</ele><time>2026-04-12T14:17:18.203Z</time></trkpt><trkpt lat="45.7384071" lon="10.0337864"><ele>757.4000000000001</ele><time>2026-04-12T14:17:19.208Z</time></trkpt><trkpt lat="45.7384723" lon="10.0337224"><ele>756.6</ele><time>2026-04-12T14:17:20.208Z</time></trkpt><trkpt lat="45.7385416" lon="10.0336545"><ele>755.8</ele><time>2026-04-12T14:17:21.203Z</time></trkpt><trkpt lat="45.7386133" lon="10.0335888"><ele>755.0</ele><time>2026-04-12T14:17:22.201Z</time></trkpt><trkpt lat="45.7387518" lon="10.0334523"><ele>755.0</ele><time>2026-04-12T14:17:24.21Z</time></trkpt><trkpt lat="45.7388196" lon="10.0333847"><ele>755.0</ele><time>2026-04-12T14:17:25.212Z</time></trkpt><trkpt lat="45.7388873" lon="10.0333184"><ele>755.0</ele><time>2026-04-12T14:17:26.204Z</time></trkpt><trkpt lat="45.7389591" lon="10.0332597"><ele>755.0</ele><time>2026-04-12T14:17:27.205Z</time></trkpt><trkpt lat="45.7390425" lon="10.0332144"><ele>755.0</ele><time>2026-04-12T14:17:28.202Z</time></trkpt><trkpt lat="45.7391275" lon="10.033194"><ele>755.0</ele><time>2026-04-12T14:17:29.202Z</time></trkpt><trkpt lat="45.7392171" lon="10.0331974"><ele>753.2</ele><time>2026-04-12T14:17:30.21Z</time></trkpt><trkpt lat="45.7393084" lon="10.0332229"><ele>751.4</ele><time>2026-04-12T14:17:31.204Z</time></trkpt><trkpt lat="45.7394036" lon="10.0332677"><ele>749.5999999999999</ele><time>2026-04-12T14:17:32.21Z</time></trkpt><trkpt lat="45.7394917" lon="10.0333367"><ele>747.8</ele><time>2026-04-12T14:17:33.209Z</time></trkpt><trkpt lat="45.7395736" lon="10.0334153"><ele>746.0</ele><time>2026-04-12T14:17:34.203Z</time></trkpt><trkpt lat="45.7396434" lon="10.0334868"><ele>747.5</ele><time>2026-04-12T14:17:35.206Z</time></trkpt><trkpt lat="45.7397306" lon="10.033563"><ele>749.0</ele><time>2026-04-12T14:17:37.203Z</time></trkpt><trkpt lat="45.739738" lon="10.0336533"><ele>750.5</ele><time>2026-04-12T14:17:39.205Z</time></trkpt><trkpt lat="45.7396472" lon="10.0337393"><ele>752.0</ele><time>2026-04-12T14:17:41.205Z</time></trkpt><trkpt lat="45.7395768" lon="10.0337397"><ele>753.5</ele><time>2026-04-12T14:17:42.211Z</time></trkpt><trkpt lat="45.7395042" lon="10.0337214"><ele>755.0</ele><time>2026-04-12T14:17:43.207Z</time></trkpt><trkpt lat="45.7393322" lon="10.0337104"><ele>755.0</ele><time>2026-04-12T14:17:45.205Z</time></trkpt><trkpt lat="45.7392314" lon="10.0337459"><ele>755.0</ele><time>2026-04-12T14:17:46.208Z</time></trkpt><trkpt lat="45.7391321" lon="10.0337957"><ele>755.0</ele><time>2026-04-12T14:17:47.208Z</time></trkpt><trkpt lat="45.7390453" lon="10.033871"><ele>755.0</ele><time>2026-04-12T14:17:48.206Z</time></trkpt><trkpt lat="45.7389674" lon="10.033976"><ele>755.0</ele><time>2026-04-12T14:17:49.206Z</time></trkpt><trkpt lat="45.7389132" lon="10.0341211"><ele>759.5</ele><time>2026-04-12T14:17:50.207Z</time></trkpt><trkpt lat="45.7388731" lon="10.0342966"><ele>764.0</ele><time>2026-04-12T14:17:51.203Z</time></trkpt><trkpt lat="45.7388346" lon="10.0344865"><ele>768.5</ele><time>2026-04-12T14:17:52.206Z</time></trkpt><trkpt lat="45.7387955" lon="10.0346775"><ele>773.0</ele><time>2026-04-12T14:17:53.205Z</time></trkpt><trkpt lat="45.7387565" lon="10.0348522"><ele>771.2</ele><time>2026-04-12T14:17:54.201Z</time></trkpt><trkpt lat="45.7387148" lon="10.0350072"><ele>769.4</ele><time>2026-04-12T14:17:55.203Z</time></trkpt><trkpt lat="45.7386605" lon="10.0351454"><ele>767.6</ele><time>2026-04-12T14:17:56.207Z</time></trkpt><trkpt lat="45.7385985" lon="10.0352631"><ele>765.8000000000001</ele><time>2026-04-12T14:17:57.203Z</time></trkpt><trkpt lat="45.7385329" lon="10.035372"><ele>764.0</ele><time>2026-04-12T14:17:58.206Z</time></trkpt><trkpt lat="45.7384861" lon="10.0354781"><ele>764.0</ele><time>2026-04-12T14:17:59.209Z</time></trkpt><trkpt lat="45.7384582" lon="10.0355861"><ele>764.0</ele><time>2026-04-12T14:18:00.201Z</time></trkpt><trkpt lat="45.7384526" lon="10.0357048"><ele>764.0</ele><time>2026-04-12T14:18:01.206Z</time></trkpt><trkpt lat="45.7384773" lon="10.0358334"><ele>764.0</ele><time>2026-04-12T14:18:02.209Z</time></trkpt><trkpt lat="45.7385219" lon="10.0359721"><ele>764.0</ele><time>2026-04-12T14:18:03.212Z</time></trkpt><trkpt lat="45.7385875" lon="10.0361226"><ele>777.3333333333333</ele><time>2026-04-12T14:18:04.207Z</time></trkpt><trkpt lat="45.7387458" lon="10.0364706"><ele>790.6666666666666</ele><time>2026-04-12T14:18:06.204Z</time></trkpt><trkpt lat="45.7388256" lon="10.03665"><ele>804.0</ele><time>2026-04-12T14:18:07.209Z</time></trkpt><trkpt lat="45.738901" lon="10.0368272"><ele>804.0</ele><time>2026-04-12T14:18:08.204Z</time></trkpt><trkpt lat="45.7389734" lon="10.0369952"><ele>804.0</ele><time>2026-04-12T14:18:09.203Z</time></trkpt><trkpt lat="45.7390431" lon="10.0371521"><ele>804.0</ele><time>2026-04-12T14:18:10.213Z</time></trkpt><trkpt lat="45.7391147" lon="10.0372896"><ele>804.0</ele><time>2026-04-12T14:18:11.21Z</time></trkpt><trkpt lat="45.7391897" lon="10.0374124"><ele>800.0</ele><time>2026-04-12T14:18:12.207Z</time></trkpt><trkpt lat="45.7392703" lon="10.0375338"><ele>796.0</ele><time>2026-04-12T14:18:13.21Z</time></trkpt><trkpt lat="45.7393554" lon="10.0376589"><ele>792.0</ele><time>2026-04-12T14:18:14.213Z</time></trkpt><trkpt lat="45.7394462" lon="10.0377856"><ele>788.0</ele><time>2026-04-12T14:18:15.209Z</time></trkpt><trkpt lat="45.7395344" lon="10.0379145"><ele>791.2</ele><time>2026-04-12T14:18:16.204Z</time></trkpt><trkpt lat="45.7396117" lon="10.0380346"><ele>794.4</ele><time>2026-04-12T14:18:17.213Z</time></trkpt><trkpt lat="45.7396824" lon="10.0381476"><ele>797.6</ele><time>2026-04-12T14:18:18.215Z</time></trkpt><trkpt lat="45.7397463" lon="10.0382552"><ele>800.8000000000001</ele><time>2026-04-12T14:18:19.206Z</time></trkpt><trkpt lat="45.7397906" lon="10.0383596"><ele>804.0</ele><time>2026-04-12T14:18:20.209Z</time></trkpt><trkpt lat="45.7398037" lon="10.0384686"><ele>804.0</ele><time>2026-04-12T14:18:21.213Z</time></trkpt><trkpt lat="45.7397912" lon="10.0385767"><ele>804.0</ele><time>2026-04-12T14:18:22.203Z</time></trkpt><trkpt lat="45.7397696" lon="10.038672"><ele>804.0</ele><time>2026-04-12T14:18:23.213Z</time></trkpt><trkpt lat="45.7397485" lon="10.0388021"><ele>804.0</ele><time>2026-04-12T14:18:25.209Z</time></trkpt><trkpt lat="45.7397456" lon="10.0389671"><ele>804.0</ele><time>2026-04-12T14:25:27.21Z</time></trkpt><trkpt lat="45.7396043" lon="10.0393063"><ele>804.0</ele><time>2026-04-12T14:38:20.215Z</time></trkpt><trkpt lat="45.7395803" lon="10.0394084"><ele>804.0</ele><time>2026-04-12T14:38:21.217Z</time></trkpt><trkpt lat="45.7395545" lon="10.0395074"><ele>804.0</ele><time>2026-04-12T14:38:22.223Z</time></trkpt><trkpt lat="45.7395252" lon="10.039599"><ele>804.0</ele><time>2026-04-12T14:38:23.221Z</time></trkpt><trkpt lat="45.7394976" lon="10.0396825"><ele>804.0</ele><time>2026-04-12T14:38:24.218Z</time></trkpt><trkpt lat="45.7394544" lon="10.0398379"><ele>804.0</ele><time>2026-04-12T14:38:26.212Z</time></trkpt><trkpt lat="45.739394" lon="10.0399879"><ele>800.1666666666666</ele><time>2026-04-12T14:38:28.218Z</time></trkpt><trkpt lat="45.7393475" lon="10.0400751"><ele>796.3333333333333</ele><time>2026-04-12T14:38:29.213Z</time></trkpt><trkpt lat="45.7392958" lon="10.040178"><ele>792.5</ele><time>2026-04-12T14:38:30.221Z</time></trkpt><trkpt lat="45.7392426" lon="10.0402891"><ele>788.6666666666666</ele><time>2026-04-12T14:38:31.221Z</time></trkpt><trkpt lat="45.7391888" lon="10.0404012"><ele>784.8333333333333</ele><time>2026-04-12T14:38:32.222Z</time></trkpt><trkpt lat="45.7391341" lon="10.0405084"><ele>781.0</ele><time>2026-04-12T14:38:33.214Z</time></trkpt><trkpt lat="45.7390789" lon="10.0406127"><ele>781.0</ele><time>2026-04-12T14:38:34.222Z</time></trkpt><trkpt lat="45.7390247" lon="10.0407119"><ele>781.0</ele><time>2026-04-12T14:38:35.21Z</time></trkpt><trkpt lat="45.7389732" lon="10.040797"><ele>781.0</ele><time>2026-04-12T14:38:36.221Z</time></trkpt><trkpt lat="45.7389215" lon="10.0408576"><ele>781.0</ele><time>2026-04-12T14:38:37.212Z</time></trkpt><trkpt lat="45.7388003" lon="10.0408751"><ele>781.0</ele><time>2026-04-12T14:38:39.211Z</time></trkpt><trkpt lat="45.7386739" lon="10.0407274"><ele>781.0</ele><time>2026-04-12T14:38:41.212Z</time></trkpt><trkpt lat="45.7386406" lon="10.0406016"><ele>781.0</ele><time>2026-04-12T14:38:42.218Z</time></trkpt><trkpt lat="45.7386407" lon="10.0404635"><ele>781.0</ele><time>2026-04-12T14:38:43.224Z</time></trkpt><trkpt lat="45.7386633" lon="10.0403323"><ele>781.0</ele><time>2026-04-12T14:38:44.214Z</time></trkpt><trkpt lat="45.7386997" lon="10.0402121"><ele>781.0</ele><time>2026-04-12T14:38:45.221Z</time></trkpt><trkpt lat="45.7387411" lon="10.040093"><ele>780.9999999999999</ele><time>2026-04-12T14:38:46.221Z</time></trkpt><trkpt lat="45.7387809" lon="10.0399735"><ele>781.0</ele><time>2026-04-12T14:38:47.227Z</time></trkpt><trkpt lat="45.7388174" lon="10.0398578"><ele>781.0</ele><time>2026-04-12T14:38:48.215Z</time></trkpt><trkpt lat="45.7388503" lon="10.0397435"><ele>781.0</ele><time>2026-04-12T14:38:49.221Z</time></trkpt><trkpt lat="45.7388815" lon="10.039631"><ele>780.9999999999999</ele><time>2026-04-12T14:38:50.228Z</time></trkpt><trkpt lat="45.7389108" lon="10.0395213"><ele>781.0</ele><time>2026-04-12T14:38:51.215Z</time></trkpt><trkpt lat="45.7389388" lon="10.0394145"><ele>779.4999999999999</ele><time>2026-04-12T14:38:52.221Z</time></trkpt><trkpt lat="45.7389652" lon="10.0393226"><ele>778.0</ele><time>2026-04-12T14:38:53.221Z</time></trkpt><trkpt lat="45.7390104" lon="10.0391892"><ele>776.5</ele><time>2026-04-12T14:38:55.208Z</time></trkpt><trkpt lat="45.7390078" lon="10.0390939"><ele>775.0</ele><time>2026-04-12T14:38:57.222Z</time></trkpt><trkpt lat="45.738938" lon="10.0390502"><ele>773.4999999999999</ele><time>2026-04-12T14:38:59.219Z</time></trkpt><trkpt lat="45.7388088" lon="10.0390486"><ele>772.0</ele><time>2026-04-12T14:39:01.229Z</time></trkpt><trkpt lat="45.7386269" lon="10.0390751"><ele>768.0</ele><time>2026-04-12T14:39:03.212Z</time></trkpt><trkpt lat="45.7385244" lon="10.0390842"><ele>764.0</ele><time>2026-04-12T14:39:04.222Z</time></trkpt><trkpt lat="45.7384233" lon="10.0390968"><ele>760.0</ele><time>2026-04-12T14:39:05.211Z</time></trkpt><trkpt lat="45.7383281" lon="10.0391251"><ele>756.0</ele><time>2026-04-12T14:39:06.212Z</time></trkpt><trkpt lat="45.7382422" lon="10.0391803"><ele>752.0</ele><time>2026-04-12T14:39:07.218Z</time></trkpt><trkpt lat="45.7381644" lon="10.0392696"><ele>752.0</ele><time>2026-04-12T14:39:08.214Z</time></trkpt><trkpt lat="45.7380951" lon="10.0393917"><ele>752.0</ele><time>2026-04-12T14:39:09.221Z</time></trkpt><trkpt lat="45.7380427" lon="10.0395359"><ele>752.0</ele><time>2026-04-12T14:39:10.215Z</time></trkpt><trkpt lat="45.7380037" lon="10.0396965"><ele>752.0</ele><time>2026-04-12T14:39:11.218Z</time></trkpt><trkpt lat="45.7379687" lon="10.0398603"><ele>754.0</ele><time>2026-04-12T14:39:12.211Z</time></trkpt><trkpt lat="45.7379326" lon="10.0400214"><ele>756.0</ele><time>2026-04-12T14:39:13.222Z</time></trkpt><trkpt lat="45.7378999" lon="10.0401741"><ele>758.0</ele><time>2026-04-12T14:39:14.223Z</time></trkpt><trkpt lat="45.7378767" lon="10.040324"><ele>760.0</ele><time>2026-04-12T14:39:15.232Z</time></trkpt><trkpt lat="45.7378699" lon="10.0404737"><ele>762.0</ele><time>2026-04-12T14:39:16.219Z</time></trkpt><trkpt lat="45.737891" lon="10.0406243"><ele>762.0</ele><time>2026-04-12T14:39:17.23Z</time></trkpt><trkpt lat="45.7379311" lon="10.0407664"><ele>762.0</ele><time>2026-04-12T14:39:18.223Z</time></trkpt><trkpt lat="45.737993" lon="10.0409103"><ele>762.0</ele><time>2026-04-12T14:39:19.222Z</time></trkpt><trkpt lat="45.7380638" lon="10.04106"><ele>762.0</ele><time>2026-04-12T14:39:20.219Z</time></trkpt><trkpt lat="45.7381314" lon="10.0412145"><ele>761.0</ele><time>2026-04-12T14:39:21.214Z</time></trkpt><trkpt lat="45.7381904" lon="10.0413703"><ele>760.0</ele><time>2026-04-12T14:39:22.217Z</time></trkpt><trkpt lat="45.7382598" lon="10.0416837"><ele>759.0</ele><time>2026-04-12T14:39:24.232Z</time></trkpt><trkpt lat="45.7382629" lon="10.0418363"><ele>758.1666666666666</ele><time>2026-04-12T14:39:25.223Z</time></trkpt><trkpt lat="45.7382452" lon="10.0419712"><ele>757.3333333333334</ele><time>2026-04-12T14:39:26.218Z</time></trkpt><trkpt lat="45.7382137" lon="10.0420774"><ele>756.5</ele><time>2026-04-12T14:39:27.213Z</time></trkpt><trkpt lat="45.7381756" lon="10.0421625"><ele>755.6666666666667</ele><time>2026-04-12T14:39:28.221Z</time></trkpt><trkpt lat="45.7381336" lon="10.0422387"><ele>754.8333333333334</ele><time>2026-04-12T14:39:29.224Z</time></trkpt><trkpt lat="45.7380981" lon="10.0423205"><ele>754.0</ele><time>2026-04-12T14:39:30.223Z</time></trkpt><trkpt lat="45.7380655" lon="10.0424057"><ele>753.9999999999999</ele><time>2026-04-12T14:39:31.218Z</time></trkpt><trkpt lat="45.7380356" lon="10.0425005"><ele>754.0</ele><time>2026-04-12T14:39:32.223Z</time></trkpt><trkpt lat="45.7380063" lon="10.0425961"><ele>754.0</ele><time>2026-04-12T14:39:33.217Z</time></trkpt><trkpt lat="45.7379804" lon="10.0426948"><ele>754.0</ele><time>2026-04-12T14:39:34.222Z</time></trkpt><trkpt lat="45.7379575" lon="10.0427902"><ele>754.0</ele><time>2026-04-12T14:39:35.215Z</time></trkpt><trkpt lat="45.7379337" lon="10.0428839"><ele>753.9999999999999</ele><time>2026-04-12T14:39:36.214Z</time></trkpt><trkpt lat="45.7379091" lon="10.0429759"><ele>754.0</ele><time>2026-04-12T14:39:37.222Z</time></trkpt><trkpt lat="45.7378869" lon="10.0430685"><ele>754.0</ele><time>2026-04-12T14:39:38.215Z</time></trkpt><trkpt lat="45.7378668" lon="10.0431649"><ele>754.0</ele><time>2026-04-12T14:39:39.228Z</time></trkpt><trkpt lat="45.7378494" lon="10.0432628"><ele>754.0</ele><time>2026-04-12T14:39:40.218Z</time></trkpt><trkpt lat="45.7378345" lon="10.0433593"><ele>754.0</ele><time>2026-04-12T14:39:41.227Z</time></trkpt><trkpt lat="45.7378252" lon="10.0434561"><ele>754.0</ele><time>2026-04-12T14:39:42.222Z</time></trkpt><trkpt lat="45.7378211" lon="10.0435553"><ele>754.0</ele><time>2026-04-12T14:39:43.222Z</time></trkpt><trkpt lat="45.7378314" lon="10.0437586"><ele>754.5</ele><time>2026-04-12T14:39:45.223Z</time></trkpt><trkpt lat="45.737841" lon="10.0438566"><ele>755.0</ele><time>2026-04-12T14:39:46.222Z</time></trkpt><trkpt lat="45.7378641" lon="10.044017"><ele>755.5</ele><time>2026-04-12T14:39:48.215Z</time></trkpt><trkpt lat="45.7379106" lon="10.0441348"><ele>756.0</ele><time>2026-04-12T14:39:50.223Z</time></trkpt><trkpt lat="45.7379115" lon="10.044237"><ele>756.5</ele><time>2026-04-12T14:39:52.234Z</time></trkpt><trkpt lat="45.7378219" lon="10.044263"><ele>757.0</ele><time>2026-04-12T14:39:54.222Z</time></trkpt><trkpt lat="45.7377506" lon="10.0441185"><ele>757.0</ele><time>2026-04-12T14:39:56.222Z</time></trkpt><trkpt lat="45.7377282" lon="10.0439872"><ele>757.0</ele><time>2026-04-12T14:39:57.237Z</time></trkpt><trkpt lat="45.7377126" lon="10.0438363"><ele>757.0</ele><time>2026-04-12T14:39:58.219Z</time></trkpt><trkpt lat="45.7377038" lon="10.0436742"><ele>757.0</ele><time>2026-04-12T14:39:59.222Z</time></trkpt><trkpt lat="45.7376971" lon="10.0435012"><ele>757.0</ele><time>2026-04-12T14:40:00.218Z</time></trkpt><trkpt lat="45.7376899" lon="10.0433195"><ele>744.5</ele><time>2026-04-12T14:40:01.217Z</time></trkpt><trkpt lat="45.7376881" lon="10.0431375"><ele>732.0</ele><time>2026-04-12T14:40:02.21Z</time></trkpt><trkpt lat="45.7376853" lon="10.0429636"><ele>719.5</ele><time>2026-04-12T14:40:03.222Z</time></trkpt><trkpt lat="45.7376836" lon="10.0427898"><ele>707.0</ele><time>2026-04-12T14:40:04.21Z</time></trkpt><trkpt lat="45.7376813" lon="10.0424347"><ele>707.0</ele><time>2026-04-12T14:40:06.213Z</time></trkpt><trkpt lat="45.7376779" lon="10.0422508"><ele>707.0</ele><time>2026-04-12T14:40:07.221Z</time></trkpt><trkpt lat="45.737673" lon="10.0420657"><ele>707.0</ele><time>2026-04-12T14:40:08.22Z</time></trkpt><trkpt lat="45.7376621" lon="10.0418809"><ele>707.0</ele><time>2026-04-12T14:40:09.21Z</time></trkpt><trkpt lat="45.7376381" lon="10.0416945"><ele>709.0</ele><time>2026-04-12T14:40:10.22Z</time></trkpt><trkpt lat="45.737601" lon="10.04152"><ele>711.0</ele><time>2026-04-12T14:40:11.221Z</time></trkpt><trkpt lat="45.737553" lon="10.0413528"><ele>713.0</ele><time>2026-04-12T14:40:12.218Z</time></trkpt><trkpt lat="45.7375" lon="10.041185"><ele>715.0</ele><time>2026-04-12T14:40:13.218Z</time></trkpt><trkpt lat="45.7374343" lon="10.041034"><ele>715.0</ele><time>2026-04-12T14:40:14.218Z</time></trkpt><trkpt lat="45.7373731" lon="10.0408814"><ele>715.0</ele><time>2026-04-12T14:40:15.227Z</time></trkpt><trkpt lat="45.7373165" lon="10.0407293"><ele>715.0</ele><time>2026-04-12T14:40:16.217Z</time></trkpt><trkpt lat="45.7372635" lon="10.0405705"><ele>715.0</ele><time>2026-04-12T14:40:17.22Z</time></trkpt><trkpt lat="45.7372204" lon="10.0404091"><ele>716.4</ele><time>2026-04-12T14:40:18.209Z</time></trkpt><trkpt lat="45.7371857" lon="10.0402492"><ele>717.8</ele><time>2026-04-12T14:40:19.219Z</time></trkpt><trkpt lat="45.7371591" lon="10.0400991"><ele>719.2</ele><time>2026-04-12T14:40:20.222Z</time></trkpt><trkpt lat="45.7371422" lon="10.0399744"><ele>720.6</ele><time>2026-04-12T14:40:21.221Z</time></trkpt><trkpt lat="45.7371255" lon="10.039873"><ele>722.0</ele><time>2026-04-12T14:40:22.222Z</time></trkpt><trkpt lat="45.7370809" lon="10.0397447"><ele>722.0</ele><time>2026-04-12T14:40:24.226Z</time></trkpt><trkpt lat="45.7370162" lon="10.0397633"><ele>722.0</ele><time>2026-04-12T14:40:26.209Z</time></trkpt><trkpt lat="45.7370077" lon="10.0400968"><ele>722.0</ele><time>2026-04-12T14:40:29.227Z</time></trkpt><trkpt lat="45.7370313" lon="10.0402725"><ele>722.0</ele><time>2026-04-12T14:40:30.22Z</time></trkpt><trkpt lat="45.7370523" lon="10.0404559"><ele>722.5</ele><time>2026-04-12T14:40:31.208Z</time></trkpt><trkpt lat="45.7370648" lon="10.0406537"><ele>723.0</ele><time>2026-04-12T14:40:32.212Z</time></trkpt><trkpt lat="45.7370802" lon="10.0408556"><ele>723.5</ele><time>2026-04-12T14:40:33.216Z</time></trkpt><trkpt lat="45.7371004" lon="10.0410593"><ele>724.0</ele><time>2026-04-12T14:40:34.229Z</time></trkpt><trkpt lat="45.7371263" lon="10.0412536"><ele>721.75</ele><time>2026-04-12T14:40:35.222Z</time></trkpt><trkpt lat="45.7371556" lon="10.041438"><ele>719.5</ele><time>2026-04-12T14:40:36.22Z</time></trkpt><trkpt lat="45.7371824" lon="10.0416137"><ele>717.25</ele><time>2026-04-12T14:40:37.223Z</time></trkpt><trkpt lat="45.7371953" lon="10.0417806"><ele>715.0</ele><time>2026-04-12T14:40:38.221Z</time></trkpt><trkpt lat="45.7371787" lon="10.0419403"><ele>713.0</ele><time>2026-04-12T14:40:39.23Z</time></trkpt><trkpt lat="45.7371322" lon="10.0420929"><ele>711.0</ele><time>2026-04-12T14:40:40.214Z</time></trkpt><trkpt lat="45.7370691" lon="10.0422399"><ele>709.0</ele><time>2026-04-12T14:40:41.225Z</time></trkpt><trkpt lat="45.7370099" lon="10.04239"><ele>707.0</ele><time>2026-04-12T14:40:42.225Z</time></trkpt><trkpt lat="45.7369538" lon="10.0425444"><ele>706.75</ele><time>2026-04-12T14:40:43.221Z</time></trkpt><trkpt lat="45.7369005" lon="10.0427006"><ele>706.5</ele><time>2026-04-12T14:40:44.213Z</time></trkpt><trkpt lat="45.7368501" lon="10.0428549"><ele>706.25</ele><time>2026-04-12T14:40:45.221Z</time></trkpt><trkpt lat="45.7368027" lon="10.0430079"><ele>706.0</ele><time>2026-04-12T14:40:46.211Z</time></trkpt><trkpt lat="45.7367661" lon="10.0431615"><ele>691.6666666666667</ele><time>2026-04-12T14:40:47.222Z</time></trkpt><trkpt lat="45.7367365" lon="10.043492"><ele>677.3333333333334</ele><time>2026-04-12T14:40:49.216Z</time></trkpt><trkpt lat="45.7367357" lon="10.0436677"><ele>663.0</ele><time>2026-04-12T14:40:50.229Z</time></trkpt><trkpt lat="45.7367402" lon="10.0438406"><ele>663.0</ele><time>2026-04-12T14:40:51.219Z</time></trkpt><trkpt lat="45.7367525" lon="10.0440089"><ele>663.0</ele><time>2026-04-12T14:40:52.222Z</time></trkpt><trkpt lat="45.7367806" lon="10.0441839"><ele>663.0</ele><time>2026-04-12T14:40:53.22Z</time></trkpt><trkpt lat="45.7368141" lon="10.0443746"><ele>663.0</ele><time>2026-04-12T14:40:54.221Z</time></trkpt><trkpt lat="45.7368505" lon="10.0445584"><ele>668.0</ele><time>2026-04-12T14:40:55.22Z</time></trkpt><trkpt lat="45.7368918" lon="10.0447374"><ele>673.0</ele><time>2026-04-12T14:40:56.223Z</time></trkpt><trkpt lat="45.7369317" lon="10.044908"><ele>678.0</ele><time>2026-04-12T14:40:57.214Z</time></trkpt><trkpt lat="45.7369695" lon="10.0450787"><ele>683.0</ele><time>2026-04-12T14:40:58.221Z</time></trkpt><trkpt lat="45.7370059" lon="10.0452518"><ele>683.0</ele><time>2026-04-12T14:40:59.221Z</time></trkpt><trkpt lat="45.7370398" lon="10.0454261"><ele>683.0</ele><time>2026-04-12T14:41:00.221Z</time></trkpt><trkpt lat="45.7370743" lon="10.0455921"><ele>683.0</ele><time>2026-04-12T14:41:01.221Z</time></trkpt><trkpt lat="45.7371057" lon="10.0457427"><ele>683.0</ele><time>2026-04-12T14:41:02.219Z</time></trkpt><trkpt lat="45.737132" lon="10.0458667"><ele>683.0</ele><time>2026-04-12T14:41:03.234Z</time></trkpt><trkpt lat="45.7371527" lon="10.0459614"><ele>678.0</ele><time>2026-04-12T14:41:04.22Z</time></trkpt><trkpt lat="45.7371448" lon="10.0460916"><ele>673.0</ele><time>2026-04-12T14:41:06.224Z</time></trkpt><trkpt lat="45.737051" lon="10.0461006"><ele>668.0</ele><time>2026-04-12T14:41:08.217Z</time></trkpt><trkpt lat="45.7369155" lon="10.0459113"><ele>663.0</ele><time>2026-04-12T14:41:10.216Z</time></trkpt><trkpt lat="45.7368496" lon="10.045768"><ele>657.75</ele><time>2026-04-12T14:41:11.223Z</time></trkpt><trkpt lat="45.7367819" lon="10.0456076"><ele>652.5</ele><time>2026-04-12T14:41:12.218Z</time></trkpt><trkpt lat="45.7367094" lon="10.0454445"><ele>647.25</ele><time>2026-04-12T14:41:13.213Z</time></trkpt><trkpt lat="45.7366336" lon="10.0452755"><ele>642.0</ele><time>2026-04-12T14:41:14.219Z</time></trkpt><trkpt lat="45.7365549" lon="10.0451041"><ele>645.25</ele><time>2026-04-12T14:41:15.214Z</time></trkpt><trkpt lat="45.7364769" lon="10.0449438"><ele>648.5</ele><time>2026-04-12T14:41:16.212Z</time></trkpt><trkpt lat="45.7364035" lon="10.044784"><ele>651.75</ele><time>2026-04-12T14:41:17.215Z</time></trkpt><trkpt lat="45.7363299" lon="10.0446304"><ele>655.0</ele><time>2026-04-12T14:41:18.215Z</time></trkpt><trkpt lat="45.7362536" lon="10.0444712"><ele>655.0</ele><time>2026-04-12T14:41:19.212Z</time></trkpt><trkpt lat="45.7361804" lon="10.0443035"><ele>655.0</ele><time>2026-04-12T14:41:20.212Z</time></trkpt><trkpt lat="45.7361106" lon="10.0441268"><ele>655.0</ele><time>2026-04-12T14:41:21.207Z</time></trkpt><trkpt lat="45.7360491" lon="10.0439476"><ele>655.0</ele><time>2026-04-12T14:41:22.217Z</time></trkpt><trkpt lat="45.7359986" lon="10.0437627"><ele>646.75</ele><time>2026-04-12T14:41:23.215Z</time></trkpt><trkpt lat="45.7359549" lon="10.0435744"><ele>638.5</ele><time>2026-04-12T14:41:24.22Z</time></trkpt><trkpt lat="45.7359164" lon="10.0433864"><ele>630.25</ele><time>2026-04-12T14:41:25.205Z</time></trkpt><trkpt lat="45.7358872" lon="10.0432076"><ele>622.0</ele><time>2026-04-12T14:41:26.213Z</time></trkpt><trkpt lat="45.7358687" lon="10.04305"><ele>621.4</ele><time>2026-04-12T14:41:27.209Z</time></trkpt><trkpt lat="45.7358583" lon="10.0429173"><ele>620.8000000000001</ele><time>2026-04-12T14:41:28.206Z</time></trkpt><trkpt lat="45.7358535" lon="10.0428116"><ele>620.2</ele><time>2026-04-12T14:41:29.206Z</time></trkpt><trkpt lat="45.7357117" lon="10.0427641"><ele>619.6</ele><time>2026-04-12T14:41:33.213Z</time></trkpt><trkpt lat="45.7356551" lon="10.0428709"><ele>619.0</ele><time>2026-04-12T14:41:34.214Z</time></trkpt><trkpt lat="45.735601" lon="10.0430132"><ele>619.0</ele><time>2026-04-12T14:41:35.211Z</time></trkpt><trkpt lat="45.7355557" lon="10.0431716"><ele>619.0</ele><time>2026-04-12T14:41:36.214Z</time></trkpt><trkpt lat="45.7355241" lon="10.0433438"><ele>619.0</ele><time>2026-04-12T14:41:37.221Z</time></trkpt><trkpt lat="45.7355215" lon="10.0435081"><ele>619.0</ele><time>2026-04-12T14:41:38.214Z</time></trkpt><trkpt lat="45.7355456" lon="10.0436823"><ele>618.75</ele><time>2026-04-12T14:41:39.22Z</time></trkpt><trkpt lat="45.7355839" lon="10.0438546"><ele>618.5</ele><time>2026-04-12T14:41:40.207Z</time></trkpt><trkpt lat="45.7356152" lon="10.0440288"><ele>618.25</ele><time>2026-04-12T14:41:41.216Z</time></trkpt><trkpt lat="45.7356237" lon="10.0441999"><ele>618.0</ele><time>2026-04-12T14:41:42.215Z</time></trkpt><trkpt lat="45.7356121" lon="10.0443684"><ele>618.0</ele><time>2026-04-12T14:41:43.216Z</time></trkpt><trkpt lat="45.7355914" lon="10.0445346"><ele>618.0</ele><time>2026-04-12T14:41:44.22Z</time></trkpt><trkpt lat="45.7355729" lon="10.0447099"><ele>618.0</ele><time>2026-04-12T14:41:45.217Z</time></trkpt><trkpt lat="45.7355675" lon="10.0448932"><ele>618.0</ele><time>2026-04-12T14:41:46.209Z</time></trkpt><trkpt lat="45.7355746" lon="10.0450858"><ele>617.25</ele><time>2026-04-12T14:41:47.22Z</time></trkpt><trkpt lat="45.7355909" lon="10.0452851"><ele>616.5</ele><time>2026-04-12T14:41:48.214Z</time></trkpt><trkpt lat="45.7356071" lon="10.045486"><ele>615.75</ele><time>2026-04-12T14:41:49.213Z</time></trkpt><trkpt lat="45.7356201" lon="10.0456867"><ele>615.0</ele><time>2026-04-12T14:41:50.218Z</time></trkpt><trkpt lat="45.7356305" lon="10.0460833"><ele>612.5</ele><time>2026-04-12T14:41:52.217Z</time></trkpt><trkpt lat="45.7356239" lon="10.0462798"><ele>610.0</ele><time>2026-04-12T14:41:53.214Z</time></trkpt><trkpt lat="45.7356163" lon="10.0464794"><ele>607.5</ele><time>2026-04-12T14:41:54.211Z</time></trkpt><trkpt lat="45.735609" lon="10.0466816"><ele>605.0</ele><time>2026-04-12T14:41:55.206Z</time></trkpt><trkpt lat="45.7356046" lon="10.0468828"><ele>604.5</ele><time>2026-04-12T14:41:56.212Z</time></trkpt><trkpt lat="45.7356093" lon="10.0470786"><ele>604.0</ele><time>2026-04-12T14:41:57.214Z</time></trkpt><trkpt lat="45.7356279" lon="10.0472648"><ele>603.5</ele><time>2026-04-12T14:41:58.21Z</time></trkpt><trkpt lat="45.7356586" lon="10.047431"><ele>603.0</ele><time>2026-04-12T14:41:59.214Z</time></trkpt><trkpt lat="45.7356915" lon="10.0475718"><ele>600.6</ele><time>2026-04-12T14:42:00.208Z</time></trkpt><trkpt lat="45.7357223" lon="10.0476833"><ele>598.1999999999999</ele><time>2026-04-12T14:42:01.21Z</time></trkpt><trkpt lat="45.7357232" lon="10.0478175"><ele>595.8</ele><time>2026-04-12T14:42:03.213Z</time></trkpt><trkpt lat="45.7356055" lon="10.0478056"><ele>593.4</ele><time>2026-04-12T14:42:05.211Z</time></trkpt><trkpt lat="45.7355302" lon="10.0477074"><ele>591.0</ele><time>2026-04-12T14:42:06.21Z</time></trkpt><trkpt lat="45.7354531" lon="10.047561"><ele>595.0</ele><time>2026-04-12T14:42:07.215Z</time></trkpt><trkpt lat="45.7353685" lon="10.0473764"><ele>599.0</ele><time>2026-04-12T14:42:08.211Z</time></trkpt><trkpt lat="45.7352849" lon="10.0471857"><ele>603.0</ele><time>2026-04-12T14:42:09.217Z</time></trkpt><trkpt lat="45.7352106" lon="10.0469953"><ele>588.5</ele><time>2026-04-12T14:42:10.207Z</time></trkpt><trkpt lat="45.7351391" lon="10.0468047"><ele>574.0</ele><time>2026-04-12T14:42:11.212Z</time></trkpt><trkpt lat="45.7349928" lon="10.0464161"><ele>574.0</ele><time>2026-04-12T14:42:13.218Z</time></trkpt><trkpt lat="45.7349203" lon="10.0462196"><ele>574.0</ele><time>2026-04-12T14:42:14.211Z</time></trkpt><trkpt lat="45.7348502" lon="10.0460213"><ele>574.0</ele><time>2026-04-12T14:42:15.21Z</time></trkpt><trkpt lat="45.7347857" lon="10.0458251"><ele>575.75</ele><time>2026-04-12T14:42:16.213Z</time></trkpt><trkpt lat="45.7347291" lon="10.0456271"><ele>577.5</ele><time>2026-04-12T14:42:17.209Z</time></trkpt><trkpt lat="45.7346816" lon="10.0454284"><ele>579.25</ele><time>2026-04-12T14:42:18.216Z</time></trkpt><trkpt lat="45.7346479" lon="10.0452374"><ele>581.0</ele><time>2026-04-12T14:42:19.211Z</time></trkpt><trkpt lat="45.7346366" lon="10.0450618"><ele>581.4</ele><time>2026-04-12T14:42:20.212Z</time></trkpt><trkpt lat="45.7346471" lon="10.0449038"><ele>581.8</ele><time>2026-04-12T14:42:21.208Z</time></trkpt><trkpt lat="45.7346727" lon="10.0447678"><ele>582.1999999999999</ele><time>2026-04-12T14:42:22.218Z</time></trkpt><trkpt lat="45.7346988" lon="10.0446553"><ele>582.6</ele><time>2026-04-12T14:42:23.213Z</time></trkpt><trkpt lat="45.7347041" lon="10.0445128"><ele>583.0</ele><time>2026-04-12T14:42:25.212Z</time></trkpt><trkpt lat="45.7346045" lon="10.0445313"><ele>583.0</ele><time>2026-04-12T14:42:27.209Z</time></trkpt><trkpt lat="45.7345406" lon="10.0446159"><ele>583.0</ele><time>2026-04-12T14:42:28.211Z</time></trkpt><trkpt lat="45.7344866" lon="10.0447415"><ele>583.0</ele><time>2026-04-12T14:42:29.21Z</time></trkpt><trkpt lat="45.7344345" lon="10.0449104"><ele>583.0</ele><time>2026-04-12T14:42:30.212Z</time></trkpt><trkpt lat="45.7344006" lon="10.0450764"><ele>583.0</ele><time>2026-04-12T14:42:31.213Z</time></trkpt><trkpt lat="45.7343865" lon="10.0452459"><ele>582.5</ele><time>2026-04-12T14:42:32.21Z</time></trkpt><trkpt lat="45.7344292" lon="10.0455136"><ele>582.0</ele><time>2026-04-12T14:42:34.209Z</time></trkpt><trkpt lat="45.7344451" lon="10.0456086"><ele>581.5</ele><time>2026-04-12T14:42:35.213Z</time></trkpt><trkpt lat="45.734398" lon="10.0456755"><ele>581.0</ele><time>2026-04-12T14:42:37.213Z</time></trkpt><trkpt lat="45.7343138" lon="10.0455418"><ele>575.2</ele><time>2026-04-12T14:42:39.216Z</time></trkpt><trkpt lat="45.7342942" lon="10.0454281"><ele>569.4000000000001</ele><time>2026-04-12T14:42:40.211Z</time></trkpt><trkpt lat="45.7342887" lon="10.0452774"><ele>563.6</ele><time>2026-04-12T14:42:41.209Z</time></trkpt><trkpt lat="45.7342888" lon="10.0451035"><ele>557.8000000000001</ele><time>2026-04-12T14:42:42.209Z</time></trkpt><trkpt lat="45.7342948" lon="10.0449163"><ele>552.0</ele><time>2026-04-12T14:42:43.209Z</time></trkpt><trkpt lat="45.7343105" lon="10.0447375"><ele>552.0</ele><time>2026-04-12T14:42:44.212Z</time></trkpt><trkpt lat="45.73432" lon="10.0445745"><ele>552.0</ele><time>2026-04-12T14:42:45.214Z</time></trkpt><trkpt lat="45.7343118" lon="10.0444227"><ele>552.0</ele><time>2026-04-12T14:42:46.214Z</time></trkpt><trkpt lat="45.7342779" lon="10.0442845"><ele>552.0</ele><time>2026-04-12T14:42:47.207Z</time></trkpt><trkpt lat="45.734223" lon="10.0441501"><ele>552.0</ele><time>2026-04-12T14:42:48.206Z</time></trkpt><trkpt lat="45.7341661" lon="10.0440193"><ele>552.6</ele><time>2026-04-12T14:42:49.207Z</time></trkpt><trkpt lat="45.7341142" lon="10.043888"><ele>553.2</ele><time>2026-04-12T14:42:50.207Z</time></trkpt><trkpt lat="45.7340706" lon="10.0437682"><ele>553.8</ele><time>2026-04-12T14:42:51.207Z</time></trkpt><trkpt lat="45.734031" lon="10.0436733"><ele>554.4</ele><time>2026-04-12T14:42:52.216Z</time></trkpt><trkpt lat="45.7339499" lon="10.0436118"><ele>555.0</ele><time>2026-04-12T14:42:54.216Z</time></trkpt><trkpt lat="45.7338459" lon="10.0438226"><ele>555.0</ele><time>2026-04-12T14:42:57.209Z</time></trkpt><trkpt lat="45.7338433" lon="10.0439395"><ele>555.0</ele><time>2026-04-12T14:42:58.213Z</time></trkpt><trkpt lat="45.7338674" lon="10.0440733"><ele>555.0</ele><time>2026-04-12T14:42:59.217Z</time></trkpt><trkpt lat="45.7339159" lon="10.0442099"><ele>555.0</ele><time>2026-04-12T14:43:00.206Z</time></trkpt><trkpt lat="45.7339615" lon="10.0443519"><ele>555.0</ele><time>2026-04-12T14:43:01.207Z</time></trkpt><trkpt lat="45.7340016" lon="10.044498"><ele>554.25</ele><time>2026-04-12T14:43:02.207Z</time></trkpt><trkpt lat="45.7340377" lon="10.044652"><ele>553.5</ele><time>2026-04-12T14:43:03.213Z</time></trkpt><trkpt lat="45.7340707" lon="10.0448169"><ele>552.75</ele><time>2026-04-12T14:43:04.21Z</time></trkpt><trkpt lat="45.73409" lon="10.0449896"><ele>552.0</ele><time>2026-04-12T14:43:05.211Z</time></trkpt><trkpt lat="45.734089" lon="10.0451708"><ele>551.25</ele><time>2026-04-12T14:43:06.211Z</time></trkpt><trkpt lat="45.734076" lon="10.045355"><ele>550.5</ele><time>2026-04-12T14:43:07.208Z</time></trkpt><trkpt lat="45.7340583" lon="10.0455419"><ele>549.75</ele><time>2026-04-12T14:43:08.211Z</time></trkpt><trkpt lat="45.7340396" lon="10.0457269"><ele>549.0</ele><time>2026-04-12T14:43:09.219Z</time></trkpt><trkpt lat="45.7340258" lon="10.0459081"><ele>547.75</ele><time>2026-04-12T14:43:10.209Z</time></trkpt><trkpt lat="45.7340253" lon="10.0460851"><ele>546.5</ele><time>2026-04-12T14:43:11.209Z</time></trkpt><trkpt lat="45.7340461" lon="10.0462575"><ele>545.25</ele><time>2026-04-12T14:43:12.213Z</time></trkpt><trkpt lat="45.7340937" lon="10.046419"><ele>544.0</ele><time>2026-04-12T14:43:13.212Z</time></trkpt><trkpt lat="45.7341613" lon="10.046578"><ele>540.5</ele><time>2026-04-12T14:43:14.215Z</time></trkpt><trkpt lat="45.734239" lon="10.046726"><ele>537.0</ele><time>2026-04-12T14:43:15.216Z</time></trkpt><trkpt lat="45.734387" lon="10.0469726"><ele>533.5</ele><time>2026-04-12T14:43:17.212Z</time></trkpt><trkpt lat="45.7344535" lon="10.0470598"><ele>530.0</ele><time>2026-04-12T14:43:18.211Z</time></trkpt><trkpt lat="45.734507" lon="10.047125"><ele>530.0</ele><time>2026-04-12T14:43:19.208Z</time></trkpt><trkpt lat="45.7345597" lon="10.0472318"><ele>530.0</ele><time>2026-04-12T14:43:21.214Z</time></trkpt><trkpt lat="45.73445" lon="10.0472576"><ele>530.0</ele><time>2026-04-12T14:43:23.21Z</time></trkpt><trkpt lat="45.7343787" lon="10.0471964"><ele>530.0</ele><time>2026-04-12T14:43:24.214Z</time></trkpt><trkpt lat="45.7343097" lon="10.0470923"><ele>530.0</ele><time>2026-04-12T14:43:25.208Z</time></trkpt><trkpt lat="45.7342268" lon="10.046968"><ele>530.0</ele><time>2026-04-12T14:43:26.215Z</time></trkpt><trkpt lat="45.7341287" lon="10.046842"><ele>530.0</ele><time>2026-04-12T14:43:27.218Z</time></trkpt><trkpt lat="45.7340231" lon="10.0467243"><ele>530.0</ele><time>2026-04-12T14:43:28.211Z</time></trkpt><trkpt lat="45.7339203" lon="10.0466001"><ele>530.0</ele><time>2026-04-12T14:43:29.214Z</time></trkpt><trkpt lat="45.7338181" lon="10.0464747"><ele>533.5</ele><time>2026-04-12T14:43:30.217Z</time></trkpt><trkpt lat="45.7337178" lon="10.046347"><ele>537.0</ele><time>2026-04-12T14:43:31.219Z</time></trkpt><trkpt lat="45.7336197" lon="10.0462144"><ele>540.5</ele><time>2026-04-12T14:43:32.217Z</time></trkpt><trkpt lat="45.733524" lon="10.0460855"><ele>544.0</ele><time>2026-04-12T14:43:33.207Z</time></trkpt><trkpt lat="45.7334386" lon="10.04596"><ele>536.3333333333334</ele><time>2026-04-12T14:43:34.221Z</time></trkpt><trkpt lat="45.7333692" lon="10.04583"><ele>528.6666666666666</ele><time>2026-04-12T14:43:35.216Z</time></trkpt><trkpt lat="45.7333179" lon="10.0456834"><ele>521.0</ele><time>2026-04-12T14:43:36.218Z</time></trkpt><trkpt lat="45.7332317" lon="10.0453613"><ele>521.0</ele><time>2026-04-12T14:43:38.211Z</time></trkpt><trkpt lat="45.7331728" lon="10.0452089"><ele>521.0</ele><time>2026-04-12T14:43:39.213Z</time></trkpt><trkpt lat="45.7331001" lon="10.0450748"><ele>521.0</ele><time>2026-04-12T14:43:40.212Z</time></trkpt><trkpt lat="45.7330303" lon="10.0449671"><ele>521.0</ele><time>2026-04-12T14:43:41.208Z</time></trkpt><trkpt lat="45.7329814" lon="10.0448722"><ele>521.0</ele><time>2026-04-12T14:43:42.218Z</time></trkpt><trkpt lat="45.7329454" lon="10.0447931"><ele>521.0</ele><time>2026-04-12T14:43:43.222Z</time></trkpt><trkpt lat="45.7328615" lon="10.044733"><ele>521.0</ele><time>2026-04-12T14:43:45.211Z</time></trkpt><trkpt lat="45.7327908" lon="10.0448534"><ele>521.0</ele><time>2026-04-12T14:43:47.214Z</time></trkpt><trkpt lat="45.7327843" lon="10.0449589"><ele>521.0</ele><time>2026-04-12T14:43:48.212Z</time></trkpt><trkpt lat="45.732804" lon="10.0450787"><ele>521.0</ele><time>2026-04-12T14:43:49.212Z</time></trkpt><trkpt lat="45.732843" lon="10.0452166"><ele>521.0</ele><time>2026-04-12T14:43:50.21Z</time></trkpt><trkpt lat="45.7328904" lon="10.0453831"><ele>521.0</ele><time>2026-04-12T14:43:51.211Z</time></trkpt><trkpt lat="45.7329432" lon="10.0455569"><ele>521.0</ele><time>2026-04-12T14:43:52.221Z</time></trkpt><trkpt lat="45.7329996" lon="10.0457323"><ele>521.0</ele><time>2026-04-12T14:43:53.221Z</time></trkpt><trkpt lat="45.7330506" lon="10.0459091"><ele>517.75</ele><time>2026-04-12T14:43:54.209Z</time></trkpt><trkpt lat="45.7330933" lon="10.0460841"><ele>514.5</ele><time>2026-04-12T14:43:55.213Z</time></trkpt><trkpt lat="45.7331327" lon="10.0462588"><ele>511.25</ele><time>2026-04-12T14:43:56.211Z</time></trkpt><trkpt lat="45.7331852" lon="10.0464204"><ele>508.0</ele><time>2026-04-12T14:43:57.22Z</time></trkpt><trkpt lat="45.7333486" lon="10.0466982"><ele>504.25</ele><time>2026-04-12T14:43:59.214Z</time></trkpt><trkpt lat="45.7334494" lon="10.046817"><ele>500.5</ele><time>2026-04-12T14:44:00.212Z</time></trkpt><trkpt lat="45.733547" lon="10.0469368"><ele>496.75</ele><time>2026-04-12T14:44:01.217Z</time></trkpt><trkpt lat="45.7336326" lon="10.0470663"><ele>493.0</ele><time>2026-04-12T14:44:02.221Z</time></trkpt><trkpt lat="45.7337041" lon="10.047208"><ele>497.75</ele><time>2026-04-12T14:44:03.219Z</time></trkpt><trkpt lat="45.7337558" lon="10.0473709"><ele>502.5</ele><time>2026-04-12T14:44:04.214Z</time></trkpt><trkpt lat="45.7337878" lon="10.0475508"><ele>507.25</ele><time>2026-04-12T14:44:05.216Z</time></trkpt><trkpt lat="45.7338043" lon="10.0477289"><ele>512.0</ele><time>2026-04-12T14:44:06.213Z</time></trkpt><trkpt lat="45.7338188" lon="10.0478867"><ele>512.0</ele><time>2026-04-12T14:44:07.211Z</time></trkpt><trkpt lat="45.733843" lon="10.0480239"><ele>512.0</ele><time>2026-04-12T14:44:08.212Z</time></trkpt><trkpt lat="45.733892" lon="10.0481421"><ele>512.0</ele><time>2026-04-12T14:44:09.213Z</time></trkpt><trkpt lat="45.7339679" lon="10.048238"><ele>512.0</ele><time>2026-04-12T14:44:10.212Z</time></trkpt><trkpt lat="45.7340508" lon="10.048335"><ele>512.0</ele><time>2026-04-12T14:44:11.207Z</time></trkpt><trkpt lat="45.734124" lon="10.0484487"><ele>507.0</ele><time>2026-04-12T14:44:12.211Z</time></trkpt><trkpt lat="45.7341849" lon="10.0485759"><ele>502.00000000000006</ele><time>2026-04-12T14:44:13.212Z</time></trkpt><trkpt lat="45.7342443" lon="10.0486989"><ele>497.00000000000006</ele><time>2026-04-12T14:44:14.208Z</time></trkpt><trkpt lat="45.7342998" lon="10.0488135"><ele>492.0</ele><time>2026-04-12T14:44:15.206Z</time></trkpt><trkpt lat="45.7343465" lon="10.0489046"><ele>487.0</ele><time>2026-04-12T14:44:16.209Z</time></trkpt><trkpt lat="45.7343623" lon="10.0490445"><ele>487.0</ele><time>2026-04-12T14:44:18.211Z</time></trkpt><trkpt lat="45.7341853" lon="10.0490377"><ele>487.0</ele><time>2026-04-12T14:44:21.213Z</time></trkpt><trkpt lat="45.7341322" lon="10.0489484"><ele>487.0</ele><time>2026-04-12T14:44:22.208Z</time></trkpt><trkpt lat="45.7340945" lon="10.0488219"><ele>487.0</ele><time>2026-04-12T14:44:23.211Z</time></trkpt><trkpt lat="45.7340583" lon="10.0486654"><ele>487.0</ele><time>2026-04-12T14:44:24.212Z</time></trkpt><trkpt lat="45.7340039" lon="10.0485045"><ele>487.0</ele><time>2026-04-12T14:44:25.21Z</time></trkpt><trkpt lat="45.733919" lon="10.0483514"><ele>487.0</ele><time>2026-04-12T14:44:26.207Z</time></trkpt><trkpt lat="45.7338075" lon="10.0482282"><ele>487.0</ele><time>2026-04-12T14:44:27.218Z</time></trkpt><trkpt lat="45.7336862" lon="10.0481258"><ele>482.75</ele><time>2026-04-12T14:44:28.212Z</time></trkpt><trkpt lat="45.7335598" lon="10.048033"><ele>478.5</ele><time>2026-04-12T14:44:29.215Z</time></trkpt><trkpt lat="45.7334318" lon="10.0479271"><ele>474.25</ele><time>2026-04-12T14:44:30.213Z</time></trkpt><trkpt lat="45.7333034" lon="10.0478049"><ele>470.0</ele><time>2026-04-12T14:44:31.209Z</time></trkpt><trkpt lat="45.733174" lon="10.0476867"><ele>470.0</ele><time>2026-04-12T14:44:32.214Z</time></trkpt><trkpt lat="45.7330471" lon="10.0475702"><ele>470.0</ele><time>2026-04-12T14:44:33.208Z</time></trkpt><trkpt lat="45.7329226" lon="10.0474592"><ele>470.0</ele><time>2026-04-12T14:44:34.215Z</time></trkpt><trkpt lat="45.7328069" lon="10.0473429"><ele>470.0</ele><time>2026-04-12T14:44:35.213Z</time></trkpt><trkpt lat="45.7326963" lon="10.0472165"><ele>470.75</ele><time>2026-04-12T14:44:36.217Z</time></trkpt><trkpt lat="45.7325832" lon="10.0470843"><ele>471.5</ele><time>2026-04-12T14:44:37.215Z</time></trkpt><trkpt lat="45.7324706" lon="10.0469415"><ele>472.25</ele><time>2026-04-12T14:44:38.211Z</time></trkpt><trkpt lat="45.7323614" lon="10.0467961"><ele>473.0</ele><time>2026-04-12T14:44:39.224Z</time></trkpt><trkpt lat="45.7321653" lon="10.0464858"><ele>473.0</ele><time>2026-04-12T14:44:41.211Z</time></trkpt><trkpt lat="45.7320897" lon="10.0463114"><ele>473.0</ele><time>2026-04-12T14:44:42.209Z</time></trkpt><trkpt lat="45.7320234" lon="10.0461232"><ele>473.0</ele><time>2026-04-12T14:44:43.21Z</time></trkpt><trkpt lat="45.731966" lon="10.045927"><ele>473.0</ele><time>2026-04-12T14:44:44.216Z</time></trkpt><trkpt lat="45.7319128" lon="10.0457294"><ele>455.0</ele><time>2026-04-12T14:44:45.206Z</time></trkpt><trkpt lat="45.7318641" lon="10.0455336"><ele>437.0</ele><time>2026-04-12T14:44:46.219Z</time></trkpt><trkpt lat="45.7318215" lon="10.0453288"><ele>419.0</ele><time>2026-04-12T14:44:47.214Z</time></trkpt><trkpt lat="45.731791" lon="10.0451089"><ele>421.0</ele><time>2026-04-12T14:44:48.204Z</time></trkpt><trkpt lat="45.7317651" lon="10.0448752"><ele>423.0</ele><time>2026-04-12T14:44:49.213Z</time></trkpt><trkpt lat="45.7317254" lon="10.0446419"><ele>425.0</ele><time>2026-04-12T14:44:50.21Z</time></trkpt><trkpt lat="45.7316731" lon="10.0444247"><ele>425.0</ele><time>2026-04-12T14:44:51.206Z</time></trkpt><trkpt lat="45.7316247" lon="10.0442152"><ele>425.0</ele><time>2026-04-12T14:44:52.217Z</time></trkpt><trkpt lat="45.731586" lon="10.0439977"><ele>425.0</ele><time>2026-04-12T14:44:53.212Z</time></trkpt><trkpt lat="45.7315493" lon="10.0437741"><ele>431.3333333333333</ele><time>2026-04-12T14:44:54.209Z</time></trkpt><trkpt lat="45.731512" lon="10.043548"><ele>437.66666666666663</ele><time>2026-04-12T14:44:55.214Z</time></trkpt><trkpt lat="45.7314766" lon="10.0433231"><ele>444.0</ele><time>2026-04-12T14:44:56.208Z</time></trkpt><trkpt lat="45.731445" lon="10.0431046"><ele>445.0</ele><time>2026-04-12T14:44:57.209Z</time></trkpt><trkpt lat="45.7314216" lon="10.0428998"><ele>446.0</ele><time>2026-04-12T14:44:58.212Z</time></trkpt><trkpt lat="45.7314129" lon="10.0427051"><ele>447.0</ele><time>2026-04-12T14:44:59.205Z</time></trkpt><trkpt lat="45.7313944" lon="10.0425085"><ele>448.0</ele><time>2026-04-12T14:45:00.208Z</time></trkpt><trkpt lat="45.7312992" lon="10.0421394"><ele>450.2</ele><time>2026-04-12T14:45:02.201Z</time></trkpt><trkpt lat="45.7312381" lon="10.0419802"><ele>452.4</ele><time>2026-04-12T14:45:03.203Z</time></trkpt><trkpt lat="45.731179" lon="10.0418393"><ele>454.59999999999997</ele><time>2026-04-12T14:45:04.209Z</time></trkpt><trkpt lat="45.7311297" lon="10.0417263"><ele>456.79999999999995</ele><time>2026-04-12T14:45:05.211Z</time></trkpt><trkpt lat="45.7310768" lon="10.0416521"><ele>459.0</ele><time>2026-04-12T14:45:06.206Z</time></trkpt><trkpt lat="45.7310166" lon="10.0415987"><ele>457.0</ele><time>2026-04-12T14:45:07.216Z</time></trkpt><trkpt lat="45.7309428" lon="10.0415935"><ele>455.0</ele><time>2026-04-12T14:45:08.203Z</time></trkpt><trkpt lat="45.7308614" lon="10.0416349"><ele>453.0</ele><time>2026-04-12T14:45:09.206Z</time></trkpt><trkpt lat="45.7307711" lon="10.0417061"><ele>451.0</ele><time>2026-04-12T14:45:10.21Z</time></trkpt><trkpt lat="45.7306849" lon="10.0417835"><ele>449.0</ele><time>2026-04-12T14:45:11.207Z</time></trkpt><trkpt lat="45.7306223" lon="10.0418776"><ele>449.0</ele><time>2026-04-12T14:45:12.215Z</time></trkpt><trkpt lat="45.7305936" lon="10.0420129"><ele>449.0</ele><time>2026-04-12T14:45:13.204Z</time></trkpt><trkpt lat="45.7305872" lon="10.0421719"><ele>449.0</ele><time>2026-04-12T14:45:14.204Z</time></trkpt><trkpt lat="45.7305923" lon="10.0423529"><ele>449.0</ele><time>2026-04-12T14:45:15.203Z</time></trkpt><trkpt lat="45.7305849" lon="10.0425518"><ele>441.0</ele><time>2026-04-12T14:45:16.204Z</time></trkpt><trkpt lat="45.7305588" lon="10.0427588"><ele>433.0</ele><time>2026-04-12T14:45:17.207Z</time></trkpt><trkpt lat="45.7305132" lon="10.0429669"><ele>425.0</ele><time>2026-04-12T14:45:18.207Z</time></trkpt><trkpt lat="45.7304656" lon="10.0431752"><ele>420.0</ele><time>2026-04-12T14:45:19.209Z</time></trkpt><trkpt lat="45.7304144" lon="10.0433963"><ele>415.0</ele><time>2026-04-12T14:45:20.209Z</time></trkpt><trkpt lat="45.7303555" lon="10.0436139"><ele>410.0</ele><time>2026-04-12T14:45:21.203Z</time></trkpt><trkpt lat="45.7302191" lon="10.0440615"><ele>417.66666666666663</ele><time>2026-04-12T14:45:23.202Z</time></trkpt><trkpt lat="45.7301529" lon="10.0442876"><ele>425.33333333333337</ele><time>2026-04-12T14:45:24.205Z</time></trkpt><trkpt lat="45.7300868" lon="10.0445253"><ele>433.0</ele><time>2026-04-12T14:45:25.204Z</time></trkpt><trkpt lat="45.7300135" lon="10.0447506"><ele>433.0</ele><time>2026-04-12T14:45:26.211Z</time></trkpt><trkpt lat="45.7299268" lon="10.0449601"><ele>433.0</ele><time>2026-04-12T14:45:27.207Z</time></trkpt><trkpt lat="45.7298334" lon="10.0451634"><ele>433.0</ele><time>2026-04-12T14:45:28.214Z</time></trkpt><trkpt lat="45.729754" lon="10.0453686"><ele>426.25</ele><time>2026-04-12T14:45:29.215Z</time></trkpt><trkpt lat="45.7296959" lon="10.0455821"><ele>419.5</ele><time>2026-04-12T14:45:30.207Z</time></trkpt><trkpt lat="45.7296567" lon="10.0457912"><ele>412.75</ele><time>2026-04-12T14:45:31.212Z</time></trkpt><trkpt lat="45.7296271" lon="10.0459759"><ele>406.0</ele><time>2026-04-12T14:45:32.205Z</time></trkpt><trkpt lat="45.7295905" lon="10.0461009"><ele>407.8</ele><time>2026-04-12T14:45:33.21Z</time></trkpt><trkpt lat="45.7295275" lon="10.046169"><ele>409.6</ele><time>2026-04-12T14:45:34.207Z</time></trkpt><trkpt lat="45.7294363" lon="10.0461879"><ele>411.4</ele><time>2026-04-12T14:45:35.211Z</time></trkpt><trkpt lat="45.7293246" lon="10.0461821"><ele>413.2</ele><time>2026-04-12T14:45:36.207Z</time></trkpt><trkpt lat="45.7291938" lon="10.046163"><ele>415.0</ele><time>2026-04-12T14:45:37.219Z</time></trkpt><trkpt lat="45.7290499" lon="10.0461519"><ele>415.0</ele><time>2026-04-12T14:45:38.209Z</time></trkpt><trkpt lat="45.7289028" lon="10.0461688"><ele>415.0</ele><time>2026-04-12T14:45:39.212Z</time></trkpt><trkpt lat="45.7287584" lon="10.0462053"><ele>415.0</ele><time>2026-04-12T14:45:40.21Z</time></trkpt><trkpt lat="45.7286098" lon="10.0462586"><ele>415.0</ele><time>2026-04-12T14:45:41.211Z</time></trkpt><trkpt lat="45.7284484" lon="10.0463037"><ele>417.0</ele><time>2026-04-12T14:45:42.217Z</time></trkpt><trkpt lat="45.728101" lon="10.0462824"><ele>419.0</ele><time>2026-04-12T14:45:44.214Z</time></trkpt><trkpt lat="45.7279262" lon="10.0462434"><ele>419.0</ele><time>2026-04-12T14:45:45.213Z</time></trkpt><trkpt lat="45.7277591" lon="10.0462027"><ele>419.0</ele><time>2026-04-12T14:45:46.209Z</time></trkpt><trkpt lat="45.7275973" lon="10.0461666"><ele>419.0</ele><time>2026-04-12T14:45:47.209Z</time></trkpt><trkpt lat="45.7274375" lon="10.0461399"><ele>416.3333333333333</ele><time>2026-04-12T14:45:48.207Z</time></trkpt><trkpt lat="45.7272817" lon="10.0461389"><ele>413.66666666666663</ele><time>2026-04-12T14:45:49.208Z</time></trkpt><trkpt lat="45.7271305" lon="10.0461674"><ele>411.0</ele><time>2026-04-12T14:45:50.212Z</time></trkpt><trkpt lat="45.7269838" lon="10.046208"><ele>408.0</ele><time>2026-04-12T14:45:51.215Z</time></trkpt><trkpt lat="45.7268443" lon="10.0462402"><ele>405.0</ele><time>2026-04-12T14:45:52.214Z</time></trkpt><trkpt lat="45.7267187" lon="10.0462534"><ele>402.0</ele><time>2026-04-12T14:45:53.205Z</time></trkpt><trkpt lat="45.7266065" lon="10.046233"><ele>399.0</ele><time>2026-04-12T14:45:54.211Z</time></trkpt><trkpt lat="45.7264995" lon="10.0461917"><ele>399.0</ele><time>2026-04-12T14:45:55.205Z</time></trkpt><trkpt lat="45.726394" lon="10.0461564"><ele>399.0</ele><time>2026-04-12T14:45:56.209Z</time></trkpt><trkpt lat="45.7262931" lon="10.0461566"><ele>399.0</ele><time>2026-04-12T14:45:57.207Z</time></trkpt><trkpt lat="45.7262033" lon="10.0461968"><ele>399.0</ele><time>2026-04-12T14:45:58.208Z</time></trkpt><trkpt lat="45.7261122" lon="10.0462938"><ele>399.0</ele><time>2026-04-12T14:45:59.209Z</time></trkpt><trkpt lat="45.7260087" lon="10.0464069"><ele>401.25</ele><time>2026-04-12T14:46:00.212Z</time></trkpt><trkpt lat="45.7258833" lon="10.0465006"><ele>403.5</ele><time>2026-04-12T14:46:01.212Z</time></trkpt><trkpt lat="45.7257489" lon="10.0465691"><ele>405.75</ele><time>2026-04-12T14:46:02.209Z</time></trkpt><trkpt lat="45.7256128" lon="10.0466401"><ele>408.0</ele><time>2026-04-12T14:46:03.208Z</time></trkpt><trkpt lat="45.7253318" lon="10.0468067"><ele>395.0</ele><time>2026-04-12T14:46:05.21Z</time></trkpt><trkpt lat="45.7251815" lon="10.046874"><ele>382.0</ele><time>2026-04-12T14:46:06.208Z</time></trkpt><trkpt lat="45.7250284" lon="10.0469272"><ele>369.0</ele><time>2026-04-12T14:46:07.206Z</time></trkpt><trkpt lat="45.7248779" lon="10.0469526"><ele>369.0</ele><time>2026-04-12T14:46:08.208Z</time></trkpt><trkpt lat="45.7247311" lon="10.0469527"><ele>369.0</ele><time>2026-04-12T14:46:09.207Z</time></trkpt><trkpt lat="45.7245913" lon="10.0469693"><ele>369.0</ele><time>2026-04-12T14:46:10.213Z</time></trkpt><trkpt lat="45.7244559" lon="10.0469916"><ele>369.0</ele><time>2026-04-12T14:46:11.207Z</time></trkpt><trkpt lat="45.7243213" lon="10.0469928"><ele>369.0</ele><time>2026-04-12T14:46:12.207Z</time></trkpt><trkpt lat="45.7241854" lon="10.046962"><ele>369.0</ele><time>2026-04-12T14:46:13.212Z</time></trkpt><trkpt lat="45.724047" lon="10.0469274"><ele>369.0</ele><time>2026-04-12T14:46:14.21Z</time></trkpt><trkpt lat="45.723906" lon="10.0469264"><ele>369.0</ele><time>2026-04-12T14:46:15.214Z</time></trkpt><trkpt lat="45.7237712" lon="10.0469563"><ele>369.0</ele><time>2026-04-12T14:46:16.208Z</time></trkpt><trkpt lat="45.7236371" lon="10.0469973"><ele>369.0</ele><time>2026-04-12T14:46:17.208Z</time></trkpt><trkpt lat="45.723497" lon="10.047012"><ele>369.0</ele><time>2026-04-12T14:46:18.209Z</time></trkpt><trkpt lat="45.7233555" lon="10.0469995"><ele>369.0</ele><time>2026-04-12T14:46:19.206Z</time></trkpt><trkpt lat="45.7232122" lon="10.0469829"><ele>368.3333333333333</ele><time>2026-04-12T14:46:20.205Z</time></trkpt><trkpt lat="45.723067" lon="10.0470023"><ele>367.66666666666663</ele><time>2026-04-12T14:46:21.212Z</time></trkpt><trkpt lat="45.7229143" lon="10.0470494"><ele>367.0</ele><time>2026-04-12T14:46:22.207Z</time></trkpt><trkpt lat="45.7227502" lon="10.0470906"><ele>365.0</ele><time>2026-04-12T14:46:23.21Z</time></trkpt><trkpt lat="45.722572" lon="10.0471206"><ele>363.0</ele><time>2026-04-12T14:46:24.212Z</time></trkpt><trkpt lat="45.7222283" lon="10.0471924"><ele>363.0</ele><time>2026-04-12T14:46:26.204Z</time></trkpt><trkpt lat="45.7220688" lon="10.0472456"><ele>363.0</ele><time>2026-04-12T14:46:27.207Z</time></trkpt><trkpt lat="45.7219246" lon="10.0472999"><ele>363.0</ele><time>2026-04-12T14:46:28.208Z</time></trkpt><trkpt lat="45.7217926" lon="10.0473408"><ele>363.0</ele><time>2026-04-12T14:46:29.207Z</time></trkpt><trkpt lat="45.7216705" lon="10.0473656"><ele>358.75</ele><time>2026-04-12T14:46:30.201Z</time></trkpt><trkpt lat="45.7215553" lon="10.0473587"><ele>354.5</ele><time>2026-04-12T14:46:31.201Z</time></trkpt><trkpt lat="45.7214498" lon="10.0473091"><ele>350.25</ele><time>2026-04-12T14:46:32.211Z</time></trkpt><trkpt lat="45.7213554" lon="10.0472117"><ele>346.0</ele><time>2026-04-12T14:46:33.205Z</time></trkpt><trkpt lat="45.7212719" lon="10.0470891"><ele>346.0</ele><time>2026-04-12T14:46:34.212Z</time></trkpt><trkpt lat="45.7211892" lon="10.0469752"><ele>346.0</ele><time>2026-04-12T14:46:35.209Z</time></trkpt><trkpt lat="45.7211029" lon="10.0468882"><ele>346.0</ele><time>2026-04-12T14:46:36.206Z</time></trkpt><trkpt lat="45.7210173" lon="10.0468651"><ele>346.0</ele><time>2026-04-12T14:46:37.211Z</time></trkpt><trkpt lat="45.7209422" lon="10.0468602"><ele>346.0</ele><time>2026-04-12T14:46:38.209Z</time></trkpt><trkpt lat="45.7208502" lon="10.0468755"><ele>342.0</ele><time>2026-04-12T14:46:40.207Z</time></trkpt><trkpt lat="45.720786" lon="10.0469635"><ele>338.0</ele><time>2026-04-12T14:46:48.215Z</time></trkpt><trkpt lat="45.7206658" lon="10.0470427"><ele>334.0</ele><time>2026-04-12T14:46:50.215Z</time></trkpt><trkpt lat="45.7206037" lon="10.0470193"><ele>330.0</ele><time>2026-04-12T14:46:51.206Z</time></trkpt><trkpt lat="45.7205515" lon="10.0469307"><ele>326.0</ele><time>2026-04-12T14:46:52.221Z</time></trkpt><trkpt lat="45.7205213" lon="10.0467895"><ele>326.0</ele><time>2026-04-12T14:46:53.208Z</time></trkpt><trkpt lat="45.7204934" lon="10.0466327"><ele>326.0</ele><time>2026-04-12T14:46:54.21Z</time></trkpt><trkpt lat="45.7204476" lon="10.046498"><ele>326.0</ele><time>2026-04-12T14:46:55.214Z</time></trkpt><trkpt lat="45.7203591" lon="10.0464112"><ele>326.0</ele><time>2026-04-12T14:46:56.21Z</time></trkpt><trkpt lat="45.7202362" lon="10.0463542"><ele>327.6666666666667</ele><time>2026-04-12T14:46:57.216Z</time></trkpt><trkpt lat="45.7200891" lon="10.0463177"><ele>329.3333333333333</ele><time>2026-04-12T14:46:58.216Z</time></trkpt><trkpt lat="45.7199248" lon="10.0463014"><ele>331.0</ele><time>2026-04-12T14:46:59.212Z</time></trkpt><trkpt lat="45.719755" lon="10.0462914"><ele>331.0</ele><time>2026-04-12T14:47:00.209Z</time></trkpt><trkpt lat="45.7195773" lon="10.0462699"><ele>331.0</ele><time>2026-04-12T14:47:01.214Z</time></trkpt><trkpt lat="45.7193982" lon="10.0462258"><ele>331.0</ele><time>2026-04-12T14:47:02.211Z</time></trkpt><trkpt lat="45.7192232" lon="10.0461563"><ele>322.66666666666663</ele><time>2026-04-12T14:47:03.207Z</time></trkpt><trkpt lat="45.7190524" lon="10.0460656"><ele>314.3333333333333</ele><time>2026-04-12T14:47:04.21Z</time></trkpt><trkpt lat="45.7188825" lon="10.0459885"><ele>306.0</ele><time>2026-04-12T14:47:05.211Z</time></trkpt><trkpt lat="45.7187143" lon="10.0459429"><ele>295.3333333333333</ele><time>2026-04-12T14:47:06.206Z</time></trkpt><trkpt lat="45.7185436" lon="10.0459258"><ele>284.66666666666663</ele><time>2026-04-12T14:47:07.21Z</time></trkpt><trkpt lat="45.7183715" lon="10.0459249"><ele>274.0</ele><time>2026-04-12T14:47:08.22Z</time></trkpt><trkpt lat="45.7182054" lon="10.0458992"><ele>281.0</ele><time>2026-04-12T14:47:09.212Z</time></trkpt><trkpt lat="45.717873" lon="10.0457876"><ele>288.0</ele><time>2026-04-12T14:47:11.214Z</time></trkpt><trkpt lat="45.7177237" lon="10.0457014"><ele>288.0</ele><time>2026-04-12T14:47:12.226Z</time></trkpt><trkpt lat="45.7175938" lon="10.045611"><ele>288.0</ele><time>2026-04-12T14:47:13.206Z</time></trkpt><trkpt lat="45.7174762" lon="10.045489"><ele>288.0</ele><time>2026-04-12T14:47:14.218Z</time></trkpt><trkpt lat="45.7173569" lon="10.0453331"><ele>288.0</ele><time>2026-04-12T14:47:15.214Z</time></trkpt><trkpt lat="45.7172286" lon="10.0451719"><ele>288.0</ele><time>2026-04-12T14:47:16.211Z</time></trkpt><trkpt lat="45.7170982" lon="10.0450279"><ele>288.0</ele><time>2026-04-12T14:47:17.209Z</time></trkpt><trkpt lat="45.7169678" lon="10.0449056"><ele>292.0</ele><time>2026-04-12T14:47:18.212Z</time></trkpt><trkpt lat="45.716842" lon="10.0448132"><ele>296.0</ele><time>2026-04-12T14:47:19.209Z</time></trkpt><trkpt lat="45.7167222" lon="10.0447596"><ele>300.0</ele><time>2026-04-12T14:47:20.212Z</time></trkpt><trkpt lat="45.7166108" lon="10.0447541"><ele>304.0</ele><time>2026-04-12T14:47:21.211Z</time></trkpt><trkpt lat="45.716515" lon="10.0447809"><ele>304.0</ele><time>2026-04-12T14:47:22.214Z</time></trkpt><trkpt lat="45.7164387" lon="10.0448321"><ele>304.0</ele><time>2026-04-12T14:47:23.208Z</time></trkpt><trkpt lat="45.7163803" lon="10.0448982"><ele>304.0</ele><time>2026-04-12T14:47:24.211Z</time></trkpt><trkpt lat="45.7163501" lon="10.0449819"><ele>304.0</ele><time>2026-04-12T14:47:25.211Z</time></trkpt><trkpt lat="45.7163655" lon="10.0450869"><ele>304.0</ele><time>2026-04-12T14:47:26.211Z</time></trkpt><trkpt lat="45.7164134" lon="10.0451842"><ele>304.0</ele><time>2026-04-12T14:47:27.207Z</time></trkpt><trkpt lat="45.7164937" lon="10.0452435"><ele>300.0</ele><time>2026-04-12T14:47:28.206Z</time></trkpt><trkpt lat="45.7165818" lon="10.0452458"><ele>296.0</ele><time>2026-04-12T14:47:29.214Z</time></trkpt><trkpt lat="45.7166677" lon="10.045203"><ele>292.0</ele><time>2026-04-12T14:47:30.209Z</time></trkpt><trkpt lat="45.7168614" lon="10.0450731"><ele>288.0</ele><time>2026-04-12T14:47:32.202Z</time></trkpt><trkpt lat="45.7169713" lon="10.045053"><ele>288.0</ele><time>2026-04-12T14:47:33.21Z</time></trkpt><trkpt lat="45.7170818" lon="10.0450796"><ele>288.0</ele><time>2026-04-12T14:47:34.211Z</time></trkpt><trkpt lat="45.7171852" lon="10.0451595"><ele>288.0</ele><time>2026-04-12T14:47:35.214Z</time></trkpt><trkpt lat="45.7172749" lon="10.0452857"><ele>288.0</ele><time>2026-04-12T14:47:36.215Z</time></trkpt><trkpt lat="45.7173505" lon="10.0454423"><ele>288.0</ele><time>2026-04-12T14:47:37.208Z</time></trkpt><trkpt lat="45.7174088" lon="10.0456017"><ele>288.0</ele><time>2026-04-12T14:47:38.209Z</time></trkpt><trkpt lat="45.7174511" lon="10.0457653"><ele>288.0</ele><time>2026-04-12T14:47:39.21Z</time></trkpt><trkpt lat="45.7175017" lon="10.0459229"><ele>288.0</ele><time>2026-04-12T14:47:40.213Z</time></trkpt><trkpt lat="45.7175557" lon="10.0460635"><ele>284.5</ele><time>2026-04-12T14:47:41.214Z</time></trkpt><trkpt lat="45.7176263" lon="10.0461757"><ele>281.0</ele><time>2026-04-12T14:47:42.208Z</time></trkpt><trkpt lat="45.7177203" lon="10.0462621"><ele>277.5</ele><time>2026-04-12T14:47:43.205Z</time></trkpt><trkpt lat="45.7178314" lon="10.0463446"><ele>274.0</ele><time>2026-04-12T14:47:44.213Z</time></trkpt><trkpt lat="45.7179543" lon="10.0464239"><ele>274.0</ele><time>2026-04-12T14:47:45.211Z</time></trkpt><trkpt lat="45.7180826" lon="10.0465039"><ele>274.0</ele><time>2026-04-12T14:47:46.215Z</time></trkpt><trkpt lat="45.7182108" lon="10.0465814"><ele>274.0</ele><time>2026-04-12T14:47:47.211Z</time></trkpt><trkpt lat="45.71834" lon="10.0466541"><ele>274.0</ele><time>2026-04-12T14:47:48.206Z</time></trkpt><trkpt lat="45.7184703" lon="10.0467204"><ele>265.3333333333333</ele><time>2026-04-12T14:47:49.213Z</time></trkpt><trkpt lat="45.7186025" lon="10.0467733"><ele>256.6666666666667</ele><time>2026-04-12T14:47:50.212Z</time></trkpt><trkpt lat="45.7187358" lon="10.0468013"><ele>248.0</ele><time>2026-04-12T14:47:51.209Z</time></trkpt><trkpt lat="45.7189984" lon="10.0468236"><ele>248.0</ele><time>2026-04-12T14:47:53.212Z</time></trkpt><trkpt lat="45.7191216" lon="10.0468727"><ele>248.0</ele><time>2026-04-12T14:47:54.212Z</time></trkpt><trkpt lat="45.7192338" lon="10.0469707"><ele>248.0</ele><time>2026-04-12T14:47:55.211Z</time></trkpt><trkpt lat="45.7193322" lon="10.0470963"><ele>248.0</ele><time>2026-04-12T14:47:56.21Z</time></trkpt><trkpt lat="45.7194244" lon="10.0472208"><ele>248.8</ele><time>2026-04-12T14:47:57.216Z</time></trkpt><trkpt lat="45.7195158" lon="10.0473245"><ele>249.60000000000002</ele><time>2026-04-12T14:47:58.215Z</time></trkpt><trkpt lat="45.7196086" lon="10.0474011"><ele>250.39999999999998</ele><time>2026-04-12T14:47:59.213Z</time></trkpt><trkpt lat="45.7196985" lon="10.047453"><ele>251.2</ele><time>2026-04-12T14:48:00.209Z</time></trkpt><trkpt lat="45.7197714" lon="10.0475001"><ele>252.0</ele><time>2026-04-12T14:48:01.211Z</time></trkpt><trkpt lat="45.7198237" lon="10.0475521"><ele>252.0</ele><time>2026-04-12T14:48:02.215Z</time></trkpt><trkpt lat="45.7198251" lon="10.0477091"><ele>252.0</ele><time>2026-04-12T14:48:04.209Z</time></trkpt><trkpt lat="45.7197106" lon="10.0477836"><ele>252.0</ele><time>2026-04-12T14:48:06.212Z</time></trkpt><trkpt lat="45.719626" lon="10.0477455"><ele>252.0</ele><time>2026-04-12T14:48:07.211Z</time></trkpt><trkpt lat="45.7195407" lon="10.0476519"><ele>252.0</ele><time>2026-04-12T14:48:08.207Z</time></trkpt><trkpt lat="45.7194428" lon="10.0475274"><ele>251.0</ele><time>2026-04-12T14:48:09.211Z</time></trkpt><trkpt lat="45.7193384" lon="10.0474177"><ele>250.0</ele><time>2026-04-12T14:48:10.216Z</time></trkpt><trkpt lat="45.7192306" lon="10.047329"><ele>249.0</ele><time>2026-04-12T14:48:11.21Z</time></trkpt><trkpt lat="45.7191237" lon="10.047255"><ele>248.0</ele><time>2026-04-12T14:48:12.214Z</time></trkpt><trkpt lat="45.7189115" lon="10.0471446"><ele>248.0</ele><time>2026-04-12T14:48:14.215Z</time></trkpt><trkpt lat="45.7188024" lon="10.047107"><ele>248.0</ele><time>2026-04-12T14:48:15.216Z</time></trkpt><trkpt lat="45.7186953" lon="10.0470818"><ele>248.0</ele><time>2026-04-12T14:48:16.209Z</time></trkpt><trkpt lat="45.7185875" lon="10.0470755"><ele>248.0</ele><time>2026-04-12T14:48:17.207Z</time></trkpt><trkpt lat="45.7184778" lon="10.0470813"><ele>248.0</ele><time>2026-04-12T14:48:18.214Z</time></trkpt><trkpt lat="45.7183769" lon="10.0470553"><ele>244.00000000000003</ele><time>2026-04-12T14:48:19.208Z</time></trkpt><trkpt lat="45.7182859" lon="10.0470089"><ele>240.0</ele><time>2026-04-12T14:48:20.21Z</time></trkpt><trkpt lat="45.7182081" lon="10.0469559"><ele>236.0</ele><time>2026-04-12T14:48:21.21Z</time></trkpt><trkpt lat="45.7181449" lon="10.0469301"><ele>232.0</ele><time>2026-04-12T14:48:22.215Z</time></trkpt><trkpt lat="45.7180615" lon="10.0470303"><ele>228.00000000000003</ele><time>2026-04-12T14:48:24.22Z</time></trkpt><trkpt lat="45.7180647" lon="10.0471266"><ele>224.0</ele><time>2026-04-12T14:48:25.208Z</time></trkpt><trkpt lat="45.7180911" lon="10.0472336"><ele>224.0</ele><time>2026-04-12T14:48:26.21Z</time></trkpt><trkpt lat="45.7181425" lon="10.0473203"><ele>223.99999999999997</ele><time>2026-04-12T14:48:27.211Z</time></trkpt><trkpt lat="45.7182133" lon="10.0473892"><ele>223.99999999999997</ele><time>2026-04-12T14:48:28.212Z</time></trkpt><trkpt lat="45.7183158" lon="10.0474214"><ele>224.0</ele><time>2026-04-12T14:48:29.215Z</time></trkpt><trkpt lat="45.7184394" lon="10.0474322"><ele>224.0</ele><time>2026-04-12T14:48:30.218Z</time></trkpt><trkpt lat="45.7185669" lon="10.0474498"><ele>220.33333333333334</ele><time>2026-04-12T14:48:31.212Z</time></trkpt><trkpt lat="45.7186902" lon="10.0474777"><ele>216.66666666666669</ele><time>2026-04-12T14:48:32.214Z</time></trkpt><trkpt lat="45.7188094" lon="10.0475089"><ele>213.0</ele><time>2026-04-12T14:48:33.221Z</time></trkpt><trkpt lat="45.7190207" lon="10.0475766"><ele>213.0</ele><time>2026-04-12T14:48:35.209Z</time></trkpt><trkpt lat="45.719107" lon="10.0476253"><ele>213.0</ele><time>2026-04-12T14:48:36.219Z</time></trkpt><trkpt lat="45.7191753" lon="10.047701"><ele>213.0</ele><time>2026-04-12T14:48:37.212Z</time></trkpt><trkpt lat="45.7192181" lon="10.0477979"><ele>213.0</ele><time>2026-04-12T14:48:38.21Z</time></trkpt><trkpt lat="45.7192377" lon="10.0479141"><ele>213.0</ele><time>2026-04-12T14:48:39.218Z</time></trkpt><trkpt lat="45.7192317" lon="10.0480346"><ele>213.0</ele><time>2026-04-12T14:48:40.215Z</time></trkpt><trkpt lat="45.7191927" lon="10.0481302"><ele>213.0</ele><time>2026-04-12T14:48:41.223Z</time></trkpt><trkpt lat="45.719137" lon="10.0481891"><ele>213.0</ele><time>2026-04-12T14:48:42.213Z</time></trkpt><trkpt lat="45.7190324" lon="10.0482103"><ele>213.0</ele><time>2026-04-12T14:48:44.226Z</time></trkpt><trkpt lat="45.7189951" lon="10.0481359"><ele>213.0</ele><time>2026-04-12T14:48:47.212Z</time></trkpt><trkpt lat="45.7188832" lon="10.0481436"><ele>213.0</ele><time>2026-04-12T14:49:09.215Z</time></trkpt><trkpt lat="45.7187197" lon="10.0480983"><ele>213.0</ele><time>2026-04-12T14:49:11.21Z</time></trkpt><trkpt lat="45.7186388" lon="10.048069"><ele>213.0</ele><time>2026-04-12T14:49:12.219Z</time></trkpt><trkpt lat="45.7185718" lon="10.0480391"><ele>213.0</ele><time>2026-04-12T14:49:13.21Z</time></trkpt><trkpt lat="45.7184837" lon="10.0479557"><ele>213.0</ele><time>2026-04-12T14:49:15.214Z</time></trkpt><trkpt lat="45.718429" lon="10.0478912"><ele>213.0</ele><time>2026-04-12T14:49:17.207Z</time></trkpt><trkpt lat="45.7183637" lon="10.0479235"><ele>213.0</ele><time>2026-04-12T14:50:47.213Z</time></trkpt><trkpt lat="45.7181562" lon="10.047916"><ele>210.0</ele><time>2026-04-12T14:50:50.21Z</time></trkpt><trkpt lat="45.7180651" lon="10.0479054"><ele>207.0</ele><time>2026-04-12T14:50:51.213Z</time></trkpt><trkpt lat="45.7179673" lon="10.0478848"><ele>204.0</ele><time>2026-04-12T14:50:52.231Z</time></trkpt><trkpt lat="45.7178638" lon="10.047865"><ele>201.0</ele><time>2026-04-12T14:50:53.22Z</time></trkpt><trkpt lat="45.7177583" lon="10.0478525"><ele>198.0</ele><time>2026-04-12T14:50:54.222Z</time></trkpt><trkpt lat="45.717654" lon="10.0478456"><ele>198.0</ele><time>2026-04-12T14:50:55.226Z</time></trkpt><trkpt lat="45.7175488" lon="10.0478386"><ele>198.0</ele><time>2026-04-12T14:50:56.218Z</time></trkpt><trkpt lat="45.7174458" lon="10.0478419"><ele>198.0</ele><time>2026-04-12T14:50:57.209Z</time></trkpt><trkpt lat="45.7173461" lon="10.0478586"><ele>198.0</ele><time>2026-04-12T14:50:58.224Z</time></trkpt><trkpt lat="45.7172504" lon="10.0478845"><ele>198.0</ele><time>2026-04-12T14:50:59.218Z</time></trkpt><trkpt lat="45.7171577" lon="10.0479033"><ele>198.0</ele><time>2026-04-12T14:51:00.227Z</time></trkpt><trkpt lat="45.7170614" lon="10.0479083"><ele>198.0</ele><time>2026-04-12T14:51:01.211Z</time></trkpt><trkpt lat="45.7169536" lon="10.0479119"><ele>198.0</ele><time>2026-04-12T14:51:02.223Z</time></trkpt><trkpt lat="45.7168369" lon="10.0479018"><ele>198.0</ele><time>2026-04-12T14:51:03.221Z</time></trkpt><trkpt lat="45.7167191" lon="10.0478732"><ele>198.0</ele><time>2026-04-12T14:51:04.226Z</time></trkpt><trkpt lat="45.7166061" lon="10.04782"><ele>197.75</ele><time>2026-04-12T14:51:05.216Z</time></trkpt><trkpt lat="45.7164933" lon="10.0477572"><ele>197.5</ele><time>2026-04-12T14:51:06.22Z</time></trkpt><trkpt lat="45.7163752" lon="10.0476998"><ele>197.25</ele><time>2026-04-12T14:51:07.22Z</time></trkpt><trkpt lat="45.7162555" lon="10.0476527"><ele>197.0</ele><time>2026-04-12T14:51:08.216Z</time></trkpt><trkpt lat="45.7160071" lon="10.0475833"><ele>197.0</ele><time>2026-04-12T14:51:10.211Z</time></trkpt><trkpt lat="45.7158807" lon="10.0475531"><ele>197.0</ele><time>2026-04-12T14:51:11.221Z</time></trkpt><trkpt lat="45.7157566" lon="10.0475299"><ele>197.0</ele><time>2026-04-12T14:51:12.231Z</time></trkpt><trkpt lat="45.7156365" lon="10.0475143"><ele>197.0</ele><time>2026-04-12T14:51:13.22Z</time></trkpt><trkpt lat="45.7155197" lon="10.0475056"><ele>197.0</ele><time>2026-04-12T14:51:14.22Z</time></trkpt><trkpt lat="45.7154" lon="10.0475002"><ele>197.0</ele><time>2026-04-12T14:51:15.223Z</time></trkpt><trkpt lat="45.7152771" lon="10.0475001"><ele>197.0</ele><time>2026-04-12T14:51:16.221Z</time></trkpt><trkpt lat="45.7151479" lon="10.0475071"><ele>197.0</ele><time>2026-04-12T14:51:17.22Z</time></trkpt><trkpt lat="45.7150144" lon="10.0475094"><ele>195.75</ele><time>2026-04-12T14:51:18.221Z</time></trkpt><trkpt lat="45.714875" lon="10.0475029"><ele>194.5</ele><time>2026-04-12T14:51:19.228Z</time></trkpt><trkpt lat="45.7147353" lon="10.0474836"><ele>193.25</ele><time>2026-04-12T14:51:20.214Z</time></trkpt><trkpt lat="45.7145984" lon="10.0474538"><ele>192.0</ele><time>2026-04-12T14:51:21.218Z</time></trkpt><trkpt lat="45.7144709" lon="10.0474183"><ele>197.0</ele><time>2026-04-12T14:51:22.231Z</time></trkpt><trkpt lat="45.7143506" lon="10.0473805"><ele>202.0</ele><time>2026-04-12T14:51:23.223Z</time></trkpt><trkpt lat="45.7142344" lon="10.0473444"><ele>207.0</ele><time>2026-04-12T14:51:24.221Z</time></trkpt><trkpt lat="45.7141169" lon="10.0473053"><ele>212.0</ele><time>2026-04-12T14:51:25.224Z</time></trkpt><trkpt lat="45.7139985" lon="10.0472721"><ele>212.0</ele><time>2026-04-12T14:51:26.221Z</time></trkpt><trkpt lat="45.7138741" lon="10.0472396"><ele>212.0</ele><time>2026-04-12T14:51:27.22Z</time></trkpt><trkpt lat="45.7137403" lon="10.0472138"><ele>212.0</ele><time>2026-04-12T14:51:28.228Z</time></trkpt><trkpt lat="45.7136007" lon="10.0471807"><ele>212.0</ele><time>2026-04-12T14:51:29.217Z</time></trkpt><trkpt lat="45.713316" lon="10.0471224"><ele>212.5</ele><time>2026-04-12T14:51:31.231Z</time></trkpt><trkpt lat="45.7131813" lon="10.0470893"><ele>213.0</ele><time>2026-04-12T14:51:32.231Z</time></trkpt><trkpt lat="45.7130547" lon="10.0470519"><ele>213.5</ele><time>2026-04-12T14:51:33.228Z</time></trkpt><trkpt lat="45.7129348" lon="10.0470054"><ele>214.0</ele><time>2026-04-12T14:51:34.208Z</time></trkpt><trkpt lat="45.7128132" lon="10.046946"><ele>211.25</ele><time>2026-04-12T14:51:35.221Z</time></trkpt><trkpt lat="45.7126875" lon="10.0468782"><ele>208.5</ele><time>2026-04-12T14:51:36.219Z</time></trkpt><trkpt lat="45.7125588" lon="10.0468056"><ele>205.75</ele><time>2026-04-12T14:51:37.213Z</time></trkpt><trkpt lat="45.7124312" lon="10.0467344"><ele>203.0</ele><time>2026-04-12T14:51:38.211Z</time></trkpt><trkpt lat="45.7123059" lon="10.0466683"><ele>207.75</ele><time>2026-04-12T14:51:39.205Z</time></trkpt><trkpt lat="45.7121833" lon="10.0466087"><ele>212.5</ele><time>2026-04-12T14:51:40.219Z</time></trkpt><trkpt lat="45.7120675" lon="10.0465693"><ele>217.25</ele><time>2026-04-12T14:51:41.227Z</time></trkpt><trkpt lat="45.7119607" lon="10.0465631"><ele>222.0</ele><time>2026-04-12T14:51:42.219Z</time></trkpt><trkpt lat="45.7118656" lon="10.0466172"><ele>215.0</ele><time>2026-04-12T14:51:43.221Z</time></trkpt><trkpt lat="45.7117851" lon="10.0467281"><ele>208.0</ele><time>2026-04-12T14:51:44.233Z</time></trkpt><trkpt lat="45.7117241" lon="10.0468719"><ele>201.0</ele><time>2026-04-12T14:51:45.216Z</time></trkpt><trkpt lat="45.7116621" lon="10.0470303"><ele>194.0</ele><time>2026-04-12T14:51:46.223Z</time></trkpt><trkpt lat="45.7115911" lon="10.0472011"><ele>194.0</ele><time>2026-04-12T14:51:47.222Z</time></trkpt><trkpt lat="45.7115168" lon="10.0473656"><ele>194.0</ele><time>2026-04-12T14:51:48.221Z</time></trkpt><trkpt lat="45.7114381" lon="10.0475219"><ele>194.0</ele><time>2026-04-12T14:51:49.235Z</time></trkpt><trkpt lat="45.7113519" lon="10.0476684"><ele>194.0</ele><time>2026-04-12T14:51:50.222Z</time></trkpt><trkpt lat="45.7111292" lon="10.047928"><ele>194.0</ele><time>2026-04-12T14:51:52.23Z</time></trkpt><trkpt lat="45.7109997" lon="10.0480193"><ele>194.0</ele><time>2026-04-12T14:51:53.218Z</time></trkpt><trkpt lat="45.7108631" lon="10.0480834"><ele>194.0</ele><time>2026-04-12T14:51:54.221Z</time></trkpt><trkpt lat="45.7107318" lon="10.0481149"><ele>194.0</ele><time>2026-04-12T14:51:55.214Z</time></trkpt><trkpt lat="45.7106017" lon="10.0481081"><ele>194.0</ele><time>2026-04-12T14:51:56.217Z</time></trkpt><trkpt lat="45.7104757" lon="10.0480757"><ele>194.0</ele><time>2026-04-12T14:51:57.221Z</time></trkpt><trkpt lat="45.7103496" lon="10.0480319"><ele>194.0</ele><time>2026-04-12T14:51:58.222Z</time></trkpt><trkpt lat="45.7102233" lon="10.0479887"><ele>194.0</ele><time>2026-04-12T14:51:59.211Z</time></trkpt><trkpt lat="45.7101" lon="10.0479544"><ele>193.25</ele><time>2026-04-12T14:52:00.221Z</time></trkpt><trkpt lat="45.7099817" lon="10.0479144"><ele>192.5</ele><time>2026-04-12T14:52:01.219Z</time></trkpt><trkpt lat="45.7098726" lon="10.0478497"><ele>191.75</ele><time>2026-04-12T14:52:02.218Z</time></trkpt><trkpt lat="45.709772" lon="10.0477569"><ele>191.0</ele><time>2026-04-12T14:52:03.218Z</time></trkpt><trkpt lat="45.7096846" lon="10.047627"><ele>191.0</ele><time>2026-04-12T14:52:04.217Z</time></trkpt><trkpt lat="45.7096091" lon="10.0474864"><ele>191.0</ele><time>2026-04-12T14:52:05.228Z</time></trkpt><trkpt lat="45.709541" lon="10.0473416"><ele>191.0</ele><time>2026-04-12T14:52:06.212Z</time></trkpt><trkpt lat="45.7094647" lon="10.047205"><ele>191.0</ele><time>2026-04-12T14:52:07.215Z</time></trkpt><trkpt lat="45.7093773" lon="10.0470913"><ele>192.5</ele><time>2026-04-12T14:52:08.22Z</time></trkpt><trkpt lat="45.7092761" lon="10.0470031"><ele>194.0</ele><time>2026-04-12T14:52:09.229Z</time></trkpt><trkpt lat="45.7091669" lon="10.0469297"><ele>195.5</ele><time>2026-04-12T14:52:10.221Z</time></trkpt><trkpt lat="45.7090504" lon="10.0468673"><ele>197.0</ele><time>2026-04-12T14:52:11.218Z</time></trkpt><trkpt lat="45.7088118" lon="10.0467578"><ele>197.0</ele><time>2026-04-12T14:52:13.221Z</time></trkpt><trkpt lat="45.7086847" lon="10.0467223"><ele>197.0</ele><time>2026-04-12T14:52:14.22Z</time></trkpt><trkpt lat="45.708555" lon="10.0467203"><ele>197.0</ele><time>2026-04-12T14:52:15.219Z</time></trkpt><trkpt lat="45.7084232" lon="10.0467426"><ele>197.0</ele><time>2026-04-12T14:52:16.21Z</time></trkpt><trkpt lat="45.7082911" lon="10.0467807"><ele>195.5</ele><time>2026-04-12T14:52:17.231Z</time></trkpt><trkpt lat="45.708158" lon="10.0468339"><ele>194.0</ele><time>2026-04-12T14:52:18.222Z</time></trkpt><trkpt lat="45.7080258" lon="10.0468879"><ele>192.5</ele><time>2026-04-12T14:52:19.222Z</time></trkpt><trkpt lat="45.7078925" lon="10.0469439"><ele>191.0</ele><time>2026-04-12T14:52:20.211Z</time></trkpt><trkpt lat="45.7077581" lon="10.0470061"><ele>192.75</ele><time>2026-04-12T14:52:21.218Z</time></trkpt><trkpt lat="45.7076247" lon="10.0470733"><ele>194.5</ele><time>2026-04-12T14:52:22.221Z</time></trkpt><trkpt lat="45.7074949" lon="10.0471444"><ele>196.25</ele><time>2026-04-12T14:52:23.212Z</time></trkpt><trkpt lat="45.707368" lon="10.0472165"><ele>198.0</ele><time>2026-04-12T14:52:24.234Z</time></trkpt><trkpt lat="45.707244" lon="10.0472889"><ele>198.0</ele><time>2026-04-12T14:52:25.227Z</time></trkpt><trkpt lat="45.7071184" lon="10.0473548"><ele>198.0</ele><time>2026-04-12T14:52:26.209Z</time></trkpt><trkpt lat="45.706988" lon="10.0474084"><ele>198.0</ele><time>2026-04-12T14:52:27.22Z</time></trkpt><trkpt lat="45.7068518" lon="10.0474605"><ele>198.0</ele><time>2026-04-12T14:52:28.219Z</time></trkpt><trkpt lat="45.7067088" lon="10.0475091"><ele>195.0</ele><time>2026-04-12T14:52:29.218Z</time></trkpt><trkpt lat="45.7065631" lon="10.0475593"><ele>192.0</ele><time>2026-04-12T14:52:30.21Z</time></trkpt><trkpt lat="45.7064173" lon="10.047612"><ele>189.0</ele><time>2026-04-12T14:52:31.23Z</time></trkpt><trkpt lat="45.7062709" lon="10.0476667"><ele>198.5</ele><time>2026-04-12T14:52:32.212Z</time></trkpt><trkpt lat="45.7059848" lon="10.0478034"><ele>208.0</ele><time>2026-04-12T14:52:34.22Z</time></trkpt><trkpt lat="45.7058407" lon="10.0478854"><ele>208.0</ele><time>2026-04-12T14:52:35.215Z</time></trkpt><trkpt lat="45.705695" lon="10.0479678"><ele>208.0</ele><time>2026-04-12T14:52:36.221Z</time></trkpt><trkpt lat="45.7055473" lon="10.048054"><ele>208.0</ele><time>2026-04-12T14:52:37.215Z</time></trkpt><trkpt lat="45.7053971" lon="10.0481399"><ele>205.0</ele><time>2026-04-12T14:52:38.212Z</time></trkpt><trkpt lat="45.7052385" lon="10.0482291"><ele>202.0</ele><time>2026-04-12T14:52:39.22Z</time></trkpt><trkpt lat="45.7050737" lon="10.0483202"><ele>199.0</ele><time>2026-04-12T14:52:40.214Z</time></trkpt><trkpt lat="45.7049056" lon="10.0484195"><ele>199.0</ele><time>2026-04-12T14:52:41.216Z</time></trkpt><trkpt lat="45.7047381" lon="10.048518"><ele>199.0</ele><time>2026-04-12T14:52:42.222Z</time></trkpt><trkpt lat="45.7045728" lon="10.0486129"><ele>199.0</ele><time>2026-04-12T14:52:43.22Z</time></trkpt><trkpt lat="45.7044101" lon="10.048706"><ele>207.0</ele><time>2026-04-12T14:52:44.22Z</time></trkpt><trkpt lat="45.7042471" lon="10.0487982"><ele>215.0</ele><time>2026-04-12T14:52:45.222Z</time></trkpt><trkpt lat="45.7040828" lon="10.0488932"><ele>223.0</ele><time>2026-04-12T14:52:46.212Z</time></trkpt><trkpt lat="45.7039196" lon="10.0489926"><ele>223.0</ele><time>2026-04-12T14:52:47.223Z</time></trkpt><trkpt lat="45.7037588" lon="10.0491046"><ele>223.0</ele><time>2026-04-12T14:52:48.23Z</time></trkpt><trkpt lat="45.7036007" lon="10.049237"><ele>223.0</ele><time>2026-04-12T14:52:49.209Z</time></trkpt><trkpt lat="45.7034489" lon="10.0494001"><ele>217.0</ele><time>2026-04-12T14:52:50.22Z</time></trkpt><trkpt lat="45.7033059" lon="10.0495926"><ele>211.0</ele><time>2026-04-12T14:52:51.223Z</time></trkpt><trkpt lat="45.7031695" lon="10.0498028"><ele>205.0</ele><time>2026-04-12T14:52:52.218Z</time></trkpt><trkpt lat="45.7030359" lon="10.0500013"><ele>204.0</ele><time>2026-04-12T14:52:53.225Z</time></trkpt><trkpt lat="45.7027756" lon="10.0503846"><ele>203.0</ele><time>2026-04-12T14:52:55.222Z</time></trkpt><trkpt lat="45.7026505" lon="10.0505573"><ele>203.0</ele><time>2026-04-12T14:52:56.218Z</time></trkpt><trkpt lat="45.7025275" lon="10.0507215"><ele>203.0</ele><time>2026-04-12T14:52:57.221Z</time></trkpt><trkpt lat="45.7024039" lon="10.0508711"><ele>203.0</ele><time>2026-04-12T14:52:58.211Z</time></trkpt><trkpt lat="45.702279" lon="10.0510023"><ele>203.0</ele><time>2026-04-12T14:52:59.219Z</time></trkpt><trkpt lat="45.7021567" lon="10.0511029"><ele>203.0</ele><time>2026-04-12T14:53:00.214Z</time></trkpt><trkpt lat="45.7020344" lon="10.0512051"><ele>203.0</ele><time>2026-04-12T14:53:01.211Z</time></trkpt><trkpt lat="45.7019203" lon="10.0512979"><ele>203.0</ele><time>2026-04-12T14:53:02.22Z</time></trkpt><trkpt lat="45.7018126" lon="10.0513902"><ele>203.0</ele><time>2026-04-12T14:53:03.223Z</time></trkpt><trkpt lat="45.7017148" lon="10.0514876"><ele>203.0</ele><time>2026-04-12T14:53:04.223Z</time></trkpt><trkpt lat="45.7016317" lon="10.0515705"><ele>203.0</ele><time>2026-04-12T14:53:05.214Z</time></trkpt><trkpt lat="45.7015643" lon="10.0516328"><ele>203.0</ele><time>2026-04-12T14:53:06.215Z</time></trkpt><trkpt lat="45.7014922" lon="10.0516459"><ele>203.0</ele><time>2026-04-12T14:53:16.209Z</time></trkpt><trkpt lat="45.7012475" lon="10.0517706"><ele>199.33333333333334</ele><time>2026-04-12T14:53:21.22Z</time></trkpt><trkpt lat="45.7011178" lon="10.0518069"><ele>195.66666666666669</ele><time>2026-04-12T14:53:22.223Z</time></trkpt><trkpt lat="45.7009674" lon="10.051836"><ele>192.0</ele><time>2026-04-12T14:53:23.222Z</time></trkpt><trkpt lat="45.7007986" lon="10.0518518"><ele>192.0</ele><time>2026-04-12T14:53:24.234Z</time></trkpt><trkpt lat="45.700628" lon="10.0518721"><ele>192.0</ele><time>2026-04-12T14:53:25.218Z</time></trkpt><trkpt lat="45.7004484" lon="10.0519083"><ele>192.0</ele><time>2026-04-12T14:53:26.229Z</time></trkpt><trkpt lat="45.7002582" lon="10.0519638"><ele>194.66666666666669</ele><time>2026-04-12T14:53:27.217Z</time></trkpt><trkpt lat="45.7000616" lon="10.0520442"><ele>197.33333333333334</ele><time>2026-04-12T14:53:28.223Z</time></trkpt><trkpt lat="45.6998715" lon="10.0521342"><ele>200.0</ele><time>2026-04-12T14:53:29.226Z</time></trkpt><trkpt lat="45.6996925" lon="10.0522358"><ele>200.0</ele><time>2026-04-12T14:53:30.217Z</time></trkpt><trkpt lat="45.6995105" lon="10.0523417"><ele>200.0</ele><time>2026-04-12T14:53:31.221Z</time></trkpt><trkpt lat="45.699327" lon="10.0524449"><ele>200.0</ele><time>2026-04-12T14:53:32.213Z</time></trkpt><trkpt lat="45.6991401" lon="10.0525368"><ele>198.0</ele><time>2026-04-12T14:53:33.221Z</time></trkpt><trkpt lat="45.6989497" lon="10.0526001"><ele>196.0</ele><time>2026-04-12T14:53:34.209Z</time></trkpt><trkpt lat="45.6987521" lon="10.0526236"><ele>194.0</ele><time>2026-04-12T14:53:35.218Z</time></trkpt><trkpt lat="45.6985475" lon="10.052634"><ele>194.0</ele><time>2026-04-12T14:53:36.23Z</time></trkpt><trkpt lat="45.698145" lon="10.0527282"><ele>194.0</ele><time>2026-04-12T14:53:38.218Z</time></trkpt><trkpt lat="45.697963" lon="10.0528421"><ele>194.0</ele><time>2026-04-12T14:53:39.221Z</time></trkpt><trkpt lat="45.6977824" lon="10.0529918"><ele>194.0</ele><time>2026-04-12T14:53:40.221Z</time></trkpt><trkpt lat="45.6976043" lon="10.0531404"><ele>194.0</ele><time>2026-04-12T14:53:41.231Z</time></trkpt><trkpt lat="45.6974311" lon="10.0532774"><ele>192.0</ele><time>2026-04-12T14:53:42.222Z</time></trkpt><trkpt lat="45.6972658" lon="10.0534032"><ele>190.0</ele><time>2026-04-12T14:53:43.231Z</time></trkpt><trkpt lat="45.6971073" lon="10.0535209"><ele>188.0</ele><time>2026-04-12T14:53:44.221Z</time></trkpt><trkpt lat="45.6969566" lon="10.0536339"><ele>195.33333333333331</ele><time>2026-04-12T14:53:45.222Z</time></trkpt><trkpt lat="45.6968141" lon="10.0537401"><ele>202.66666666666666</ele><time>2026-04-12T14:53:46.224Z</time></trkpt><trkpt lat="45.6966822" lon="10.0538447"><ele>210.0</ele><time>2026-04-12T14:53:47.222Z</time></trkpt><trkpt lat="45.6965536" lon="10.0539548"><ele>210.0</ele><time>2026-04-12T14:53:48.229Z</time></trkpt><trkpt lat="45.6964308" lon="10.0540677"><ele>210.0</ele><time>2026-04-12T14:53:49.218Z</time></trkpt><trkpt lat="45.6963137" lon="10.0541836"><ele>210.0</ele><time>2026-04-12T14:53:50.221Z</time></trkpt><trkpt lat="45.6962013" lon="10.0543005"><ele>210.0</ele><time>2026-04-12T14:53:51.214Z</time></trkpt><trkpt lat="45.6960912" lon="10.0544126"><ele>206.25</ele><time>2026-04-12T14:53:52.225Z</time></trkpt><trkpt lat="45.6959843" lon="10.0545216"><ele>202.5</ele><time>2026-04-12T14:53:53.231Z</time></trkpt><trkpt lat="45.695878" lon="10.0546258"><ele>198.75</ele><time>2026-04-12T14:53:54.225Z</time></trkpt><trkpt lat="45.6957674" lon="10.0547209"><ele>195.0</ele><time>2026-04-12T14:53:55.238Z</time></trkpt><trkpt lat="45.6956505" lon="10.0547871"><ele>195.0</ele><time>2026-04-12T14:53:56.223Z</time></trkpt><trkpt lat="45.695529" lon="10.0548088"><ele>195.0</ele><time>2026-04-12T14:53:57.221Z</time></trkpt><trkpt lat="45.6952517" lon="10.0546894"><ele>195.0</ele><time>2026-04-12T14:53:59.223Z</time></trkpt><trkpt lat="45.6950873" lon="10.0545932"><ele>195.0</ele><time>2026-04-12T14:54:00.216Z</time></trkpt><trkpt lat="45.6949049" lon="10.0545163"><ele>195.0</ele><time>2026-04-12T14:54:01.221Z</time></trkpt><trkpt lat="45.6947197" lon="10.05446"><ele>195.0</ele><time>2026-04-12T14:54:02.225Z</time></trkpt><trkpt lat="45.6945368" lon="10.0544297"><ele>198.0</ele><time>2026-04-12T14:54:03.214Z</time></trkpt><trkpt lat="45.6943584" lon="10.0544312"><ele>201.0</ele><time>2026-04-12T14:54:04.215Z</time></trkpt><trkpt lat="45.6941794" lon="10.0544694"><ele>204.0</ele><time>2026-04-12T14:54:05.22Z</time></trkpt><trkpt lat="45.6940062" lon="10.0545439"><ele>204.0</ele><time>2026-04-12T14:54:06.22Z</time></trkpt><trkpt lat="45.6938374" lon="10.0546464"><ele>204.0</ele><time>2026-04-12T14:54:07.215Z</time></trkpt><trkpt lat="45.6936738" lon="10.0547618"><ele>204.0</ele><time>2026-04-12T14:54:08.222Z</time></trkpt><trkpt lat="45.6935143" lon="10.0548747"><ele>199.66666666666666</ele><time>2026-04-12T14:54:09.221Z</time></trkpt><trkpt lat="45.6933547" lon="10.0549869"><ele>195.33333333333331</ele><time>2026-04-12T14:54:10.222Z</time></trkpt><trkpt lat="45.6931949" lon="10.0550953"><ele>191.0</ele><time>2026-04-12T14:54:11.22Z</time></trkpt><trkpt lat="45.6930356" lon="10.0551988"><ele>191.0</ele><time>2026-04-12T14:54:12.22Z</time></trkpt><trkpt lat="45.6928753" lon="10.0552897"><ele>191.0</ele><time>2026-04-12T14:54:13.223Z</time></trkpt><trkpt lat="45.6927086" lon="10.0553533"><ele>191.0</ele><time>2026-04-12T14:54:14.235Z</time></trkpt><trkpt lat="45.6925366" lon="10.0553739"><ele>195.33333333333331</ele><time>2026-04-12T14:54:15.222Z</time></trkpt><trkpt lat="45.6923555" lon="10.0553379"><ele>199.66666666666666</ele><time>2026-04-12T14:54:16.211Z</time></trkpt><trkpt lat="45.6921794" lon="10.0552452"><ele>204.0</ele><time>2026-04-12T14:54:17.213Z</time></trkpt><trkpt lat="45.6920018" lon="10.0551275"><ele>205.0</ele><time>2026-04-12T14:54:18.216Z</time></trkpt><trkpt lat="45.6916606" lon="10.0549815"><ele>206.0</ele><time>2026-04-12T14:54:20.22Z</time></trkpt><trkpt lat="45.6914863" lon="10.0549788"><ele>206.0</ele><time>2026-04-12T14:54:21.222Z</time></trkpt><trkpt lat="45.6913104" lon="10.0550169"><ele>206.0</ele><time>2026-04-12T14:54:22.213Z</time></trkpt><trkpt lat="45.6911416" lon="10.0551221"><ele>206.0</ele><time>2026-04-12T14:54:23.224Z</time></trkpt><trkpt lat="45.690986" lon="10.05525"><ele>211.33333333333334</ele><time>2026-04-12T14:54:24.22Z</time></trkpt><trkpt lat="45.6908357" lon="10.0553964"><ele>216.66666666666669</ele><time>2026-04-12T14:54:25.227Z</time></trkpt><trkpt lat="45.6906843" lon="10.0555191"><ele>222.0</ele><time>2026-04-12T14:54:26.219Z</time></trkpt><trkpt lat="45.6905301" lon="10.0556303"><ele>222.0</ele><time>2026-04-12T14:54:27.226Z</time></trkpt><trkpt lat="45.690357" lon="10.0556863"><ele>222.0</ele><time>2026-04-12T14:54:28.211Z</time></trkpt><trkpt lat="45.6901773" lon="10.055729"><ele>222.0</ele><time>2026-04-12T14:54:29.224Z</time></trkpt><trkpt lat="45.6899926" lon="10.055763"><ele>218.0</ele><time>2026-04-12T14:54:30.217Z</time></trkpt><trkpt lat="45.689823" lon="10.0557807"><ele>214.0</ele><time>2026-04-12T14:54:31.211Z</time></trkpt><trkpt lat="45.68965" lon="10.055802"><ele>210.0</ele><time>2026-04-12T14:54:32.209Z</time></trkpt><trkpt lat="45.6894724" lon="10.0558074"><ele>236.66666666666669</ele><time>2026-04-12T14:54:33.203Z</time></trkpt><trkpt lat="45.6893256" lon="10.0557247"><ele>263.33333333333337</ele><time>2026-04-12T14:54:34.205Z</time></trkpt><trkpt lat="45.6891578" lon="10.0556924"><ele>290.0</ele><time>2026-04-12T14:54:35.205Z</time></trkpt><trkpt lat="45.6889972" lon="10.0556371"><ele>290.0</ele><time>2026-04-12T14:54:36.198Z</time></trkpt><trkpt lat="45.6888471" lon="10.0555594"><ele>290.0</ele><time>2026-04-12T14:54:37.2Z</time></trkpt><trkpt lat="45.6887046" lon="10.0554619"><ele>290.0</ele><time>2026-04-12T14:54:38.204Z</time></trkpt><trkpt lat="45.6885714" lon="10.0553439"><ele>275.0</ele><time>2026-04-12T14:54:39.2Z</time></trkpt><trkpt lat="45.6883069" lon="10.0550539"><ele>260.0</ele><time>2026-04-12T14:54:41.201Z</time></trkpt><trkpt lat="45.6881804" lon="10.0548944"><ele>251.0</ele><time>2026-04-12T14:54:42.199Z</time></trkpt><trkpt lat="45.6880396" lon="10.0547203"><ele>242.0</ele><time>2026-04-12T14:54:43.199Z</time></trkpt><trkpt lat="45.6878903" lon="10.0545362"><ele>233.0</ele><time>2026-04-12T14:54:44.2Z</time></trkpt><trkpt lat="45.6877404" lon="10.0543454"><ele>233.0</ele><time>2026-04-12T14:54:45.192Z</time></trkpt><trkpt lat="45.6875802" lon="10.0541471"><ele>233.0</ele><time>2026-04-12T14:54:46.193Z</time></trkpt><trkpt lat="45.6874259" lon="10.0539486"><ele>233.0</ele><time>2026-04-12T14:54:47.194Z</time></trkpt><trkpt lat="45.6872814" lon="10.053746"><ele>233.0</ele><time>2026-04-12T14:54:48.192Z</time></trkpt><trkpt lat="45.6871622" lon="10.0535503"><ele>233.0</ele><time>2026-04-12T14:54:49.194Z</time></trkpt><trkpt lat="45.6870882" lon="10.0533799"><ele>233.0</ele><time>2026-04-12T14:54:50.191Z</time></trkpt><trkpt lat="45.6870587" lon="10.0532371"><ele>233.0</ele><time>2026-04-12T14:54:51.195Z</time></trkpt><trkpt lat="45.6869897" lon="10.0530364"><ele>220.25</ele><time>2026-04-12T14:54:52.192Z</time></trkpt><trkpt lat="45.6869603" lon="10.0528697"><ele>207.5</ele><time>2026-04-12T14:54:53.194Z</time></trkpt><trkpt lat="45.6869739" lon="10.0527541"><ele>194.75</ele><time>2026-04-12T14:54:54.197Z</time></trkpt><trkpt lat="45.6869317" lon="10.0525478"><ele>182.0</ele><time>2026-04-12T14:54:55.196Z</time></trkpt><trkpt lat="45.684826" lon="10.0484485"><ele>182.0</ele><time>2026-04-12T14:55:16.208Z</time></trkpt><trkpt lat="45.6846587" lon="10.0479407"><ele>182.0</ele><time>2026-04-12T14:55:18.213Z</time></trkpt><trkpt lat="45.6845088" lon="10.0477333"><ele>182.0</ele><time>2026-04-12T14:55:19.211Z</time></trkpt><trkpt lat="45.6844361" lon="10.0474787"><ele>182.0</ele><time>2026-04-12T14:55:20.22Z</time></trkpt><trkpt lat="45.6843264" lon="10.0473081"><ele>182.0</ele><time>2026-04-12T14:55:21.213Z</time></trkpt><trkpt lat="45.6842326" lon="10.0471357"><ele>182.0</ele><time>2026-04-12T14:55:22.221Z</time></trkpt><trkpt lat="45.6842134" lon="10.046921"><ele>182.0</ele><time>2026-04-12T14:55:23.221Z</time></trkpt><trkpt lat="45.6841481" lon="10.0466837"><ele>182.0</ele><time>2026-04-12T14:55:24.213Z</time></trkpt><trkpt lat="45.6840859" lon="10.0464532"><ele>182.0</ele><time>2026-04-12T14:55:25.211Z</time></trkpt><trkpt lat="45.6839826" lon="10.0462915"><ele>182.0</ele><time>2026-04-12T14:55:26.219Z</time></trkpt><trkpt lat="45.6839363" lon="10.0460826"><ele>182.0</ele><time>2026-04-12T14:55:27.227Z</time></trkpt><trkpt lat="45.6838955" lon="10.0458641"><ele>182.0</ele><time>2026-04-12T14:55:28.221Z</time></trkpt><trkpt lat="45.6838906" lon="10.045595"><ele>182.0</ele><time>2026-04-12T14:55:29.231Z</time></trkpt><trkpt lat="45.6838757" lon="10.0453565"><ele>182.0</ele><time>2026-04-12T14:55:30.222Z</time></trkpt><trkpt lat="45.6838636" lon="10.0451117"><ele>182.0</ele><time>2026-04-12T14:55:31.22Z</time></trkpt><trkpt lat="45.6838373" lon="10.0448659"><ele>182.0</ele><time>2026-04-12T14:55:32.222Z</time></trkpt><trkpt lat="45.6837879" lon="10.0446327"><ele>182.0</ele><time>2026-04-12T14:55:33.222Z</time></trkpt><trkpt lat="45.6837166" lon="10.0444171"><ele>182.0</ele><time>2026-04-12T14:55:34.23Z</time></trkpt><trkpt lat="45.6836343" lon="10.0442101"><ele>182.0</ele><time>2026-04-12T14:55:35.212Z</time></trkpt><trkpt lat="45.6835636" lon="10.04401"><ele>182.0</ele><time>2026-04-12T14:55:36.214Z</time></trkpt><trkpt lat="45.6835102" lon="10.0438053"><ele>182.0</ele><time>2026-04-12T14:55:37.221Z</time></trkpt><trkpt lat="45.6834928" lon="10.0433386"><ele>182.0</ele><time>2026-04-12T14:55:39.232Z</time></trkpt><trkpt lat="45.6835021" lon="10.043078"><ele>182.0</ele><time>2026-04-12T14:55:40.219Z</time></trkpt><trkpt lat="45.6834846" lon="10.0428147"><ele>182.0</ele><time>2026-04-12T14:55:41.227Z</time></trkpt><trkpt lat="45.6834437" lon="10.0425445"><ele>182.0</ele><time>2026-04-12T14:55:42.214Z</time></trkpt><trkpt lat="45.6833968" lon="10.0422626"><ele>182.0</ele><time>2026-04-12T14:55:43.222Z</time></trkpt><trkpt lat="45.6833592" lon="10.0419965"><ele>182.0</ele><time>2026-04-12T14:55:44.223Z</time></trkpt><trkpt lat="45.6833287" lon="10.0417275"><ele>182.0</ele><time>2026-04-12T14:55:45.22Z</time></trkpt><trkpt lat="45.6832889" lon="10.0414656"><ele>188.66666666666666</ele><time>2026-04-12T14:55:46.219Z</time></trkpt><trkpt lat="45.683229" lon="10.0412095"><ele>195.33333333333331</ele><time>2026-04-12T14:55:47.212Z</time></trkpt><trkpt lat="45.6831678" lon="10.040962"><ele>202.0</ele><time>2026-04-12T14:55:48.213Z</time></trkpt><trkpt lat="45.6831406" lon="10.0407185"><ele>202.0</ele><time>2026-04-12T14:55:49.214Z</time></trkpt><trkpt lat="45.6831349" lon="10.0404756"><ele>202.0</ele><time>2026-04-12T14:55:50.221Z</time></trkpt><trkpt lat="45.6831337" lon="10.0402274"><ele>202.0</ele><time>2026-04-12T14:55:51.219Z</time></trkpt><trkpt lat="45.6831203" lon="10.0399773"><ele>203.0</ele><time>2026-04-12T14:55:52.237Z</time></trkpt><trkpt lat="45.6830855" lon="10.039731"><ele>204.0</ele><time>2026-04-12T14:55:53.22Z</time></trkpt><trkpt lat="45.6830397" lon="10.0394984"><ele>205.0</ele><time>2026-04-12T14:55:54.221Z</time></trkpt><trkpt lat="45.6829974" lon="10.039274"><ele>204.0</ele><time>2026-04-12T14:55:55.222Z</time></trkpt><trkpt lat="45.6829714" lon="10.0390471"><ele>203.0</ele><time>2026-04-12T14:55:56.221Z</time></trkpt><trkpt lat="45.6829707" lon="10.0388092"><ele>202.0</ele><time>2026-04-12T14:55:57.221Z</time></trkpt><trkpt lat="45.6829884" lon="10.0385712"><ele>202.0</ele><time>2026-04-12T14:55:58.223Z</time></trkpt><trkpt lat="45.6830504" lon="10.0380407"><ele>202.0</ele><time>2026-04-12T14:56:00.226Z</time></trkpt><trkpt lat="45.6830519" lon="10.0377484"><ele>203.33333333333331</ele><time>2026-04-12T14:56:01.214Z</time></trkpt><trkpt lat="45.6830341" lon="10.0374467"><ele>204.66666666666669</ele><time>2026-04-12T14:56:02.217Z</time></trkpt><trkpt lat="45.6830123" lon="10.03715"><ele>206.0</ele><time>2026-04-12T14:56:03.218Z</time></trkpt><trkpt lat="45.6829888" lon="10.0368606"><ele>203.66666666666669</ele><time>2026-04-12T14:56:04.221Z</time></trkpt><trkpt lat="45.6829705" lon="10.0365741"><ele>201.33333333333331</ele><time>2026-04-12T14:56:05.215Z</time></trkpt><trkpt lat="45.682948" lon="10.0362832"><ele>199.0</ele><time>2026-04-12T14:56:06.218Z</time></trkpt><trkpt lat="45.6829171" lon="10.0359915"><ele>196.0</ele><time>2026-04-12T14:56:07.219Z</time></trkpt><trkpt lat="45.6828622" lon="10.0357156"><ele>193.0</ele><time>2026-04-12T14:56:08.222Z</time></trkpt><trkpt lat="45.6827868" lon="10.0354674"><ele>190.0</ele><time>2026-04-12T14:56:09.217Z</time></trkpt><trkpt lat="45.6827033" lon="10.0352613"><ele>190.0</ele><time>2026-04-12T14:56:10.21Z</time></trkpt><trkpt lat="45.6826369" lon="10.0350765"><ele>190.0</ele><time>2026-04-12T14:56:11.212Z</time></trkpt><trkpt lat="45.6826038" lon="10.0348865"><ele>190.0</ele><time>2026-04-12T14:56:12.214Z</time></trkpt><trkpt lat="45.6826043" lon="10.0346719"><ele>190.0</ele><time>2026-04-12T14:56:13.207Z</time></trkpt><trkpt lat="45.6826345" lon="10.0344326"><ele>190.33333333333334</ele><time>2026-04-12T14:56:14.206Z</time></trkpt><trkpt lat="45.6826828" lon="10.0341666"><ele>190.66666666666666</ele><time>2026-04-12T14:56:15.211Z</time></trkpt><trkpt lat="45.6827263" lon="10.0338817"><ele>191.0</ele><time>2026-04-12T14:56:16.21Z</time></trkpt><trkpt lat="45.6827245" lon="10.0335932"><ele>191.33333333333331</ele><time>2026-04-12T14:56:17.21Z</time></trkpt><trkpt lat="45.6826837" lon="10.0333042"><ele>191.66666666666666</ele><time>2026-04-12T14:56:18.208Z</time></trkpt><trkpt lat="45.6826098" lon="10.0330322"><ele>192.0</ele><time>2026-04-12T14:56:19.214Z</time></trkpt><trkpt lat="45.6824503" lon="10.0325343"><ele>193.33333333333331</ele><time>2026-04-12T14:56:21.212Z</time></trkpt><trkpt lat="45.6824036" lon="10.0322763"><ele>194.66666666666666</ele><time>2026-04-12T14:56:22.215Z</time></trkpt><trkpt lat="45.6823963" lon="10.0320008"><ele>196.0</ele><time>2026-04-12T14:56:23.213Z</time></trkpt><trkpt lat="45.6824184" lon="10.031705"><ele>195.66666666666666</ele><time>2026-04-12T14:56:24.209Z</time></trkpt><trkpt lat="45.6824488" lon="10.0314002"><ele>195.33333333333331</ele><time>2026-04-12T14:56:25.212Z</time></trkpt><trkpt lat="45.6824637" lon="10.031095"><ele>195.0</ele><time>2026-04-12T14:56:26.21Z</time></trkpt><trkpt lat="45.6824531" lon="10.0307964"><ele>196.33333333333331</ele><time>2026-04-12T14:56:27.211Z</time></trkpt><trkpt lat="45.6824162" lon="10.0305143"><ele>197.66666666666666</ele><time>2026-04-12T14:56:28.206Z</time></trkpt><trkpt lat="45.6823708" lon="10.0302527"><ele>199.0</ele><time>2026-04-12T14:56:29.209Z</time></trkpt><trkpt lat="45.6823229" lon="10.030009"><ele>200.0</ele><time>2026-04-12T14:56:30.211Z</time></trkpt><trkpt lat="45.6822804" lon="10.0297779"><ele>201.0</ele><time>2026-04-12T14:56:31.209Z</time></trkpt><trkpt lat="45.682238" lon="10.0295546"><ele>202.0</ele><time>2026-04-12T14:56:32.207Z</time></trkpt><trkpt lat="45.682198" lon="10.0293384"><ele>203.66666666666666</ele><time>2026-04-12T14:56:33.214Z</time></trkpt><trkpt lat="45.682156" lon="10.029125"><ele>205.33333333333331</ele><time>2026-04-12T14:56:34.212Z</time></trkpt><trkpt lat="45.6821109" lon="10.0289155"><ele>207.0</ele><time>2026-04-12T14:56:35.204Z</time></trkpt><trkpt lat="45.6820655" lon="10.0287122"><ele>207.0</ele><time>2026-04-12T14:56:36.219Z</time></trkpt><trkpt lat="45.6820224" lon="10.0285127"><ele>207.0</ele><time>2026-04-12T14:56:37.21Z</time></trkpt><trkpt lat="45.6819836" lon="10.0283127"><ele>207.0</ele><time>2026-04-12T14:56:38.211Z</time></trkpt><trkpt lat="45.6819493" lon="10.0281104"><ele>207.0</ele><time>2026-04-12T14:56:39.207Z</time></trkpt><trkpt lat="45.6819242" lon="10.0279016"><ele>196.5</ele><time>2026-04-12T14:56:40.209Z</time></trkpt><trkpt lat="45.6819131" lon="10.0274739"><ele>186.0</ele><time>2026-04-12T14:56:42.207Z</time></trkpt><trkpt lat="45.6819249" lon="10.0272584"><ele>189.66666666666669</ele><time>2026-04-12T14:56:43.22Z</time></trkpt><trkpt lat="45.6819488" lon="10.0270405"><ele>193.33333333333334</ele><time>2026-04-12T14:56:44.209Z</time></trkpt><trkpt lat="45.6819793" lon="10.0268218"><ele>197.0</ele><time>2026-04-12T14:56:45.216Z</time></trkpt><trkpt lat="45.6820086" lon="10.0266092"><ele>197.0</ele><time>2026-04-12T14:56:46.206Z</time></trkpt><trkpt lat="45.6820304" lon="10.0264005"><ele>197.0</ele><time>2026-04-12T14:56:47.208Z</time></trkpt><trkpt lat="45.6820328" lon="10.0261933"><ele>197.0</ele><time>2026-04-12T14:56:48.208Z</time></trkpt><trkpt lat="45.6820198" lon="10.0259897"><ele>197.0</ele><time>2026-04-12T14:56:49.21Z</time></trkpt><trkpt lat="45.6820013" lon="10.0257917"><ele>197.5</ele><time>2026-04-12T14:56:50.22Z</time></trkpt><trkpt lat="45.6819892" lon="10.0256015"><ele>198.0</ele><time>2026-04-12T14:56:51.214Z</time></trkpt><trkpt lat="45.6819826" lon="10.0254171"><ele>198.5</ele><time>2026-04-12T14:56:52.212Z</time></trkpt><trkpt lat="45.6819777" lon="10.0252366"><ele>199.0</ele><time>2026-04-12T14:56:53.205Z</time></trkpt><trkpt lat="45.6819649" lon="10.0250531"><ele>199.75</ele><time>2026-04-12T14:56:54.21Z</time></trkpt><trkpt lat="45.6819393" lon="10.0248678"><ele>200.5</ele><time>2026-04-12T14:56:55.22Z</time></trkpt><trkpt lat="45.6818955" lon="10.0246822"><ele>201.25</ele><time>2026-04-12T14:56:56.209Z</time></trkpt><trkpt lat="45.681837" lon="10.0244934"><ele>202.0</ele><time>2026-04-12T14:56:57.212Z</time></trkpt><trkpt lat="45.6817696" lon="10.0242999"><ele>199.0</ele><time>2026-04-12T14:56:58.211Z</time></trkpt><trkpt lat="45.6817013" lon="10.0241005"><ele>196.0</ele><time>2026-04-12T14:56:59.216Z</time></trkpt><trkpt lat="45.6816358" lon="10.0239005"><ele>193.0</ele><time>2026-04-12T14:57:00.216Z</time></trkpt><trkpt lat="45.6815723" lon="10.0237068"><ele>193.0</ele><time>2026-04-12T14:57:01.213Z</time></trkpt><trkpt lat="45.6814593" lon="10.0233417"><ele>193.0</ele><time>2026-04-12T14:57:03.22Z</time></trkpt><trkpt lat="45.681405" lon="10.0231713"><ele>193.0</ele><time>2026-04-12T14:57:04.214Z</time></trkpt><trkpt lat="45.6813539" lon="10.023009"><ele>194.0</ele><time>2026-04-12T14:57:05.208Z</time></trkpt><trkpt lat="45.6813061" lon="10.0228523"><ele>195.0</ele><time>2026-04-12T14:57:06.211Z</time></trkpt><trkpt lat="45.6812582" lon="10.0226954"><ele>196.0</ele><time>2026-04-12T14:57:07.212Z</time></trkpt><trkpt lat="45.68121" lon="10.0225337"><ele>197.0</ele><time>2026-04-12T14:57:08.211Z</time></trkpt><trkpt lat="45.6811635" lon="10.0223626"><ele>197.75</ele><time>2026-04-12T14:57:09.215Z</time></trkpt><trkpt lat="45.6811132" lon="10.0221876"><ele>198.5</ele><time>2026-04-12T14:57:10.219Z</time></trkpt><trkpt lat="45.6810586" lon="10.0220128"><ele>199.25</ele><time>2026-04-12T14:57:11.217Z</time></trkpt><trkpt lat="45.6810057" lon="10.021843"><ele>200.0</ele><time>2026-04-12T14:57:12.219Z</time></trkpt><trkpt lat="45.6809568" lon="10.0216786"><ele>198.5</ele><time>2026-04-12T14:57:13.224Z</time></trkpt><trkpt lat="45.6809078" lon="10.0215127"><ele>197.0</ele><time>2026-04-12T14:57:14.219Z</time></trkpt><trkpt lat="45.680858" lon="10.021345"><ele>195.5</ele><time>2026-04-12T14:57:15.212Z</time></trkpt><trkpt lat="45.6808102" lon="10.0211796"><ele>194.0</ele><time>2026-04-12T14:57:16.215Z</time></trkpt><trkpt lat="45.6807642" lon="10.0210182"><ele>194.0</ele><time>2026-04-12T14:57:17.21Z</time></trkpt><trkpt lat="45.680722" lon="10.0208626"><ele>194.0</ele><time>2026-04-12T14:57:18.217Z</time></trkpt><trkpt lat="45.6806826" lon="10.0207161"><ele>194.0</ele><time>2026-04-12T14:57:19.214Z</time></trkpt><trkpt lat="45.6806487" lon="10.0205752"><ele>194.0</ele><time>2026-04-12T14:57:20.214Z</time></trkpt><trkpt lat="45.6806224" lon="10.0204287"><ele>194.0</ele><time>2026-04-12T14:57:21.223Z</time></trkpt><trkpt lat="45.6806014" lon="10.0202713"><ele>194.33333333333334</ele><time>2026-04-12T14:57:22.216Z</time></trkpt><trkpt lat="45.6805626" lon="10.0199457"><ele>194.66666666666669</ele><time>2026-04-12T14:57:24.217Z</time></trkpt><trkpt lat="45.6805404" lon="10.019783"><ele>195.0</ele><time>2026-04-12T14:57:25.215Z</time></trkpt><trkpt lat="45.6805168" lon="10.0196201"><ele>195.0</ele><time>2026-04-12T14:57:26.213Z</time></trkpt><trkpt lat="45.6804943" lon="10.0194584"><ele>195.0</ele><time>2026-04-12T14:57:27.215Z</time></trkpt><trkpt lat="45.6804734" lon="10.0192921"><ele>195.0</ele><time>2026-04-12T14:57:28.215Z</time></trkpt><trkpt lat="45.6804573" lon="10.0191264"><ele>195.0</ele><time>2026-04-12T14:57:29.217Z</time></trkpt><trkpt lat="45.6804431" lon="10.0189541"><ele>195.25</ele><time>2026-04-12T14:57:30.22Z</time></trkpt><trkpt lat="45.6804304" lon="10.0187675"><ele>195.5</ele><time>2026-04-12T14:57:31.207Z</time></trkpt><trkpt lat="45.6804274" lon="10.0185588"><ele>195.75</ele><time>2026-04-12T14:57:32.216Z</time></trkpt><trkpt lat="45.6804373" lon="10.0183367"><ele>196.0</ele><time>2026-04-12T14:57:33.212Z</time></trkpt><trkpt lat="45.6804512" lon="10.018112"><ele>196.0</ele><time>2026-04-12T14:57:34.214Z</time></trkpt><trkpt lat="45.680466" lon="10.0178983"><ele>196.0</ele><time>2026-04-12T14:57:35.222Z</time></trkpt><trkpt lat="45.6804808" lon="10.0176975"><ele>196.0</ele><time>2026-04-12T14:57:36.206Z</time></trkpt><trkpt lat="45.6804942" lon="10.0175082"><ele>196.0</ele><time>2026-04-12T14:57:37.213Z</time></trkpt><trkpt lat="45.6805086" lon="10.0173264"><ele>195.25</ele><time>2026-04-12T14:57:38.208Z</time></trkpt><trkpt lat="45.680521" lon="10.0171498"><ele>194.5</ele><time>2026-04-12T14:57:39.214Z</time></trkpt><trkpt lat="45.6805327" lon="10.0169723"><ele>193.75</ele><time>2026-04-12T14:57:40.215Z</time></trkpt><trkpt lat="45.680544" lon="10.0167881"><ele>193.0</ele><time>2026-04-12T14:57:41.212Z</time></trkpt><trkpt lat="45.6805531" lon="10.0165981"><ele>192.66666666666666</ele><time>2026-04-12T14:57:42.212Z</time></trkpt><trkpt lat="45.6805598" lon="10.0163965"><ele>192.33333333333331</ele><time>2026-04-12T14:57:43.212Z</time></trkpt><trkpt lat="45.6805672" lon="10.015957"><ele>192.0</ele><time>2026-04-12T14:57:45.219Z</time></trkpt><trkpt lat="45.6805688" lon="10.0157325"><ele>191.75</ele><time>2026-04-12T14:57:46.216Z</time></trkpt><trkpt lat="45.6805706" lon="10.0155178"><ele>191.5</ele><time>2026-04-12T14:57:47.219Z</time></trkpt><trkpt lat="45.6805737" lon="10.0153149"><ele>191.25</ele><time>2026-04-12T14:57:48.211Z</time></trkpt><trkpt lat="45.680575" lon="10.0151223"><ele>191.0</ele><time>2026-04-12T14:57:49.21Z</time></trkpt><trkpt lat="45.680574" lon="10.0149394"><ele>191.5</ele><time>2026-04-12T14:57:50.215Z</time></trkpt><trkpt lat="45.6805731" lon="10.0147659"><ele>192.0</ele><time>2026-04-12T14:57:51.212Z</time></trkpt><trkpt lat="45.6805761" lon="10.0145987"><ele>192.5</ele><time>2026-04-12T14:57:52.214Z</time></trkpt><trkpt lat="45.6805808" lon="10.0144362"><ele>193.0</ele><time>2026-04-12T14:57:53.217Z</time></trkpt><trkpt lat="45.680585" lon="10.0142748"><ele>193.25</ele><time>2026-04-12T14:57:54.216Z</time></trkpt><trkpt lat="45.680592" lon="10.0141115"><ele>193.5</ele><time>2026-04-12T14:57:55.216Z</time></trkpt><trkpt lat="45.6805985" lon="10.0139432"><ele>193.75</ele><time>2026-04-12T14:57:56.217Z</time></trkpt><trkpt lat="45.6806023" lon="10.0137697"><ele>194.0</ele><time>2026-04-12T14:57:57.222Z</time></trkpt><trkpt lat="45.6806037" lon="10.0135903"><ele>194.0</ele><time>2026-04-12T14:57:58.215Z</time></trkpt><trkpt lat="45.680601" lon="10.013406"><ele>194.0</ele><time>2026-04-12T14:57:59.215Z</time></trkpt><trkpt lat="45.6805944" lon="10.0132153"><ele>194.0</ele><time>2026-04-12T14:58:00.215Z</time></trkpt><trkpt lat="45.6805837" lon="10.0130187"><ele>194.0</ele><time>2026-04-12T14:58:01.216Z</time></trkpt><trkpt lat="45.6805667" lon="10.0128171"><ele>194.0</ele><time>2026-04-12T14:58:02.213Z</time></trkpt><trkpt lat="45.6805466" lon="10.0126097"><ele>194.0</ele><time>2026-04-12T14:58:03.218Z</time></trkpt><trkpt lat="45.6805253" lon="10.0124034"><ele>194.0</ele><time>2026-04-12T14:58:04.214Z</time></trkpt><trkpt lat="45.6804452" lon="10.0120278"><ele>195.0</ele><time>2026-04-12T14:58:06.217Z</time></trkpt><trkpt lat="45.6803846" lon="10.0118588"><ele>196.0</ele><time>2026-04-12T14:58:07.218Z</time></trkpt><trkpt lat="45.6803222" lon="10.0116944"><ele>197.0</ele><time>2026-04-12T14:58:08.214Z</time></trkpt><trkpt lat="45.6802641" lon="10.0115248"><ele>198.0</ele><time>2026-04-12T14:58:09.215Z</time></trkpt><trkpt lat="45.6802133" lon="10.0113429"><ele>196.0</ele><time>2026-04-12T14:58:10.217Z</time></trkpt><trkpt lat="45.6801713" lon="10.0111419"><ele>194.0</ele><time>2026-04-12T14:58:11.21Z</time></trkpt><trkpt lat="45.6801378" lon="10.0109335"><ele>192.0</ele><time>2026-04-12T14:58:12.221Z</time></trkpt><trkpt lat="45.6801101" lon="10.0107251"><ele>190.0</ele><time>2026-04-12T14:58:13.223Z</time></trkpt><trkpt lat="45.680089" lon="10.0105177"><ele>190.0</ele><time>2026-04-12T14:58:14.214Z</time></trkpt><trkpt lat="45.6800762" lon="10.0103134"><ele>190.0</ele><time>2026-04-12T14:58:15.223Z</time></trkpt><trkpt lat="45.6800715" lon="10.0101104"><ele>190.0</ele><time>2026-04-12T14:58:16.215Z</time></trkpt><trkpt lat="45.6800692" lon="10.0099055"><ele>190.0</ele><time>2026-04-12T14:58:17.221Z</time></trkpt><trkpt lat="45.6800619" lon="10.0096924"><ele>189.0</ele><time>2026-04-12T14:58:18.211Z</time></trkpt><trkpt lat="45.6800508" lon="10.0094721"><ele>188.0</ele><time>2026-04-12T14:58:19.21Z</time></trkpt><trkpt lat="45.6800364" lon="10.009247"><ele>187.0</ele><time>2026-04-12T14:58:20.213Z</time></trkpt><trkpt lat="45.6800198" lon="10.0090206"><ele>186.75</ele><time>2026-04-12T14:58:21.22Z</time></trkpt><trkpt lat="45.6800015" lon="10.0088035"><ele>186.5</ele><time>2026-04-12T14:58:22.216Z</time></trkpt><trkpt lat="45.6799848" lon="10.0086009"><ele>186.25</ele><time>2026-04-12T14:58:23.216Z</time></trkpt><trkpt lat="45.6799687" lon="10.0084096"><ele>186.0</ele><time>2026-04-12T14:58:24.223Z</time></trkpt><trkpt lat="45.6799511" lon="10.008226"><ele>187.66666666666666</ele><time>2026-04-12T14:58:25.216Z</time></trkpt><trkpt lat="45.6799008" lon="10.0078732"><ele>189.33333333333331</ele><time>2026-04-12T14:58:27.222Z</time></trkpt><trkpt lat="45.6798677" lon="10.0077044"><ele>191.0</ele><time>2026-04-12T14:58:28.216Z</time></trkpt><trkpt lat="45.6798285" lon="10.0075305"><ele>191.75</ele><time>2026-04-12T14:58:29.236Z</time></trkpt><trkpt lat="45.6797834" lon="10.0073477"><ele>192.5</ele><time>2026-04-12T14:58:30.222Z</time></trkpt><trkpt lat="45.6797358" lon="10.007156"><ele>193.25</ele><time>2026-04-12T14:58:31.229Z</time></trkpt><trkpt lat="45.6796873" lon="10.0069584"><ele>194.0</ele><time>2026-04-12T14:58:32.222Z</time></trkpt><trkpt lat="45.6796399" lon="10.0067601"><ele>193.75</ele><time>2026-04-12T14:58:33.221Z</time></trkpt><trkpt lat="45.679596" lon="10.0065615"><ele>193.5</ele><time>2026-04-12T14:58:34.218Z</time></trkpt><trkpt lat="45.6795545" lon="10.0063623"><ele>193.25</ele><time>2026-04-12T14:58:35.215Z</time></trkpt><trkpt lat="45.6795128" lon="10.0061621"><ele>193.0</ele><time>2026-04-12T14:58:36.22Z</time></trkpt><trkpt lat="45.6794712" lon="10.0059629"><ele>191.0</ele><time>2026-04-12T14:58:37.223Z</time></trkpt><trkpt lat="45.6794302" lon="10.005764"><ele>189.0</ele><time>2026-04-12T14:58:38.23Z</time></trkpt><trkpt lat="45.6793894" lon="10.0055685"><ele>187.0</ele><time>2026-04-12T14:58:39.222Z</time></trkpt><trkpt lat="45.6793528" lon="10.0053834"><ele>185.0</ele><time>2026-04-12T14:58:40.221Z</time></trkpt><trkpt lat="45.6793208" lon="10.0052062"><ele>185.0</ele><time>2026-04-12T14:58:41.221Z</time></trkpt><trkpt lat="45.6792912" lon="10.0050352"><ele>185.0</ele><time>2026-04-12T14:58:42.224Z</time></trkpt><trkpt lat="45.6792647" lon="10.0048703"><ele>185.0</ele><time>2026-04-12T14:58:43.241Z</time></trkpt><trkpt lat="45.6792401" lon="10.0047076"><ele>185.0</ele><time>2026-04-12T14:58:44.219Z</time></trkpt><trkpt lat="45.6792172" lon="10.0045469"><ele>185.33333333333331</ele><time>2026-04-12T14:58:45.224Z</time></trkpt><trkpt lat="45.6791951" lon="10.0043842"><ele>185.66666666666666</ele><time>2026-04-12T14:58:46.222Z</time></trkpt><trkpt lat="45.6791562" lon="10.0040373"><ele>186.0</ele><time>2026-04-12T14:58:48.233Z</time></trkpt><trkpt lat="45.6791436" lon="10.0038545"><ele>186.0</ele><time>2026-04-12T14:58:49.23Z</time></trkpt><trkpt lat="45.6791354" lon="10.0036676"><ele>186.0</ele><time>2026-04-12T14:58:50.213Z</time></trkpt><trkpt lat="45.6791306" lon="10.0034743"><ele>186.0</ele><time>2026-04-12T14:58:51.221Z</time></trkpt><trkpt lat="45.6791266" lon="10.0032757"><ele>186.0</ele><time>2026-04-12T14:58:52.224Z</time></trkpt><trkpt lat="45.6791216" lon="10.0030746"><ele>186.25</ele><time>2026-04-12T14:58:53.238Z</time></trkpt><trkpt lat="45.679117" lon="10.002873"><ele>186.5</ele><time>2026-04-12T14:58:54.229Z</time></trkpt><trkpt lat="45.6791153" lon="10.0026737"><ele>186.75</ele><time>2026-04-12T14:58:55.22Z</time></trkpt><trkpt lat="45.6791145" lon="10.0024769"><ele>187.0</ele><time>2026-04-12T14:58:56.233Z</time></trkpt><trkpt lat="45.679116" lon="10.002283"><ele>187.75</ele><time>2026-04-12T14:58:57.221Z</time></trkpt><trkpt lat="45.679119" lon="10.0020919"><ele>188.5</ele><time>2026-04-12T14:58:58.217Z</time></trkpt><trkpt lat="45.6791209" lon="10.0019046"><ele>189.25</ele><time>2026-04-12T14:58:59.231Z</time></trkpt><trkpt lat="45.6791194" lon="10.0017197"><ele>190.0</ele><time>2026-04-12T14:59:00.221Z</time></trkpt><trkpt lat="45.6791155" lon="10.0015353"><ele>190.25</ele><time>2026-04-12T14:59:01.212Z</time></trkpt><trkpt lat="45.6791123" lon="10.0013546"><ele>190.5</ele><time>2026-04-12T14:59:02.222Z</time></trkpt><trkpt lat="45.6791042" lon="10.0011793"><ele>190.75</ele><time>2026-04-12T14:59:03.222Z</time></trkpt><trkpt lat="45.6790924" lon="10.0010079"><ele>191.0</ele><time>2026-04-12T14:59:04.224Z</time></trkpt><trkpt lat="45.6790732" lon="10.0008386"><ele>192.33333333333331</ele><time>2026-04-12T14:59:05.23Z</time></trkpt><trkpt lat="45.679045" lon="10.000669"><ele>193.66666666666666</ele><time>2026-04-12T14:59:06.221Z</time></trkpt><trkpt lat="45.6790095" lon="10.0004962"><ele>195.0</ele><time>2026-04-12T14:59:07.221Z</time></trkpt><trkpt lat="45.6789219" lon="10.0001404"><ele>195.0</ele><time>2026-04-12T14:59:09.216Z</time></trkpt><trkpt lat="45.6788746" lon="9.9999661"><ele>195.0</ele><time>2026-04-12T14:59:10.22Z</time></trkpt><trkpt lat="45.6788239" lon="9.9997945"><ele>195.0</ele><time>2026-04-12T14:59:11.23Z</time></trkpt><trkpt lat="45.6787732" lon="9.9996206"><ele>195.0</ele><time>2026-04-12T14:59:12.221Z</time></trkpt><trkpt lat="45.6787229" lon="9.9994444"><ele>195.0</ele><time>2026-04-12T14:59:13.218Z</time></trkpt><trkpt lat="45.678673" lon="9.9992618"><ele>195.0</ele><time>2026-04-12T14:59:14.219Z</time></trkpt><trkpt lat="45.6786223" lon="9.9990728"><ele>195.0</ele><time>2026-04-12T14:59:15.221Z</time></trkpt><trkpt lat="45.678573" lon="9.9988813"><ele>195.0</ele><time>2026-04-12T14:59:16.221Z</time></trkpt><trkpt lat="45.6785225" lon="9.9986918"><ele>193.75</ele><time>2026-04-12T14:59:17.216Z</time></trkpt><trkpt lat="45.6784725" lon="9.9985066"><ele>192.5</ele><time>2026-04-12T14:59:18.222Z</time></trkpt><trkpt lat="45.6784237" lon="9.9983271"><ele>191.25</ele><time>2026-04-12T14:59:19.219Z</time></trkpt><trkpt lat="45.6783765" lon="9.9981522"><ele>190.0</ele><time>2026-04-12T14:59:20.235Z</time></trkpt><trkpt lat="45.6783306" lon="9.9979833"><ele>190.0</ele><time>2026-04-12T14:59:21.222Z</time></trkpt><trkpt lat="45.6782883" lon="9.9978193"><ele>190.0</ele><time>2026-04-12T14:59:22.212Z</time></trkpt><trkpt lat="45.678247" lon="9.9976577"><ele>190.0</ele><time>2026-04-12T14:59:23.228Z</time></trkpt><trkpt lat="45.6782047" lon="9.9974955"><ele>190.0</ele><time>2026-04-12T14:59:24.233Z</time></trkpt><trkpt lat="45.6781605" lon="9.9973252"><ele>190.25</ele><time>2026-04-12T14:59:25.223Z</time></trkpt><trkpt lat="45.6781125" lon="9.9971423"><ele>190.5</ele><time>2026-04-12T14:59:26.235Z</time></trkpt><trkpt lat="45.6780651" lon="9.9969507"><ele>190.75</ele><time>2026-04-12T14:59:27.222Z</time></trkpt><trkpt lat="45.6780209" lon="9.996752"><ele>191.0</ele><time>2026-04-12T14:59:28.22Z</time></trkpt><trkpt lat="45.6779392" lon="9.9963235"><ele>193.33333333333331</ele><time>2026-04-12T14:59:30.22Z</time></trkpt><trkpt lat="45.6778929" lon="9.996099"><ele>195.66666666666666</ele><time>2026-04-12T14:59:31.212Z</time></trkpt><trkpt lat="45.6778442" lon="9.9958673"><ele>198.0</ele><time>2026-04-12T14:59:32.214Z</time></trkpt><trkpt lat="45.6777943" lon="9.9956384"><ele>193.66666666666666</ele><time>2026-04-12T14:59:33.223Z</time></trkpt><trkpt lat="45.6777447" lon="9.9954181"><ele>189.33333333333331</ele><time>2026-04-12T14:59:34.222Z</time></trkpt><trkpt lat="45.6776975" lon="9.9952069"><ele>185.0</ele><time>2026-04-12T14:59:35.221Z</time></trkpt><trkpt lat="45.6776549" lon="9.9950056"><ele>185.25</ele><time>2026-04-12T14:59:36.215Z</time></trkpt><trkpt lat="45.677614" lon="9.9948115"><ele>185.5</ele><time>2026-04-12T14:59:37.222Z</time></trkpt><trkpt lat="45.677574" lon="9.9946208"><ele>185.75</ele><time>2026-04-12T14:59:38.218Z</time></trkpt><trkpt lat="45.6775328" lon="9.9944299"><ele>186.0</ele><time>2026-04-12T14:59:39.218Z</time></trkpt><trkpt lat="45.6774892" lon="9.9942371"><ele>187.5</ele><time>2026-04-12T14:59:40.213Z</time></trkpt><trkpt lat="45.677446" lon="9.9940451"><ele>189.0</ele><time>2026-04-12T14:59:41.219Z</time></trkpt><trkpt lat="45.6774034" lon="9.9938534"><ele>190.5</ele><time>2026-04-12T14:59:42.23Z</time></trkpt><trkpt lat="45.6773603" lon="9.9936635"><ele>192.0</ele><time>2026-04-12T14:59:43.223Z</time></trkpt><trkpt lat="45.677318" lon="9.9934726"><ele>193.5</ele><time>2026-04-12T14:59:44.231Z</time></trkpt><trkpt lat="45.677274" lon="9.9932777"><ele>195.0</ele><time>2026-04-12T14:59:45.232Z</time></trkpt><trkpt lat="45.6772292" lon="9.993078"><ele>196.5</ele><time>2026-04-12T14:59:46.229Z</time></trkpt><trkpt lat="45.6771848" lon="9.992876"><ele>198.0</ele><time>2026-04-12T14:59:47.229Z</time></trkpt><trkpt lat="45.6771386" lon="9.9926763"><ele>199.0</ele><time>2026-04-12T14:59:48.224Z</time></trkpt><trkpt lat="45.6770905" lon="9.9924854"><ele>200.0</ele><time>2026-04-12T14:59:49.223Z</time></trkpt><trkpt lat="45.6769801" lon="9.9921379"><ele>201.0</ele><time>2026-04-12T14:59:51.236Z</time></trkpt><trkpt lat="45.6769218" lon="9.9919714"><ele>197.75</ele><time>2026-04-12T14:59:52.223Z</time></trkpt><trkpt lat="45.6768647" lon="9.9918035"><ele>194.5</ele><time>2026-04-12T14:59:53.223Z</time></trkpt><trkpt lat="45.6768091" lon="9.9916343"><ele>191.25</ele><time>2026-04-12T14:59:54.217Z</time></trkpt><trkpt lat="45.6767574" lon="9.9914686"><ele>188.0</ele><time>2026-04-12T14:59:55.218Z</time></trkpt><trkpt lat="45.6767157" lon="9.9913016"><ele>188.0</ele><time>2026-04-12T14:59:56.221Z</time></trkpt><trkpt lat="45.6766935" lon="9.991128"><ele>188.0</ele><time>2026-04-12T14:59:57.223Z</time></trkpt><trkpt lat="45.6766955" lon="9.9909457"><ele>188.0</ele><time>2026-04-12T14:59:58.228Z</time></trkpt><trkpt lat="45.6767349" lon="9.9907467"><ele>188.0</ele><time>2026-04-12T14:59:59.23Z</time></trkpt><trkpt lat="45.6767981" lon="9.9905379"><ele>188.0</ele><time>2026-04-12T15:00:00.223Z</time></trkpt><trkpt lat="45.676865" lon="9.990327"><ele>188.0</ele><time>2026-04-12T15:00:01.217Z</time></trkpt><trkpt lat="45.6769314" lon="9.9901228"><ele>188.0</ele><time>2026-04-12T15:00:02.225Z</time></trkpt><trkpt lat="45.6769917" lon="9.9899194"><ele>192.0</ele><time>2026-04-12T15:00:03.216Z</time></trkpt><trkpt lat="45.6770439" lon="9.9897186"><ele>196.0</ele><time>2026-04-12T15:00:04.22Z</time></trkpt><trkpt lat="45.6770943" lon="9.989524"><ele>200.0</ele><time>2026-04-12T15:00:05.221Z</time></trkpt><trkpt lat="45.6771441" lon="9.9893317"><ele>204.0</ele><time>2026-04-12T15:00:06.215Z</time></trkpt><trkpt lat="45.677194" lon="9.9891356"><ele>204.0</ele><time>2026-04-12T15:00:07.22Z</time></trkpt><trkpt lat="45.6772438" lon="9.9889383"><ele>204.0</ele><time>2026-04-12T15:00:08.22Z</time></trkpt><trkpt lat="45.6772873" lon="9.9887428"><ele>204.0</ele><time>2026-04-12T15:00:09.22Z</time></trkpt><trkpt lat="45.6773203" lon="9.9885498"><ele>204.0</ele><time>2026-04-12T15:00:10.219Z</time></trkpt><trkpt lat="45.6773382" lon="9.9881817"><ele>204.25</ele><time>2026-04-12T15:00:12.221Z</time></trkpt><trkpt lat="45.6773246" lon="9.9880061"><ele>204.5</ele><time>2026-04-12T15:00:13.236Z</time></trkpt><trkpt lat="45.6773" lon="9.9878347"><ele>204.75</ele><time>2026-04-12T15:00:14.217Z</time></trkpt><trkpt lat="45.677268" lon="9.9876602"><ele>205.0</ele><time>2026-04-12T15:00:15.22Z</time></trkpt><trkpt lat="45.677229" lon="9.9874875"><ele>206.0</ele><time>2026-04-12T15:00:16.222Z</time></trkpt><trkpt lat="45.6771877" lon="9.987316"><ele>207.0</ele><time>2026-04-12T15:00:17.213Z</time></trkpt><trkpt lat="45.6771426" lon="9.9871405"><ele>208.0</ele><time>2026-04-12T15:00:18.224Z</time></trkpt><trkpt lat="45.677098" lon="9.9869666"><ele>209.0</ele><time>2026-04-12T15:00:19.216Z</time></trkpt><trkpt lat="45.6770484" lon="9.9868016"><ele>209.0</ele><time>2026-04-12T15:00:20.222Z</time></trkpt><trkpt lat="45.6770051" lon="9.9866387"><ele>209.0</ele><time>2026-04-12T15:00:21.218Z</time></trkpt><trkpt lat="45.6769631" lon="9.9864776"><ele>209.0</ele><time>2026-04-12T15:00:22.218Z</time></trkpt><trkpt lat="45.6769176" lon="9.9863148"><ele>209.0</ele><time>2026-04-12T15:00:23.233Z</time></trkpt><trkpt lat="45.6768684" lon="9.9861449"><ele>205.5</ele><time>2026-04-12T15:00:24.221Z</time></trkpt><trkpt lat="45.6768194" lon="9.9859677"><ele>202.0</ele><time>2026-04-12T15:00:25.224Z</time></trkpt><trkpt lat="45.6767739" lon="9.985791"><ele>198.5</ele><time>2026-04-12T15:00:26.23Z</time></trkpt><trkpt lat="45.6767319" lon="9.9856194"><ele>195.0</ele><time>2026-04-12T15:00:27.236Z</time></trkpt><trkpt lat="45.67669" lon="9.98545"><ele>195.0</ele><time>2026-04-12T15:00:28.219Z</time></trkpt><trkpt lat="45.6766462" lon="9.9852743"><ele>195.0</ele><time>2026-04-12T15:00:29.235Z</time></trkpt><trkpt lat="45.6766022" lon="9.9850884"><ele>195.0</ele><time>2026-04-12T15:00:30.222Z</time></trkpt><trkpt lat="45.6765559" lon="9.9848932"><ele>195.0</ele><time>2026-04-12T15:00:31.222Z</time></trkpt><trkpt lat="45.6764503" lon="9.9844714"><ele>194.33333333333331</ele><time>2026-04-12T15:00:33.217Z</time></trkpt><trkpt lat="45.6763943" lon="9.9842493"><ele>193.66666666666666</ele><time>2026-04-12T15:00:34.22Z</time></trkpt><trkpt lat="45.6763374" lon="9.9840246"><ele>193.0</ele><time>2026-04-12T15:00:35.212Z</time></trkpt><trkpt lat="45.6762799" lon="9.9838037"><ele>192.66666666666666</ele><time>2026-04-12T15:00:36.22Z</time></trkpt><trkpt lat="45.6762249" lon="9.9835899"><ele>192.33333333333331</ele><time>2026-04-12T15:00:37.217Z</time></trkpt><trkpt lat="45.6761763" lon="9.9833792"><ele>192.0</ele><time>2026-04-12T15:00:38.222Z</time></trkpt><trkpt lat="45.6761359" lon="9.9831588"><ele>191.33333333333334</ele><time>2026-04-12T15:00:39.221Z</time></trkpt><trkpt lat="45.6761089" lon="9.9829234"><ele>190.66666666666669</ele><time>2026-04-12T15:00:40.238Z</time></trkpt><trkpt lat="45.6761014" lon="9.9826721"><ele>190.0</ele><time>2026-04-12T15:00:41.23Z</time></trkpt><trkpt lat="45.676111" lon="9.9824046"><ele>190.66666666666669</ele><time>2026-04-12T15:00:42.224Z</time></trkpt><trkpt lat="45.6761324" lon="9.9821225"><ele>191.33333333333334</ele><time>2026-04-12T15:00:43.223Z</time></trkpt><trkpt lat="45.6761556" lon="9.9818503"><ele>192.0</ele><time>2026-04-12T15:00:44.221Z</time></trkpt><trkpt lat="45.6761731" lon="9.9815903"><ele>192.0</ele><time>2026-04-12T15:00:45.223Z</time></trkpt><trkpt lat="45.6761844" lon="9.981342"><ele>192.0</ele><time>2026-04-12T15:00:46.226Z</time></trkpt><trkpt lat="45.676191" lon="9.981099"><ele>192.0</ele><time>2026-04-12T15:00:47.223Z</time></trkpt><trkpt lat="45.6761901" lon="9.9808607"><ele>191.66666666666666</ele><time>2026-04-12T15:00:48.222Z</time></trkpt><trkpt lat="45.6761729" lon="9.9806236"><ele>191.33333333333331</ele><time>2026-04-12T15:00:49.219Z</time></trkpt><trkpt lat="45.6761432" lon="9.9803973"><ele>191.0</ele><time>2026-04-12T15:00:50.221Z</time></trkpt><trkpt lat="45.6760837" lon="9.9801874"><ele>188.0</ele><time>2026-04-12T15:00:51.218Z</time></trkpt><trkpt lat="45.6760097" lon="9.9799864"><ele>185.0</ele><time>2026-04-12T15:00:52.231Z</time></trkpt><trkpt lat="45.675889" lon="9.9795704"><ele>185.0</ele><time>2026-04-12T15:00:54.216Z</time></trkpt><trkpt lat="45.6758002" lon="9.9793826"><ele>185.0</ele><time>2026-04-12T15:00:55.221Z</time></trkpt><trkpt lat="45.6757319" lon="9.9791685"><ele>185.0</ele><time>2026-04-12T15:00:56.222Z</time></trkpt><trkpt lat="45.6756629" lon="9.9789546"><ele>186.33333333333331</ele><time>2026-04-12T15:00:57.221Z</time></trkpt><trkpt lat="45.6755964" lon="9.9787401"><ele>187.66666666666666</ele><time>2026-04-12T15:00:58.214Z</time></trkpt><trkpt lat="45.6755302" lon="9.9785239"><ele>189.0</ele><time>2026-04-12T15:00:59.227Z</time></trkpt><trkpt lat="45.6754651" lon="9.9783071"><ele>188.0</ele><time>2026-04-12T15:01:00.231Z</time></trkpt><trkpt lat="45.6753995" lon="9.9780908"><ele>187.0</ele><time>2026-04-12T15:01:01.221Z</time></trkpt><trkpt lat="45.6753285" lon="9.9778763"><ele>186.0</ele><time>2026-04-12T15:01:02.221Z</time></trkpt><trkpt lat="45.6752452" lon="9.9776701"><ele>186.33333333333334</ele><time>2026-04-12T15:01:03.219Z</time></trkpt><trkpt lat="45.6751488" lon="9.9774765"><ele>186.66666666666669</ele><time>2026-04-12T15:01:04.212Z</time></trkpt><trkpt lat="45.6750412" lon="9.9772964"><ele>187.0</ele><time>2026-04-12T15:01:05.22Z</time></trkpt><trkpt lat="45.6749253" lon="9.9771317"><ele>187.0</ele><time>2026-04-12T15:01:06.23Z</time></trkpt><trkpt lat="45.674807" lon="9.9769716"><ele>187.0</ele><time>2026-04-12T15:01:07.236Z</time></trkpt><trkpt lat="45.6746898" lon="9.9768106"><ele>187.0</ele><time>2026-04-12T15:01:08.222Z</time></trkpt><trkpt lat="45.6745751" lon="9.9766504"><ele>186.66666666666669</ele><time>2026-04-12T15:01:09.222Z</time></trkpt><trkpt lat="45.6744601" lon="9.9764909"><ele>186.33333333333334</ele><time>2026-04-12T15:01:10.227Z</time></trkpt><trkpt lat="45.6743459" lon="9.9763265"><ele>186.0</ele><time>2026-04-12T15:01:11.22Z</time></trkpt><trkpt lat="45.6742307" lon="9.9761556"><ele>186.0</ele><time>2026-04-12T15:01:12.224Z</time></trkpt><trkpt lat="45.6741122" lon="9.9759784"><ele>186.0</ele><time>2026-04-12T15:01:13.23Z</time></trkpt><trkpt lat="45.6738737" lon="9.9755973"><ele>187.66666666666666</ele><time>2026-04-12T15:01:15.233Z</time></trkpt><trkpt lat="45.6738046" lon="9.9753536"><ele>189.33333333333331</ele><time>2026-04-12T15:01:16.22Z</time></trkpt><trkpt lat="45.6737188" lon="9.9751183"><ele>191.0</ele><time>2026-04-12T15:01:17.215Z</time></trkpt><trkpt lat="45.6736413" lon="9.9748728"><ele>191.0</ele><time>2026-04-12T15:01:18.221Z</time></trkpt><trkpt lat="45.6735712" lon="9.9746314"><ele>191.0</ele><time>2026-04-12T15:01:19.222Z</time></trkpt><trkpt lat="45.6735024" lon="9.9743982"><ele>191.0</ele><time>2026-04-12T15:01:20.216Z</time></trkpt><trkpt lat="45.6734341" lon="9.9741772"><ele>191.0</ele><time>2026-04-12T15:01:21.222Z</time></trkpt><trkpt lat="45.6733699" lon="9.9739647"><ele>191.0</ele><time>2026-04-12T15:01:22.222Z</time></trkpt><trkpt lat="45.6733087" lon="9.9737529"><ele>191.0</ele><time>2026-04-12T15:01:23.236Z</time></trkpt><trkpt lat="45.6732392" lon="9.9735436"><ele>191.33333333333331</ele><time>2026-04-12T15:01:24.219Z</time></trkpt><trkpt lat="45.6731762" lon="9.9733262"><ele>191.66666666666666</ele><time>2026-04-12T15:01:25.223Z</time></trkpt><trkpt lat="45.6731315" lon="9.9731062"><ele>192.0</ele><time>2026-04-12T15:01:26.214Z</time></trkpt><trkpt lat="45.6731163" lon="9.9728827"><ele>192.0</ele><time>2026-04-12T15:01:27.22Z</time></trkpt><trkpt lat="45.6731092" lon="9.9726581"><ele>192.0</ele><time>2026-04-12T15:01:28.221Z</time></trkpt><trkpt lat="45.6730829" lon="9.9724322"><ele>192.0</ele><time>2026-04-12T15:01:29.217Z</time></trkpt><trkpt lat="45.6730431" lon="9.9722155"><ele>193.33333333333331</ele><time>2026-04-12T15:01:30.211Z</time></trkpt><trkpt lat="45.6729944" lon="9.9720019"><ele>194.66666666666666</ele><time>2026-04-12T15:01:31.222Z</time></trkpt><trkpt lat="45.6729349" lon="9.9717901"><ele>196.0</ele><time>2026-04-12T15:01:32.221Z</time></trkpt><trkpt lat="45.6728696" lon="9.9715838"><ele>197.0</ele><time>2026-04-12T15:01:33.221Z</time></trkpt><trkpt lat="45.6728038" lon="9.9713802"><ele>198.0</ele><time>2026-04-12T15:01:34.233Z</time></trkpt><trkpt lat="45.6726735" lon="9.9709696"><ele>195.33333333333334</ele><time>2026-04-12T15:01:36.236Z</time></trkpt><trkpt lat="45.6726063" lon="9.9707666"><ele>192.66666666666669</ele><time>2026-04-12T15:01:37.216Z</time></trkpt><trkpt lat="45.6725321" lon="9.9705726"><ele>190.0</ele><time>2026-04-12T15:01:38.231Z</time></trkpt><trkpt lat="45.6724592" lon="9.9703865"><ele>190.0</ele><time>2026-04-12T15:01:39.228Z</time></trkpt><trkpt lat="45.672389" lon="9.9702046"><ele>190.0</ele><time>2026-04-12T15:01:40.218Z</time></trkpt><trkpt lat="45.6723205" lon="9.9700206"><ele>190.0</ele><time>2026-04-12T15:01:41.219Z</time></trkpt><trkpt lat="45.672255" lon="9.9698245"><ele>190.0</ele><time>2026-04-12T15:01:42.217Z</time></trkpt><trkpt lat="45.6721884" lon="9.9696241"><ele>193.0</ele><time>2026-04-12T15:01:43.222Z</time></trkpt><trkpt lat="45.6721191" lon="9.9694269"><ele>196.0</ele><time>2026-04-12T15:01:44.234Z</time></trkpt><trkpt lat="45.6720508" lon="9.9692332"><ele>199.0</ele><time>2026-04-12T15:01:45.22Z</time></trkpt><trkpt lat="45.6719843" lon="9.9690451"><ele>198.0</ele><time>2026-04-12T15:01:46.228Z</time></trkpt><trkpt lat="45.6719209" lon="9.9688558"><ele>197.0</ele><time>2026-04-12T15:01:47.227Z</time></trkpt><trkpt lat="45.6718645" lon="9.9686569"><ele>196.0</ele><time>2026-04-12T15:01:48.218Z</time></trkpt><trkpt lat="45.6718199" lon="9.9684418"><ele>197.0</ele><time>2026-04-12T15:01:49.234Z</time></trkpt><trkpt lat="45.671784" lon="9.9682078"><ele>198.0</ele><time>2026-04-12T15:01:50.217Z</time></trkpt><trkpt lat="45.6717489" lon="9.9679621"><ele>199.0</ele><time>2026-04-12T15:01:51.222Z</time></trkpt><trkpt lat="45.6717104" lon="9.9677088"><ele>200.0</ele><time>2026-04-12T15:01:52.225Z</time></trkpt><trkpt lat="45.6716665" lon="9.9674478"><ele>201.0</ele><time>2026-04-12T15:01:53.219Z</time></trkpt><trkpt lat="45.6716199" lon="9.9671845"><ele>202.0</ele><time>2026-04-12T15:01:54.225Z</time></trkpt><trkpt lat="45.6715731" lon="9.9669228"><ele>205.0</ele><time>2026-04-12T15:01:55.241Z</time></trkpt><trkpt lat="45.6714839" lon="9.9664089"><ele>208.0</ele><time>2026-04-12T15:01:57.222Z</time></trkpt><trkpt lat="45.6714405" lon="9.9661577"><ele>208.0</ele><time>2026-04-12T15:01:58.222Z</time></trkpt><trkpt lat="45.6713979" lon="9.965914"><ele>208.0</ele><time>2026-04-12T15:01:59.233Z</time></trkpt><trkpt lat="45.6713573" lon="9.9656779"><ele>208.0</ele><time>2026-04-12T15:02:00.224Z</time></trkpt><trkpt lat="45.6713167" lon="9.965451"><ele>209.33333333333331</ele><time>2026-04-12T15:02:01.238Z</time></trkpt><trkpt lat="45.6712777" lon="9.9652308"><ele>210.66666666666669</ele><time>2026-04-12T15:02:02.222Z</time></trkpt><trkpt lat="45.671239" lon="9.9650188"><ele>212.0</ele><time>2026-04-12T15:02:03.231Z</time></trkpt><trkpt lat="45.671202" lon="9.9648145"><ele>212.5</ele><time>2026-04-12T15:02:04.217Z</time></trkpt><trkpt lat="45.6711675" lon="9.9646149"><ele>213.0</ele><time>2026-04-12T15:02:05.221Z</time></trkpt><trkpt lat="45.6711331" lon="9.9644209"><ele>213.5</ele><time>2026-04-12T15:02:06.219Z</time></trkpt><trkpt lat="45.6711001" lon="9.964232"><ele>214.0</ele><time>2026-04-12T15:02:07.219Z</time></trkpt><trkpt lat="45.6710663" lon="9.964046"><ele>211.25</ele><time>2026-04-12T15:02:08.235Z</time></trkpt><trkpt lat="45.6710344" lon="9.963867"><ele>208.5</ele><time>2026-04-12T15:02:09.226Z</time></trkpt><trkpt lat="45.6710067" lon="9.9636946"><ele>205.75</ele><time>2026-04-12T15:02:10.228Z</time></trkpt><trkpt lat="45.6709808" lon="9.9635252"><ele>203.0</ele><time>2026-04-12T15:02:11.222Z</time></trkpt><trkpt lat="45.6709563" lon="9.9633633"><ele>203.0</ele><time>2026-04-12T15:02:12.23Z</time></trkpt><trkpt lat="45.6709388" lon="9.9632174"><ele>203.0</ele><time>2026-04-12T15:02:13.222Z</time></trkpt><trkpt lat="45.670928" lon="9.9631011"><ele>203.0</ele><time>2026-04-12T15:02:14.23Z</time></trkpt><trkpt lat="45.6709155" lon="9.9630084"><ele>203.0</ele><time>2026-04-12T15:02:16.223Z</time></trkpt><trkpt lat="45.6708828" lon="9.9627812"><ele>203.0</ele><time>2026-04-12T15:02:23.224Z</time></trkpt><trkpt lat="45.6708648" lon="9.9626609"><ele>203.00000000000003</ele><time>2026-04-12T15:02:24.22Z</time></trkpt><trkpt lat="45.6708441" lon="9.9625501"><ele>203.0</ele><time>2026-04-12T15:02:25.215Z</time></trkpt><trkpt lat="45.6707801" lon="9.9624337"><ele>203.0</ele><time>2026-04-12T15:02:27.218Z</time></trkpt><trkpt lat="45.6706945" lon="9.9624762"><ele>203.0</ele><time>2026-04-12T15:02:29.216Z</time></trkpt><trkpt lat="45.6706504" lon="9.9625649"><ele>203.00000000000003</ele><time>2026-04-12T15:02:30.212Z</time></trkpt><trkpt lat="45.6706162" lon="9.9626597"><ele>203.0</ele><time>2026-04-12T15:02:31.209Z</time></trkpt><trkpt lat="45.6705799" lon="9.9627668"><ele>203.0</ele><time>2026-04-12T15:02:32.218Z</time></trkpt><trkpt lat="45.6705322" lon="9.9628557"><ele>203.0</ele><time>2026-04-12T15:02:33.215Z</time></trkpt><trkpt lat="45.6704667" lon="9.9629283"><ele>203.0</ele><time>2026-04-12T15:02:34.211Z</time></trkpt><trkpt lat="45.6703898" lon="9.9629986"><ele>203.0</ele><time>2026-04-12T15:02:35.218Z</time></trkpt><trkpt lat="45.6703072" lon="9.9630797"><ele>203.0</ele><time>2026-04-12T15:02:36.218Z</time></trkpt><trkpt lat="45.6702246" lon="9.9631689"><ele>201.5</ele><time>2026-04-12T15:02:37.22Z</time></trkpt><trkpt lat="45.6700613" lon="9.9633396"><ele>200.0</ele><time>2026-04-12T15:02:39.216Z</time></trkpt><trkpt lat="45.6699842" lon="9.9634217"><ele>198.5</ele><time>2026-04-12T15:02:40.219Z</time></trkpt><trkpt lat="45.6699069" lon="9.9634971"><ele>197.0</ele><time>2026-04-12T15:02:41.212Z</time></trkpt><trkpt lat="45.6698313" lon="9.9635716"><ele>197.00000000000003</ele><time>2026-04-12T15:02:42.215Z</time></trkpt><trkpt lat="45.6697579" lon="9.9636414"><ele>197.0</ele><time>2026-04-12T15:02:43.212Z</time></trkpt><trkpt lat="45.6696907" lon="9.9637032"><ele>197.0</ele><time>2026-04-12T15:02:44.212Z</time></trkpt><trkpt lat="45.6696299" lon="9.9637588"><ele>197.0</ele><time>2026-04-12T15:02:45.212Z</time></trkpt><trkpt lat="45.6695328" lon="9.9638422"><ele>197.00000000000003</ele><time>2026-04-12T15:02:47.211Z</time></trkpt><trkpt lat="45.6694572" lon="9.9639251"><ele>197.0</ele><time>2026-04-12T15:02:49.215Z</time></trkpt><trkpt lat="45.6693855" lon="9.9639905"><ele>196.0</ele><time>2026-04-12T15:02:51.218Z</time></trkpt><trkpt lat="45.6692844" lon="9.9640123"><ele>195.0</ele><time>2026-04-12T15:02:53.213Z</time></trkpt><trkpt lat="45.6691559" lon="9.9639674"><ele>194.0</ele><time>2026-04-12T15:02:55.222Z</time></trkpt><trkpt lat="45.6690937" lon="9.9639209"><ele>193.0</ele><time>2026-04-12T15:02:56.217Z</time></trkpt><trkpt lat="45.6690451" lon="9.9638634"><ele>192.0</ele><time>2026-04-12T15:02:57.223Z</time></trkpt><trkpt lat="45.668995" lon="9.9637491"><ele>192.0</ele><time>2026-04-12T15:02:59.222Z</time></trkpt><trkpt lat="45.6689412" lon="9.9635052"><ele>192.0</ele><time>2026-04-12T15:03:06.22Z</time></trkpt><trkpt lat="45.6689094" lon="9.9634145"><ele>192.0</ele><time>2026-04-12T15:03:07.212Z</time></trkpt><trkpt lat="45.6688747" lon="9.9633104"><ele>192.0</ele><time>2026-04-12T15:03:08.222Z</time></trkpt><trkpt lat="45.6688442" lon="9.9632089"><ele>192.0</ele><time>2026-04-12T15:03:09.217Z</time></trkpt><trkpt lat="45.6688145" lon="9.9631095"><ele>192.0</ele><time>2026-04-12T15:03:10.214Z</time></trkpt><trkpt lat="45.6687817" lon="9.9630084"><ele>192.0</ele><time>2026-04-12T15:03:11.22Z</time></trkpt><trkpt lat="45.6687488" lon="9.962911"><ele>192.0</ele><time>2026-04-12T15:03:12.215Z</time></trkpt><trkpt lat="45.6687205" lon="9.9628212"><ele>192.0</ele><time>2026-04-12T15:03:13.215Z</time></trkpt><trkpt lat="45.6686973" lon="9.9627373"><ele>192.0</ele><time>2026-04-12T15:03:14.212Z</time></trkpt><trkpt lat="45.6686489" lon="9.9625953"><ele>192.0</ele><time>2026-04-12T15:03:16.219Z</time></trkpt><trkpt lat="45.6686067" lon="9.9624599"><ele>192.25</ele><time>2026-04-12T15:03:18.219Z</time></trkpt><trkpt lat="45.6685646" lon="9.9623146"><ele>192.5</ele><time>2026-04-12T15:03:20.219Z</time></trkpt><trkpt lat="45.668489" lon="9.9620492"><ele>192.75</ele><time>2026-04-12T15:03:24.221Z</time></trkpt><trkpt lat="45.6684459" lon="9.9619011"><ele>193.0</ele><time>2026-04-12T15:03:26.217Z</time></trkpt><trkpt lat="45.6684017" lon="9.9617506"><ele>193.16666666666666</ele><time>2026-04-12T15:03:28.213Z</time></trkpt><trkpt lat="45.6683776" lon="9.9616376"><ele>193.33333333333331</ele><time>2026-04-12T15:03:30.212Z</time></trkpt><trkpt lat="45.6683537" lon="9.9615272"><ele>193.5</ele><time>2026-04-12T15:03:32.216Z</time></trkpt><trkpt lat="45.668319" lon="9.9614244"><ele>193.66666666666669</ele><time>2026-04-12T15:03:34.214Z</time></trkpt><trkpt lat="45.6682807" lon="9.9613162"><ele>193.83333333333334</ele><time>2026-04-12T15:03:36.213Z</time></trkpt><trkpt lat="45.6682274" lon="9.9611699"><ele>194.0</ele><time>2026-04-12T15:03:38.217Z</time></trkpt><trkpt lat="45.668198" lon="9.961074"><ele>194.0</ele><time>2026-04-12T15:03:39.213Z</time></trkpt><trkpt lat="45.6681651" lon="9.9609775"><ele>194.0</ele><time>2026-04-12T15:03:40.22Z</time></trkpt><trkpt lat="45.6681382" lon="9.9608871"><ele>194.0</ele><time>2026-04-12T15:03:41.221Z</time></trkpt><trkpt lat="45.6680453" lon="9.9605715"><ele>194.0</ele><time>2026-04-12T15:03:45.213Z</time></trkpt><trkpt lat="45.6679997" lon="9.9604353"><ele>194.0</ele><time>2026-04-12T15:03:47.213Z</time></trkpt><trkpt lat="45.6679521" lon="9.9602935"><ele>194.0</ele><time>2026-04-12T15:03:49.219Z</time></trkpt><trkpt lat="45.6679064" lon="9.9601361"><ele>194.0</ele><time>2026-04-12T15:03:51.213Z</time></trkpt><trkpt lat="45.6678642" lon="9.959988"><ele>194.0</ele><time>2026-04-12T15:03:53.212Z</time></trkpt><trkpt lat="45.6678282" lon="9.9598627"><ele>194.0</ele><time>2026-04-12T15:03:55.216Z</time></trkpt><trkpt lat="45.6677837" lon="9.9597382"><ele>193.75</ele><time>2026-04-12T15:03:57.218Z</time></trkpt><trkpt lat="45.6677356" lon="9.9596289"><ele>193.5</ele><time>2026-04-12T15:03:59.217Z</time></trkpt><trkpt lat="45.6676878" lon="9.9594674"><ele>193.25</ele><time>2026-04-12T15:04:01.22Z</time></trkpt><trkpt lat="45.6676618" lon="9.9593673"><ele>193.0</ele><time>2026-04-12T15:04:02.22Z</time></trkpt><trkpt lat="45.6675964" lon="9.9591355"><ele>193.33333333333331</ele><time>2026-04-12T15:04:05.217Z</time></trkpt><trkpt lat="45.6675731" lon="9.959037"><ele>193.66666666666666</ele><time>2026-04-12T15:04:10.211Z</time></trkpt><trkpt lat="45.6675603" lon="9.9589111"><ele>194.0</ele><time>2026-04-12T15:04:13.221Z</time></trkpt><trkpt lat="45.6675628" lon="9.9587929"><ele>194.33333333333331</ele><time>2026-04-12T15:04:15.22Z</time></trkpt><trkpt lat="45.6675942" lon="9.9586813"><ele>194.66666666666666</ele><time>2026-04-12T15:04:18.215Z</time></trkpt><trkpt lat="45.6676102" lon="9.9585666"><ele>195.0</ele><time>2026-04-12T15:04:20.217Z</time></trkpt><trkpt lat="45.6676358" lon="9.9584141"><ele>195.33333333333331</ele><time>2026-04-12T15:04:22.215Z</time></trkpt><trkpt lat="45.6676953" lon="9.9582659"><ele>195.66666666666666</ele><time>2026-04-12T15:04:24.217Z</time></trkpt><trkpt lat="45.6678292" lon="9.9579852"><ele>196.0</ele><time>2026-04-12T15:04:28.228Z</time></trkpt><trkpt lat="45.6678606" lon="9.9578318"><ele>196.0</ele><time>2026-04-12T15:04:30.216Z</time></trkpt><trkpt lat="45.6678797" lon="9.9576681"><ele>196.0</ele><time>2026-04-12T15:04:32.228Z</time></trkpt><trkpt lat="45.6679011" lon="9.9575105"><ele>196.0</ele><time>2026-04-12T15:04:34.218Z</time></trkpt><trkpt lat="45.6679252" lon="9.9573853"><ele>196.0</ele><time>2026-04-12T15:04:36.215Z</time></trkpt><trkpt lat="45.6679355" lon="9.9572811"><ele>196.0</ele><time>2026-04-12T15:04:38.224Z</time></trkpt><trkpt lat="45.667923" lon="9.9571844"><ele>196.4</ele><time>2026-04-12T15:04:40.221Z</time></trkpt><trkpt lat="45.6679041" lon="9.9570872"><ele>196.8</ele><time>2026-04-12T15:04:42.221Z</time></trkpt><trkpt lat="45.6678958" lon="9.956966"><ele>197.20000000000002</ele><time>2026-04-12T15:04:44.215Z</time></trkpt><trkpt lat="45.6678835" lon="9.9567906"><ele>197.60000000000002</ele><time>2026-04-12T15:04:46.217Z</time></trkpt><trkpt lat="45.6678631" lon="9.9565835"><ele>198.0</ele><time>2026-04-12T15:04:48.222Z</time></trkpt><trkpt lat="45.667844" lon="9.9564922"><ele>198.2</ele><time>2026-04-12T15:04:49.22Z</time></trkpt><trkpt lat="45.6678054" lon="9.9563219"><ele>198.4</ele><time>2026-04-12T15:04:51.22Z</time></trkpt><trkpt lat="45.6677875" lon="9.9562348"><ele>198.6</ele><time>2026-04-12T15:04:52.228Z</time></trkpt><trkpt lat="45.6677691" lon="9.9561464"><ele>198.79999999999998</ele><time>2026-04-12T15:04:53.216Z</time></trkpt><trkpt lat="45.6677049" lon="9.9560158"><ele>199.0</ele><time>2026-04-12T15:04:55.22Z</time></trkpt><trkpt lat="45.6676053" lon="9.9559502"><ele>198.99999999999997</ele><time>2026-04-12T15:04:57.22Z</time></trkpt><trkpt lat="45.6674944" lon="9.9559378"><ele>199.0</ele><time>2026-04-12T15:04:59.217Z</time></trkpt><trkpt lat="45.6674073" lon="9.9559175"><ele>199.0</ele><time>2026-04-12T15:05:01.212Z</time></trkpt><trkpt lat="45.6673431" lon="9.9559224"><ele>199.0</ele><time>2026-04-12T15:05:03.217Z</time></trkpt><trkpt lat="45.6673027" lon="9.9559955"><ele>198.99999999999997</ele><time>2026-04-12T15:05:05.214Z</time></trkpt><trkpt lat="45.6672344" lon="9.9560154"><ele>199.0</ele><time>2026-04-12T15:05:07.221Z</time></trkpt><trkpt lat="45.6670261" lon="9.9559471"><ele>197.6</ele><time>2026-04-12T15:05:11.212Z</time></trkpt><trkpt lat="45.6669344" lon="9.9559128"><ele>196.2</ele><time>2026-04-12T15:05:13.216Z</time></trkpt><trkpt lat="45.6668514" lon="9.9558815"><ele>194.79999999999998</ele><time>2026-04-12T15:05:15.212Z</time></trkpt><trkpt lat="45.6667699" lon="9.9559147"><ele>193.39999999999998</ele><time>2026-04-12T15:05:18.222Z</time></trkpt><trkpt lat="45.6667181" lon="9.9560155"><ele>192.0</ele><time>2026-04-12T15:05:20.216Z</time></trkpt><trkpt lat="45.6666761" lon="9.9561493"><ele>192.0</ele><time>2026-04-12T15:05:22.211Z</time></trkpt><trkpt lat="45.6666236" lon="9.9562791"><ele>192.0</ele><time>2026-04-12T15:05:24.217Z</time></trkpt><trkpt lat="45.6665821" lon="9.9563767"><ele>192.0</ele><time>2026-04-12T15:05:26.216Z</time></trkpt><trkpt lat="45.6665271" lon="9.9564275"><ele>192.0</ele><time>2026-04-12T15:05:31.221Z</time></trkpt><trkpt lat="45.6664518" lon="9.9565771"><ele>192.0</ele><time>2026-04-12T15:05:54.214Z</time></trkpt><trkpt lat="45.6663522" lon="9.9567439"><ele>192.75</ele><time>2026-04-12T15:06:00.216Z</time></trkpt><trkpt lat="45.6662847" lon="9.9567548"><ele>193.5</ele><time>2026-04-12T15:06:39.221Z</time></trkpt><trkpt lat="45.6661424" lon="9.957046"><ele>194.25</ele><time>2026-04-12T15:17:38.212Z</time></trkpt><trkpt lat="45.6660461" lon="9.9570237"><ele>195.0</ele><time>2026-04-12T15:17:41.218Z</time></trkpt><trkpt lat="45.6659634" lon="9.9569319"><ele>193.8</ele><time>2026-04-12T15:17:43.223Z</time></trkpt><trkpt lat="45.6658711" lon="9.9568546"><ele>192.6</ele><time>2026-04-12T15:17:45.222Z</time></trkpt><trkpt lat="45.6658105" lon="9.9568025"><ele>191.39999999999998</ele><time>2026-04-12T15:17:47.218Z</time></trkpt><trkpt lat="45.6657494" lon="9.9567403"><ele>190.2</ele><time>2026-04-12T15:17:52.23Z</time></trkpt><trkpt lat="45.6656911" lon="9.956678"><ele>189.0</ele><time>2026-04-12T15:17:56.226Z</time></trkpt><trkpt lat="45.6655298" lon="9.9565129"><ele>189.0</ele><time>2026-04-12T15:18:06.218Z</time></trkpt><trkpt lat="45.6654688" lon="9.9564593"><ele>189.0</ele><time>2026-04-12T15:18:07.22Z</time></trkpt><trkpt lat="45.6654037" lon="9.9564054"><ele>189.0</ele><time>2026-04-12T15:18:08.22Z</time></trkpt><trkpt lat="45.6653398" lon="9.956351"><ele>189.0</ele><time>2026-04-12T15:18:09.221Z</time></trkpt><trkpt lat="45.6652834" lon="9.9563014"><ele>189.0</ele><time>2026-04-12T15:18:10.221Z</time></trkpt><trkpt lat="45.6652047" lon="9.9562155"><ele>189.0</ele><time>2026-04-12T15:18:12.222Z</time></trkpt><trkpt lat="45.665142" lon="9.9561615"><ele>189.0</ele><time>2026-04-12T15:18:14.227Z</time></trkpt><trkpt lat="45.6650539" lon="9.9561109"><ele>189.0</ele><time>2026-04-12T15:18:16.223Z</time></trkpt><trkpt lat="45.6649649" lon="9.9560297"><ele>189.0</ele><time>2026-04-12T15:18:18.225Z</time></trkpt><trkpt lat="45.6649256" lon="9.955795"><ele>189.0</ele><time>2026-04-12T15:18:21.23Z</time></trkpt><trkpt lat="45.6649448" lon="9.9557013"><ele>189.0</ele><time>2026-04-12T15:18:22.227Z</time></trkpt><trkpt lat="45.6649718" lon="9.9556082"><ele>189.14285714285714</ele><time>2026-04-12T15:18:23.221Z</time></trkpt><trkpt lat="45.6650024" lon="9.9555124"><ele>189.28571428571428</ele><time>2026-04-12T15:18:24.221Z</time></trkpt><trkpt lat="45.6650317" lon="9.9554152"><ele>189.42857142857144</ele><time>2026-04-12T15:18:25.226Z</time></trkpt><trkpt lat="45.6650638" lon="9.9553184"><ele>189.57142857142856</ele><time>2026-04-12T15:18:26.235Z</time></trkpt><trkpt lat="45.665103" lon="9.9552347"><ele>189.71428571428572</ele><time>2026-04-12T15:18:27.223Z</time></trkpt><trkpt lat="45.6651486" lon="9.9551588"><ele>189.85714285714286</ele><time>2026-04-12T15:18:28.226Z</time></trkpt><trkpt lat="45.665194" lon="9.9550802"><ele>190.0</ele><time>2026-04-12T15:18:29.232Z</time></trkpt><trkpt lat="45.6652328" lon="9.9549954"><ele>190.0</ele><time>2026-04-12T15:18:30.228Z</time></trkpt><trkpt lat="45.6652655" lon="9.9549064"><ele>190.0</ele><time>2026-04-12T15:18:31.216Z</time></trkpt><trkpt lat="45.6652918" lon="9.9548148"><ele>190.0</ele><time>2026-04-12T15:18:32.229Z</time></trkpt><trkpt lat="45.6653134" lon="9.9547265"><ele>190.0</ele><time>2026-04-12T15:18:33.228Z</time></trkpt><trkpt lat="45.6653447" lon="9.9545901"><ele>190.0</ele><time>2026-04-12T15:18:35.218Z</time></trkpt><trkpt lat="45.6653575" lon="9.9545007"><ele>190.0</ele><time>2026-04-12T15:18:40.226Z</time></trkpt><trkpt lat="45.6655388" lon="9.9544657"><ele>190.16666666666669</ele><time>2026-04-12T15:21:59.227Z</time></trkpt><trkpt lat="45.6656176" lon="9.9544879"><ele>190.33333333333334</ele><time>2026-04-12T15:22:04.226Z</time></trkpt><trkpt lat="45.6656733" lon="9.9545553"><ele>190.5</ele><time>2026-04-12T15:22:09.264Z</time></trkpt><trkpt lat="45.6657875" lon="9.9546384"><ele>190.66666666666666</ele><time>2026-04-12T15:22:19.264Z</time></trkpt><trkpt lat="45.6658489" lon="9.9546895"><ele>190.83333333333331</ele><time>2026-04-12T15:22:25.228Z</time></trkpt><trkpt lat="45.665921" lon="9.9546957"><ele>191.0</ele><time>2026-04-12T15:22:32.225Z</time></trkpt><trkpt lat="45.6660104" lon="9.9546044"><ele>191.0</ele><time>2026-04-12T15:24:13.226Z</time></trkpt><trkpt lat="45.6660662" lon="9.9544357"><ele>191.0</ele><time>2026-04-12T15:24:26.224Z</time></trkpt><trkpt lat="45.6660788" lon="9.9543452"><ele>191.0</ele><time>2026-04-12T15:24:34.224Z</time></trkpt><trkpt lat="45.666132" lon="9.9541734"><ele>191.0</ele><time>2026-04-12T15:24:52.224Z</time></trkpt><trkpt lat="45.6662015" lon="9.9541795"><ele>191.0</ele><time>2026-04-12T15:25:08.224Z</time></trkpt><trkpt lat="45.6662962" lon="9.9541165"><ele>190.4</ele><time>2026-04-12T15:25:28.244Z</time></trkpt><trkpt lat="45.6663537" lon="9.9539347"><ele>189.8</ele><time>2026-04-12T15:25:44.244Z</time></trkpt><trkpt lat="45.6663698" lon="9.953842"><ele>189.20000000000002</ele><time>2026-04-12T15:25:54.144Z</time></trkpt><trkpt lat="45.6663748" lon="9.9536481"><ele>188.60000000000002</ele><time>2026-04-12T15:26:12.204Z</time></trkpt><trkpt lat="45.6663723" lon="9.9535515"><ele>188.0</ele><time>2026-04-12T15:26:21.244Z</time></trkpt><trkpt lat="45.6663562" lon="9.9533666"><ele>188.0</ele><time>2026-04-12T15:26:39.225Z</time></trkpt><trkpt lat="45.6663672" lon="9.9532765"><ele>188.0</ele><time>2026-04-12T15:26:46.228Z</time></trkpt><trkpt lat="45.6663691" lon="9.9530851"><ele>188.0</ele><time>2026-04-12T15:27:01.223Z</time></trkpt><trkpt lat="45.6663318" lon="9.9530087"><ele>188.0</ele><time>2026-04-12T15:27:09.184Z</time></trkpt></trkseg><trkseg><trkpt lat="45.6652619" lon="9.954632"><ele>190.0</ele><time>2026-04-12T15:44:08.379Z</time></trkpt><trkpt lat="45.6652384" lon="9.9547575"><ele>190.0</ele><time>2026-04-12T15:44:10.384Z</time></trkpt><trkpt lat="45.6652127" lon="9.9550741"><ele>190.0</ele><time>2026-04-12T15:44:14.385Z</time></trkpt><trkpt lat="45.6651812" lon="9.9551677"><ele>190.0</ele><time>2026-04-12T15:44:15.39Z</time></trkpt><trkpt lat="45.6651419" lon="9.9552507"><ele>190.0</ele><time>2026-04-12T15:44:16.387Z</time></trkpt><trkpt lat="45.665056" lon="9.9553542"><ele>190.0</ele><time>2026-04-12T15:44:18.385Z</time></trkpt><trkpt lat="45.6649569" lon="9.9554152"><ele>190.0</ele><time>2026-04-12T15:44:20.383Z</time></trkpt><trkpt lat="45.6648914" lon="9.9554727"><ele>190.0</ele><time>2026-04-12T15:44:22.39Z</time></trkpt><trkpt lat="45.6648919" lon="9.95558"><ele>190.0</ele><time>2026-04-12T15:44:24.39Z</time></trkpt><trkpt lat="45.6649355" lon="9.9557324"><ele>189.75</ele><time>2026-04-12T15:44:26.392Z</time></trkpt><trkpt lat="45.6649435" lon="9.9559006"><ele>189.5</ele><time>2026-04-12T15:44:28.391Z</time></trkpt><trkpt lat="45.664915" lon="9.9560102"><ele>189.25</ele><time>2026-04-12T15:44:30.378Z</time></trkpt><trkpt lat="45.6648561" lon="9.9560885"><ele>189.0</ele><time>2026-04-12T15:44:33.38Z</time></trkpt><trkpt lat="45.6647105" lon="9.9562504"><ele>189.0</ele><time>2026-04-12T15:44:36.392Z</time></trkpt><trkpt lat="45.6646591" lon="9.9563101"><ele>189.0</ele><time>2026-04-12T15:44:37.382Z</time></trkpt><trkpt lat="45.6645749" lon="9.9564416"><ele>189.0</ele><time>2026-04-12T15:44:39.38Z</time></trkpt><trkpt lat="45.6645162" lon="9.9565965"><ele>189.0</ele><time>2026-04-12T15:44:41.389Z</time></trkpt><trkpt lat="45.6644875" lon="9.9566776"><ele>189.0</ele><time>2026-04-12T15:44:42.384Z</time></trkpt><trkpt lat="45.6644571" lon="9.9567599"><ele>189.0</ele><time>2026-04-12T15:44:43.386Z</time></trkpt><trkpt lat="45.6644239" lon="9.9568475"><ele>189.0</ele><time>2026-04-12T15:44:44.381Z</time></trkpt><trkpt lat="45.6643872" lon="9.9569374"><ele>189.0</ele><time>2026-04-12T15:44:45.383Z</time></trkpt><trkpt lat="45.6643351" lon="9.9570196"><ele>189.0</ele><time>2026-04-12T15:44:46.391Z</time></trkpt><trkpt lat="45.664266" lon="9.9570788"><ele>189.0</ele><time>2026-04-12T15:44:47.381Z</time></trkpt><trkpt lat="45.6641873" lon="9.9571055"><ele>189.0</ele><time>2026-04-12T15:44:48.382Z</time></trkpt><trkpt lat="45.6641098" lon="9.9571002"><ele>189.0</ele><time>2026-04-12T15:44:49.381Z</time></trkpt><trkpt lat="45.6640488" lon="9.9570714"><ele>189.0</ele><time>2026-04-12T15:44:50.398Z</time></trkpt><trkpt lat="45.663981" lon="9.9570342"><ele>189.0</ele><time>2026-04-12T15:44:52.382Z</time></trkpt><trkpt lat="45.6639116" lon="9.9570034"><ele>189.0</ele><time>2026-04-12T15:44:56.389Z</time></trkpt><trkpt lat="45.6637464" lon="9.9570049"><ele>189.0</ele><time>2026-04-12T15:45:00.38Z</time></trkpt><trkpt lat="45.6636373" lon="9.957011"><ele>189.0</ele><time>2026-04-12T15:45:02.38Z</time></trkpt><trkpt lat="45.6635196" lon="9.9569833"><ele>189.0</ele><time>2026-04-12T15:45:04.388Z</time></trkpt><trkpt lat="45.6633953" lon="9.956958"><ele>189.0</ele><time>2026-04-12T15:45:06.39Z</time></trkpt><trkpt lat="45.6632802" lon="9.9569982"><ele>189.0</ele><time>2026-04-12T15:45:08.381Z</time></trkpt><trkpt lat="45.6632275" lon="9.9571331"><ele>189.0</ele><time>2026-04-12T15:45:10.383Z</time></trkpt><trkpt lat="45.6632518" lon="9.9573114"><ele>189.0</ele><time>2026-04-12T15:45:12.386Z</time></trkpt><trkpt lat="45.6632634" lon="9.9574093"><ele>189.0</ele><time>2026-04-12T15:45:13.379Z</time></trkpt><trkpt lat="45.6632524" lon="9.9575128"><ele>189.0</ele><time>2026-04-12T15:45:14.38Z</time></trkpt><trkpt lat="45.6632172" lon="9.9576173"><ele>189.0</ele><time>2026-04-12T15:45:15.386Z</time></trkpt><trkpt lat="45.6631591" lon="9.9577099"><ele>189.0</ele><time>2026-04-12T15:45:16.384Z</time></trkpt><trkpt lat="45.6630947" lon="9.9577973"><ele>189.0</ele><time>2026-04-12T15:45:17.386Z</time></trkpt><trkpt lat="45.6629572" lon="9.9579878"><ele>189.0</ele><time>2026-04-12T15:45:19.386Z</time></trkpt><trkpt lat="45.6628931" lon="9.9580923"><ele>189.0</ele><time>2026-04-12T15:45:20.383Z</time></trkpt><trkpt lat="45.6628326" lon="9.9582002"><ele>189.0</ele><time>2026-04-12T15:45:21.383Z</time></trkpt><trkpt lat="45.66277" lon="9.9583081"><ele>189.0</ele><time>2026-04-12T15:45:22.386Z</time></trkpt><trkpt lat="45.6627076" lon="9.9584167"><ele>189.0</ele><time>2026-04-12T15:45:23.379Z</time></trkpt><trkpt lat="45.6626452" lon="9.9585258"><ele>189.2</ele><time>2026-04-12T15:45:24.384Z</time></trkpt><trkpt lat="45.6625834" lon="9.958636"><ele>189.39999999999998</ele><time>2026-04-12T15:45:25.38Z</time></trkpt><trkpt lat="45.662523" lon="9.958742"><ele>189.6</ele><time>2026-04-12T15:45:26.384Z</time></trkpt><trkpt lat="45.662466" lon="9.9588431"><ele>189.8</ele><time>2026-04-12T15:45:27.382Z</time></trkpt><trkpt lat="45.6624123" lon="9.9589374"><ele>190.0</ele><time>2026-04-12T15:45:28.383Z</time></trkpt><trkpt lat="45.6623613" lon="9.9590272"><ele>190.0</ele><time>2026-04-12T15:45:29.38Z</time></trkpt><trkpt lat="45.6623101" lon="9.9591155"><ele>190.0</ele><time>2026-04-12T15:45:30.385Z</time></trkpt><trkpt lat="45.6622586" lon="9.9592026"><ele>190.0</ele><time>2026-04-12T15:45:31.388Z</time></trkpt><trkpt lat="45.6622059" lon="9.9592868"><ele>190.0</ele><time>2026-04-12T15:45:32.392Z</time></trkpt><trkpt lat="45.6621535" lon="9.9593714"><ele>190.0</ele><time>2026-04-12T15:45:33.376Z</time></trkpt><trkpt lat="45.6621003" lon="9.9594598"><ele>190.0</ele><time>2026-04-12T15:45:34.388Z</time></trkpt><trkpt lat="45.6620462" lon="9.9595524"><ele>187.0</ele><time>2026-04-12T15:45:35.384Z</time></trkpt><trkpt lat="45.6619928" lon="9.9596456"><ele>187.0</ele><time>2026-04-12T15:45:36.393Z</time></trkpt><trkpt lat="45.6619378" lon="9.959738"><ele>192.0</ele><time>2026-04-12T15:45:37.393Z</time></trkpt><trkpt lat="45.6618814" lon="9.9598324"><ele>192.0</ele><time>2026-04-12T15:45:38.391Z</time></trkpt></trkseg><trkseg><trkpt lat="45.6565795" lon="9.9612805"><ele>189.0</ele><time>2026-04-12T15:47:16.386Z</time></trkpt><trkpt lat="45.6564695" lon="9.9610056"><ele>189.0</ele><time>2026-04-12T15:47:19.385Z</time></trkpt><trkpt lat="45.6564303" lon="9.9609099"><ele>189.0</ele><time>2026-04-12T15:47:20.401Z</time></trkpt><trkpt lat="45.65639" lon="9.9608226"><ele>189.0</ele><time>2026-04-12T15:47:21.392Z</time></trkpt><trkpt lat="45.6563525" lon="9.9607406"><ele>189.0</ele><time>2026-04-12T15:47:22.4Z</time></trkpt><trkpt lat="45.6563154" lon="9.960663"><ele>188.85714285714286</ele><time>2026-04-12T15:47:23.381Z</time></trkpt><trkpt lat="45.6562791" lon="9.9605871"><ele>188.71428571428572</ele><time>2026-04-12T15:47:24.385Z</time></trkpt><trkpt lat="45.656242" lon="9.9605058"><ele>188.57142857142856</ele><time>2026-04-12T15:47:25.387Z</time></trkpt><trkpt lat="45.6562037" lon="9.9604175"><ele>188.42857142857144</ele><time>2026-04-12T15:47:26.39Z</time></trkpt><trkpt lat="45.6561634" lon="9.960323"><ele>188.28571428571428</ele><time>2026-04-12T15:47:27.397Z</time></trkpt><trkpt lat="45.6561231" lon="9.9602259"><ele>188.14285714285714</ele><time>2026-04-12T15:47:28.39Z</time></trkpt><trkpt lat="45.6560818" lon="9.9601282"><ele>188.0</ele><time>2026-04-12T15:47:29.394Z</time></trkpt><trkpt lat="45.6560376" lon="9.9600282"><ele>188.60000000000002</ele><time>2026-04-12T15:47:30.402Z</time></trkpt><trkpt lat="45.6559902" lon="9.9599244"><ele>189.20000000000002</ele><time>2026-04-12T15:47:31.389Z</time></trkpt><trkpt lat="45.6559454" lon="9.9598141"><ele>189.8</ele><time>2026-04-12T15:47:32.386Z</time></trkpt><trkpt lat="45.6558988" lon="9.9596977"><ele>190.4</ele><time>2026-04-12T15:47:33.39Z</time></trkpt><trkpt lat="45.6558493" lon="9.9595789"><ele>191.0</ele><time>2026-04-12T15:47:34.39Z</time></trkpt><trkpt lat="45.6557985" lon="9.9594592"><ele>191.0</ele><time>2026-04-12T15:47:35.4Z</time></trkpt><trkpt lat="45.6557504" lon="9.9593489"><ele>191.0</ele><time>2026-04-12T15:47:36.382Z</time></trkpt><trkpt lat="45.6557041" lon="9.9592458"><ele>191.0</ele><time>2026-04-12T15:47:37.387Z</time></trkpt><trkpt lat="45.6556208" lon="9.9590502"><ele>191.0</ele><time>2026-04-12T15:47:39.382Z</time></trkpt><trkpt lat="45.6555805" lon="9.9589587"><ele>191.0</ele><time>2026-04-12T15:47:40.399Z</time></trkpt><trkpt lat="45.6555395" lon="9.9588681"><ele>191.33333333333331</ele><time>2026-04-12T15:47:41.387Z</time></trkpt><trkpt lat="45.6554996" lon="9.9587753"><ele>191.66666666666666</ele><time>2026-04-12T15:47:42.387Z</time></trkpt><trkpt lat="45.6554594" lon="9.9586798"><ele>192.0</ele><time>2026-04-12T15:47:43.391Z</time></trkpt><trkpt lat="45.6554187" lon="9.9585832"><ele>192.33333333333331</ele><time>2026-04-12T15:47:44.382Z</time></trkpt><trkpt lat="45.6553797" lon="9.9584914"><ele>192.66666666666666</ele><time>2026-04-12T15:47:45.399Z</time></trkpt><trkpt lat="45.6553455" lon="9.9584135"><ele>193.0</ele><time>2026-04-12T15:47:46.39Z</time></trkpt><trkpt lat="45.6552994" lon="9.9583"><ele>192.49999999999997</ele><time>2026-04-12T15:47:48.385Z</time></trkpt><trkpt lat="45.6552642" lon="9.9582141"><ele>192.0</ele><time>2026-04-12T15:47:50.384Z</time></trkpt><trkpt lat="45.6552322" lon="9.9581258"><ele>191.5</ele><time>2026-04-12T15:47:52.382Z</time></trkpt><trkpt lat="45.6552067" lon="9.9580397"><ele>191.0</ele><time>2026-04-12T15:47:54.398Z</time></trkpt><trkpt lat="45.6551764" lon="9.9579352"><ele>190.5</ele><time>2026-04-12T15:47:56.386Z</time></trkpt><trkpt lat="45.6551411" lon="9.9578422"><ele>190.0</ele><time>2026-04-12T15:47:58.39Z</time></trkpt><trkpt lat="45.6550786" lon="9.9576089"><ele>190.6</ele><time>2026-04-12T15:48:03.39Z</time></trkpt><trkpt lat="45.6550564" lon="9.9574623"><ele>191.2</ele><time>2026-04-12T15:48:05.38Z</time></trkpt><trkpt lat="45.6550356" lon="9.9573648"><ele>191.8</ele><time>2026-04-12T15:48:07.376Z</time></trkpt><trkpt lat="45.6550067" lon="9.9572846"><ele>192.4</ele><time>2026-04-12T15:48:42.38Z</time></trkpt><trkpt lat="45.6549811" lon="9.9570339"><ele>193.0</ele><time>2026-04-12T15:48:45.4Z</time></trkpt><trkpt lat="45.6549642" lon="9.956915"><ele>193.0</ele><time>2026-04-12T15:48:46.39Z</time></trkpt><trkpt lat="45.6549418" lon="9.9567896"><ele>193.0</ele><time>2026-04-12T15:48:47.382Z</time></trkpt><trkpt lat="45.6549176" lon="9.9566533"><ele>193.0</ele><time>2026-04-12T15:48:48.381Z</time></trkpt><trkpt lat="45.6548902" lon="9.9565025"><ele>193.0</ele><time>2026-04-12T15:48:49.388Z</time></trkpt><trkpt lat="45.6548606" lon="9.9563387"><ele>193.0</ele><time>2026-04-12T15:48:50.384Z</time></trkpt><trkpt lat="45.6548288" lon="9.9561791"><ele>193.0</ele><time>2026-04-12T15:48:51.392Z</time></trkpt><trkpt lat="45.6547956" lon="9.9560296"><ele>193.0</ele><time>2026-04-12T15:48:52.383Z</time></trkpt><trkpt lat="45.6547634" lon="9.9558821"><ele>193.0</ele><time>2026-04-12T15:48:53.391Z</time></trkpt><trkpt lat="45.6547316" lon="9.9557259"><ele>193.0</ele><time>2026-04-12T15:48:54.385Z</time></trkpt><trkpt lat="45.6546999" lon="9.955562"><ele>193.5</ele><time>2026-04-12T15:48:55.389Z</time></trkpt><trkpt lat="45.6546656" lon="9.9553889"><ele>194.0</ele><time>2026-04-12T15:48:56.392Z</time></trkpt><trkpt lat="45.6546317" lon="9.9552109"><ele>194.5</ele><time>2026-04-12T15:48:57.396Z</time></trkpt><trkpt lat="45.6545968" lon="9.955031"><ele>195.0</ele><time>2026-04-12T15:48:58.39Z</time></trkpt><trkpt lat="45.6545611" lon="9.9548494"><ele>195.75</ele><time>2026-04-12T15:48:59.391Z</time></trkpt><trkpt lat="45.6545238" lon="9.9546637"><ele>196.5</ele><time>2026-04-12T15:49:00.391Z</time></trkpt><trkpt lat="45.6544862" lon="9.9544729"><ele>197.25</ele><time>2026-04-12T15:49:01.389Z</time></trkpt><trkpt lat="45.6544484" lon="9.9542849"><ele>198.0</ele><time>2026-04-12T15:49:02.385Z</time></trkpt><trkpt lat="45.6544107" lon="9.9540965"><ele>199.66666666666669</ele><time>2026-04-12T15:49:03.379Z</time></trkpt><trkpt lat="45.654331" lon="9.9537189"><ele>201.33333333333334</ele><time>2026-04-12T15:49:05.391Z</time></trkpt><trkpt lat="45.6542912" lon="9.9535268"><ele>203.0</ele><time>2026-04-12T15:49:06.384Z</time></trkpt><trkpt lat="45.6542514" lon="9.9533336"><ele>203.0</ele><time>2026-04-12T15:49:07.39Z</time></trkpt><trkpt lat="45.6542127" lon="9.9531462"><ele>203.0</ele><time>2026-04-12T15:49:08.392Z</time></trkpt><trkpt lat="45.6541766" lon="9.9529668"><ele>203.0</ele><time>2026-04-12T15:49:09.389Z</time></trkpt><trkpt lat="45.654143" lon="9.9527996"><ele>203.0</ele><time>2026-04-12T15:49:10.39Z</time></trkpt><trkpt lat="45.654116" lon="9.9526484"><ele>203.66666666666669</ele><time>2026-04-12T15:49:11.391Z</time></trkpt><trkpt lat="45.6541119" lon="9.9525142"><ele>204.33333333333334</ele><time>2026-04-12T15:49:12.401Z</time></trkpt><trkpt lat="45.6541359" lon="9.952402"><ele>205.0</ele><time>2026-04-12T15:49:13.39Z</time></trkpt><trkpt lat="45.6541858" lon="9.9523032"><ele>205.66666666666669</ele><time>2026-04-12T15:49:14.393Z</time></trkpt><trkpt lat="45.6542457" lon="9.9522191"><ele>206.33333333333334</ele><time>2026-04-12T15:49:15.388Z</time></trkpt><trkpt lat="45.654284" lon="9.9521428"><ele>207.0</ele><time>2026-04-12T15:49:16.388Z</time></trkpt><trkpt lat="45.6542894" lon="9.9519977"><ele>207.0</ele><time>2026-04-12T15:49:18.383Z</time></trkpt><trkpt lat="45.6542498" lon="9.9519263"><ele>207.0</ele><time>2026-04-12T15:49:19.393Z</time></trkpt><trkpt lat="45.6541811" lon="9.9518632"><ele>207.0</ele><time>2026-04-12T15:49:20.381Z</time></trkpt><trkpt lat="45.654101" lon="9.9518067"><ele>207.0</ele><time>2026-04-12T15:49:21.407Z</time></trkpt><trkpt lat="45.654017" lon="9.9517489"><ele>207.0</ele><time>2026-04-12T15:49:22.388Z</time></trkpt><trkpt lat="45.6539391" lon="9.9516576"><ele>207.0</ele><time>2026-04-12T15:49:23.391Z</time></trkpt><trkpt lat="45.6538854" lon="9.9515298"><ele>208.0</ele><time>2026-04-12T15:49:24.389Z</time></trkpt><trkpt lat="45.6538257" lon="9.9511816"><ele>209.0</ele><time>2026-04-12T15:49:26.403Z</time></trkpt><trkpt lat="45.6537966" lon="9.9510026"><ele>210.0</ele><time>2026-04-12T15:49:27.389Z</time></trkpt><trkpt lat="45.6537607" lon="9.9508256"><ele>210.75</ele><time>2026-04-12T15:49:28.392Z</time></trkpt><trkpt lat="45.6537195" lon="9.9506502"><ele>211.5</ele><time>2026-04-12T15:49:29.385Z</time></trkpt><trkpt lat="45.6536745" lon="9.9504711"><ele>212.25</ele><time>2026-04-12T15:49:30.388Z</time></trkpt><trkpt lat="45.6536228" lon="9.950278"><ele>213.0</ele><time>2026-04-12T15:49:31.39Z</time></trkpt><trkpt lat="45.6535616" lon="9.9500737"><ele>213.0</ele><time>2026-04-12T15:49:32.385Z</time></trkpt><trkpt lat="45.6534925" lon="9.949873"><ele>213.0</ele><time>2026-04-12T15:49:33.402Z</time></trkpt><trkpt lat="45.653428" lon="9.9496663"><ele>213.0</ele><time>2026-04-12T15:49:34.389Z</time></trkpt><trkpt lat="45.6533658" lon="9.9494705"><ele>213.0</ele><time>2026-04-12T15:49:35.382Z</time></trkpt><trkpt lat="45.6533015" lon="9.9492665"><ele>213.0</ele><time>2026-04-12T15:49:36.388Z</time></trkpt><trkpt lat="45.6532364" lon="9.9490569"><ele>213.0</ele><time>2026-04-12T15:49:37.38Z</time></trkpt><trkpt lat="45.6531671" lon="9.9488386"><ele>212.33333333333331</ele><time>2026-04-12T15:49:38.381Z</time></trkpt><trkpt lat="45.6530971" lon="9.9486129"><ele>211.66666666666666</ele><time>2026-04-12T15:49:39.385Z</time></trkpt><trkpt lat="45.6530251" lon="9.9483845"><ele>211.0</ele><time>2026-04-12T15:49:40.389Z</time></trkpt><trkpt lat="45.6529547" lon="9.9481639"><ele>210.4</ele><time>2026-04-12T15:49:41.396Z</time></trkpt><trkpt lat="45.6528946" lon="9.9479608"><ele>209.8</ele><time>2026-04-12T15:49:42.386Z</time></trkpt><trkpt lat="45.6528517" lon="9.9477885"><ele>209.20000000000002</ele><time>2026-04-12T15:49:43.4Z</time></trkpt><trkpt lat="45.6528285" lon="9.9476614"><ele>208.60000000000002</ele><time>2026-04-12T15:49:44.38Z</time></trkpt><trkpt lat="45.6528185" lon="9.9475652"><ele>208.0</ele><time>2026-04-12T15:49:45.392Z</time></trkpt><trkpt lat="45.6528072" lon="9.9473683"><ele>207.5</ele><time>2026-04-12T15:49:47.379Z</time></trkpt><trkpt lat="45.652797" lon="9.9472494"><ele>207.0</ele><time>2026-04-12T15:49:48.4Z</time></trkpt><trkpt lat="45.6527773" lon="9.9471032"><ele>206.5</ele><time>2026-04-12T15:49:49.384Z</time></trkpt><trkpt lat="45.6527575" lon="9.9469259"><ele>206.0</ele><time>2026-04-12T15:49:50.395Z</time></trkpt><trkpt lat="45.6527411" lon="9.9467053"><ele>211.66666666666669</ele><time>2026-04-12T15:49:51.391Z</time></trkpt><trkpt lat="45.6527258" lon="9.9464529"><ele>217.33333333333331</ele><time>2026-04-12T15:49:52.384Z</time></trkpt><trkpt lat="45.6527028" lon="9.9461548"><ele>223.0</ele><time>2026-04-12T15:49:53.381Z</time></trkpt><trkpt lat="45.6526774" lon="9.9458368"><ele>223.0</ele><time>2026-04-12T15:49:54.381Z</time></trkpt><trkpt lat="45.6526478" lon="9.9455146"><ele>223.0</ele><time>2026-04-12T15:49:55.389Z</time></trkpt><trkpt lat="45.6526173" lon="9.9452029"><ele>223.0</ele><time>2026-04-12T15:49:56.382Z</time></trkpt><trkpt lat="45.6525776" lon="9.9448943"><ele>222.33333333333331</ele><time>2026-04-12T15:49:57.384Z</time></trkpt><trkpt lat="45.6525192" lon="9.9445881"><ele>221.66666666666669</ele><time>2026-04-12T15:49:58.389Z</time></trkpt><trkpt lat="45.6524389" lon="9.944286"><ele>221.0</ele><time>2026-04-12T15:49:59.376Z</time></trkpt><trkpt lat="45.6523526" lon="9.943991"><ele>219.33333333333334</ele><time>2026-04-12T15:50:00.389Z</time></trkpt><trkpt lat="45.65227" lon="9.9437094"><ele>217.66666666666669</ele><time>2026-04-12T15:50:01.375Z</time></trkpt><trkpt lat="45.6521927" lon="9.9434483"><ele>216.0</ele><time>2026-04-12T15:50:02.376Z</time></trkpt><trkpt lat="45.6521242" lon="9.9432005"><ele>215.33333333333331</ele><time>2026-04-12T15:50:03.379Z</time></trkpt><trkpt lat="45.6520636" lon="9.9429659"><ele>214.66666666666666</ele><time>2026-04-12T15:50:04.383Z</time></trkpt><trkpt lat="45.6520027" lon="9.9427324"><ele>214.0</ele><time>2026-04-12T15:50:05.391Z</time></trkpt><trkpt lat="45.6519416" lon="9.9424962"><ele>220.0</ele><time>2026-04-12T15:50:06.389Z</time></trkpt><trkpt lat="45.651822" lon="9.9420282"><ele>226.0</ele><time>2026-04-12T15:50:08.384Z</time></trkpt><trkpt lat="45.6517525" lon="9.9418033"><ele>224.66666666666666</ele><time>2026-04-12T15:50:09.378Z</time></trkpt><trkpt lat="45.6516712" lon="9.9415977"><ele>223.33333333333331</ele><time>2026-04-12T15:50:10.383Z</time></trkpt><trkpt lat="45.6515712" lon="9.9414063"><ele>222.0</ele><time>2026-04-12T15:50:11.385Z</time></trkpt><trkpt lat="45.6514474" lon="9.9412354"><ele>222.0</ele><time>2026-04-12T15:50:12.39Z</time></trkpt><trkpt lat="45.6512919" lon="9.941084"><ele>222.0</ele><time>2026-04-12T15:50:13.391Z</time></trkpt><trkpt lat="45.6511171" lon="9.9409557"><ele>222.0</ele><time>2026-04-12T15:50:14.391Z</time></trkpt><trkpt lat="45.6509302" lon="9.9408394"><ele>222.33333333333331</ele><time>2026-04-12T15:50:15.397Z</time></trkpt><trkpt lat="45.650739" lon="9.9407191"><ele>222.66666666666666</ele><time>2026-04-12T15:50:16.403Z</time></trkpt><trkpt lat="45.6505559" lon="9.9405883"><ele>223.0</ele><time>2026-04-12T15:50:17.403Z</time></trkpt><trkpt lat="45.6503767" lon="9.9404536"><ele>225.0</ele><time>2026-04-12T15:50:18.39Z</time></trkpt><trkpt lat="45.6502021" lon="9.9403225"><ele>227.0</ele><time>2026-04-12T15:50:19.387Z</time></trkpt><trkpt lat="45.6500334" lon="9.9401938"><ele>229.0</ele><time>2026-04-12T15:50:20.388Z</time></trkpt><trkpt lat="45.6498729" lon="9.9400736"><ele>227.0</ele><time>2026-04-12T15:50:21.395Z</time></trkpt><trkpt lat="45.6497191" lon="9.9399603"><ele>225.0</ele><time>2026-04-12T15:50:22.402Z</time></trkpt><trkpt lat="45.6495823" lon="9.9398543"><ele>223.0</ele><time>2026-04-12T15:50:23.383Z</time></trkpt><trkpt lat="45.6494679" lon="9.9397521"><ele>224.2</ele><time>2026-04-12T15:50:24.39Z</time></trkpt><trkpt lat="45.6493789" lon="9.9396514"><ele>225.4</ele><time>2026-04-12T15:50:25.391Z</time></trkpt><trkpt lat="45.64932" lon="9.9395438"><ele>226.59999999999997</ele><time>2026-04-12T15:50:26.392Z</time></trkpt><trkpt lat="45.649284" lon="9.9394393"><ele>227.79999999999998</ele><time>2026-04-12T15:50:27.389Z</time></trkpt><trkpt lat="45.6491746" lon="9.9392988"><ele>229.0</ele><time>2026-04-12T15:50:30.39Z</time></trkpt><trkpt lat="45.6491118" lon="9.9393197"><ele>229.0</ele><time>2026-04-12T15:50:31.392Z</time></trkpt><trkpt lat="45.6490362" lon="9.9393502"><ele>228.99999999999997</ele><time>2026-04-12T15:50:32.384Z</time></trkpt><trkpt lat="45.6489466" lon="9.9393564"><ele>228.99999999999997</ele><time>2026-04-12T15:50:33.409Z</time></trkpt><trkpt lat="45.64884" lon="9.9393223"><ele>229.0</ele><time>2026-04-12T15:50:34.395Z</time></trkpt><trkpt lat="45.6487223" lon="9.9392397"><ele>229.0</ele><time>2026-04-12T15:50:35.383Z</time></trkpt><trkpt lat="45.6485907" lon="9.9391308"><ele>228.75</ele><time>2026-04-12T15:50:36.387Z</time></trkpt><trkpt lat="45.6484691" lon="9.9390262"><ele>228.5</ele><time>2026-04-12T15:50:37.393Z</time></trkpt><trkpt lat="45.6483483" lon="9.9389275"><ele>228.25</ele><time>2026-04-12T15:50:38.382Z</time></trkpt><trkpt lat="45.6482236" lon="9.9388309"><ele>228.0</ele><time>2026-04-12T15:50:39.403Z</time></trkpt><trkpt lat="45.6480931" lon="9.9387376"><ele>228.0</ele><time>2026-04-12T15:50:40.386Z</time></trkpt><trkpt lat="45.6479638" lon="9.9386382"><ele>228.0</ele><time>2026-04-12T15:50:41.391Z</time></trkpt><trkpt lat="45.6478339" lon="9.9385388"><ele>228.0</ele><time>2026-04-12T15:50:42.392Z</time></trkpt><trkpt lat="45.647705" lon="9.9384436"><ele>228.0</ele><time>2026-04-12T15:50:43.38Z</time></trkpt><trkpt lat="45.6475801" lon="9.938352"><ele>227.25</ele><time>2026-04-12T15:50:44.405Z</time></trkpt><trkpt lat="45.6474612" lon="9.9382655"><ele>226.5</ele><time>2026-04-12T15:50:45.388Z</time></trkpt><trkpt lat="45.6473464" lon="9.9381793"><ele>225.75</ele><time>2026-04-12T15:50:46.387Z</time></trkpt><trkpt lat="45.6472354" lon="9.9380992"><ele>225.0</ele><time>2026-04-12T15:50:47.382Z</time></trkpt><trkpt lat="45.6471286" lon="9.9380216"><ele>223.0</ele><time>2026-04-12T15:50:48.389Z</time></trkpt><trkpt lat="45.6465275" lon="9.9375728"><ele>219.0</ele><time>2026-04-12T15:50:54.379Z</time></trkpt><trkpt lat="45.6438949" lon="9.9356382"><ele>219.0</ele><time>2026-04-12T15:51:32.379Z</time></trkpt><trkpt lat="45.6438222" lon="9.9355772"><ele>219.0</ele><time>2026-04-12T15:51:33.388Z</time></trkpt><trkpt lat="45.6437497" lon="9.9355221"><ele>219.0</ele><time>2026-04-12T15:51:34.389Z</time></trkpt><trkpt lat="45.6436811" lon="9.9354707"><ele>219.0</ele><time>2026-04-12T15:51:35.389Z</time></trkpt><trkpt lat="45.6436128" lon="9.9354239"><ele>219.0</ele><time>2026-04-12T15:51:36.383Z</time></trkpt><trkpt lat="45.6435427" lon="9.9353781"><ele>219.0</ele><time>2026-04-12T15:51:37.393Z</time></trkpt><trkpt lat="45.6434671" lon="9.9353321"><ele>219.0</ele><time>2026-04-12T15:51:38.382Z</time></trkpt><trkpt lat="45.6433818" lon="9.9352861"><ele>218.99999999999997</ele><time>2026-04-12T15:51:39.386Z</time></trkpt><trkpt lat="45.6432845" lon="9.9352342"><ele>218.99999999999997</ele><time>2026-04-12T15:51:40.392Z</time></trkpt><trkpt lat="45.6431805" lon="9.9351772"><ele>219.0</ele><time>2026-04-12T15:51:41.391Z</time></trkpt><trkpt lat="45.6430706" lon="9.9351252"><ele>219.0</ele><time>2026-04-12T15:51:42.39Z</time></trkpt><trkpt lat="45.6429586" lon="9.9350788"><ele>219.0</ele><time>2026-04-12T15:51:43.381Z</time></trkpt><trkpt lat="45.6428464" lon="9.9350361"><ele>218.99999999999997</ele><time>2026-04-12T15:51:44.387Z</time></trkpt><trkpt lat="45.642736" lon="9.9349996"><ele>218.99999999999997</ele><time>2026-04-12T15:51:45.391Z</time></trkpt><trkpt lat="45.6426313" lon="9.9349691"><ele>219.0</ele><time>2026-04-12T15:51:46.395Z</time></trkpt><trkpt lat="45.6425314" lon="9.9349443"><ele>219.0</ele><time>2026-04-12T15:51:47.385Z</time></trkpt><trkpt lat="45.6424366" lon="9.9349236"><ele>219.2</ele><time>2026-04-12T15:51:48.388Z</time></trkpt><trkpt lat="45.642345" lon="9.9349043"><ele>219.39999999999998</ele><time>2026-04-12T15:51:49.39Z</time></trkpt><trkpt lat="45.6422561" lon="9.9348847"><ele>219.6</ele><time>2026-04-12T15:51:50.384Z</time></trkpt><trkpt lat="45.6421063" lon="9.9348472"><ele>219.8</ele><time>2026-04-12T15:51:52.388Z</time></trkpt><trkpt lat="45.6420004" lon="9.9348188"><ele>220.0</ele><time>2026-04-12T15:51:54.385Z</time></trkpt><trkpt lat="45.6419085" lon="9.9347654"><ele>219.6</ele><time>2026-04-12T15:51:56.396Z</time></trkpt><trkpt lat="45.6417902" lon="9.934711"><ele>219.2</ele><time>2026-04-12T15:51:58.379Z</time></trkpt><trkpt lat="45.6417138" lon="9.9346977"><ele>218.8</ele><time>2026-04-12T15:51:59.391Z</time></trkpt><trkpt lat="45.6416278" lon="9.9346838"><ele>218.4</ele><time>2026-04-12T15:52:00.386Z</time></trkpt><trkpt lat="45.6415298" lon="9.9346658"><ele>218.0</ele><time>2026-04-12T15:52:01.394Z</time></trkpt><trkpt lat="45.6414139" lon="9.9346403"><ele>218.0</ele><time>2026-04-12T15:52:02.391Z</time></trkpt><trkpt lat="45.6412978" lon="9.9346078"><ele>218.0</ele><time>2026-04-12T15:52:03.385Z</time></trkpt><trkpt lat="45.6411966" lon="9.9345729"><ele>218.0</ele><time>2026-04-12T15:52:04.389Z</time></trkpt><trkpt lat="45.6411118" lon="9.9345442"><ele>218.0</ele><time>2026-04-12T15:52:05.397Z</time></trkpt><trkpt lat="45.6410421" lon="9.9345259"><ele>218.0</ele><time>2026-04-12T15:52:06.387Z</time></trkpt><trkpt lat="45.6409577" lon="9.934502"><ele>218.2</ele><time>2026-04-12T15:52:08.398Z</time></trkpt><trkpt lat="45.6408954" lon="9.9344808"><ele>218.4</ele><time>2026-04-12T15:52:12.387Z</time></trkpt><trkpt lat="45.6407518" lon="9.9344228"><ele>218.59999999999997</ele><time>2026-04-12T15:52:18.39Z</time></trkpt><trkpt lat="45.6406673" lon="9.9344007"><ele>218.79999999999998</ele><time>2026-04-12T15:52:20.389Z</time></trkpt><trkpt lat="45.6405817" lon="9.9343756"><ele>219.0</ele><time>2026-04-12T15:52:22.389Z</time></trkpt><trkpt lat="45.6404864" lon="9.9343505"><ele>219.0</ele><time>2026-04-12T15:52:24.383Z</time></trkpt><trkpt lat="45.6403172" lon="9.9343027"><ele>219.0</ele><time>2026-04-12T15:52:28.388Z</time></trkpt><trkpt lat="45.6402287" lon="9.9342717"><ele>219.0</ele><time>2026-04-12T15:52:30.398Z</time></trkpt><trkpt lat="45.6401555" lon="9.9342523"><ele>219.0</ele><time>2026-04-12T15:52:32.391Z</time></trkpt><trkpt lat="45.6400139" lon="9.9342184"><ele>218.6</ele><time>2026-04-12T15:52:36.389Z</time></trkpt><trkpt lat="45.6398931" lon="9.9341861"><ele>218.2</ele><time>2026-04-12T15:52:38.381Z</time></trkpt><trkpt lat="45.6398131" lon="9.9341604"><ele>217.79999999999998</ele><time>2026-04-12T15:52:39.395Z</time></trkpt><trkpt lat="45.639721" lon="9.9341258"><ele>217.39999999999998</ele><time>2026-04-12T15:52:40.398Z</time></trkpt><trkpt lat="45.6396292" lon="9.9340974"><ele>217.0</ele><time>2026-04-12T15:52:41.391Z</time></trkpt><trkpt lat="45.6395499" lon="9.9340733"><ele>216.83333333333331</ele><time>2026-04-12T15:52:42.389Z</time></trkpt><trkpt lat="45.6394528" lon="9.9340358"><ele>216.66666666666666</ele><time>2026-04-12T15:52:44.383Z</time></trkpt><trkpt lat="45.6393824" lon="9.9340085"><ele>216.5</ele><time>2026-04-12T15:52:46.389Z</time></trkpt><trkpt lat="45.6393091" lon="9.9339774"><ele>216.33333333333331</ele><time>2026-04-12T15:52:48.382Z</time></trkpt><trkpt lat="45.6392362" lon="9.9339507"><ele>216.16666666666666</ele><time>2026-04-12T15:52:50.389Z</time></trkpt><trkpt lat="45.6391737" lon="9.9339328"><ele>216.0</ele><time>2026-04-12T15:52:52.391Z</time></trkpt><trkpt lat="45.6391114" lon="9.9338974"><ele>216.0</ele><time>2026-04-12T15:52:54.383Z</time></trkpt><trkpt lat="45.6389418" lon="9.9337559"><ele>216.00000000000003</ele><time>2026-04-12T15:52:58.388Z</time></trkpt><trkpt lat="45.6388313" lon="9.933766"><ele>216.00000000000003</ele><time>2026-04-12T15:53:00.392Z</time></trkpt><trkpt lat="45.6387648" lon="9.9337989"><ele>216.0</ele><time>2026-04-12T15:53:01.389Z</time></trkpt><trkpt lat="45.638701" lon="9.9338129"><ele>216.0</ele><time>2026-04-12T15:53:02.382Z</time></trkpt><trkpt lat="45.6386302" lon="9.9338079"><ele>216.16666666666666</ele><time>2026-04-12T15:53:03.382Z</time></trkpt><trkpt lat="45.6385524" lon="9.9337829"><ele>216.33333333333331</ele><time>2026-04-12T15:53:04.391Z</time></trkpt><trkpt lat="45.6384769" lon="9.9337524"><ele>216.5</ele><time>2026-04-12T15:53:05.39Z</time></trkpt><trkpt lat="45.638399" lon="9.9337194"><ele>216.66666666666666</ele><time>2026-04-12T15:53:06.382Z</time></trkpt><trkpt lat="45.6383174" lon="9.9336885"><ele>216.83333333333331</ele><time>2026-04-12T15:53:07.391Z</time></trkpt><trkpt lat="45.6382321" lon="9.9336659"><ele>217.0</ele><time>2026-04-12T15:53:08.399Z</time></trkpt><trkpt lat="45.6381423" lon="9.9336419"><ele>217.0</ele><time>2026-04-12T15:53:09.389Z</time></trkpt><trkpt lat="45.6380484" lon="9.9336103"><ele>217.0</ele><time>2026-04-12T15:53:10.391Z</time></trkpt><trkpt lat="45.6379543" lon="9.9335839"><ele>217.0</ele><time>2026-04-12T15:53:11.39Z</time></trkpt><trkpt lat="45.6378582" lon="9.9335552"><ele>217.0</ele><time>2026-04-12T15:53:12.391Z</time></trkpt><trkpt lat="45.637761" lon="9.933525"><ele>217.0</ele><time>2026-04-12T15:53:13.386Z</time></trkpt><trkpt lat="45.6376646" lon="9.9334945"><ele>217.0</ele><time>2026-04-12T15:53:14.382Z</time></trkpt><trkpt lat="45.6375724" lon="9.9334645"><ele>217.0</ele><time>2026-04-12T15:53:15.382Z</time></trkpt><trkpt lat="45.6373989" lon="9.9334127"><ele>217.0</ele><time>2026-04-12T15:53:17.389Z</time></trkpt><trkpt lat="45.6373214" lon="9.9333888"><ele>217.0</ele><time>2026-04-12T15:53:18.39Z</time></trkpt><trkpt lat="45.6372435" lon="9.9333647"><ele>217.0</ele><time>2026-04-12T15:53:19.382Z</time></trkpt><trkpt lat="45.6371688" lon="9.9333404"><ele>216.66666666666666</ele><time>2026-04-12T15:53:20.385Z</time></trkpt><trkpt lat="45.6370966" lon="9.9333169"><ele>216.33333333333331</ele><time>2026-04-12T15:53:21.386Z</time></trkpt><trkpt lat="45.6370285" lon="9.9332918"><ele>216.0</ele><time>2026-04-12T15:53:22.379Z</time></trkpt><trkpt lat="45.6369614" lon="9.9332675"><ele>215.66666666666669</ele><time>2026-04-12T15:53:23.381Z</time></trkpt><trkpt lat="45.636897" lon="9.9332487"><ele>215.33333333333334</ele><time>2026-04-12T15:53:24.386Z</time></trkpt><trkpt lat="45.6368344" lon="9.9332302"><ele>215.0</ele><time>2026-04-12T15:53:25.385Z</time></trkpt><trkpt lat="45.6367122" lon="9.9331919"><ele>214.85714285714286</ele><time>2026-04-12T15:53:27.386Z</time></trkpt><trkpt lat="45.6366426" lon="9.9331717"><ele>214.71428571428572</ele><time>2026-04-12T15:53:28.389Z</time></trkpt><trkpt lat="45.6365668" lon="9.9331475"><ele>214.57142857142858</ele><time>2026-04-12T15:53:29.38Z</time></trkpt><trkpt lat="45.6364899" lon="9.9331196"><ele>214.42857142857144</ele><time>2026-04-12T15:53:30.389Z</time></trkpt><trkpt lat="45.636416" lon="9.9330973"><ele>214.28571428571428</ele><time>2026-04-12T15:53:31.378Z</time></trkpt><trkpt lat="45.6363437" lon="9.9330776"><ele>214.14285714285717</ele><time>2026-04-12T15:53:32.398Z</time></trkpt><trkpt lat="45.6362756" lon="9.9330514"><ele>214.0</ele><time>2026-04-12T15:53:33.399Z</time></trkpt><trkpt lat="45.6362095" lon="9.9330295"><ele>214.0</ele><time>2026-04-12T15:53:34.39Z</time></trkpt><trkpt lat="45.6361471" lon="9.9330114"><ele>214.0</ele><time>2026-04-12T15:53:35.391Z</time></trkpt><trkpt lat="45.6360385" lon="9.932981"><ele>214.0</ele><time>2026-04-12T15:53:37.391Z</time></trkpt><trkpt lat="45.6358207" lon="9.9329684"><ele>214.0</ele><time>2026-04-12T15:54:43.381Z</time></trkpt><trkpt lat="45.635758" lon="9.9329786"><ele>214.16666666666666</ele><time>2026-04-12T15:54:44.389Z</time></trkpt><trkpt lat="45.6356888" lon="9.9329933"><ele>214.33333333333331</ele><time>2026-04-12T15:54:45.384Z</time></trkpt><trkpt lat="45.635626" lon="9.9330168"><ele>214.5</ele><time>2026-04-12T15:54:46.385Z</time></trkpt><trkpt lat="45.6354986" lon="9.9330191"><ele>214.66666666666669</ele><time>2026-04-12T15:54:48.391Z</time></trkpt><trkpt lat="45.6354316" lon="9.9329831"><ele>214.83333333333334</ele><time>2026-04-12T15:54:49.39Z</time></trkpt><trkpt lat="45.6353492" lon="9.9329266"><ele>215.0</ele><time>2026-04-12T15:54:50.388Z</time></trkpt><trkpt lat="45.6352504" lon="9.9328515"><ele>214.5</ele><time>2026-04-12T15:54:51.383Z</time></trkpt><trkpt lat="45.6351386" lon="9.9327695"><ele>214.0</ele><time>2026-04-12T15:54:52.391Z</time></trkpt><trkpt lat="45.6350098" lon="9.9326769"><ele>213.5</ele><time>2026-04-12T15:54:53.382Z</time></trkpt><trkpt lat="45.6348748" lon="9.9325894"><ele>213.0</ele><time>2026-04-12T15:54:54.391Z</time></trkpt><trkpt lat="45.634733" lon="9.9325009"><ele>213.0</ele><time>2026-04-12T15:54:55.39Z</time></trkpt><trkpt lat="45.6345884" lon="9.9324102"><ele>213.0</ele><time>2026-04-12T15:54:56.394Z</time></trkpt><trkpt lat="45.6344401" lon="9.9323207"><ele>213.0</ele><time>2026-04-12T15:54:57.387Z</time></trkpt><trkpt lat="45.6342937" lon="9.9322419"><ele>212.0</ele><time>2026-04-12T15:54:58.389Z</time></trkpt><trkpt lat="45.6341479" lon="9.9321744"><ele>211.0</ele><time>2026-04-12T15:54:59.385Z</time></trkpt><trkpt lat="45.6339935" lon="9.9321217"><ele>210.0</ele><time>2026-04-12T15:55:00.38Z</time></trkpt><trkpt lat="45.6338384" lon="9.9320868"><ele>210.0</ele><time>2026-04-12T15:55:01.391Z</time></trkpt><trkpt lat="45.6336924" lon="9.9320571"><ele>210.0</ele><time>2026-04-12T15:55:02.381Z</time></trkpt><trkpt lat="45.6335458" lon="9.9320245"><ele>210.0</ele><time>2026-04-12T15:55:03.388Z</time></trkpt><trkpt lat="45.6334036" lon="9.9319892"><ele>210.0</ele><time>2026-04-12T15:55:04.383Z</time></trkpt><trkpt lat="45.6332645" lon="9.9319504"><ele>210.0</ele><time>2026-04-12T15:55:05.386Z</time></trkpt><trkpt lat="45.6331204" lon="9.9319104"><ele>210.0</ele><time>2026-04-12T15:55:06.38Z</time></trkpt><trkpt lat="45.6329752" lon="9.9318721"><ele>210.0</ele><time>2026-04-12T15:55:07.39Z</time></trkpt><trkpt lat="45.6328264" lon="9.9318339"><ele>210.0</ele><time>2026-04-12T15:55:08.381Z</time></trkpt><trkpt lat="45.6326792" lon="9.931795"><ele>210.0</ele><time>2026-04-12T15:55:09.387Z</time></trkpt><trkpt lat="45.6325338" lon="9.931757"><ele>210.0</ele><time>2026-04-12T15:55:10.385Z</time></trkpt><trkpt lat="45.6323914" lon="9.9317198"><ele>210.0</ele><time>2026-04-12T15:55:11.389Z</time></trkpt><trkpt lat="45.6322532" lon="9.9316852"><ele>210.0</ele><time>2026-04-12T15:55:12.388Z</time></trkpt><trkpt lat="45.6321218" lon="9.9316495"><ele>210.25</ele><time>2026-04-12T15:55:13.385Z</time></trkpt><trkpt lat="45.6319967" lon="9.9316141"><ele>210.5</ele><time>2026-04-12T15:55:14.388Z</time></trkpt><trkpt lat="45.6318748" lon="9.9315787"><ele>210.75</ele><time>2026-04-12T15:55:15.391Z</time></trkpt><trkpt lat="45.6317557" lon="9.9315449"><ele>211.0</ele><time>2026-04-12T15:55:16.382Z</time></trkpt><trkpt lat="45.6316406" lon="9.931513"><ele>210.60000000000002</ele><time>2026-04-12T15:55:17.391Z</time></trkpt><trkpt lat="45.6315271" lon="9.9314793"><ele>210.2</ele><time>2026-04-12T15:55:18.389Z</time></trkpt><trkpt lat="45.6314168" lon="9.9314473"><ele>209.8</ele><time>2026-04-12T15:55:19.387Z</time></trkpt><trkpt lat="45.6313108" lon="9.9314196"><ele>209.39999999999998</ele><time>2026-04-12T15:55:20.393Z</time></trkpt><trkpt lat="45.6312085" lon="9.9313945"><ele>209.0</ele><time>2026-04-12T15:55:21.384Z</time></trkpt><trkpt lat="45.6311093" lon="9.9313718"><ele>208.79999999999998</ele><time>2026-04-12T15:55:22.381Z</time></trkpt><trkpt lat="45.631013" lon="9.9313531"><ele>208.6</ele><time>2026-04-12T15:55:23.39Z</time></trkpt><trkpt lat="45.6309164" lon="9.9313333"><ele>208.4</ele><time>2026-04-12T15:55:24.388Z</time></trkpt><trkpt lat="45.6308174" lon="9.9313092"><ele>208.2</ele><time>2026-04-12T15:55:25.39Z</time></trkpt><trkpt lat="45.6307143" lon="9.9312809"><ele>208.0</ele><time>2026-04-12T15:55:26.392Z</time></trkpt><trkpt lat="45.6306084" lon="9.9312482"><ele>208.0</ele><time>2026-04-12T15:55:27.392Z</time></trkpt><trkpt lat="45.630498" lon="9.9312105"><ele>208.0</ele><time>2026-04-12T15:55:28.39Z</time></trkpt><trkpt lat="45.6303849" lon="9.9311731"><ele>208.0</ele><time>2026-04-12T15:55:29.377Z</time></trkpt><trkpt lat="45.6302623" lon="9.9311353"><ele>208.0</ele><time>2026-04-12T15:55:30.392Z</time></trkpt><trkpt lat="45.6301375" lon="9.9311046"><ele>207.5</ele><time>2026-04-12T15:55:31.386Z</time></trkpt><trkpt lat="45.6300155" lon="9.9310718"><ele>207.0</ele><time>2026-04-12T15:55:32.39Z</time></trkpt><trkpt lat="45.6298953" lon="9.9310384"><ele>206.5</ele><time>2026-04-12T15:55:33.385Z</time></trkpt><trkpt lat="45.6297773" lon="9.9310056"><ele>206.0</ele><time>2026-04-12T15:55:34.381Z</time></trkpt><trkpt lat="45.6296625" lon="9.9309696"><ele>206.0</ele><time>2026-04-12T15:55:35.379Z</time></trkpt><trkpt lat="45.6295519" lon="9.9309352"><ele>206.0</ele><time>2026-04-12T15:55:36.391Z</time></trkpt><trkpt lat="45.6294444" lon="9.9309037"><ele>206.0</ele><time>2026-04-12T15:55:37.391Z</time></trkpt><trkpt lat="45.6293365" lon="9.9308693"><ele>206.0</ele><time>2026-04-12T15:55:38.388Z</time></trkpt><trkpt lat="45.6292309" lon="9.9308356"><ele>206.0</ele><time>2026-04-12T15:55:39.388Z</time></trkpt><trkpt lat="45.6291272" lon="9.9308033"><ele>206.0</ele><time>2026-04-12T15:55:40.39Z</time></trkpt><trkpt lat="45.6290284" lon="9.9307728"><ele>206.0</ele><time>2026-04-12T15:55:41.39Z</time></trkpt><trkpt lat="45.6289307" lon="9.9307426"><ele>206.0</ele><time>2026-04-12T15:55:42.382Z</time></trkpt><trkpt lat="45.6288318" lon="9.9307147"><ele>206.0</ele><time>2026-04-12T15:55:43.387Z</time></trkpt><trkpt lat="45.6287331" lon="9.9306851"><ele>206.0</ele><time>2026-04-12T15:55:44.389Z</time></trkpt><trkpt lat="45.6286354" lon="9.9306534"><ele>205.75</ele><time>2026-04-12T15:55:45.381Z</time></trkpt><trkpt lat="45.628535" lon="9.9306199"><ele>205.5</ele><time>2026-04-12T15:55:46.389Z</time></trkpt><trkpt lat="45.6284267" lon="9.9305831"><ele>205.25</ele><time>2026-04-12T15:55:47.39Z</time></trkpt><trkpt lat="45.6283108" lon="9.930545"><ele>205.0</ele><time>2026-04-12T15:55:48.381Z</time></trkpt><trkpt lat="45.6281896" lon="9.930508"><ele>205.0</ele><time>2026-04-12T15:55:49.391Z</time></trkpt><trkpt lat="45.6280676" lon="9.9304719"><ele>205.0</ele><time>2026-04-12T15:55:50.4Z</time></trkpt><trkpt lat="45.6279487" lon="9.930441"><ele>205.0</ele><time>2026-04-12T15:55:51.394Z</time></trkpt><trkpt lat="45.6278344" lon="9.9304132"><ele>205.0</ele><time>2026-04-12T15:55:52.384Z</time></trkpt><trkpt lat="45.6277268" lon="9.9303864"><ele>204.6</ele><time>2026-04-12T15:55:53.385Z</time></trkpt><trkpt lat="45.6276249" lon="9.930354"><ele>204.2</ele><time>2026-04-12T15:55:54.39Z</time></trkpt><trkpt lat="45.6275332" lon="9.9303124"><ele>203.8</ele><time>2026-04-12T15:55:55.381Z</time></trkpt><trkpt lat="45.6274576" lon="9.9302517"><ele>203.4</ele><time>2026-04-12T15:55:56.385Z</time></trkpt><trkpt lat="45.6274013" lon="9.9301641"><ele>203.0</ele><time>2026-04-12T15:55:57.386Z</time></trkpt><trkpt lat="45.6273677" lon="9.9300464"><ele>202.83333333333334</ele><time>2026-04-12T15:55:58.388Z</time></trkpt><trkpt lat="45.6273585" lon="9.9299211"><ele>202.66666666666669</ele><time>2026-04-12T15:55:59.387Z</time></trkpt><trkpt lat="45.6273577" lon="9.9298057"><ele>202.5</ele><time>2026-04-12T15:56:00.389Z</time></trkpt><trkpt lat="45.6273405" lon="9.9296966"><ele>202.33333333333331</ele><time>2026-04-12T15:56:01.386Z</time></trkpt><trkpt lat="45.6273012" lon="9.929608"><ele>202.16666666666666</ele><time>2026-04-12T15:56:02.384Z</time></trkpt><trkpt lat="45.6272444" lon="9.9295521"><ele>202.0</ele><time>2026-04-12T15:56:03.392Z</time></trkpt><trkpt lat="45.6271722" lon="9.9295389"><ele>201.99999999999997</ele><time>2026-04-12T15:56:04.39Z</time></trkpt><trkpt lat="45.6271015" lon="9.9295627"><ele>202.0</ele><time>2026-04-12T15:56:05.384Z</time></trkpt><trkpt lat="45.6270329" lon="9.9296051"><ele>202.0</ele><time>2026-04-12T15:56:06.384Z</time></trkpt><trkpt lat="45.6269706" lon="9.9296819"><ele>202.0</ele><time>2026-04-12T15:56:07.38Z</time></trkpt><trkpt lat="45.6269143" lon="9.9297875"><ele>201.99999999999997</ele><time>2026-04-12T15:56:08.387Z</time></trkpt><trkpt lat="45.6268538" lon="9.9299005"><ele>202.0</ele><time>2026-04-12T15:56:09.387Z</time></trkpt><trkpt lat="45.6267755" lon="9.9299991"><ele>202.2</ele><time>2026-04-12T15:56:10.391Z</time></trkpt><trkpt lat="45.6266856" lon="9.9300592"><ele>202.39999999999998</ele><time>2026-04-12T15:56:11.393Z</time></trkpt><trkpt lat="45.6265786" lon="9.9300621"><ele>202.60000000000002</ele><time>2026-04-12T15:56:12.389Z</time></trkpt><trkpt lat="45.6264675" lon="9.9300202"><ele>202.8</ele><time>2026-04-12T15:56:13.391Z</time></trkpt><trkpt lat="45.6263503" lon="9.9299662"><ele>203.0</ele><time>2026-04-12T15:56:14.383Z</time></trkpt><trkpt lat="45.6262224" lon="9.9299101"><ele>203.25</ele><time>2026-04-12T15:56:15.388Z</time></trkpt><trkpt lat="45.6260869" lon="9.9298667"><ele>203.5</ele><time>2026-04-12T15:56:16.388Z</time></trkpt><trkpt lat="45.6259431" lon="9.9298292"><ele>203.75</ele><time>2026-04-12T15:56:17.384Z</time></trkpt><trkpt lat="45.6257944" lon="9.9298029"><ele>204.0</ele><time>2026-04-12T15:56:18.405Z</time></trkpt><trkpt lat="45.6256506" lon="9.9297758"><ele>204.0</ele><time>2026-04-12T15:56:19.391Z</time></trkpt><trkpt lat="45.6255104" lon="9.9297527"><ele>204.0</ele><time>2026-04-12T15:56:20.404Z</time></trkpt><trkpt lat="45.625378" lon="9.9297307"><ele>204.0</ele><time>2026-04-12T15:56:21.391Z</time></trkpt><trkpt lat="45.6252507" lon="9.9297056"><ele>204.0</ele><time>2026-04-12T15:56:22.405Z</time></trkpt><trkpt lat="45.6251239" lon="9.92968"><ele>204.0</ele><time>2026-04-12T15:56:23.386Z</time></trkpt><trkpt lat="45.6249944" lon="9.9296558"><ele>204.0</ele><time>2026-04-12T15:56:24.393Z</time></trkpt><trkpt lat="45.6248624" lon="9.9296321"><ele>204.0</ele><time>2026-04-12T15:56:25.391Z</time></trkpt><trkpt lat="45.6247286" lon="9.9296087"><ele>204.0</ele><time>2026-04-12T15:56:26.389Z</time></trkpt><trkpt lat="45.6245944" lon="9.9295824"><ele>203.5</ele><time>2026-04-12T15:56:27.389Z</time></trkpt><trkpt lat="45.6244604" lon="9.9295519"><ele>203.0</ele><time>2026-04-12T15:56:28.398Z</time></trkpt><trkpt lat="45.6243259" lon="9.929515"><ele>202.5</ele><time>2026-04-12T15:56:29.39Z</time></trkpt><trkpt lat="45.6241913" lon="9.9294675"><ele>202.0</ele><time>2026-04-12T15:56:30.391Z</time></trkpt><trkpt lat="45.6240578" lon="9.9294093"><ele>202.0</ele><time>2026-04-12T15:56:31.387Z</time></trkpt><trkpt lat="45.623927" lon="9.9293391"><ele>202.0</ele><time>2026-04-12T15:56:32.387Z</time></trkpt><trkpt lat="45.6237991" lon="9.929253"><ele>202.0</ele><time>2026-04-12T15:56:33.406Z</time></trkpt><trkpt lat="45.6236712" lon="9.929149"><ele>202.0</ele><time>2026-04-12T15:56:34.384Z</time></trkpt><trkpt lat="45.6235414" lon="9.929032"><ele>201.33333333333331</ele><time>2026-04-12T15:56:35.388Z</time></trkpt><trkpt lat="45.6234129" lon="9.9289146"><ele>200.66666666666669</ele><time>2026-04-12T15:56:36.407Z</time></trkpt><trkpt lat="45.6232854" lon="9.9287969"><ele>200.0</ele><time>2026-04-12T15:56:37.384Z</time></trkpt><trkpt lat="45.6231598" lon="9.9286792"><ele>200.0</ele><time>2026-04-12T15:56:38.407Z</time></trkpt><trkpt lat="45.6230347" lon="9.9285661"><ele>200.0</ele><time>2026-04-12T15:56:39.38Z</time></trkpt><trkpt lat="45.6229137" lon="9.9284532"><ele>200.0</ele><time>2026-04-12T15:56:40.389Z</time></trkpt><trkpt lat="45.6227901" lon="9.9283402"><ele>200.0</ele><time>2026-04-12T15:56:41.393Z</time></trkpt><trkpt lat="45.6226701" lon="9.9282269"><ele>200.0</ele><time>2026-04-12T15:56:42.39Z</time></trkpt><trkpt lat="45.6225511" lon="9.9281141"><ele>200.0</ele><time>2026-04-12T15:56:43.385Z</time></trkpt><trkpt lat="45.6224323" lon="9.9280018"><ele>200.0</ele><time>2026-04-12T15:56:44.387Z</time></trkpt><trkpt lat="45.6223125" lon="9.9278928"><ele>200.0</ele><time>2026-04-12T15:56:45.391Z</time></trkpt><trkpt lat="45.6221936" lon="9.9277828"><ele>200.0</ele><time>2026-04-12T15:56:46.384Z</time></trkpt><trkpt lat="45.6220738" lon="9.927672"><ele>200.0</ele><time>2026-04-12T15:56:47.393Z</time></trkpt><trkpt lat="45.6219506" lon="9.9275648"><ele>200.0</ele><time>2026-04-12T15:56:48.39Z</time></trkpt><trkpt lat="45.6218268" lon="9.9274588"><ele>200.0</ele><time>2026-04-12T15:56:49.402Z</time></trkpt><trkpt lat="45.6217011" lon="9.9273526"><ele>200.25</ele><time>2026-04-12T15:56:50.384Z</time></trkpt><trkpt lat="45.6215733" lon="9.927249"><ele>200.5</ele><time>2026-04-12T15:56:51.39Z</time></trkpt><trkpt lat="45.621444" lon="9.9271461"><ele>200.75</ele><time>2026-04-12T15:56:52.391Z</time></trkpt><trkpt lat="45.6213154" lon="9.9270431"><ele>201.0</ele><time>2026-04-12T15:56:53.39Z</time></trkpt><trkpt lat="45.6211911" lon="9.926944"><ele>201.0</ele><time>2026-04-12T15:56:54.393Z</time></trkpt><trkpt lat="45.6210726" lon="9.9268507"><ele>201.0</ele><time>2026-04-12T15:56:55.384Z</time></trkpt><trkpt lat="45.6209557" lon="9.926762"><ele>201.0</ele><time>2026-04-12T15:56:56.389Z</time></trkpt><trkpt lat="45.6208403" lon="9.9266673"><ele>201.0</ele><time>2026-04-12T15:56:57.382Z</time></trkpt><trkpt lat="45.6207267" lon="9.9265723"><ele>201.0</ele><time>2026-04-12T15:56:58.386Z</time></trkpt><trkpt lat="45.6206148" lon="9.926477"><ele>201.0</ele><time>2026-04-12T15:56:59.391Z</time></trkpt><trkpt lat="45.6205069" lon="9.9263891"><ele>201.0</ele><time>2026-04-12T15:57:00.387Z</time></trkpt><trkpt lat="45.6204035" lon="9.9263068"><ele>201.0</ele><time>2026-04-12T15:57:01.387Z</time></trkpt><trkpt lat="45.6203071" lon="9.9262294"><ele>201.20000000000002</ele><time>2026-04-12T15:57:02.39Z</time></trkpt><trkpt lat="45.6202149" lon="9.9261522"><ele>201.4</ele><time>2026-04-12T15:57:03.387Z</time></trkpt><trkpt lat="45.6201267" lon="9.9260735"><ele>201.6</ele><time>2026-04-12T15:57:04.382Z</time></trkpt><trkpt lat="45.6200474" lon="9.9259914"><ele>201.8</ele><time>2026-04-12T15:57:05.389Z</time></trkpt><trkpt lat="45.6199859" lon="9.9259162"><ele>202.0</ele><time>2026-04-12T15:57:06.387Z</time></trkpt><trkpt lat="45.6199326" lon="9.9258081"><ele>202.0</ele><time>2026-04-12T15:57:08.383Z</time></trkpt><trkpt lat="45.6199152" lon="9.9256961"><ele>202.0</ele><time>2026-04-12T15:57:12.391Z</time></trkpt><trkpt lat="45.6198473" lon="9.925513"><ele>202.0</ele><time>2026-04-12T15:57:14.391Z</time></trkpt><trkpt lat="45.6197878" lon="9.9254175"><ele>202.0</ele><time>2026-04-12T15:57:15.39Z</time></trkpt><trkpt lat="45.6197255" lon="9.9253291"><ele>202.0</ele><time>2026-04-12T15:57:16.391Z</time></trkpt><trkpt lat="45.6196765" lon="9.9252404"><ele>201.99999999999997</ele><time>2026-04-12T15:57:17.39Z</time></trkpt><trkpt lat="45.6196487" lon="9.925142"><ele>202.0</ele><time>2026-04-12T15:57:18.404Z</time></trkpt><trkpt lat="45.6196403" lon="9.9250266"><ele>202.0</ele><time>2026-04-12T15:57:19.39Z</time></trkpt><trkpt lat="45.6196422" lon="9.924907"><ele>202.0</ele><time>2026-04-12T15:57:20.389Z</time></trkpt><trkpt lat="45.6196552" lon="9.9247931"><ele>201.99999999999997</ele><time>2026-04-12T15:57:21.384Z</time></trkpt><trkpt lat="45.619672" lon="9.924686"><ele>202.0</ele><time>2026-04-12T15:57:22.393Z</time></trkpt><trkpt lat="45.6196835" lon="9.9245763"><ele>201.99999999999997</ele><time>2026-04-12T15:57:23.378Z</time></trkpt><trkpt lat="45.6196945" lon="9.9244704"><ele>202.0</ele><time>2026-04-12T15:57:24.394Z</time></trkpt><trkpt lat="45.6197101" lon="9.9243694"><ele>202.0</ele><time>2026-04-12T15:57:25.382Z</time></trkpt><trkpt lat="45.6197297" lon="9.9242716"><ele>202.0</ele><time>2026-04-12T15:57:26.394Z</time></trkpt><trkpt lat="45.619748" lon="9.9241701"><ele>201.99999999999997</ele><time>2026-04-12T15:57:27.387Z</time></trkpt><trkpt lat="45.6197666" lon="9.9240507"><ele>202.0</ele><time>2026-04-12T15:57:28.388Z</time></trkpt><trkpt lat="45.6197866" lon="9.9239103"><ele>201.6</ele><time>2026-04-12T15:57:29.391Z</time></trkpt><trkpt lat="45.6198028" lon="9.9237566"><ele>201.2</ele><time>2026-04-12T15:57:30.389Z</time></trkpt><trkpt lat="45.6198064" lon="9.9236045"><ele>200.8</ele><time>2026-04-12T15:57:31.388Z</time></trkpt><trkpt lat="45.619795" lon="9.9234548"><ele>200.4</ele><time>2026-04-12T15:57:32.383Z</time></trkpt><trkpt lat="45.6197694" lon="9.9233171"><ele>200.0</ele><time>2026-04-12T15:57:33.389Z</time></trkpt><trkpt lat="45.6197322" lon="9.9231885"><ele>199.8</ele><time>2026-04-12T15:57:34.387Z</time></trkpt><trkpt lat="45.6196882" lon="9.9230618"><ele>199.6</ele><time>2026-04-12T15:57:35.387Z</time></trkpt><trkpt lat="45.6196394" lon="9.9229325"><ele>199.39999999999998</ele><time>2026-04-12T15:57:36.386Z</time></trkpt><trkpt lat="45.619581" lon="9.922812"><ele>199.2</ele><time>2026-04-12T15:57:37.391Z</time></trkpt><trkpt lat="45.6195126" lon="9.9226882"><ele>199.0</ele><time>2026-04-12T15:57:38.383Z</time></trkpt><trkpt lat="45.6194298" lon="9.922566"><ele>198.5</ele><time>2026-04-12T15:57:39.382Z</time></trkpt><trkpt lat="45.619332" lon="9.9224552"><ele>198.0</ele><time>2026-04-12T15:57:40.391Z</time></trkpt><trkpt lat="45.6192238" lon="9.9223561"><ele>197.5</ele><time>2026-04-12T15:57:41.387Z</time></trkpt><trkpt lat="45.6191128" lon="9.9222723"><ele>197.0</ele><time>2026-04-12T15:57:42.387Z</time></trkpt><trkpt lat="45.6190035" lon="9.9221851"><ele>197.0</ele><time>2026-04-12T15:57:43.391Z</time></trkpt><trkpt lat="45.6189054" lon="9.9220851"><ele>197.0</ele><time>2026-04-12T15:57:44.394Z</time></trkpt><trkpt lat="45.6188203" lon="9.9219617"><ele>197.0</ele><time>2026-04-12T15:57:45.385Z</time></trkpt><trkpt lat="45.6187484" lon="9.9218183"><ele>197.0</ele><time>2026-04-12T15:57:46.39Z</time></trkpt><trkpt lat="45.6186882" lon="9.9216505"><ele>196.5</ele><time>2026-04-12T15:57:47.391Z</time></trkpt><trkpt lat="45.6186463" lon="9.921468"><ele>196.0</ele><time>2026-04-12T15:57:48.385Z</time></trkpt><trkpt lat="45.6186271" lon="9.921275"><ele>195.5</ele><time>2026-04-12T15:57:49.391Z</time></trkpt><trkpt lat="45.6186329" lon="9.9210676"><ele>195.0</ele><time>2026-04-12T15:57:50.389Z</time></trkpt><trkpt lat="45.6186613" lon="9.9208536"><ele>195.0</ele><time>2026-04-12T15:57:51.386Z</time></trkpt><trkpt lat="45.6187196" lon="9.9206315"><ele>195.0</ele><time>2026-04-12T15:57:52.38Z</time></trkpt><trkpt lat="45.618804" lon="9.9203936"><ele>195.0</ele><time>2026-04-12T15:57:53.39Z</time></trkpt><trkpt lat="45.618883" lon="9.9201487"><ele>195.66666666666669</ele><time>2026-04-12T15:57:54.387Z</time></trkpt><trkpt lat="45.618947" lon="9.9198978"><ele>196.33333333333334</ele><time>2026-04-12T15:57:55.389Z</time></trkpt><trkpt lat="45.61901" lon="9.9196456"><ele>197.0</ele><time>2026-04-12T15:57:56.392Z</time></trkpt><trkpt lat="45.6190682" lon="9.9193982"><ele>197.33333333333334</ele><time>2026-04-12T15:57:57.38Z</time></trkpt><trkpt lat="45.6191247" lon="9.9191526"><ele>197.66666666666669</ele><time>2026-04-12T15:57:58.393Z</time></trkpt><trkpt lat="45.619178" lon="9.9189043"><ele>198.0</ele><time>2026-04-12T15:57:59.382Z</time></trkpt><trkpt lat="45.6192302" lon="9.9186485"><ele>198.0</ele><time>2026-04-12T15:58:00.391Z</time></trkpt><trkpt lat="45.6192877" lon="9.9183833"><ele>198.0</ele><time>2026-04-12T15:58:01.392Z</time></trkpt><trkpt lat="45.6193462" lon="9.9181118"><ele>198.0</ele><time>2026-04-12T15:58:02.39Z</time></trkpt><trkpt lat="45.6194042" lon="9.9178342"><ele>198.0</ele><time>2026-04-12T15:58:03.39Z</time></trkpt><trkpt lat="45.6194644" lon="9.9175502"><ele>198.0</ele><time>2026-04-12T15:58:04.389Z</time></trkpt><trkpt lat="45.6195255" lon="9.9172584"><ele>198.0</ele><time>2026-04-12T15:58:05.386Z</time></trkpt><trkpt lat="45.6195868" lon="9.9169682"><ele>198.33333333333331</ele><time>2026-04-12T15:58:06.389Z</time></trkpt><trkpt lat="45.6196499" lon="9.9166791"><ele>198.66666666666666</ele><time>2026-04-12T15:58:07.405Z</time></trkpt><trkpt lat="45.6197121" lon="9.9163883"><ele>199.0</ele><time>2026-04-12T15:58:08.391Z</time></trkpt><trkpt lat="45.619773" lon="9.9160915"><ele>198.66666666666666</ele><time>2026-04-12T15:58:09.389Z</time></trkpt><trkpt lat="45.6198346" lon="9.915793"><ele>198.33333333333331</ele><time>2026-04-12T15:58:10.39Z</time></trkpt><trkpt lat="45.6198979" lon="9.9154895"><ele>198.0</ele><time>2026-04-12T15:58:11.385Z</time></trkpt><trkpt lat="45.6199627" lon="9.9151804"><ele>198.0</ele><time>2026-04-12T15:58:12.399Z</time></trkpt><trkpt lat="45.6200281" lon="9.9148633"><ele>198.0</ele><time>2026-04-12T15:58:13.387Z</time></trkpt><trkpt lat="45.6200929" lon="9.9145419"><ele>199.0</ele><time>2026-04-12T15:58:14.39Z</time></trkpt><trkpt lat="45.6201595" lon="9.9142173"><ele>200.0</ele><time>2026-04-12T15:58:15.392Z</time></trkpt><trkpt lat="45.6202303" lon="9.9138869"><ele>200.0</ele><time>2026-04-12T15:58:16.383Z</time></trkpt><trkpt lat="45.6203037" lon="9.9135493"><ele>200.0</ele><time>2026-04-12T15:58:17.404Z</time></trkpt><trkpt lat="45.620378" lon="9.9132058"><ele>200.0</ele><time>2026-04-12T15:58:18.384Z</time></trkpt><trkpt lat="45.62045" lon="9.9128622"><ele>200.0</ele><time>2026-04-12T15:58:19.392Z</time></trkpt><trkpt lat="45.6205176" lon="9.9125297"><ele>199.5</ele><time>2026-04-12T15:58:20.391Z</time></trkpt><trkpt lat="45.620582" lon="9.9122015"><ele>199.0</ele><time>2026-04-12T15:58:21.391Z</time></trkpt><trkpt lat="45.6206472" lon="9.911871"><ele>197.5</ele><time>2026-04-12T15:58:22.392Z</time></trkpt><trkpt lat="45.6207124" lon="9.9115373"><ele>196.0</ele><time>2026-04-12T15:58:23.391Z</time></trkpt><trkpt lat="45.6207781" lon="9.9112017"><ele>193.5</ele><time>2026-04-12T15:58:24.4Z</time></trkpt><trkpt lat="45.6208448" lon="9.9108592"><ele>191.0</ele><time>2026-04-12T15:58:25.384Z</time></trkpt><trkpt lat="45.6209112" lon="9.9105147"><ele>191.0</ele><time>2026-04-12T15:58:26.391Z</time></trkpt><trkpt lat="45.6209786" lon="9.910169"><ele>191.0</ele><time>2026-04-12T15:58:27.39Z</time></trkpt><trkpt lat="45.6210451" lon="9.9098241"><ele>191.0</ele><time>2026-04-12T15:58:28.384Z</time></trkpt><trkpt lat="45.6211113" lon="9.9094821"><ele>191.0</ele><time>2026-04-12T15:58:29.391Z</time></trkpt><trkpt lat="45.6211776" lon="9.9091458"><ele>191.0</ele><time>2026-04-12T15:58:30.407Z</time></trkpt><trkpt lat="45.6212448" lon="9.9088194"><ele>191.0</ele><time>2026-04-12T15:58:31.382Z</time></trkpt><trkpt lat="45.6213089" lon="9.908494"><ele>191.0</ele><time>2026-04-12T15:58:32.41Z</time></trkpt><trkpt lat="45.6213746" lon="9.9081685"><ele>191.0</ele><time>2026-04-12T15:58:33.388Z</time></trkpt><trkpt lat="45.6214435" lon="9.9078373"><ele>191.5</ele><time>2026-04-12T15:58:34.391Z</time></trkpt><trkpt lat="45.6215171" lon="9.9074941"><ele>192.0</ele><time>2026-04-12T15:58:35.391Z</time></trkpt><trkpt lat="45.6215945" lon="9.9071441"><ele>192.0</ele><time>2026-04-12T15:58:36.391Z</time></trkpt><trkpt lat="45.621671" lon="9.9067893"><ele>192.0</ele><time>2026-04-12T15:58:37.391Z</time></trkpt><trkpt lat="45.621748" lon="9.9064378"><ele>191.5</ele><time>2026-04-12T15:58:38.39Z</time></trkpt><trkpt lat="45.6218221" lon="9.9060925"><ele>191.0</ele><time>2026-04-12T15:58:39.393Z</time></trkpt><trkpt lat="45.6218941" lon="9.9057555"><ele>191.0</ele><time>2026-04-12T15:58:40.391Z</time></trkpt><trkpt lat="45.6219653" lon="9.905419"><ele>191.0</ele><time>2026-04-12T15:58:41.393Z</time></trkpt><trkpt lat="45.6220366" lon="9.9050751"><ele>191.0</ele><time>2026-04-12T15:58:42.386Z</time></trkpt><trkpt lat="45.622111" lon="9.904721"><ele>191.0</ele><time>2026-04-12T15:58:43.393Z</time></trkpt><trkpt lat="45.6221843" lon="9.9043542"><ele>190.5</ele><time>2026-04-12T15:58:44.391Z</time></trkpt><trkpt lat="45.6222598" lon="9.9039778"><ele>190.0</ele><time>2026-04-12T15:58:45.403Z</time></trkpt><trkpt lat="45.6223369" lon="9.903599"><ele>182.5</ele><time>2026-04-12T15:58:46.39Z</time></trkpt><trkpt lat="45.6224157" lon="9.9032228"><ele>175.0</ele><time>2026-04-12T15:58:47.391Z</time></trkpt><trkpt lat="45.6224962" lon="9.9028536"><ele>164.5</ele><time>2026-04-12T15:58:48.391Z</time></trkpt><trkpt lat="45.6225811" lon="9.9024882"><ele>154.0</ele><time>2026-04-12T15:58:49.381Z</time></trkpt><trkpt lat="45.6226688" lon="9.9021201"><ele>154.0</ele><time>2026-04-12T15:58:50.398Z</time></trkpt><trkpt lat="45.6227553" lon="9.9017461"><ele>154.0</ele><time>2026-04-12T15:58:51.391Z</time></trkpt><trkpt lat="45.6228429" lon="9.9013657"><ele>155.0</ele><time>2026-04-12T15:58:52.387Z</time></trkpt><trkpt lat="45.6229297" lon="9.9009804"><ele>156.0</ele><time>2026-04-12T15:58:53.39Z</time></trkpt><trkpt lat="45.6230174" lon="9.9005958"><ele>168.0</ele><time>2026-04-12T15:58:54.386Z</time></trkpt><trkpt lat="45.6231044" lon="9.9002068"><ele>180.0</ele><time>2026-04-12T15:58:55.392Z</time></trkpt><trkpt lat="45.6231921" lon="9.8998106"><ele>188.0</ele><time>2026-04-12T15:58:56.389Z</time></trkpt><trkpt lat="45.623281" lon="9.8994085"><ele>196.0</ele><time>2026-04-12T15:58:57.404Z</time></trkpt><trkpt lat="45.6233716" lon="9.8990083"><ele>198.5</ele><time>2026-04-12T15:58:58.391Z</time></trkpt><trkpt lat="45.623462" lon="9.8986065"><ele>201.0</ele><time>2026-04-12T15:58:59.378Z</time></trkpt><trkpt lat="45.6235537" lon="9.8982026"><ele>201.0</ele><time>2026-04-12T15:59:00.381Z</time></trkpt><trkpt lat="45.6236438" lon="9.8977981"><ele>201.0</ele><time>2026-04-12T15:59:01.394Z</time></trkpt><trkpt lat="45.6237346" lon="9.8973933"><ele>201.5</ele><time>2026-04-12T15:59:02.388Z</time></trkpt><trkpt lat="45.6238254" lon="9.8969871"><ele>202.0</ele><time>2026-04-12T15:59:03.403Z</time></trkpt><trkpt lat="45.6239162" lon="9.8965811"><ele>201.5</ele><time>2026-04-12T15:59:04.393Z</time></trkpt><trkpt lat="45.6240052" lon="9.8961744"><ele>201.0</ele><time>2026-04-12T15:59:05.391Z</time></trkpt><trkpt lat="45.6240938" lon="9.8957677"><ele>201.0</ele><time>2026-04-12T15:59:06.391Z</time></trkpt><trkpt lat="45.6241824" lon="9.8953627"><ele>201.0</ele><time>2026-04-12T15:59:07.39Z</time></trkpt><trkpt lat="45.6242714" lon="9.8949556"><ele>201.5</ele><time>2026-04-12T15:59:08.393Z</time></trkpt><trkpt lat="45.6243615" lon="9.8945503"><ele>202.0</ele><time>2026-04-12T15:59:09.39Z</time></trkpt><trkpt lat="45.6244547" lon="9.8941442"><ele>204.0</ele><time>2026-04-12T15:59:10.386Z</time></trkpt><trkpt lat="45.6245507" lon="9.8937396"><ele>206.0</ele><time>2026-04-12T15:59:11.392Z</time></trkpt><trkpt lat="45.6246484" lon="9.8933363"><ele>207.0</ele><time>2026-04-12T15:59:12.385Z</time></trkpt><trkpt lat="45.6247478" lon="9.892934"><ele>208.0</ele><time>2026-04-12T15:59:13.389Z</time></trkpt><trkpt lat="45.6248478" lon="9.8925353"><ele>208.0</ele><time>2026-04-12T15:59:14.383Z</time></trkpt><trkpt lat="45.6249495" lon="9.8921431"><ele>208.0</ele><time>2026-04-12T15:59:15.395Z</time></trkpt><trkpt lat="45.6250476" lon="9.8917649"><ele>208.0</ele><time>2026-04-12T15:59:16.384Z</time></trkpt><trkpt lat="45.6251389" lon="9.8914004"><ele>208.0</ele><time>2026-04-12T15:59:17.388Z</time></trkpt><trkpt lat="45.6252252" lon="9.8910429"><ele>208.0</ele><time>2026-04-12T15:59:18.393Z</time></trkpt><trkpt lat="45.6253074" lon="9.8906914"><ele>208.0</ele><time>2026-04-12T15:59:19.4Z</time></trkpt><trkpt lat="45.625386" lon="9.8903336"><ele>207.0</ele><time>2026-04-12T15:59:20.39Z</time></trkpt><trkpt lat="45.6254666" lon="9.8899677"><ele>206.0</ele><time>2026-04-12T15:59:21.391Z</time></trkpt><trkpt lat="45.6255488" lon="9.8895971"><ele>206.5</ele><time>2026-04-12T15:59:22.383Z</time></trkpt><trkpt lat="45.6256315" lon="9.8892282"><ele>207.0</ele><time>2026-04-12T15:59:23.389Z</time></trkpt><trkpt lat="45.6257132" lon="9.8888701"><ele>207.0</ele><time>2026-04-12T15:59:24.404Z</time></trkpt><trkpt lat="45.6257929" lon="9.8885198"><ele>207.0</ele><time>2026-04-12T15:59:25.387Z</time></trkpt><trkpt lat="45.6258698" lon="9.8881709"><ele>207.0</ele><time>2026-04-12T15:59:26.382Z</time></trkpt><trkpt lat="45.6259441" lon="9.8878251"><ele>207.0</ele><time>2026-04-12T15:59:27.392Z</time></trkpt><trkpt lat="45.6260186" lon="9.8874728"><ele>206.5</ele><time>2026-04-12T15:59:28.39Z</time></trkpt><trkpt lat="45.6260977" lon="9.8871182"><ele>206.0</ele><time>2026-04-12T15:59:29.404Z</time></trkpt><trkpt lat="45.6261778" lon="9.8867634"><ele>207.0</ele><time>2026-04-12T15:59:30.392Z</time></trkpt><trkpt lat="45.6262577" lon="9.8864068"><ele>208.0</ele><time>2026-04-12T15:59:31.395Z</time></trkpt><trkpt lat="45.626337" lon="9.8860454"><ele>208.0</ele><time>2026-04-12T15:59:32.391Z</time></trkpt><trkpt lat="45.6264158" lon="9.885678"><ele>208.0</ele><time>2026-04-12T15:59:33.381Z</time></trkpt><trkpt lat="45.6264955" lon="9.8853032"><ele>208.5</ele><time>2026-04-12T15:59:34.406Z</time></trkpt><trkpt lat="45.6265782" lon="9.8849235"><ele>209.0</ele><time>2026-04-12T15:59:35.39Z</time></trkpt><trkpt lat="45.6266638" lon="9.8845405"><ele>207.5</ele><time>2026-04-12T15:59:36.384Z</time></trkpt><trkpt lat="45.6267504" lon="9.8841519"><ele>206.0</ele><time>2026-04-12T15:59:37.389Z</time></trkpt><trkpt lat="45.626836" lon="9.8837652"><ele>206.0</ele><time>2026-04-12T15:59:38.379Z</time></trkpt><trkpt lat="45.6269197" lon="9.8833793"><ele>206.0</ele><time>2026-04-12T15:59:39.39Z</time></trkpt><trkpt lat="45.6270012" lon="9.8829955"><ele>206.5</ele><time>2026-04-12T15:59:40.39Z</time></trkpt><trkpt lat="45.6270823" lon="9.8826177"><ele>207.0</ele><time>2026-04-12T15:59:41.391Z</time></trkpt><trkpt lat="45.6271632" lon="9.8822508"><ele>207.0</ele><time>2026-04-12T15:59:42.382Z</time></trkpt><trkpt lat="45.6272435" lon="9.8818881"><ele>207.0</ele><time>2026-04-12T15:59:43.386Z</time></trkpt><trkpt lat="45.627323" lon="9.8815229"><ele>207.5</ele><time>2026-04-12T15:59:44.39Z</time></trkpt><trkpt lat="45.6274023" lon="9.8811583"><ele>208.0</ele><time>2026-04-12T15:59:45.387Z</time></trkpt><trkpt lat="45.6274814" lon="9.8807926"><ele>207.0</ele><time>2026-04-12T15:59:46.38Z</time></trkpt><trkpt lat="45.6275593" lon="9.8804242"><ele>206.0</ele><time>2026-04-12T15:59:47.39Z</time></trkpt><trkpt lat="45.6276384" lon="9.880055"><ele>206.0</ele><time>2026-04-12T15:59:48.385Z</time></trkpt><trkpt lat="45.6277169" lon="9.8796839"><ele>206.0</ele><time>2026-04-12T15:59:49.393Z</time></trkpt><trkpt lat="45.6277975" lon="9.8793072"><ele>205.0</ele><time>2026-04-12T15:59:50.39Z</time></trkpt><trkpt lat="45.6278812" lon="9.8789303"><ele>204.0</ele><time>2026-04-12T15:59:51.403Z</time></trkpt><trkpt lat="45.6279673" lon="9.8785519"><ele>203.5</ele><time>2026-04-12T15:59:52.386Z</time></trkpt><trkpt lat="45.6280527" lon="9.8781613"><ele>203.0</ele><time>2026-04-12T15:59:53.403Z</time></trkpt><trkpt lat="45.628138" lon="9.8777659"><ele>202.0</ele><time>2026-04-12T15:59:54.385Z</time></trkpt><trkpt lat="45.628225" lon="9.8773665"><ele>201.0</ele><time>2026-04-12T15:59:55.389Z</time></trkpt><trkpt lat="45.6283133" lon="9.8769669"><ele>202.0</ele><time>2026-04-12T15:59:56.393Z</time></trkpt><trkpt lat="45.6284027" lon="9.8765671"><ele>203.0</ele><time>2026-04-12T15:59:57.39Z</time></trkpt><trkpt lat="45.6284925" lon="9.876172"><ele>203.0</ele><time>2026-04-12T15:59:58.39Z</time></trkpt><trkpt lat="45.6285824" lon="9.8757779"><ele>203.0</ele><time>2026-04-12T15:59:59.386Z</time></trkpt><trkpt lat="45.6286701" lon="9.8753839"><ele>202.5</ele><time>2026-04-12T16:00:00.381Z</time></trkpt><trkpt lat="45.6287574" lon="9.8749927"><ele>202.0</ele><time>2026-04-12T16:00:01.389Z</time></trkpt><trkpt lat="45.6288431" lon="9.8746005"><ele>201.5</ele><time>2026-04-12T16:00:02.38Z</time></trkpt><trkpt lat="45.6289273" lon="9.874204"><ele>201.0</ele><time>2026-04-12T16:00:03.398Z</time></trkpt><trkpt lat="45.6290132" lon="9.8738035"><ele>201.0</ele><time>2026-04-12T16:00:04.387Z</time></trkpt><trkpt lat="45.6291015" lon="9.8734017"><ele>201.0</ele><time>2026-04-12T16:00:05.39Z</time></trkpt><trkpt lat="45.6291924" lon="9.872996"><ele>200.0</ele><time>2026-04-12T16:00:06.381Z</time></trkpt><trkpt lat="45.6292849" lon="9.8725859"><ele>199.0</ele><time>2026-04-12T16:00:07.387Z</time></trkpt><trkpt lat="45.629379" lon="9.8721727"><ele>199.0</ele><time>2026-04-12T16:00:08.386Z</time></trkpt><trkpt lat="45.629472" lon="9.8717551"><ele>199.0</ele><time>2026-04-12T16:00:09.384Z</time></trkpt><trkpt lat="45.6295634" lon="9.8713324"><ele>199.5</ele><time>2026-04-12T16:00:10.384Z</time></trkpt><trkpt lat="45.6296543" lon="9.8709023"><ele>200.0</ele><time>2026-04-12T16:00:11.392Z</time></trkpt><trkpt lat="45.6297459" lon="9.8704732"><ele>201.0</ele><time>2026-04-12T16:00:12.39Z</time></trkpt><trkpt lat="45.6298358" lon="9.8700385"><ele>202.0</ele><time>2026-04-12T16:00:13.39Z</time></trkpt><trkpt lat="45.629928" lon="9.8696032"><ele>201.5</ele><time>2026-04-12T16:00:14.39Z</time></trkpt><trkpt lat="45.6300235" lon="9.8691671"><ele>201.0</ele><time>2026-04-12T16:00:15.38Z</time></trkpt><trkpt lat="45.6301195" lon="9.8687328"><ele>200.0</ele><time>2026-04-12T16:00:16.39Z</time></trkpt><trkpt lat="45.6302138" lon="9.868301"><ele>199.0</ele><time>2026-04-12T16:00:17.393Z</time></trkpt><trkpt lat="45.6303078" lon="9.8678747"><ele>201.0</ele><time>2026-04-12T16:00:18.389Z</time></trkpt><trkpt lat="45.6304019" lon="9.8674529"><ele>203.0</ele><time>2026-04-12T16:00:19.391Z</time></trkpt><trkpt lat="45.6304973" lon="9.8670366"><ele>202.5</ele><time>2026-04-12T16:00:20.387Z</time></trkpt><trkpt lat="45.6305908" lon="9.8666304"><ele>202.0</ele><time>2026-04-12T16:00:21.392Z</time></trkpt><trkpt lat="45.6306805" lon="9.8662385"><ele>202.0</ele><time>2026-04-12T16:00:22.398Z</time></trkpt><trkpt lat="45.630766" lon="9.8658592"><ele>202.0</ele><time>2026-04-12T16:00:23.386Z</time></trkpt><trkpt lat="45.6308449" lon="9.8654914"><ele>202.0</ele><time>2026-04-12T16:00:24.394Z</time></trkpt><trkpt lat="45.6309266" lon="9.8651312"><ele>202.0</ele><time>2026-04-12T16:00:25.39Z</time></trkpt><trkpt lat="45.6310061" lon="9.8647736"><ele>202.0</ele><time>2026-04-12T16:00:26.397Z</time></trkpt><trkpt lat="45.6310865" lon="9.8644112"><ele>202.0</ele><time>2026-04-12T16:00:27.397Z</time></trkpt><trkpt lat="45.6311671" lon="9.8640478"><ele>201.0</ele><time>2026-04-12T16:00:28.39Z</time></trkpt><trkpt lat="45.6312509" lon="9.8636842"><ele>200.0</ele><time>2026-04-12T16:00:29.401Z</time></trkpt><trkpt lat="45.6313319" lon="9.8633239"><ele>200.0</ele><time>2026-04-12T16:00:30.389Z</time></trkpt><trkpt lat="45.6314128" lon="9.8629604"><ele>200.0</ele><time>2026-04-12T16:00:31.392Z</time></trkpt><trkpt lat="45.6314961" lon="9.8626"><ele>199.0</ele><time>2026-04-12T16:00:32.388Z</time></trkpt><trkpt lat="45.6315811" lon="9.8622366"><ele>198.0</ele><time>2026-04-12T16:00:33.385Z</time></trkpt><trkpt lat="45.6316649" lon="9.8618717"><ele>198.0</ele><time>2026-04-12T16:00:34.399Z</time></trkpt><trkpt lat="45.6317486" lon="9.8615053"><ele>198.0</ele><time>2026-04-12T16:00:35.379Z</time></trkpt><trkpt lat="45.6318317" lon="9.861137"><ele>197.5</ele><time>2026-04-12T16:00:36.385Z</time></trkpt><trkpt lat="45.6319144" lon="9.8607603"><ele>197.0</ele><time>2026-04-12T16:00:37.394Z</time></trkpt><trkpt lat="45.6319991" lon="9.860377"><ele>197.5</ele><time>2026-04-12T16:00:38.392Z</time></trkpt><trkpt lat="45.6320855" lon="9.8599866"><ele>198.0</ele><time>2026-04-12T16:00:39.404Z</time></trkpt><trkpt lat="45.6321727" lon="9.8595919"><ele>197.5</ele><time>2026-04-12T16:00:40.394Z</time></trkpt><trkpt lat="45.6322617" lon="9.859194"><ele>197.0</ele><time>2026-04-12T16:00:41.39Z</time></trkpt><trkpt lat="45.6323509" lon="9.8587907"><ele>197.0</ele><time>2026-04-12T16:00:42.392Z</time></trkpt><trkpt lat="45.6324415" lon="9.8583809"><ele>197.0</ele><time>2026-04-12T16:00:43.38Z</time></trkpt><trkpt lat="45.6325314" lon="9.8579678"><ele>195.5</ele><time>2026-04-12T16:00:44.39Z</time></trkpt><trkpt lat="45.6326186" lon="9.8575515"><ele>194.0</ele><time>2026-04-12T16:00:45.385Z</time></trkpt><trkpt lat="45.6327039" lon="9.8571349"><ele>194.5</ele><time>2026-04-12T16:00:46.404Z</time></trkpt><trkpt lat="45.6327884" lon="9.8567171"><ele>195.0</ele><time>2026-04-12T16:00:47.39Z</time></trkpt><trkpt lat="45.6328741" lon="9.8562997"><ele>196.0</ele><time>2026-04-12T16:00:48.386Z</time></trkpt><trkpt lat="45.6329638" lon="9.8558801"><ele>197.0</ele><time>2026-04-12T16:00:49.391Z</time></trkpt><trkpt lat="45.633054" lon="9.85546"><ele>196.5</ele><time>2026-04-12T16:00:50.391Z</time></trkpt><trkpt lat="45.6331448" lon="9.85504"><ele>196.0</ele><time>2026-04-12T16:00:51.403Z</time></trkpt><trkpt lat="45.6332354" lon="9.8546187"><ele>195.5</ele><time>2026-04-12T16:00:52.383Z</time></trkpt><trkpt lat="45.6333275" lon="9.8541964"><ele>195.0</ele><time>2026-04-12T16:00:53.386Z</time></trkpt><trkpt lat="45.6334179" lon="9.8537794"><ele>193.5</ele><time>2026-04-12T16:00:54.39Z</time></trkpt><trkpt lat="45.6335092" lon="9.8533696"><ele>192.0</ele><time>2026-04-12T16:00:55.395Z</time></trkpt><trkpt lat="45.6335981" lon="9.8529613"><ele>192.5</ele><time>2026-04-12T16:00:56.388Z</time></trkpt><trkpt lat="45.633687" lon="9.8525547"><ele>193.0</ele><time>2026-04-12T16:00:57.392Z</time></trkpt><trkpt lat="45.6337759" lon="9.8521524"><ele>193.0</ele><time>2026-04-12T16:00:58.39Z</time></trkpt><trkpt lat="45.6338634" lon="9.8517562"><ele>193.0</ele><time>2026-04-12T16:00:59.383Z</time></trkpt><trkpt lat="45.6339478" lon="9.8513616"><ele>193.0</ele><time>2026-04-12T16:01:00.386Z</time></trkpt><trkpt lat="45.6340319" lon="9.8509695"><ele>193.0</ele><time>2026-04-12T16:01:01.381Z</time></trkpt><trkpt lat="45.6341133" lon="9.8505735"><ele>194.0</ele><time>2026-04-12T16:01:02.398Z</time></trkpt><trkpt lat="45.6341945" lon="9.8501716"><ele>195.0</ele><time>2026-04-12T16:01:03.391Z</time></trkpt><trkpt lat="45.6342793" lon="9.8497665"><ele>195.0</ele><time>2026-04-12T16:01:04.4Z</time></trkpt><trkpt lat="45.6343695" lon="9.8493551"><ele>195.0</ele><time>2026-04-12T16:01:05.386Z</time></trkpt><trkpt lat="45.6344613" lon="9.8489404"><ele>195.0</ele><time>2026-04-12T16:01:06.39Z</time></trkpt><trkpt lat="45.6345539" lon="9.8485203"><ele>195.0</ele><time>2026-04-12T16:01:07.382Z</time></trkpt><trkpt lat="45.6346461" lon="9.8480983"><ele>194.5</ele><time>2026-04-12T16:01:08.385Z</time></trkpt><trkpt lat="45.6347409" lon="9.8476722"><ele>194.0</ele><time>2026-04-12T16:01:09.389Z</time></trkpt><trkpt lat="45.634839" lon="9.847243"><ele>195.0</ele><time>2026-04-12T16:01:10.384Z</time></trkpt><trkpt lat="45.6349395" lon="9.8468108"><ele>196.0</ele><time>2026-04-12T16:01:11.388Z</time></trkpt><trkpt lat="45.6350395" lon="9.8463755"><ele>197.0</ele><time>2026-04-12T16:01:12.393Z</time></trkpt><trkpt lat="45.635139" lon="9.8459378"><ele>198.0</ele><time>2026-04-12T16:01:13.405Z</time></trkpt><trkpt lat="45.6352411" lon="9.8454996"><ele>197.5</ele><time>2026-04-12T16:01:14.394Z</time></trkpt><trkpt lat="45.6353435" lon="9.8450619"><ele>197.0</ele><time>2026-04-12T16:01:15.389Z</time></trkpt><trkpt lat="45.6354429" lon="9.8446228"><ele>197.0</ele><time>2026-04-12T16:01:16.387Z</time></trkpt><trkpt lat="45.6355403" lon="9.8441859"><ele>197.0</ele><time>2026-04-12T16:01:17.389Z</time></trkpt><trkpt lat="45.6356371" lon="9.8437486"><ele>196.0</ele><time>2026-04-12T16:01:18.385Z</time></trkpt><trkpt lat="45.6357343" lon="9.843313"><ele>195.0</ele><time>2026-04-12T16:01:19.404Z</time></trkpt><trkpt lat="45.6358303" lon="9.842876"><ele>195.5</ele><time>2026-04-12T16:01:20.393Z</time></trkpt><trkpt lat="45.6359274" lon="9.8424392"><ele>196.0</ele><time>2026-04-12T16:01:21.4Z</time></trkpt><trkpt lat="45.6360241" lon="9.8420037"><ele>197.0</ele><time>2026-04-12T16:01:22.387Z</time></trkpt><trkpt lat="45.6361209" lon="9.8415708"><ele>198.0</ele><time>2026-04-12T16:01:23.39Z</time></trkpt><trkpt lat="45.6362171" lon="9.8411412"><ele>199.0</ele><time>2026-04-12T16:01:24.4Z</time></trkpt><trkpt lat="45.6363142" lon="9.8407141"><ele>200.0</ele><time>2026-04-12T16:01:25.397Z</time></trkpt><trkpt lat="45.6364126" lon="9.8402904"><ele>199.5</ele><time>2026-04-12T16:01:26.401Z</time></trkpt><trkpt lat="45.6365116" lon="9.8398689"><ele>199.0</ele><time>2026-04-12T16:01:27.392Z</time></trkpt><trkpt lat="45.6366093" lon="9.8394486"><ele>198.5</ele><time>2026-04-12T16:01:28.388Z</time></trkpt><trkpt lat="45.6367042" lon="9.8390325"><ele>198.0</ele><time>2026-04-12T16:01:29.391Z</time></trkpt><trkpt lat="45.6367951" lon="9.8386171"><ele>197.5</ele><time>2026-04-12T16:01:30.394Z</time></trkpt><trkpt lat="45.6368821" lon="9.8382048"><ele>197.0</ele><time>2026-04-12T16:01:31.386Z</time></trkpt><trkpt lat="45.6369694" lon="9.8377974"><ele>198.0</ele><time>2026-04-12T16:01:32.391Z</time></trkpt><trkpt lat="45.6370554" lon="9.8373911"><ele>199.0</ele><time>2026-04-12T16:01:33.392Z</time></trkpt><trkpt lat="45.6371407" lon="9.8369864"><ele>199.5</ele><time>2026-04-12T16:01:34.39Z</time></trkpt><trkpt lat="45.637226" lon="9.8365841"><ele>200.0</ele><time>2026-04-12T16:01:35.409Z</time></trkpt><trkpt lat="45.6373135" lon="9.8361831"><ele>200.5</ele><time>2026-04-12T16:01:36.392Z</time></trkpt><trkpt lat="45.6374011" lon="9.8357849"><ele>201.0</ele><time>2026-04-12T16:01:37.394Z</time></trkpt><trkpt lat="45.6374902" lon="9.835389"><ele>199.5</ele><time>2026-04-12T16:01:38.388Z</time></trkpt><trkpt lat="45.6375786" lon="9.8349956"><ele>198.0</ele><time>2026-04-12T16:01:39.39Z</time></trkpt><trkpt lat="45.6376625" lon="9.8346074"><ele>198.0</ele><time>2026-04-12T16:01:40.388Z</time></trkpt><trkpt lat="45.6377435" lon="9.8342261"><ele>198.0</ele><time>2026-04-12T16:01:41.389Z</time></trkpt><trkpt lat="45.6378223" lon="9.8338483"><ele>198.5</ele><time>2026-04-12T16:01:42.387Z</time></trkpt><trkpt lat="45.637901" lon="9.833478"><ele>199.0</ele><time>2026-04-12T16:01:43.391Z</time></trkpt><trkpt lat="45.6379782" lon="9.8331148"><ele>199.5</ele><time>2026-04-12T16:01:44.39Z</time></trkpt><trkpt lat="45.6380542" lon="9.8327563"><ele>200.0</ele><time>2026-04-12T16:01:45.394Z</time></trkpt><trkpt lat="45.6381309" lon="9.8324028"><ele>200.0</ele><time>2026-04-12T16:01:46.399Z</time></trkpt><trkpt lat="45.638208" lon="9.8320526"><ele>200.0</ele><time>2026-04-12T16:01:47.391Z</time></trkpt><trkpt lat="45.6382856" lon="9.8317055"><ele>199.5</ele><time>2026-04-12T16:01:48.388Z</time></trkpt><trkpt lat="45.6383635" lon="9.831362"><ele>199.0</ele><time>2026-04-12T16:01:49.404Z</time></trkpt><trkpt lat="45.6384372" lon="9.8310222"><ele>199.5</ele><time>2026-04-12T16:01:50.398Z</time></trkpt><trkpt lat="45.6385097" lon="9.8306787"><ele>200.0</ele><time>2026-04-12T16:01:51.387Z</time></trkpt><trkpt lat="45.6385841" lon="9.830336"><ele>201.0</ele><time>2026-04-12T16:01:52.388Z</time></trkpt><trkpt lat="45.6386594" lon="9.8299926"><ele>202.0</ele><time>2026-04-12T16:01:53.383Z</time></trkpt><trkpt lat="45.6387343" lon="9.829646"><ele>203.0</ele><time>2026-04-12T16:01:54.406Z</time></trkpt><trkpt lat="45.6388088" lon="9.8292988"><ele>204.0</ele><time>2026-04-12T16:01:55.378Z</time></trkpt><trkpt lat="45.6388814" lon="9.8289543"><ele>204.0</ele><time>2026-04-12T16:01:56.399Z</time></trkpt><trkpt lat="45.6389552" lon="9.8286135"><ele>204.0</ele><time>2026-04-12T16:01:57.392Z</time></trkpt><trkpt lat="45.6390269" lon="9.8282842"><ele>204.0</ele><time>2026-04-12T16:01:58.389Z</time></trkpt><trkpt lat="45.639099" lon="9.8279608"><ele>204.0</ele><time>2026-04-12T16:01:59.383Z</time></trkpt><trkpt lat="45.6391698" lon="9.8276384"><ele>204.0</ele><time>2026-04-12T16:02:00.385Z</time></trkpt><trkpt lat="45.6392421" lon="9.8273102"><ele>204.0</ele><time>2026-04-12T16:02:01.395Z</time></trkpt><trkpt lat="45.6393157" lon="9.8269736"><ele>203.0</ele><time>2026-04-12T16:02:02.395Z</time></trkpt><trkpt lat="45.63939" lon="9.8266271"><ele>202.0</ele><time>2026-04-12T16:02:03.391Z</time></trkpt><trkpt lat="45.6394647" lon="9.8262736"><ele>202.5</ele><time>2026-04-12T16:02:04.394Z</time></trkpt><trkpt lat="45.6395391" lon="9.8259133"><ele>203.0</ele><time>2026-04-12T16:02:05.39Z</time></trkpt><trkpt lat="45.6396122" lon="9.8255476"><ele>203.0</ele><time>2026-04-12T16:02:06.389Z</time></trkpt><trkpt lat="45.6396851" lon="9.8251803"><ele>203.0</ele><time>2026-04-12T16:02:07.386Z</time></trkpt><trkpt lat="45.6397597" lon="9.8248129"><ele>203.5</ele><time>2026-04-12T16:02:08.389Z</time></trkpt><trkpt lat="45.6398362" lon="9.8244471"><ele>204.0</ele><time>2026-04-12T16:02:09.401Z</time></trkpt><trkpt lat="45.6399147" lon="9.8240835"><ele>203.0</ele><time>2026-04-12T16:02:10.388Z</time></trkpt><trkpt lat="45.6399935" lon="9.8237194"><ele>202.0</ele><time>2026-04-12T16:02:11.409Z</time></trkpt><trkpt lat="45.640073" lon="9.8233539"><ele>201.5</ele><time>2026-04-12T16:02:12.387Z</time></trkpt><trkpt lat="45.6401535" lon="9.8229896"><ele>201.0</ele><time>2026-04-12T16:02:13.387Z</time></trkpt><trkpt lat="45.6402343" lon="9.8226225"><ele>202.5</ele><time>2026-04-12T16:02:14.393Z</time></trkpt><trkpt lat="45.6403156" lon="9.8222543"><ele>204.0</ele><time>2026-04-12T16:02:15.386Z</time></trkpt><trkpt lat="45.6403977" lon="9.8218838"><ele>203.5</ele><time>2026-04-12T16:02:16.402Z</time></trkpt><trkpt lat="45.6404802" lon="9.8215127"><ele>203.0</ele><time>2026-04-12T16:02:17.387Z</time></trkpt><trkpt lat="45.6405605" lon="9.8211434"><ele>202.5</ele><time>2026-04-12T16:02:18.383Z</time></trkpt><trkpt lat="45.6406417" lon="9.8207756"><ele>202.0</ele><time>2026-04-12T16:02:19.382Z</time></trkpt><trkpt lat="45.6407221" lon="9.8204069"><ele>202.0</ele><time>2026-04-12T16:02:20.389Z</time></trkpt><trkpt lat="45.6408024" lon="9.8200385"><ele>202.0</ele><time>2026-04-12T16:02:21.39Z</time></trkpt><trkpt lat="45.6408822" lon="9.819672"><ele>202.0</ele><time>2026-04-12T16:02:22.388Z</time></trkpt><trkpt lat="45.6409599" lon="9.8193079"><ele>202.0</ele><time>2026-04-12T16:02:23.395Z</time></trkpt><trkpt lat="45.6410372" lon="9.818948"><ele>202.0</ele><time>2026-04-12T16:02:24.391Z</time></trkpt><trkpt lat="45.6411152" lon="9.8185893"><ele>202.0</ele><time>2026-04-12T16:02:25.392Z</time></trkpt><trkpt lat="45.641193" lon="9.8182299"><ele>202.0</ele><time>2026-04-12T16:02:26.383Z</time></trkpt><trkpt lat="45.6412736" lon="9.8178686"><ele>202.0</ele><time>2026-04-12T16:02:27.386Z</time></trkpt><trkpt lat="45.6413586" lon="9.8175105"><ele>203.0</ele><time>2026-04-12T16:02:28.392Z</time></trkpt><trkpt lat="45.6414432" lon="9.8171475"><ele>204.0</ele><time>2026-04-12T16:02:29.39Z</time></trkpt><trkpt lat="45.6415259" lon="9.8167747"><ele>204.0</ele><time>2026-04-12T16:02:30.389Z</time></trkpt><trkpt lat="45.6416102" lon="9.8163979"><ele>204.0</ele><time>2026-04-12T16:02:31.388Z</time></trkpt><trkpt lat="45.6416929" lon="9.816017"><ele>204.0</ele><time>2026-04-12T16:02:32.38Z</time></trkpt><trkpt lat="45.6417774" lon="9.8156344"><ele>204.0</ele><time>2026-04-12T16:02:33.398Z</time></trkpt><trkpt lat="45.641862" lon="9.8152463"><ele>204.0</ele><time>2026-04-12T16:02:34.388Z</time></trkpt><trkpt lat="45.6419471" lon="9.8148565"><ele>204.0</ele><time>2026-04-12T16:02:35.389Z</time></trkpt><trkpt lat="45.6420318" lon="9.8144614"><ele>203.0</ele><time>2026-04-12T16:02:36.4Z</time></trkpt><trkpt lat="45.6421184" lon="9.814063"><ele>202.0</ele><time>2026-04-12T16:02:37.392Z</time></trkpt><trkpt lat="45.6422059" lon="9.8136618"><ele>202.0</ele><time>2026-04-12T16:02:38.391Z</time></trkpt><trkpt lat="45.6422941" lon="9.8132589"><ele>202.0</ele><time>2026-04-12T16:02:39.392Z</time></trkpt><trkpt lat="45.6423825" lon="9.8128557"><ele>201.5</ele><time>2026-04-12T16:02:40.39Z</time></trkpt><trkpt lat="45.6424716" lon="9.8124495"><ele>201.0</ele><time>2026-04-12T16:02:41.395Z</time></trkpt><trkpt lat="45.6425617" lon="9.8120416"><ele>201.5</ele><time>2026-04-12T16:02:42.391Z</time></trkpt><trkpt lat="45.6426552" lon="9.811634"><ele>202.0</ele><time>2026-04-12T16:02:43.409Z</time></trkpt><trkpt lat="45.642751" lon="9.8112267"><ele>203.5</ele><time>2026-04-12T16:02:44.391Z</time></trkpt><trkpt lat="45.642847" lon="9.8108203"><ele>205.0</ele><time>2026-04-12T16:02:45.392Z</time></trkpt><trkpt lat="45.6429422" lon="9.8104135"><ele>205.5</ele><time>2026-04-12T16:02:46.402Z</time></trkpt><trkpt lat="45.6430362" lon="9.8100078"><ele>206.0</ele><time>2026-04-12T16:02:47.393Z</time></trkpt><trkpt lat="45.6431292" lon="9.8096019"><ele>206.5</ele><time>2026-04-12T16:02:48.403Z</time></trkpt><trkpt lat="45.6432198" lon="9.8091949"><ele>207.0</ele><time>2026-04-12T16:02:49.394Z</time></trkpt><trkpt lat="45.6433088" lon="9.8087882"><ele>206.5</ele><time>2026-04-12T16:02:50.404Z</time></trkpt><trkpt lat="45.6433947" lon="9.8083801"><ele>206.0</ele><time>2026-04-12T16:02:51.392Z</time></trkpt><trkpt lat="45.6434817" lon="9.8079739"><ele>206.5</ele><time>2026-04-12T16:02:52.386Z</time></trkpt><trkpt lat="45.6435694" lon="9.8075657"><ele>207.0</ele><time>2026-04-12T16:02:53.389Z</time></trkpt><trkpt lat="45.6436564" lon="9.8071533"><ele>207.5</ele><time>2026-04-12T16:02:54.391Z</time></trkpt><trkpt lat="45.6437444" lon="9.8067412"><ele>208.0</ele><time>2026-04-12T16:02:55.41Z</time></trkpt><trkpt lat="45.6438344" lon="9.8063305"><ele>206.0</ele><time>2026-04-12T16:02:56.392Z</time></trkpt><trkpt lat="45.6439252" lon="9.8059221"><ele>204.0</ele><time>2026-04-12T16:02:57.399Z</time></trkpt><trkpt lat="45.6440149" lon="9.8055148"><ele>204.5</ele><time>2026-04-12T16:02:58.394Z</time></trkpt><trkpt lat="45.644104" lon="9.8051089"><ele>205.0</ele><time>2026-04-12T16:02:59.392Z</time></trkpt><trkpt lat="45.6441924" lon="9.8047025"><ele>204.5</ele><time>2026-04-12T16:03:00.377Z</time></trkpt><trkpt lat="45.6442792" lon="9.8042969"><ele>204.0</ele><time>2026-04-12T16:03:01.382Z</time></trkpt><trkpt lat="45.6443664" lon="9.803891"><ele>203.5</ele><time>2026-04-12T16:03:02.4Z</time></trkpt><trkpt lat="45.6444545" lon="9.8034859"><ele>203.0</ele><time>2026-04-12T16:03:03.391Z</time></trkpt><trkpt lat="45.6445431" lon="9.8030818"><ele>204.5</ele><time>2026-04-12T16:03:04.383Z</time></trkpt><trkpt lat="45.6446318" lon="9.8026771"><ele>206.0</ele><time>2026-04-12T16:03:05.39Z</time></trkpt><trkpt lat="45.6447217" lon="9.8022722"><ele>206.0</ele><time>2026-04-12T16:03:06.391Z</time></trkpt><trkpt lat="45.6448102" lon="9.8018674"><ele>206.0</ele><time>2026-04-12T16:03:07.383Z</time></trkpt><trkpt lat="45.6448978" lon="9.8014605"><ele>206.0</ele><time>2026-04-12T16:03:08.4Z</time></trkpt><trkpt lat="45.6449848" lon="9.8010547"><ele>206.0</ele><time>2026-04-12T16:03:09.387Z</time></trkpt><trkpt lat="45.6450733" lon="9.8006506"><ele>206.0</ele><time>2026-04-12T16:03:10.402Z</time></trkpt><trkpt lat="45.6451613" lon="9.8002469"><ele>206.0</ele><time>2026-04-12T16:03:11.391Z</time></trkpt><trkpt lat="45.6452501" lon="9.7998468"><ele>206.5</ele><time>2026-04-12T16:03:12.404Z</time></trkpt><trkpt lat="45.6453391" lon="9.7994452"><ele>207.0</ele><time>2026-04-12T16:03:13.393Z</time></trkpt><trkpt lat="45.6454291" lon="9.7990421"><ele>207.0</ele><time>2026-04-12T16:03:14.401Z</time></trkpt><trkpt lat="45.6455199" lon="9.7986378"><ele>207.0</ele><time>2026-04-12T16:03:15.388Z</time></trkpt><trkpt lat="45.6456098" lon="9.7982295"><ele>207.0</ele><time>2026-04-12T16:03:16.391Z</time></trkpt><trkpt lat="45.6456992" lon="9.7978172"><ele>207.0</ele><time>2026-04-12T16:03:17.392Z</time></trkpt><trkpt lat="45.6457893" lon="9.7974005"><ele>206.5</ele><time>2026-04-12T16:03:18.394Z</time></trkpt><trkpt lat="45.6458806" lon="9.7969846"><ele>206.0</ele><time>2026-04-12T16:03:19.392Z</time></trkpt><trkpt lat="45.6459731" lon="9.7965674"><ele>206.0</ele><time>2026-04-12T16:03:20.394Z</time></trkpt><trkpt lat="45.6460638" lon="9.7961468"><ele>206.0</ele><time>2026-04-12T16:03:21.391Z</time></trkpt><trkpt lat="45.6461542" lon="9.7957249"><ele>207.0</ele><time>2026-04-12T16:03:22.39Z</time></trkpt><trkpt lat="45.6462451" lon="9.7953037"><ele>208.0</ele><time>2026-04-12T16:03:23.396Z</time></trkpt><trkpt lat="45.6463371" lon="9.7948827"><ele>208.0</ele><time>2026-04-12T16:03:24.386Z</time></trkpt><trkpt lat="45.6464303" lon="9.7944616"><ele>208.0</ele><time>2026-04-12T16:03:25.404Z</time></trkpt><trkpt lat="45.6465242" lon="9.7940408"><ele>208.0</ele><time>2026-04-12T16:03:26.393Z</time></trkpt><trkpt lat="45.6466181" lon="9.7936208"><ele>208.0</ele><time>2026-04-12T16:03:27.392Z</time></trkpt><trkpt lat="45.6467113" lon="9.7932017"><ele>208.5</ele><time>2026-04-12T16:03:28.39Z</time></trkpt><trkpt lat="45.6468039" lon="9.7927821"><ele>209.0</ele><time>2026-04-12T16:03:29.393Z</time></trkpt><trkpt lat="45.6468943" lon="9.792363"><ele>208.0</ele><time>2026-04-12T16:03:30.392Z</time></trkpt><trkpt lat="45.6469845" lon="9.7919448"><ele>207.0</ele><time>2026-04-12T16:03:31.392Z</time></trkpt><trkpt lat="45.6470752" lon="9.7915266"><ele>207.0</ele><time>2026-04-12T16:03:32.406Z</time></trkpt><trkpt lat="45.6471666" lon="9.7911098"><ele>207.0</ele><time>2026-04-12T16:03:33.384Z</time></trkpt><trkpt lat="45.6472574" lon="9.790692"><ele>206.5</ele><time>2026-04-12T16:03:34.4Z</time></trkpt><trkpt lat="45.6473473" lon="9.7902743"><ele>206.0</ele><time>2026-04-12T16:03:35.392Z</time></trkpt><trkpt lat="45.6474381" lon="9.789857"><ele>206.0</ele><time>2026-04-12T16:03:36.383Z</time></trkpt><trkpt lat="45.6475288" lon="9.7894398"><ele>206.0</ele><time>2026-04-12T16:03:37.385Z</time></trkpt><trkpt lat="45.6476203" lon="9.7890227"><ele>206.0</ele><time>2026-04-12T16:03:38.383Z</time></trkpt><trkpt lat="45.6477116" lon="9.7886053"><ele>206.0</ele><time>2026-04-12T16:03:39.391Z</time></trkpt><trkpt lat="45.6478033" lon="9.7881881"><ele>206.0</ele><time>2026-04-12T16:03:40.389Z</time></trkpt><trkpt lat="45.6478969" lon="9.7877734"><ele>206.0</ele><time>2026-04-12T16:03:41.412Z</time></trkpt><trkpt lat="45.6479897" lon="9.7873588"><ele>206.0</ele><time>2026-04-12T16:03:42.391Z</time></trkpt><trkpt lat="45.6480815" lon="9.7869444"><ele>206.0</ele><time>2026-04-12T16:03:43.382Z</time></trkpt><trkpt lat="45.6481731" lon="9.7865304"><ele>206.0</ele><time>2026-04-12T16:03:44.395Z</time></trkpt><trkpt lat="45.6482633" lon="9.7861146"><ele>206.0</ele><time>2026-04-12T16:03:45.392Z</time></trkpt><trkpt lat="45.6483531" lon="9.7856977"><ele>206.0</ele><time>2026-04-12T16:03:46.403Z</time></trkpt><trkpt lat="45.6484441" lon="9.7852813"><ele>206.0</ele><time>2026-04-12T16:03:47.383Z</time></trkpt><trkpt lat="45.6485367" lon="9.7848675"><ele>207.5</ele><time>2026-04-12T16:03:48.388Z</time></trkpt><trkpt lat="45.6486306" lon="9.7844533"><ele>209.0</ele><time>2026-04-12T16:03:49.393Z</time></trkpt><trkpt lat="45.6487231" lon="9.7840394"><ele>209.0</ele><time>2026-04-12T16:03:50.39Z</time></trkpt><trkpt lat="45.6488139" lon="9.7836248"><ele>209.0</ele><time>2026-04-12T16:03:51.392Z</time></trkpt><trkpt lat="45.6489029" lon="9.7832096"><ele>209.5</ele><time>2026-04-12T16:03:52.383Z</time></trkpt><trkpt lat="45.6489907" lon="9.7827967"><ele>210.0</ele><time>2026-04-12T16:03:53.403Z</time></trkpt><trkpt lat="45.6490771" lon="9.7823862"><ele>210.0</ele><time>2026-04-12T16:03:54.391Z</time></trkpt><trkpt lat="45.6491639" lon="9.7819745"><ele>210.0</ele><time>2026-04-12T16:03:55.388Z</time></trkpt><trkpt lat="45.6492525" lon="9.7815632"><ele>209.0</ele><time>2026-04-12T16:03:56.386Z</time></trkpt><trkpt lat="45.6493446" lon="9.7811512"><ele>208.0</ele><time>2026-04-12T16:03:57.389Z</time></trkpt><trkpt lat="45.6494371" lon="9.7807413"><ele>208.5</ele><time>2026-04-12T16:03:58.383Z</time></trkpt><trkpt lat="45.6495295" lon="9.7803294"><ele>209.0</ele><time>2026-04-12T16:03:59.393Z</time></trkpt><trkpt lat="45.6496216" lon="9.7799144"><ele>209.0</ele><time>2026-04-12T16:04:00.391Z</time></trkpt><trkpt lat="45.6497124" lon="9.7794978"><ele>209.0</ele><time>2026-04-12T16:04:01.391Z</time></trkpt><trkpt lat="45.6498045" lon="9.7790804"><ele>209.0</ele><time>2026-04-12T16:04:02.393Z</time></trkpt><trkpt lat="45.6498956" lon="9.7786613"><ele>209.0</ele><time>2026-04-12T16:04:03.388Z</time></trkpt><trkpt lat="45.649987" lon="9.7782414"><ele>208.5</ele><time>2026-04-12T16:04:04.39Z</time></trkpt><trkpt lat="45.650078" lon="9.7778199"><ele>208.0</ele><time>2026-04-12T16:04:05.391Z</time></trkpt><trkpt lat="45.6501671" lon="9.777398"><ele>209.5</ele><time>2026-04-12T16:04:06.382Z</time></trkpt><trkpt lat="45.6502547" lon="9.7769764"><ele>211.0</ele><time>2026-04-12T16:04:07.405Z</time></trkpt><trkpt lat="45.6503417" lon="9.7765549"><ele>211.0</ele><time>2026-04-12T16:04:08.39Z</time></trkpt><trkpt lat="45.6504304" lon="9.7761361"><ele>211.0</ele><time>2026-04-12T16:04:09.399Z</time></trkpt><trkpt lat="45.6505214" lon="9.7757224"><ele>211.0</ele><time>2026-04-12T16:04:10.39Z</time></trkpt><trkpt lat="45.6506114" lon="9.7753156"><ele>211.0</ele><time>2026-04-12T16:04:11.405Z</time></trkpt><trkpt lat="45.6507013" lon="9.774911"><ele>211.0</ele><time>2026-04-12T16:04:12.404Z</time></trkpt><trkpt lat="45.6507934" lon="9.7745055"><ele>211.0</ele><time>2026-04-12T16:04:13.387Z</time></trkpt><trkpt lat="45.650884" lon="9.7740991"><ele>211.0</ele><time>2026-04-12T16:04:14.392Z</time></trkpt><trkpt lat="45.6509738" lon="9.773692"><ele>211.0</ele><time>2026-04-12T16:04:15.396Z</time></trkpt><trkpt lat="45.6510638" lon="9.7732838"><ele>212.0</ele><time>2026-04-12T16:04:16.392Z</time></trkpt><trkpt lat="45.6511543" lon="9.7728761"><ele>213.0</ele><time>2026-04-12T16:04:17.392Z</time></trkpt><trkpt lat="45.6512431" lon="9.7724689"><ele>213.0</ele><time>2026-04-12T16:04:18.394Z</time></trkpt><trkpt lat="45.6513305" lon="9.7720609"><ele>213.0</ele><time>2026-04-12T16:04:19.41Z</time></trkpt><trkpt lat="45.6514179" lon="9.7716512"><ele>213.0</ele><time>2026-04-12T16:04:20.387Z</time></trkpt><trkpt lat="45.6515043" lon="9.7712426"><ele>213.0</ele><time>2026-04-12T16:04:21.393Z</time></trkpt><trkpt lat="45.6515888" lon="9.7708346"><ele>213.0</ele><time>2026-04-12T16:04:22.393Z</time></trkpt><trkpt lat="45.6516729" lon="9.7704258"><ele>213.0</ele><time>2026-04-12T16:04:23.388Z</time></trkpt><trkpt lat="45.6517546" lon="9.7700143"><ele>213.5</ele><time>2026-04-12T16:04:24.392Z</time></trkpt><trkpt lat="45.6518355" lon="9.7696008"><ele>214.0</ele><time>2026-04-12T16:04:25.394Z</time></trkpt><trkpt lat="45.6519149" lon="9.7691844"><ele>214.0</ele><time>2026-04-12T16:04:26.405Z</time></trkpt><trkpt lat="45.6519929" lon="9.7687651"><ele>214.0</ele><time>2026-04-12T16:04:27.389Z</time></trkpt><trkpt lat="45.652069" lon="9.7683451"><ele>214.5</ele><time>2026-04-12T16:04:28.4Z</time></trkpt><trkpt lat="45.652144" lon="9.767924"><ele>215.0</ele><time>2026-04-12T16:04:29.389Z</time></trkpt><trkpt lat="45.6522192" lon="9.7675053"><ele>215.0</ele><time>2026-04-12T16:04:30.393Z</time></trkpt><trkpt lat="45.6522938" lon="9.7670902"><ele>215.0</ele><time>2026-04-12T16:04:31.404Z</time></trkpt><trkpt lat="45.6523649" lon="9.7666795"><ele>215.0</ele><time>2026-04-12T16:04:32.391Z</time></trkpt><trkpt lat="45.6524334" lon="9.7662745"><ele>215.0</ele><time>2026-04-12T16:04:33.405Z</time></trkpt><trkpt lat="45.6524972" lon="9.7658759"><ele>215.5</ele><time>2026-04-12T16:04:34.381Z</time></trkpt><trkpt lat="45.6525602" lon="9.7654869"><ele>216.0</ele><time>2026-04-12T16:04:35.392Z</time></trkpt><trkpt lat="45.6526237" lon="9.765109"><ele>216.0</ele><time>2026-04-12T16:04:36.392Z</time></trkpt><trkpt lat="45.652688" lon="9.7647324"><ele>216.0</ele><time>2026-04-12T16:04:37.388Z</time></trkpt><trkpt lat="45.652753" lon="9.7643553"><ele>216.5</ele><time>2026-04-12T16:04:38.39Z</time></trkpt><trkpt lat="45.6528178" lon="9.7639762"><ele>217.0</ele><time>2026-04-12T16:04:39.392Z</time></trkpt><trkpt lat="45.6528831" lon="9.7635967"><ele>217.5</ele><time>2026-04-12T16:04:40.401Z</time></trkpt><trkpt lat="45.6529471" lon="9.7632187"><ele>218.0</ele><time>2026-04-12T16:04:41.393Z</time></trkpt><trkpt lat="45.6530106" lon="9.7628375"><ele>218.5</ele><time>2026-04-12T16:04:42.393Z</time></trkpt><trkpt lat="45.653074" lon="9.7624503"><ele>219.0</ele><time>2026-04-12T16:04:43.393Z</time></trkpt><trkpt lat="45.6531381" lon="9.7620543"><ele>218.5</ele><time>2026-04-12T16:04:44.392Z</time></trkpt><trkpt lat="45.6532023" lon="9.7616469"><ele>218.0</ele><time>2026-04-12T16:04:45.395Z</time></trkpt><trkpt lat="45.6532695" lon="9.7612297"><ele>218.5</ele><time>2026-04-12T16:04:46.389Z</time></trkpt><trkpt lat="45.6533384" lon="9.7608087"><ele>219.0</ele><time>2026-04-12T16:04:47.405Z</time></trkpt><trkpt lat="45.6534094" lon="9.7603853"><ele>220.0</ele><time>2026-04-12T16:04:48.392Z</time></trkpt><trkpt lat="45.6534815" lon="9.7599583"><ele>221.0</ele><time>2026-04-12T16:04:49.387Z</time></trkpt><trkpt lat="45.6535576" lon="9.7595315"><ele>220.5</ele><time>2026-04-12T16:04:50.392Z</time></trkpt><trkpt lat="45.6536371" lon="9.7591052"><ele>220.0</ele><time>2026-04-12T16:04:51.387Z</time></trkpt><trkpt lat="45.653721" lon="9.7586793"><ele>220.5</ele><time>2026-04-12T16:04:52.385Z</time></trkpt><trkpt lat="45.6538083" lon="9.7582538"><ele>221.0</ele><time>2026-04-12T16:04:53.386Z</time></trkpt><trkpt lat="45.6538936" lon="9.7578297"><ele>220.0</ele><time>2026-04-12T16:04:54.387Z</time></trkpt><trkpt lat="45.6539716" lon="9.7574053"><ele>219.0</ele><time>2026-04-12T16:04:55.389Z</time></trkpt><trkpt lat="45.6540451" lon="9.7569829"><ele>219.5</ele><time>2026-04-12T16:04:56.408Z</time></trkpt><trkpt lat="45.6541151" lon="9.7565592"><ele>220.0</ele><time>2026-04-12T16:04:57.392Z</time></trkpt><trkpt lat="45.6541862" lon="9.7561366"><ele>220.5</ele><time>2026-04-12T16:04:58.391Z</time></trkpt><trkpt lat="45.6542598" lon="9.7557181"><ele>221.0</ele><time>2026-04-12T16:04:59.389Z</time></trkpt><trkpt lat="45.6543331" lon="9.7552999"><ele>220.5</ele><time>2026-04-12T16:05:00.394Z</time></trkpt><trkpt lat="45.654407" lon="9.7548807"><ele>220.0</ele><time>2026-04-12T16:05:01.384Z</time></trkpt><trkpt lat="45.6544803" lon="9.7544625"><ele>220.0</ele><time>2026-04-12T16:05:02.387Z</time></trkpt><trkpt lat="45.6545511" lon="9.7540439"><ele>220.0</ele><time>2026-04-12T16:05:03.389Z</time></trkpt><trkpt lat="45.6546205" lon="9.753624"><ele>220.0</ele><time>2026-04-12T16:05:04.39Z</time></trkpt><trkpt lat="45.6546901" lon="9.7532035"><ele>220.0</ele><time>2026-04-12T16:05:05.379Z</time></trkpt><trkpt lat="45.6547583" lon="9.7527865"><ele>220.5</ele><time>2026-04-12T16:05:06.387Z</time></trkpt><trkpt lat="45.6548278" lon="9.7523694"><ele>221.0</ele><time>2026-04-12T16:05:07.387Z</time></trkpt><trkpt lat="45.6548967" lon="9.7519538"><ele>221.5</ele><time>2026-04-12T16:05:08.39Z</time></trkpt><trkpt lat="45.6549658" lon="9.7515371"><ele>222.0</ele><time>2026-04-12T16:05:09.388Z</time></trkpt><trkpt lat="45.6550369" lon="9.7511214"><ele>222.5</ele><time>2026-04-12T16:05:10.388Z</time></trkpt><trkpt lat="45.6551074" lon="9.750706"><ele>223.0</ele><time>2026-04-12T16:05:11.41Z</time></trkpt><trkpt lat="45.6551769" lon="9.7502946"><ele>223.0</ele><time>2026-04-12T16:05:12.39Z</time></trkpt><trkpt lat="45.6552457" lon="9.749884"><ele>223.0</ele><time>2026-04-12T16:05:13.391Z</time></trkpt><trkpt lat="45.6553142" lon="9.7494774"><ele>223.5</ele><time>2026-04-12T16:05:14.386Z</time></trkpt><trkpt lat="45.6553851" lon="9.7490713"><ele>224.0</ele><time>2026-04-12T16:05:15.397Z</time></trkpt><trkpt lat="45.6554578" lon="9.7486626"><ele>224.0</ele><time>2026-04-12T16:05:16.391Z</time></trkpt><trkpt lat="45.6555299" lon="9.7482558"><ele>224.0</ele><time>2026-04-12T16:05:17.408Z</time></trkpt><trkpt lat="45.6556012" lon="9.7478569"><ele>224.5</ele><time>2026-04-12T16:05:18.394Z</time></trkpt><trkpt lat="45.6556718" lon="9.7474612"><ele>225.0</ele><time>2026-04-12T16:05:19.393Z</time></trkpt><trkpt lat="45.6557415" lon="9.7470676"><ele>225.0</ele><time>2026-04-12T16:05:20.385Z</time></trkpt><trkpt lat="45.6558118" lon="9.7466741"><ele>225.0</ele><time>2026-04-12T16:05:21.394Z</time></trkpt><trkpt lat="45.6558806" lon="9.7462826"><ele>225.5</ele><time>2026-04-12T16:05:22.408Z</time></trkpt><trkpt lat="45.6559494" lon="9.745892"><ele>226.0</ele><time>2026-04-12T16:05:23.384Z</time></trkpt><trkpt lat="45.6560184" lon="9.7454936"><ele>226.0</ele><time>2026-04-12T16:05:24.391Z</time></trkpt><trkpt lat="45.6560872" lon="9.7450917"><ele>226.0</ele><time>2026-04-12T16:05:25.406Z</time></trkpt><trkpt lat="45.6561566" lon="9.7446857"><ele>225.5</ele><time>2026-04-12T16:05:26.39Z</time></trkpt><trkpt lat="45.6562304" lon="9.7442765"><ele>225.0</ele><time>2026-04-12T16:05:27.404Z</time></trkpt><trkpt lat="45.6563068" lon="9.7438649"><ele>223.5</ele><time>2026-04-12T16:05:28.403Z</time></trkpt><trkpt lat="45.6563851" lon="9.7434522"><ele>222.0</ele><time>2026-04-12T16:05:29.384Z</time></trkpt><trkpt lat="45.6564654" lon="9.7430412"><ele>220.5</ele><time>2026-04-12T16:05:30.4Z</time></trkpt><trkpt lat="45.6565461" lon="9.742628"><ele>219.0</ele><time>2026-04-12T16:05:31.391Z</time></trkpt><trkpt lat="45.6566258" lon="9.7422138"><ele>218.5</ele><time>2026-04-12T16:05:32.402Z</time></trkpt><trkpt lat="45.6567053" lon="9.7417978"><ele>218.0</ele><time>2026-04-12T16:05:33.391Z</time></trkpt><trkpt lat="45.6567833" lon="9.7413769"><ele>218.0</ele><time>2026-04-12T16:05:34.392Z</time></trkpt><trkpt lat="45.6568614" lon="9.7409536"><ele>218.0</ele><time>2026-04-12T16:05:35.382Z</time></trkpt><trkpt lat="45.6569396" lon="9.7405291"><ele>218.5</ele><time>2026-04-12T16:05:36.389Z</time></trkpt><trkpt lat="45.6570183" lon="9.7401027"><ele>219.0</ele><time>2026-04-12T16:05:37.407Z</time></trkpt><trkpt lat="45.657098" lon="9.7396736"><ele>219.0</ele><time>2026-04-12T16:05:38.391Z</time></trkpt><trkpt lat="45.6571783" lon="9.7392437"><ele>219.0</ele><time>2026-04-12T16:05:39.385Z</time></trkpt><trkpt lat="45.6572603" lon="9.7388134"><ele>219.5</ele><time>2026-04-12T16:05:40.398Z</time></trkpt><trkpt lat="45.6573456" lon="9.7383821"><ele>220.0</ele><time>2026-04-12T16:05:41.392Z</time></trkpt><trkpt lat="45.6574339" lon="9.7379515"><ele>220.0</ele><time>2026-04-12T16:05:42.388Z</time></trkpt><trkpt lat="45.6575224" lon="9.7375221"><ele>220.0</ele><time>2026-04-12T16:05:43.391Z</time></trkpt><trkpt lat="45.6576064" lon="9.737092"><ele>219.5</ele><time>2026-04-12T16:05:44.403Z</time></trkpt><trkpt lat="45.6576874" lon="9.7366613"><ele>219.0</ele><time>2026-04-12T16:05:45.39Z</time></trkpt><trkpt lat="45.6577647" lon="9.7362319"><ele>220.0</ele><time>2026-04-12T16:05:46.41Z</time></trkpt><trkpt lat="45.6578398" lon="9.7358072"><ele>221.0</ele><time>2026-04-12T16:05:47.393Z</time></trkpt><trkpt lat="45.6579139" lon="9.7353946"><ele>221.5</ele><time>2026-04-12T16:05:48.392Z</time></trkpt><trkpt lat="45.6579859" lon="9.7349998"><ele>222.0</ele><time>2026-04-12T16:05:49.392Z</time></trkpt><trkpt lat="45.6580555" lon="9.7346216"><ele>222.0</ele><time>2026-04-12T16:05:50.392Z</time></trkpt><trkpt lat="45.6581232" lon="9.7342576"><ele>222.0</ele><time>2026-04-12T16:05:51.403Z</time></trkpt><trkpt lat="45.6581914" lon="9.7339003"><ele>221.0</ele><time>2026-04-12T16:05:52.388Z</time></trkpt><trkpt lat="45.6582621" lon="9.7335391"><ele>220.0</ele><time>2026-04-12T16:05:53.388Z</time></trkpt><trkpt lat="45.6583303" lon="9.7331744"><ele>220.0</ele><time>2026-04-12T16:05:54.384Z</time></trkpt><trkpt lat="45.6583977" lon="9.7328033"><ele>220.0</ele><time>2026-04-12T16:05:55.406Z</time></trkpt><trkpt lat="45.6584641" lon="9.7324267"><ele>219.0</ele><time>2026-04-12T16:05:56.4Z</time></trkpt><trkpt lat="45.6585305" lon="9.7320477"><ele>218.0</ele><time>2026-04-12T16:05:57.398Z</time></trkpt><trkpt lat="45.6585978" lon="9.7316693"><ele>218.5</ele><time>2026-04-12T16:05:58.392Z</time></trkpt><trkpt lat="45.6586606" lon="9.7312953"><ele>219.0</ele><time>2026-04-12T16:05:59.386Z</time></trkpt><trkpt lat="45.6587216" lon="9.7309316"><ele>220.0</ele><time>2026-04-12T16:06:00.405Z</time></trkpt><trkpt lat="45.6587823" lon="9.7305772"><ele>221.0</ele><time>2026-04-12T16:06:01.406Z</time></trkpt><trkpt lat="45.6588449" lon="9.7302313"><ele>222.0</ele><time>2026-04-12T16:06:02.389Z</time></trkpt><trkpt lat="45.6589094" lon="9.7298909"><ele>223.0</ele><time>2026-04-12T16:06:03.4Z</time></trkpt><trkpt lat="45.658974" lon="9.7295543"><ele>222.5</ele><time>2026-04-12T16:06:04.4Z</time></trkpt><trkpt lat="45.6590393" lon="9.729215"><ele>222.0</ele><time>2026-04-12T16:06:05.392Z</time></trkpt><trkpt lat="45.6591043" lon="9.7288671"><ele>222.0</ele><time>2026-04-12T16:06:06.391Z</time></trkpt><trkpt lat="45.6591708" lon="9.7285089"><ele>222.0</ele><time>2026-04-12T16:06:07.389Z</time></trkpt><trkpt lat="45.6592389" lon="9.7281439"><ele>222.0</ele><time>2026-04-12T16:06:08.393Z</time></trkpt><trkpt lat="45.6593073" lon="9.7277733"><ele>222.0</ele><time>2026-04-12T16:06:09.391Z</time></trkpt><trkpt lat="45.6593748" lon="9.7273962"><ele>222.0</ele><time>2026-04-12T16:06:10.408Z</time></trkpt><trkpt lat="45.659445" lon="9.7270162"><ele>222.0</ele><time>2026-04-12T16:06:11.39Z</time></trkpt><trkpt lat="45.6595149" lon="9.726644"><ele>222.0</ele><time>2026-04-12T16:06:12.391Z</time></trkpt><trkpt lat="45.6595836" lon="9.7262872"><ele>222.0</ele><time>2026-04-12T16:06:13.393Z</time></trkpt><trkpt lat="45.6596463" lon="9.7259439"><ele>222.0</ele><time>2026-04-12T16:06:14.388Z</time></trkpt><trkpt lat="45.6597051" lon="9.7256119"><ele>222.0</ele><time>2026-04-12T16:06:15.39Z</time></trkpt><trkpt lat="45.6597622" lon="9.7252847"><ele>223.5</ele><time>2026-04-12T16:06:16.404Z</time></trkpt><trkpt lat="45.6598208" lon="9.7249543"><ele>225.0</ele><time>2026-04-12T16:06:17.39Z</time></trkpt><trkpt lat="45.6598828" lon="9.7246183"><ele>225.5</ele><time>2026-04-12T16:06:18.405Z</time></trkpt><trkpt lat="45.6599484" lon="9.7242771"><ele>226.0</ele><time>2026-04-12T16:06:19.386Z</time></trkpt><trkpt lat="45.6600142" lon="9.7239308"><ele>226.0</ele><time>2026-04-12T16:06:20.389Z</time></trkpt><trkpt lat="45.6600802" lon="9.7235807"><ele>226.0</ele><time>2026-04-12T16:06:21.389Z</time></trkpt><trkpt lat="45.6601465" lon="9.7232269"><ele>226.0</ele><time>2026-04-12T16:06:22.402Z</time></trkpt><trkpt lat="45.660211" lon="9.7228783"><ele>226.0</ele><time>2026-04-12T16:06:23.391Z</time></trkpt><trkpt lat="45.6602737" lon="9.7225407"><ele>226.5</ele><time>2026-04-12T16:06:24.399Z</time></trkpt><trkpt lat="45.6603346" lon="9.7222144"><ele>227.0</ele><time>2026-04-12T16:06:25.386Z</time></trkpt><trkpt lat="45.660395" lon="9.7218999"><ele>227.0</ele><time>2026-04-12T16:06:26.391Z</time></trkpt><trkpt lat="45.6604532" lon="9.7215956"><ele>227.0</ele><time>2026-04-12T16:06:27.392Z</time></trkpt><trkpt lat="45.6605111" lon="9.7212939"><ele>227.0</ele><time>2026-04-12T16:06:28.39Z</time></trkpt><trkpt lat="45.6605723" lon="9.7209861"><ele>227.0</ele><time>2026-04-12T16:06:29.394Z</time></trkpt><trkpt lat="45.660634" lon="9.7206678"><ele>227.0</ele><time>2026-04-12T16:06:30.406Z</time></trkpt><trkpt lat="45.660698" lon="9.7203419"><ele>226.5</ele><time>2026-04-12T16:06:31.405Z</time></trkpt><trkpt lat="45.6607615" lon="9.7200049"><ele>226.0</ele><time>2026-04-12T16:06:32.387Z</time></trkpt><trkpt lat="45.660825" lon="9.7196582"><ele>226.0</ele><time>2026-04-12T16:06:33.388Z</time></trkpt><trkpt lat="45.6608917" lon="9.719309"><ele>226.0</ele><time>2026-04-12T16:06:34.387Z</time></trkpt><trkpt lat="45.6609611" lon="9.7189576"><ele>226.0</ele><time>2026-04-12T16:06:35.401Z</time></trkpt><trkpt lat="45.661028" lon="9.7186106"><ele>226.0</ele><time>2026-04-12T16:06:36.387Z</time></trkpt><trkpt lat="45.6610938" lon="9.7182747"><ele>228.0</ele><time>2026-04-12T16:06:37.392Z</time></trkpt><trkpt lat="45.661158" lon="9.7179458"><ele>230.0</ele><time>2026-04-12T16:06:38.383Z</time></trkpt><trkpt lat="45.6612203" lon="9.7176199"><ele>230.0</ele><time>2026-04-12T16:06:39.38Z</time></trkpt><trkpt lat="45.6612826" lon="9.7172943"><ele>230.0</ele><time>2026-04-12T16:06:40.407Z</time></trkpt><trkpt lat="45.6613431" lon="9.7169623"><ele>229.0</ele><time>2026-04-12T16:06:41.391Z</time></trkpt><trkpt lat="45.6614052" lon="9.7166241"><ele>228.0</ele><time>2026-04-12T16:06:42.392Z</time></trkpt><trkpt lat="45.6614677" lon="9.7162845"><ele>228.0</ele><time>2026-04-12T16:06:43.395Z</time></trkpt><trkpt lat="45.6615301" lon="9.7159474"><ele>228.0</ele><time>2026-04-12T16:06:44.39Z</time></trkpt><trkpt lat="45.6615901" lon="9.7156125"><ele>228.0</ele><time>2026-04-12T16:06:45.403Z</time></trkpt><trkpt lat="45.66165" lon="9.7152839"><ele>228.0</ele><time>2026-04-12T16:06:46.391Z</time></trkpt><trkpt lat="45.6617084" lon="9.7149616"><ele>228.0</ele><time>2026-04-12T16:06:47.389Z</time></trkpt><trkpt lat="45.6617665" lon="9.7146433"><ele>228.0</ele><time>2026-04-12T16:06:48.393Z</time></trkpt><trkpt lat="45.6618242" lon="9.714326"><ele>228.0</ele><time>2026-04-12T16:06:49.392Z</time></trkpt><trkpt lat="45.6618826" lon="9.7140062"><ele>228.0</ele><time>2026-04-12T16:06:50.403Z</time></trkpt><trkpt lat="45.6619413" lon="9.7136799"><ele>228.0</ele><time>2026-04-12T16:06:51.404Z</time></trkpt><trkpt lat="45.6620001" lon="9.7133462"><ele>228.0</ele><time>2026-04-12T16:06:52.391Z</time></trkpt><trkpt lat="45.6620597" lon="9.7130076"><ele>228.5</ele><time>2026-04-12T16:06:53.402Z</time></trkpt><trkpt lat="45.6621218" lon="9.7126664"><ele>229.0</ele><time>2026-04-12T16:06:54.384Z</time></trkpt><trkpt lat="45.6621831" lon="9.7123283"><ele>229.0</ele><time>2026-04-12T16:06:55.386Z</time></trkpt><trkpt lat="45.6622435" lon="9.7119955"><ele>229.0</ele><time>2026-04-12T16:06:56.394Z</time></trkpt><trkpt lat="45.6623046" lon="9.7116666"><ele>230.0</ele><time>2026-04-12T16:06:57.405Z</time></trkpt><trkpt lat="45.6623656" lon="9.7113372"><ele>231.0</ele><time>2026-04-12T16:06:58.393Z</time></trkpt><trkpt lat="45.6624288" lon="9.7110016"><ele>231.0</ele><time>2026-04-12T16:06:59.391Z</time></trkpt><trkpt lat="45.6624938" lon="9.7106578"><ele>231.0</ele><time>2026-04-12T16:07:00.391Z</time></trkpt><trkpt lat="45.6625597" lon="9.7103077"><ele>232.0</ele><time>2026-04-12T16:07:01.393Z</time></trkpt><trkpt lat="45.6626273" lon="9.7099498"><ele>233.0</ele><time>2026-04-12T16:07:02.402Z</time></trkpt><trkpt lat="45.662696" lon="9.7095843"><ele>233.0</ele><time>2026-04-12T16:07:03.393Z</time></trkpt><trkpt lat="45.6627646" lon="9.7092146"><ele>233.0</ele><time>2026-04-12T16:07:04.383Z</time></trkpt><trkpt lat="45.6628356" lon="9.708841"><ele>233.5</ele><time>2026-04-12T16:07:05.394Z</time></trkpt><trkpt lat="45.6629125" lon="9.7084674"><ele>234.0</ele><time>2026-04-12T16:07:06.383Z</time></trkpt><trkpt lat="45.6629939" lon="9.7080934"><ele>233.5</ele><time>2026-04-12T16:07:07.404Z</time></trkpt><trkpt lat="45.6630748" lon="9.7077137"><ele>233.0</ele><time>2026-04-12T16:07:08.391Z</time></trkpt><trkpt lat="45.6631521" lon="9.70733"><ele>233.0</ele><time>2026-04-12T16:07:09.386Z</time></trkpt><trkpt lat="45.6632258" lon="9.7069422"><ele>233.0</ele><time>2026-04-12T16:07:10.39Z</time></trkpt><trkpt lat="45.663298" lon="9.7065541"><ele>233.5</ele><time>2026-04-12T16:07:11.393Z</time></trkpt><trkpt lat="45.6633694" lon="9.7061634"><ele>234.0</ele><time>2026-04-12T16:07:12.406Z</time></trkpt><trkpt lat="45.6634403" lon="9.705774"><ele>234.0</ele><time>2026-04-12T16:07:13.387Z</time></trkpt><trkpt lat="45.6635112" lon="9.7053903"><ele>234.0</ele><time>2026-04-12T16:07:14.391Z</time></trkpt><trkpt lat="45.6635809" lon="9.70501"><ele>234.0</ele><time>2026-04-12T16:07:15.388Z</time></trkpt><trkpt lat="45.6636509" lon="9.704629"><ele>234.0</ele><time>2026-04-12T16:07:16.39Z</time></trkpt><trkpt lat="45.6637215" lon="9.7042475"><ele>234.0</ele><time>2026-04-12T16:07:17.39Z</time></trkpt><trkpt lat="45.6637911" lon="9.7038649"><ele>234.0</ele><time>2026-04-12T16:07:18.393Z</time></trkpt><trkpt lat="45.6638584" lon="9.7034861"><ele>233.5</ele><time>2026-04-12T16:07:19.405Z</time></trkpt><trkpt lat="45.6639239" lon="9.7031155"><ele>233.0</ele><time>2026-04-12T16:07:20.388Z</time></trkpt><trkpt lat="45.6639896" lon="9.7027534"><ele>233.5</ele><time>2026-04-12T16:07:21.393Z</time></trkpt><trkpt lat="45.6640555" lon="9.7023973"><ele>234.0</ele><time>2026-04-12T16:07:22.387Z</time></trkpt><trkpt lat="45.6641221" lon="9.7020408"><ele>233.5</ele><time>2026-04-12T16:07:23.388Z</time></trkpt><trkpt lat="45.6641886" lon="9.7016799"><ele>233.0</ele><time>2026-04-12T16:07:24.387Z</time></trkpt><trkpt lat="45.6642517" lon="9.7013168"><ele>233.0</ele><time>2026-04-12T16:07:25.403Z</time></trkpt><trkpt lat="45.6643119" lon="9.7009575"><ele>233.0</ele><time>2026-04-12T16:07:26.39Z</time></trkpt><trkpt lat="45.6643721" lon="9.7005991"><ele>233.0</ele><time>2026-04-12T16:07:27.392Z</time></trkpt><trkpt lat="45.6644354" lon="9.7002386"><ele>233.0</ele><time>2026-04-12T16:07:28.388Z</time></trkpt><trkpt lat="45.6645013" lon="9.6998746"><ele>234.0</ele><time>2026-04-12T16:07:29.388Z</time></trkpt><trkpt lat="45.6645721" lon="9.6995068"><ele>235.0</ele><time>2026-04-12T16:07:30.397Z</time></trkpt><trkpt lat="45.6646436" lon="9.6991339"><ele>235.0</ele><time>2026-04-12T16:07:31.391Z</time></trkpt><trkpt lat="45.6647158" lon="9.6987599"><ele>235.0</ele><time>2026-04-12T16:07:32.403Z</time></trkpt><trkpt lat="45.6647879" lon="9.6983846"><ele>234.0</ele><time>2026-04-12T16:07:33.386Z</time></trkpt><trkpt lat="45.6648623" lon="9.6980127"><ele>233.0</ele><time>2026-04-12T16:07:34.382Z</time></trkpt><trkpt lat="45.6649379" lon="9.6976467"><ele>232.0</ele><time>2026-04-12T16:07:35.386Z</time></trkpt><trkpt lat="45.6650124" lon="9.6972847"><ele>231.0</ele><time>2026-04-12T16:07:36.4Z</time></trkpt><trkpt lat="45.665084" lon="9.6969277"><ele>231.5</ele><time>2026-04-12T16:07:37.403Z</time></trkpt><trkpt lat="45.6651545" lon="9.6965741"><ele>232.0</ele><time>2026-04-12T16:07:38.39Z</time></trkpt><trkpt lat="45.665222" lon="9.6962177"><ele>233.0</ele><time>2026-04-12T16:07:39.377Z</time></trkpt><trkpt lat="45.6652895" lon="9.6958557"><ele>234.0</ele><time>2026-04-12T16:07:40.39Z</time></trkpt><trkpt lat="45.6653552" lon="9.6954907"><ele>233.5</ele><time>2026-04-12T16:07:41.404Z</time></trkpt><trkpt lat="45.6654198" lon="9.6951251"><ele>233.0</ele><time>2026-04-12T16:07:42.393Z</time></trkpt><trkpt lat="45.6654838" lon="9.6947607"><ele>232.5</ele><time>2026-04-12T16:07:43.399Z</time></trkpt><trkpt lat="45.6655477" lon="9.6944025"><ele>232.0</ele><time>2026-04-12T16:07:44.392Z</time></trkpt><trkpt lat="45.6656122" lon="9.6940519"><ele>232.0</ele><time>2026-04-12T16:07:45.395Z</time></trkpt><trkpt lat="45.6656762" lon="9.6937094"><ele>232.0</ele><time>2026-04-12T16:07:46.411Z</time></trkpt><trkpt lat="45.6657374" lon="9.693369"><ele>232.0</ele><time>2026-04-12T16:07:47.398Z</time></trkpt><trkpt lat="45.6657995" lon="9.6930242"><ele>232.0</ele><time>2026-04-12T16:07:48.386Z</time></trkpt><trkpt lat="45.665862" lon="9.6926756"><ele>232.5</ele><time>2026-04-12T16:07:49.392Z</time></trkpt><trkpt lat="45.6659241" lon="9.6923243"><ele>233.0</ele><time>2026-04-12T16:07:50.385Z</time></trkpt><trkpt lat="45.6659869" lon="9.6919685"><ele>233.0</ele><time>2026-04-12T16:07:51.394Z</time></trkpt><trkpt lat="45.6660508" lon="9.6916081"><ele>233.0</ele><time>2026-04-12T16:07:52.399Z</time></trkpt><trkpt lat="45.6661153" lon="9.6912469"><ele>232.5</ele><time>2026-04-12T16:07:53.407Z</time></trkpt><trkpt lat="45.6661806" lon="9.6908833"><ele>232.0</ele><time>2026-04-12T16:07:54.408Z</time></trkpt><trkpt lat="45.666246" lon="9.6905194"><ele>232.0</ele><time>2026-04-12T16:07:55.388Z</time></trkpt><trkpt lat="45.6663129" lon="9.6901546"><ele>232.0</ele><time>2026-04-12T16:07:56.386Z</time></trkpt><trkpt lat="45.6663814" lon="9.6897881"><ele>232.5</ele><time>2026-04-12T16:07:57.392Z</time></trkpt><trkpt lat="45.6664528" lon="9.6894226"><ele>233.0</ele><time>2026-04-12T16:07:58.39Z</time></trkpt><trkpt lat="45.66652" lon="9.6890582"><ele>233.0</ele><time>2026-04-12T16:07:59.392Z</time></trkpt><trkpt lat="45.6665851" lon="9.6886977"><ele>233.0</ele><time>2026-04-12T16:08:00.393Z</time></trkpt><trkpt lat="45.6666506" lon="9.6883427"><ele>232.5</ele><time>2026-04-12T16:08:01.39Z</time></trkpt><trkpt lat="45.6667132" lon="9.6879998"><ele>232.0</ele><time>2026-04-12T16:08:02.385Z</time></trkpt><trkpt lat="45.6667757" lon="9.6876658"><ele>231.5</ele><time>2026-04-12T16:08:03.405Z</time></trkpt><trkpt lat="45.6668363" lon="9.687328"><ele>231.0</ele><time>2026-04-12T16:08:04.386Z</time></trkpt><trkpt lat="45.6668988" lon="9.6869845"><ele>232.5</ele><time>2026-04-12T16:08:05.379Z</time></trkpt><trkpt lat="45.6669631" lon="9.6866379"><ele>234.0</ele><time>2026-04-12T16:08:06.396Z</time></trkpt><trkpt lat="45.6670255" lon="9.6862939"><ele>234.0</ele><time>2026-04-12T16:08:07.39Z</time></trkpt><trkpt lat="45.6670884" lon="9.6859531"><ele>234.0</ele><time>2026-04-12T16:08:08.393Z</time></trkpt><trkpt lat="45.6671528" lon="9.6856138"><ele>234.0</ele><time>2026-04-12T16:08:09.388Z</time></trkpt><trkpt lat="45.6672137" lon="9.6852708"><ele>234.0</ele><time>2026-04-12T16:08:10.408Z</time></trkpt><trkpt lat="45.667275" lon="9.684923"><ele>234.5</ele><time>2026-04-12T16:08:11.388Z</time></trkpt><trkpt lat="45.6673362" lon="9.684568"><ele>235.0</ele><time>2026-04-12T16:08:12.392Z</time></trkpt><trkpt lat="45.6673989" lon="9.6842025"><ele>234.5</ele><time>2026-04-12T16:08:13.4Z</time></trkpt><trkpt lat="45.6674633" lon="9.6838272"><ele>234.0</ele><time>2026-04-12T16:08:14.401Z</time></trkpt><trkpt lat="45.66753" lon="9.6834502"><ele>234.0</ele><time>2026-04-12T16:08:15.39Z</time></trkpt><trkpt lat="45.6675975" lon="9.6830785"><ele>234.0</ele><time>2026-04-12T16:08:16.391Z</time></trkpt><trkpt lat="45.6676672" lon="9.6827132"><ele>233.0</ele><time>2026-04-12T16:08:17.399Z</time></trkpt><trkpt lat="45.6677371" lon="9.6823518"><ele>232.0</ele><time>2026-04-12T16:08:18.4Z</time></trkpt><trkpt lat="45.667806" lon="9.6819928"><ele>234.5</ele><time>2026-04-12T16:08:19.392Z</time></trkpt><trkpt lat="45.6678716" lon="9.68164"><ele>237.0</ele><time>2026-04-12T16:08:20.401Z</time></trkpt><trkpt lat="45.6679356" lon="9.6812943"><ele>235.5</ele><time>2026-04-12T16:08:21.391Z</time></trkpt><trkpt lat="45.6679972" lon="9.6809509"><ele>234.0</ele><time>2026-04-12T16:08:22.402Z</time></trkpt><trkpt lat="45.66806" lon="9.6806131"><ele>234.0</ele><time>2026-04-12T16:08:23.393Z</time></trkpt><trkpt lat="45.6681223" lon="9.6802778"><ele>234.0</ele><time>2026-04-12T16:08:24.392Z</time></trkpt><trkpt lat="45.6681857" lon="9.679944"><ele>233.5</ele><time>2026-04-12T16:08:25.389Z</time></trkpt><trkpt lat="45.6682502" lon="9.6796065"><ele>233.0</ele><time>2026-04-12T16:08:26.393Z</time></trkpt><trkpt lat="45.6683163" lon="9.6792625"><ele>233.0</ele><time>2026-04-12T16:08:27.401Z</time></trkpt><trkpt lat="45.6683839" lon="9.6789103"><ele>233.0</ele><time>2026-04-12T16:08:28.403Z</time></trkpt><trkpt lat="45.6684551" lon="9.6785489"><ele>233.5</ele><time>2026-04-12T16:08:29.404Z</time></trkpt><trkpt lat="45.6685268" lon="9.6781774"><ele>234.0</ele><time>2026-04-12T16:08:30.405Z</time></trkpt><trkpt lat="45.6686005" lon="9.6777992"><ele>234.0</ele><time>2026-04-12T16:08:31.38Z</time></trkpt><trkpt lat="45.6686726" lon="9.6774224"><ele>234.0</ele><time>2026-04-12T16:08:32.404Z</time></trkpt><trkpt lat="45.6687431" lon="9.677054"><ele>234.0</ele><time>2026-04-12T16:08:33.392Z</time></trkpt><trkpt lat="45.6688096" lon="9.6766938"><ele>234.0</ele><time>2026-04-12T16:08:34.4Z</time></trkpt><trkpt lat="45.6688745" lon="9.6763358"><ele>234.0</ele><time>2026-04-12T16:08:35.393Z</time></trkpt><trkpt lat="45.6689384" lon="9.6759784"><ele>234.0</ele><time>2026-04-12T16:08:36.403Z</time></trkpt><trkpt lat="45.6690025" lon="9.6756246"><ele>234.0</ele><time>2026-04-12T16:08:37.385Z</time></trkpt><trkpt lat="45.6690669" lon="9.6752772"><ele>234.0</ele><time>2026-04-12T16:08:38.38Z</time></trkpt><trkpt lat="45.6691302" lon="9.674934"><ele>232.5</ele><time>2026-04-12T16:08:39.383Z</time></trkpt><trkpt lat="45.669192" lon="9.6745943"><ele>231.0</ele><time>2026-04-12T16:08:40.386Z</time></trkpt><trkpt lat="45.6692529" lon="9.6742545"><ele>229.5</ele><time>2026-04-12T16:08:41.411Z</time></trkpt><trkpt lat="45.6693143" lon="9.6739138"><ele>228.0</ele><time>2026-04-12T16:08:42.38Z</time></trkpt><trkpt lat="45.6693763" lon="9.6735696"><ele>227.5</ele><time>2026-04-12T16:08:43.39Z</time></trkpt><trkpt lat="45.6694404" lon="9.673218"><ele>227.0</ele><time>2026-04-12T16:08:44.39Z</time></trkpt><trkpt lat="45.6695056" lon="9.6728591"><ele>229.0</ele><time>2026-04-12T16:08:45.394Z</time></trkpt><trkpt lat="45.6695723" lon="9.6724935"><ele>231.0</ele><time>2026-04-12T16:08:46.391Z</time></trkpt><trkpt lat="45.6696387" lon="9.6721252"><ele>231.0</ele><time>2026-04-12T16:08:47.392Z</time></trkpt><trkpt lat="45.6697059" lon="9.6717562"><ele>231.0</ele><time>2026-04-12T16:08:48.403Z</time></trkpt><trkpt lat="45.6697741" lon="9.6713858"><ele>231.0</ele><time>2026-04-12T16:08:49.399Z</time></trkpt><trkpt lat="45.6698407" lon="9.6710143"><ele>231.0</ele><time>2026-04-12T16:08:50.384Z</time></trkpt><trkpt lat="45.6699008" lon="9.6706447"><ele>231.0</ele><time>2026-04-12T16:08:51.405Z</time></trkpt><trkpt lat="45.6699477" lon="9.6702755"><ele>231.0</ele><time>2026-04-12T16:08:52.391Z</time></trkpt><trkpt lat="45.6699765" lon="9.6699056"><ele>230.0</ele><time>2026-04-12T16:08:53.401Z</time></trkpt><trkpt lat="45.6699857" lon="9.6695354"><ele>229.0</ele><time>2026-04-12T16:08:54.394Z</time></trkpt><trkpt lat="45.6699787" lon="9.6691663"><ele>229.0</ele><time>2026-04-12T16:08:55.391Z</time></trkpt><trkpt lat="45.6699533" lon="9.6687992"><ele>229.0</ele><time>2026-04-12T16:08:56.393Z</time></trkpt><trkpt lat="45.6699144" lon="9.6684379"><ele>229.0</ele><time>2026-04-12T16:08:57.394Z</time></trkpt><trkpt lat="45.6698624" lon="9.6680874"><ele>229.0</ele><time>2026-04-12T16:08:58.395Z</time></trkpt><trkpt lat="45.6698048" lon="9.6677342"><ele>229.5</ele><time>2026-04-12T16:08:59.393Z</time></trkpt><trkpt lat="45.66973" lon="9.6673812"><ele>230.0</ele><time>2026-04-12T16:09:00.392Z</time></trkpt><trkpt lat="45.6696399" lon="9.6670305"><ele>229.0</ele><time>2026-04-12T16:09:01.4Z</time></trkpt><trkpt lat="45.6695322" lon="9.6666764"><ele>228.0</ele><time>2026-04-12T16:09:02.403Z</time></trkpt><trkpt lat="45.6694005" lon="9.6663281"><ele>227.5</ele><time>2026-04-12T16:09:03.402Z</time></trkpt><trkpt lat="45.6692613" lon="9.6660104"><ele>227.0</ele><time>2026-04-12T16:09:04.397Z</time></trkpt><trkpt lat="45.6691131" lon="9.6656964"><ele>227.0</ele><time>2026-04-12T16:09:05.386Z</time></trkpt><trkpt lat="45.6689504" lon="9.6653886"><ele>227.0</ele><time>2026-04-12T16:09:06.388Z</time></trkpt><trkpt lat="45.6687791" lon="9.6650819"><ele>226.0</ele><time>2026-04-12T16:09:07.387Z</time></trkpt><trkpt lat="45.6686016" lon="9.6647754"><ele>225.0</ele><time>2026-04-12T16:09:08.401Z</time></trkpt><trkpt lat="45.6684238" lon="9.6644594"><ele>224.5</ele><time>2026-04-12T16:09:09.389Z</time></trkpt><trkpt lat="45.6682455" lon="9.6641288"><ele>224.0</ele><time>2026-04-12T16:09:10.393Z</time></trkpt><trkpt lat="45.6680668" lon="9.6637843"><ele>224.0</ele><time>2026-04-12T16:09:11.39Z</time></trkpt><trkpt lat="45.6678875" lon="9.6634319"><ele>224.0</ele><time>2026-04-12T16:09:12.404Z</time></trkpt><trkpt lat="45.6677018" lon="9.6630776"><ele>224.5</ele><time>2026-04-12T16:09:13.389Z</time></trkpt><trkpt lat="45.6675119" lon="9.6627262"><ele>225.0</ele><time>2026-04-12T16:09:14.379Z</time></trkpt><trkpt lat="45.6673163" lon="9.6623744"><ele>225.0</ele><time>2026-04-12T16:09:15.392Z</time></trkpt><trkpt lat="45.667119" lon="9.6620232"><ele>225.0</ele><time>2026-04-12T16:09:16.391Z</time></trkpt><trkpt lat="45.6669218" lon="9.6616697"><ele>225.0</ele><time>2026-04-12T16:09:17.383Z</time></trkpt><trkpt lat="45.6667253" lon="9.6613141"><ele>225.0</ele><time>2026-04-12T16:09:18.393Z</time></trkpt><trkpt lat="45.6665293" lon="9.6609556"><ele>223.5</ele><time>2026-04-12T16:09:19.389Z</time></trkpt><trkpt lat="45.6663312" lon="9.6605986"><ele>222.0</ele><time>2026-04-12T16:09:20.391Z</time></trkpt><trkpt lat="45.6661337" lon="9.6602403"><ele>221.5</ele><time>2026-04-12T16:09:21.391Z</time></trkpt><trkpt lat="45.6659372" lon="9.6598833"><ele>221.0</ele><time>2026-04-12T16:09:22.396Z</time></trkpt><trkpt lat="45.6657389" lon="9.6595325"><ele>221.5</ele><time>2026-04-12T16:09:23.406Z</time></trkpt><trkpt lat="45.6655364" lon="9.6591883"><ele>222.0</ele><time>2026-04-12T16:09:24.394Z</time></trkpt><trkpt lat="45.6653359" lon="9.6588445"><ele>222.0</ele><time>2026-04-12T16:09:25.392Z</time></trkpt><trkpt lat="45.6651379" lon="9.6584959"><ele>222.0</ele><time>2026-04-12T16:09:26.387Z</time></trkpt><trkpt lat="45.6649409" lon="9.6581407"><ele>220.5</ele><time>2026-04-12T16:09:27.391Z</time></trkpt><trkpt lat="45.6647443" lon="9.6577803"><ele>219.0</ele><time>2026-04-12T16:09:28.394Z</time></trkpt><trkpt lat="45.6645488" lon="9.6574137"><ele>218.5</ele><time>2026-04-12T16:09:29.402Z</time></trkpt><trkpt lat="45.6643536" lon="9.6570439"><ele>218.0</ele><time>2026-04-12T16:09:30.39Z</time></trkpt><trkpt lat="45.6641575" lon="9.6566706"><ele>218.0</ele><time>2026-04-12T16:09:31.393Z</time></trkpt><trkpt lat="45.6639582" lon="9.6562975"><ele>218.0</ele><time>2026-04-12T16:09:32.391Z</time></trkpt><trkpt lat="45.6637585" lon="9.6559294"><ele>216.5</ele><time>2026-04-12T16:09:33.407Z</time></trkpt><trkpt lat="45.6635583" lon="9.6555618"><ele>215.0</ele><time>2026-04-12T16:09:34.391Z</time></trkpt><trkpt lat="45.6633585" lon="9.6551959"><ele>215.0</ele><time>2026-04-12T16:09:35.39Z</time></trkpt><trkpt lat="45.6631574" lon="9.6548311"><ele>215.0</ele><time>2026-04-12T16:09:36.391Z</time></trkpt><trkpt lat="45.662957" lon="9.6544697"><ele>215.5</ele><time>2026-04-12T16:09:37.385Z</time></trkpt><trkpt lat="45.6627591" lon="9.6541066"><ele>216.0</ele><time>2026-04-12T16:09:38.391Z</time></trkpt><trkpt lat="45.6625613" lon="9.6537446"><ele>215.5</ele><time>2026-04-12T16:09:39.399Z</time></trkpt><trkpt lat="45.6623635" lon="9.6533862"><ele>215.0</ele><time>2026-04-12T16:09:40.401Z</time></trkpt><trkpt lat="45.6621684" lon="9.6530286"><ele>215.0</ele><time>2026-04-12T16:09:41.394Z</time></trkpt><trkpt lat="45.6619719" lon="9.652674"><ele>215.0</ele><time>2026-04-12T16:09:42.385Z</time></trkpt><trkpt lat="45.6617761" lon="9.6523224"><ele>215.0</ele><time>2026-04-12T16:09:43.388Z</time></trkpt><trkpt lat="45.661582" lon="9.6519743"><ele>215.0</ele><time>2026-04-12T16:09:44.392Z</time></trkpt><trkpt lat="45.6613877" lon="9.6516233"><ele>215.0</ele><time>2026-04-12T16:09:45.387Z</time></trkpt><trkpt lat="45.6611917" lon="9.6512664"><ele>215.0</ele><time>2026-04-12T16:09:46.387Z</time></trkpt><trkpt lat="45.6609964" lon="9.6509024"><ele>215.0</ele><time>2026-04-12T16:09:47.392Z</time></trkpt><trkpt lat="45.6607992" lon="9.6505406"><ele>215.0</ele><time>2026-04-12T16:09:48.389Z</time></trkpt><trkpt lat="45.660601" lon="9.6501779"><ele>215.0</ele><time>2026-04-12T16:09:49.389Z</time></trkpt><trkpt lat="45.6604017" lon="9.6498184"><ele>215.0</ele><time>2026-04-12T16:09:50.384Z</time></trkpt><trkpt lat="45.6602018" lon="9.6494588"><ele>211.5</ele><time>2026-04-12T16:09:51.399Z</time></trkpt><trkpt lat="45.6600018" lon="9.6491019"><ele>208.0</ele><time>2026-04-12T16:09:52.393Z</time></trkpt><trkpt lat="45.6598032" lon="9.6487436"><ele>207.5</ele><time>2026-04-12T16:09:53.411Z</time></trkpt><trkpt lat="45.6596052" lon="9.6483828"><ele>207.0</ele><time>2026-04-12T16:09:54.392Z</time></trkpt><trkpt lat="45.6594072" lon="9.6480214"><ele>207.5</ele><time>2026-04-12T16:09:55.398Z</time></trkpt><trkpt lat="45.6592107" lon="9.6476598"><ele>208.0</ele><time>2026-04-12T16:09:56.402Z</time></trkpt><trkpt lat="45.6590125" lon="9.6472983"><ele>207.5</ele><time>2026-04-12T16:09:57.39Z</time></trkpt><trkpt lat="45.6588123" lon="9.646937"><ele>207.0</ele><time>2026-04-12T16:09:58.385Z</time></trkpt><trkpt lat="45.6586096" lon="9.6465739"><ele>207.0</ele><time>2026-04-12T16:09:59.381Z</time></trkpt><trkpt lat="45.6584049" lon="9.6462066"><ele>207.0</ele><time>2026-04-12T16:10:00.392Z</time></trkpt><trkpt lat="45.6581989" lon="9.645838"><ele>207.5</ele><time>2026-04-12T16:10:01.391Z</time></trkpt><trkpt lat="45.657992" lon="9.6454725"><ele>208.0</ele><time>2026-04-12T16:10:02.396Z</time></trkpt><trkpt lat="45.657787" lon="9.6451068"><ele>208.0</ele><time>2026-04-12T16:10:03.398Z</time></trkpt><trkpt lat="45.6575837" lon="9.6447451"><ele>208.0</ele><time>2026-04-12T16:10:04.406Z</time></trkpt><trkpt lat="45.6573851" lon="9.6443911"><ele>208.0</ele><time>2026-04-12T16:10:05.383Z</time></trkpt><trkpt lat="45.6571946" lon="9.6440499"><ele>208.0</ele><time>2026-04-12T16:10:06.388Z</time></trkpt><trkpt lat="45.6570106" lon="9.6437137"><ele>208.5</ele><time>2026-04-12T16:10:07.396Z</time></trkpt><trkpt lat="45.6568278" lon="9.6433804"><ele>209.0</ele><time>2026-04-12T16:10:08.389Z</time></trkpt><trkpt lat="45.6566462" lon="9.643055"><ele>208.5</ele><time>2026-04-12T16:10:09.401Z</time></trkpt><trkpt lat="45.6564666" lon="9.6427387"><ele>208.0</ele><time>2026-04-12T16:10:10.392Z</time></trkpt><trkpt lat="45.6562892" lon="9.6424245"><ele>208.0</ele><time>2026-04-12T16:10:11.394Z</time></trkpt><trkpt lat="45.65611" lon="9.6421082"><ele>208.0</ele><time>2026-04-12T16:10:12.385Z</time></trkpt><trkpt lat="45.6559281" lon="9.6417841"><ele>208.0</ele><time>2026-04-12T16:10:13.396Z</time></trkpt><trkpt lat="45.6557445" lon="9.6414514"><ele>208.0</ele><time>2026-04-12T16:10:14.387Z</time></trkpt><trkpt lat="45.6555573" lon="9.6411116"><ele>208.0</ele><time>2026-04-12T16:10:15.387Z</time></trkpt><trkpt lat="45.6553661" lon="9.6407608"><ele>208.0</ele><time>2026-04-12T16:10:16.392Z</time></trkpt><trkpt lat="45.6551733" lon="9.6404063"><ele>206.5</ele><time>2026-04-12T16:10:17.404Z</time></trkpt><trkpt lat="45.6549767" lon="9.6400498"><ele>205.0</ele><time>2026-04-12T16:10:18.387Z</time></trkpt><trkpt lat="45.6547786" lon="9.639689"><ele>205.0</ele><time>2026-04-12T16:10:19.388Z</time></trkpt><trkpt lat="45.6545799" lon="9.6393286"><ele>205.0</ele><time>2026-04-12T16:10:20.395Z</time></trkpt><trkpt lat="45.6543835" lon="9.6389665"><ele>204.0</ele><time>2026-04-12T16:10:21.393Z</time></trkpt><trkpt lat="45.6541854" lon="9.6386072"><ele>203.0</ele><time>2026-04-12T16:10:22.399Z</time></trkpt><trkpt lat="45.6539864" lon="9.6382492"><ele>203.0</ele><time>2026-04-12T16:10:23.392Z</time></trkpt><trkpt lat="45.6537881" lon="9.6378902"><ele>203.0</ele><time>2026-04-12T16:10:24.391Z</time></trkpt><trkpt lat="45.65359" lon="9.6375305"><ele>203.0</ele><time>2026-04-12T16:10:25.382Z</time></trkpt><trkpt lat="45.653393" lon="9.6371717"><ele>203.0</ele><time>2026-04-12T16:10:26.404Z</time></trkpt><trkpt lat="45.6531961" lon="9.6368136"><ele>203.0</ele><time>2026-04-12T16:10:27.383Z</time></trkpt><trkpt lat="45.6529992" lon="9.6364601"><ele>203.0</ele><time>2026-04-12T16:10:28.406Z</time></trkpt><trkpt lat="45.6528049" lon="9.6361132"><ele>203.0</ele><time>2026-04-12T16:10:29.388Z</time></trkpt><trkpt lat="45.6526118" lon="9.6357737"><ele>203.0</ele><time>2026-04-12T16:10:30.384Z</time></trkpt><trkpt lat="45.6524211" lon="9.6354329"><ele>203.5</ele><time>2026-04-12T16:10:31.389Z</time></trkpt><trkpt lat="45.6522303" lon="9.6350931"><ele>204.0</ele><time>2026-04-12T16:10:32.384Z</time></trkpt><trkpt lat="45.6520403" lon="9.6347543"><ele>203.0</ele><time>2026-04-12T16:10:33.39Z</time></trkpt><trkpt lat="45.6518518" lon="9.6344115"><ele>202.0</ele><time>2026-04-12T16:10:34.385Z</time></trkpt><trkpt lat="45.651665" lon="9.6340658"><ele>202.0</ele><time>2026-04-12T16:10:35.406Z</time></trkpt><trkpt lat="45.6514801" lon="9.6337141"><ele>202.0</ele><time>2026-04-12T16:10:36.39Z</time></trkpt><trkpt lat="45.6512937" lon="9.6333589"><ele>201.0</ele><time>2026-04-12T16:10:37.391Z</time></trkpt><trkpt lat="45.6511036" lon="9.6330012"><ele>200.0</ele><time>2026-04-12T16:10:38.386Z</time></trkpt><trkpt lat="45.65091" lon="9.6326426"><ele>200.0</ele><time>2026-04-12T16:10:39.392Z</time></trkpt><trkpt lat="45.6507105" lon="9.6322837"><ele>200.0</ele><time>2026-04-12T16:10:40.386Z</time></trkpt><trkpt lat="45.6505097" lon="9.6319221"><ele>200.0</ele><time>2026-04-12T16:10:41.395Z</time></trkpt><trkpt lat="45.6503086" lon="9.6315589"><ele>200.0</ele><time>2026-04-12T16:10:42.4Z</time></trkpt><trkpt lat="45.6501071" lon="9.631195"><ele>199.5</ele><time>2026-04-12T16:10:43.4Z</time></trkpt><trkpt lat="45.6499057" lon="9.6308299"><ele>199.0</ele><time>2026-04-12T16:10:44.388Z</time></trkpt><trkpt lat="45.6497053" lon="9.6304658"><ele>199.5</ele><time>2026-04-12T16:10:45.387Z</time></trkpt><trkpt lat="45.6495049" lon="9.6301023"><ele>200.0</ele><time>2026-04-12T16:10:46.39Z</time></trkpt><trkpt lat="45.6493023" lon="9.6297432"><ele>200.5</ele><time>2026-04-12T16:10:47.392Z</time></trkpt><trkpt lat="45.6491" lon="9.6293836"><ele>201.0</ele><time>2026-04-12T16:10:48.391Z</time></trkpt><trkpt lat="45.6489004" lon="9.6290246"><ele>201.0</ele><time>2026-04-12T16:10:49.4Z</time></trkpt><trkpt lat="45.6487012" lon="9.6286646"><ele>201.0</ele><time>2026-04-12T16:10:50.397Z</time></trkpt><trkpt lat="45.6485018" lon="9.6283057"><ele>200.5</ele><time>2026-04-12T16:10:51.396Z</time></trkpt><trkpt lat="45.6483033" lon="9.6279493"><ele>200.0</ele><time>2026-04-12T16:10:52.402Z</time></trkpt><trkpt lat="45.6481038" lon="9.6275939"><ele>200.0</ele><time>2026-04-12T16:10:53.392Z</time></trkpt><trkpt lat="45.647905" lon="9.6272379"><ele>200.0</ele><time>2026-04-12T16:10:54.394Z</time></trkpt><trkpt lat="45.6477069" lon="9.6268822"><ele>199.0</ele><time>2026-04-12T16:10:55.386Z</time></trkpt><trkpt lat="45.6475095" lon="9.6265248"><ele>198.0</ele><time>2026-04-12T16:10:56.408Z</time></trkpt><trkpt lat="45.6473136" lon="9.6261649"><ele>198.0</ele><time>2026-04-12T16:10:57.393Z</time></trkpt><trkpt lat="45.6471216" lon="9.6258105"><ele>198.0</ele><time>2026-04-12T16:10:58.383Z</time></trkpt><trkpt lat="45.6469255" lon="9.6254554"><ele>198.0</ele><time>2026-04-12T16:10:59.385Z</time></trkpt><trkpt lat="45.6467253" lon="9.6250979"><ele>198.0</ele><time>2026-04-12T16:11:00.392Z</time></trkpt><trkpt lat="45.6465265" lon="9.6247461"><ele>198.0</ele><time>2026-04-12T16:11:01.39Z</time></trkpt><trkpt lat="45.6463265" lon="9.6243924"><ele>198.0</ele><time>2026-04-12T16:11:02.392Z</time></trkpt><trkpt lat="45.6461271" lon="9.6240368"><ele>198.0</ele><time>2026-04-12T16:11:03.403Z</time></trkpt><trkpt lat="45.6459279" lon="9.6236813"><ele>198.0</ele><time>2026-04-12T16:11:04.39Z</time></trkpt><trkpt lat="45.6457295" lon="9.6233234"><ele>199.0</ele><time>2026-04-12T16:11:05.391Z</time></trkpt><trkpt lat="45.645531" lon="9.6229648"><ele>200.0</ele><time>2026-04-12T16:11:06.39Z</time></trkpt><trkpt lat="45.6453305" lon="9.6226088"><ele>199.5</ele><time>2026-04-12T16:11:07.394Z</time></trkpt><trkpt lat="45.6451303" lon="9.6222514"><ele>199.0</ele><time>2026-04-12T16:11:08.398Z</time></trkpt><trkpt lat="45.6449296" lon="9.6218905"><ele>198.5</ele><time>2026-04-12T16:11:09.403Z</time></trkpt><trkpt lat="45.6447293" lon="9.6215316"><ele>198.0</ele><time>2026-04-12T16:11:10.384Z</time></trkpt><trkpt lat="45.6445285" lon="9.6211726"><ele>197.5</ele><time>2026-04-12T16:11:11.392Z</time></trkpt><trkpt lat="45.6443277" lon="9.6208122"><ele>197.0</ele><time>2026-04-12T16:11:12.391Z</time></trkpt><trkpt lat="45.6441314" lon="9.6204499"><ele>198.0</ele><time>2026-04-12T16:11:13.392Z</time></trkpt><trkpt lat="45.6439379" lon="9.6200874"><ele>199.0</ele><time>2026-04-12T16:11:14.393Z</time></trkpt><trkpt lat="45.6437444" lon="9.6197256"><ele>198.0</ele><time>2026-04-12T16:11:15.402Z</time></trkpt><trkpt lat="45.6435525" lon="9.6193633"><ele>197.0</ele><time>2026-04-12T16:11:16.388Z</time></trkpt><trkpt lat="45.6433589" lon="9.6189997"><ele>197.5</ele><time>2026-04-12T16:11:17.391Z</time></trkpt><trkpt lat="45.6431641" lon="9.6186406"><ele>198.0</ele><time>2026-04-12T16:11:18.392Z</time></trkpt><trkpt lat="45.6429673" lon="9.6182819"><ele>197.5</ele><time>2026-04-12T16:11:19.389Z</time></trkpt><trkpt lat="45.6427691" lon="9.6179257"><ele>197.0</ele><time>2026-04-12T16:11:20.405Z</time></trkpt><trkpt lat="45.6425706" lon="9.6175684"><ele>198.0</ele><time>2026-04-12T16:11:21.393Z</time></trkpt><trkpt lat="45.6423727" lon="9.6172121"><ele>199.0</ele><time>2026-04-12T16:11:22.392Z</time></trkpt><trkpt lat="45.6421742" lon="9.6168588"><ele>199.0</ele><time>2026-04-12T16:11:23.383Z</time></trkpt><trkpt lat="45.6419746" lon="9.6165116"><ele>199.0</ele><time>2026-04-12T16:11:24.393Z</time></trkpt><trkpt lat="45.6417741" lon="9.6161723"><ele>199.5</ele><time>2026-04-12T16:11:25.388Z</time></trkpt><trkpt lat="45.6415749" lon="9.6158324"><ele>200.0</ele><time>2026-04-12T16:11:26.393Z</time></trkpt><trkpt lat="45.6413798" lon="9.6154933"><ele>199.0</ele><time>2026-04-12T16:11:27.386Z</time></trkpt><trkpt lat="45.6411889" lon="9.6151576"><ele>198.0</ele><time>2026-04-12T16:11:28.393Z</time></trkpt><trkpt lat="45.6410009" lon="9.6148253"><ele>197.5</ele><time>2026-04-12T16:11:29.391Z</time></trkpt><trkpt lat="45.6408149" lon="9.6144948"><ele>197.0</ele><time>2026-04-12T16:11:30.392Z</time></trkpt><trkpt lat="45.6406289" lon="9.6141662"><ele>197.0</ele><time>2026-04-12T16:11:31.39Z</time></trkpt><trkpt lat="45.6404452" lon="9.6138433"><ele>197.0</ele><time>2026-04-12T16:11:32.39Z</time></trkpt><trkpt lat="45.6402641" lon="9.6135313"><ele>197.5</ele><time>2026-04-12T16:11:33.393Z</time></trkpt><trkpt lat="45.6400878" lon="9.6132293"><ele>198.0</ele><time>2026-04-12T16:11:34.387Z</time></trkpt><trkpt lat="45.6399161" lon="9.6129291"><ele>197.0</ele><time>2026-04-12T16:11:35.391Z</time></trkpt><trkpt lat="45.6397446" lon="9.6126248"><ele>196.0</ele><time>2026-04-12T16:11:36.405Z</time></trkpt><trkpt lat="45.6395718" lon="9.6123207"><ele>197.0</ele><time>2026-04-12T16:11:37.388Z</time></trkpt><trkpt lat="45.6393987" lon="9.6120163"><ele>198.0</ele><time>2026-04-12T16:11:38.393Z</time></trkpt><trkpt lat="45.6392245" lon="9.6117118"><ele>198.0</ele><time>2026-04-12T16:11:39.391Z</time></trkpt><trkpt lat="45.6390466" lon="9.611406"><ele>198.0</ele><time>2026-04-12T16:11:40.386Z</time></trkpt><trkpt lat="45.6388639" lon="9.6110931"><ele>198.0</ele><time>2026-04-12T16:11:41.411Z</time></trkpt><trkpt lat="45.6386789" lon="9.6107742"><ele>198.0</ele><time>2026-04-12T16:11:42.392Z</time></trkpt><trkpt lat="45.6384939" lon="9.610449"><ele>198.0</ele><time>2026-04-12T16:11:43.393Z</time></trkpt><trkpt lat="45.6383104" lon="9.6101187"><ele>198.0</ele><time>2026-04-12T16:11:44.387Z</time></trkpt><trkpt lat="45.6381267" lon="9.6097836"><ele>197.5</ele><time>2026-04-12T16:11:45.395Z</time></trkpt><trkpt lat="45.6379427" lon="9.6094485"><ele>197.0</ele><time>2026-04-12T16:11:46.394Z</time></trkpt><trkpt lat="45.637757" lon="9.6091117"><ele>196.0</ele><time>2026-04-12T16:11:47.388Z</time></trkpt><trkpt lat="45.6375676" lon="9.6087707"><ele>195.0</ele><time>2026-04-12T16:11:48.408Z</time></trkpt><trkpt lat="45.6373768" lon="9.6084249"><ele>195.0</ele><time>2026-04-12T16:11:49.39Z</time></trkpt><trkpt lat="45.6371831" lon="9.608077"><ele>195.0</ele><time>2026-04-12T16:11:50.391Z</time></trkpt><trkpt lat="45.6369868" lon="9.6077247"><ele>197.0</ele><time>2026-04-12T16:11:51.393Z</time></trkpt><trkpt lat="45.6367887" lon="9.6073693"><ele>199.0</ele><time>2026-04-12T16:11:52.395Z</time></trkpt><trkpt lat="45.6365901" lon="9.6070113"><ele>201.0</ele><time>2026-04-12T16:11:53.392Z</time></trkpt><trkpt lat="45.6363926" lon="9.6066495"><ele>203.0</ele><time>2026-04-12T16:11:54.391Z</time></trkpt><trkpt lat="45.6361951" lon="9.6062848"><ele>198.5</ele><time>2026-04-12T16:11:55.389Z</time></trkpt><trkpt lat="45.6359964" lon="9.6059214"><ele>194.0</ele><time>2026-04-12T16:11:56.406Z</time></trkpt><trkpt lat="45.6357961" lon="9.6055592"><ele>195.5</ele><time>2026-04-12T16:11:57.388Z</time></trkpt><trkpt lat="45.6355931" lon="9.6052007"><ele>197.0</ele><time>2026-04-12T16:11:58.401Z</time></trkpt><trkpt lat="45.6353895" lon="9.6048452"><ele>197.5</ele><time>2026-04-12T16:11:59.38Z</time></trkpt><trkpt lat="45.6351859" lon="9.6044872"><ele>198.0</ele><time>2026-04-12T16:12:00.39Z</time></trkpt><trkpt lat="45.6349839" lon="9.6041292"><ele>198.0</ele><time>2026-04-12T16:12:01.391Z</time></trkpt><trkpt lat="45.6347844" lon="9.6037707"><ele>198.0</ele><time>2026-04-12T16:12:02.393Z</time></trkpt><trkpt lat="45.6345867" lon="9.6034114"><ele>195.0</ele><time>2026-04-12T16:12:03.401Z</time></trkpt><trkpt lat="45.6343903" lon="9.6030535"><ele>192.0</ele><time>2026-04-12T16:12:04.399Z</time></trkpt><trkpt lat="45.6341954" lon="9.6026957"><ele>192.0</ele><time>2026-04-12T16:12:05.391Z</time></trkpt><trkpt lat="45.6340028" lon="9.6023356"><ele>192.0</ele><time>2026-04-12T16:12:06.392Z</time></trkpt><trkpt lat="45.633812" lon="9.6019761"><ele>192.0</ele><time>2026-04-12T16:12:07.402Z</time></trkpt><trkpt lat="45.6336216" lon="9.601621"><ele>192.0</ele><time>2026-04-12T16:12:08.394Z</time></trkpt><trkpt lat="45.6334304" lon="9.601269"><ele>190.0</ele><time>2026-04-12T16:12:09.393Z</time></trkpt><trkpt lat="45.6332392" lon="9.6009187"><ele>188.0</ele><time>2026-04-12T16:12:10.388Z</time></trkpt><trkpt lat="45.6330471" lon="9.6005712"><ele>188.5</ele><time>2026-04-12T16:12:11.392Z</time></trkpt><trkpt lat="45.632854" lon="9.6002244"><ele>189.0</ele><time>2026-04-12T16:12:12.394Z</time></trkpt><trkpt lat="45.6326604" lon="9.5998796"><ele>189.0</ele><time>2026-04-12T16:12:13.394Z</time></trkpt><trkpt lat="45.6324669" lon="9.599531"><ele>189.0</ele><time>2026-04-12T16:12:14.401Z</time></trkpt><trkpt lat="45.6322738" lon="9.5991808"><ele>188.5</ele><time>2026-04-12T16:12:15.392Z</time></trkpt><trkpt lat="45.6320799" lon="9.5988318"><ele>188.0</ele><time>2026-04-12T16:12:16.392Z</time></trkpt><trkpt lat="45.6318859" lon="9.5984851"><ele>188.0</ele><time>2026-04-12T16:12:17.389Z</time></trkpt><trkpt lat="45.6316921" lon="9.5981378"><ele>188.0</ele><time>2026-04-12T16:12:18.392Z</time></trkpt><trkpt lat="45.6314963" lon="9.5977903"><ele>188.0</ele><time>2026-04-12T16:12:19.394Z</time></trkpt><trkpt lat="45.6313007" lon="9.5974439"><ele>188.0</ele><time>2026-04-12T16:12:20.384Z</time></trkpt><trkpt lat="45.6311055" lon="9.5970993"><ele>189.5</ele><time>2026-04-12T16:12:21.41Z</time></trkpt><trkpt lat="45.630912" lon="9.5967556"><ele>191.0</ele><time>2026-04-12T16:12:22.403Z</time></trkpt><trkpt lat="45.6307166" lon="9.5964175"><ele>190.5</ele><time>2026-04-12T16:12:23.391Z</time></trkpt><trkpt lat="45.6305212" lon="9.5960848"><ele>190.0</ele><time>2026-04-12T16:12:24.39Z</time></trkpt><trkpt lat="45.630329" lon="9.595756"><ele>190.5</ele><time>2026-04-12T16:12:25.393Z</time></trkpt><trkpt lat="45.6301411" lon="9.5954274"><ele>191.0</ele><time>2026-04-12T16:12:26.383Z</time></trkpt><trkpt lat="45.6299551" lon="9.5950935"><ele>191.5</ele><time>2026-04-12T16:12:27.392Z</time></trkpt><trkpt lat="45.6297665" lon="9.5947542"><ele>192.0</ele><time>2026-04-12T16:12:28.392Z</time></trkpt><trkpt lat="45.6295766" lon="9.5944073"><ele>191.0</ele><time>2026-04-12T16:12:29.397Z</time></trkpt><trkpt lat="45.629383" lon="9.5940568"><ele>190.0</ele><time>2026-04-12T16:12:30.383Z</time></trkpt><trkpt lat="45.6291894" lon="9.5937089"><ele>190.5</ele><time>2026-04-12T16:12:31.387Z</time></trkpt><trkpt lat="45.6289986" lon="9.5933641"><ele>191.0</ele><time>2026-04-12T16:12:32.381Z</time></trkpt><trkpt lat="45.628808" lon="9.5930231"><ele>190.0</ele><time>2026-04-12T16:12:33.39Z</time></trkpt><trkpt lat="45.628619" lon="9.5926858"><ele>189.0</ele><time>2026-04-12T16:12:34.389Z</time></trkpt><trkpt lat="45.6284305" lon="9.5923494"><ele>189.0</ele><time>2026-04-12T16:12:35.392Z</time></trkpt><trkpt lat="45.6282418" lon="9.5920109"><ele>189.0</ele><time>2026-04-12T16:12:36.39Z</time></trkpt><trkpt lat="45.628053" lon="9.5916683"><ele>188.5</ele><time>2026-04-12T16:12:37.39Z</time></trkpt><trkpt lat="45.6278642" lon="9.5913228"><ele>188.0</ele><time>2026-04-12T16:12:38.382Z</time></trkpt><trkpt lat="45.6276757" lon="9.5909799"><ele>188.0</ele><time>2026-04-12T16:12:39.385Z</time></trkpt><trkpt lat="45.6274892" lon="9.5906365"><ele>188.0</ele><time>2026-04-12T16:12:40.387Z</time></trkpt><trkpt lat="45.6273041" lon="9.5902978"><ele>188.5</ele><time>2026-04-12T16:12:41.39Z</time></trkpt><trkpt lat="45.6271191" lon="9.589965"><ele>189.0</ele><time>2026-04-12T16:12:42.388Z</time></trkpt><trkpt lat="45.6269333" lon="9.5896381"><ele>187.5</ele><time>2026-04-12T16:12:43.387Z</time></trkpt><trkpt lat="45.6267471" lon="9.58931"><ele>186.0</ele><time>2026-04-12T16:12:44.392Z</time></trkpt><trkpt lat="45.6265623" lon="9.588978"><ele>186.5</ele><time>2026-04-12T16:12:45.404Z</time></trkpt><trkpt lat="45.6263751" lon="9.5886418"><ele>187.0</ele><time>2026-04-12T16:12:46.389Z</time></trkpt><trkpt lat="45.6261881" lon="9.5883058"><ele>187.0</ele><time>2026-04-12T16:12:47.393Z</time></trkpt><trkpt lat="45.6260036" lon="9.5879696"><ele>187.0</ele><time>2026-04-12T16:12:48.384Z</time></trkpt><trkpt lat="45.6258205" lon="9.5876351"><ele>187.0</ele><time>2026-04-12T16:12:49.388Z</time></trkpt><trkpt lat="45.6256378" lon="9.5873016"><ele>187.0</ele><time>2026-04-12T16:12:50.4Z</time></trkpt><trkpt lat="45.6254553" lon="9.5869713"><ele>186.5</ele><time>2026-04-12T16:12:51.39Z</time></trkpt><trkpt lat="45.6252716" lon="9.5866424"><ele>186.0</ele><time>2026-04-12T16:12:52.38Z</time></trkpt><trkpt lat="45.6250899" lon="9.586313"><ele>187.0</ele><time>2026-04-12T16:12:53.402Z</time></trkpt><trkpt lat="45.6249106" lon="9.5859865"><ele>188.0</ele><time>2026-04-12T16:12:54.381Z</time></trkpt><trkpt lat="45.6247378" lon="9.5856632"><ele>188.0</ele><time>2026-04-12T16:12:55.409Z</time></trkpt><trkpt lat="45.62457" lon="9.585346"><ele>188.0</ele><time>2026-04-12T16:12:56.391Z</time></trkpt><trkpt lat="45.6244055" lon="9.5850341"><ele>188.0</ele><time>2026-04-12T16:12:57.384Z</time></trkpt><trkpt lat="45.6242419" lon="9.5847162"><ele>188.0</ele><time>2026-04-12T16:12:58.391Z</time></trkpt><trkpt lat="45.6240729" lon="9.5843864"><ele>188.0</ele><time>2026-04-12T16:12:59.384Z</time></trkpt><trkpt lat="45.6238991" lon="9.5840409"><ele>188.0</ele><time>2026-04-12T16:13:00.394Z</time></trkpt><trkpt lat="45.6237202" lon="9.583672"><ele>186.5</ele><time>2026-04-12T16:13:01.407Z</time></trkpt><trkpt lat="45.6235465" lon="9.5832916"><ele>185.0</ele><time>2026-04-12T16:13:02.389Z</time></trkpt><trkpt lat="45.623378" lon="9.5828992"><ele>184.5</ele><time>2026-04-12T16:13:03.384Z</time></trkpt><trkpt lat="45.6232155" lon="9.5824995"><ele>184.0</ele><time>2026-04-12T16:13:04.382Z</time></trkpt><trkpt lat="45.6230593" lon="9.582095"><ele>184.0</ele><time>2026-04-12T16:13:05.387Z</time></trkpt><trkpt lat="45.6229123" lon="9.5816885"><ele>184.0</ele><time>2026-04-12T16:13:06.391Z</time></trkpt><trkpt lat="45.6227733" lon="9.5812758"><ele>184.5</ele><time>2026-04-12T16:13:07.411Z</time></trkpt><trkpt lat="45.6226416" lon="9.5808599"><ele>185.0</ele><time>2026-04-12T16:13:08.397Z</time></trkpt><trkpt lat="45.622511" lon="9.5804444"><ele>185.0</ele><time>2026-04-12T16:13:09.403Z</time></trkpt><trkpt lat="45.6223784" lon="9.5800314"><ele>185.0</ele><time>2026-04-12T16:13:10.383Z</time></trkpt><trkpt lat="45.622245" lon="9.5796218"><ele>186.5</ele><time>2026-04-12T16:13:11.395Z</time></trkpt><trkpt lat="45.6221129" lon="9.5792122"><ele>188.0</ele><time>2026-04-12T16:13:12.392Z</time></trkpt><trkpt lat="45.6219804" lon="9.578804"><ele>185.5</ele><time>2026-04-12T16:13:13.396Z</time></trkpt><trkpt lat="45.6218469" lon="9.5783966"><ele>183.0</ele><time>2026-04-12T16:13:14.401Z</time></trkpt><trkpt lat="45.6217128" lon="9.5779905"><ele>182.0</ele><time>2026-04-12T16:13:15.402Z</time></trkpt><trkpt lat="45.6215782" lon="9.5775861"><ele>181.0</ele><time>2026-04-12T16:13:16.391Z</time></trkpt><trkpt lat="45.6214448" lon="9.5771806"><ele>182.0</ele><time>2026-04-12T16:13:17.404Z</time></trkpt><trkpt lat="45.6213104" lon="9.5767773"><ele>183.0</ele><time>2026-04-12T16:13:18.394Z</time></trkpt><trkpt lat="45.6211748" lon="9.5763753"><ele>183.0</ele><time>2026-04-12T16:13:19.391Z</time></trkpt><trkpt lat="45.6210384" lon="9.5759746"><ele>183.0</ele><time>2026-04-12T16:13:20.393Z</time></trkpt><trkpt lat="45.6209016" lon="9.5755755"><ele>183.5</ele><time>2026-04-12T16:13:21.394Z</time></trkpt><trkpt lat="45.6207633" lon="9.5751769"><ele>184.0</ele><time>2026-04-12T16:13:22.403Z</time></trkpt><trkpt lat="45.6206264" lon="9.5747781"><ele>184.0</ele><time>2026-04-12T16:13:23.391Z</time></trkpt><trkpt lat="45.6204902" lon="9.5743768"><ele>184.0</ele><time>2026-04-12T16:13:24.408Z</time></trkpt><trkpt lat="45.620355" lon="9.5739738"><ele>183.5</ele><time>2026-04-12T16:13:25.402Z</time></trkpt><trkpt lat="45.6202192" lon="9.5735696"><ele>183.0</ele><time>2026-04-12T16:13:26.399Z</time></trkpt><trkpt lat="45.6200819" lon="9.5731647"><ele>182.5</ele><time>2026-04-12T16:13:27.404Z</time></trkpt><trkpt lat="45.6199423" lon="9.5727612"><ele>182.0</ele><time>2026-04-12T16:13:28.392Z</time></trkpt><trkpt lat="45.6198013" lon="9.5723565"><ele>181.0</ele><time>2026-04-12T16:13:29.395Z</time></trkpt><trkpt lat="45.6196573" lon="9.5719525"><ele>180.0</ele><time>2026-04-12T16:13:30.397Z</time></trkpt><trkpt lat="45.6195117" lon="9.5715507"><ele>180.0</ele><time>2026-04-12T16:13:31.391Z</time></trkpt><trkpt lat="45.6193675" lon="9.5711487"><ele>180.0</ele><time>2026-04-12T16:13:32.401Z</time></trkpt><trkpt lat="45.6192246" lon="9.570746"><ele>180.5</ele><time>2026-04-12T16:13:33.383Z</time></trkpt><trkpt lat="45.6190822" lon="9.5703412"><ele>181.0</ele><time>2026-04-12T16:13:34.383Z</time></trkpt><trkpt lat="45.6189436" lon="9.5699343"><ele>181.0</ele><time>2026-04-12T16:13:35.394Z</time></trkpt><trkpt lat="45.6188078" lon="9.5695272"><ele>181.0</ele><time>2026-04-12T16:13:36.392Z</time></trkpt><trkpt lat="45.6186726" lon="9.569121"><ele>180.5</ele><time>2026-04-12T16:13:37.406Z</time></trkpt><trkpt lat="45.6185376" lon="9.5687178"><ele>180.0</ele><time>2026-04-12T16:13:38.386Z</time></trkpt><trkpt lat="45.618402" lon="9.5683126"><ele>180.0</ele><time>2026-04-12T16:13:39.386Z</time></trkpt><trkpt lat="45.6182641" lon="9.5679065"><ele>180.0</ele><time>2026-04-12T16:13:40.391Z</time></trkpt><trkpt lat="45.6181248" lon="9.5675001"><ele>179.5</ele><time>2026-04-12T16:13:41.397Z</time></trkpt><trkpt lat="45.6179859" lon="9.567096"><ele>179.0</ele><time>2026-04-12T16:13:42.393Z</time></trkpt><trkpt lat="45.6178479" lon="9.566696"><ele>178.5</ele><time>2026-04-12T16:13:43.4Z</time></trkpt><trkpt lat="45.6177112" lon="9.5662979"><ele>178.0</ele><time>2026-04-12T16:13:44.4Z</time></trkpt><trkpt lat="45.6175741" lon="9.5658987"><ele>178.0</ele><time>2026-04-12T16:13:45.401Z</time></trkpt><trkpt lat="45.617437" lon="9.5654974"><ele>178.0</ele><time>2026-04-12T16:13:46.409Z</time></trkpt><trkpt lat="45.6172981" lon="9.5650959"><ele>178.0</ele><time>2026-04-12T16:13:47.4Z</time></trkpt><trkpt lat="45.6171583" lon="9.5646939"><ele>178.0</ele><time>2026-04-12T16:13:48.403Z</time></trkpt><trkpt lat="45.6170191" lon="9.5642961"><ele>177.0</ele><time>2026-04-12T16:13:49.39Z</time></trkpt><trkpt lat="45.6168821" lon="9.5639053"><ele>176.0</ele><time>2026-04-12T16:13:50.39Z</time></trkpt><trkpt lat="45.6167486" lon="9.5635155"><ele>176.0</ele><time>2026-04-12T16:13:51.391Z</time></trkpt><trkpt lat="45.616616" lon="9.5631243"><ele>176.0</ele><time>2026-04-12T16:13:52.393Z</time></trkpt><trkpt lat="45.6164836" lon="9.5627326"><ele>176.0</ele><time>2026-04-12T16:13:53.408Z</time></trkpt><trkpt lat="45.616354" lon="9.5623427"><ele>176.0</ele><time>2026-04-12T16:13:54.389Z</time></trkpt><trkpt lat="45.6162284" lon="9.5619583"><ele>174.5</ele><time>2026-04-12T16:13:55.391Z</time></trkpt><trkpt lat="45.6161064" lon="9.5615844"><ele>173.0</ele><time>2026-04-12T16:13:56.401Z</time></trkpt><trkpt lat="45.6159855" lon="9.561223"><ele>173.0</ele><time>2026-04-12T16:13:57.392Z</time></trkpt><trkpt lat="45.6158651" lon="9.5608786"><ele>173.0</ele><time>2026-04-12T16:13:58.402Z</time></trkpt><trkpt lat="45.6157493" lon="9.5605442"><ele>172.0</ele><time>2026-04-12T16:13:59.387Z</time></trkpt><trkpt lat="45.6156316" lon="9.5602078"><ele>171.0</ele><time>2026-04-12T16:14:00.39Z</time></trkpt><trkpt lat="45.6155154" lon="9.5598643"><ele>171.5</ele><time>2026-04-12T16:14:01.39Z</time></trkpt><trkpt lat="45.6153987" lon="9.5595168"><ele>172.0</ele><time>2026-04-12T16:14:02.384Z</time></trkpt><trkpt lat="45.6152811" lon="9.559167"><ele>173.5</ele><time>2026-04-12T16:14:03.392Z</time></trkpt><trkpt lat="45.6151639" lon="9.5588175"><ele>175.0</ele><time>2026-04-12T16:14:04.389Z</time></trkpt><trkpt lat="45.6150461" lon="9.5584668"><ele>175.0</ele><time>2026-04-12T16:14:05.397Z</time></trkpt><trkpt lat="45.6149275" lon="9.5581158"><ele>175.0</ele><time>2026-04-12T16:14:06.391Z</time></trkpt><trkpt lat="45.6148101" lon="9.5577629"><ele>177.0</ele><time>2026-04-12T16:14:07.404Z</time></trkpt><trkpt lat="45.6146925" lon="9.5574081"><ele>179.0</ele><time>2026-04-12T16:14:08.402Z</time></trkpt><trkpt lat="45.614577" lon="9.5570493"><ele>178.0</ele><time>2026-04-12T16:14:09.383Z</time></trkpt><trkpt lat="45.6144611" lon="9.5566839"><ele>177.0</ele><time>2026-04-12T16:14:10.387Z</time></trkpt><trkpt lat="45.6143435" lon="9.556317"><ele>177.0</ele><time>2026-04-12T16:14:11.395Z</time></trkpt><trkpt lat="45.6142259" lon="9.5559518"><ele>177.0</ele><time>2026-04-12T16:14:12.394Z</time></trkpt><trkpt lat="45.614109" lon="9.5555945"><ele>179.5</ele><time>2026-04-12T16:14:13.393Z</time></trkpt><trkpt lat="45.6139954" lon="9.5552459"><ele>182.0</ele><time>2026-04-12T16:14:14.392Z</time></trkpt><trkpt lat="45.6138864" lon="9.5549068"><ele>182.0</ele><time>2026-04-12T16:14:15.395Z</time></trkpt><trkpt lat="45.6137789" lon="9.5545757"><ele>182.0</ele><time>2026-04-12T16:14:16.387Z</time></trkpt><trkpt lat="45.6136726" lon="9.5542489"><ele>180.5</ele><time>2026-04-12T16:14:17.394Z</time></trkpt><trkpt lat="45.6135687" lon="9.5539261"><ele>179.0</ele><time>2026-04-12T16:14:18.393Z</time></trkpt><trkpt lat="45.6134662" lon="9.5536087"><ele>179.0</ele><time>2026-04-12T16:14:19.407Z</time></trkpt><trkpt lat="45.6133622" lon="9.5532993"><ele>179.0</ele><time>2026-04-12T16:14:20.392Z</time></trkpt><trkpt lat="45.6132567" lon="9.5529925"><ele>179.5</ele><time>2026-04-12T16:14:21.393Z</time></trkpt><trkpt lat="45.613152" lon="9.5526851"><ele>180.0</ele><time>2026-04-12T16:14:22.393Z</time></trkpt><trkpt lat="45.6130491" lon="9.5523752"><ele>180.0</ele><time>2026-04-12T16:14:23.402Z</time></trkpt><trkpt lat="45.6129474" lon="9.5520653"><ele>180.0</ele><time>2026-04-12T16:14:24.393Z</time></trkpt><trkpt lat="45.6128465" lon="9.5517566"><ele>180.0</ele><time>2026-04-12T16:14:25.389Z</time></trkpt><trkpt lat="45.6127464" lon="9.5514497"><ele>180.0</ele><time>2026-04-12T16:14:26.393Z</time></trkpt><trkpt lat="45.6126461" lon="9.5511486"><ele>180.0</ele><time>2026-04-12T16:14:27.391Z</time></trkpt><trkpt lat="45.6125387" lon="9.5508478"><ele>180.0</ele><time>2026-04-12T16:14:28.413Z</time></trkpt><trkpt lat="45.6124264" lon="9.5505422"><ele>178.5</ele><time>2026-04-12T16:14:29.394Z</time></trkpt><trkpt lat="45.6123134" lon="9.5502255"><ele>177.0</ele><time>2026-04-12T16:14:30.391Z</time></trkpt><trkpt lat="45.6121982" lon="9.5498973"><ele>177.0</ele><time>2026-04-12T16:14:31.39Z</time></trkpt><trkpt lat="45.6120802" lon="9.5495621"><ele>177.0</ele><time>2026-04-12T16:14:32.388Z</time></trkpt><trkpt lat="45.6119629" lon="9.5492268"><ele>178.5</ele><time>2026-04-12T16:14:33.401Z</time></trkpt><trkpt lat="45.6118467" lon="9.5488918"><ele>180.0</ele><time>2026-04-12T16:14:34.391Z</time></trkpt><trkpt lat="45.6117293" lon="9.5485606"><ele>180.0</ele><time>2026-04-12T16:14:35.394Z</time></trkpt><trkpt lat="45.611612" lon="9.5482301"><ele>180.0</ele><time>2026-04-12T16:14:36.4Z</time></trkpt><trkpt lat="45.6114959" lon="9.5478922"><ele>179.5</ele><time>2026-04-12T16:14:37.389Z</time></trkpt><trkpt lat="45.6113794" lon="9.5475446"><ele>179.0</ele><time>2026-04-12T16:14:38.408Z</time></trkpt><trkpt lat="45.6112602" lon="9.5471882"><ele>179.0</ele><time>2026-04-12T16:14:39.396Z</time></trkpt><trkpt lat="45.6111376" lon="9.5468231"><ele>179.0</ele><time>2026-04-12T16:14:40.394Z</time></trkpt><trkpt lat="45.611013" lon="9.5464534"><ele>180.0</ele><time>2026-04-12T16:14:41.392Z</time></trkpt><trkpt lat="45.6108857" lon="9.5460801"><ele>181.0</ele><time>2026-04-12T16:14:42.395Z</time></trkpt><trkpt lat="45.6107575" lon="9.5457027"><ele>179.5</ele><time>2026-04-12T16:14:43.403Z</time></trkpt><trkpt lat="45.6106299" lon="9.5453248"><ele>178.0</ele><time>2026-04-12T16:14:44.392Z</time></trkpt><trkpt lat="45.6105029" lon="9.544939"><ele>178.0</ele><time>2026-04-12T16:14:45.394Z</time></trkpt><trkpt lat="45.6103748" lon="9.5445492"><ele>178.0</ele><time>2026-04-12T16:14:46.404Z</time></trkpt><trkpt lat="45.6102471" lon="9.5441599"><ele>179.0</ele><time>2026-04-12T16:14:47.41Z</time></trkpt><trkpt lat="45.6101234" lon="9.5437738"><ele>180.0</ele><time>2026-04-12T16:14:48.391Z</time></trkpt><trkpt lat="45.610001" lon="9.5433919"><ele>180.5</ele><time>2026-04-12T16:14:49.389Z</time></trkpt><trkpt lat="45.609877" lon="9.5430197"><ele>181.0</ele><time>2026-04-12T16:14:50.403Z</time></trkpt><trkpt lat="45.6097536" lon="9.5426502"><ele>181.5</ele><time>2026-04-12T16:14:51.385Z</time></trkpt><trkpt lat="45.6096304" lon="9.5422814"><ele>182.0</ele><time>2026-04-12T16:14:52.41Z</time></trkpt><trkpt lat="45.6095085" lon="9.5419077"><ele>182.0</ele><time>2026-04-12T16:14:53.391Z</time></trkpt><trkpt lat="45.6093893" lon="9.5415301"><ele>182.0</ele><time>2026-04-12T16:14:54.391Z</time></trkpt><trkpt lat="45.6092679" lon="9.5411467"><ele>182.0</ele><time>2026-04-12T16:14:55.404Z</time></trkpt><trkpt lat="45.6091405" lon="9.5407562"><ele>182.0</ele><time>2026-04-12T16:14:56.381Z</time></trkpt><trkpt lat="45.6090106" lon="9.5403611"><ele>182.0</ele><time>2026-04-12T16:14:57.405Z</time></trkpt><trkpt lat="45.6088782" lon="9.5399644"><ele>182.0</ele><time>2026-04-12T16:14:58.402Z</time></trkpt><trkpt lat="45.6087449" lon="9.5395651"><ele>182.0</ele><time>2026-04-12T16:14:59.398Z</time></trkpt><trkpt lat="45.6086099" lon="9.5391646"><ele>182.0</ele><time>2026-04-12T16:15:00.385Z</time></trkpt><trkpt lat="45.6084728" lon="9.5387616"><ele>183.0</ele><time>2026-04-12T16:15:01.389Z</time></trkpt><trkpt lat="45.6083334" lon="9.5383548"><ele>184.0</ele><time>2026-04-12T16:15:02.393Z</time></trkpt><trkpt lat="45.608197" lon="9.5379519"><ele>184.5</ele><time>2026-04-12T16:15:03.391Z</time></trkpt><trkpt lat="45.6080617" lon="9.537552"><ele>185.0</ele><time>2026-04-12T16:15:04.405Z</time></trkpt><trkpt lat="45.6079286" lon="9.5371514"><ele>184.5</ele><time>2026-04-12T16:15:05.389Z</time></trkpt><trkpt lat="45.6077953" lon="9.5367524"><ele>184.0</ele><time>2026-04-12T16:15:06.387Z</time></trkpt><trkpt lat="45.6076605" lon="9.536357"><ele>183.5</ele><time>2026-04-12T16:15:07.389Z</time></trkpt><trkpt lat="45.6075263" lon="9.5359643"><ele>183.0</ele><time>2026-04-12T16:15:08.398Z</time></trkpt><trkpt lat="45.6073945" lon="9.5355748"><ele>183.5</ele><time>2026-04-12T16:15:09.387Z</time></trkpt><trkpt lat="45.6072635" lon="9.5351888"><ele>184.0</ele><time>2026-04-12T16:15:10.392Z</time></trkpt><trkpt lat="45.6071318" lon="9.5348"><ele>184.5</ele><time>2026-04-12T16:15:11.39Z</time></trkpt><trkpt lat="45.6069982" lon="9.5344078"><ele>185.0</ele><time>2026-04-12T16:15:12.398Z</time></trkpt><trkpt lat="45.606863" lon="9.5340142"><ele>185.0</ele><time>2026-04-12T16:15:13.392Z</time></trkpt><trkpt lat="45.6067257" lon="9.5336193"><ele>185.0</ele><time>2026-04-12T16:15:14.394Z</time></trkpt><trkpt lat="45.6065853" lon="9.5332247"><ele>184.5</ele><time>2026-04-12T16:15:15.39Z</time></trkpt><trkpt lat="45.6064424" lon="9.5328323"><ele>184.0</ele><time>2026-04-12T16:15:16.395Z</time></trkpt><trkpt lat="45.6062997" lon="9.532439"><ele>183.0</ele><time>2026-04-12T16:15:17.387Z</time></trkpt><trkpt lat="45.6061587" lon="9.5320448"><ele>182.0</ele><time>2026-04-12T16:15:18.384Z</time></trkpt><trkpt lat="45.60602" lon="9.5316482"><ele>182.0</ele><time>2026-04-12T16:15:19.391Z</time></trkpt><trkpt lat="45.6058812" lon="9.5312495"><ele>182.0</ele><time>2026-04-12T16:15:20.391Z</time></trkpt><trkpt lat="45.6057442" lon="9.5308491"><ele>181.5</ele><time>2026-04-12T16:15:21.409Z</time></trkpt><trkpt lat="45.6056101" lon="9.5304442"><ele>181.0</ele><time>2026-04-12T16:15:22.389Z</time></trkpt><trkpt lat="45.6054768" lon="9.5300368"><ele>182.0</ele><time>2026-04-12T16:15:23.383Z</time></trkpt><trkpt lat="45.605343" lon="9.52963"><ele>183.0</ele><time>2026-04-12T16:15:24.395Z</time></trkpt><trkpt lat="45.6052082" lon="9.5292223"><ele>171.0</ele><time>2026-04-12T16:15:25.392Z</time></trkpt><trkpt lat="45.6050735" lon="9.5288155"><ele>159.0</ele><time>2026-04-12T16:15:26.407Z</time></trkpt><trkpt lat="45.6049396" lon="9.5284075"><ele>161.0</ele><time>2026-04-12T16:15:27.393Z</time></trkpt><trkpt lat="45.6048045" lon="9.5279978"><ele>163.0</ele><time>2026-04-12T16:15:28.391Z</time></trkpt><trkpt lat="45.6046687" lon="9.5275911"><ele>163.0</ele><time>2026-04-12T16:15:29.399Z</time></trkpt><trkpt lat="45.6045338" lon="9.5271868"><ele>163.0</ele><time>2026-04-12T16:15:30.39Z</time></trkpt><trkpt lat="45.6043994" lon="9.5267822"><ele>171.0</ele><time>2026-04-12T16:15:31.401Z</time></trkpt><trkpt lat="45.604264" lon="9.5263777"><ele>179.0</ele><time>2026-04-12T16:15:32.406Z</time></trkpt><trkpt lat="45.6041299" lon="9.5259726"><ele>179.0</ele><time>2026-04-12T16:15:33.391Z</time></trkpt><trkpt lat="45.6039962" lon="9.5255688"><ele>179.0</ele><time>2026-04-12T16:15:34.383Z</time></trkpt><trkpt lat="45.6038583" lon="9.5251654"><ele>179.0</ele><time>2026-04-12T16:15:35.39Z</time></trkpt><trkpt lat="45.6037189" lon="9.5247583"><ele>179.0</ele><time>2026-04-12T16:15:36.399Z</time></trkpt><trkpt lat="45.6035794" lon="9.5243532"><ele>179.0</ele><time>2026-04-12T16:15:37.392Z</time></trkpt><trkpt lat="45.603441" lon="9.5239498"><ele>179.0</ele><time>2026-04-12T16:15:38.386Z</time></trkpt><trkpt lat="45.6033056" lon="9.5235429"><ele>179.0</ele><time>2026-04-12T16:15:39.391Z</time></trkpt><trkpt lat="45.6031724" lon="9.5231375"><ele>179.0</ele><time>2026-04-12T16:15:40.391Z</time></trkpt><trkpt lat="45.6030407" lon="9.5227323"><ele>179.5</ele><time>2026-04-12T16:15:41.393Z</time></trkpt><trkpt lat="45.602909" lon="9.5223246"><ele>180.0</ele><time>2026-04-12T16:15:42.387Z</time></trkpt><trkpt lat="45.6027769" lon="9.5219165"><ele>180.5</ele><time>2026-04-12T16:15:43.404Z</time></trkpt><trkpt lat="45.6026472" lon="9.5215119"><ele>181.0</ele><time>2026-04-12T16:15:44.393Z</time></trkpt><trkpt lat="45.6025186" lon="9.5211116"><ele>180.5</ele><time>2026-04-12T16:15:45.391Z</time></trkpt><trkpt lat="45.6023867" lon="9.5207119"><ele>180.0</ele><time>2026-04-12T16:15:46.392Z</time></trkpt><trkpt lat="45.6022538" lon="9.5203113"><ele>180.0</ele><time>2026-04-12T16:15:47.392Z</time></trkpt><trkpt lat="45.6021209" lon="9.5199118"><ele>180.0</ele><time>2026-04-12T16:15:48.401Z</time></trkpt><trkpt lat="45.6019882" lon="9.5195113"><ele>179.5</ele><time>2026-04-12T16:15:49.401Z</time></trkpt><trkpt lat="45.6018567" lon="9.5191114"><ele>179.0</ele><time>2026-04-12T16:15:50.408Z</time></trkpt><trkpt lat="45.6017285" lon="9.5187106"><ele>178.5</ele><time>2026-04-12T16:15:51.392Z</time></trkpt><trkpt lat="45.6016024" lon="9.5183094"><ele>178.0</ele><time>2026-04-12T16:15:52.386Z</time></trkpt><trkpt lat="45.6014767" lon="9.517908"><ele>178.5</ele><time>2026-04-12T16:15:53.391Z</time></trkpt><trkpt lat="45.6013504" lon="9.5175056"><ele>179.0</ele><time>2026-04-12T16:15:54.387Z</time></trkpt><trkpt lat="45.6012225" lon="9.5171063"><ele>179.5</ele><time>2026-04-12T16:15:55.392Z</time></trkpt><trkpt lat="45.6010929" lon="9.5167049"><ele>180.0</ele><time>2026-04-12T16:15:56.401Z</time></trkpt><trkpt lat="45.6009621" lon="9.5162985"><ele>180.0</ele><time>2026-04-12T16:15:57.39Z</time></trkpt><trkpt lat="45.6008283" lon="9.5158902"><ele>180.0</ele><time>2026-04-12T16:15:58.391Z</time></trkpt><trkpt lat="45.600693" lon="9.5154865"><ele>180.0</ele><time>2026-04-12T16:15:59.39Z</time></trkpt><trkpt lat="45.6005581" lon="9.5150841"><ele>180.0</ele><time>2026-04-12T16:16:00.381Z</time></trkpt><trkpt lat="45.6004238" lon="9.5146874"><ele>178.0</ele><time>2026-04-12T16:16:01.392Z</time></trkpt><trkpt lat="45.6002918" lon="9.5142997"><ele>176.0</ele><time>2026-04-12T16:16:02.39Z</time></trkpt><trkpt lat="45.6001611" lon="9.5139241"><ele>177.0</ele><time>2026-04-12T16:16:03.409Z</time></trkpt><trkpt lat="45.6000339" lon="9.5135639"><ele>178.0</ele><time>2026-04-12T16:16:04.39Z</time></trkpt><trkpt lat="45.5999109" lon="9.5132163"><ele>180.0</ele><time>2026-04-12T16:16:05.388Z</time></trkpt><trkpt lat="45.5997905" lon="9.5128769"><ele>182.0</ele><time>2026-04-12T16:16:06.4Z</time></trkpt><trkpt lat="45.5996705" lon="9.5125354"><ele>182.0</ele><time>2026-04-12T16:16:07.398Z</time></trkpt><trkpt lat="45.5995543" lon="9.5121867"><ele>182.0</ele><time>2026-04-12T16:16:08.403Z</time></trkpt><trkpt lat="45.5994357" lon="9.5118355"><ele>181.0</ele><time>2026-04-12T16:16:09.409Z</time></trkpt><trkpt lat="45.5993158" lon="9.5114804"><ele>180.0</ele><time>2026-04-12T16:16:10.401Z</time></trkpt><trkpt lat="45.5991943" lon="9.5111233"><ele>180.0</ele><time>2026-04-12T16:16:11.402Z</time></trkpt><trkpt lat="45.5990711" lon="9.5107653"><ele>180.0</ele><time>2026-04-12T16:16:12.398Z</time></trkpt><trkpt lat="45.5989484" lon="9.5104057"><ele>179.5</ele><time>2026-04-12T16:16:13.391Z</time></trkpt><trkpt lat="45.5988251" lon="9.510047"><ele>179.0</ele><time>2026-04-12T16:16:14.387Z</time></trkpt><trkpt lat="45.5987022" lon="9.509692"><ele>178.0</ele><time>2026-04-12T16:16:15.405Z</time></trkpt><trkpt lat="45.5985827" lon="9.5093383"><ele>177.0</ele><time>2026-04-12T16:16:16.397Z</time></trkpt><trkpt lat="45.5984624" lon="9.5089828"><ele>178.5</ele><time>2026-04-12T16:16:17.389Z</time></trkpt><trkpt lat="45.5983412" lon="9.5086278"><ele>180.0</ele><time>2026-04-12T16:16:18.409Z</time></trkpt><trkpt lat="45.5982198" lon="9.5082703"><ele>182.0</ele><time>2026-04-12T16:16:19.387Z</time></trkpt><trkpt lat="45.598097" lon="9.5079095"><ele>184.0</ele><time>2026-04-12T16:16:20.408Z</time></trkpt><trkpt lat="45.5979721" lon="9.5075454"><ele>184.0</ele><time>2026-04-12T16:16:21.41Z</time></trkpt><trkpt lat="45.5978478" lon="9.507179"><ele>184.0</ele><time>2026-04-12T16:16:22.391Z</time></trkpt><trkpt lat="45.5977245" lon="9.506811"><ele>182.0</ele><time>2026-04-12T16:16:23.388Z</time></trkpt><trkpt lat="45.5976006" lon="9.5064411"><ele>180.0</ele><time>2026-04-12T16:16:24.392Z</time></trkpt><trkpt lat="45.5974766" lon="9.5060698"><ele>180.0</ele><time>2026-04-12T16:16:25.4Z</time></trkpt><trkpt lat="45.5973536" lon="9.5057018"><ele>180.0</ele><time>2026-04-12T16:16:26.401Z</time></trkpt><trkpt lat="45.5972299" lon="9.5053367"><ele>180.0</ele><time>2026-04-12T16:16:27.401Z</time></trkpt><trkpt lat="45.597106" lon="9.504975"><ele>180.0</ele><time>2026-04-12T16:16:28.399Z</time></trkpt><trkpt lat="45.5969809" lon="9.5046131"><ele>179.0</ele><time>2026-04-12T16:16:29.393Z</time></trkpt><trkpt lat="45.5968563" lon="9.5042519"><ele>178.0</ele><time>2026-04-12T16:16:30.391Z</time></trkpt><trkpt lat="45.5967352" lon="9.5038901"><ele>178.0</ele><time>2026-04-12T16:16:31.391Z</time></trkpt><trkpt lat="45.5966147" lon="9.5035266"><ele>178.0</ele><time>2026-04-12T16:16:32.391Z</time></trkpt><trkpt lat="45.5964915" lon="9.5031627"><ele>178.0</ele><time>2026-04-12T16:16:33.407Z</time></trkpt><trkpt lat="45.5963653" lon="9.502797"><ele>178.0</ele><time>2026-04-12T16:16:34.398Z</time></trkpt><trkpt lat="45.5962384" lon="9.5024272"><ele>178.0</ele><time>2026-04-12T16:16:35.394Z</time></trkpt><trkpt lat="45.5961129" lon="9.5020636"><ele>178.0</ele><time>2026-04-12T16:16:36.404Z</time></trkpt><trkpt lat="45.5959923" lon="9.5017113"><ele>178.0</ele><time>2026-04-12T16:16:37.388Z</time></trkpt><trkpt lat="45.5958798" lon="9.5013724"><ele>178.0</ele><time>2026-04-12T16:16:38.392Z</time></trkpt><trkpt lat="45.5957715" lon="9.5010468"><ele>178.0</ele><time>2026-04-12T16:16:39.39Z</time></trkpt><trkpt lat="45.5956688" lon="9.500726"><ele>178.0</ele><time>2026-04-12T16:16:40.392Z</time></trkpt><trkpt lat="45.5955664" lon="9.5004068"><ele>179.0</ele><time>2026-04-12T16:16:41.396Z</time></trkpt><trkpt lat="45.5954667" lon="9.5000877"><ele>180.0</ele><time>2026-04-12T16:16:42.4Z</time></trkpt><trkpt lat="45.5953684" lon="9.4997664"><ele>180.5</ele><time>2026-04-12T16:16:43.395Z</time></trkpt><trkpt lat="45.5952731" lon="9.4994396"><ele>181.0</ele><time>2026-04-12T16:16:44.404Z</time></trkpt><trkpt lat="45.5951814" lon="9.4991059"><ele>181.0</ele><time>2026-04-12T16:16:45.391Z</time></trkpt><trkpt lat="45.5950937" lon="9.4987684"><ele>181.0</ele><time>2026-04-12T16:16:46.401Z</time></trkpt><trkpt lat="45.5950096" lon="9.4984274"><ele>180.5</ele><time>2026-04-12T16:16:47.404Z</time></trkpt><trkpt lat="45.5949299" lon="9.4980844"><ele>180.0</ele><time>2026-04-12T16:16:48.394Z</time></trkpt><trkpt lat="45.594852" lon="9.4977412"><ele>179.5</ele><time>2026-04-12T16:16:49.391Z</time></trkpt><trkpt lat="45.5947747" lon="9.4973968"><ele>179.0</ele><time>2026-04-12T16:16:50.393Z</time></trkpt><trkpt lat="45.5946986" lon="9.4970496"><ele>180.5</ele><time>2026-04-12T16:16:51.391Z</time></trkpt><trkpt lat="45.5946246" lon="9.4966988"><ele>182.0</ele><time>2026-04-12T16:16:52.391Z</time></trkpt><trkpt lat="45.5945519" lon="9.4963451"><ele>181.0</ele><time>2026-04-12T16:16:53.393Z</time></trkpt><trkpt lat="45.5944812" lon="9.4959883"><ele>180.0</ele><time>2026-04-12T16:16:54.405Z</time></trkpt><trkpt lat="45.5944137" lon="9.4956293"><ele>180.5</ele><time>2026-04-12T16:16:55.409Z</time></trkpt><trkpt lat="45.5943494" lon="9.4952761"><ele>181.0</ele><time>2026-04-12T16:16:56.41Z</time></trkpt><trkpt lat="45.5942856" lon="9.4949339"><ele>181.0</ele><time>2026-04-12T16:16:57.412Z</time></trkpt><trkpt lat="45.5942238" lon="9.4946037"><ele>181.0</ele><time>2026-04-12T16:16:58.408Z</time></trkpt><trkpt lat="45.5941628" lon="9.4942818"><ele>181.5</ele><time>2026-04-12T16:16:59.409Z</time></trkpt><trkpt lat="45.5941006" lon="9.493962"><ele>182.0</ele><time>2026-04-12T16:17:00.409Z</time></trkpt><trkpt lat="45.5940374" lon="9.493641"><ele>180.5</ele><time>2026-04-12T16:17:01.411Z</time></trkpt><trkpt lat="45.5939752" lon="9.4933144"><ele>179.0</ele><time>2026-04-12T16:17:02.393Z</time></trkpt><trkpt lat="45.5939149" lon="9.4929844"><ele>179.5</ele><time>2026-04-12T16:17:03.394Z</time></trkpt><trkpt lat="45.5938539" lon="9.4926566"><ele>180.0</ele><time>2026-04-12T16:17:04.408Z</time></trkpt><trkpt lat="45.5937924" lon="9.492329"><ele>179.5</ele><time>2026-04-12T16:17:05.407Z</time></trkpt><trkpt lat="45.5937316" lon="9.4920023"><ele>179.0</ele><time>2026-04-12T16:17:06.409Z</time></trkpt><trkpt lat="45.5936683" lon="9.4916769"><ele>180.0</ele><time>2026-04-12T16:17:07.409Z</time></trkpt><trkpt lat="45.5936056" lon="9.4913488"><ele>181.0</ele><time>2026-04-12T16:17:08.408Z</time></trkpt><trkpt lat="45.5935433" lon="9.4910157"><ele>181.0</ele><time>2026-04-12T16:17:09.409Z</time></trkpt><trkpt lat="45.5934793" lon="9.4906738"><ele>181.0</ele><time>2026-04-12T16:17:10.41Z</time></trkpt><trkpt lat="45.5934125" lon="9.4903233"><ele>180.5</ele><time>2026-04-12T16:17:11.418Z</time></trkpt><trkpt lat="45.5933455" lon="9.4899645"><ele>180.0</ele><time>2026-04-12T16:17:12.41Z</time></trkpt><trkpt lat="45.5932761" lon="9.4896028"><ele>180.0</ele><time>2026-04-12T16:17:13.411Z</time></trkpt><trkpt lat="45.5932057" lon="9.4892412"><ele>180.0</ele><time>2026-04-12T16:17:14.41Z</time></trkpt><trkpt lat="45.5931337" lon="9.4888793"><ele>180.0</ele><time>2026-04-12T16:17:15.41Z</time></trkpt><trkpt lat="45.5930636" lon="9.4885158"><ele>180.0</ele><time>2026-04-12T16:17:16.407Z</time></trkpt><trkpt lat="45.5929968" lon="9.4881518"><ele>180.5</ele><time>2026-04-12T16:17:17.411Z</time></trkpt><trkpt lat="45.592931" lon="9.4877903"><ele>181.0</ele><time>2026-04-12T16:17:18.411Z</time></trkpt><trkpt lat="45.592865" lon="9.4874365"><ele>180.0</ele><time>2026-04-12T16:17:19.409Z</time></trkpt><trkpt lat="45.5927979" lon="9.4870938"><ele>179.0</ele><time>2026-04-12T16:17:20.41Z</time></trkpt><trkpt lat="45.5927328" lon="9.4867565"><ele>179.0</ele><time>2026-04-12T16:17:21.408Z</time></trkpt><trkpt lat="45.592668" lon="9.4864188"><ele>179.0</ele><time>2026-04-12T16:17:22.393Z</time></trkpt><trkpt lat="45.592603" lon="9.4860756"><ele>179.0</ele><time>2026-04-12T16:17:23.4Z</time></trkpt><trkpt lat="45.5925362" lon="9.485728"><ele>179.0</ele><time>2026-04-12T16:17:24.41Z</time></trkpt><trkpt lat="45.5924702" lon="9.4853771"><ele>179.0</ele><time>2026-04-12T16:17:25.405Z</time></trkpt><trkpt lat="45.5924052" lon="9.4850233"><ele>179.0</ele><time>2026-04-12T16:17:26.41Z</time></trkpt><trkpt lat="45.5923376" lon="9.4846703"><ele>180.0</ele><time>2026-04-12T16:17:27.409Z</time></trkpt><trkpt lat="45.592269" lon="9.4843197"><ele>181.0</ele><time>2026-04-12T16:17:28.41Z</time></trkpt><trkpt lat="45.5921988" lon="9.4839757"><ele>182.0</ele><time>2026-04-12T16:17:29.408Z</time></trkpt><trkpt lat="45.5921312" lon="9.4836396"><ele>183.0</ele><time>2026-04-12T16:17:30.403Z</time></trkpt><trkpt lat="45.5920676" lon="9.483303"><ele>183.0</ele><time>2026-04-12T16:17:31.413Z</time></trkpt><trkpt lat="45.5920053" lon="9.4829589"><ele>183.0</ele><time>2026-04-12T16:17:32.408Z</time></trkpt><trkpt lat="45.5919414" lon="9.4826051"><ele>183.0</ele><time>2026-04-12T16:17:33.409Z</time></trkpt><trkpt lat="45.5918752" lon="9.4822414"><ele>183.0</ele><time>2026-04-12T16:17:34.41Z</time></trkpt><trkpt lat="45.591806" lon="9.4818697"><ele>182.5</ele><time>2026-04-12T16:17:35.411Z</time></trkpt><trkpt lat="45.5917342" lon="9.4814982"><ele>182.0</ele><time>2026-04-12T16:17:36.41Z</time></trkpt><trkpt lat="45.5916618" lon="9.4811297"><ele>182.0</ele><time>2026-04-12T16:17:37.407Z</time></trkpt><trkpt lat="45.5915888" lon="9.4807641"><ele>182.0</ele><time>2026-04-12T16:17:38.408Z</time></trkpt><trkpt lat="45.5915164" lon="9.4804002"><ele>182.5</ele><time>2026-04-12T16:17:39.407Z</time></trkpt><trkpt lat="45.5914456" lon="9.4800365"><ele>183.0</ele><time>2026-04-12T16:17:40.41Z</time></trkpt><trkpt lat="45.5913757" lon="9.4796713"><ele>180.5</ele><time>2026-04-12T16:17:41.413Z</time></trkpt><trkpt lat="45.5913055" lon="9.4793032"><ele>178.0</ele><time>2026-04-12T16:17:42.411Z</time></trkpt><trkpt lat="45.5912365" lon="9.4789344"><ele>178.0</ele><time>2026-04-12T16:17:43.41Z</time></trkpt><trkpt lat="45.5911658" lon="9.4785623"><ele>178.0</ele><time>2026-04-12T16:17:44.411Z</time></trkpt><trkpt lat="45.5910946" lon="9.4781851"><ele>178.0</ele><time>2026-04-12T16:17:45.41Z</time></trkpt><trkpt lat="45.5910223" lon="9.4778008"><ele>178.0</ele><time>2026-04-12T16:17:46.41Z</time></trkpt><trkpt lat="45.590946" lon="9.4774129"><ele>179.0</ele><time>2026-04-12T16:17:47.411Z</time></trkpt><trkpt lat="45.5908683" lon="9.4770203"><ele>180.0</ele><time>2026-04-12T16:17:48.413Z</time></trkpt><trkpt lat="45.5907918" lon="9.4766236"><ele>181.5</ele><time>2026-04-12T16:17:49.41Z</time></trkpt><trkpt lat="45.5907157" lon="9.476226"><ele>183.0</ele><time>2026-04-12T16:17:50.41Z</time></trkpt><trkpt lat="45.5906395" lon="9.475829"><ele>182.0</ele><time>2026-04-12T16:17:51.413Z</time></trkpt><trkpt lat="45.5905626" lon="9.475434"><ele>181.0</ele><time>2026-04-12T16:17:52.388Z</time></trkpt><trkpt lat="45.5904857" lon="9.4750418"><ele>181.0</ele><time>2026-04-12T16:17:53.393Z</time></trkpt><trkpt lat="45.5904099" lon="9.4746512"><ele>181.0</ele><time>2026-04-12T16:17:54.413Z</time></trkpt><trkpt lat="45.5903342" lon="9.4742634"><ele>181.0</ele><time>2026-04-12T16:17:55.411Z</time></trkpt><trkpt lat="45.5902615" lon="9.4738764"><ele>181.0</ele><time>2026-04-12T16:17:56.412Z</time></trkpt><trkpt lat="45.5901896" lon="9.4734901"><ele>181.0</ele><time>2026-04-12T16:17:57.412Z</time></trkpt><trkpt lat="45.5901177" lon="9.4731038"><ele>181.0</ele><time>2026-04-12T16:17:58.402Z</time></trkpt><trkpt lat="45.5900431" lon="9.4727189"><ele>180.0</ele><time>2026-04-12T16:17:59.407Z</time></trkpt><trkpt lat="45.5899652" lon="9.4723336"><ele>179.0</ele><time>2026-04-12T16:18:00.408Z</time></trkpt><trkpt lat="45.5898845" lon="9.4719475"><ele>179.0</ele><time>2026-04-12T16:18:01.411Z</time></trkpt><trkpt lat="45.589802" lon="9.4715616"><ele>179.0</ele><time>2026-04-12T16:18:02.408Z</time></trkpt><trkpt lat="45.5897214" lon="9.4711743"><ele>179.0</ele><time>2026-04-12T16:18:03.407Z</time></trkpt><trkpt lat="45.5896448" lon="9.470785"><ele>179.0</ele><time>2026-04-12T16:18:04.408Z</time></trkpt><trkpt lat="45.5895707" lon="9.4703966"><ele>179.5</ele><time>2026-04-12T16:18:05.407Z</time></trkpt><trkpt lat="45.5894965" lon="9.4700082"><ele>180.0</ele><time>2026-04-12T16:18:06.409Z</time></trkpt><trkpt lat="45.5894211" lon="9.4696188"><ele>180.0</ele><time>2026-04-12T16:18:07.411Z</time></trkpt><trkpt lat="45.5893443" lon="9.4692301"><ele>180.0</ele><time>2026-04-12T16:18:08.41Z</time></trkpt><trkpt lat="45.5892677" lon="9.4688421"><ele>181.0</ele><time>2026-04-12T16:18:09.409Z</time></trkpt><trkpt lat="45.5891913" lon="9.4684542"><ele>182.0</ele><time>2026-04-12T16:18:10.41Z</time></trkpt><trkpt lat="45.5891145" lon="9.4680654"><ele>182.5</ele><time>2026-04-12T16:18:11.41Z</time></trkpt><trkpt lat="45.589039" lon="9.4676744"><ele>183.0</ele><time>2026-04-12T16:18:12.412Z</time></trkpt><trkpt lat="45.5889652" lon="9.4672815"><ele>182.5</ele><time>2026-04-12T16:18:13.411Z</time></trkpt><trkpt lat="45.5888932" lon="9.4668868"><ele>182.0</ele><time>2026-04-12T16:18:14.411Z</time></trkpt><trkpt lat="45.5888218" lon="9.4664911"><ele>180.5</ele><time>2026-04-12T16:18:15.411Z</time></trkpt><trkpt lat="45.5887485" lon="9.4660937"><ele>179.0</ele><time>2026-04-12T16:18:16.411Z</time></trkpt><trkpt lat="45.588673" lon="9.4656949"><ele>178.0</ele><time>2026-04-12T16:18:17.411Z</time></trkpt><trkpt lat="45.588596" lon="9.4652941"><ele>177.0</ele><time>2026-04-12T16:18:18.411Z</time></trkpt><trkpt lat="45.5885197" lon="9.4648918"><ele>177.5</ele><time>2026-04-12T16:18:19.41Z</time></trkpt><trkpt lat="45.5884448" lon="9.4644868"><ele>178.0</ele><time>2026-04-12T16:18:20.411Z</time></trkpt><trkpt lat="45.5883697" lon="9.4640785"><ele>178.5</ele><time>2026-04-12T16:18:21.415Z</time></trkpt><trkpt lat="45.5882927" lon="9.4636662"><ele>179.0</ele><time>2026-04-12T16:18:22.411Z</time></trkpt><trkpt lat="45.588214" lon="9.4632515"><ele>179.5</ele><time>2026-04-12T16:18:23.412Z</time></trkpt><trkpt lat="45.5881339" lon="9.4628362"><ele>180.0</ele><time>2026-04-12T16:18:24.41Z</time></trkpt><trkpt lat="45.5880534" lon="9.4624219"><ele>180.5</ele><time>2026-04-12T16:18:25.411Z</time></trkpt><trkpt lat="45.5879705" lon="9.4620083"><ele>181.0</ele><time>2026-04-12T16:18:26.411Z</time></trkpt><trkpt lat="45.5878877" lon="9.4615941"><ele>179.5</ele><time>2026-04-12T16:18:27.41Z</time></trkpt><trkpt lat="45.5878057" lon="9.4611833"><ele>178.0</ele><time>2026-04-12T16:18:28.411Z</time></trkpt><trkpt lat="45.5877267" lon="9.4607739"><ele>178.5</ele><time>2026-04-12T16:18:29.411Z</time></trkpt><trkpt lat="45.5876518" lon="9.4603641"><ele>179.0</ele><time>2026-04-12T16:18:30.41Z</time></trkpt><trkpt lat="45.5875779" lon="9.4599561"><ele>177.5</ele><time>2026-04-12T16:18:31.416Z</time></trkpt><trkpt lat="45.587501" lon="9.4595463"><ele>176.0</ele><time>2026-04-12T16:18:32.406Z</time></trkpt><trkpt lat="45.5874209" lon="9.4591363"><ele>176.0</ele><time>2026-04-12T16:18:33.41Z</time></trkpt><trkpt lat="45.5873388" lon="9.4587272"><ele>176.0</ele><time>2026-04-12T16:18:34.41Z</time></trkpt><trkpt lat="45.5872574" lon="9.4583188"><ele>171.0</ele><time>2026-04-12T16:18:35.409Z</time></trkpt><trkpt lat="45.581456" lon="9.4280882"><ele>170.5</ele><time>2026-04-12T16:19:49.411Z</time></trkpt><trkpt lat="45.5813732" lon="9.4276715"><ele>170.0</ele><time>2026-04-12T16:19:50.411Z</time></trkpt><trkpt lat="45.5812913" lon="9.427252"><ele>169.5</ele><time>2026-04-12T16:19:51.416Z</time></trkpt><trkpt lat="45.5812102" lon="9.426832"><ele>169.0</ele><time>2026-04-12T16:19:52.411Z</time></trkpt><trkpt lat="45.5811293" lon="9.4264101"><ele>169.5</ele><time>2026-04-12T16:19:53.411Z</time></trkpt><trkpt lat="45.5810479" lon="9.4259856"><ele>170.0</ele><time>2026-04-12T16:19:54.411Z</time></trkpt><trkpt lat="45.5809668" lon="9.4255618"><ele>170.0</ele><time>2026-04-12T16:19:55.41Z</time></trkpt><trkpt lat="45.5808861" lon="9.4251352"><ele>170.0</ele><time>2026-04-12T16:19:56.411Z</time></trkpt><trkpt lat="45.5808069" lon="9.4247047"><ele>169.0</ele><time>2026-04-12T16:19:57.41Z</time></trkpt><trkpt lat="45.5806399" lon="9.4238428"><ele>168.0</ele><time>2026-04-12T16:19:59.407Z</time></trkpt><trkpt lat="45.5805557" lon="9.423416"><ele>167.0</ele><time>2026-04-12T16:20:00.407Z</time></trkpt><trkpt lat="45.5804724" lon="9.4229958"><ele>167.0</ele><time>2026-04-12T16:20:01.414Z</time></trkpt><trkpt lat="45.5803899" lon="9.4225807"><ele>167.0</ele><time>2026-04-12T16:20:02.407Z</time></trkpt><trkpt lat="45.5803081" lon="9.42217"><ele>167.0</ele><time>2026-04-12T16:20:03.393Z</time></trkpt><trkpt lat="45.5802259" lon="9.4217639"><ele>167.0</ele><time>2026-04-12T16:20:04.409Z</time></trkpt><trkpt lat="45.5801408" lon="9.4213605"><ele>167.5</ele><time>2026-04-12T16:20:05.407Z</time></trkpt><trkpt lat="45.5800556" lon="9.4209544"><ele>168.0</ele><time>2026-04-12T16:20:06.399Z</time></trkpt><trkpt lat="45.5799714" lon="9.4205442"><ele>168.5</ele><time>2026-04-12T16:20:07.408Z</time></trkpt><trkpt lat="45.5798891" lon="9.4201302"><ele>169.0</ele><time>2026-04-12T16:20:08.409Z</time></trkpt><trkpt lat="45.5798043" lon="9.419714"><ele>169.0</ele><time>2026-04-12T16:20:09.41Z</time></trkpt><trkpt lat="45.5797162" lon="9.4192962"><ele>169.0</ele><time>2026-04-12T16:20:10.41Z</time></trkpt><trkpt lat="45.57963" lon="9.4188753"><ele>168.5</ele><time>2026-04-12T16:20:11.415Z</time></trkpt><trkpt lat="45.5795447" lon="9.4184535"><ele>168.0</ele><time>2026-04-12T16:20:12.41Z</time></trkpt><trkpt lat="45.5794609" lon="9.4180288"><ele>167.0</ele><time>2026-04-12T16:20:13.41Z</time></trkpt><trkpt lat="45.5793781" lon="9.4176006"><ele>166.0</ele><time>2026-04-12T16:20:14.412Z</time></trkpt><trkpt lat="45.5792962" lon="9.4171702"><ele>165.5</ele><time>2026-04-12T16:20:15.411Z</time></trkpt><trkpt lat="45.5792145" lon="9.4167387"><ele>165.0</ele><time>2026-04-12T16:20:16.412Z</time></trkpt><trkpt lat="45.5791314" lon="9.4163079"><ele>166.0</ele><time>2026-04-12T16:20:17.411Z</time></trkpt><trkpt lat="45.5790489" lon="9.4158782"><ele>167.0</ele><time>2026-04-12T16:20:18.412Z</time></trkpt><trkpt lat="45.5788879" lon="9.4150129"><ele>168.0</ele><time>2026-04-12T16:20:20.412Z</time></trkpt><trkpt lat="45.5788084" lon="9.4145786"><ele>169.0</ele><time>2026-04-12T16:20:21.414Z</time></trkpt><trkpt lat="45.5787254" lon="9.4141504"><ele>167.5</ele><time>2026-04-12T16:20:22.411Z</time></trkpt><trkpt lat="45.5786411" lon="9.4137223"><ele>166.0</ele><time>2026-04-12T16:20:23.411Z</time></trkpt><trkpt lat="45.5785593" lon="9.4132925"><ele>166.5</ele><time>2026-04-12T16:20:24.394Z</time></trkpt><trkpt lat="45.5784815" lon="9.4128625"><ele>167.0</ele><time>2026-04-12T16:20:25.41Z</time></trkpt><trkpt lat="45.5784057" lon="9.4124317"><ele>167.0</ele><time>2026-04-12T16:20:26.411Z</time></trkpt><trkpt lat="45.5783288" lon="9.411999"><ele>167.0</ele><time>2026-04-12T16:20:27.412Z</time></trkpt><trkpt lat="45.5782518" lon="9.411568"><ele>167.0</ele><time>2026-04-12T16:20:28.412Z</time></trkpt><trkpt lat="45.578174" lon="9.4111413"><ele>167.0</ele><time>2026-04-12T16:20:29.408Z</time></trkpt><trkpt lat="45.5780958" lon="9.4107172"><ele>167.0</ele><time>2026-04-12T16:20:30.409Z</time></trkpt><trkpt lat="45.5780182" lon="9.4102944"><ele>167.0</ele><time>2026-04-12T16:20:31.413Z</time></trkpt><trkpt lat="45.5779402" lon="9.4098738"><ele>167.5</ele><time>2026-04-12T16:20:32.408Z</time></trkpt><trkpt lat="45.5778634" lon="9.4094535"><ele>168.0</ele><time>2026-04-12T16:20:33.408Z</time></trkpt><trkpt lat="45.5777848" lon="9.4090355"><ele>166.0</ele><time>2026-04-12T16:20:34.405Z</time></trkpt><trkpt lat="45.5777044" lon="9.4086203"><ele>164.0</ele><time>2026-04-12T16:20:35.407Z</time></trkpt><trkpt lat="45.577623" lon="9.4082062"><ele>164.0</ele><time>2026-04-12T16:20:36.409Z</time></trkpt><trkpt lat="45.5775409" lon="9.4077927"><ele>164.0</ele><time>2026-04-12T16:20:37.411Z</time></trkpt><trkpt lat="45.5774614" lon="9.4073781"><ele>164.5</ele><time>2026-04-12T16:20:38.411Z</time></trkpt><trkpt lat="45.577383" lon="9.4069626"><ele>165.0</ele><time>2026-04-12T16:20:39.409Z</time></trkpt><trkpt lat="45.5772275" lon="9.4061294"><ele>165.0</ele><time>2026-04-12T16:20:41.416Z</time></trkpt><trkpt lat="45.5771489" lon="9.4057135"><ele>165.0</ele><time>2026-04-12T16:20:42.412Z</time></trkpt><trkpt lat="45.5770685" lon="9.4052997"><ele>164.5</ele><time>2026-04-12T16:20:43.41Z</time></trkpt><trkpt lat="45.5769853" lon="9.4048868"><ele>164.0</ele><time>2026-04-12T16:20:44.411Z</time></trkpt><trkpt lat="45.5769033" lon="9.4044697"><ele>164.0</ele><time>2026-04-12T16:20:45.411Z</time></trkpt><trkpt lat="45.5768214" lon="9.4040517"><ele>164.0</ele><time>2026-04-12T16:20:46.411Z</time></trkpt><trkpt lat="45.5767398" lon="9.4036336"><ele>164.5</ele><time>2026-04-12T16:20:47.411Z</time></trkpt><trkpt lat="45.5766617" lon="9.4032127"><ele>165.0</ele><time>2026-04-12T16:20:48.411Z</time></trkpt><trkpt lat="45.5765838" lon="9.4027931"><ele>165.5</ele><time>2026-04-12T16:20:49.412Z</time></trkpt><trkpt lat="45.5765048" lon="9.4023779"><ele>166.0</ele><time>2026-04-12T16:20:50.417Z</time></trkpt><trkpt lat="45.5764273" lon="9.4019641"><ele>166.0</ele><time>2026-04-12T16:20:51.412Z</time></trkpt><trkpt lat="45.576348" lon="9.4015501"><ele>166.0</ele><time>2026-04-12T16:20:52.411Z</time></trkpt><trkpt lat="45.5762684" lon="9.4011346"><ele>166.0</ele><time>2026-04-12T16:20:53.394Z</time></trkpt><trkpt lat="45.5761879" lon="9.4007197"><ele>166.0</ele><time>2026-04-12T16:20:54.408Z</time></trkpt><trkpt lat="45.5761082" lon="9.4003066"><ele>166.0</ele><time>2026-04-12T16:20:55.412Z</time></trkpt><trkpt lat="45.5760312" lon="9.3998975"><ele>166.0</ele><time>2026-04-12T16:20:56.412Z</time></trkpt><trkpt lat="45.5759559" lon="9.3994909"><ele>166.5</ele><time>2026-04-12T16:20:57.411Z</time></trkpt><trkpt lat="45.5758813" lon="9.3990913"><ele>167.0</ele><time>2026-04-12T16:20:58.411Z</time></trkpt><trkpt lat="45.5758101" lon="9.3987007"><ele>165.5</ele><time>2026-04-12T16:20:59.41Z</time></trkpt><trkpt lat="45.5757445" lon="9.3983234"><ele>164.0</ele><time>2026-04-12T16:21:00.41Z</time></trkpt><trkpt lat="45.5756239" lon="9.397583"><ele>164.0</ele><time>2026-04-12T16:21:02.411Z</time></trkpt><trkpt lat="45.5755587" lon="9.3972036"><ele>164.0</ele><time>2026-04-12T16:21:03.411Z</time></trkpt><trkpt lat="45.5754895" lon="9.3968136"><ele>164.0</ele><time>2026-04-12T16:21:04.411Z</time></trkpt><trkpt lat="45.5754151" lon="9.3964173"><ele>164.0</ele><time>2026-04-12T16:21:05.394Z</time></trkpt><trkpt lat="45.5753361" lon="9.3960158"><ele>164.0</ele><time>2026-04-12T16:21:06.409Z</time></trkpt><trkpt lat="45.575254" lon="9.3956104"><ele>164.0</ele><time>2026-04-12T16:21:07.411Z</time></trkpt><trkpt lat="45.5751719" lon="9.3952021"><ele>163.5</ele><time>2026-04-12T16:21:08.412Z</time></trkpt><trkpt lat="45.5750913" lon="9.3947904"><ele>163.0</ele><time>2026-04-12T16:21:09.41Z</time></trkpt><trkpt lat="45.5750116" lon="9.3943748"><ele>163.0</ele><time>2026-04-12T16:21:10.409Z</time></trkpt><trkpt lat="45.5749326" lon="9.3939569"><ele>163.0</ele><time>2026-04-12T16:21:11.416Z</time></trkpt><trkpt lat="45.5748539" lon="9.3935383"><ele>162.5</ele><time>2026-04-12T16:21:12.41Z</time></trkpt><trkpt lat="45.5747764" lon="9.3931204"><ele>162.0</ele><time>2026-04-12T16:21:13.411Z</time></trkpt><trkpt lat="45.5746995" lon="9.3927049"><ele>162.0</ele><time>2026-04-12T16:21:14.412Z</time></trkpt><trkpt lat="45.5746232" lon="9.392294"><ele>162.0</ele><time>2026-04-12T16:21:15.411Z</time></trkpt><trkpt lat="45.5745463" lon="9.391886"><ele>162.5</ele><time>2026-04-12T16:21:16.411Z</time></trkpt><trkpt lat="45.5744694" lon="9.3914788"><ele>163.0</ele><time>2026-04-12T16:21:17.412Z</time></trkpt><trkpt lat="45.5743921" lon="9.3910756"><ele>163.0</ele><time>2026-04-12T16:21:18.41Z</time></trkpt><trkpt lat="45.5743168" lon="9.3906782"><ele>163.0</ele><time>2026-04-12T16:21:19.411Z</time></trkpt><trkpt lat="45.5742461" lon="9.3902898"><ele>163.0</ele><time>2026-04-12T16:21:20.412Z</time></trkpt><trkpt lat="45.5741829" lon="9.3899067"><ele>163.0</ele><time>2026-04-12T16:21:21.416Z</time></trkpt><trkpt lat="45.5740595" lon="9.389141"><ele>162.5</ele><time>2026-04-12T16:21:23.412Z</time></trkpt><trkpt lat="45.5739994" lon="9.3887528"><ele>162.0</ele><time>2026-04-12T16:21:24.412Z</time></trkpt><trkpt lat="45.5739424" lon="9.3883615"><ele>162.0</ele><time>2026-04-12T16:21:25.412Z</time></trkpt><trkpt lat="45.5738867" lon="9.387971"><ele>162.0</ele><time>2026-04-12T16:21:26.412Z</time></trkpt><trkpt lat="45.5738307" lon="9.3875825"><ele>162.0</ele><time>2026-04-12T16:21:27.411Z</time></trkpt><trkpt lat="45.5737754" lon="9.387196"><ele>162.0</ele><time>2026-04-12T16:21:28.408Z</time></trkpt><trkpt lat="45.573718" lon="9.3868104"><ele>161.5</ele><time>2026-04-12T16:21:29.41Z</time></trkpt><trkpt lat="45.5736566" lon="9.3864226"><ele>161.0</ele><time>2026-04-12T16:21:30.411Z</time></trkpt><trkpt lat="45.5735919" lon="9.3860285"><ele>161.0</ele><time>2026-04-12T16:21:31.42Z</time></trkpt><trkpt lat="45.5735259" lon="9.3856272"><ele>161.0</ele><time>2026-04-12T16:21:32.411Z</time></trkpt><trkpt lat="45.5734586" lon="9.3852205"><ele>162.5</ele><time>2026-04-12T16:21:33.411Z</time></trkpt><trkpt lat="45.5733908" lon="9.3848066"><ele>164.0</ele><time>2026-04-12T16:21:34.41Z</time></trkpt><trkpt lat="45.5733258" lon="9.3843822"><ele>164.0</ele><time>2026-04-12T16:21:35.413Z</time></trkpt><trkpt lat="45.5732626" lon="9.3839475"><ele>164.0</ele><time>2026-04-12T16:21:36.413Z</time></trkpt><trkpt lat="45.5732027" lon="9.3835037"><ele>162.5</ele><time>2026-04-12T16:21:37.412Z</time></trkpt><trkpt lat="45.5731404" lon="9.3830574"><ele>161.0</ele><time>2026-04-12T16:21:38.412Z</time></trkpt><trkpt lat="45.5730746" lon="9.3826095"><ele>162.5</ele><time>2026-04-12T16:21:39.41Z</time></trkpt><trkpt lat="45.573008" lon="9.3821595"><ele>164.0</ele><time>2026-04-12T16:21:40.411Z</time></trkpt><trkpt lat="45.5729406" lon="9.3817065"><ele>164.5</ele><time>2026-04-12T16:21:41.413Z</time></trkpt><trkpt lat="45.5728725" lon="9.3812515"><ele>165.0</ele><time>2026-04-12T16:21:42.412Z</time></trkpt><trkpt lat="45.5727348" lon="9.3803489"><ele>163.5</ele><time>2026-04-12T16:21:44.411Z</time></trkpt><trkpt lat="45.5726651" lon="9.3799028"><ele>162.0</ele><time>2026-04-12T16:21:45.41Z</time></trkpt><trkpt lat="45.572595" lon="9.3794573"><ele>162.0</ele><time>2026-04-12T16:21:46.413Z</time></trkpt><trkpt lat="45.5725289" lon="9.3790098"><ele>162.0</ele><time>2026-04-12T16:21:47.411Z</time></trkpt><trkpt lat="45.5724651" lon="9.3785619"><ele>162.0</ele><time>2026-04-12T16:21:48.409Z</time></trkpt><trkpt lat="45.5724001" lon="9.3781173"><ele>162.0</ele><time>2026-04-12T16:21:49.412Z</time></trkpt><trkpt lat="45.5723341" lon="9.3776744"><ele>162.0</ele><time>2026-04-12T16:21:50.411Z</time></trkpt><trkpt lat="45.5722695" lon="9.3772321"><ele>162.0</ele><time>2026-04-12T16:21:51.418Z</time></trkpt><trkpt lat="45.5722076" lon="9.3767914"><ele>162.5</ele><time>2026-04-12T16:21:52.412Z</time></trkpt><trkpt lat="45.5721468" lon="9.3763493"><ele>163.0</ele><time>2026-04-12T16:21:53.412Z</time></trkpt><trkpt lat="45.5720844" lon="9.3759089"><ele>163.0</ele><time>2026-04-12T16:21:54.404Z</time></trkpt><trkpt lat="45.5720206" lon="9.3754693"><ele>163.0</ele><time>2026-04-12T16:21:55.412Z</time></trkpt><trkpt lat="45.5719565" lon="9.3750293"><ele>162.0</ele><time>2026-04-12T16:21:56.411Z</time></trkpt><trkpt lat="45.5718888" lon="9.3745893"><ele>161.0</ele><time>2026-04-12T16:21:57.412Z</time></trkpt><trkpt lat="45.571821" lon="9.3741464"><ele>162.0</ele><time>2026-04-12T16:21:58.411Z</time></trkpt><trkpt lat="45.5717549" lon="9.3736999"><ele>163.0</ele><time>2026-04-12T16:21:59.411Z</time></trkpt><trkpt lat="45.5716904" lon="9.3732571"><ele>163.5</ele><time>2026-04-12T16:22:00.41Z</time></trkpt><trkpt lat="45.5716264" lon="9.3728144"><ele>164.0</ele><time>2026-04-12T16:22:01.415Z</time></trkpt><trkpt lat="45.571564" lon="9.372374"><ele>164.0</ele><time>2026-04-12T16:22:02.411Z</time></trkpt><trkpt lat="45.5715" lon="9.3719346"><ele>164.0</ele><time>2026-04-12T16:22:03.41Z</time></trkpt><trkpt lat="45.5713665" lon="9.3710668"><ele>164.0</ele><time>2026-04-12T16:22:05.41Z</time></trkpt><trkpt lat="45.5712961" lon="9.3706428"><ele>164.0</ele><time>2026-04-12T16:22:06.411Z</time></trkpt><trkpt lat="45.5712286" lon="9.3702193"><ele>164.0</ele><time>2026-04-12T16:22:07.409Z</time></trkpt><trkpt lat="45.5711641" lon="9.3697973"><ele>164.0</ele><time>2026-04-12T16:22:08.407Z</time></trkpt><trkpt lat="45.5710995" lon="9.3693763"><ele>164.0</ele><time>2026-04-12T16:22:09.41Z</time></trkpt><trkpt lat="45.5710348" lon="9.368954"><ele>164.0</ele><time>2026-04-12T16:22:10.41Z</time></trkpt><trkpt lat="45.5709689" lon="9.3685298"><ele>164.0</ele><time>2026-04-12T16:22:11.414Z</time></trkpt><trkpt lat="45.5709013" lon="9.3681024"><ele>164.0</ele><time>2026-04-12T16:22:12.412Z</time></trkpt><trkpt lat="45.5708328" lon="9.3676726"><ele>164.0</ele><time>2026-04-12T16:22:13.411Z</time></trkpt><trkpt lat="45.5707662" lon="9.36724"><ele>164.0</ele><time>2026-04-12T16:22:14.399Z</time></trkpt><trkpt lat="45.5707008" lon="9.3668047"><ele>164.5</ele><time>2026-04-12T16:22:15.408Z</time></trkpt><trkpt lat="45.5706365" lon="9.366364"><ele>165.0</ele><time>2026-04-12T16:22:16.413Z</time></trkpt><trkpt lat="45.5705718" lon="9.3659196"><ele>164.5</ele><time>2026-04-12T16:22:17.411Z</time></trkpt><trkpt lat="45.5705065" lon="9.3654721"><ele>164.0</ele><time>2026-04-12T16:22:18.412Z</time></trkpt><trkpt lat="45.5704398" lon="9.365023"><ele>164.0</ele><time>2026-04-12T16:22:19.412Z</time></trkpt><trkpt lat="45.5703721" lon="9.364577"><ele>164.0</ele><time>2026-04-12T16:22:20.411Z</time></trkpt><trkpt lat="45.5703049" lon="9.3641322"><ele>163.0</ele><time>2026-04-12T16:22:21.414Z</time></trkpt><trkpt lat="45.5702403" lon="9.3636922"><ele>162.0</ele><time>2026-04-12T16:22:22.41Z</time></trkpt><trkpt lat="45.5701774" lon="9.3632515"><ele>162.0</ele><time>2026-04-12T16:22:23.414Z</time></trkpt><trkpt lat="45.570116" lon="9.3628144"><ele>162.0</ele><time>2026-04-12T16:22:24.412Z</time></trkpt><trkpt lat="45.5699913" lon="9.3619523"><ele>161.0</ele><time>2026-04-12T16:22:26.411Z</time></trkpt><trkpt lat="45.5699301" lon="9.3615357"><ele>160.0</ele><time>2026-04-12T16:22:27.412Z</time></trkpt><trkpt lat="45.5698715" lon="9.3611294"><ele>160.0</ele><time>2026-04-12T16:22:28.412Z</time></trkpt><trkpt lat="45.5698143" lon="9.3607331"><ele>160.0</ele><time>2026-04-12T16:22:29.408Z</time></trkpt><trkpt lat="45.5697586" lon="9.3603519"><ele>160.5</ele><time>2026-04-12T16:22:30.409Z</time></trkpt><trkpt lat="45.5697055" lon="9.3599812"><ele>161.0</ele><time>2026-04-12T16:22:31.413Z</time></trkpt><trkpt lat="45.5696539" lon="9.3596221"><ele>161.0</ele><time>2026-04-12T16:22:32.409Z</time></trkpt><trkpt lat="45.5696033" lon="9.3592727"><ele>161.0</ele><time>2026-04-12T16:22:33.41Z</time></trkpt><trkpt lat="45.5695518" lon="9.3589303"><ele>161.0</ele><time>2026-04-12T16:22:34.409Z</time></trkpt><trkpt lat="45.5694998" lon="9.3585904"><ele>161.0</ele><time>2026-04-12T16:22:35.407Z</time></trkpt><trkpt lat="45.5694501" lon="9.3582453"><ele>159.5</ele><time>2026-04-12T16:22:36.407Z</time></trkpt><trkpt lat="45.5693977" lon="9.3578943"><ele>158.0</ele><time>2026-04-12T16:22:37.407Z</time></trkpt><trkpt lat="45.5693434" lon="9.3575322"><ele>158.5</ele><time>2026-04-12T16:22:38.391Z</time></trkpt><trkpt lat="45.5692889" lon="9.3571687"><ele>159.0</ele><time>2026-04-12T16:22:39.409Z</time></trkpt><trkpt lat="45.5692338" lon="9.3568104"><ele>159.0</ele><time>2026-04-12T16:22:40.41Z</time></trkpt><trkpt lat="45.5691807" lon="9.3564603"><ele>159.0</ele><time>2026-04-12T16:22:41.414Z</time></trkpt><trkpt lat="45.5691297" lon="9.3561246"><ele>159.5</ele><time>2026-04-12T16:22:42.412Z</time></trkpt><trkpt lat="45.5690805" lon="9.3557987"><ele>160.0</ele><time>2026-04-12T16:22:43.412Z</time></trkpt><trkpt lat="45.5690326" lon="9.3554756"><ele>160.5</ele><time>2026-04-12T16:22:44.413Z</time></trkpt><trkpt lat="45.5689861" lon="9.3551481"><ele>161.0</ele><time>2026-04-12T16:22:45.412Z</time></trkpt><trkpt lat="45.5688897" lon="9.3544739"><ele>161.5</ele><time>2026-04-12T16:22:47.413Z</time></trkpt><trkpt lat="45.5688392" lon="9.3541289"><ele>162.0</ele><time>2026-04-12T16:22:48.412Z</time></trkpt><trkpt lat="45.5687878" lon="9.3537806"><ele>162.0</ele><time>2026-04-12T16:22:49.412Z</time></trkpt><trkpt lat="45.5687357" lon="9.353424"><ele>162.0</ele><time>2026-04-12T16:22:50.412Z</time></trkpt><trkpt lat="45.5686827" lon="9.3530631"><ele>160.5</ele><time>2026-04-12T16:22:51.413Z</time></trkpt><trkpt lat="45.5686318" lon="9.3526971"><ele>159.0</ele><time>2026-04-12T16:22:52.412Z</time></trkpt><trkpt lat="45.5685782" lon="9.3523307"><ele>159.5</ele><time>2026-04-12T16:22:53.412Z</time></trkpt><trkpt lat="45.5685257" lon="9.3519603"><ele>160.0</ele><time>2026-04-12T16:22:54.412Z</time></trkpt><trkpt lat="45.5684712" lon="9.3515829"><ele>160.5</ele><time>2026-04-12T16:22:55.395Z</time></trkpt><trkpt lat="45.5684147" lon="9.3511994"><ele>161.0</ele><time>2026-04-12T16:22:56.41Z</time></trkpt><trkpt lat="45.5683584" lon="9.350809"><ele>161.5</ele><time>2026-04-12T16:22:57.412Z</time></trkpt><trkpt lat="45.5682999" lon="9.3504135"><ele>162.0</ele><time>2026-04-12T16:22:58.412Z</time></trkpt><trkpt lat="45.5682422" lon="9.350015"><ele>161.0</ele><time>2026-04-12T16:22:59.408Z</time></trkpt><trkpt lat="45.5681851" lon="9.3496216"><ele>160.0</ele><time>2026-04-12T16:23:00.408Z</time></trkpt><trkpt lat="45.5681321" lon="9.3492333"><ele>160.0</ele><time>2026-04-12T16:23:01.413Z</time></trkpt><trkpt lat="45.5680864" lon="9.348839"><ele>160.0</ele><time>2026-04-12T16:23:02.409Z</time></trkpt><trkpt lat="45.5680441" lon="9.3484348"><ele>160.0</ele><time>2026-04-12T16:23:03.407Z</time></trkpt><trkpt lat="45.568003" lon="9.3480223"><ele>160.0</ele><time>2026-04-12T16:23:04.408Z</time></trkpt><trkpt lat="45.5679592" lon="9.3476077"><ele>161.0</ele><time>2026-04-12T16:23:05.408Z</time></trkpt><trkpt lat="45.5679134" lon="9.3471956"><ele>162.0</ele><time>2026-04-12T16:23:06.41Z</time></trkpt><trkpt lat="45.5678118" lon="9.3463778"><ele>160.0</ele><time>2026-04-12T16:23:08.41Z</time></trkpt><trkpt lat="45.5677575" lon="9.3459622"><ele>158.0</ele><time>2026-04-12T16:23:09.412Z</time></trkpt><trkpt lat="45.5677014" lon="9.3455399"><ele>157.5</ele><time>2026-04-12T16:23:10.411Z</time></trkpt><trkpt lat="45.5676414" lon="9.3451154"><ele>157.0</ele><time>2026-04-12T16:23:11.418Z</time></trkpt><trkpt lat="45.5675771" lon="9.3446905"><ele>156.5</ele><time>2026-04-12T16:23:12.413Z</time></trkpt><trkpt lat="45.5675113" lon="9.3442649"><ele>156.0</ele><time>2026-04-12T16:23:13.412Z</time></trkpt><trkpt lat="45.5674455" lon="9.3438398"><ele>156.0</ele><time>2026-04-12T16:23:14.411Z</time></trkpt><trkpt lat="45.5673809" lon="9.343414"><ele>156.0</ele><time>2026-04-12T16:23:15.411Z</time></trkpt><trkpt lat="45.5673166" lon="9.3429881"><ele>156.0</ele><time>2026-04-12T16:23:16.412Z</time></trkpt><trkpt lat="45.5672542" lon="9.3425621"><ele>156.0</ele><time>2026-04-12T16:23:17.412Z</time></trkpt><trkpt lat="45.5671926" lon="9.3421426"><ele>156.0</ele><time>2026-04-12T16:23:18.411Z</time></trkpt><trkpt lat="45.5671304" lon="9.3417267"><ele>156.0</ele><time>2026-04-12T16:23:19.41Z</time></trkpt><trkpt lat="45.5670714" lon="9.3413122"><ele>157.0</ele><time>2026-04-12T16:23:20.41Z</time></trkpt><trkpt lat="45.5670116" lon="9.340899"><ele>158.0</ele><time>2026-04-12T16:23:21.412Z</time></trkpt><trkpt lat="45.5669501" lon="9.3404833"><ele>158.0</ele><time>2026-04-12T16:23:22.412Z</time></trkpt><trkpt lat="45.5668894" lon="9.3400702"><ele>158.0</ele><time>2026-04-12T16:23:23.412Z</time></trkpt><trkpt lat="45.5668292" lon="9.3396606"><ele>157.5</ele><time>2026-04-12T16:23:24.413Z</time></trkpt><trkpt lat="45.5667703" lon="9.3392546"><ele>157.0</ele><time>2026-04-12T16:23:25.411Z</time></trkpt><trkpt lat="45.5667108" lon="9.338853"><ele>157.0</ele><time>2026-04-12T16:23:26.409Z</time></trkpt><trkpt lat="45.5666524" lon="9.3384512"><ele>157.0</ele><time>2026-04-12T16:23:27.412Z</time></trkpt><trkpt lat="45.5665347" lon="9.3376303"><ele>157.5</ele><time>2026-04-12T16:23:29.41Z</time></trkpt><trkpt lat="45.5664728" lon="9.3372152"><ele>158.0</ele><time>2026-04-12T16:23:30.411Z</time></trkpt><trkpt lat="45.5664105" lon="9.3367974"><ele>158.0</ele><time>2026-04-12T16:23:31.41Z</time></trkpt><trkpt lat="45.5663478" lon="9.3363804"><ele>158.0</ele><time>2026-04-12T16:23:32.41Z</time></trkpt><trkpt lat="45.5662874" lon="9.3359606"><ele>158.5</ele><time>2026-04-12T16:23:33.393Z</time></trkpt><trkpt lat="45.56623" lon="9.3355375"><ele>159.0</ele><time>2026-04-12T16:23:34.407Z</time></trkpt><trkpt lat="45.5661725" lon="9.3351176"><ele>159.0</ele><time>2026-04-12T16:23:35.408Z</time></trkpt><trkpt lat="45.5661127" lon="9.3347012"><ele>159.0</ele><time>2026-04-12T16:23:36.409Z</time></trkpt><trkpt lat="45.5660522" lon="9.3342819"><ele>157.5</ele><time>2026-04-12T16:23:37.41Z</time></trkpt><trkpt lat="45.5659905" lon="9.3338664"><ele>156.0</ele><time>2026-04-12T16:23:38.394Z</time></trkpt><trkpt lat="45.5659281" lon="9.3334511"><ele>156.0</ele><time>2026-04-12T16:23:39.41Z</time></trkpt><trkpt lat="45.5658636" lon="9.333034"><ele>156.0</ele><time>2026-04-12T16:23:40.412Z</time></trkpt><trkpt lat="45.5658003" lon="9.3326132"><ele>156.5</ele><time>2026-04-12T16:23:41.412Z</time></trkpt><trkpt lat="45.5657359" lon="9.3321938"><ele>157.0</ele><time>2026-04-12T16:23:42.41Z</time></trkpt><trkpt lat="45.5656713" lon="9.3317736"><ele>155.5</ele><time>2026-04-12T16:23:43.411Z</time></trkpt><trkpt lat="45.565604" lon="9.3313524"><ele>154.0</ele><time>2026-04-12T16:23:44.412Z</time></trkpt><trkpt lat="45.5655339" lon="9.3309305"><ele>154.0</ele><time>2026-04-12T16:23:45.399Z</time></trkpt><trkpt lat="45.5654649" lon="9.3305063"><ele>154.0</ele><time>2026-04-12T16:23:46.411Z</time></trkpt><trkpt lat="45.5653963" lon="9.3300787"><ele>153.5</ele><time>2026-04-12T16:23:47.412Z</time></trkpt><trkpt lat="45.5653295" lon="9.3296486"><ele>153.0</ele><time>2026-04-12T16:23:48.412Z</time></trkpt><trkpt lat="45.5651922" lon="9.3287927"><ele>153.0</ele><time>2026-04-12T16:23:50.412Z</time></trkpt><trkpt lat="45.5651238" lon="9.3283677"><ele>153.0</ele><time>2026-04-12T16:23:51.414Z</time></trkpt><trkpt lat="45.5650571" lon="9.3279452"><ele>153.0</ele><time>2026-04-12T16:23:52.412Z</time></trkpt><trkpt lat="45.5649915" lon="9.3275256"><ele>153.0</ele><time>2026-04-12T16:23:53.411Z</time></trkpt><trkpt lat="45.5649261" lon="9.3271083"><ele>153.0</ele><time>2026-04-12T16:23:54.41Z</time></trkpt><trkpt lat="45.5648638" lon="9.3266964"><ele>153.0</ele><time>2026-04-12T16:23:55.398Z</time></trkpt><trkpt lat="45.5648056" lon="9.3262923"><ele>153.5</ele><time>2026-04-12T16:23:56.413Z</time></trkpt><trkpt lat="45.5647489" lon="9.3258998"><ele>154.0</ele><time>2026-04-12T16:23:57.413Z</time></trkpt><trkpt lat="45.5646943" lon="9.3255187"><ele>154.5</ele><time>2026-04-12T16:23:58.414Z</time></trkpt><trkpt lat="45.5646406" lon="9.3251507"><ele>155.0</ele><time>2026-04-12T16:23:59.393Z</time></trkpt><trkpt lat="45.5645857" lon="9.3247925"><ele>154.0</ele><time>2026-04-12T16:24:00.409Z</time></trkpt><trkpt lat="45.5645297" lon="9.3244367"><ele>153.0</ele><time>2026-04-12T16:24:01.416Z</time></trkpt><trkpt lat="45.5644742" lon="9.3240802"><ele>152.5</ele><time>2026-04-12T16:24:02.408Z</time></trkpt><trkpt lat="45.5644207" lon="9.3237239"><ele>152.0</ele><time>2026-04-12T16:24:03.411Z</time></trkpt><trkpt lat="45.5643676" lon="9.3233639"><ele>152.5</ele><time>2026-04-12T16:24:04.41Z</time></trkpt><trkpt lat="45.5643165" lon="9.3230031"><ele>153.0</ele><time>2026-04-12T16:24:05.411Z</time></trkpt><trkpt lat="45.564266" lon="9.3226417"><ele>153.0</ele><time>2026-04-12T16:24:06.411Z</time></trkpt><trkpt lat="45.5642156" lon="9.3222822"><ele>153.0</ele><time>2026-04-12T16:24:07.393Z</time></trkpt><trkpt lat="45.5641637" lon="9.3219276"><ele>153.0</ele><time>2026-04-12T16:24:08.411Z</time></trkpt><trkpt lat="45.5641127" lon="9.3215823"><ele>153.0</ele><time>2026-04-12T16:24:09.41Z</time></trkpt><trkpt lat="45.5640103" lon="9.3208949"><ele>153.0</ele><time>2026-04-12T16:24:11.42Z</time></trkpt><trkpt lat="45.5639592" lon="9.3205416"><ele>153.0</ele><time>2026-04-12T16:24:12.412Z</time></trkpt><trkpt lat="45.5639055" lon="9.3201797"><ele>153.0</ele><time>2026-04-12T16:24:13.413Z</time></trkpt><trkpt lat="45.5638489" lon="9.3198095"><ele>153.0</ele><time>2026-04-12T16:24:14.41Z</time></trkpt><trkpt lat="45.5637918" lon="9.3194355"><ele>153.0</ele><time>2026-04-12T16:24:15.412Z</time></trkpt><trkpt lat="45.5637331" lon="9.3190613"><ele>153.0</ele><time>2026-04-12T16:24:16.412Z</time></trkpt><trkpt lat="45.5636759" lon="9.3186934"><ele>153.0</ele><time>2026-04-12T16:24:17.411Z</time></trkpt><trkpt lat="45.5636199" lon="9.3183356"><ele>153.0</ele><time>2026-04-12T16:24:18.411Z</time></trkpt><trkpt lat="45.563566" lon="9.3179878"><ele>152.5</ele><time>2026-04-12T16:24:19.412Z</time></trkpt><trkpt lat="45.563513" lon="9.3176477"><ele>152.0</ele><time>2026-04-12T16:24:20.413Z</time></trkpt><trkpt lat="45.5634622" lon="9.3173069"><ele>151.0</ele><time>2026-04-12T16:24:21.414Z</time></trkpt><trkpt lat="45.5634115" lon="9.3169597"><ele>150.0</ele><time>2026-04-12T16:24:22.414Z</time></trkpt><trkpt lat="45.5633598" lon="9.3166064"><ele>151.0</ele><time>2026-04-12T16:24:23.412Z</time></trkpt><trkpt lat="45.5633032" lon="9.3162444"><ele>152.0</ele><time>2026-04-12T16:24:24.412Z</time></trkpt><trkpt lat="45.5632425" lon="9.3158687"><ele>151.0</ele><time>2026-04-12T16:24:25.411Z</time></trkpt><trkpt lat="45.5631781" lon="9.3154794"><ele>150.0</ele><time>2026-04-12T16:24:26.412Z</time></trkpt><trkpt lat="45.5631115" lon="9.3150756"><ele>149.5</ele><time>2026-04-12T16:24:27.413Z</time></trkpt><trkpt lat="45.5630493" lon="9.3146607"><ele>149.0</ele><time>2026-04-12T16:24:28.412Z</time></trkpt><trkpt lat="45.5629898" lon="9.3142327"><ele>149.0</ele><time>2026-04-12T16:24:29.408Z</time></trkpt><trkpt lat="45.5629274" lon="9.3138001"><ele>150.0</ele><time>2026-04-12T16:24:30.411Z</time></trkpt></trkseg><trkseg><trkpt lat="45.5137672" lon="9.069771"><ele>138.4</ele><time>2026-04-12T16:43:15.292Z</time></trkpt><trkpt lat="45.5137339" lon="9.0696659"><ele>139.79999999999998</ele><time>2026-04-12T16:43:18.299Z</time></trkpt><trkpt lat="45.5136254" lon="9.0695477"><ele>141.2</ele><time>2026-04-12T16:43:20.295Z</time></trkpt><trkpt lat="45.5135648" lon="9.0694735"><ele>142.6</ele><time>2026-04-12T16:43:21.296Z</time></trkpt><trkpt lat="45.5135128" lon="9.0693861"><ele>144.0</ele><time>2026-04-12T16:43:22.3Z</time></trkpt><trkpt lat="45.5134731" lon="9.0692959"><ele>144.0</ele><time>2026-04-12T16:43:23.298Z</time></trkpt><trkpt lat="45.5134456" lon="9.0692041"><ele>144.0</ele><time>2026-04-12T16:43:24.299Z</time></trkpt><trkpt lat="45.513425" lon="9.0691045"><ele>144.0</ele><time>2026-04-12T16:43:25.295Z</time></trkpt><trkpt lat="45.5134039" lon="9.0689926"><ele>144.0</ele><time>2026-04-12T16:43:26.301Z</time></trkpt><trkpt lat="45.5133747" lon="9.0688643"><ele>144.0</ele><time>2026-04-12T16:43:27.294Z</time></trkpt><trkpt lat="45.5133352" lon="9.0687171"><ele>144.0</ele><time>2026-04-12T16:43:28.298Z</time></trkpt><trkpt lat="45.5132963" lon="9.0685525"><ele>144.0</ele><time>2026-04-12T16:43:29.294Z</time></trkpt><trkpt lat="45.5132533" lon="9.0683726"><ele>144.0</ele><time>2026-04-12T16:43:30.296Z</time></trkpt><trkpt lat="45.5132153" lon="9.0681714"><ele>144.0</ele><time>2026-04-12T16:43:31.297Z</time></trkpt><trkpt lat="45.5131849" lon="9.0679462"><ele>144.0</ele><time>2026-04-12T16:43:32.307Z</time></trkpt><trkpt lat="45.5131541" lon="9.0677016"><ele>144.33333333333334</ele><time>2026-04-12T16:43:33.309Z</time></trkpt><trkpt lat="45.5131253" lon="9.0674393"><ele>144.66666666666669</ele><time>2026-04-12T16:43:34.319Z</time></trkpt><trkpt lat="45.5130966" lon="9.0671773"><ele>145.0</ele><time>2026-04-12T16:43:35.305Z</time></trkpt><trkpt lat="45.5130666" lon="9.0669127"><ele>145.0</ele><time>2026-04-12T16:43:36.307Z</time></trkpt><trkpt lat="45.5130345" lon="9.066648"><ele>145.0</ele><time>2026-04-12T16:43:37.314Z</time></trkpt><trkpt lat="45.5130014" lon="9.0663903"><ele>145.0</ele><time>2026-04-12T16:43:38.306Z</time></trkpt><trkpt lat="45.5129681" lon="9.0661453"><ele>145.0</ele><time>2026-04-12T16:43:39.321Z</time></trkpt><trkpt lat="45.5129363" lon="9.0659142"><ele>145.0</ele><time>2026-04-12T16:43:40.302Z</time></trkpt><trkpt lat="45.5129088" lon="9.0656801"><ele>145.0</ele><time>2026-04-12T16:43:41.315Z</time></trkpt><trkpt lat="45.5128849" lon="9.065459"><ele>145.66666666666669</ele><time>2026-04-12T16:43:42.32Z</time></trkpt><trkpt lat="45.5128622" lon="9.0652543"><ele>146.33333333333334</ele><time>2026-04-12T16:43:43.311Z</time></trkpt><trkpt lat="45.5128378" lon="9.0650441"><ele>147.0</ele><time>2026-04-12T16:43:44.305Z</time></trkpt><trkpt lat="45.5128117" lon="9.0648192"><ele>147.0</ele><time>2026-04-12T16:43:45.301Z</time></trkpt><trkpt lat="45.5127832" lon="9.0645767"><ele>147.0</ele><time>2026-04-12T16:43:46.309Z</time></trkpt><trkpt lat="45.5127535" lon="9.0643161"><ele>147.0</ele><time>2026-04-12T16:43:47.32Z</time></trkpt><trkpt lat="45.5127205" lon="9.0640452"><ele>147.0</ele><time>2026-04-12T16:43:48.31Z</time></trkpt><trkpt lat="45.5126908" lon="9.0637721"><ele>147.0</ele><time>2026-04-12T16:43:49.309Z</time></trkpt><trkpt lat="45.5126575" lon="9.0634905"><ele>147.0</ele><time>2026-04-12T16:43:50.305Z</time></trkpt><trkpt lat="45.5126314" lon="9.0632136"><ele>147.0</ele><time>2026-04-12T16:43:51.305Z</time></trkpt><trkpt lat="45.5126131" lon="9.0629548"><ele>147.0</ele><time>2026-04-12T16:43:52.301Z</time></trkpt><trkpt lat="45.5126063" lon="9.0627163"><ele>147.0</ele><time>2026-04-12T16:43:53.313Z</time></trkpt><trkpt lat="45.5126091" lon="9.0624978"><ele>146.25</ele><time>2026-04-12T16:43:54.309Z</time></trkpt><trkpt lat="45.5126154" lon="9.0622963"><ele>145.5</ele><time>2026-04-12T16:43:55.319Z</time></trkpt><trkpt lat="45.5126186" lon="9.0621093"><ele>144.75</ele><time>2026-04-12T16:43:56.305Z</time></trkpt><trkpt lat="45.5126186" lon="9.0619338"><ele>144.0</ele><time>2026-04-12T16:43:57.304Z</time></trkpt><trkpt lat="45.5126126" lon="9.0617655"><ele>144.0</ele><time>2026-04-12T16:43:58.305Z</time></trkpt><trkpt lat="45.5126027" lon="9.0616064"><ele>144.0</ele><time>2026-04-12T16:43:59.305Z</time></trkpt><trkpt lat="45.5125912" lon="9.0614536"><ele>144.0</ele><time>2026-04-12T16:44:00.307Z</time></trkpt><trkpt lat="45.5125777" lon="9.0613123"><ele>144.0</ele><time>2026-04-12T16:44:01.306Z</time></trkpt><trkpt lat="45.5125623" lon="9.0611839"><ele>144.0</ele><time>2026-04-12T16:44:02.306Z</time></trkpt><trkpt lat="45.5125527" lon="9.061052"><ele>144.0</ele><time>2026-04-12T16:44:03.31Z</time></trkpt><trkpt lat="45.512537" lon="9.0609134"><ele>144.0</ele><time>2026-04-12T16:44:04.309Z</time></trkpt><trkpt lat="45.5125214" lon="9.0607772"><ele>144.0</ele><time>2026-04-12T16:44:05.309Z</time></trkpt><trkpt lat="45.5125029" lon="9.0606475"><ele>144.0</ele><time>2026-04-12T16:44:06.294Z</time></trkpt><trkpt lat="45.5124827" lon="9.0604848"><ele>144.0</ele><time>2026-04-12T16:44:07.317Z</time></trkpt><trkpt lat="45.5124537" lon="9.0602986"><ele>144.33333333333334</ele><time>2026-04-12T16:44:08.299Z</time></trkpt><trkpt lat="45.512415" lon="9.0600904"><ele>144.66666666666669</ele><time>2026-04-12T16:44:09.309Z</time></trkpt><trkpt lat="45.5123719" lon="9.0598637"><ele>145.0</ele><time>2026-04-12T16:44:10.303Z</time></trkpt><trkpt lat="45.512327" lon="9.0596215"><ele>145.0</ele><time>2026-04-12T16:44:11.302Z</time></trkpt><trkpt lat="45.5122799" lon="9.0593652"><ele>145.0</ele><time>2026-04-12T16:44:12.31Z</time></trkpt><trkpt lat="45.5122332" lon="9.0591029"><ele>145.0</ele><time>2026-04-12T16:44:13.307Z</time></trkpt><trkpt lat="45.5121825" lon="9.0588377"><ele>145.0</ele><time>2026-04-12T16:44:14.309Z</time></trkpt><trkpt lat="45.5121259" lon="9.0585671"><ele>145.0</ele><time>2026-04-12T16:44:15.316Z</time></trkpt><trkpt lat="45.5120693" lon="9.0582911"><ele>145.0</ele><time>2026-04-12T16:44:16.308Z</time></trkpt><trkpt lat="45.5120169" lon="9.0580024"><ele>145.33333333333334</ele><time>2026-04-12T16:44:17.296Z</time></trkpt><trkpt lat="45.5119736" lon="9.0576998"><ele>145.66666666666666</ele><time>2026-04-12T16:44:18.317Z</time></trkpt><trkpt lat="45.5119351" lon="9.0573875"><ele>146.0</ele><time>2026-04-12T16:44:19.31Z</time></trkpt><trkpt lat="45.5119025" lon="9.0570724"><ele>145.0</ele><time>2026-04-12T16:44:20.308Z</time></trkpt><trkpt lat="45.5118715" lon="9.0567553"><ele>144.0</ele><time>2026-04-12T16:44:21.31Z</time></trkpt><trkpt lat="45.5118449" lon="9.0564347"><ele>143.5</ele><time>2026-04-12T16:44:22.31Z</time></trkpt><trkpt lat="45.5118171" lon="9.0561042"><ele>143.0</ele><time>2026-04-12T16:44:23.317Z</time></trkpt><trkpt lat="45.5117839" lon="9.0557662"><ele>141.5</ele><time>2026-04-12T16:44:24.302Z</time></trkpt><trkpt lat="45.5117452" lon="9.0554217"><ele>140.0</ele><time>2026-04-12T16:44:25.299Z</time></trkpt><trkpt lat="45.5117071" lon="9.0550684"><ele>142.0</ele><time>2026-04-12T16:44:26.314Z</time></trkpt><trkpt lat="45.5116696" lon="9.0547059"><ele>144.0</ele><time>2026-04-12T16:44:27.308Z</time></trkpt><trkpt lat="45.5116316" lon="9.0543444"><ele>145.0</ele><time>2026-04-12T16:44:28.296Z</time></trkpt><trkpt lat="45.5115949" lon="9.0539828"><ele>146.0</ele><time>2026-04-12T16:44:29.315Z</time></trkpt><trkpt lat="45.5115579" lon="9.0536183"><ele>146.0</ele><time>2026-04-12T16:44:30.315Z</time></trkpt><trkpt lat="45.5115209" lon="9.0532493"><ele>146.0</ele><time>2026-04-12T16:44:31.322Z</time></trkpt><trkpt lat="45.5114802" lon="9.0528752"><ele>146.0</ele><time>2026-04-12T16:44:32.302Z</time></trkpt><trkpt lat="45.5114368" lon="9.0524967"><ele>146.0</ele><time>2026-04-12T16:44:33.299Z</time></trkpt><trkpt lat="45.5113923" lon="9.0521156"><ele>145.0</ele><time>2026-04-12T16:44:34.304Z</time></trkpt><trkpt lat="45.5113474" lon="9.0517317"><ele>144.0</ele><time>2026-04-12T16:44:35.316Z</time></trkpt><trkpt lat="45.5113041" lon="9.0513439"><ele>143.5</ele><time>2026-04-12T16:44:36.326Z</time></trkpt><trkpt lat="45.5112612" lon="9.0509503"><ele>143.0</ele><time>2026-04-12T16:44:37.308Z</time></trkpt><trkpt lat="45.5112183" lon="9.0505486"><ele>143.0</ele><time>2026-04-12T16:44:38.306Z</time></trkpt><trkpt lat="45.5111762" lon="9.0501428"><ele>143.0</ele><time>2026-04-12T16:44:39.299Z</time></trkpt><trkpt lat="45.5111337" lon="9.0497426"><ele>144.5</ele><time>2026-04-12T16:44:40.318Z</time></trkpt><trkpt lat="45.5110909" lon="9.0493496"><ele>146.0</ele><time>2026-04-12T16:44:41.318Z</time></trkpt><trkpt lat="45.51105" lon="9.0489579"><ele>146.0</ele><time>2026-04-12T16:44:42.306Z</time></trkpt><trkpt lat="45.5110099" lon="9.0485632"><ele>146.0</ele><time>2026-04-12T16:44:43.315Z</time></trkpt><trkpt lat="45.5109684" lon="9.0481622"><ele>146.0</ele><time>2026-04-12T16:44:44.317Z</time></trkpt><trkpt lat="45.5109256" lon="9.0477536"><ele>146.0</ele><time>2026-04-12T16:44:45.304Z</time></trkpt><trkpt lat="45.5108821" lon="9.0473389"><ele>146.0</ele><time>2026-04-12T16:44:46.309Z</time></trkpt><trkpt lat="45.5108398" lon="9.0469219"><ele>146.0</ele><time>2026-04-12T16:44:47.308Z</time></trkpt><trkpt lat="45.5108006" lon="9.0465013"><ele>147.5</ele><time>2026-04-12T16:44:48.307Z</time></trkpt><trkpt lat="45.5107623" lon="9.0460781"><ele>149.0</ele><time>2026-04-12T16:44:49.307Z</time></trkpt><trkpt lat="45.5107218" lon="9.0456542"><ele>150.5</ele><time>2026-04-12T16:44:50.315Z</time></trkpt><trkpt lat="45.5106773" lon="9.0452297"><ele>152.0</ele><time>2026-04-12T16:44:51.308Z</time></trkpt><trkpt lat="45.5106303" lon="9.044805"><ele>149.0</ele><time>2026-04-12T16:44:52.303Z</time></trkpt><trkpt lat="45.5105821" lon="9.0443777"><ele>146.0</ele><time>2026-04-12T16:44:53.31Z</time></trkpt><trkpt lat="45.5105337" lon="9.0439492"><ele>144.5</ele><time>2026-04-12T16:44:54.309Z</time></trkpt><trkpt lat="45.5104853" lon="9.0435201"><ele>143.0</ele><time>2026-04-12T16:44:55.303Z</time></trkpt><trkpt lat="45.510436" lon="9.0430924"><ele>144.0</ele><time>2026-04-12T16:44:56.298Z</time></trkpt><trkpt lat="45.5103893" lon="9.0426628"><ele>145.0</ele><time>2026-04-12T16:44:57.316Z</time></trkpt><trkpt lat="45.5103445" lon="9.0422339"><ele>145.0</ele><time>2026-04-12T16:44:58.298Z</time></trkpt><trkpt lat="45.5102996" lon="9.0418052"><ele>145.0</ele><time>2026-04-12T16:44:59.31Z</time></trkpt><trkpt lat="45.5102543" lon="9.0413766"><ele>145.0</ele><time>2026-04-12T16:45:00.309Z</time></trkpt><trkpt lat="45.510209" lon="9.0409492"><ele>145.0</ele><time>2026-04-12T16:45:01.3Z</time></trkpt><trkpt lat="45.5101642" lon="9.0405266"><ele>145.0</ele><time>2026-04-12T16:45:02.31Z</time></trkpt><trkpt lat="45.5101207" lon="9.0401074"><ele>145.0</ele><time>2026-04-12T16:45:03.303Z</time></trkpt><trkpt lat="45.5100788" lon="9.0396929"><ele>145.0</ele><time>2026-04-12T16:45:04.307Z</time></trkpt><trkpt lat="45.5100374" lon="9.0392797"><ele>145.0</ele><time>2026-04-12T16:45:05.314Z</time></trkpt><trkpt lat="45.5099952" lon="9.0388651"><ele>145.0</ele><time>2026-04-12T16:45:06.322Z</time></trkpt><trkpt lat="45.5099511" lon="9.0384466"><ele>145.0</ele><time>2026-04-12T16:45:07.31Z</time></trkpt><trkpt lat="45.5099059" lon="9.0380243"><ele>144.5</ele><time>2026-04-12T16:45:08.305Z</time></trkpt><trkpt lat="45.5098609" lon="9.0376"><ele>144.0</ele><time>2026-04-12T16:45:09.31Z</time></trkpt><trkpt lat="45.5098161" lon="9.0371743"><ele>144.5</ele><time>2026-04-12T16:45:10.314Z</time></trkpt><trkpt lat="45.5097716" lon="9.0367485"><ele>145.0</ele><time>2026-04-12T16:45:11.31Z</time></trkpt><trkpt lat="45.5097269" lon="9.0363213"><ele>145.0</ele><time>2026-04-12T16:45:12.304Z</time></trkpt><trkpt lat="45.5096814" lon="9.0358921"><ele>145.0</ele><time>2026-04-12T16:45:13.31Z</time></trkpt><trkpt lat="45.5096336" lon="9.035463"><ele>145.0</ele><time>2026-04-12T16:45:14.307Z</time></trkpt><trkpt lat="45.5095874" lon="9.0350331"><ele>145.0</ele><time>2026-04-12T16:45:15.308Z</time></trkpt><trkpt lat="45.5095426" lon="9.0346031"><ele>145.0</ele><time>2026-04-12T16:45:16.314Z</time></trkpt><trkpt lat="45.5094985" lon="9.0341706"><ele>145.0</ele><time>2026-04-12T16:45:17.303Z</time></trkpt><trkpt lat="45.5094544" lon="9.0337381"><ele>146.0</ele><time>2026-04-12T16:45:18.313Z</time></trkpt><trkpt lat="45.5094115" lon="9.0333059"><ele>147.0</ele><time>2026-04-12T16:45:19.31Z</time></trkpt><trkpt lat="45.5093663" lon="9.0328729"><ele>147.0</ele><time>2026-04-12T16:45:20.31Z</time></trkpt><trkpt lat="45.5093201" lon="9.0324384"><ele>147.0</ele><time>2026-04-12T16:45:21.319Z</time></trkpt><trkpt lat="45.5092719" lon="9.0320043"><ele>147.0</ele><time>2026-04-12T16:45:22.31Z</time></trkpt><trkpt lat="45.5092238" lon="9.0315695"><ele>147.0</ele><time>2026-04-12T16:45:23.306Z</time></trkpt><trkpt lat="45.5091752" lon="9.0311338"><ele>146.0</ele><time>2026-04-12T16:45:24.321Z</time></trkpt><trkpt lat="45.5091274" lon="9.0306982"><ele>145.0</ele><time>2026-04-12T16:45:25.316Z</time></trkpt><trkpt lat="45.5090802" lon="9.0302635"><ele>145.5</ele><time>2026-04-12T16:45:26.302Z</time></trkpt><trkpt lat="45.5090331" lon="9.0298272"><ele>146.0</ele><time>2026-04-12T16:45:27.322Z</time></trkpt><trkpt lat="45.5089865" lon="9.0293924"><ele>146.5</ele><time>2026-04-12T16:45:28.305Z</time></trkpt><trkpt lat="45.5089412" lon="9.0289551"><ele>147.0</ele><time>2026-04-12T16:45:29.305Z</time></trkpt><trkpt lat="45.5088961" lon="9.0285142"><ele>146.5</ele><time>2026-04-12T16:45:30.31Z</time></trkpt><trkpt lat="45.5088487" lon="9.0280725"><ele>146.0</ele><time>2026-04-12T16:45:31.303Z</time></trkpt><trkpt lat="45.5087997" lon="9.027633"><ele>146.0</ele><time>2026-04-12T16:45:32.324Z</time></trkpt><trkpt lat="45.5087491" lon="9.0271958"><ele>146.0</ele><time>2026-04-12T16:45:33.309Z</time></trkpt><trkpt lat="45.5086982" lon="9.0267621"><ele>146.5</ele><time>2026-04-12T16:45:34.296Z</time></trkpt><trkpt lat="45.5086473" lon="9.0263308"><ele>147.0</ele><time>2026-04-12T16:45:35.308Z</time></trkpt><trkpt lat="45.5085954" lon="9.0259026"><ele>147.0</ele><time>2026-04-12T16:45:36.293Z</time></trkpt><trkpt lat="45.5085429" lon="9.0254769"><ele>147.0</ele><time>2026-04-12T16:45:37.321Z</time></trkpt><trkpt lat="45.5084908" lon="9.0250519"><ele>146.0</ele><time>2026-04-12T16:45:38.31Z</time></trkpt><trkpt lat="45.5084396" lon="9.0246259"><ele>145.0</ele><time>2026-04-12T16:45:39.299Z</time></trkpt><trkpt lat="45.5083898" lon="9.0241986"><ele>146.5</ele><time>2026-04-12T16:45:40.31Z</time></trkpt><trkpt lat="45.5083424" lon="9.0237706"><ele>148.0</ele><time>2026-04-12T16:45:41.307Z</time></trkpt><trkpt lat="45.5082978" lon="9.0233389"><ele>148.5</ele><time>2026-04-12T16:45:42.321Z</time></trkpt><trkpt lat="45.5082539" lon="9.0229081"><ele>149.0</ele><time>2026-04-12T16:45:43.313Z</time></trkpt><trkpt lat="45.5082093" lon="9.0224768"><ele>150.0</ele><time>2026-04-12T16:45:44.305Z</time></trkpt><trkpt lat="45.5081641" lon="9.0220439"><ele>151.0</ele><time>2026-04-12T16:45:45.315Z</time></trkpt><trkpt lat="45.5081176" lon="9.0216113"><ele>151.0</ele><time>2026-04-12T16:45:46.306Z</time></trkpt><trkpt lat="45.5080688" lon="9.0211797"><ele>151.0</ele><time>2026-04-12T16:45:47.314Z</time></trkpt><trkpt lat="45.5080203" lon="9.0207466"><ele>150.0</ele><time>2026-04-12T16:45:48.303Z</time></trkpt><trkpt lat="45.5079717" lon="9.0203124"><ele>149.0</ele><time>2026-04-12T16:45:49.311Z</time></trkpt><trkpt lat="45.5079242" lon="9.0198773"><ele>149.0</ele><time>2026-04-12T16:45:50.317Z</time></trkpt><trkpt lat="45.5078785" lon="9.0194418"><ele>149.0</ele><time>2026-04-12T16:45:51.311Z</time></trkpt><trkpt lat="45.5078345" lon="9.0190047"><ele>149.0</ele><time>2026-04-12T16:45:52.312Z</time></trkpt><trkpt lat="45.5077918" lon="9.018566"><ele>149.0</ele><time>2026-04-12T16:45:53.31Z</time></trkpt><trkpt lat="45.5077493" lon="9.0181268"><ele>149.0</ele><time>2026-04-12T16:45:54.314Z</time></trkpt><trkpt lat="45.5077072" lon="9.0176868"><ele>149.0</ele><time>2026-04-12T16:45:55.311Z</time></trkpt><trkpt lat="45.5076646" lon="9.0172454"><ele>149.0</ele><time>2026-04-12T16:45:56.302Z</time></trkpt><trkpt lat="45.5076234" lon="9.0168023"><ele>149.0</ele><time>2026-04-12T16:45:57.309Z</time></trkpt><trkpt lat="45.5075828" lon="9.0163602"><ele>149.5</ele><time>2026-04-12T16:45:58.315Z</time></trkpt><trkpt lat="45.5075409" lon="9.0159194"><ele>150.0</ele><time>2026-04-12T16:45:59.322Z</time></trkpt><trkpt lat="45.507497" lon="9.0154809"><ele>150.5</ele><time>2026-04-12T16:46:00.308Z</time></trkpt><trkpt lat="45.507452" lon="9.0150437"><ele>151.0</ele><time>2026-04-12T16:46:01.312Z</time></trkpt><trkpt lat="45.5074071" lon="9.0146074"><ele>151.5</ele><time>2026-04-12T16:46:02.302Z</time></trkpt><trkpt lat="45.5073623" lon="9.0141703"><ele>152.0</ele><time>2026-04-12T16:46:03.312Z</time></trkpt><trkpt lat="45.5073183" lon="9.0137334"><ele>151.5</ele><time>2026-04-12T16:46:04.316Z</time></trkpt><trkpt lat="45.5072749" lon="9.0132928"><ele>151.0</ele><time>2026-04-12T16:46:05.302Z</time></trkpt><trkpt lat="45.5072317" lon="9.0128503"><ele>151.0</ele><time>2026-04-12T16:46:06.308Z</time></trkpt><trkpt lat="45.5071885" lon="9.0124063"><ele>151.0</ele><time>2026-04-12T16:46:07.322Z</time></trkpt><trkpt lat="45.5071457" lon="9.011963"><ele>151.5</ele><time>2026-04-12T16:46:08.318Z</time></trkpt><trkpt lat="45.5071038" lon="9.0115269"><ele>152.0</ele><time>2026-04-12T16:46:09.304Z</time></trkpt><trkpt lat="45.507061" lon="9.0110843"><ele>151.0</ele><time>2026-04-12T16:46:10.316Z</time></trkpt><trkpt lat="45.5070204" lon="9.0106417"><ele>150.0</ele><time>2026-04-12T16:46:11.305Z</time></trkpt><trkpt lat="45.5069819" lon="9.0101982"><ele>150.0</ele><time>2026-04-12T16:46:12.308Z</time></trkpt><trkpt lat="45.5069438" lon="9.0097539"><ele>150.0</ele><time>2026-04-12T16:46:13.307Z</time></trkpt><trkpt lat="45.506905" lon="9.0093094"><ele>149.0</ele><time>2026-04-12T16:46:14.317Z</time></trkpt><trkpt lat="45.5068656" lon="9.0088631"><ele>148.0</ele><time>2026-04-12T16:46:15.306Z</time></trkpt><trkpt lat="45.5068256" lon="9.0084162"><ele>149.0</ele><time>2026-04-12T16:46:16.31Z</time></trkpt><trkpt lat="45.5067856" lon="9.0079701"><ele>150.0</ele><time>2026-04-12T16:46:17.306Z</time></trkpt><trkpt lat="45.5067467" lon="9.0075237"><ele>150.0</ele><time>2026-04-12T16:46:18.31Z</time></trkpt><trkpt lat="45.5067071" lon="9.0070793"><ele>150.0</ele><time>2026-04-12T16:46:19.317Z</time></trkpt><trkpt lat="45.5066669" lon="9.0066358"><ele>149.5</ele><time>2026-04-12T16:46:20.313Z</time></trkpt><trkpt lat="45.5066277" lon="9.0061917"><ele>149.0</ele><time>2026-04-12T16:46:21.314Z</time></trkpt><trkpt lat="45.5065907" lon="9.0057466"><ele>149.0</ele><time>2026-04-12T16:46:22.318Z</time></trkpt><trkpt lat="45.506554" lon="9.0053024"><ele>149.0</ele><time>2026-04-12T16:46:23.311Z</time></trkpt><trkpt lat="45.5065174" lon="9.0048589"><ele>149.0</ele><time>2026-04-12T16:46:24.307Z</time></trkpt><trkpt lat="45.5064817" lon="9.0044216"><ele>149.0</ele><time>2026-04-12T16:46:25.312Z</time></trkpt><trkpt lat="45.5064462" lon="9.0039959"><ele>149.0</ele><time>2026-04-12T16:46:26.301Z</time></trkpt><trkpt lat="45.5064155" lon="9.0035737"><ele>149.0</ele><time>2026-04-12T16:46:27.312Z</time></trkpt><trkpt lat="45.5063933" lon="9.0031778"><ele>148.0</ele><time>2026-04-12T16:46:28.3Z</time></trkpt><trkpt lat="45.5063746" lon="9.0028147"><ele>147.0</ele><time>2026-04-12T16:46:29.292Z</time></trkpt><trkpt lat="45.5063589" lon="9.0024822"><ele>146.33333333333334</ele><time>2026-04-12T16:46:30.299Z</time></trkpt><trkpt lat="45.5063454" lon="9.0021788"><ele>145.66666666666669</ele><time>2026-04-12T16:46:31.3Z</time></trkpt><trkpt lat="45.5063322" lon="9.0018949"><ele>145.0</ele><time>2026-04-12T16:46:32.305Z</time></trkpt><trkpt lat="45.5063125" lon="9.001614"><ele>147.0</ele><time>2026-04-12T16:46:33.296Z</time></trkpt><trkpt lat="45.5062879" lon="9.0013051"><ele>149.0</ele><time>2026-04-12T16:46:34.296Z</time></trkpt><trkpt lat="45.5062608" lon="9.0008188"><ele>149.0</ele><time>2026-04-12T16:46:35.309Z</time></trkpt><trkpt lat="45.5062309" lon="9.0002621"><ele>149.0</ele><time>2026-04-12T16:46:36.298Z</time></trkpt><trkpt lat="45.5061886" lon="8.9997598"><ele>149.0</ele><time>2026-04-12T16:46:37.309Z</time></trkpt><trkpt lat="45.5061398" lon="8.9992704"><ele>149.0</ele><time>2026-04-12T16:46:38.311Z</time></trkpt><trkpt lat="45.506083" lon="8.9987651"><ele>149.5</ele><time>2026-04-12T16:46:39.306Z</time></trkpt><trkpt lat="45.5060277" lon="8.9982689"><ele>150.0</ele><time>2026-04-12T16:46:40.314Z</time></trkpt><trkpt lat="45.5059816" lon="8.9978101"><ele>151.5</ele><time>2026-04-12T16:46:41.308Z</time></trkpt><trkpt lat="45.5059392" lon="8.9973585"><ele>153.0</ele><time>2026-04-12T16:46:42.318Z</time></trkpt><trkpt lat="45.5058955" lon="8.9969142"><ele>153.0</ele><time>2026-04-12T16:46:43.311Z</time></trkpt><trkpt lat="45.5058534" lon="8.9964728"><ele>153.0</ele><time>2026-04-12T16:46:44.31Z</time></trkpt><trkpt lat="45.5058152" lon="8.9960343"><ele>153.0</ele><time>2026-04-12T16:46:45.308Z</time></trkpt><trkpt lat="45.5057788" lon="8.9956023"><ele>153.0</ele><time>2026-04-12T16:46:46.304Z</time></trkpt><trkpt lat="45.5057412" lon="8.9951794"><ele>152.5</ele><time>2026-04-12T16:46:47.313Z</time></trkpt><trkpt lat="45.505704" lon="8.9947644"><ele>152.0</ele><time>2026-04-12T16:46:48.309Z</time></trkpt><trkpt lat="45.5056683" lon="8.994353"><ele>152.0</ele><time>2026-04-12T16:46:49.303Z</time></trkpt><trkpt lat="45.5056335" lon="8.993941"><ele>152.0</ele><time>2026-04-12T16:46:50.309Z</time></trkpt><trkpt lat="45.5055997" lon="8.9935296"><ele>151.5</ele><time>2026-04-12T16:46:51.311Z</time></trkpt><trkpt lat="45.5055645" lon="8.9931185"><ele>151.0</ele><time>2026-04-12T16:46:52.31Z</time></trkpt><trkpt lat="45.5055292" lon="8.9927091"><ele>150.5</ele><time>2026-04-12T16:46:53.31Z</time></trkpt><trkpt lat="45.5054924" lon="8.9922996"><ele>150.0</ele><time>2026-04-12T16:46:54.309Z</time></trkpt><trkpt lat="45.5054579" lon="8.9918886"><ele>150.0</ele><time>2026-04-12T16:46:55.312Z</time></trkpt><trkpt lat="45.5054234" lon="8.9914797"><ele>150.0</ele><time>2026-04-12T16:46:56.32Z</time></trkpt><trkpt lat="45.5053903" lon="8.9910716"><ele>150.0</ele><time>2026-04-12T16:46:57.309Z</time></trkpt><trkpt lat="45.5053585" lon="8.990662"><ele>150.0</ele><time>2026-04-12T16:46:58.301Z</time></trkpt><trkpt lat="45.5053262" lon="8.9902491"><ele>151.5</ele><time>2026-04-12T16:46:59.311Z</time></trkpt><trkpt lat="45.5052923" lon="8.9898322"><ele>153.0</ele><time>2026-04-12T16:47:00.307Z</time></trkpt><trkpt lat="45.5052577" lon="8.9894113"><ele>154.0</ele><time>2026-04-12T16:47:01.312Z</time></trkpt><trkpt lat="45.5052231" lon="8.9889877"><ele>155.0</ele><time>2026-04-12T16:47:02.303Z</time></trkpt><trkpt lat="45.5051889" lon="8.9885608"><ele>154.0</ele><time>2026-04-12T16:47:03.31Z</time></trkpt><trkpt lat="45.505154" lon="8.9881324"><ele>153.0</ele><time>2026-04-12T16:47:04.314Z</time></trkpt><trkpt lat="45.5051191" lon="8.987703"><ele>152.5</ele><time>2026-04-12T16:47:05.305Z</time></trkpt><trkpt lat="45.5050848" lon="8.9872729"><ele>152.0</ele><time>2026-04-12T16:47:06.311Z</time></trkpt><trkpt lat="45.5050497" lon="8.9868417"><ele>153.0</ele><time>2026-04-12T16:47:07.316Z</time></trkpt><trkpt lat="45.5050144" lon="8.98641"><ele>154.0</ele><time>2026-04-12T16:47:08.321Z</time></trkpt><trkpt lat="45.5049802" lon="8.9859791"><ele>153.0</ele><time>2026-04-12T16:47:09.311Z</time></trkpt><trkpt lat="45.5049445" lon="8.985551"><ele>152.0</ele><time>2026-04-12T16:47:10.3Z</time></trkpt><trkpt lat="45.5049052" lon="8.9851239"><ele>151.5</ele><time>2026-04-12T16:47:11.321Z</time></trkpt><trkpt lat="45.5048634" lon="8.984693"><ele>151.0</ele><time>2026-04-12T16:47:12.311Z</time></trkpt><trkpt lat="45.5048218" lon="8.9842586"><ele>151.5</ele><time>2026-04-12T16:47:13.323Z</time></trkpt><trkpt lat="45.5047819" lon="8.9838188"><ele>152.0</ele><time>2026-04-12T16:47:14.302Z</time></trkpt><trkpt lat="45.5047411" lon="8.9833749"><ele>151.0</ele><time>2026-04-12T16:47:15.311Z</time></trkpt><trkpt lat="45.5047036" lon="8.9829287"><ele>150.0</ele><time>2026-04-12T16:47:16.314Z</time></trkpt><trkpt lat="45.5046689" lon="8.9824815"><ele>150.0</ele><time>2026-04-12T16:47:17.31Z</time></trkpt><trkpt lat="45.5046346" lon="8.9820368"><ele>150.0</ele><time>2026-04-12T16:47:18.306Z</time></trkpt><trkpt lat="45.5045999" lon="8.9815929"><ele>150.5</ele><time>2026-04-12T16:47:19.314Z</time></trkpt><trkpt lat="45.5045648" lon="8.9811489"><ele>151.0</ele><time>2026-04-12T16:47:20.304Z</time></trkpt><trkpt lat="45.5045299" lon="8.9807066"><ele>151.0</ele><time>2026-04-12T16:47:21.303Z</time></trkpt><trkpt lat="45.5044962" lon="8.9802633"><ele>151.0</ele><time>2026-04-12T16:47:22.311Z</time></trkpt><trkpt lat="45.5044646" lon="8.9798194"><ele>151.5</ele><time>2026-04-12T16:47:23.307Z</time></trkpt><trkpt lat="45.5044334" lon="8.979374"><ele>152.0</ele><time>2026-04-12T16:47:24.309Z</time></trkpt><trkpt lat="45.5044012" lon="8.9789301"><ele>151.0</ele><time>2026-04-12T16:47:25.312Z</time></trkpt><trkpt lat="45.5043693" lon="8.9784882"><ele>150.0</ele><time>2026-04-12T16:47:26.301Z</time></trkpt><trkpt lat="45.5043368" lon="8.9780489"><ele>150.0</ele><time>2026-04-12T16:47:27.305Z</time></trkpt><trkpt lat="45.5043036" lon="8.9776136"><ele>150.0</ele><time>2026-04-12T16:47:28.312Z</time></trkpt><trkpt lat="45.5042705" lon="8.9771821"><ele>150.0</ele><time>2026-04-12T16:47:29.323Z</time></trkpt><trkpt lat="45.5042368" lon="8.9767521"><ele>150.0</ele><time>2026-04-12T16:47:30.307Z</time></trkpt><trkpt lat="45.5042032" lon="8.9763237"><ele>150.0</ele><time>2026-04-12T16:47:31.321Z</time></trkpt><trkpt lat="45.5041703" lon="8.9758942"><ele>150.0</ele><time>2026-04-12T16:47:32.31Z</time></trkpt><trkpt lat="45.5041381" lon="8.9754646"><ele>151.0</ele><time>2026-04-12T16:47:33.307Z</time></trkpt><trkpt lat="45.5041061" lon="8.9750372"><ele>152.0</ele><time>2026-04-12T16:47:34.313Z</time></trkpt><trkpt lat="45.5040743" lon="8.9746101"><ele>153.0</ele><time>2026-04-12T16:47:35.3Z</time></trkpt><trkpt lat="45.5040444" lon="8.9741789"><ele>154.0</ele><time>2026-04-12T16:47:36.316Z</time></trkpt><trkpt lat="45.5040164" lon="8.9737467"><ele>153.5</ele><time>2026-04-12T16:47:37.3Z</time></trkpt><trkpt lat="45.5039886" lon="8.973314"><ele>153.0</ele><time>2026-04-12T16:47:38.31Z</time></trkpt><trkpt lat="45.5039594" lon="8.9728784"><ele>152.0</ele><time>2026-04-12T16:47:39.306Z</time></trkpt><trkpt lat="45.5039297" lon="8.9724411"><ele>151.0</ele><time>2026-04-12T16:47:40.316Z</time></trkpt><trkpt lat="45.5038981" lon="8.9720045"><ele>150.5</ele><time>2026-04-12T16:47:41.311Z</time></trkpt><trkpt lat="45.5038644" lon="8.9715712"><ele>150.0</ele><time>2026-04-12T16:47:42.3Z</time></trkpt><trkpt lat="45.50383" lon="8.971137"><ele>149.5</ele><time>2026-04-12T16:47:43.318Z</time></trkpt><trkpt lat="45.503795" lon="8.9707005"><ele>149.0</ele><time>2026-04-12T16:47:44.308Z</time></trkpt><trkpt lat="45.5037588" lon="8.9702618"><ele>151.0</ele><time>2026-04-12T16:47:45.31Z</time></trkpt><trkpt lat="45.5037228" lon="8.969821"><ele>153.0</ele><time>2026-04-12T16:47:46.302Z</time></trkpt><trkpt lat="45.5036868" lon="8.9693754"><ele>152.5</ele><time>2026-04-12T16:47:47.308Z</time></trkpt><trkpt lat="45.5036505" lon="8.9689278"><ele>152.0</ele><time>2026-04-12T16:47:48.306Z</time></trkpt><trkpt lat="45.5036139" lon="8.9684809"><ele>151.5</ele><time>2026-04-12T16:47:49.308Z</time></trkpt><trkpt lat="45.5035779" lon="8.9680347"><ele>151.0</ele><time>2026-04-12T16:47:50.307Z</time></trkpt><trkpt lat="45.5035418" lon="8.9675905"><ele>150.5</ele><time>2026-04-12T16:47:51.311Z</time></trkpt><trkpt lat="45.5035063" lon="8.9671453"><ele>150.0</ele><time>2026-04-12T16:47:52.311Z</time></trkpt><trkpt lat="45.5034707" lon="8.9667006"><ele>150.5</ele><time>2026-04-12T16:47:53.313Z</time></trkpt><trkpt lat="45.5034347" lon="8.966256"><ele>151.0</ele><time>2026-04-12T16:47:54.311Z</time></trkpt><trkpt lat="45.5033975" lon="8.9658133"><ele>151.0</ele><time>2026-04-12T16:47:55.323Z</time></trkpt><trkpt lat="45.5033595" lon="8.9653732"><ele>151.0</ele><time>2026-04-12T16:47:56.307Z</time></trkpt><trkpt lat="45.5033212" lon="8.9649329"><ele>150.5</ele><time>2026-04-12T16:47:57.312Z</time></trkpt><trkpt lat="45.5032832" lon="8.9644928"><ele>150.0</ele><time>2026-04-12T16:47:58.298Z</time></trkpt><trkpt lat="45.5032455" lon="8.9640511"><ele>151.5</ele><time>2026-04-12T16:47:59.306Z</time></trkpt><trkpt lat="45.5032088" lon="8.9636082"><ele>153.0</ele><time>2026-04-12T16:48:00.305Z</time></trkpt><trkpt lat="45.5031738" lon="8.9631653"><ele>153.0</ele><time>2026-04-12T16:48:01.312Z</time></trkpt><trkpt lat="45.5031403" lon="8.9627229"><ele>153.0</ele><time>2026-04-12T16:48:02.313Z</time></trkpt><trkpt lat="45.5031052" lon="8.9622813"><ele>152.0</ele><time>2026-04-12T16:48:03.319Z</time></trkpt><trkpt lat="45.5030705" lon="8.9618402"><ele>151.0</ele><time>2026-04-12T16:48:04.306Z</time></trkpt><trkpt lat="45.5030367" lon="8.9613978"><ele>151.0</ele><time>2026-04-12T16:48:05.32Z</time></trkpt><trkpt lat="45.5030025" lon="8.9609569"><ele>151.0</ele><time>2026-04-12T16:48:06.321Z</time></trkpt><trkpt lat="45.5029681" lon="8.9605192"><ele>151.5</ele><time>2026-04-12T16:48:07.317Z</time></trkpt><trkpt lat="45.5029339" lon="8.9600824"><ele>152.0</ele><time>2026-04-12T16:48:08.31Z</time></trkpt><trkpt lat="45.5028985" lon="8.9596483"><ele>152.0</ele><time>2026-04-12T16:48:09.302Z</time></trkpt><trkpt lat="45.5028635" lon="8.9592155"><ele>152.0</ele><time>2026-04-12T16:48:10.305Z</time></trkpt><trkpt lat="45.5028291" lon="8.9587821"><ele>152.5</ele><time>2026-04-12T16:48:11.311Z</time></trkpt><trkpt lat="45.5027947" lon="8.9583471"><ele>153.0</ele><time>2026-04-12T16:48:12.301Z</time></trkpt><trkpt lat="45.5027603" lon="8.9579116"><ele>152.0</ele><time>2026-04-12T16:48:13.313Z</time></trkpt><trkpt lat="45.502726" lon="8.9574764"><ele>151.0</ele><time>2026-04-12T16:48:14.311Z</time></trkpt><trkpt lat="45.5026916" lon="8.9570457"><ele>152.0</ele><time>2026-04-12T16:48:15.306Z</time></trkpt><trkpt lat="45.5026569" lon="8.9566081"><ele>153.0</ele><time>2026-04-12T16:48:16.305Z</time></trkpt><trkpt lat="45.5026222" lon="8.9561705"><ele>153.0</ele><time>2026-04-12T16:48:17.31Z</time></trkpt><trkpt lat="45.5025869" lon="8.955733"><ele>153.0</ele><time>2026-04-12T16:48:18.322Z</time></trkpt><trkpt lat="45.5025491" lon="8.9552968"><ele>154.0</ele><time>2026-04-12T16:48:19.308Z</time></trkpt><trkpt lat="45.5025089" lon="8.9548612"><ele>155.0</ele><time>2026-04-12T16:48:20.328Z</time></trkpt><trkpt lat="45.5024685" lon="8.9544249"><ele>154.0</ele><time>2026-04-12T16:48:21.314Z</time></trkpt><trkpt lat="45.5024275" lon="8.95399"><ele>153.0</ele><time>2026-04-12T16:48:22.309Z</time></trkpt><trkpt lat="45.5023845" lon="8.9535557"><ele>152.5</ele><time>2026-04-12T16:48:23.302Z</time></trkpt><trkpt lat="45.5023382" lon="8.9531208"><ele>152.0</ele><time>2026-04-12T16:48:24.307Z</time></trkpt><trkpt lat="45.5022895" lon="8.9526844"><ele>153.5</ele><time>2026-04-12T16:48:25.309Z</time></trkpt><trkpt lat="45.5022405" lon="8.9522471"><ele>155.0</ele><time>2026-04-12T16:48:26.302Z</time></trkpt><trkpt lat="45.5021905" lon="8.9518102"><ele>153.5</ele><time>2026-04-12T16:48:27.307Z</time></trkpt><trkpt lat="45.5021407" lon="8.9513739"><ele>152.0</ele><time>2026-04-12T16:48:28.301Z</time></trkpt><trkpt lat="45.5020913" lon="8.9509393"><ele>150.0</ele><time>2026-04-12T16:48:29.312Z</time></trkpt><trkpt lat="45.5020424" lon="8.9505065"><ele>148.0</ele><time>2026-04-12T16:48:30.306Z</time></trkpt><trkpt lat="45.5019933" lon="8.9500737"><ele>149.0</ele><time>2026-04-12T16:48:31.336Z</time></trkpt><trkpt lat="45.5019428" lon="8.949643"><ele>150.0</ele><time>2026-04-12T16:48:32.311Z</time></trkpt><trkpt lat="45.5018915" lon="8.9492142"><ele>150.5</ele><time>2026-04-12T16:48:33.312Z</time></trkpt><trkpt lat="45.5018401" lon="8.9487874"><ele>151.0</ele><time>2026-04-12T16:48:34.312Z</time></trkpt><trkpt lat="45.5017903" lon="8.9483609"><ele>151.5</ele><time>2026-04-12T16:48:35.303Z</time></trkpt><trkpt lat="45.5017418" lon="8.9479334"><ele>152.0</ele><time>2026-04-12T16:48:36.299Z</time></trkpt><trkpt lat="45.5016942" lon="8.9475041"><ele>152.0</ele><time>2026-04-12T16:48:37.303Z</time></trkpt><trkpt lat="45.5016488" lon="8.9470742"><ele>152.0</ele><time>2026-04-12T16:48:38.305Z</time></trkpt><trkpt lat="45.5016038" lon="8.9466433"><ele>152.0</ele><time>2026-04-12T16:48:39.306Z</time></trkpt><trkpt lat="45.5015593" lon="8.9462087"><ele>152.0</ele><time>2026-04-12T16:48:40.31Z</time></trkpt><trkpt lat="45.5015139" lon="8.9457721"><ele>152.5</ele><time>2026-04-12T16:48:41.304Z</time></trkpt><trkpt lat="45.5014677" lon="8.9453341"><ele>153.0</ele><time>2026-04-12T16:48:42.324Z</time></trkpt><trkpt lat="45.5014225" lon="8.9448955"><ele>153.5</ele><time>2026-04-12T16:48:43.305Z</time></trkpt><trkpt lat="45.5013764" lon="8.9444569"><ele>154.0</ele><time>2026-04-12T16:48:44.303Z</time></trkpt><trkpt lat="45.5013289" lon="8.9440175"><ele>154.0</ele><time>2026-04-12T16:48:45.302Z</time></trkpt><trkpt lat="45.5012821" lon="8.9435773"><ele>154.0</ele><time>2026-04-12T16:48:46.311Z</time></trkpt><trkpt lat="45.5012344" lon="8.9431364"><ele>152.0</ele><time>2026-04-12T16:48:47.311Z</time></trkpt><trkpt lat="45.5011866" lon="8.9426954"><ele>150.0</ele><time>2026-04-12T16:48:48.311Z</time></trkpt><trkpt lat="45.5011383" lon="8.9422552"><ele>150.0</ele><time>2026-04-12T16:48:49.327Z</time></trkpt><trkpt lat="45.5010913" lon="8.9418149"><ele>150.0</ele><time>2026-04-12T16:48:50.309Z</time></trkpt><trkpt lat="45.5010449" lon="8.9413752"><ele>150.0</ele><time>2026-04-12T16:48:51.313Z</time></trkpt><trkpt lat="45.5009995" lon="8.940935"><ele>150.0</ele><time>2026-04-12T16:48:52.302Z</time></trkpt><trkpt lat="45.5009552" lon="8.9404954"><ele>150.5</ele><time>2026-04-12T16:48:53.311Z</time></trkpt><trkpt lat="45.5009104" lon="8.9400563"><ele>151.0</ele><time>2026-04-12T16:48:54.324Z</time></trkpt><trkpt lat="45.5008656" lon="8.9396167"><ele>152.0</ele><time>2026-04-12T16:48:55.304Z</time></trkpt><trkpt lat="45.500822" lon="8.9391773"><ele>153.0</ele><time>2026-04-12T16:48:56.312Z</time></trkpt><trkpt lat="45.50078" lon="8.9387372"><ele>152.0</ele><time>2026-04-12T16:48:57.311Z</time></trkpt><trkpt lat="45.5007383" lon="8.9382955"><ele>151.0</ele><time>2026-04-12T16:48:58.297Z</time></trkpt><trkpt lat="45.5006972" lon="8.9378557"><ele>152.5</ele><time>2026-04-12T16:48:59.31Z</time></trkpt><trkpt lat="45.5006573" lon="8.9374156"><ele>154.0</ele><time>2026-04-12T16:49:00.312Z</time></trkpt><trkpt lat="45.5006194" lon="8.9369745"><ele>155.5</ele><time>2026-04-12T16:49:01.312Z</time></trkpt><trkpt lat="45.5005826" lon="8.9365344"><ele>157.0</ele><time>2026-04-12T16:49:02.311Z</time></trkpt><trkpt lat="45.5005485" lon="8.9360944"><ele>156.5</ele><time>2026-04-12T16:49:03.301Z</time></trkpt><trkpt lat="45.5005157" lon="8.9356546"><ele>156.0</ele><time>2026-04-12T16:49:04.307Z</time></trkpt><trkpt lat="45.5004822" lon="8.9352212"><ele>155.5</ele><time>2026-04-12T16:49:05.316Z</time></trkpt><trkpt lat="45.5004468" lon="8.9347857"><ele>155.0</ele><time>2026-04-12T16:49:06.312Z</time></trkpt><trkpt lat="45.5004145" lon="8.934347"><ele>154.0</ele><time>2026-04-12T16:49:07.296Z</time></trkpt><trkpt lat="45.5003784" lon="8.9339077"><ele>153.0</ele><time>2026-04-12T16:49:08.302Z</time></trkpt><trkpt lat="45.5003397" lon="8.933466"><ele>152.5</ele><time>2026-04-12T16:49:09.322Z</time></trkpt><trkpt lat="45.500301" lon="8.9330269"><ele>152.0</ele><time>2026-04-12T16:49:10.296Z</time></trkpt><trkpt lat="45.500262" lon="8.932587"><ele>152.0</ele><time>2026-04-12T16:49:11.313Z</time></trkpt><trkpt lat="45.5002201" lon="8.9321511"><ele>152.0</ele><time>2026-04-12T16:49:12.309Z</time></trkpt><trkpt lat="45.5001775" lon="8.9317123"><ele>152.0</ele><time>2026-04-12T16:49:13.322Z</time></trkpt><trkpt lat="45.5001346" lon="8.9312743"><ele>152.0</ele><time>2026-04-12T16:49:14.312Z</time></trkpt><trkpt lat="45.5000913" lon="8.9308379"><ele>152.5</ele><time>2026-04-12T16:49:15.312Z</time></trkpt><trkpt lat="45.5000478" lon="8.9304037"><ele>153.0</ele><time>2026-04-12T16:49:16.312Z</time></trkpt><trkpt lat="45.500006" lon="8.9299684"><ele>152.0</ele><time>2026-04-12T16:49:17.301Z</time></trkpt><trkpt lat="45.4999632" lon="8.9295345"><ele>151.0</ele><time>2026-04-12T16:49:18.311Z</time></trkpt><trkpt lat="45.4999156" lon="8.929103"><ele>151.0</ele><time>2026-04-12T16:49:19.319Z</time></trkpt><trkpt lat="45.4998666" lon="8.9286749"><ele>151.0</ele><time>2026-04-12T16:49:20.311Z</time></trkpt><trkpt lat="45.4998171" lon="8.9282524"><ele>151.0</ele><time>2026-04-12T16:49:21.332Z</time></trkpt><trkpt lat="45.4997695" lon="8.9278301"><ele>151.0</ele><time>2026-04-12T16:49:22.321Z</time></trkpt><trkpt lat="45.4997231" lon="8.9274072"><ele>151.0</ele><time>2026-04-12T16:49:23.31Z</time></trkpt><trkpt lat="45.499678" lon="8.9269841"><ele>151.0</ele><time>2026-04-12T16:49:24.312Z</time></trkpt><trkpt lat="45.4996339" lon="8.9265617"><ele>151.5</ele><time>2026-04-12T16:49:25.305Z</time></trkpt><trkpt lat="45.49959" lon="8.9261435"><ele>152.0</ele><time>2026-04-12T16:49:26.306Z</time></trkpt><trkpt lat="45.4995463" lon="8.9257296"><ele>152.5</ele><time>2026-04-12T16:49:27.3Z</time></trkpt><trkpt lat="45.4995025" lon="8.9253202"><ele>153.0</ele><time>2026-04-12T16:49:28.325Z</time></trkpt><trkpt lat="45.4994586" lon="8.9249127"><ele>153.0</ele><time>2026-04-12T16:49:29.311Z</time></trkpt><trkpt lat="45.4994153" lon="8.924502"><ele>153.0</ele><time>2026-04-12T16:49:30.303Z</time></trkpt><trkpt lat="45.4993713" lon="8.9240906"><ele>153.5</ele><time>2026-04-12T16:49:31.306Z</time></trkpt><trkpt lat="45.4993274" lon="8.9236755"><ele>154.0</ele><time>2026-04-12T16:49:32.307Z</time></trkpt><trkpt lat="45.499284" lon="8.9232575"><ele>154.0</ele><time>2026-04-12T16:49:33.312Z</time></trkpt><trkpt lat="45.4992414" lon="8.9228389"><ele>154.0</ele><time>2026-04-12T16:49:34.307Z</time></trkpt><trkpt lat="45.4992017" lon="8.9224171"><ele>154.0</ele><time>2026-04-12T16:49:35.325Z</time></trkpt><trkpt lat="45.4991592" lon="8.9219966"><ele>154.0</ele><time>2026-04-12T16:49:36.313Z</time></trkpt><trkpt lat="45.4991175" lon="8.921577"><ele>153.0</ele><time>2026-04-12T16:49:37.302Z</time></trkpt><trkpt lat="45.4990729" lon="8.9211592"><ele>152.0</ele><time>2026-04-12T16:49:38.309Z</time></trkpt><trkpt lat="45.4990268" lon="8.9207409"><ele>151.5</ele><time>2026-04-12T16:49:39.302Z</time></trkpt><trkpt lat="45.4989817" lon="8.9203231"><ele>151.0</ele><time>2026-04-12T16:49:40.311Z</time></trkpt><trkpt lat="45.4989369" lon="8.9199034"><ele>151.0</ele><time>2026-04-12T16:49:41.31Z</time></trkpt><trkpt lat="45.4988921" lon="8.9194865"><ele>151.0</ele><time>2026-04-12T16:49:42.325Z</time></trkpt><trkpt lat="45.4988481" lon="8.9190725"><ele>150.5</ele><time>2026-04-12T16:49:43.314Z</time></trkpt><trkpt lat="45.4988016" lon="8.9186645"><ele>150.0</ele><time>2026-04-12T16:49:44.32Z</time></trkpt><trkpt lat="45.4987568" lon="8.9182518"><ele>151.0</ele><time>2026-04-12T16:49:45.3Z</time></trkpt><trkpt lat="45.4987124" lon="8.9178397"><ele>152.0</ele><time>2026-04-12T16:49:46.303Z</time></trkpt><trkpt lat="45.4986682" lon="8.9174257"><ele>152.0</ele><time>2026-04-12T16:49:47.311Z</time></trkpt><trkpt lat="45.4986243" lon="8.9170092"><ele>152.0</ele><time>2026-04-12T16:49:48.312Z</time></trkpt><trkpt lat="45.4985812" lon="8.9165904"><ele>151.5</ele><time>2026-04-12T16:49:49.312Z</time></trkpt><trkpt lat="45.4985381" lon="8.9161704"><ele>151.0</ele><time>2026-04-12T16:49:50.313Z</time></trkpt><trkpt lat="45.4984934" lon="8.9157498"><ele>151.0</ele><time>2026-04-12T16:49:51.31Z</time></trkpt><trkpt lat="45.4984464" lon="8.9153273"><ele>151.0</ele><time>2026-04-12T16:49:52.306Z</time></trkpt><trkpt lat="45.4983986" lon="8.9149041"><ele>151.5</ele><time>2026-04-12T16:49:53.322Z</time></trkpt><trkpt lat="45.4983507" lon="8.9144791"><ele>152.0</ele><time>2026-04-12T16:49:54.322Z</time></trkpt><trkpt lat="45.4983041" lon="8.9140519"><ele>152.0</ele><time>2026-04-12T16:49:55.325Z</time></trkpt><trkpt lat="45.4982593" lon="8.9136225"><ele>152.0</ele><time>2026-04-12T16:49:56.312Z</time></trkpt><trkpt lat="45.498217" lon="8.9131935"><ele>152.0</ele><time>2026-04-12T16:49:57.302Z</time></trkpt><trkpt lat="45.4981743" lon="8.9127646"><ele>152.0</ele><time>2026-04-12T16:49:58.309Z</time></trkpt><trkpt lat="45.4981295" lon="8.9123334"><ele>152.0</ele><time>2026-04-12T16:49:59.31Z</time></trkpt><trkpt lat="45.4980831" lon="8.9119019"><ele>152.0</ele><time>2026-04-12T16:50:00.316Z</time></trkpt><trkpt lat="45.4980351" lon="8.9114693"><ele>152.0</ele><time>2026-04-12T16:50:01.305Z</time></trkpt><trkpt lat="45.497986" lon="8.9110358"><ele>152.0</ele><time>2026-04-12T16:50:02.31Z</time></trkpt><trkpt lat="45.4979326" lon="8.9106073"><ele>152.0</ele><time>2026-04-12T16:50:03.318Z</time></trkpt><trkpt lat="45.4978803" lon="8.9101758"><ele>152.0</ele><time>2026-04-12T16:50:04.31Z</time></trkpt><trkpt lat="45.4978277" lon="8.9097436"><ele>152.0</ele><time>2026-04-12T16:50:05.31Z</time></trkpt><trkpt lat="45.4977745" lon="8.9093124"><ele>152.0</ele><time>2026-04-12T16:50:06.31Z</time></trkpt><trkpt lat="45.4977222" lon="8.9088789"><ele>151.5</ele><time>2026-04-12T16:50:07.303Z</time></trkpt><trkpt lat="45.4976687" lon="8.9084472"><ele>151.0</ele><time>2026-04-12T16:50:08.316Z</time></trkpt><trkpt lat="45.4976137" lon="8.9080177"><ele>150.5</ele><time>2026-04-12T16:50:09.302Z</time></trkpt><trkpt lat="45.4975576" lon="8.9075874"><ele>150.0</ele><time>2026-04-12T16:50:10.322Z</time></trkpt><trkpt lat="45.4975033" lon="8.9071541"><ele>149.5</ele><time>2026-04-12T16:50:11.315Z</time></trkpt><trkpt lat="45.4974484" lon="8.9067204"><ele>149.0</ele><time>2026-04-12T16:50:12.304Z</time></trkpt><trkpt lat="45.4973921" lon="8.9062861"><ele>149.0</ele><time>2026-04-12T16:50:13.307Z</time></trkpt><trkpt lat="45.4973361" lon="8.905848"><ele>149.0</ele><time>2026-04-12T16:50:14.3Z</time></trkpt><trkpt lat="45.4972791" lon="8.9054074"><ele>148.5</ele><time>2026-04-12T16:50:15.317Z</time></trkpt><trkpt lat="45.4972201" lon="8.9049708"><ele>148.0</ele><time>2026-04-12T16:50:16.32Z</time></trkpt><trkpt lat="45.4971595" lon="8.9045322"><ele>148.5</ele><time>2026-04-12T16:50:17.312Z</time></trkpt><trkpt lat="45.4970974" lon="8.9040916"><ele>149.0</ele><time>2026-04-12T16:50:18.311Z</time></trkpt><trkpt lat="45.4970364" lon="8.9036479"><ele>148.5</ele><time>2026-04-12T16:50:19.309Z</time></trkpt><trkpt lat="45.496975" lon="8.9032072"><ele>148.0</ele><time>2026-04-12T16:50:20.308Z</time></trkpt><trkpt lat="45.4969127" lon="8.9027676"><ele>149.0</ele><time>2026-04-12T16:50:21.309Z</time></trkpt><trkpt lat="45.4968495" lon="8.9023288"><ele>150.0</ele><time>2026-04-12T16:50:22.302Z</time></trkpt><trkpt lat="45.496786" lon="8.9018903"><ele>150.5</ele><time>2026-04-12T16:50:23.304Z</time></trkpt><trkpt lat="45.4967205" lon="8.9014492"><ele>151.0</ele><time>2026-04-12T16:50:24.31Z</time></trkpt><trkpt lat="45.496656" lon="8.9010086"><ele>150.5</ele><time>2026-04-12T16:50:25.324Z</time></trkpt><trkpt lat="45.4965916" lon="8.9005698"><ele>150.0</ele><time>2026-04-12T16:50:26.325Z</time></trkpt><trkpt lat="45.4965306" lon="8.900138"><ele>150.0</ele><time>2026-04-12T16:50:27.313Z</time></trkpt><trkpt lat="45.4964673" lon="8.8997034"><ele>150.0</ele><time>2026-04-12T16:50:28.319Z</time></trkpt><trkpt lat="45.4964034" lon="8.8992659"><ele>150.0</ele><time>2026-04-12T16:50:29.309Z</time></trkpt><trkpt lat="45.4963369" lon="8.8988302"><ele>150.0</ele><time>2026-04-12T16:50:30.3Z</time></trkpt><trkpt lat="45.4962679" lon="8.8983947"><ele>151.0</ele><time>2026-04-12T16:50:31.31Z</time></trkpt><trkpt lat="45.4961976" lon="8.8979593"><ele>152.0</ele><time>2026-04-12T16:50:32.305Z</time></trkpt><trkpt lat="45.4961269" lon="8.8975227"><ele>152.0</ele><time>2026-04-12T16:50:33.321Z</time></trkpt><trkpt lat="45.4960558" lon="8.8970869"><ele>152.0</ele><time>2026-04-12T16:50:34.299Z</time></trkpt><trkpt lat="45.4959848" lon="8.8966504"><ele>152.0</ele><time>2026-04-12T16:50:35.312Z</time></trkpt><trkpt lat="45.4959134" lon="8.8962144"><ele>152.0</ele><time>2026-04-12T16:50:36.313Z</time></trkpt><trkpt lat="45.4958406" lon="8.8957795"><ele>151.0</ele><time>2026-04-12T16:50:37.318Z</time></trkpt><trkpt lat="45.4957669" lon="8.8953504"><ele>150.0</ele><time>2026-04-12T16:50:38.307Z</time></trkpt><trkpt lat="45.4956915" lon="8.8949262"><ele>150.0</ele><time>2026-04-12T16:50:39.311Z</time></trkpt><trkpt lat="45.4956168" lon="8.8945068"><ele>150.0</ele><time>2026-04-12T16:50:40.312Z</time></trkpt><trkpt lat="45.4955433" lon="8.8940915"><ele>149.5</ele><time>2026-04-12T16:50:41.313Z</time></trkpt><trkpt lat="45.4954715" lon="8.8936795"><ele>149.0</ele><time>2026-04-12T16:50:42.325Z</time></trkpt><trkpt lat="45.4954019" lon="8.8932791"><ele>149.0</ele><time>2026-04-12T16:50:43.306Z</time></trkpt><trkpt lat="45.4953265" lon="8.8928764"><ele>149.0</ele><time>2026-04-12T16:50:44.308Z</time></trkpt><trkpt lat="45.4952565" lon="8.8924681"><ele>149.0</ele><time>2026-04-12T16:50:45.317Z</time></trkpt><trkpt lat="45.495185" lon="8.8920575"><ele>149.0</ele><time>2026-04-12T16:50:46.302Z</time></trkpt><trkpt lat="45.4951094" lon="8.891646"><ele>149.0</ele><time>2026-04-12T16:50:47.311Z</time></trkpt><trkpt lat="45.4950348" lon="8.8912297"><ele>149.0</ele><time>2026-04-12T16:50:48.312Z</time></trkpt><trkpt lat="45.4949578" lon="8.8908137"><ele>148.5</ele><time>2026-04-12T16:50:49.325Z</time></trkpt><trkpt lat="45.4948784" lon="8.890396"><ele>148.0</ele><time>2026-04-12T16:50:50.301Z</time></trkpt><trkpt lat="45.4947971" lon="8.8899786"><ele>149.5</ele><time>2026-04-12T16:50:51.313Z</time></trkpt><trkpt lat="45.4947127" lon="8.8895663"><ele>151.0</ele><time>2026-04-12T16:50:52.305Z</time></trkpt><trkpt lat="45.4946312" lon="8.8891498"><ele>150.0</ele><time>2026-04-12T16:50:53.302Z</time></trkpt><trkpt lat="45.4945505" lon="8.8887254"><ele>149.0</ele><time>2026-04-12T16:50:54.306Z</time></trkpt><trkpt lat="45.4944699" lon="8.8883043"><ele>149.0</ele><time>2026-04-12T16:50:55.31Z</time></trkpt><trkpt lat="45.4943899" lon="8.8878846"><ele>149.0</ele><time>2026-04-12T16:50:56.315Z</time></trkpt><trkpt lat="45.4943103" lon="8.8874655"><ele>148.0</ele><time>2026-04-12T16:50:57.322Z</time></trkpt><trkpt lat="45.4942312" lon="8.8870498"><ele>147.0</ele><time>2026-04-12T16:50:58.325Z</time></trkpt><trkpt lat="45.4941505" lon="8.8866343"><ele>146.5</ele><time>2026-04-12T16:50:59.307Z</time></trkpt><trkpt lat="45.4940699" lon="8.886217"><ele>146.0</ele><time>2026-04-12T16:51:00.302Z</time></trkpt><trkpt lat="45.493989" lon="8.8857998"><ele>147.0</ele><time>2026-04-12T16:51:01.309Z</time></trkpt><trkpt lat="45.4939083" lon="8.8853816"><ele>148.0</ele><time>2026-04-12T16:51:02.307Z</time></trkpt><trkpt lat="45.4938279" lon="8.884964"><ele>148.0</ele><time>2026-04-12T16:51:03.326Z</time></trkpt><trkpt lat="45.493748" lon="8.8845474"><ele>148.0</ele><time>2026-04-12T16:51:04.31Z</time></trkpt><trkpt lat="45.4936679" lon="8.8841312"><ele>148.0</ele><time>2026-04-12T16:51:05.311Z</time></trkpt><trkpt lat="45.4935872" lon="8.8837159"><ele>148.0</ele><time>2026-04-12T16:51:06.324Z</time></trkpt><trkpt lat="45.4935042" lon="8.8833008"><ele>148.0</ele><time>2026-04-12T16:51:07.312Z</time></trkpt><trkpt lat="45.4934211" lon="8.8828844"><ele>148.0</ele><time>2026-04-12T16:51:08.325Z</time></trkpt><trkpt lat="45.4933382" lon="8.8824666"><ele>147.5</ele><time>2026-04-12T16:51:09.313Z</time></trkpt><trkpt lat="45.4932558" lon="8.8820457"><ele>147.0</ele><time>2026-04-12T16:51:10.301Z</time></trkpt><trkpt lat="45.4931745" lon="8.881624"><ele>147.0</ele><time>2026-04-12T16:51:11.306Z</time></trkpt><trkpt lat="45.493095" lon="8.8812039"><ele>147.0</ele><time>2026-04-12T16:51:12.31Z</time></trkpt><trkpt lat="45.4930172" lon="8.8807852"><ele>147.5</ele><time>2026-04-12T16:51:13.327Z</time></trkpt><trkpt lat="45.4929409" lon="8.880367"><ele>148.0</ele><time>2026-04-12T16:51:14.305Z</time></trkpt><trkpt lat="45.4928652" lon="8.8799495"><ele>148.0</ele><time>2026-04-12T16:51:15.315Z</time></trkpt><trkpt lat="45.4927905" lon="8.879532"><ele>148.0</ele><time>2026-04-12T16:51:16.304Z</time></trkpt><trkpt lat="45.4927166" lon="8.8791145"><ele>147.0</ele><time>2026-04-12T16:51:17.309Z</time></trkpt><trkpt lat="45.4926413" lon="8.8787014"><ele>146.0</ele><time>2026-04-12T16:51:18.31Z</time></trkpt><trkpt lat="45.4925663" lon="8.8782891"><ele>146.0</ele><time>2026-04-12T16:51:19.317Z</time></trkpt><trkpt lat="45.4924935" lon="8.8778724"><ele>146.0</ele><time>2026-04-12T16:51:20.307Z</time></trkpt><trkpt lat="45.4924222" lon="8.8774598"><ele>146.5</ele><time>2026-04-12T16:51:21.315Z</time></trkpt><trkpt lat="45.4923562" lon="8.8770563"><ele>147.0</ele><time>2026-04-12T16:51:22.313Z</time></trkpt><trkpt lat="45.4922929" lon="8.8766523"><ele>147.5</ele><time>2026-04-12T16:51:23.306Z</time></trkpt><trkpt lat="45.4922318" lon="8.8762498"><ele>148.0</ele><time>2026-04-12T16:51:24.327Z</time></trkpt><trkpt lat="45.4921686" lon="8.8758473"><ele>149.0</ele><time>2026-04-12T16:51:25.311Z</time></trkpt><trkpt lat="45.4921046" lon="8.8754403"><ele>150.0</ele><time>2026-04-12T16:51:26.313Z</time></trkpt><trkpt lat="45.4920396" lon="8.8750313"><ele>150.0</ele><time>2026-04-12T16:51:27.311Z</time></trkpt><trkpt lat="45.4919743" lon="8.8746189"><ele>150.0</ele><time>2026-04-12T16:51:28.322Z</time></trkpt><trkpt lat="45.4919122" lon="8.8742035"><ele>148.5</ele><time>2026-04-12T16:51:29.321Z</time></trkpt><trkpt lat="45.4918467" lon="8.8737877"><ele>147.0</ele><time>2026-04-12T16:51:30.313Z</time></trkpt><trkpt lat="45.4917791" lon="8.873371"><ele>146.5</ele><time>2026-04-12T16:51:31.312Z</time></trkpt><trkpt lat="45.4917101" lon="8.8729529"><ele>146.0</ele><time>2026-04-12T16:51:32.302Z</time></trkpt><trkpt lat="45.4916398" lon="8.8725331"><ele>146.0</ele><time>2026-04-12T16:51:33.311Z</time></trkpt><trkpt lat="45.4915691" lon="8.8721113"><ele>146.0</ele><time>2026-04-12T16:51:34.31Z</time></trkpt><trkpt lat="45.4914984" lon="8.8716881"><ele>146.0</ele><time>2026-04-12T16:51:35.297Z</time></trkpt><trkpt lat="45.4914291" lon="8.871264"><ele>146.0</ele><time>2026-04-12T16:51:36.327Z</time></trkpt><trkpt lat="45.4913604" lon="8.8708401"><ele>146.0</ele><time>2026-04-12T16:51:37.31Z</time></trkpt><trkpt lat="45.491291" lon="8.8704174"><ele>146.0</ele><time>2026-04-12T16:51:38.312Z</time></trkpt><trkpt lat="45.4912191" lon="8.869997"><ele>145.5</ele><time>2026-04-12T16:51:39.312Z</time></trkpt><trkpt lat="45.4911438" lon="8.8695808"><ele>145.0</ele><time>2026-04-12T16:51:40.311Z</time></trkpt><trkpt lat="45.4910642" lon="8.8691674"><ele>146.0</ele><time>2026-04-12T16:51:41.338Z</time></trkpt><trkpt lat="45.49098" lon="8.8687595"><ele>147.0</ele><time>2026-04-12T16:51:42.306Z</time></trkpt><trkpt lat="45.4908908" lon="8.8683508"><ele>147.0</ele><time>2026-04-12T16:51:43.304Z</time></trkpt><trkpt lat="45.4908003" lon="8.8679421"><ele>147.0</ele><time>2026-04-12T16:51:44.32Z</time></trkpt><trkpt lat="45.4907085" lon="8.8675362"><ele>147.0</ele><time>2026-04-12T16:51:45.307Z</time></trkpt><trkpt lat="45.4906137" lon="8.8671326"><ele>147.0</ele><time>2026-04-12T16:51:46.321Z</time></trkpt><trkpt lat="45.490514" lon="8.8667322"><ele>148.0</ele><time>2026-04-12T16:51:47.306Z</time></trkpt><trkpt lat="45.4904113" lon="8.8663326"><ele>149.0</ele><time>2026-04-12T16:51:48.308Z</time></trkpt><trkpt lat="45.4903072" lon="8.865938"><ele>149.0</ele><time>2026-04-12T16:51:49.304Z</time></trkpt><trkpt lat="45.4902026" lon="8.8655449"><ele>149.0</ele><time>2026-04-12T16:51:50.309Z</time></trkpt><trkpt lat="45.4900962" lon="8.865154"><ele>149.0</ele><time>2026-04-12T16:51:51.324Z</time></trkpt><trkpt lat="45.4899887" lon="8.8647626"><ele>149.0</ele><time>2026-04-12T16:51:52.306Z</time></trkpt><trkpt lat="45.4898771" lon="8.8643718"><ele>148.0</ele><time>2026-04-12T16:51:53.306Z</time></trkpt><trkpt lat="45.4897623" lon="8.8639836"><ele>147.0</ele><time>2026-04-12T16:51:54.315Z</time></trkpt><trkpt lat="45.4896445" lon="8.8635968"><ele>147.0</ele><time>2026-04-12T16:51:55.31Z</time></trkpt><trkpt lat="45.4895232" lon="8.863212"><ele>147.0</ele><time>2026-04-12T16:51:56.319Z</time></trkpt><trkpt lat="45.4893982" lon="8.8628296"><ele>146.0</ele><time>2026-04-12T16:51:57.318Z</time></trkpt><trkpt lat="45.4892706" lon="8.8624498"><ele>145.0</ele><time>2026-04-12T16:51:58.309Z</time></trkpt><trkpt lat="45.4891397" lon="8.8620687"><ele>146.0</ele><time>2026-04-12T16:51:59.311Z</time></trkpt><trkpt lat="45.4890065" lon="8.861689"><ele>147.0</ele><time>2026-04-12T16:52:00.308Z</time></trkpt><trkpt lat="45.4888705" lon="8.8613116"><ele>146.0</ele><time>2026-04-12T16:52:01.307Z</time></trkpt><trkpt lat="45.4887319" lon="8.8609352"><ele>145.0</ele><time>2026-04-12T16:52:02.311Z</time></trkpt><trkpt lat="45.4885956" lon="8.8605615"><ele>145.0</ele><time>2026-04-12T16:52:03.311Z</time></trkpt><trkpt lat="45.4884565" lon="8.8601834"><ele>145.0</ele><time>2026-04-12T16:52:04.325Z</time></trkpt><trkpt lat="45.4883175" lon="8.8598052"><ele>145.0</ele><time>2026-04-12T16:52:05.308Z</time></trkpt><trkpt lat="45.4881782" lon="8.8594238"><ele>145.0</ele><time>2026-04-12T16:52:06.306Z</time></trkpt><trkpt lat="45.4880417" lon="8.8590413"><ele>145.5</ele><time>2026-04-12T16:52:07.318Z</time></trkpt><trkpt lat="45.4879067" lon="8.8586575"><ele>146.0</ele><time>2026-04-12T16:52:08.307Z</time></trkpt><trkpt lat="45.4877703" lon="8.8582796"><ele>146.0</ele><time>2026-04-12T16:52:09.325Z</time></trkpt><trkpt lat="45.4876339" lon="8.8579025"><ele>146.0</ele><time>2026-04-12T16:52:10.314Z</time></trkpt><trkpt lat="45.4874989" lon="8.8575224"><ele>146.0</ele><time>2026-04-12T16:52:11.312Z</time></trkpt><trkpt lat="45.487362" lon="8.857141"><ele>146.0</ele><time>2026-04-12T16:52:12.313Z</time></trkpt><trkpt lat="45.4872223" lon="8.8567584"><ele>147.0</ele><time>2026-04-12T16:52:13.31Z</time></trkpt><trkpt lat="45.4870819" lon="8.8563765"><ele>148.0</ele><time>2026-04-12T16:52:14.325Z</time></trkpt><trkpt lat="45.4869427" lon="8.855996"><ele>148.5</ele><time>2026-04-12T16:52:15.307Z</time></trkpt><trkpt lat="45.4868057" lon="8.8556196"><ele>149.0</ele><time>2026-04-12T16:52:16.311Z</time></trkpt><trkpt lat="45.4866695" lon="8.8552449"><ele>148.0</ele><time>2026-04-12T16:52:17.314Z</time></trkpt><trkpt lat="45.4865337" lon="8.8548741"><ele>147.0</ele><time>2026-04-12T16:52:18.309Z</time></trkpt><trkpt lat="45.4863994" lon="8.8545045"><ele>147.0</ele><time>2026-04-12T16:52:19.301Z</time></trkpt><trkpt lat="45.4862654" lon="8.8541351"><ele>147.0</ele><time>2026-04-12T16:52:20.307Z</time></trkpt><trkpt lat="45.4861319" lon="8.8537668"><ele>146.5</ele><time>2026-04-12T16:52:21.307Z</time></trkpt><trkpt lat="45.4859975" lon="8.8534027"><ele>146.0</ele><time>2026-04-12T16:52:22.316Z</time></trkpt><trkpt lat="45.4858621" lon="8.8530353"><ele>146.0</ele><time>2026-04-12T16:52:23.303Z</time></trkpt><trkpt lat="45.485728" lon="8.8526634"><ele>146.0</ele><time>2026-04-12T16:52:24.312Z</time></trkpt><trkpt lat="45.4855923" lon="8.8522907"><ele>146.0</ele><time>2026-04-12T16:52:25.312Z</time></trkpt><trkpt lat="45.4854564" lon="8.8519211"><ele>146.0</ele><time>2026-04-12T16:52:26.303Z</time></trkpt><trkpt lat="45.4853228" lon="8.851552"><ele>144.5</ele><time>2026-04-12T16:52:27.305Z</time></trkpt><trkpt lat="45.4851884" lon="8.8511807"><ele>143.0</ele><time>2026-04-12T16:52:28.312Z</time></trkpt><trkpt lat="45.4850549" lon="8.8508129"><ele>142.5</ele><time>2026-04-12T16:52:29.311Z</time></trkpt><trkpt lat="45.4849207" lon="8.8504454"><ele>142.0</ele><time>2026-04-12T16:52:30.322Z</time></trkpt><trkpt lat="45.4847864" lon="8.8500781"><ele>142.5</ele><time>2026-04-12T16:52:31.31Z</time></trkpt><trkpt lat="45.4846529" lon="8.84971"><ele>143.0</ele><time>2026-04-12T16:52:32.298Z</time></trkpt><trkpt lat="45.4845191" lon="8.8493434"><ele>144.0</ele><time>2026-04-12T16:52:33.301Z</time></trkpt><trkpt lat="45.4843839" lon="8.848977"><ele>145.0</ele><time>2026-04-12T16:52:34.301Z</time></trkpt><trkpt lat="45.4842482" lon="8.8486098"><ele>145.0</ele><time>2026-04-12T16:52:35.296Z</time></trkpt><trkpt lat="45.4841134" lon="8.8482412"><ele>145.0</ele><time>2026-04-12T16:52:36.309Z</time></trkpt><trkpt lat="45.4839806" lon="8.8478724"><ele>145.0</ele><time>2026-04-12T16:52:37.309Z</time></trkpt><trkpt lat="45.4838475" lon="8.8475056"><ele>145.0</ele><time>2026-04-12T16:52:38.297Z</time></trkpt><trkpt lat="45.4837149" lon="8.8471388"><ele>144.0</ele><time>2026-04-12T16:52:39.306Z</time></trkpt><trkpt lat="45.4835818" lon="8.846775"><ele>143.0</ele><time>2026-04-12T16:52:40.308Z</time></trkpt><trkpt lat="45.4834495" lon="8.8464104"><ele>143.0</ele><time>2026-04-12T16:52:41.298Z</time></trkpt><trkpt lat="45.4833187" lon="8.8460462"><ele>143.0</ele><time>2026-04-12T16:52:42.322Z</time></trkpt><trkpt lat="45.4831876" lon="8.8456818"><ele>143.5</ele><time>2026-04-12T16:52:43.314Z</time></trkpt><trkpt lat="45.4830566" lon="8.84532"><ele>144.0</ele><time>2026-04-12T16:52:44.307Z</time></trkpt><trkpt lat="45.4829249" lon="8.8449596"><ele>144.0</ele><time>2026-04-12T16:52:45.312Z</time></trkpt><trkpt lat="45.4827925" lon="8.8446007"><ele>144.0</ele><time>2026-04-12T16:52:46.3Z</time></trkpt><trkpt lat="45.4826617" lon="8.8442401"><ele>144.5</ele><time>2026-04-12T16:52:47.314Z</time></trkpt><trkpt lat="45.482531" lon="8.8438799"><ele>145.0</ele><time>2026-04-12T16:52:48.311Z</time></trkpt><trkpt lat="45.4824007" lon="8.8435191"><ele>144.5</ele><time>2026-04-12T16:52:49.319Z</time></trkpt><trkpt lat="45.4822674" lon="8.8431558"><ele>144.0</ele><time>2026-04-12T16:52:50.309Z</time></trkpt><trkpt lat="45.4821369" lon="8.8427972"><ele>144.5</ele><time>2026-04-12T16:52:51.312Z</time></trkpt><trkpt lat="45.4820073" lon="8.8424381"><ele>145.0</ele><time>2026-04-12T16:52:52.309Z</time></trkpt><trkpt lat="45.481877" lon="8.8420855"><ele>144.0</ele><time>2026-04-12T16:52:53.307Z</time></trkpt><trkpt lat="45.481747" lon="8.8417293"><ele>143.0</ele><time>2026-04-12T16:52:54.312Z</time></trkpt><trkpt lat="45.4816167" lon="8.8413717"><ele>143.0</ele><time>2026-04-12T16:52:55.326Z</time></trkpt><trkpt lat="45.4814867" lon="8.8410136"><ele>143.0</ele><time>2026-04-12T16:52:56.301Z</time></trkpt><trkpt lat="45.4813562" lon="8.8406537"><ele>143.0</ele><time>2026-04-12T16:52:57.319Z</time></trkpt><trkpt lat="45.4812249" lon="8.8402921"><ele>143.0</ele><time>2026-04-12T16:52:58.311Z</time></trkpt><trkpt lat="45.4810919" lon="8.8399299"><ele>143.0</ele><time>2026-04-12T16:52:59.31Z</time></trkpt><trkpt lat="45.4809589" lon="8.8395655"><ele>143.0</ele><time>2026-04-12T16:53:00.306Z</time></trkpt><trkpt lat="45.4808248" lon="8.8391995"><ele>143.5</ele><time>2026-04-12T16:53:01.308Z</time></trkpt><trkpt lat="45.4806905" lon="8.8388302"><ele>144.0</ele><time>2026-04-12T16:53:02.307Z</time></trkpt><trkpt lat="45.4805555" lon="8.838459"><ele>143.5</ele><time>2026-04-12T16:53:03.318Z</time></trkpt><trkpt lat="45.4804188" lon="8.8380858"><ele>143.0</ele><time>2026-04-12T16:53:04.309Z</time></trkpt><trkpt lat="45.4802816" lon="8.837712"><ele>143.0</ele><time>2026-04-12T16:53:05.312Z</time></trkpt><trkpt lat="45.48014" lon="8.8373358"><ele>143.0</ele><time>2026-04-12T16:53:06.325Z</time></trkpt><trkpt lat="45.4799946" lon="8.8369588"><ele>143.0</ele><time>2026-04-12T16:53:07.307Z</time></trkpt><trkpt lat="45.4798476" lon="8.8365805"><ele>143.0</ele><time>2026-04-12T16:53:08.322Z</time></trkpt><trkpt lat="45.4796974" lon="8.8362045"><ele>142.5</ele><time>2026-04-12T16:53:09.31Z</time></trkpt><trkpt lat="45.4795485" lon="8.835827"><ele>142.0</ele><time>2026-04-12T16:53:10.306Z</time></trkpt><trkpt lat="45.4794001" lon="8.8354534"><ele>141.0</ele><time>2026-04-12T16:53:11.312Z</time></trkpt><trkpt lat="45.4792511" lon="8.8350806"><ele>140.0</ele><time>2026-04-12T16:53:12.305Z</time></trkpt><trkpt lat="45.4790982" lon="8.8347147"><ele>140.0</ele><time>2026-04-12T16:53:13.311Z</time></trkpt><trkpt lat="45.4789463" lon="8.8343445"><ele>140.0</ele><time>2026-04-12T16:53:14.301Z</time></trkpt><trkpt lat="45.4787946" lon="8.8339725"><ele>140.0</ele><time>2026-04-12T16:53:15.323Z</time></trkpt><trkpt lat="45.4786415" lon="8.8336007"><ele>140.0</ele><time>2026-04-12T16:53:16.311Z</time></trkpt><trkpt lat="45.4784881" lon="8.8332293"><ele>140.0</ele><time>2026-04-12T16:53:17.303Z</time></trkpt><trkpt lat="45.4783336" lon="8.8328609"><ele>140.0</ele><time>2026-04-12T16:53:18.31Z</time></trkpt><trkpt lat="45.4781776" lon="8.8324919"><ele>140.0</ele><time>2026-04-12T16:53:19.309Z</time></trkpt><trkpt lat="45.4780217" lon="8.832122"><ele>140.0</ele><time>2026-04-12T16:53:20.323Z</time></trkpt><trkpt lat="45.4778655" lon="8.8317581"><ele>139.0</ele><time>2026-04-12T16:53:21.313Z</time></trkpt><trkpt lat="45.4777088" lon="8.8313921"><ele>138.0</ele><time>2026-04-12T16:53:22.309Z</time></trkpt><trkpt lat="45.4775509" lon="8.8310251"><ele>138.5</ele><time>2026-04-12T16:53:23.319Z</time></trkpt><trkpt lat="45.4773928" lon="8.8306601"><ele>139.0</ele><time>2026-04-12T16:53:24.312Z</time></trkpt><trkpt lat="45.477235" lon="8.8302968"><ele>139.5</ele><time>2026-04-12T16:53:25.323Z</time></trkpt><trkpt lat="45.4770767" lon="8.829937"><ele>140.0</ele><time>2026-04-12T16:53:26.313Z</time></trkpt><trkpt lat="45.4769173" lon="8.8295772"><ele>141.0</ele><time>2026-04-12T16:53:27.299Z</time></trkpt><trkpt lat="45.4767583" lon="8.8292201"><ele>142.0</ele><time>2026-04-12T16:53:28.32Z</time></trkpt><trkpt lat="45.4766002" lon="8.8288629"><ele>142.0</ele><time>2026-04-12T16:53:29.303Z</time></trkpt><trkpt lat="45.4764396" lon="8.8285053"><ele>142.0</ele><time>2026-04-12T16:53:30.303Z</time></trkpt><trkpt lat="45.476281" lon="8.8281496"><ele>141.5</ele><time>2026-04-12T16:53:31.306Z</time></trkpt><trkpt lat="45.4761223" lon="8.8277918"><ele>141.0</ele><time>2026-04-12T16:53:32.303Z</time></trkpt><trkpt lat="45.4759937" lon="8.8274101"><ele>141.0</ele><time>2026-04-12T16:53:33.289Z</time></trkpt><trkpt lat="45.475839" lon="8.8270611"><ele>141.0</ele><time>2026-04-12T16:53:34.288Z</time></trkpt><trkpt lat="45.4756885" lon="8.8267234"><ele>139.5</ele><time>2026-04-12T16:53:35.292Z</time></trkpt><trkpt lat="45.4755361" lon="8.8263831"><ele>138.0</ele><time>2026-04-12T16:53:36.29Z</time></trkpt><trkpt lat="45.4753878" lon="8.8260461"><ele>137.5</ele><time>2026-04-12T16:53:37.29Z</time></trkpt><trkpt lat="45.4752431" lon="8.825715"><ele>137.0</ele><time>2026-04-12T16:53:38.289Z</time></trkpt><trkpt lat="45.475109" lon="8.8254036"><ele>135.0</ele><time>2026-04-12T16:53:39.293Z</time></trkpt><trkpt lat="45.474939" lon="8.8250105"><ele>133.0</ele><time>2026-04-12T16:53:40.298Z</time></trkpt><trkpt lat="45.4747686" lon="8.8245978"><ele>132.0</ele><time>2026-04-12T16:53:41.305Z</time></trkpt><trkpt lat="45.4746158" lon="8.8242242"><ele>131.0</ele><time>2026-04-12T16:53:42.301Z</time></trkpt><trkpt lat="45.474451" lon="8.8238366"><ele>131.0</ele><time>2026-04-12T16:53:43.307Z</time></trkpt><trkpt lat="45.4742864" lon="8.8234549"><ele>131.0</ele><time>2026-04-12T16:53:44.309Z</time></trkpt><trkpt lat="45.474103" lon="8.8230691"><ele>131.0</ele><time>2026-04-12T16:53:45.304Z</time></trkpt><trkpt lat="45.4739442" lon="8.8226935"><ele>131.0</ele><time>2026-04-12T16:53:46.308Z</time></trkpt><trkpt lat="45.473791" lon="8.8223174"><ele>128.0</ele><time>2026-04-12T16:53:47.3Z</time></trkpt><trkpt lat="45.473646" lon="8.8219418"><ele>125.0</ele><time>2026-04-12T16:53:48.325Z</time></trkpt><trkpt lat="45.4735031" lon="8.8215609"><ele>124.5</ele><time>2026-04-12T16:53:49.306Z</time></trkpt><trkpt lat="45.4733639" lon="8.8211781"><ele>124.0</ele><time>2026-04-12T16:53:50.312Z</time></trkpt><trkpt lat="45.4732301" lon="8.8207906"><ele>123.5</ele><time>2026-04-12T16:53:51.312Z</time></trkpt><trkpt lat="45.4730956" lon="8.8203997"><ele>123.0</ele><time>2026-04-12T16:53:52.299Z</time></trkpt><trkpt lat="45.4729616" lon="8.8200097"><ele>123.0</ele><time>2026-04-12T16:53:53.316Z</time></trkpt><trkpt lat="45.4728277" lon="8.8196169"><ele>123.0</ele><time>2026-04-12T16:53:54.309Z</time></trkpt><trkpt lat="45.4726982" lon="8.8192211"><ele>123.0</ele><time>2026-04-12T16:53:55.325Z</time></trkpt><trkpt lat="45.4725734" lon="8.81882"><ele>123.0</ele><time>2026-04-12T16:53:56.311Z</time></trkpt><trkpt lat="45.4724492" lon="8.818417"><ele>123.0</ele><time>2026-04-12T16:53:57.31Z</time></trkpt><trkpt lat="45.4723279" lon="8.8180148"><ele>123.0</ele><time>2026-04-12T16:53:58.312Z</time></trkpt><trkpt lat="45.47221" lon="8.817606"><ele>123.0</ele><time>2026-04-12T16:53:59.317Z</time></trkpt><trkpt lat="45.4720932" lon="8.8171926"><ele>123.0</ele><time>2026-04-12T16:54:00.311Z</time></trkpt><trkpt lat="45.4719787" lon="8.8167756"><ele>123.0</ele><time>2026-04-12T16:54:01.311Z</time></trkpt><trkpt lat="45.471865" lon="8.8163613"><ele>123.0</ele><time>2026-04-12T16:54:02.313Z</time></trkpt><trkpt lat="45.4717541" lon="8.8159403"><ele>123.0</ele><time>2026-04-12T16:54:03.322Z</time></trkpt><trkpt lat="45.4716443" lon="8.8155193"><ele>123.0</ele><time>2026-04-12T16:54:04.307Z</time></trkpt><trkpt lat="45.4715381" lon="8.8150942"><ele>123.0</ele><time>2026-04-12T16:54:05.317Z</time></trkpt><trkpt lat="45.471439" lon="8.8146644"><ele>123.0</ele><time>2026-04-12T16:54:06.311Z</time></trkpt><trkpt lat="45.4713436" lon="8.8142336"><ele>122.5</ele><time>2026-04-12T16:54:07.31Z</time></trkpt><trkpt lat="45.4712517" lon="8.8137996"><ele>122.0</ele><time>2026-04-12T16:54:08.31Z</time></trkpt><trkpt lat="45.471163" lon="8.8133649"><ele>122.0</ele><time>2026-04-12T16:54:09.312Z</time></trkpt><trkpt lat="45.4710765" lon="8.8129276"><ele>122.0</ele><time>2026-04-12T16:54:10.311Z</time></trkpt><trkpt lat="45.470994" lon="8.8124881"><ele>121.0</ele><time>2026-04-12T16:54:11.312Z</time></trkpt><trkpt lat="45.4709138" lon="8.8120503"><ele>120.0</ele><time>2026-04-12T16:54:12.305Z</time></trkpt><trkpt lat="45.4708392" lon="8.8116121"><ele>118.5</ele><time>2026-04-12T16:54:13.31Z</time></trkpt><trkpt lat="45.4707694" lon="8.8111737"><ele>117.0</ele><time>2026-04-12T16:54:14.307Z</time></trkpt><trkpt lat="45.4707032" lon="8.8107353"><ele>115.5</ele><time>2026-04-12T16:54:15.313Z</time></trkpt><trkpt lat="45.4706394" lon="8.8102989"><ele>114.0</ele><time>2026-04-12T16:54:16.307Z</time></trkpt><trkpt lat="45.4705783" lon="8.8098628"><ele>114.0</ele><time>2026-04-12T16:54:17.313Z</time></trkpt><trkpt lat="45.4705205" lon="8.8094279"><ele>114.0</ele><time>2026-04-12T16:54:18.312Z</time></trkpt><trkpt lat="45.4704656" lon="8.8089948"><ele>114.0</ele><time>2026-04-12T16:54:19.309Z</time></trkpt><trkpt lat="45.470416" lon="8.808561"><ele>114.0</ele><time>2026-04-12T16:54:20.314Z</time></trkpt><trkpt lat="45.4703695" lon="8.8081288"><ele>114.5</ele><time>2026-04-12T16:54:21.303Z</time></trkpt><trkpt lat="45.4703262" lon="8.8076968"><ele>115.0</ele><time>2026-04-12T16:54:22.312Z</time></trkpt><trkpt lat="45.4702863" lon="8.807265"><ele>115.0</ele><time>2026-04-12T16:54:23.319Z</time></trkpt><trkpt lat="45.4702494" lon="8.8068352"><ele>115.0</ele><time>2026-04-12T16:54:24.312Z</time></trkpt><trkpt lat="45.470219" lon="8.806405"><ele>114.5</ele><time>2026-04-12T16:54:25.313Z</time></trkpt><trkpt lat="45.4701886" lon="8.805969"><ele>114.0</ele><time>2026-04-12T16:54:26.309Z</time></trkpt><trkpt lat="45.4701616" lon="8.80553"><ele>113.5</ele><time>2026-04-12T16:54:27.312Z</time></trkpt><trkpt lat="45.470138" lon="8.805087"><ele>113.0</ele><time>2026-04-12T16:54:28.311Z</time></trkpt><trkpt lat="45.4701153" lon="8.8046435"><ele>114.5</ele><time>2026-04-12T16:54:29.301Z</time></trkpt><trkpt lat="45.4700948" lon="8.8042002"><ele>116.0</ele><time>2026-04-12T16:54:30.305Z</time></trkpt><trkpt lat="45.4700752" lon="8.8037552"><ele>118.5</ele><time>2026-04-12T16:54:31.312Z</time></trkpt><trkpt lat="45.470055" lon="8.8033141"><ele>121.0</ele><time>2026-04-12T16:54:32.3Z</time></trkpt><trkpt lat="45.4700351" lon="8.8028712"><ele>121.5</ele><time>2026-04-12T16:54:33.31Z</time></trkpt><trkpt lat="45.4700191" lon="8.802428"><ele>122.0</ele><time>2026-04-12T16:54:34.308Z</time></trkpt><trkpt lat="45.4700054" lon="8.8019902"><ele>122.0</ele><time>2026-04-12T16:54:35.305Z</time></trkpt><trkpt lat="45.4699992" lon="8.8015499"><ele>122.0</ele><time>2026-04-12T16:54:36.299Z</time></trkpt><trkpt lat="45.4699963" lon="8.8011132"><ele>120.0</ele><time>2026-04-12T16:54:37.313Z</time></trkpt><trkpt lat="45.4699931" lon="8.8006798"><ele>118.0</ele><time>2026-04-12T16:54:38.311Z</time></trkpt><trkpt lat="45.4699876" lon="8.8002485"><ele>118.5</ele><time>2026-04-12T16:54:39.309Z</time></trkpt><trkpt lat="45.46998" lon="8.7998178"><ele>119.0</ele><time>2026-04-12T16:54:40.311Z</time></trkpt><trkpt lat="45.469969" lon="8.7993865"><ele>120.5</ele><time>2026-04-12T16:54:41.313Z</time></trkpt><trkpt lat="45.4699564" lon="8.7989547"><ele>122.0</ele><time>2026-04-12T16:54:42.308Z</time></trkpt><trkpt lat="45.4699464" lon="8.798526"><ele>122.0</ele><time>2026-04-12T16:54:43.303Z</time></trkpt><trkpt lat="45.469935" lon="8.7981001"><ele>122.0</ele><time>2026-04-12T16:54:44.311Z</time></trkpt><trkpt lat="45.4699218" lon="8.797674"><ele>122.0</ele><time>2026-04-12T16:54:45.313Z</time></trkpt><trkpt lat="45.4699098" lon="8.7972459"><ele>122.0</ele><time>2026-04-12T16:54:46.322Z</time></trkpt><trkpt lat="45.4699002" lon="8.796817"><ele>122.0</ele><time>2026-04-12T16:54:47.31Z</time></trkpt><trkpt lat="45.4698914" lon="8.7963876"><ele>122.0</ele><time>2026-04-12T16:54:48.312Z</time></trkpt><trkpt lat="45.4698818" lon="8.795959"><ele>121.0</ele><time>2026-04-12T16:54:49.318Z</time></trkpt><trkpt lat="45.4698722" lon="8.7955303"><ele>120.0</ele><time>2026-04-12T16:54:50.311Z</time></trkpt><trkpt lat="45.4698616" lon="8.7951005"><ele>119.0</ele><time>2026-04-12T16:54:51.312Z</time></trkpt><trkpt lat="45.4698493" lon="8.7946692"><ele>118.0</ele><time>2026-04-12T16:54:52.318Z</time></trkpt><trkpt lat="45.4698355" lon="8.7942398"><ele>118.0</ele><time>2026-04-12T16:54:53.311Z</time></trkpt><trkpt lat="45.4698232" lon="8.7938114"><ele>118.0</ele><time>2026-04-12T16:54:54.312Z</time></trkpt><trkpt lat="45.4698122" lon="8.7933847"><ele>118.0</ele><time>2026-04-12T16:54:55.313Z</time></trkpt><trkpt lat="45.4698003" lon="8.7929571"><ele>118.0</ele><time>2026-04-12T16:54:56.305Z</time></trkpt><trkpt lat="45.4697873" lon="8.792528"><ele>117.0</ele><time>2026-04-12T16:54:57.307Z</time></trkpt><trkpt lat="45.4697731" lon="8.7920986"><ele>116.0</ele><time>2026-04-12T16:54:58.325Z</time></trkpt><trkpt lat="45.4697599" lon="8.7916684"><ele>114.5</ele><time>2026-04-12T16:54:59.311Z</time></trkpt><trkpt lat="45.4697474" lon="8.7912369"><ele>113.0</ele><time>2026-04-12T16:55:00.309Z</time></trkpt><trkpt lat="45.4697358" lon="8.7908046"><ele>113.0</ele><time>2026-04-12T16:55:01.311Z</time></trkpt><trkpt lat="45.4697229" lon="8.7903735"><ele>113.0</ele><time>2026-04-12T16:55:02.307Z</time></trkpt><trkpt lat="45.4697089" lon="8.7899407"><ele>112.5</ele><time>2026-04-12T16:55:03.317Z</time></trkpt><trkpt lat="45.4696918" lon="8.7895091"><ele>112.0</ele><time>2026-04-12T16:55:04.311Z</time></trkpt><trkpt lat="45.4696737" lon="8.7890786"><ele>113.0</ele><time>2026-04-12T16:55:05.323Z</time></trkpt><trkpt lat="45.4696556" lon="8.7886455"><ele>114.0</ele><time>2026-04-12T16:55:06.305Z</time></trkpt><trkpt lat="45.4696371" lon="8.7882101"><ele>115.5</ele><time>2026-04-12T16:55:07.303Z</time></trkpt><trkpt lat="45.4696189" lon="8.7877724"><ele>117.0</ele><time>2026-04-12T16:55:08.301Z</time></trkpt><trkpt lat="45.4696" lon="8.787332"><ele>118.5</ele><time>2026-04-12T16:55:09.31Z</time></trkpt><trkpt lat="45.4695809" lon="8.7868876"><ele>120.0</ele><time>2026-04-12T16:55:10.299Z</time></trkpt><trkpt lat="45.4695647" lon="8.7864385"><ele>120.5</ele><time>2026-04-12T16:55:11.327Z</time></trkpt><trkpt lat="45.469549" lon="8.7859895"><ele>121.0</ele><time>2026-04-12T16:55:12.307Z</time></trkpt><trkpt lat="45.4695317" lon="8.7855417"><ele>120.5</ele><time>2026-04-12T16:55:13.308Z</time></trkpt><trkpt lat="45.4695107" lon="8.7850946"><ele>120.0</ele><time>2026-04-12T16:55:14.313Z</time></trkpt><trkpt lat="45.4694871" lon="8.7846483"><ele>119.5</ele><time>2026-04-12T16:55:15.305Z</time></trkpt><trkpt lat="45.4694618" lon="8.7842024"><ele>119.0</ele><time>2026-04-12T16:55:16.311Z</time></trkpt><trkpt lat="45.4694348" lon="8.7837575"><ele>119.0</ele><time>2026-04-12T16:55:17.319Z</time></trkpt><trkpt lat="45.4694059" lon="8.7833158"><ele>119.0</ele><time>2026-04-12T16:55:18.304Z</time></trkpt><trkpt lat="45.469374" lon="8.7828755"><ele>117.5</ele><time>2026-04-12T16:55:19.299Z</time></trkpt><trkpt lat="45.4693407" lon="8.7824365"><ele>116.0</ele><time>2026-04-12T16:55:20.303Z</time></trkpt><trkpt lat="45.4693087" lon="8.7820014"><ele>115.5</ele><time>2026-04-12T16:55:21.309Z</time></trkpt><trkpt lat="45.4692761" lon="8.7815668"><ele>115.0</ele><time>2026-04-12T16:55:22.304Z</time></trkpt><trkpt lat="45.4692408" lon="8.7811339"><ele>116.0</ele><time>2026-04-12T16:55:23.311Z</time></trkpt><trkpt lat="45.4692045" lon="8.7806987"><ele>117.0</ele><time>2026-04-12T16:55:24.308Z</time></trkpt><trkpt lat="45.4691672" lon="8.7802648"><ele>117.0</ele><time>2026-04-12T16:55:25.312Z</time></trkpt><trkpt lat="45.4691301" lon="8.7798302"><ele>117.0</ele><time>2026-04-12T16:55:26.312Z</time></trkpt><trkpt lat="45.4690918" lon="8.7793929"><ele>117.0</ele><time>2026-04-12T16:55:27.3Z</time></trkpt><trkpt lat="45.4690534" lon="8.7789568"><ele>117.0</ele><time>2026-04-12T16:55:28.325Z</time></trkpt><trkpt lat="45.4690145" lon="8.778523"><ele>117.0</ele><time>2026-04-12T16:55:29.309Z</time></trkpt><trkpt lat="45.4689734" lon="8.778091"><ele>117.0</ele><time>2026-04-12T16:55:30.314Z</time></trkpt><trkpt lat="45.4689319" lon="8.7776597"><ele>117.5</ele><time>2026-04-12T16:55:31.303Z</time></trkpt><trkpt lat="45.4688905" lon="8.7772274"><ele>118.0</ele><time>2026-04-12T16:55:32.311Z</time></trkpt><trkpt lat="45.4688492" lon="8.7767956"><ele>118.0</ele><time>2026-04-12T16:55:33.311Z</time></trkpt><trkpt lat="45.4688056" lon="8.7763671"><ele>118.0</ele><time>2026-04-12T16:55:34.319Z</time></trkpt><trkpt lat="45.4687609" lon="8.7759398"><ele>118.0</ele><time>2026-04-12T16:55:35.326Z</time></trkpt><trkpt lat="45.468716" lon="8.7755126"><ele>118.0</ele><time>2026-04-12T16:55:36.307Z</time></trkpt><trkpt lat="45.4686724" lon="8.7750841"><ele>118.5</ele><time>2026-04-12T16:55:37.308Z</time></trkpt><trkpt lat="45.4686302" lon="8.7746518"><ele>119.0</ele><time>2026-04-12T16:55:38.31Z</time></trkpt><trkpt lat="45.4685903" lon="8.774218"><ele>119.0</ele><time>2026-04-12T16:55:39.31Z</time></trkpt><trkpt lat="45.4685522" lon="8.77378"><ele>119.0</ele><time>2026-04-12T16:55:40.31Z</time></trkpt><trkpt lat="45.4685158" lon="8.7733427"><ele>120.5</ele><time>2026-04-12T16:55:41.332Z</time></trkpt><trkpt lat="45.4684815" lon="8.7729082"><ele>122.0</ele><time>2026-04-12T16:55:42.307Z</time></trkpt><trkpt lat="45.4684466" lon="8.7724735"><ele>122.0</ele><time>2026-04-12T16:55:43.311Z</time></trkpt><trkpt lat="45.4684095" lon="8.7720397"><ele>122.0</ele><time>2026-04-12T16:55:44.308Z</time></trkpt><trkpt lat="45.4683727" lon="8.7716069"><ele>122.0</ele><time>2026-04-12T16:55:45.311Z</time></trkpt><trkpt lat="45.4683373" lon="8.7711767"><ele>122.0</ele><time>2026-04-12T16:55:46.327Z</time></trkpt><trkpt lat="45.4683001" lon="8.7707471"><ele>122.0</ele><time>2026-04-12T16:55:47.306Z</time></trkpt><trkpt lat="45.4682633" lon="8.7703173"><ele>122.0</ele><time>2026-04-12T16:55:48.311Z</time></trkpt><trkpt lat="45.4682249" lon="8.7698888"><ele>123.5</ele><time>2026-04-12T16:55:49.304Z</time></trkpt><trkpt lat="45.4681856" lon="8.7694584"><ele>125.0</ele><time>2026-04-12T16:55:50.306Z</time></trkpt><trkpt lat="45.4681467" lon="8.769029"><ele>125.0</ele><time>2026-04-12T16:55:51.313Z</time></trkpt><trkpt lat="45.4681092" lon="8.768601"><ele>125.0</ele><time>2026-04-12T16:55:52.324Z</time></trkpt><trkpt lat="45.4680731" lon="8.7681732"><ele>124.5</ele><time>2026-04-12T16:55:53.313Z</time></trkpt><trkpt lat="45.4680393" lon="8.7677429"><ele>124.0</ele><time>2026-04-12T16:55:54.319Z</time></trkpt><trkpt lat="45.4680067" lon="8.7673135"><ele>126.0</ele><time>2026-04-12T16:55:55.303Z</time></trkpt><trkpt lat="45.4679813" lon="8.766885"><ele>128.0</ele><time>2026-04-12T16:55:56.309Z</time></trkpt><trkpt lat="45.4679602" lon="8.766457"><ele>129.5</ele><time>2026-04-12T16:55:57.311Z</time></trkpt><trkpt lat="45.4679396" lon="8.7660299"><ele>131.0</ele><time>2026-04-12T16:55:58.307Z</time></trkpt><trkpt lat="45.4679175" lon="8.7656033"><ele>134.0</ele><time>2026-04-12T16:55:59.311Z</time></trkpt><trkpt lat="45.4678914" lon="8.7651777"><ele>137.0</ele><time>2026-04-12T16:56:00.32Z</time></trkpt><trkpt lat="45.4678646" lon="8.7647518"><ele>136.0</ele><time>2026-04-12T16:56:01.304Z</time></trkpt><trkpt lat="45.4678355" lon="8.7643226"><ele>135.0</ele><time>2026-04-12T16:56:02.305Z</time></trkpt><trkpt lat="45.467807" lon="8.7638885"><ele>135.5</ele><time>2026-04-12T16:56:03.306Z</time></trkpt><trkpt lat="45.4677806" lon="8.7634518"><ele>136.0</ele><time>2026-04-12T16:56:04.311Z</time></trkpt><trkpt lat="45.4677567" lon="8.7630167"><ele>136.5</ele><time>2026-04-12T16:56:05.299Z</time></trkpt><trkpt lat="45.4677345" lon="8.762585"><ele>137.0</ele><time>2026-04-12T16:56:06.312Z</time></trkpt><trkpt lat="45.4677125" lon="8.7621596"><ele>137.5</ele><time>2026-04-12T16:56:07.298Z</time></trkpt><trkpt lat="45.4676912" lon="8.7617414"><ele>138.0</ele><time>2026-04-12T16:56:08.299Z</time></trkpt><trkpt lat="45.4676697" lon="8.7613294"><ele>138.5</ele><time>2026-04-12T16:56:09.31Z</time></trkpt><trkpt lat="45.4676497" lon="8.7609231"><ele>139.0</ele><time>2026-04-12T16:56:10.306Z</time></trkpt><trkpt lat="45.4676302" lon="8.7605179"><ele>139.0</ele><time>2026-04-12T16:56:11.307Z</time></trkpt><trkpt lat="45.4676119" lon="8.7601116"><ele>139.0</ele><time>2026-04-12T16:56:12.31Z</time></trkpt><trkpt lat="45.4675941" lon="8.7597056"><ele>139.0</ele><time>2026-04-12T16:56:13.309Z</time></trkpt><trkpt lat="45.4675755" lon="8.7592928"><ele>139.0</ele><time>2026-04-12T16:56:14.312Z</time></trkpt><trkpt lat="45.4675566" lon="8.7588767"><ele>139.0</ele><time>2026-04-12T16:56:15.313Z</time></trkpt><trkpt lat="45.4675381" lon="8.7584627"><ele>139.0</ele><time>2026-04-12T16:56:16.31Z</time></trkpt><trkpt lat="45.4675203" lon="8.7580489"><ele>139.5</ele><time>2026-04-12T16:56:17.323Z</time></trkpt><trkpt lat="45.4675039" lon="8.7576388"><ele>140.0</ele><time>2026-04-12T16:56:18.307Z</time></trkpt><trkpt lat="45.4674888" lon="8.7572349"><ele>141.0</ele><time>2026-04-12T16:56:19.31Z</time></trkpt><trkpt lat="45.4674749" lon="8.7568325"><ele>142.0</ele><time>2026-04-12T16:56:20.297Z</time></trkpt><trkpt lat="45.4674619" lon="8.7564324"><ele>142.0</ele><time>2026-04-12T16:56:21.303Z</time></trkpt><trkpt lat="45.4674496" lon="8.7560371"><ele>142.0</ele><time>2026-04-12T16:56:22.318Z</time></trkpt><trkpt lat="45.4674383" lon="8.7556418"><ele>141.5</ele><time>2026-04-12T16:56:23.32Z</time></trkpt><trkpt lat="45.4674331" lon="8.7552502"><ele>141.0</ele><time>2026-04-12T16:56:24.312Z</time></trkpt><trkpt lat="45.4674256" lon="8.7548676"><ele>140.5</ele><time>2026-04-12T16:56:25.311Z</time></trkpt><trkpt lat="45.4674179" lon="8.7544804"><ele>140.0</ele><time>2026-04-12T16:56:26.302Z</time></trkpt><trkpt lat="45.4674122" lon="8.7540932"><ele>140.0</ele><time>2026-04-12T16:56:27.304Z</time></trkpt><trkpt lat="45.4674082" lon="8.7537037"><ele>140.0</ele><time>2026-04-12T16:56:28.308Z</time></trkpt><trkpt lat="45.4674046" lon="8.7533092"><ele>140.5</ele><time>2026-04-12T16:56:29.307Z</time></trkpt><trkpt lat="45.4674015" lon="8.7529091"><ele>141.0</ele><time>2026-04-12T16:56:30.319Z</time></trkpt><trkpt lat="45.4673957" lon="8.7525047"><ele>141.0</ele><time>2026-04-12T16:56:31.313Z</time></trkpt><trkpt lat="45.4673884" lon="8.7520968"><ele>141.0</ele><time>2026-04-12T16:56:32.327Z</time></trkpt><trkpt lat="45.4673815" lon="8.7516847"><ele>141.0</ele><time>2026-04-12T16:56:33.326Z</time></trkpt><trkpt lat="45.4673759" lon="8.7512694"><ele>141.0</ele><time>2026-04-12T16:56:34.313Z</time></trkpt><trkpt lat="45.4673712" lon="8.75085"><ele>141.5</ele><time>2026-04-12T16:56:35.317Z</time></trkpt><trkpt lat="45.4673655" lon="8.7504267"><ele>142.0</ele><time>2026-04-12T16:56:36.31Z</time></trkpt><trkpt lat="45.4673619" lon="8.7500002"><ele>142.0</ele><time>2026-04-12T16:56:37.307Z</time></trkpt><trkpt lat="45.4673593" lon="8.7495721"><ele>142.0</ele><time>2026-04-12T16:56:38.302Z</time></trkpt><trkpt lat="45.4673572" lon="8.7491456"><ele>142.5</ele><time>2026-04-12T16:56:39.312Z</time></trkpt><trkpt lat="45.4673549" lon="8.7487259"><ele>143.0</ele><time>2026-04-12T16:56:40.311Z</time></trkpt><trkpt lat="45.4673546" lon="8.7483121"><ele>143.0</ele><time>2026-04-12T16:56:41.325Z</time></trkpt><trkpt lat="45.4673553" lon="8.7479048"><ele>143.0</ele><time>2026-04-12T16:56:42.312Z</time></trkpt><trkpt lat="45.4673563" lon="8.7474989"><ele>143.5</ele><time>2026-04-12T16:56:43.312Z</time></trkpt><trkpt lat="45.4673592" lon="8.7470933"><ele>144.0</ele><time>2026-04-12T16:56:44.321Z</time></trkpt><trkpt lat="45.4673646" lon="8.746687"><ele>144.0</ele><time>2026-04-12T16:56:45.307Z</time></trkpt><trkpt lat="45.4673711" lon="8.7462777"><ele>144.0</ele><time>2026-04-12T16:56:46.329Z</time></trkpt><trkpt lat="45.4673775" lon="8.745864"><ele>143.5</ele><time>2026-04-12T16:56:47.306Z</time></trkpt><trkpt lat="45.467384" lon="8.7454437"><ele>143.0</ele><time>2026-04-12T16:56:48.313Z</time></trkpt><trkpt lat="45.4673914" lon="8.7450175"><ele>143.0</ele><time>2026-04-12T16:56:49.319Z</time></trkpt><trkpt lat="45.4673982" lon="8.744584"><ele>143.0</ele><time>2026-04-12T16:56:50.309Z</time></trkpt><trkpt lat="45.4674051" lon="8.744151"><ele>143.0</ele><time>2026-04-12T16:56:51.324Z</time></trkpt><trkpt lat="45.4674122" lon="8.7437182"><ele>143.0</ele><time>2026-04-12T16:56:52.304Z</time></trkpt><trkpt lat="45.4674196" lon="8.7432807"><ele>143.0</ele><time>2026-04-12T16:56:53.312Z</time></trkpt><trkpt lat="45.4674285" lon="8.7428413"><ele>143.0</ele><time>2026-04-12T16:56:54.316Z</time></trkpt><trkpt lat="45.4674388" lon="8.7423982"><ele>144.0</ele><time>2026-04-12T16:56:55.313Z</time></trkpt><trkpt lat="45.4674497" lon="8.7419581"><ele>145.0</ele><time>2026-04-12T16:56:56.309Z</time></trkpt><trkpt lat="45.4674629" lon="8.7415183"><ele>145.0</ele><time>2026-04-12T16:56:57.311Z</time></trkpt><trkpt lat="45.4674755" lon="8.7410818"><ele>145.0</ele><time>2026-04-12T16:56:58.305Z</time></trkpt><trkpt lat="45.4674883" lon="8.7406486"><ele>145.0</ele><time>2026-04-12T16:56:59.323Z</time></trkpt><trkpt lat="45.4675001" lon="8.7402176"><ele>145.0</ele><time>2026-04-12T16:57:00.307Z</time></trkpt><trkpt lat="45.4675101" lon="8.7397852"><ele>144.0</ele><time>2026-04-12T16:57:01.3Z</time></trkpt><trkpt lat="45.4675178" lon="8.7393543"><ele>143.0</ele><time>2026-04-12T16:57:02.293Z</time></trkpt><trkpt lat="45.4675234" lon="8.7389237"><ele>142.5</ele><time>2026-04-12T16:57:03.302Z</time></trkpt><trkpt lat="45.4675277" lon="8.738499"><ele>142.0</ele><time>2026-04-12T16:57:04.3Z</time></trkpt><trkpt lat="45.4675322" lon="8.7380717"><ele>142.5</ele><time>2026-04-12T16:57:05.314Z</time></trkpt><trkpt lat="45.4675373" lon="8.7376458"><ele>143.0</ele><time>2026-04-12T16:57:06.298Z</time></trkpt><trkpt lat="45.4675439" lon="8.737223"><ele>144.5</ele><time>2026-04-12T16:57:07.304Z</time></trkpt><trkpt lat="45.4675515" lon="8.7367986"><ele>146.0</ele><time>2026-04-12T16:57:08.299Z</time></trkpt><trkpt lat="45.4675597" lon="8.7363743"><ele>146.5</ele><time>2026-04-12T16:57:09.301Z</time></trkpt><trkpt lat="45.4675671" lon="8.7359511"><ele>147.0</ele><time>2026-04-12T16:57:10.305Z</time></trkpt><trkpt lat="45.4675735" lon="8.7355275"><ele>147.0</ele><time>2026-04-12T16:57:11.312Z</time></trkpt><trkpt lat="45.4675789" lon="8.7351057"><ele>147.0</ele><time>2026-04-12T16:57:12.312Z</time></trkpt><trkpt lat="45.467585" lon="8.7346839"><ele>146.5</ele><time>2026-04-12T16:57:13.31Z</time></trkpt><trkpt lat="45.4675904" lon="8.7342615"><ele>146.0</ele><time>2026-04-12T16:57:14.311Z</time></trkpt><trkpt lat="45.4675972" lon="8.7338389"><ele>145.5</ele><time>2026-04-12T16:57:15.312Z</time></trkpt><trkpt lat="45.4676054" lon="8.7334172"><ele>145.0</ele><time>2026-04-12T16:57:16.319Z</time></trkpt><trkpt lat="45.4676138" lon="8.7329956"><ele>144.5</ele><time>2026-04-12T16:57:17.31Z</time></trkpt><trkpt lat="45.4676221" lon="8.7325764"><ele>144.0</ele><time>2026-04-12T16:57:18.311Z</time></trkpt><trkpt lat="45.4676303" lon="8.7321563"><ele>144.5</ele><time>2026-04-12T16:57:19.305Z</time></trkpt><trkpt lat="45.4676368" lon="8.7317346"><ele>145.0</ele><time>2026-04-12T16:57:20.311Z</time></trkpt><trkpt lat="45.4676419" lon="8.7313117"><ele>146.0</ele><time>2026-04-12T16:57:21.313Z</time></trkpt><trkpt lat="45.4676477" lon="8.7308897"><ele>147.0</ele><time>2026-04-12T16:57:22.312Z</time></trkpt><trkpt lat="45.4676537" lon="8.730467"><ele>146.5</ele><time>2026-04-12T16:57:23.313Z</time></trkpt><trkpt lat="45.4676604" lon="8.7300453"><ele>146.0</ele><time>2026-04-12T16:57:24.313Z</time></trkpt><trkpt lat="45.4676674" lon="8.729624"><ele>145.0</ele><time>2026-04-12T16:57:25.312Z</time></trkpt><trkpt lat="45.4676755" lon="8.729203"><ele>144.0</ele><time>2026-04-12T16:57:26.312Z</time></trkpt><trkpt lat="45.4676834" lon="8.7287804"><ele>144.0</ele><time>2026-04-12T16:57:27.303Z</time></trkpt><trkpt lat="45.4676905" lon="8.7283622"><ele>144.0</ele><time>2026-04-12T16:57:28.328Z</time></trkpt><trkpt lat="45.467698" lon="8.7279401"><ele>144.0</ele><time>2026-04-12T16:57:29.299Z</time></trkpt><trkpt lat="45.4677045" lon="8.7275211"><ele>144.0</ele><time>2026-04-12T16:57:30.314Z</time></trkpt><trkpt lat="45.4677103" lon="8.7271046"><ele>144.0</ele><time>2026-04-12T16:57:31.31Z</time></trkpt><trkpt lat="45.4677161" lon="8.7266882"><ele>144.0</ele><time>2026-04-12T16:57:32.295Z</time></trkpt><trkpt lat="45.4677227" lon="8.7262713"><ele>144.0</ele><time>2026-04-12T16:57:33.307Z</time></trkpt><trkpt lat="45.4677309" lon="8.7258544"><ele>144.0</ele><time>2026-04-12T16:57:34.303Z</time></trkpt><trkpt lat="45.4677388" lon="8.7254373"><ele>144.5</ele><time>2026-04-12T16:57:35.321Z</time></trkpt><trkpt lat="45.4677455" lon="8.72502"><ele>145.0</ele><time>2026-04-12T16:57:36.31Z</time></trkpt><trkpt lat="45.4677525" lon="8.7246014"><ele>145.0</ele><time>2026-04-12T16:57:37.305Z</time></trkpt><trkpt lat="45.4677596" lon="8.7241831"><ele>145.0</ele><time>2026-04-12T16:57:38.31Z</time></trkpt><trkpt lat="45.4677648" lon="8.7237633"><ele>145.5</ele><time>2026-04-12T16:57:39.31Z</time></trkpt><trkpt lat="45.4677708" lon="8.7233435"><ele>146.0</ele><time>2026-04-12T16:57:40.311Z</time></trkpt><trkpt lat="45.4677781" lon="8.7229247"><ele>146.5</ele><time>2026-04-12T16:57:41.313Z</time></trkpt><trkpt lat="45.4677817" lon="8.7224995"><ele>147.0</ele><time>2026-04-12T16:57:42.327Z</time></trkpt><trkpt lat="45.4677868" lon="8.7220704"><ele>147.0</ele><time>2026-04-12T16:57:43.313Z</time></trkpt><trkpt lat="45.4677933" lon="8.7216342"><ele>147.0</ele><time>2026-04-12T16:57:44.313Z</time></trkpt><trkpt lat="45.4678016" lon="8.721196"><ele>146.5</ele><time>2026-04-12T16:57:45.313Z</time></trkpt><trkpt lat="45.4678099" lon="8.7207568"><ele>146.0</ele><time>2026-04-12T16:57:46.313Z</time></trkpt><trkpt lat="45.4678184" lon="8.7203149"><ele>146.5</ele><time>2026-04-12T16:57:47.31Z</time></trkpt><trkpt lat="45.4678263" lon="8.71987"><ele>147.0</ele><time>2026-04-12T16:57:48.325Z</time></trkpt><trkpt lat="45.4678336" lon="8.7194252"><ele>146.0</ele><time>2026-04-12T16:57:49.317Z</time></trkpt><trkpt lat="45.46784" lon="8.7189842"><ele>145.0</ele><time>2026-04-12T16:57:50.313Z</time></trkpt><trkpt lat="45.4678457" lon="8.718545"><ele>145.0</ele><time>2026-04-12T16:57:51.331Z</time></trkpt><trkpt lat="45.4678529" lon="8.7181043"><ele>145.0</ele><time>2026-04-12T16:57:52.322Z</time></trkpt><trkpt lat="45.4678614" lon="8.717664"><ele>145.0</ele><time>2026-04-12T16:57:53.31Z</time></trkpt><trkpt lat="45.4678697" lon="8.7172247"><ele>145.0</ele><time>2026-04-12T16:57:54.318Z</time></trkpt><trkpt lat="45.4678786" lon="8.7167869"><ele>145.0</ele><time>2026-04-12T16:57:55.305Z</time></trkpt><trkpt lat="45.4678867" lon="8.7163496"><ele>145.0</ele><time>2026-04-12T16:57:56.313Z</time></trkpt><trkpt lat="45.4678938" lon="8.7159168"><ele>145.0</ele><time>2026-04-12T16:57:57.313Z</time></trkpt><trkpt lat="45.4679001" lon="8.7154943"><ele>145.0</ele><time>2026-04-12T16:57:58.312Z</time></trkpt><trkpt lat="45.4679042" lon="8.7150596"><ele>145.0</ele><time>2026-04-12T16:57:59.32Z</time></trkpt><trkpt lat="45.4679053" lon="8.7146317"><ele>145.0</ele><time>2026-04-12T16:58:00.312Z</time></trkpt><trkpt lat="45.4679085" lon="8.7141984"><ele>145.5</ele><time>2026-04-12T16:58:01.305Z</time></trkpt><trkpt lat="45.4679127" lon="8.7137659"><ele>146.0</ele><time>2026-04-12T16:58:02.313Z</time></trkpt><trkpt lat="45.4679167" lon="8.7133349"><ele>146.0</ele><time>2026-04-12T16:58:03.315Z</time></trkpt><trkpt lat="45.4679206" lon="8.7129043"><ele>146.0</ele><time>2026-04-12T16:58:04.319Z</time></trkpt><trkpt lat="45.4679238" lon="8.7124741"><ele>146.0</ele><time>2026-04-12T16:58:05.311Z</time></trkpt><trkpt lat="45.467925" lon="8.7120463"><ele>146.0</ele><time>2026-04-12T16:58:06.317Z</time></trkpt><trkpt lat="45.4679273" lon="8.7116181"><ele>146.0</ele><time>2026-04-12T16:58:07.319Z</time></trkpt><trkpt lat="45.4679316" lon="8.7111897"><ele>146.0</ele><time>2026-04-12T16:58:08.318Z</time></trkpt><trkpt lat="45.4679372" lon="8.710765"><ele>147.0</ele><time>2026-04-12T16:58:09.31Z</time></trkpt><trkpt lat="45.4679442" lon="8.7103383"><ele>148.0</ele><time>2026-04-12T16:58:10.33Z</time></trkpt><trkpt lat="45.4679516" lon="8.7099099"><ele>149.0</ele><time>2026-04-12T16:58:11.313Z</time></trkpt><trkpt lat="45.4679617" lon="8.7094793"><ele>150.0</ele><time>2026-04-12T16:58:12.312Z</time></trkpt><trkpt lat="45.4679727" lon="8.709049"><ele>150.5</ele><time>2026-04-12T16:58:13.314Z</time></trkpt><trkpt lat="45.4679879" lon="8.7086166"><ele>151.0</ele><time>2026-04-12T16:58:14.311Z</time></trkpt><trkpt lat="45.4680036" lon="8.7081799"><ele>150.0</ele><time>2026-04-12T16:58:15.321Z</time></trkpt><trkpt lat="45.4680178" lon="8.7077364"><ele>149.0</ele><time>2026-04-12T16:58:16.312Z</time></trkpt><trkpt lat="45.4680319" lon="8.7072867"><ele>148.0</ele><time>2026-04-12T16:58:17.327Z</time></trkpt><trkpt lat="45.4680434" lon="8.7068361"><ele>147.0</ele><time>2026-04-12T16:58:18.313Z</time></trkpt><trkpt lat="45.4680522" lon="8.7063866"><ele>146.5</ele><time>2026-04-12T16:58:19.324Z</time></trkpt><trkpt lat="45.4680602" lon="8.705935"><ele>146.0</ele><time>2026-04-12T16:58:20.312Z</time></trkpt><trkpt lat="45.4680681" lon="8.7054854"><ele>146.0</ele><time>2026-04-12T16:58:21.332Z</time></trkpt><trkpt lat="45.4680779" lon="8.7050412"><ele>146.0</ele><time>2026-04-12T16:58:22.316Z</time></trkpt><trkpt lat="45.4680851" lon="8.7045983"><ele>147.5</ele><time>2026-04-12T16:58:23.312Z</time></trkpt><trkpt lat="45.4680928" lon="8.7041562"><ele>149.0</ele><time>2026-04-12T16:58:24.324Z</time></trkpt><trkpt lat="45.4681" lon="8.7037192"><ele>150.5</ele><time>2026-04-12T16:58:25.313Z</time></trkpt><trkpt lat="45.4681041" lon="8.7032797"><ele>152.0</ele><time>2026-04-12T16:58:26.322Z</time></trkpt><trkpt lat="45.4681089" lon="8.7028401"><ele>150.5</ele><time>2026-04-12T16:58:27.312Z</time></trkpt><trkpt lat="45.4681144" lon="8.7023991"><ele>149.0</ele><time>2026-04-12T16:58:28.319Z</time></trkpt><trkpt lat="45.4681197" lon="8.7019561"><ele>148.0</ele><time>2026-04-12T16:58:29.312Z</time></trkpt><trkpt lat="45.468126" lon="8.7015175"><ele>147.0</ele><time>2026-04-12T16:58:30.319Z</time></trkpt><trkpt lat="45.4681308" lon="8.7010744"><ele>146.5</ele><time>2026-04-12T16:58:31.312Z</time></trkpt><trkpt lat="45.4681377" lon="8.7006317"><ele>146.0</ele><time>2026-04-12T16:58:32.323Z</time></trkpt><trkpt lat="45.4681445" lon="8.7001885"><ele>146.0</ele><time>2026-04-12T16:58:33.311Z</time></trkpt><trkpt lat="45.4681522" lon="8.6997451"><ele>146.0</ele><time>2026-04-12T16:58:34.321Z</time></trkpt><trkpt lat="45.4681592" lon="8.6993017"><ele>146.5</ele><time>2026-04-12T16:58:35.32Z</time></trkpt><trkpt lat="45.4681668" lon="8.6988557"><ele>147.0</ele><time>2026-04-12T16:58:36.317Z</time></trkpt><trkpt lat="45.4681741" lon="8.6984105"><ele>147.0</ele><time>2026-04-12T16:58:37.312Z</time></trkpt><trkpt lat="45.4681812" lon="8.6979642"><ele>147.0</ele><time>2026-04-12T16:58:38.313Z</time></trkpt><trkpt lat="45.4681872" lon="8.6975203"><ele>147.0</ele><time>2026-04-12T16:58:39.318Z</time></trkpt><trkpt lat="45.4681932" lon="8.6970787"><ele>147.0</ele><time>2026-04-12T16:58:40.318Z</time></trkpt><trkpt lat="45.4681988" lon="8.6966386"><ele>147.0</ele><time>2026-04-12T16:58:41.326Z</time></trkpt><trkpt lat="45.4682046" lon="8.6962022"><ele>147.0</ele><time>2026-04-12T16:58:42.32Z</time></trkpt><trkpt lat="45.4682144" lon="8.6957644"><ele>146.5</ele><time>2026-04-12T16:58:43.325Z</time></trkpt><trkpt lat="45.468222" lon="8.6953329"><ele>146.0</ele><time>2026-04-12T16:58:44.314Z</time></trkpt><trkpt lat="45.4682299" lon="8.6949067"><ele>146.0</ele><time>2026-04-12T16:58:45.304Z</time></trkpt><trkpt lat="45.4682382" lon="8.6944837"><ele>146.0</ele><time>2026-04-12T16:58:46.313Z</time></trkpt><trkpt lat="45.4682451" lon="8.6940614"><ele>147.0</ele><time>2026-04-12T16:58:47.302Z</time></trkpt><trkpt lat="45.4682513" lon="8.6936401"><ele>148.0</ele><time>2026-04-12T16:58:48.323Z</time></trkpt><trkpt lat="45.4682582" lon="8.6932203"><ele>148.0</ele><time>2026-04-12T16:58:49.325Z</time></trkpt><trkpt lat="45.4682642" lon="8.692802"><ele>148.0</ele><time>2026-04-12T16:58:50.312Z</time></trkpt><trkpt lat="45.4682708" lon="8.6923841"><ele>147.5</ele><time>2026-04-12T16:58:51.314Z</time></trkpt><trkpt lat="45.4682788" lon="8.6919672"><ele>147.0</ele><time>2026-04-12T16:58:52.305Z</time></trkpt><trkpt lat="45.4682871" lon="8.6915511"><ele>147.0</ele><time>2026-04-12T16:58:53.323Z</time></trkpt><trkpt lat="45.4682946" lon="8.6911344"><ele>147.0</ele><time>2026-04-12T16:58:54.318Z</time></trkpt><trkpt lat="45.4683015" lon="8.6907182"><ele>147.0</ele><time>2026-04-12T16:58:55.313Z</time></trkpt><trkpt lat="45.468308" lon="8.6903023"><ele>147.0</ele><time>2026-04-12T16:58:56.308Z</time></trkpt><trkpt lat="45.4683142" lon="8.6898858"><ele>147.0</ele><time>2026-04-12T16:58:57.326Z</time></trkpt><trkpt lat="45.4683218" lon="8.6894668"><ele>147.0</ele><time>2026-04-12T16:58:58.303Z</time></trkpt><trkpt lat="45.4683293" lon="8.6890442"><ele>147.0</ele><time>2026-04-12T16:58:59.32Z</time></trkpt><trkpt lat="45.4683374" lon="8.6886217"><ele>147.0</ele><time>2026-04-12T16:59:00.321Z</time></trkpt><trkpt lat="45.468347" lon="8.6881982"><ele>147.0</ele><time>2026-04-12T16:59:01.31Z</time></trkpt><trkpt lat="45.4683555" lon="8.6877748"><ele>147.0</ele><time>2026-04-12T16:59:02.325Z</time></trkpt><trkpt lat="45.4683619" lon="8.6873524"><ele>148.0</ele><time>2026-04-12T16:59:03.305Z</time></trkpt><trkpt lat="45.468368" lon="8.6869273"><ele>149.0</ele><time>2026-04-12T16:59:04.311Z</time></trkpt><trkpt lat="45.4683726" lon="8.6865022"><ele>149.5</ele><time>2026-04-12T16:59:05.311Z</time></trkpt><trkpt lat="45.4683786" lon="8.6860756"><ele>150.0</ele><time>2026-04-12T16:59:06.319Z</time></trkpt><trkpt lat="45.4683868" lon="8.6856463"><ele>150.0</ele><time>2026-04-12T16:59:07.311Z</time></trkpt><trkpt lat="45.4683959" lon="8.685216"><ele>150.0</ele><time>2026-04-12T16:59:08.312Z</time></trkpt><trkpt lat="45.4684059" lon="8.6847888"><ele>150.0</ele><time>2026-04-12T16:59:09.31Z</time></trkpt><trkpt lat="45.4684145" lon="8.6843542"><ele>150.0</ele><time>2026-04-12T16:59:10.305Z</time></trkpt><trkpt lat="45.4684211" lon="8.6839174"><ele>149.0</ele><time>2026-04-12T16:59:11.313Z</time></trkpt><trkpt lat="45.4684261" lon="8.6834782"><ele>148.0</ele><time>2026-04-12T16:59:12.319Z</time></trkpt><trkpt lat="45.4684305" lon="8.6830406"><ele>147.5</ele><time>2026-04-12T16:59:13.326Z</time></trkpt><trkpt lat="45.4684357" lon="8.6826021"><ele>147.0</ele><time>2026-04-12T16:59:14.304Z</time></trkpt><trkpt lat="45.4684418" lon="8.6821629"><ele>147.0</ele><time>2026-04-12T16:59:15.307Z</time></trkpt><trkpt lat="45.4684467" lon="8.6817212"><ele>147.0</ele><time>2026-04-12T16:59:16.308Z</time></trkpt><trkpt lat="45.468451" lon="8.6812772"><ele>149.5</ele><time>2026-04-12T16:59:17.307Z</time></trkpt><trkpt lat="45.4684579" lon="8.6808316"><ele>152.0</ele><time>2026-04-12T16:59:18.312Z</time></trkpt><trkpt lat="45.4684663" lon="8.6803847"><ele>154.0</ele><time>2026-04-12T16:59:19.306Z</time></trkpt><trkpt lat="45.4684752" lon="8.6799393"><ele>156.0</ele><time>2026-04-12T16:59:20.318Z</time></trkpt><trkpt lat="45.4684853" lon="8.679494"><ele>153.5</ele><time>2026-04-12T16:59:21.306Z</time></trkpt><trkpt lat="45.4684948" lon="8.6790475"><ele>151.0</ele><time>2026-04-12T16:59:22.302Z</time></trkpt><trkpt lat="45.4685035" lon="8.6785991"><ele>150.0</ele><time>2026-04-12T16:59:23.304Z</time></trkpt><trkpt lat="45.4685096" lon="8.6781527"><ele>149.0</ele><time>2026-04-12T16:59:24.309Z</time></trkpt><trkpt lat="45.4685137" lon="8.6777081"><ele>149.0</ele><time>2026-04-12T16:59:25.318Z</time></trkpt><trkpt lat="45.4685169" lon="8.6772666"><ele>149.0</ele><time>2026-04-12T16:59:26.327Z</time></trkpt><trkpt lat="45.4685214" lon="8.6768286"><ele>149.0</ele><time>2026-04-12T16:59:27.312Z</time></trkpt><trkpt lat="45.4685272" lon="8.6763948"><ele>149.0</ele><time>2026-04-12T16:59:28.314Z</time></trkpt><trkpt lat="45.4685343" lon="8.675964"><ele>149.0</ele><time>2026-04-12T16:59:29.305Z</time></trkpt><trkpt lat="45.4685433" lon="8.675535"><ele>149.0</ele><time>2026-04-12T16:59:30.317Z</time></trkpt><trkpt lat="45.4685512" lon="8.6751052"><ele>149.0</ele><time>2026-04-12T16:59:31.312Z</time></trkpt><trkpt lat="45.4685582" lon="8.6746761"><ele>149.0</ele><time>2026-04-12T16:59:32.322Z</time></trkpt><trkpt lat="45.4685651" lon="8.6742481"><ele>149.5</ele><time>2026-04-12T16:59:33.321Z</time></trkpt><trkpt lat="45.4685725" lon="8.6738215"><ele>150.0</ele><time>2026-04-12T16:59:34.311Z</time></trkpt><trkpt lat="45.4685806" lon="8.6733944"><ele>150.0</ele><time>2026-04-12T16:59:35.312Z</time></trkpt><trkpt lat="45.4685892" lon="8.6729685"><ele>150.0</ele><time>2026-04-12T16:59:36.314Z</time></trkpt><trkpt lat="45.4685988" lon="8.6725466"><ele>149.0</ele><time>2026-04-12T16:59:37.305Z</time></trkpt><trkpt lat="45.4686064" lon="8.6721216"><ele>148.0</ele><time>2026-04-12T16:59:38.31Z</time></trkpt><trkpt lat="45.4686136" lon="8.6716916"><ele>148.0</ele><time>2026-04-12T16:59:39.318Z</time></trkpt><trkpt lat="45.4686218" lon="8.6712593"><ele>148.0</ele><time>2026-04-12T16:59:40.325Z</time></trkpt><trkpt lat="45.4686286" lon="8.6708261"><ele>148.0</ele><time>2026-04-12T16:59:41.307Z</time></trkpt><trkpt lat="45.4686345" lon="8.6703916"><ele>148.0</ele><time>2026-04-12T16:59:42.311Z</time></trkpt><trkpt lat="45.4686397" lon="8.6699521"><ele>148.0</ele><time>2026-04-12T16:59:43.319Z</time></trkpt><trkpt lat="45.4686446" lon="8.6695105"><ele>148.0</ele><time>2026-04-12T16:59:44.311Z</time></trkpt><trkpt lat="45.4686493" lon="8.6690676"><ele>147.5</ele><time>2026-04-12T16:59:45.322Z</time></trkpt><trkpt lat="45.4686557" lon="8.6686245"><ele>147.0</ele><time>2026-04-12T16:59:46.314Z</time></trkpt><trkpt lat="45.4686606" lon="8.6681821"><ele>147.0</ele><time>2026-04-12T16:59:47.31Z</time></trkpt><trkpt lat="45.4686675" lon="8.6677406"><ele>147.0</ele><time>2026-04-12T16:59:48.326Z</time></trkpt><trkpt lat="45.4686752" lon="8.6672987"><ele>147.0</ele><time>2026-04-12T16:59:49.303Z</time></trkpt><trkpt lat="45.4686827" lon="8.666857"><ele>147.0</ele><time>2026-04-12T16:59:50.309Z</time></trkpt><trkpt lat="45.4686898" lon="8.6664144"><ele>147.5</ele><time>2026-04-12T16:59:51.312Z</time></trkpt><trkpt lat="45.4686983" lon="8.6659679"><ele>148.0</ele><time>2026-04-12T16:59:52.311Z</time></trkpt><trkpt lat="45.468707" lon="8.6655193"><ele>148.0</ele><time>2026-04-12T16:59:53.301Z</time></trkpt><trkpt lat="45.4687147" lon="8.6650724"><ele>148.0</ele><time>2026-04-12T16:59:54.321Z</time></trkpt><trkpt lat="45.4687204" lon="8.664627"><ele>148.5</ele><time>2026-04-12T16:59:55.324Z</time></trkpt><trkpt lat="45.4687248" lon="8.6641819"><ele>149.0</ele><time>2026-04-12T16:59:56.32Z</time></trkpt><trkpt lat="45.4687279" lon="8.6637358"><ele>149.5</ele><time>2026-04-12T16:59:57.326Z</time></trkpt><trkpt lat="45.4687286" lon="8.6632911"><ele>150.0</ele><time>2026-04-12T16:59:58.309Z</time></trkpt><trkpt lat="45.4687283" lon="8.6628487"><ele>149.0</ele><time>2026-04-12T16:59:59.321Z</time></trkpt><trkpt lat="45.4687298" lon="8.6624067"><ele>148.0</ele><time>2026-04-12T17:00:00.322Z</time></trkpt><trkpt lat="45.4687332" lon="8.6619662"><ele>149.5</ele><time>2026-04-12T17:00:01.313Z</time></trkpt><trkpt lat="45.4687397" lon="8.6615274"><ele>151.0</ele><time>2026-04-12T17:00:02.3Z</time></trkpt><trkpt lat="45.4687508" lon="8.6610891"><ele>151.5</ele><time>2026-04-12T17:00:03.32Z</time></trkpt><trkpt lat="45.4687634" lon="8.6606546"><ele>152.0</ele><time>2026-04-12T17:00:04.308Z</time></trkpt><trkpt lat="45.4687735" lon="8.6602267"><ele>151.5</ele><time>2026-04-12T17:00:05.308Z</time></trkpt><trkpt lat="45.4687826" lon="8.6597908"><ele>151.0</ele><time>2026-04-12T17:00:06.31Z</time></trkpt><trkpt lat="45.4687913" lon="8.6593556"><ele>151.0</ele><time>2026-04-12T17:00:07.31Z</time></trkpt><trkpt lat="45.4688018" lon="8.6589206"><ele>151.0</ele><time>2026-04-12T17:00:08.31Z</time></trkpt><trkpt lat="45.4688133" lon="8.6584967"><ele>150.5</ele><time>2026-04-12T17:00:09.298Z</time></trkpt><trkpt lat="45.4688232" lon="8.6580712"><ele>150.0</ele><time>2026-04-12T17:00:10.301Z</time></trkpt><trkpt lat="45.4688318" lon="8.6576409"><ele>150.0</ele><time>2026-04-12T17:00:11.313Z</time></trkpt><trkpt lat="45.4688378" lon="8.6572113"><ele>150.0</ele><time>2026-04-12T17:00:12.303Z</time></trkpt><trkpt lat="45.4688403" lon="8.6567835"><ele>150.0</ele><time>2026-04-12T17:00:13.305Z</time></trkpt><trkpt lat="45.4688446" lon="8.6563558"><ele>150.0</ele><time>2026-04-12T17:00:14.309Z</time></trkpt><trkpt lat="45.4688533" lon="8.655924"><ele>150.0</ele><time>2026-04-12T17:00:15.312Z</time></trkpt><trkpt lat="45.4688632" lon="8.6554898"><ele>150.0</ele><time>2026-04-12T17:00:16.303Z</time></trkpt><trkpt lat="45.4688712" lon="8.6550559"><ele>149.5</ele><time>2026-04-12T17:00:17.321Z</time></trkpt><trkpt lat="45.4688745" lon="8.6546235"><ele>149.0</ele><time>2026-04-12T17:00:18.312Z</time></trkpt><trkpt lat="45.4688771" lon="8.6541879"><ele>148.5</ele><time>2026-04-12T17:00:19.312Z</time></trkpt><trkpt lat="45.468873" lon="8.6537578"><ele>148.0</ele><time>2026-04-12T17:00:20.321Z</time></trkpt><trkpt lat="45.4688697" lon="8.6533241"><ele>150.0</ele><time>2026-04-12T17:00:21.304Z</time></trkpt><trkpt lat="45.4688701" lon="8.6528908"><ele>152.0</ele><time>2026-04-12T17:00:22.307Z</time></trkpt><trkpt lat="45.4688728" lon="8.6524557"><ele>152.5</ele><time>2026-04-12T17:00:23.323Z</time></trkpt><trkpt lat="45.4688767" lon="8.6520232"><ele>153.0</ele><time>2026-04-12T17:00:24.323Z</time></trkpt><trkpt lat="45.4688848" lon="8.6515968"><ele>151.5</ele><time>2026-04-12T17:00:25.303Z</time></trkpt><trkpt lat="45.4688913" lon="8.6511753"><ele>150.0</ele><time>2026-04-12T17:00:26.333Z</time></trkpt><trkpt lat="45.4689004" lon="8.6507517"><ele>149.0</ele><time>2026-04-12T17:00:27.302Z</time></trkpt><trkpt lat="45.4689089" lon="8.6503262"><ele>148.0</ele><time>2026-04-12T17:00:28.313Z</time></trkpt><trkpt lat="45.468917" lon="8.6498983"><ele>150.0</ele><time>2026-04-12T17:00:29.311Z</time></trkpt><trkpt lat="45.468924" lon="8.6494703"><ele>152.0</ele><time>2026-04-12T17:00:30.305Z</time></trkpt><trkpt lat="45.4689327" lon="8.6490399"><ele>151.5</ele><time>2026-04-12T17:00:31.312Z</time></trkpt><trkpt lat="45.4689411" lon="8.648609"><ele>151.0</ele><time>2026-04-12T17:00:32.31Z</time></trkpt><trkpt lat="45.4689526" lon="8.6481765"><ele>151.5</ele><time>2026-04-12T17:00:33.322Z</time></trkpt><trkpt lat="45.4689682" lon="8.6477438"><ele>152.0</ele><time>2026-04-12T17:00:34.305Z</time></trkpt><trkpt lat="45.4689834" lon="8.647308"><ele>153.0</ele><time>2026-04-12T17:00:35.309Z</time></trkpt><trkpt lat="45.4689961" lon="8.6468705"><ele>154.0</ele><time>2026-04-12T17:00:36.32Z</time></trkpt><trkpt lat="45.4690056" lon="8.64643"><ele>154.0</ele><time>2026-04-12T17:00:37.302Z</time></trkpt><trkpt lat="45.4690118" lon="8.645987"><ele>154.0</ele><time>2026-04-12T17:00:38.324Z</time></trkpt><trkpt lat="45.4690163" lon="8.6455407"><ele>153.5</ele><time>2026-04-12T17:00:39.311Z</time></trkpt><trkpt lat="45.4690185" lon="8.6450889"><ele>153.0</ele><time>2026-04-12T17:00:40.326Z</time></trkpt><trkpt lat="45.4690187" lon="8.6446347"><ele>153.0</ele><time>2026-04-12T17:00:41.313Z</time></trkpt><trkpt lat="45.4690196" lon="8.6441833"><ele>153.0</ele><time>2026-04-12T17:00:42.315Z</time></trkpt><trkpt lat="45.4690238" lon="8.6437345"><ele>152.0</ele><time>2026-04-12T17:00:43.312Z</time></trkpt><trkpt lat="45.4690269" lon="8.6432895"><ele>151.0</ele><time>2026-04-12T17:00:44.314Z</time></trkpt><trkpt lat="45.4690313" lon="8.6428497"><ele>150.5</ele><time>2026-04-12T17:00:45.312Z</time></trkpt><trkpt lat="45.4690366" lon="8.6424108"><ele>150.0</ele><time>2026-04-12T17:00:46.331Z</time></trkpt><trkpt lat="45.4690427" lon="8.6419722"><ele>149.5</ele><time>2026-04-12T17:00:47.3Z</time></trkpt><trkpt lat="45.469051" lon="8.6415348"><ele>149.0</ele><time>2026-04-12T17:00:48.312Z</time></trkpt><trkpt lat="45.4690611" lon="8.6410994"><ele>149.0</ele><time>2026-04-12T17:00:49.321Z</time></trkpt><trkpt lat="45.4690721" lon="8.6406648"><ele>149.0</ele><time>2026-04-12T17:00:50.324Z</time></trkpt><trkpt lat="45.4690819" lon="8.6402297"><ele>150.0</ele><time>2026-04-12T17:00:51.326Z</time></trkpt><trkpt lat="45.4690911" lon="8.6397942"><ele>151.0</ele><time>2026-04-12T17:00:52.312Z</time></trkpt><trkpt lat="45.4690997" lon="8.6393593"><ele>151.5</ele><time>2026-04-12T17:00:53.312Z</time></trkpt><trkpt lat="45.469105" lon="8.6389248"><ele>152.0</ele><time>2026-04-12T17:00:54.312Z</time></trkpt><trkpt lat="45.4691082" lon="8.6384922"><ele>152.5</ele><time>2026-04-12T17:00:55.302Z</time></trkpt><trkpt lat="45.4691109" lon="8.6380598"><ele>153.0</ele><time>2026-04-12T17:00:56.315Z</time></trkpt><trkpt lat="45.4691151" lon="8.6376264"><ele>153.0</ele><time>2026-04-12T17:00:57.312Z</time></trkpt><trkpt lat="45.4691213" lon="8.6371906"><ele>153.0</ele><time>2026-04-12T17:00:58.324Z</time></trkpt><trkpt lat="45.4691272" lon="8.6367537"><ele>152.0</ele><time>2026-04-12T17:00:59.316Z</time></trkpt><trkpt lat="45.4691336" lon="8.6363181"><ele>151.0</ele><time>2026-04-12T17:01:00.315Z</time></trkpt><trkpt lat="45.4691402" lon="8.6358819"><ele>151.0</ele><time>2026-04-12T17:01:01.312Z</time></trkpt><trkpt lat="45.4691483" lon="8.6354463"><ele>151.0</ele><time>2026-04-12T17:01:02.307Z</time></trkpt><trkpt lat="45.4691562" lon="8.6350127"><ele>150.5</ele><time>2026-04-12T17:01:03.31Z</time></trkpt><trkpt lat="45.4691637" lon="8.6345774"><ele>150.0</ele><time>2026-04-12T17:01:04.31Z</time></trkpt><trkpt lat="45.4691728" lon="8.6341443"><ele>150.5</ele><time>2026-04-12T17:01:05.302Z</time></trkpt><trkpt lat="45.4691826" lon="8.6337123"><ele>151.0</ele><time>2026-04-12T17:01:06.298Z</time></trkpt><trkpt lat="45.4691933" lon="8.6332795"><ele>151.0</ele><time>2026-04-12T17:01:07.324Z</time></trkpt><trkpt lat="45.4692054" lon="8.6328477"><ele>151.0</ele><time>2026-04-12T17:01:08.323Z</time></trkpt><trkpt lat="45.4692218" lon="8.6324158"><ele>151.0</ele><time>2026-04-12T17:01:09.306Z</time></trkpt><trkpt lat="45.4692403" lon="8.6319824"><ele>151.0</ele><time>2026-04-12T17:01:10.323Z</time></trkpt><trkpt lat="45.4692597" lon="8.6315516"><ele>151.5</ele><time>2026-04-12T17:01:11.311Z</time></trkpt><trkpt lat="45.4692834" lon="8.6311263"><ele>152.0</ele><time>2026-04-12T17:01:12.326Z</time></trkpt><trkpt lat="45.4693128" lon="8.6307022"><ele>153.0</ele><time>2026-04-12T17:01:13.311Z</time></trkpt><trkpt lat="45.4693465" lon="8.630279"><ele>154.0</ele><time>2026-04-12T17:01:14.313Z</time></trkpt><trkpt lat="45.4693819" lon="8.6298547"><ele>153.5</ele><time>2026-04-12T17:01:15.312Z</time></trkpt><trkpt lat="45.4694182" lon="8.6294302"><ele>153.0</ele><time>2026-04-12T17:01:16.312Z</time></trkpt><trkpt lat="45.4694526" lon="8.6290054"><ele>153.5</ele><time>2026-04-12T17:01:17.312Z</time></trkpt><trkpt lat="45.4694832" lon="8.6285782"><ele>154.0</ele><time>2026-04-12T17:01:18.324Z</time></trkpt><trkpt lat="45.4695131" lon="8.6281504"><ele>154.0</ele><time>2026-04-12T17:01:19.308Z</time></trkpt><trkpt lat="45.4695436" lon="8.62772"><ele>154.0</ele><time>2026-04-12T17:01:20.312Z</time></trkpt><trkpt lat="45.4695779" lon="8.6272903"><ele>154.0</ele><time>2026-04-12T17:01:21.326Z</time></trkpt><trkpt lat="45.4696163" lon="8.6268594"><ele>154.0</ele><time>2026-04-12T17:01:22.311Z</time></trkpt><trkpt lat="45.4696585" lon="8.6264278"><ele>155.5</ele><time>2026-04-12T17:01:23.326Z</time></trkpt><trkpt lat="45.4697003" lon="8.6259938"><ele>157.0</ele><time>2026-04-12T17:01:24.313Z</time></trkpt><trkpt lat="45.4697411" lon="8.6255584"><ele>157.0</ele><time>2026-04-12T17:01:25.301Z</time></trkpt><trkpt lat="45.4697824" lon="8.625125"><ele>157.0</ele><time>2026-04-12T17:01:26.312Z</time></trkpt><trkpt lat="45.4698236" lon="8.6246953"><ele>156.5</ele><time>2026-04-12T17:01:27.302Z</time></trkpt><trkpt lat="45.4698638" lon="8.6242678"><ele>156.0</ele><time>2026-04-12T17:01:28.328Z</time></trkpt><trkpt lat="45.4699076" lon="8.6238431"><ele>155.0</ele><time>2026-04-12T17:01:29.308Z</time></trkpt><trkpt lat="45.469954" lon="8.6234189"><ele>154.0</ele><time>2026-04-12T17:01:30.32Z</time></trkpt><trkpt lat="45.4700018" lon="8.6229922"><ele>154.0</ele><time>2026-04-12T17:01:31.325Z</time></trkpt><trkpt lat="45.4700512" lon="8.622565"><ele>154.0</ele><time>2026-04-12T17:01:32.309Z</time></trkpt><trkpt lat="45.470103" lon="8.6221391"><ele>154.0</ele><time>2026-04-12T17:01:33.302Z</time></trkpt><trkpt lat="45.4701581" lon="8.6217146"><ele>154.0</ele><time>2026-04-12T17:01:34.302Z</time></trkpt><trkpt lat="45.4702124" lon="8.6212918"><ele>155.0</ele><time>2026-04-12T17:01:35.31Z</time></trkpt><trkpt lat="45.4702663" lon="8.6208682"><ele>156.0</ele><time>2026-04-12T17:01:36.313Z</time></trkpt><trkpt lat="45.4703191" lon="8.620454"><ele>155.0</ele><time>2026-04-12T17:01:37.323Z</time></trkpt><trkpt lat="45.4703746" lon="8.6200332"><ele>154.0</ele><time>2026-04-12T17:01:38.312Z</time></trkpt><trkpt lat="45.4704326" lon="8.6196131"><ele>155.0</ele><time>2026-04-12T17:01:39.311Z</time></trkpt><trkpt lat="45.4704941" lon="8.6191972"><ele>156.0</ele><time>2026-04-12T17:01:40.313Z</time></trkpt><trkpt lat="45.470558" lon="8.6187828"><ele>157.0</ele><time>2026-04-12T17:01:41.308Z</time></trkpt><trkpt lat="45.4706225" lon="8.6183673"><ele>158.0</ele><time>2026-04-12T17:01:42.328Z</time></trkpt><trkpt lat="45.470687" lon="8.6179505"><ele>159.0</ele><time>2026-04-12T17:01:43.313Z</time></trkpt><trkpt lat="45.4707512" lon="8.6175319"><ele>160.0</ele><time>2026-04-12T17:01:44.312Z</time></trkpt><trkpt lat="45.4708137" lon="8.6171101"><ele>159.0</ele><time>2026-04-12T17:01:45.323Z</time></trkpt><trkpt lat="45.4708784" lon="8.6166875"><ele>158.0</ele><time>2026-04-12T17:01:46.313Z</time></trkpt><trkpt lat="45.4709437" lon="8.6162645"><ele>158.5</ele><time>2026-04-12T17:01:47.32Z</time></trkpt><trkpt lat="45.4710095" lon="8.6158394"><ele>159.0</ele><time>2026-04-12T17:01:48.311Z</time></trkpt><trkpt lat="45.4710735" lon="8.6154111"><ele>158.0</ele><time>2026-04-12T17:01:49.324Z</time></trkpt><trkpt lat="45.4711375" lon="8.6149797"><ele>157.0</ele><time>2026-04-12T17:01:50.312Z</time></trkpt><trkpt lat="45.4712029" lon="8.6145465"><ele>156.5</ele><time>2026-04-12T17:01:51.3Z</time></trkpt><trkpt lat="45.4712689" lon="8.6141091"><ele>156.0</ele><time>2026-04-12T17:01:52.316Z</time></trkpt><trkpt lat="45.4713377" lon="8.6136701"><ele>156.0</ele><time>2026-04-12T17:01:53.313Z</time></trkpt><trkpt lat="45.4714062" lon="8.6132284"><ele>156.0</ele><time>2026-04-12T17:01:54.328Z</time></trkpt><trkpt lat="45.4714773" lon="8.6127849"><ele>156.0</ele><time>2026-04-12T17:01:55.307Z</time></trkpt><trkpt lat="45.4715455" lon="8.6123382"><ele>156.0</ele><time>2026-04-12T17:01:56.299Z</time></trkpt><trkpt lat="45.4716133" lon="8.6118913"><ele>156.0</ele><time>2026-04-12T17:01:57.324Z</time></trkpt><trkpt lat="45.4716807" lon="8.6114487"><ele>156.0</ele><time>2026-04-12T17:01:58.298Z</time></trkpt><trkpt lat="45.4717459" lon="8.6110124"><ele>155.0</ele><time>2026-04-12T17:01:59.323Z</time></trkpt><trkpt lat="45.4718126" lon="8.6105817"><ele>154.0</ele><time>2026-04-12T17:02:00.299Z</time></trkpt><trkpt lat="45.4718784" lon="8.6101538"><ele>153.0</ele><time>2026-04-12T17:02:01.309Z</time></trkpt><trkpt lat="45.4719428" lon="8.6097286"><ele>152.0</ele><time>2026-04-12T17:02:02.317Z</time></trkpt><trkpt lat="45.4720071" lon="8.6093083"><ele>152.0</ele><time>2026-04-12T17:02:03.311Z</time></trkpt><trkpt lat="45.4720708" lon="8.608892"><ele>152.0</ele><time>2026-04-12T17:02:04.318Z</time></trkpt><trkpt lat="45.4721351" lon="8.6084734"><ele>154.5</ele><time>2026-04-12T17:02:05.316Z</time></trkpt><trkpt lat="45.472199" lon="8.6080531"><ele>157.0</ele><time>2026-04-12T17:02:06.327Z</time></trkpt><trkpt lat="45.4722637" lon="8.6076325"><ele>157.0</ele><time>2026-04-12T17:02:07.302Z</time></trkpt><trkpt lat="45.4723278" lon="8.6072089"><ele>157.0</ele><time>2026-04-12T17:02:08.307Z</time></trkpt><trkpt lat="45.4723907" lon="8.6067807"><ele>157.0</ele><time>2026-04-12T17:02:09.31Z</time></trkpt><trkpt lat="45.472454" lon="8.6063514"><ele>157.0</ele><time>2026-04-12T17:02:10.317Z</time></trkpt><trkpt lat="45.4725194" lon="8.6059232"><ele>157.0</ele><time>2026-04-12T17:02:11.308Z</time></trkpt><trkpt lat="45.4725846" lon="8.6054921"><ele>157.0</ele><time>2026-04-12T17:02:12.313Z</time></trkpt><trkpt lat="45.4726501" lon="8.6050603"><ele>157.0</ele><time>2026-04-12T17:02:13.319Z</time></trkpt><trkpt lat="45.4727161" lon="8.6046291"><ele>157.0</ele><time>2026-04-12T17:02:14.324Z</time></trkpt><trkpt lat="45.4727844" lon="8.6041986"><ele>156.5</ele><time>2026-04-12T17:02:15.325Z</time></trkpt><trkpt lat="45.4728531" lon="8.6037684"><ele>156.0</ele><time>2026-04-12T17:02:16.31Z</time></trkpt><trkpt lat="45.4729215" lon="8.60334"><ele>156.0</ele><time>2026-04-12T17:02:17.314Z</time></trkpt><trkpt lat="45.4729915" lon="8.6029101"><ele>156.0</ele><time>2026-04-12T17:02:18.311Z</time></trkpt><trkpt lat="45.4730601" lon="8.6024783"><ele>155.5</ele><time>2026-04-12T17:02:19.3Z</time></trkpt><trkpt lat="45.4731298" lon="8.6020456"><ele>155.0</ele><time>2026-04-12T17:02:20.324Z</time></trkpt><trkpt lat="45.4732002" lon="8.6016119"><ele>155.0</ele><time>2026-04-12T17:02:21.314Z</time></trkpt><trkpt lat="45.4732723" lon="8.6011781"><ele>155.0</ele><time>2026-04-12T17:02:22.312Z</time></trkpt><trkpt lat="45.4733459" lon="8.6007422"><ele>157.0</ele><time>2026-04-12T17:02:23.321Z</time></trkpt><trkpt lat="45.4734166" lon="8.6003049"><ele>159.0</ele><time>2026-04-12T17:02:24.309Z</time></trkpt><trkpt lat="45.4734856" lon="8.5998693"><ele>158.0</ele><time>2026-04-12T17:02:25.326Z</time></trkpt><trkpt lat="45.4735535" lon="8.5994412"><ele>157.0</ele><time>2026-04-12T17:02:26.324Z</time></trkpt><trkpt lat="45.4736205" lon="8.5990139"><ele>156.5</ele><time>2026-04-12T17:02:27.314Z</time></trkpt><trkpt lat="45.4736871" lon="8.5985876"><ele>156.0</ele><time>2026-04-12T17:02:28.307Z</time></trkpt><trkpt lat="45.4737565" lon="8.5981621"><ele>155.5</ele><time>2026-04-12T17:02:29.313Z</time></trkpt><trkpt lat="45.4738269" lon="8.5977402"><ele>155.0</ele><time>2026-04-12T17:02:30.31Z</time></trkpt><trkpt lat="45.4738939" lon="8.5973209"><ele>155.0</ele><time>2026-04-12T17:02:31.324Z</time></trkpt><trkpt lat="45.4739595" lon="8.5969006"><ele>155.0</ele><time>2026-04-12T17:02:32.308Z</time></trkpt><trkpt lat="45.4740234" lon="8.5964826"><ele>155.5</ele><time>2026-04-12T17:02:33.318Z</time></trkpt><trkpt lat="45.4740829" lon="8.5960652"><ele>156.0</ele><time>2026-04-12T17:02:34.301Z</time></trkpt><trkpt lat="45.4741415" lon="8.5956489"><ele>155.5</ele><time>2026-04-12T17:02:35.305Z</time></trkpt><trkpt lat="45.4741992" lon="8.5952322"><ele>155.0</ele><time>2026-04-12T17:02:36.318Z</time></trkpt><trkpt lat="45.4742568" lon="8.5948223"><ele>155.0</ele><time>2026-04-12T17:02:37.311Z</time></trkpt><trkpt lat="45.4743121" lon="8.5944056"><ele>155.0</ele><time>2026-04-12T17:02:38.326Z</time></trkpt><trkpt lat="45.4743651" lon="8.5939866"><ele>156.0</ele><time>2026-04-12T17:02:39.304Z</time></trkpt><trkpt lat="45.4744172" lon="8.5935679"><ele>157.0</ele><time>2026-04-12T17:02:40.321Z</time></trkpt><trkpt lat="45.4744662" lon="8.5931495"><ele>158.0</ele><time>2026-04-12T17:02:41.328Z</time></trkpt><trkpt lat="45.4745126" lon="8.5927301"><ele>159.0</ele><time>2026-04-12T17:02:42.301Z</time></trkpt><trkpt lat="45.4745586" lon="8.59231"><ele>159.5</ele><time>2026-04-12T17:02:43.304Z</time></trkpt><trkpt lat="45.4746036" lon="8.5918884"><ele>160.0</ele><time>2026-04-12T17:02:44.311Z</time></trkpt><trkpt lat="45.4746459" lon="8.5914656"><ele>159.5</ele><time>2026-04-12T17:02:45.326Z</time></trkpt><trkpt lat="45.4746863" lon="8.5910413"><ele>159.0</ele><time>2026-04-12T17:02:46.305Z</time></trkpt><trkpt lat="45.4747249" lon="8.5906149"><ele>160.5</ele><time>2026-04-12T17:02:47.298Z</time></trkpt><trkpt lat="45.4747612" lon="8.5901874"><ele>162.0</ele><time>2026-04-12T17:02:48.312Z</time></trkpt><trkpt lat="45.4747951" lon="8.5897596"><ele>163.0</ele><time>2026-04-12T17:02:49.324Z</time></trkpt><trkpt lat="45.4748264" lon="8.5893321"><ele>164.0</ele><time>2026-04-12T17:02:50.316Z</time></trkpt><trkpt lat="45.4748573" lon="8.5889038"><ele>163.0</ele><time>2026-04-12T17:02:51.331Z</time></trkpt><trkpt lat="45.4748872" lon="8.5884744"><ele>162.0</ele><time>2026-04-12T17:02:52.323Z</time></trkpt><trkpt lat="45.4749144" lon="8.5880444"><ele>161.0</ele><time>2026-04-12T17:02:53.313Z</time></trkpt><trkpt lat="45.4749389" lon="8.5876134"><ele>160.0</ele><time>2026-04-12T17:02:54.307Z</time></trkpt><trkpt lat="45.4749593" lon="8.5871819"><ele>158.5</ele><time>2026-04-12T17:02:55.304Z</time></trkpt><trkpt lat="45.4749754" lon="8.58675"><ele>157.0</ele><time>2026-04-12T17:02:56.312Z</time></trkpt><trkpt lat="45.4749914" lon="8.586318"><ele>158.0</ele><time>2026-04-12T17:02:57.312Z</time></trkpt><trkpt lat="45.4750067" lon="8.5858861"><ele>159.0</ele><time>2026-04-12T17:02:58.327Z</time></trkpt><trkpt lat="45.4750234" lon="8.5854553"><ele>160.0</ele><time>2026-04-12T17:02:59.306Z</time></trkpt><trkpt lat="45.4750396" lon="8.5850258"><ele>161.0</ele><time>2026-04-12T17:03:00.308Z</time></trkpt><trkpt lat="45.4750535" lon="8.5845994"><ele>160.5</ele><time>2026-04-12T17:03:01.312Z</time></trkpt><trkpt lat="45.4750635" lon="8.584174"><ele>160.0</ele><time>2026-04-12T17:03:02.31Z</time></trkpt><trkpt lat="45.4750685" lon="8.5837491"><ele>160.0</ele><time>2026-04-12T17:03:03.314Z</time></trkpt><trkpt lat="45.4750695" lon="8.5833266"><ele>160.0</ele><time>2026-04-12T17:03:04.307Z</time></trkpt><trkpt lat="45.4750684" lon="8.5829049"><ele>160.0</ele><time>2026-04-12T17:03:05.32Z</time></trkpt><trkpt lat="45.4750667" lon="8.5824812"><ele>160.0</ele><time>2026-04-12T17:03:06.303Z</time></trkpt><trkpt lat="45.4750644" lon="8.582055"><ele>160.0</ele><time>2026-04-12T17:03:07.326Z</time></trkpt><trkpt lat="45.4750613" lon="8.5816287"><ele>160.0</ele><time>2026-04-12T17:03:08.309Z</time></trkpt><trkpt lat="45.4750559" lon="8.5812004"><ele>159.5</ele><time>2026-04-12T17:03:09.321Z</time></trkpt><trkpt lat="45.4750475" lon="8.5807695"><ele>159.0</ele><time>2026-04-12T17:03:10.319Z</time></trkpt><trkpt lat="45.475038" lon="8.5803397"><ele>160.0</ele><time>2026-04-12T17:03:11.323Z</time></trkpt><trkpt lat="45.4750263" lon="8.5799084"><ele>161.0</ele><time>2026-04-12T17:03:12.312Z</time></trkpt><trkpt lat="45.4750126" lon="8.5794787"><ele>159.0</ele><time>2026-04-12T17:03:13.309Z</time></trkpt><trkpt lat="45.4749994" lon="8.579049"><ele>157.0</ele><time>2026-04-12T17:03:14.306Z</time></trkpt><trkpt lat="45.4749856" lon="8.57862"><ele>157.0</ele><time>2026-04-12T17:03:15.31Z</time></trkpt><trkpt lat="45.4749708" lon="8.5781915"><ele>157.0</ele><time>2026-04-12T17:03:16.328Z</time></trkpt><trkpt lat="45.4749541" lon="8.5777637"><ele>157.0</ele><time>2026-04-12T17:03:17.313Z</time></trkpt><trkpt lat="45.4749362" lon="8.5773363"><ele>157.0</ele><time>2026-04-12T17:03:18.32Z</time></trkpt><trkpt lat="45.4749159" lon="8.5769084"><ele>156.5</ele><time>2026-04-12T17:03:19.32Z</time></trkpt><trkpt lat="45.4748948" lon="8.576479"><ele>156.0</ele><time>2026-04-12T17:03:20.307Z</time></trkpt><trkpt lat="45.4748723" lon="8.5760491"><ele>156.0</ele><time>2026-04-12T17:03:21.315Z</time></trkpt><trkpt lat="45.4748494" lon="8.5756189"><ele>156.0</ele><time>2026-04-12T17:03:22.327Z</time></trkpt><trkpt lat="45.4748265" lon="8.5751872"><ele>156.0</ele><time>2026-04-12T17:03:23.322Z</time></trkpt><trkpt lat="45.4748016" lon="8.5747561"><ele>156.0</ele><time>2026-04-12T17:03:24.31Z</time></trkpt><trkpt lat="45.4747755" lon="8.5743308"><ele>156.0</ele><time>2026-04-12T17:03:25.323Z</time></trkpt><trkpt lat="45.4747507" lon="8.5739174"><ele>156.0</ele><time>2026-04-12T17:03:26.331Z</time></trkpt><trkpt lat="45.4747279" lon="8.5735196"><ele>156.0</ele><time>2026-04-12T17:03:27.327Z</time></trkpt><trkpt lat="45.4747079" lon="8.5731328"><ele>156.0</ele><time>2026-04-12T17:03:28.311Z</time></trkpt><trkpt lat="45.4746904" lon="8.5727539"><ele>156.0</ele><time>2026-04-12T17:03:29.311Z</time></trkpt><trkpt lat="45.4746724" lon="8.5723777"><ele>156.0</ele><time>2026-04-12T17:03:30.311Z</time></trkpt><trkpt lat="45.4746516" lon="8.5720047"><ele>157.0</ele><time>2026-04-12T17:03:31.312Z</time></trkpt><trkpt lat="45.4746303" lon="8.5716294"><ele>158.0</ele><time>2026-04-12T17:03:32.326Z</time></trkpt><trkpt lat="45.4746058" lon="8.5712471"><ele>157.5</ele><time>2026-04-12T17:03:33.314Z</time></trkpt><trkpt lat="45.4745782" lon="8.5708549"><ele>157.0</ele><time>2026-04-12T17:03:34.32Z</time></trkpt><trkpt lat="45.4745484" lon="8.5704558"><ele>157.5</ele><time>2026-04-12T17:03:35.31Z</time></trkpt><trkpt lat="45.4745179" lon="8.5700485"><ele>158.0</ele><time>2026-04-12T17:03:36.316Z</time></trkpt><trkpt lat="45.4744872" lon="8.5696351"><ele>158.0</ele><time>2026-04-12T17:03:37.311Z</time></trkpt><trkpt lat="45.4744552" lon="8.5692182"><ele>158.0</ele><time>2026-04-12T17:03:38.305Z</time></trkpt><trkpt lat="45.4744211" lon="8.5688001"><ele>158.5</ele><time>2026-04-12T17:03:39.306Z</time></trkpt><trkpt lat="45.4743857" lon="8.5683801"><ele>159.0</ele><time>2026-04-12T17:03:40.313Z</time></trkpt><trkpt lat="45.4743491" lon="8.5679588"><ele>159.5</ele><time>2026-04-12T17:03:41.329Z</time></trkpt><trkpt lat="45.4743102" lon="8.5675382"><ele>160.0</ele><time>2026-04-12T17:03:42.312Z</time></trkpt><trkpt lat="45.4742688" lon="8.5671192"><ele>159.5</ele><time>2026-04-12T17:03:43.326Z</time></trkpt><trkpt lat="45.4742246" lon="8.5667002"><ele>159.0</ele><time>2026-04-12T17:03:44.308Z</time></trkpt><trkpt lat="45.4741822" lon="8.5662811"><ele>158.0</ele><time>2026-04-12T17:03:45.311Z</time></trkpt><trkpt lat="45.4741426" lon="8.5658601"><ele>157.0</ele><time>2026-04-12T17:03:46.324Z</time></trkpt><trkpt lat="45.4741047" lon="8.5654394"><ele>157.0</ele><time>2026-04-12T17:03:47.319Z</time></trkpt><trkpt lat="45.4740663" lon="8.5650179"><ele>157.0</ele><time>2026-04-12T17:03:48.33Z</time></trkpt><trkpt lat="45.4740284" lon="8.564597"><ele>157.5</ele><time>2026-04-12T17:03:49.31Z</time></trkpt><trkpt lat="45.4739891" lon="8.5641766"><ele>158.0</ele><time>2026-04-12T17:03:50.313Z</time></trkpt><trkpt lat="45.4739503" lon="8.5637544"><ele>157.5</ele><time>2026-04-12T17:03:51.31Z</time></trkpt><trkpt lat="45.4739123" lon="8.5633316"><ele>157.0</ele><time>2026-04-12T17:03:52.322Z</time></trkpt><trkpt lat="45.4738756" lon="8.5629087"><ele>156.5</ele><time>2026-04-12T17:03:53.299Z</time></trkpt><trkpt lat="45.4738394" lon="8.5624838"><ele>156.0</ele><time>2026-04-12T17:03:54.321Z</time></trkpt><trkpt lat="45.4738024" lon="8.5620574"><ele>156.5</ele><time>2026-04-12T17:03:55.307Z</time></trkpt><trkpt lat="45.4737675" lon="8.5616267"><ele>157.0</ele><time>2026-04-12T17:03:56.311Z</time></trkpt><trkpt lat="45.4737334" lon="8.5611942"><ele>157.0</ele><time>2026-04-12T17:03:57.308Z</time></trkpt><trkpt lat="45.4736997" lon="8.5607591"><ele>157.0</ele><time>2026-04-12T17:03:58.31Z</time></trkpt><trkpt lat="45.4736669" lon="8.5603218"><ele>157.0</ele><time>2026-04-12T17:03:59.311Z</time></trkpt><trkpt lat="45.4736334" lon="8.5598862"><ele>157.0</ele><time>2026-04-12T17:04:00.32Z</time></trkpt><trkpt lat="45.4735945" lon="8.5594466"><ele>157.0</ele><time>2026-04-12T17:04:01.312Z</time></trkpt><trkpt lat="45.4735556" lon="8.5590045"><ele>157.0</ele><time>2026-04-12T17:04:02.316Z</time></trkpt><trkpt lat="45.4735153" lon="8.5585609"><ele>157.0</ele><time>2026-04-12T17:04:03.316Z</time></trkpt><trkpt lat="45.4734754" lon="8.5581168"><ele>157.0</ele><time>2026-04-12T17:04:04.311Z</time></trkpt><trkpt lat="45.4734357" lon="8.557675"><ele>157.0</ele><time>2026-04-12T17:04:05.318Z</time></trkpt><trkpt lat="45.4733959" lon="8.5572338"><ele>157.0</ele><time>2026-04-12T17:04:06.304Z</time></trkpt><trkpt lat="45.4733556" lon="8.5567936"><ele>157.5</ele><time>2026-04-12T17:04:07.324Z</time></trkpt><trkpt lat="45.473321" lon="8.5563559"><ele>158.0</ele><time>2026-04-12T17:04:08.31Z</time></trkpt><trkpt lat="45.4732845" lon="8.5559158"><ele>158.5</ele><time>2026-04-12T17:04:09.311Z</time></trkpt><trkpt lat="45.4732508" lon="8.5554761"><ele>159.0</ele><time>2026-04-12T17:04:10.311Z</time></trkpt><trkpt lat="45.4732193" lon="8.5550358"><ele>160.0</ele><time>2026-04-12T17:04:11.325Z</time></trkpt><trkpt lat="45.4731872" lon="8.5545977"><ele>161.0</ele><time>2026-04-12T17:04:12.33Z</time></trkpt><trkpt lat="45.4731545" lon="8.5541599"><ele>159.0</ele><time>2026-04-12T17:04:13.321Z</time></trkpt><trkpt lat="45.4731218" lon="8.5537212"><ele>157.0</ele><time>2026-04-12T17:04:14.313Z</time></trkpt><trkpt lat="45.4730872" lon="8.5532828"><ele>157.0</ele><time>2026-04-12T17:04:15.314Z</time></trkpt><trkpt lat="45.4730518" lon="8.5528453"><ele>157.0</ele><time>2026-04-12T17:04:16.307Z</time></trkpt><trkpt lat="45.4730127" lon="8.5524133"><ele>158.5</ele><time>2026-04-12T17:04:17.312Z</time></trkpt><trkpt lat="45.4729759" lon="8.551976"><ele>160.0</ele><time>2026-04-12T17:04:18.312Z</time></trkpt><trkpt lat="45.4729394" lon="8.551539"><ele>158.5</ele><time>2026-04-12T17:04:19.31Z</time></trkpt><trkpt lat="45.4729028" lon="8.5511016"><ele>157.0</ele><time>2026-04-12T17:04:20.327Z</time></trkpt><trkpt lat="45.4728679" lon="8.5506634"><ele>157.5</ele><time>2026-04-12T17:04:21.313Z</time></trkpt><trkpt lat="45.472835" lon="8.5502234"><ele>158.0</ele><time>2026-04-12T17:04:22.322Z</time></trkpt><trkpt lat="45.4728038" lon="8.5497831"><ele>158.0</ele><time>2026-04-12T17:04:23.301Z</time></trkpt><trkpt lat="45.4727749" lon="8.5493425"><ele>158.0</ele><time>2026-04-12T17:04:24.309Z</time></trkpt><trkpt lat="45.4727464" lon="8.5489029"><ele>157.5</ele><time>2026-04-12T17:04:25.326Z</time></trkpt><trkpt lat="45.4727195" lon="8.5484632"><ele>157.0</ele><time>2026-04-12T17:04:26.309Z</time></trkpt><trkpt lat="45.4726947" lon="8.5480198"><ele>157.5</ele><time>2026-04-12T17:04:27.314Z</time></trkpt><trkpt lat="45.4726694" lon="8.5475737"><ele>158.0</ele><time>2026-04-12T17:04:28.301Z</time></trkpt><trkpt lat="45.4726424" lon="8.5471265"><ele>158.0</ele><time>2026-04-12T17:04:29.3Z</time></trkpt><trkpt lat="45.4726119" lon="8.5466788"><ele>158.0</ele><time>2026-04-12T17:04:30.301Z</time></trkpt><trkpt lat="45.4725791" lon="8.5462322"><ele>158.5</ele><time>2026-04-12T17:04:31.304Z</time></trkpt><trkpt lat="45.4725448" lon="8.5457897"><ele>159.0</ele><time>2026-04-12T17:04:32.311Z</time></trkpt><trkpt lat="45.4725114" lon="8.54535"><ele>159.0</ele><time>2026-04-12T17:04:33.325Z</time></trkpt><trkpt lat="45.4724791" lon="8.5449118"><ele>159.0</ele><time>2026-04-12T17:04:34.309Z</time></trkpt><trkpt lat="45.4724476" lon="8.5444756"><ele>159.0</ele><time>2026-04-12T17:04:35.311Z</time></trkpt><trkpt lat="45.4724159" lon="8.5440378"><ele>159.0</ele><time>2026-04-12T17:04:36.324Z</time></trkpt><trkpt lat="45.4723839" lon="8.5435993"><ele>158.5</ele><time>2026-04-12T17:04:37.326Z</time></trkpt><trkpt lat="45.4723523" lon="8.5431601"><ele>158.0</ele><time>2026-04-12T17:04:38.301Z</time></trkpt><trkpt lat="45.4723188" lon="8.5427204"><ele>158.0</ele><time>2026-04-12T17:04:39.32Z</time></trkpt><trkpt lat="45.4722837" lon="8.5422803"><ele>158.0</ele><time>2026-04-12T17:04:40.301Z</time></trkpt><trkpt lat="45.4722488" lon="8.5418401"><ele>158.0</ele><time>2026-04-12T17:04:41.331Z</time></trkpt><trkpt lat="45.4722156" lon="8.5413998"><ele>158.0</ele><time>2026-04-12T17:04:42.312Z</time></trkpt><trkpt lat="45.4721836" lon="8.5409614"><ele>159.0</ele><time>2026-04-12T17:04:43.304Z</time></trkpt><trkpt lat="45.4721519" lon="8.5405229"><ele>160.0</ele><time>2026-04-12T17:04:44.307Z</time></trkpt><trkpt lat="45.4721209" lon="8.5400836"><ele>159.5</ele><time>2026-04-12T17:04:45.312Z</time></trkpt><trkpt lat="45.4720896" lon="8.5396452"><ele>159.0</ele><time>2026-04-12T17:04:46.313Z</time></trkpt><trkpt lat="45.472057" lon="8.5392075"><ele>159.0</ele><time>2026-04-12T17:04:47.309Z</time></trkpt><trkpt lat="45.4720234" lon="8.5387704"><ele>159.0</ele><time>2026-04-12T17:04:48.312Z</time></trkpt><trkpt lat="45.4719891" lon="8.5383321"><ele>158.5</ele><time>2026-04-12T17:04:49.323Z</time></trkpt><trkpt lat="45.4719545" lon="8.5378917"><ele>158.0</ele><time>2026-04-12T17:04:50.306Z</time></trkpt><trkpt lat="45.4719199" lon="8.5374494"><ele>158.0</ele><time>2026-04-12T17:04:51.31Z</time></trkpt><trkpt lat="45.4718852" lon="8.5370041"><ele>158.0</ele><time>2026-04-12T17:04:52.314Z</time></trkpt><trkpt lat="45.4718499" lon="8.5365582"><ele>159.0</ele><time>2026-04-12T17:04:53.308Z</time></trkpt><trkpt lat="45.4718136" lon="8.5361124"><ele>160.0</ele><time>2026-04-12T17:04:54.311Z</time></trkpt><trkpt lat="45.4717779" lon="8.5356653"><ele>159.0</ele><time>2026-04-12T17:04:55.318Z</time></trkpt><trkpt lat="45.4717422" lon="8.5352162"><ele>158.0</ele><time>2026-04-12T17:04:56.304Z</time></trkpt><trkpt lat="45.4717079" lon="8.5347659"><ele>157.5</ele><time>2026-04-12T17:04:57.308Z</time></trkpt><trkpt lat="45.471675" lon="8.534314"><ele>157.0</ele><time>2026-04-12T17:04:58.312Z</time></trkpt><trkpt lat="45.4716452" lon="8.5338639"><ele>157.0</ele><time>2026-04-12T17:04:59.306Z</time></trkpt><trkpt lat="45.4716193" lon="8.5334161"><ele>157.0</ele><time>2026-04-12T17:05:00.31Z</time></trkpt><trkpt lat="45.4715957" lon="8.5329721"><ele>158.0</ele><time>2026-04-12T17:05:01.304Z</time></trkpt><trkpt lat="45.471572" lon="8.5325296"><ele>159.0</ele><time>2026-04-12T17:05:02.319Z</time></trkpt><trkpt lat="45.4715462" lon="8.5320892"><ele>159.0</ele><time>2026-04-12T17:05:03.307Z</time></trkpt><trkpt lat="45.4715175" lon="8.531647"><ele>159.0</ele><time>2026-04-12T17:05:04.326Z</time></trkpt><trkpt lat="45.4714857" lon="8.5312028"><ele>159.0</ele><time>2026-04-12T17:05:05.311Z</time></trkpt><trkpt lat="45.4714503" lon="8.5307579"><ele>159.0</ele><time>2026-04-12T17:05:06.3Z</time></trkpt><trkpt lat="45.4714159" lon="8.5303138"><ele>159.0</ele><time>2026-04-12T17:05:07.303Z</time></trkpt><trkpt lat="45.4713841" lon="8.5298703"><ele>159.0</ele><time>2026-04-12T17:05:08.312Z</time></trkpt><trkpt lat="45.4713535" lon="8.5294283"><ele>159.0</ele><time>2026-04-12T17:05:09.329Z</time></trkpt><trkpt lat="45.4713234" lon="8.5289867"><ele>159.0</ele><time>2026-04-12T17:05:10.312Z</time></trkpt><trkpt lat="45.4712918" lon="8.5285467"><ele>158.5</ele><time>2026-04-12T17:05:11.317Z</time></trkpt><trkpt lat="45.4712617" lon="8.5281066"><ele>158.0</ele><time>2026-04-12T17:05:12.311Z</time></trkpt><trkpt lat="45.4712301" lon="8.5276694"><ele>158.0</ele><time>2026-04-12T17:05:13.302Z</time></trkpt><trkpt lat="45.4711959" lon="8.5272337"><ele>158.0</ele><time>2026-04-12T17:05:14.311Z</time></trkpt><trkpt lat="45.4711629" lon="8.5267978"><ele>158.0</ele><time>2026-04-12T17:05:15.308Z</time></trkpt><trkpt lat="45.4711291" lon="8.5263622"><ele>158.0</ele><time>2026-04-12T17:05:16.329Z</time></trkpt><trkpt lat="45.4710971" lon="8.5259221"><ele>158.0</ele><time>2026-04-12T17:05:17.313Z</time></trkpt><trkpt lat="45.4710656" lon="8.5254809"><ele>158.0</ele><time>2026-04-12T17:05:18.313Z</time></trkpt><trkpt lat="45.4710319" lon="8.5250386"><ele>158.0</ele><time>2026-04-12T17:05:19.309Z</time></trkpt><trkpt lat="45.4710004" lon="8.5245938"><ele>158.0</ele><time>2026-04-12T17:05:20.316Z</time></trkpt><trkpt lat="45.4709687" lon="8.5241489"><ele>159.5</ele><time>2026-04-12T17:05:21.308Z</time></trkpt><trkpt lat="45.4709356" lon="8.5237031"><ele>161.0</ele><time>2026-04-12T17:05:22.314Z</time></trkpt><trkpt lat="45.4709026" lon="8.523257"><ele>161.0</ele><time>2026-04-12T17:05:23.313Z</time></trkpt><trkpt lat="45.4708683" lon="8.5228099"><ele>161.0</ele><time>2026-04-12T17:05:24.312Z</time></trkpt><trkpt lat="45.4708336" lon="8.5223616"><ele>161.0</ele><time>2026-04-12T17:05:25.304Z</time></trkpt><trkpt lat="45.4708001" lon="8.5219114"><ele>161.0</ele><time>2026-04-12T17:05:26.325Z</time></trkpt><trkpt lat="45.4707674" lon="8.5214613"><ele>160.5</ele><time>2026-04-12T17:05:27.31Z</time></trkpt><trkpt lat="45.4707345" lon="8.5210112"><ele>160.0</ele><time>2026-04-12T17:05:28.315Z</time></trkpt><trkpt lat="45.470702" lon="8.520562"><ele>159.0</ele><time>2026-04-12T17:05:29.312Z</time></trkpt><trkpt lat="45.4706689" lon="8.5201136"><ele>158.0</ele><time>2026-04-12T17:05:30.324Z</time></trkpt><trkpt lat="45.4706368" lon="8.5196657"><ele>158.5</ele><time>2026-04-12T17:05:31.342Z</time></trkpt><trkpt lat="45.4706049" lon="8.5192193"><ele>159.0</ele><time>2026-04-12T17:05:32.311Z</time></trkpt><trkpt lat="45.4705727" lon="8.5187741"><ele>159.0</ele><time>2026-04-12T17:05:33.31Z</time></trkpt><trkpt lat="45.4705409" lon="8.5183262"><ele>159.0</ele><time>2026-04-12T17:05:34.308Z</time></trkpt><trkpt lat="45.4705096" lon="8.5178761"><ele>158.5</ele><time>2026-04-12T17:05:35.315Z</time></trkpt><trkpt lat="45.4704764" lon="8.5174244"><ele>158.0</ele><time>2026-04-12T17:05:36.326Z</time></trkpt><trkpt lat="45.4704412" lon="8.5169719"><ele>158.5</ele><time>2026-04-12T17:05:37.312Z</time></trkpt><trkpt lat="45.4704055" lon="8.5165183"><ele>159.0</ele><time>2026-04-12T17:05:38.314Z</time></trkpt><trkpt lat="45.4703702" lon="8.5160635"><ele>159.0</ele><time>2026-04-12T17:05:39.301Z</time></trkpt><trkpt lat="45.4703362" lon="8.51561"><ele>159.0</ele><time>2026-04-12T17:05:40.314Z</time></trkpt><trkpt lat="45.4703021" lon="8.5151604"><ele>159.0</ele><time>2026-04-12T17:05:41.316Z</time></trkpt><trkpt lat="45.4702685" lon="8.5147148"><ele>159.0</ele><time>2026-04-12T17:05:42.312Z</time></trkpt><trkpt lat="45.4702333" lon="8.5142732"><ele>159.5</ele><time>2026-04-12T17:05:43.324Z</time></trkpt><trkpt lat="45.4702012" lon="8.5138313"><ele>160.0</ele><time>2026-04-12T17:05:44.31Z</time></trkpt><trkpt lat="45.4701708" lon="8.51339"><ele>160.0</ele><time>2026-04-12T17:05:45.328Z</time></trkpt><trkpt lat="45.470141" lon="8.5129493"><ele>160.0</ele><time>2026-04-12T17:05:46.323Z</time></trkpt><trkpt lat="45.4701114" lon="8.5125079"><ele>159.5</ele><time>2026-04-12T17:05:47.304Z</time></trkpt><trkpt lat="45.4700812" lon="8.512066"><ele>159.0</ele><time>2026-04-12T17:05:48.304Z</time></trkpt><trkpt lat="45.4700515" lon="8.5116228"><ele>159.0</ele><time>2026-04-12T17:05:49.309Z</time></trkpt><trkpt lat="45.47002" lon="8.5111788"><ele>159.0</ele><time>2026-04-12T17:05:50.31Z</time></trkpt><trkpt lat="45.4699863" lon="8.5107341"><ele>158.5</ele><time>2026-04-12T17:05:51.334Z</time></trkpt><trkpt lat="45.4699517" lon="8.5102883"><ele>158.0</ele><time>2026-04-12T17:05:52.314Z</time></trkpt><trkpt lat="45.4699185" lon="8.5098412"><ele>158.5</ele><time>2026-04-12T17:05:53.31Z</time></trkpt><trkpt lat="45.4698861" lon="8.5093921"><ele>159.0</ele><time>2026-04-12T17:05:54.313Z</time></trkpt><trkpt lat="45.4698525" lon="8.5089421"><ele>159.5</ele><time>2026-04-12T17:05:55.316Z</time></trkpt><trkpt lat="45.4698181" lon="8.5084909"><ele>160.0</ele><time>2026-04-12T17:05:56.326Z</time></trkpt><trkpt lat="45.4697828" lon="8.5080387"><ele>160.0</ele><time>2026-04-12T17:05:57.306Z</time></trkpt><trkpt lat="45.4697473" lon="8.5075864"><ele>160.0</ele><time>2026-04-12T17:05:58.321Z</time></trkpt><trkpt lat="45.4697125" lon="8.5071358"><ele>160.0</ele><time>2026-04-12T17:05:59.305Z</time></trkpt><trkpt lat="45.4696801" lon="8.5066871"><ele>160.0</ele><time>2026-04-12T17:06:00.306Z</time></trkpt><trkpt lat="45.4696486" lon="8.5062381"><ele>159.5</ele><time>2026-04-12T17:06:01.307Z</time></trkpt><trkpt lat="45.469617" lon="8.5057915"><ele>159.0</ele><time>2026-04-12T17:06:02.302Z</time></trkpt><trkpt lat="45.4695843" lon="8.5053468"><ele>158.5</ele><time>2026-04-12T17:06:03.307Z</time></trkpt><trkpt lat="45.4695513" lon="8.5049035"><ele>158.0</ele><time>2026-04-12T17:06:04.312Z</time></trkpt><trkpt lat="45.4695167" lon="8.5044609"><ele>157.5</ele><time>2026-04-12T17:06:05.311Z</time></trkpt><trkpt lat="45.4694799" lon="8.5040202"><ele>157.0</ele><time>2026-04-12T17:06:06.324Z</time></trkpt><trkpt lat="45.4694419" lon="8.5035793"><ele>158.0</ele><time>2026-04-12T17:06:07.31Z</time></trkpt><trkpt lat="45.4694038" lon="8.5031383"><ele>159.0</ele><time>2026-04-12T17:06:08.328Z</time></trkpt><trkpt lat="45.4693682" lon="8.502696"><ele>159.5</ele><time>2026-04-12T17:06:09.323Z</time></trkpt><trkpt lat="45.4693345" lon="8.502254"><ele>160.0</ele><time>2026-04-12T17:06:10.303Z</time></trkpt><trkpt lat="45.4693016" lon="8.5018109"><ele>160.0</ele><time>2026-04-12T17:06:11.325Z</time></trkpt><trkpt lat="45.4692691" lon="8.5013677"><ele>160.0</ele><time>2026-04-12T17:06:12.313Z</time></trkpt><trkpt lat="45.4692365" lon="8.5009246"><ele>160.0</ele><time>2026-04-12T17:06:13.313Z</time></trkpt><trkpt lat="45.4692043" lon="8.5004805"><ele>160.0</ele><time>2026-04-12T17:06:14.316Z</time></trkpt><trkpt lat="45.4691733" lon="8.5000352"><ele>160.0</ele><time>2026-04-12T17:06:15.313Z</time></trkpt><trkpt lat="45.469145" lon="8.4995888"><ele>160.0</ele><time>2026-04-12T17:06:16.309Z</time></trkpt><trkpt lat="45.4691197" lon="8.4991421"><ele>160.0</ele><time>2026-04-12T17:06:17.313Z</time></trkpt><trkpt lat="45.4690945" lon="8.498696"><ele>160.0</ele><time>2026-04-12T17:06:18.313Z</time></trkpt><trkpt lat="45.4690669" lon="8.4982506"><ele>160.5</ele><time>2026-04-12T17:06:19.333Z</time></trkpt><trkpt lat="45.4690386" lon="8.4978059"><ele>161.0</ele><time>2026-04-12T17:06:20.313Z</time></trkpt><trkpt lat="45.469008" lon="8.4973605"><ele>160.5</ele><time>2026-04-12T17:06:21.331Z</time></trkpt><trkpt lat="45.468974" lon="8.4969163"><ele>160.0</ele><time>2026-04-12T17:06:22.311Z</time></trkpt><trkpt lat="45.4689387" lon="8.4964712"><ele>160.0</ele><time>2026-04-12T17:06:23.32Z</time></trkpt><trkpt lat="45.4689058" lon="8.4960249"><ele>160.0</ele><time>2026-04-12T17:06:24.314Z</time></trkpt><trkpt lat="45.4688728" lon="8.4955784"><ele>160.0</ele><time>2026-04-12T17:06:25.312Z</time></trkpt><trkpt lat="45.4688411" lon="8.4951305"><ele>160.0</ele><time>2026-04-12T17:06:26.324Z</time></trkpt><trkpt lat="45.468808" lon="8.4946822"><ele>160.5</ele><time>2026-04-12T17:06:27.313Z</time></trkpt><trkpt lat="45.468776" lon="8.4942343"><ele>161.0</ele><time>2026-04-12T17:06:28.332Z</time></trkpt><trkpt lat="45.4687442" lon="8.4937863"><ele>161.0</ele><time>2026-04-12T17:06:29.324Z</time></trkpt><trkpt lat="45.4687115" lon="8.4933378"><ele>161.0</ele><time>2026-04-12T17:06:30.312Z</time></trkpt><trkpt lat="45.4686766" lon="8.4928898"><ele>161.0</ele><time>2026-04-12T17:06:31.306Z</time></trkpt><trkpt lat="45.4686424" lon="8.4924431"><ele>161.0</ele><time>2026-04-12T17:06:32.321Z</time></trkpt><trkpt lat="45.4686085" lon="8.4919978"><ele>161.5</ele><time>2026-04-12T17:06:33.301Z</time></trkpt><trkpt lat="45.4685733" lon="8.4915527"><ele>162.0</ele><time>2026-04-12T17:06:34.331Z</time></trkpt><trkpt lat="45.4685391" lon="8.4911085"><ele>162.0</ele><time>2026-04-12T17:06:35.308Z</time></trkpt><trkpt lat="45.4685085" lon="8.4906636"><ele>162.0</ele><time>2026-04-12T17:06:36.314Z</time></trkpt><trkpt lat="45.4684772" lon="8.4902191"><ele>161.5</ele><time>2026-04-12T17:06:37.301Z</time></trkpt><trkpt lat="45.4684445" lon="8.4897763"><ele>161.0</ele><time>2026-04-12T17:06:38.305Z</time></trkpt><trkpt lat="45.4684103" lon="8.4893346"><ele>160.5</ele><time>2026-04-12T17:06:39.304Z</time></trkpt><trkpt lat="45.4683737" lon="8.4888933"><ele>160.0</ele><time>2026-04-12T17:06:40.312Z</time></trkpt><trkpt lat="45.4683337" lon="8.4884529"><ele>159.5</ele><time>2026-04-12T17:06:41.31Z</time></trkpt><trkpt lat="45.468292" lon="8.4880126"><ele>159.0</ele><time>2026-04-12T17:06:42.329Z</time></trkpt><trkpt lat="45.4682547" lon="8.4875702"><ele>159.0</ele><time>2026-04-12T17:06:43.315Z</time></trkpt><trkpt lat="45.4682213" lon="8.4871279"><ele>159.0</ele><time>2026-04-12T17:06:44.31Z</time></trkpt><trkpt lat="45.4681893" lon="8.4866874"><ele>159.5</ele><time>2026-04-12T17:06:45.312Z</time></trkpt><trkpt lat="45.4681594" lon="8.4862447"><ele>160.0</ele><time>2026-04-12T17:06:46.309Z</time></trkpt><trkpt lat="45.4681299" lon="8.4858016"><ele>159.5</ele><time>2026-04-12T17:06:47.314Z</time></trkpt><trkpt lat="45.4680996" lon="8.4853585"><ele>159.0</ele><time>2026-04-12T17:06:48.326Z</time></trkpt><trkpt lat="45.4680692" lon="8.4849157"><ele>159.0</ele><time>2026-04-12T17:06:49.313Z</time></trkpt><trkpt lat="45.4680374" lon="8.484471"><ele>159.0</ele><time>2026-04-12T17:06:50.311Z</time></trkpt><trkpt lat="45.4680015" lon="8.4840271"><ele>159.5</ele><time>2026-04-12T17:06:51.316Z</time></trkpt><trkpt lat="45.4679614" lon="8.4835831"><ele>160.0</ele><time>2026-04-12T17:06:52.313Z</time></trkpt><trkpt lat="45.467919" lon="8.4831393"><ele>160.0</ele><time>2026-04-12T17:06:53.314Z</time></trkpt><trkpt lat="45.4678775" lon="8.4826946"><ele>160.0</ele><time>2026-04-12T17:06:54.302Z</time></trkpt><trkpt lat="45.4678373" lon="8.4822501"><ele>160.5</ele><time>2026-04-12T17:06:55.323Z</time></trkpt><trkpt lat="45.4678019" lon="8.4818086"><ele>161.0</ele><time>2026-04-12T17:06:56.313Z</time></trkpt><trkpt lat="45.4677696" lon="8.481368"><ele>162.0</ele><time>2026-04-12T17:06:57.314Z</time></trkpt><trkpt lat="45.4677388" lon="8.4809292"><ele>163.0</ele><time>2026-04-12T17:06:58.323Z</time></trkpt><trkpt lat="45.4677095" lon="8.4804923"><ele>161.5</ele><time>2026-04-12T17:06:59.311Z</time></trkpt><trkpt lat="45.4676826" lon="8.4800557"><ele>160.0</ele><time>2026-04-12T17:07:00.311Z</time></trkpt><trkpt lat="45.4676582" lon="8.4796186"><ele>160.5</ele><time>2026-04-12T17:07:01.311Z</time></trkpt><trkpt lat="45.467635" lon="8.4791814"><ele>161.0</ele><time>2026-04-12T17:07:02.314Z</time></trkpt><trkpt lat="45.4676117" lon="8.478743"><ele>161.5</ele><time>2026-04-12T17:07:03.311Z</time></trkpt><trkpt lat="45.4675868" lon="8.4783027"><ele>162.0</ele><time>2026-04-12T17:07:04.328Z</time></trkpt><trkpt lat="45.4675599" lon="8.4778597"><ele>162.0</ele><time>2026-04-12T17:07:05.315Z</time></trkpt><trkpt lat="45.4675321" lon="8.4774156"><ele>162.0</ele><time>2026-04-12T17:07:06.302Z</time></trkpt><trkpt lat="45.4675022" lon="8.4769703"><ele>162.0</ele><time>2026-04-12T17:07:07.307Z</time></trkpt><trkpt lat="45.4674715" lon="8.4765235"><ele>162.0</ele><time>2026-04-12T17:07:08.311Z</time></trkpt><trkpt lat="45.4674384" lon="8.4760752"><ele>162.0</ele><time>2026-04-12T17:07:09.312Z</time></trkpt><trkpt lat="45.4674045" lon="8.4756262"><ele>162.0</ele><time>2026-04-12T17:07:10.311Z</time></trkpt><trkpt lat="45.467368" lon="8.475179"><ele>162.0</ele><time>2026-04-12T17:07:11.314Z</time></trkpt><trkpt lat="45.4673301" lon="8.4747285"><ele>162.0</ele><time>2026-04-12T17:07:12.307Z</time></trkpt><trkpt lat="45.4672934" lon="8.4742796"><ele>161.5</ele><time>2026-04-12T17:07:13.331Z</time></trkpt><trkpt lat="45.4672553" lon="8.4738323"><ele>161.0</ele><time>2026-04-12T17:07:14.3Z</time></trkpt><trkpt lat="45.467218" lon="8.4733855"><ele>161.0</ele><time>2026-04-12T17:07:15.324Z</time></trkpt><trkpt lat="45.467183" lon="8.4729424"><ele>161.0</ele><time>2026-04-12T17:07:16.3Z</time></trkpt><trkpt lat="45.4671502" lon="8.4725025"><ele>161.5</ele><time>2026-04-12T17:07:17.311Z</time></trkpt><trkpt lat="45.4671186" lon="8.4720652"><ele>162.0</ele><time>2026-04-12T17:07:18.313Z</time></trkpt><trkpt lat="45.4670876" lon="8.4716314"><ele>163.0</ele><time>2026-04-12T17:07:19.314Z</time></trkpt><trkpt lat="45.467058" lon="8.4712006"><ele>164.0</ele><time>2026-04-12T17:07:20.303Z</time></trkpt><trkpt lat="45.4670295" lon="8.4707722"><ele>164.0</ele><time>2026-04-12T17:07:21.314Z</time></trkpt><trkpt lat="45.4670017" lon="8.4703441"><ele>164.0</ele><time>2026-04-12T17:07:22.313Z</time></trkpt><trkpt lat="45.4669736" lon="8.4699173"><ele>164.0</ele><time>2026-04-12T17:07:23.33Z</time></trkpt><trkpt lat="45.4669447" lon="8.4694926"><ele>164.0</ele><time>2026-04-12T17:07:24.327Z</time></trkpt><trkpt lat="45.4669133" lon="8.4690679"><ele>164.0</ele><time>2026-04-12T17:07:25.326Z</time></trkpt><trkpt lat="45.466881" lon="8.4686429"><ele>164.0</ele><time>2026-04-12T17:07:26.323Z</time></trkpt><trkpt lat="45.4668477" lon="8.4682161"><ele>164.0</ele><time>2026-04-12T17:07:27.326Z</time></trkpt><trkpt lat="45.4668146" lon="8.4677885"><ele>164.0</ele><time>2026-04-12T17:07:28.313Z</time></trkpt><trkpt lat="45.4667827" lon="8.4673605"><ele>164.5</ele><time>2026-04-12T17:07:29.323Z</time></trkpt><trkpt lat="45.4667507" lon="8.4669308"><ele>165.0</ele><time>2026-04-12T17:07:30.311Z</time></trkpt><trkpt lat="45.4667198" lon="8.466499"><ele>165.0</ele><time>2026-04-12T17:07:31.328Z</time></trkpt><trkpt lat="45.4666899" lon="8.4660656"><ele>165.0</ele><time>2026-04-12T17:07:32.31Z</time></trkpt><trkpt lat="45.46666" lon="8.4656338"><ele>164.5</ele><time>2026-04-12T17:07:33.323Z</time></trkpt><trkpt lat="45.4666306" lon="8.4652019"><ele>164.0</ele><time>2026-04-12T17:07:34.31Z</time></trkpt><trkpt lat="45.4665989" lon="8.4647711"><ele>164.0</ele><time>2026-04-12T17:07:35.307Z</time></trkpt><trkpt lat="45.4665663" lon="8.4643368"><ele>164.0</ele><time>2026-04-12T17:07:36.31Z</time></trkpt><trkpt lat="45.4665307" lon="8.4639009"><ele>163.5</ele><time>2026-04-12T17:07:37.305Z</time></trkpt><trkpt lat="45.4664948" lon="8.4634651"><ele>163.0</ele><time>2026-04-12T17:07:38.314Z</time></trkpt><trkpt lat="45.4664611" lon="8.4630306"><ele>162.5</ele><time>2026-04-12T17:07:39.312Z</time></trkpt><trkpt lat="45.4664296" lon="8.4625963"><ele>162.0</ele><time>2026-04-12T17:07:40.312Z</time></trkpt><trkpt lat="45.4663983" lon="8.4621605"><ele>161.5</ele><time>2026-04-12T17:07:41.315Z</time></trkpt><trkpt lat="45.4663655" lon="8.4617243"><ele>161.0</ele><time>2026-04-12T17:07:42.312Z</time></trkpt><trkpt lat="45.4663314" lon="8.4612866"><ele>161.0</ele><time>2026-04-12T17:07:43.315Z</time></trkpt><trkpt lat="45.4662992" lon="8.4608488"><ele>161.0</ele><time>2026-04-12T17:07:44.309Z</time></trkpt><trkpt lat="45.4662677" lon="8.4604093"><ele>161.0</ele><time>2026-04-12T17:07:45.322Z</time></trkpt><trkpt lat="45.4662366" lon="8.4599705"><ele>161.0</ele><time>2026-04-12T17:07:46.313Z</time></trkpt><trkpt lat="45.4662058" lon="8.4595332"><ele>161.5</ele><time>2026-04-12T17:07:47.312Z</time></trkpt><trkpt lat="45.4661739" lon="8.4590976"><ele>162.0</ele><time>2026-04-12T17:07:48.31Z</time></trkpt><trkpt lat="45.4661432" lon="8.4586612"><ele>162.5</ele><time>2026-04-12T17:07:49.302Z</time></trkpt><trkpt lat="45.4661139" lon="8.458224"><ele>163.0</ele><time>2026-04-12T17:07:50.313Z</time></trkpt><trkpt lat="45.4660869" lon="8.4577845"><ele>163.5</ele><time>2026-04-12T17:07:51.316Z</time></trkpt><trkpt lat="45.4660623" lon="8.4573442"><ele>164.0</ele><time>2026-04-12T17:07:52.313Z</time></trkpt><trkpt lat="45.4660379" lon="8.4569039"><ele>164.0</ele><time>2026-04-12T17:07:53.311Z</time></trkpt><trkpt lat="45.4660125" lon="8.456464"><ele>164.0</ele><time>2026-04-12T17:07:54.311Z</time></trkpt><trkpt lat="45.4659829" lon="8.4560245"><ele>164.0</ele><time>2026-04-12T17:07:55.299Z</time></trkpt><trkpt lat="45.465951" lon="8.4555853"><ele>164.0</ele><time>2026-04-12T17:07:56.312Z</time></trkpt><trkpt lat="45.4659167" lon="8.455146"><ele>164.0</ele><time>2026-04-12T17:07:57.312Z</time></trkpt><trkpt lat="45.4658809" lon="8.4547047"><ele>164.0</ele><time>2026-04-12T17:07:58.322Z</time></trkpt><trkpt lat="45.465844" lon="8.454261"><ele>164.0</ele><time>2026-04-12T17:07:59.31Z</time></trkpt><trkpt lat="45.4658097" lon="8.4538171"><ele>164.0</ele><time>2026-04-12T17:08:00.31Z</time></trkpt><trkpt lat="45.4657775" lon="8.4533724"><ele>164.0</ele><time>2026-04-12T17:08:01.326Z</time></trkpt><trkpt lat="45.4657459" lon="8.4529259"><ele>164.0</ele><time>2026-04-12T17:08:02.311Z</time></trkpt><trkpt lat="45.4657117" lon="8.4524785"><ele>163.5</ele><time>2026-04-12T17:08:03.311Z</time></trkpt><trkpt lat="45.4656794" lon="8.4520287"><ele>163.0</ele><time>2026-04-12T17:08:04.311Z</time></trkpt><trkpt lat="45.4656473" lon="8.4515787"><ele>164.5</ele><time>2026-04-12T17:08:05.316Z</time></trkpt><trkpt lat="45.4656153" lon="8.4511301"><ele>166.0</ele><time>2026-04-12T17:08:06.321Z</time></trkpt><trkpt lat="45.4655838" lon="8.4506819"><ele>166.5</ele><time>2026-04-12T17:08:07.327Z</time></trkpt><trkpt lat="45.4655494" lon="8.4502424"><ele>167.0</ele><time>2026-04-12T17:08:08.323Z</time></trkpt><trkpt lat="45.4655186" lon="8.4498073"><ele>165.0</ele><time>2026-04-12T17:08:09.315Z</time></trkpt><trkpt lat="45.4654869" lon="8.4493641"><ele>163.0</ele><time>2026-04-12T17:08:10.313Z</time></trkpt><trkpt lat="45.4654522" lon="8.4489162"><ele>163.0</ele><time>2026-04-12T17:08:11.326Z</time></trkpt><trkpt lat="45.4654188" lon="8.4484702"><ele>163.0</ele><time>2026-04-12T17:08:12.332Z</time></trkpt><trkpt lat="45.4653857" lon="8.4480259"><ele>164.0</ele><time>2026-04-12T17:08:13.305Z</time></trkpt><trkpt lat="45.4653499" lon="8.4475844"><ele>165.0</ele><time>2026-04-12T17:08:14.302Z</time></trkpt><trkpt lat="45.4653133" lon="8.4471435"><ele>165.0</ele><time>2026-04-12T17:08:15.31Z</time></trkpt><trkpt lat="45.4652803" lon="8.4467006"><ele>165.0</ele><time>2026-04-12T17:08:16.307Z</time></trkpt><trkpt lat="45.4652463" lon="8.4462578"><ele>165.0</ele><time>2026-04-12T17:08:17.332Z</time></trkpt><trkpt lat="45.4652145" lon="8.4458167"><ele>165.0</ele><time>2026-04-12T17:08:18.314Z</time></trkpt><trkpt lat="45.4651838" lon="8.4453758"><ele>165.5</ele><time>2026-04-12T17:08:19.312Z</time></trkpt><trkpt lat="45.4651535" lon="8.4449342"><ele>166.0</ele><time>2026-04-12T17:08:20.304Z</time></trkpt><trkpt lat="45.465125" lon="8.4444939"><ele>166.0</ele><time>2026-04-12T17:08:21.313Z</time></trkpt><trkpt lat="45.4650958" lon="8.4440562"><ele>166.0</ele><time>2026-04-12T17:08:22.312Z</time></trkpt><trkpt lat="45.4650643" lon="8.4436184"><ele>165.5</ele><time>2026-04-12T17:08:23.324Z</time></trkpt><trkpt lat="45.4650293" lon="8.4431814"><ele>165.0</ele><time>2026-04-12T17:08:24.31Z</time></trkpt><trkpt lat="45.4649937" lon="8.4427454"><ele>165.0</ele><time>2026-04-12T17:08:25.32Z</time></trkpt><trkpt lat="45.4649604" lon="8.4423098"><ele>165.0</ele><time>2026-04-12T17:08:26.319Z</time></trkpt><trkpt lat="45.4649271" lon="8.4418739"><ele>165.0</ele><time>2026-04-12T17:08:27.307Z</time></trkpt><trkpt lat="45.4648959" lon="8.4414391"><ele>165.0</ele><time>2026-04-12T17:08:28.325Z</time></trkpt><trkpt lat="45.4648654" lon="8.4410045"><ele>164.5</ele><time>2026-04-12T17:08:29.312Z</time></trkpt><trkpt lat="45.4648364" lon="8.4405689"><ele>164.0</ele><time>2026-04-12T17:08:30.312Z</time></trkpt><trkpt lat="45.4648071" lon="8.4401323"><ele>164.5</ele><time>2026-04-12T17:08:31.311Z</time></trkpt><trkpt lat="45.4647754" lon="8.4396944"><ele>165.0</ele><time>2026-04-12T17:08:32.323Z</time></trkpt><trkpt lat="45.4647455" lon="8.4392572"><ele>165.0</ele><time>2026-04-12T17:08:33.325Z</time></trkpt><trkpt lat="45.4647127" lon="8.4388178"><ele>165.0</ele><time>2026-04-12T17:08:34.312Z</time></trkpt><trkpt lat="45.4646812" lon="8.4383751"><ele>164.0</ele><time>2026-04-12T17:08:35.309Z</time></trkpt><trkpt lat="45.464649" lon="8.4379297"><ele>163.0</ele><time>2026-04-12T17:08:36.305Z</time></trkpt><trkpt lat="45.4646192" lon="8.437483"><ele>163.0</ele><time>2026-04-12T17:08:37.305Z</time></trkpt><trkpt lat="45.46459" lon="8.4370353"><ele>163.0</ele><time>2026-04-12T17:08:38.313Z</time></trkpt><trkpt lat="45.4645624" lon="8.4365877"><ele>163.0</ele><time>2026-04-12T17:08:39.312Z</time></trkpt><trkpt lat="45.4645361" lon="8.4361398"><ele>163.0</ele><time>2026-04-12T17:08:40.318Z</time></trkpt><trkpt lat="45.4645104" lon="8.435693"><ele>162.5</ele><time>2026-04-12T17:08:41.313Z</time></trkpt><trkpt lat="45.4644844" lon="8.4352458"><ele>162.0</ele><time>2026-04-12T17:08:42.312Z</time></trkpt><trkpt lat="45.46446" lon="8.4347987"><ele>162.0</ele><time>2026-04-12T17:08:43.328Z</time></trkpt><trkpt lat="45.464436" lon="8.4343511"><ele>162.0</ele><time>2026-04-12T17:08:44.307Z</time></trkpt><trkpt lat="45.4644119" lon="8.4339021"><ele>162.0</ele><time>2026-04-12T17:08:45.315Z</time></trkpt><trkpt lat="45.4643899" lon="8.4334508"><ele>162.0</ele><time>2026-04-12T17:08:46.323Z</time></trkpt><trkpt lat="45.4643679" lon="8.432998"><ele>163.0</ele><time>2026-04-12T17:08:47.311Z</time></trkpt><trkpt lat="45.4643459" lon="8.4325439"><ele>164.0</ele><time>2026-04-12T17:08:48.326Z</time></trkpt><trkpt lat="45.4643232" lon="8.4320891"><ele>164.0</ele><time>2026-04-12T17:08:49.313Z</time></trkpt><trkpt lat="45.4643006" lon="8.431633"><ele>164.0</ele><time>2026-04-12T17:08:50.33Z</time></trkpt><trkpt lat="45.4642773" lon="8.4311783"><ele>164.0</ele><time>2026-04-12T17:08:51.315Z</time></trkpt><trkpt lat="45.4642533" lon="8.430723"><ele>164.0</ele><time>2026-04-12T17:08:52.312Z</time></trkpt><trkpt lat="45.4642306" lon="8.4302698"><ele>164.0</ele><time>2026-04-12T17:08:53.321Z</time></trkpt><trkpt lat="45.4642077" lon="8.4298216"><ele>164.0</ele><time>2026-04-12T17:08:54.315Z</time></trkpt><trkpt lat="45.4641832" lon="8.4293765"><ele>164.0</ele><time>2026-04-12T17:08:55.331Z</time></trkpt><trkpt lat="45.4641586" lon="8.4289298"><ele>164.0</ele><time>2026-04-12T17:08:56.314Z</time></trkpt><trkpt lat="45.4641336" lon="8.4284813"><ele>165.0</ele><time>2026-04-12T17:08:57.313Z</time></trkpt><trkpt lat="45.4641078" lon="8.4280307"><ele>166.0</ele><time>2026-04-12T17:08:58.323Z</time></trkpt><trkpt lat="45.4640822" lon="8.4275769"><ele>166.5</ele><time>2026-04-12T17:08:59.313Z</time></trkpt><trkpt lat="45.4640567" lon="8.4271216"><ele>167.0</ele><time>2026-04-12T17:09:00.327Z</time></trkpt><trkpt lat="45.4640304" lon="8.4266657"><ele>166.5</ele><time>2026-04-12T17:09:01.311Z</time></trkpt><trkpt lat="45.4640035" lon="8.4262104"><ele>166.0</ele><time>2026-04-12T17:09:02.314Z</time></trkpt><trkpt lat="45.4639771" lon="8.4257554"><ele>165.5</ele><time>2026-04-12T17:09:03.308Z</time></trkpt><trkpt lat="45.4639513" lon="8.4253019"><ele>165.0</ele><time>2026-04-12T17:09:04.313Z</time></trkpt><trkpt lat="45.4639233" lon="8.4248512"><ele>165.0</ele><time>2026-04-12T17:09:05.301Z</time></trkpt><trkpt lat="45.4638943" lon="8.4244006"><ele>165.0</ele><time>2026-04-12T17:09:06.31Z</time></trkpt><trkpt lat="45.4638649" lon="8.4239493"><ele>164.5</ele><time>2026-04-12T17:09:07.329Z</time></trkpt><trkpt lat="45.463837" lon="8.4234972"><ele>164.0</ele><time>2026-04-12T17:09:08.304Z</time></trkpt><trkpt lat="45.4638092" lon="8.4230446"><ele>163.5</ele><time>2026-04-12T17:09:09.311Z</time></trkpt><trkpt lat="45.463783" lon="8.4225925"><ele>163.0</ele><time>2026-04-12T17:09:10.312Z</time></trkpt><trkpt lat="45.4637588" lon="8.4221399"><ele>163.0</ele><time>2026-04-12T17:09:11.314Z</time></trkpt><trkpt lat="45.4637351" lon="8.421687"><ele>163.0</ele><time>2026-04-12T17:09:12.326Z</time></trkpt><trkpt lat="45.4637103" lon="8.4212343"><ele>163.0</ele><time>2026-04-12T17:09:13.315Z</time></trkpt><trkpt lat="45.4636843" lon="8.4207821"><ele>163.0</ele><time>2026-04-12T17:09:14.313Z</time></trkpt><trkpt lat="45.4636591" lon="8.4203309"><ele>163.0</ele><time>2026-04-12T17:09:15.311Z</time></trkpt><trkpt lat="45.4636381" lon="8.4198796"><ele>163.0</ele><time>2026-04-12T17:09:16.32Z</time></trkpt><trkpt lat="45.4636201" lon="8.4194291"><ele>163.0</ele><time>2026-04-12T17:09:17.309Z</time></trkpt><trkpt lat="45.4636039" lon="8.4189782"><ele>163.0</ele><time>2026-04-12T17:09:18.313Z</time></trkpt><trkpt lat="45.4635897" lon="8.418528"><ele>164.0</ele><time>2026-04-12T17:09:19.311Z</time></trkpt><trkpt lat="45.4635745" lon="8.4180774"><ele>165.0</ele><time>2026-04-12T17:09:20.311Z</time></trkpt><trkpt lat="45.463556" lon="8.4176239"><ele>165.0</ele><time>2026-04-12T17:09:21.315Z</time></trkpt><trkpt lat="45.4635348" lon="8.4171687"><ele>165.0</ele><time>2026-04-12T17:09:22.33Z</time></trkpt><trkpt lat="45.4635125" lon="8.416713"><ele>164.5</ele><time>2026-04-12T17:09:23.306Z</time></trkpt><trkpt lat="45.4634882" lon="8.4162566"><ele>164.0</ele><time>2026-04-12T17:09:24.313Z</time></trkpt><trkpt lat="45.4634619" lon="8.4158001"><ele>163.5</ele><time>2026-04-12T17:09:25.313Z</time></trkpt><trkpt lat="45.4634357" lon="8.4153457"><ele>163.0</ele><time>2026-04-12T17:09:26.302Z</time></trkpt><trkpt lat="45.4634095" lon="8.4148937"><ele>163.0</ele><time>2026-04-12T17:09:27.312Z</time></trkpt><trkpt lat="45.463386" lon="8.4144421"><ele>163.0</ele><time>2026-04-12T17:09:28.311Z</time></trkpt><trkpt lat="45.4633622" lon="8.4139905"><ele>163.5</ele><time>2026-04-12T17:09:29.303Z</time></trkpt><trkpt lat="45.4633353" lon="8.4135385"><ele>164.0</ele><time>2026-04-12T17:09:30.321Z</time></trkpt><trkpt lat="45.4633122" lon="8.4130933"><ele>164.0</ele><time>2026-04-12T17:09:31.312Z</time></trkpt><trkpt lat="45.4632892" lon="8.4126509"><ele>164.0</ele><time>2026-04-12T17:09:32.313Z</time></trkpt><trkpt lat="45.4632667" lon="8.4122082"><ele>164.0</ele><time>2026-04-12T17:09:33.312Z</time></trkpt><trkpt lat="45.4632444" lon="8.4117655"><ele>164.0</ele><time>2026-04-12T17:09:34.312Z</time></trkpt><trkpt lat="45.4632208" lon="8.4113224"><ele>164.0</ele><time>2026-04-12T17:09:35.311Z</time></trkpt><trkpt lat="45.4631964" lon="8.410879"><ele>164.0</ele><time>2026-04-12T17:09:36.308Z</time></trkpt><trkpt lat="45.4631728" lon="8.4104363"><ele>164.0</ele><time>2026-04-12T17:09:37.311Z</time></trkpt><trkpt lat="45.4631503" lon="8.4099972"><ele>164.0</ele><time>2026-04-12T17:09:38.319Z</time></trkpt><trkpt lat="45.4631309" lon="8.4095593"><ele>164.0</ele><time>2026-04-12T17:09:39.321Z</time></trkpt><trkpt lat="45.4631165" lon="8.4091216"><ele>164.0</ele><time>2026-04-12T17:09:40.322Z</time></trkpt><trkpt lat="45.4631057" lon="8.4086848"><ele>164.0</ele><time>2026-04-12T17:09:41.31Z</time></trkpt><trkpt lat="45.4630942" lon="8.4082495"><ele>164.0</ele><time>2026-04-12T17:09:42.31Z</time></trkpt><trkpt lat="45.4630839" lon="8.407815"><ele>164.5</ele><time>2026-04-12T17:09:43.309Z</time></trkpt><trkpt lat="45.4630719" lon="8.4073819"><ele>165.0</ele><time>2026-04-12T17:09:44.307Z</time></trkpt><trkpt lat="45.4630594" lon="8.4069481"><ele>165.0</ele><time>2026-04-12T17:09:45.324Z</time></trkpt><trkpt lat="45.4630472" lon="8.406511"><ele>165.0</ele><time>2026-04-12T17:09:46.315Z</time></trkpt><trkpt lat="45.463036" lon="8.4060735"><ele>167.0</ele><time>2026-04-12T17:09:47.319Z</time></trkpt><trkpt lat="45.4630266" lon="8.4056322"><ele>169.0</ele><time>2026-04-12T17:09:48.306Z</time></trkpt><trkpt lat="45.463016" lon="8.4051898"><ele>169.5</ele><time>2026-04-12T17:09:49.33Z</time></trkpt><trkpt lat="45.4630041" lon="8.4047477"><ele>170.0</ele><time>2026-04-12T17:09:50.302Z</time></trkpt><trkpt lat="45.4629894" lon="8.4043059"><ele>170.0</ele><time>2026-04-12T17:09:51.325Z</time></trkpt><trkpt lat="45.4629756" lon="8.4038631"><ele>170.0</ele><time>2026-04-12T17:09:52.313Z</time></trkpt><trkpt lat="45.4629588" lon="8.4034209"><ele>168.5</ele><time>2026-04-12T17:09:53.325Z</time></trkpt><trkpt lat="45.4629425" lon="8.402978"><ele>167.0</ele><time>2026-04-12T17:09:54.314Z</time></trkpt><trkpt lat="45.4629253" lon="8.4025351"><ele>165.5</ele><time>2026-04-12T17:09:55.308Z</time></trkpt><trkpt lat="45.4629061" lon="8.4020919"><ele>164.0</ele><time>2026-04-12T17:09:56.303Z</time></trkpt><trkpt lat="45.4628844" lon="8.4016475"><ele>163.0</ele><time>2026-04-12T17:09:57.321Z</time></trkpt><trkpt lat="45.4628622" lon="8.4012017"><ele>162.0</ele><time>2026-04-12T17:09:58.307Z</time></trkpt><trkpt lat="45.4628392" lon="8.4007563"><ele>162.0</ele><time>2026-04-12T17:09:59.308Z</time></trkpt><trkpt lat="45.4628153" lon="8.4003106"><ele>162.0</ele><time>2026-04-12T17:10:00.311Z</time></trkpt><trkpt lat="45.4627915" lon="8.399865"><ele>162.5</ele><time>2026-04-12T17:10:01.312Z</time></trkpt><trkpt lat="45.4627674" lon="8.3994206"><ele>163.0</ele><time>2026-04-12T17:10:02.324Z</time></trkpt><trkpt lat="45.4627426" lon="8.3989778"><ele>166.0</ele><time>2026-04-12T17:10:03.311Z</time></trkpt><trkpt lat="45.4627146" lon="8.398535"><ele>169.0</ele><time>2026-04-12T17:10:04.31Z</time></trkpt><trkpt lat="45.4626865" lon="8.3980925"><ele>168.5</ele><time>2026-04-12T17:10:05.306Z</time></trkpt><trkpt lat="45.4626581" lon="8.3976521"><ele>168.0</ele><time>2026-04-12T17:10:06.321Z</time></trkpt><trkpt lat="45.4626265" lon="8.3972118"><ele>168.0</ele><time>2026-04-12T17:10:07.313Z</time></trkpt><trkpt lat="45.4625924" lon="8.3967706"><ele>168.0</ele><time>2026-04-12T17:10:08.32Z</time></trkpt><trkpt lat="45.4625572" lon="8.3963292"><ele>167.5</ele><time>2026-04-12T17:10:09.325Z</time></trkpt><trkpt lat="45.4625227" lon="8.3958888"><ele>167.0</ele><time>2026-04-12T17:10:10.312Z</time></trkpt><trkpt lat="45.4624881" lon="8.3954478"><ele>166.5</ele><time>2026-04-12T17:10:11.329Z</time></trkpt><trkpt lat="45.4624523" lon="8.3950043"><ele>166.0</ele><time>2026-04-12T17:10:12.313Z</time></trkpt><trkpt lat="45.4624153" lon="8.3945627"><ele>165.5</ele><time>2026-04-12T17:10:13.328Z</time></trkpt><trkpt lat="45.4623763" lon="8.3941244"><ele>165.0</ele><time>2026-04-12T17:10:14.315Z</time></trkpt><trkpt lat="45.4623339" lon="8.393689"><ele>164.5</ele><time>2026-04-12T17:10:15.323Z</time></trkpt><trkpt lat="45.4622916" lon="8.3932524"><ele>164.0</ele><time>2026-04-12T17:10:16.313Z</time></trkpt><trkpt lat="45.462251" lon="8.3928133"><ele>164.0</ele><time>2026-04-12T17:10:17.31Z</time></trkpt><trkpt lat="45.4622141" lon="8.392371"><ele>164.0</ele><time>2026-04-12T17:10:18.307Z</time></trkpt><trkpt lat="45.4621795" lon="8.3919272"><ele>164.0</ele><time>2026-04-12T17:10:19.314Z</time></trkpt><trkpt lat="45.4621465" lon="8.391484"><ele>164.0</ele><time>2026-04-12T17:10:20.313Z</time></trkpt><trkpt lat="45.4621141" lon="8.3910412"><ele>164.0</ele><time>2026-04-12T17:10:21.318Z</time></trkpt><trkpt lat="45.4620825" lon="8.3905972"><ele>164.0</ele><time>2026-04-12T17:10:22.312Z</time></trkpt><trkpt lat="45.4620528" lon="8.3901546"><ele>165.0</ele><time>2026-04-12T17:10:23.33Z</time></trkpt><trkpt lat="45.4620253" lon="8.3897145"><ele>166.0</ele><time>2026-04-12T17:10:24.314Z</time></trkpt><trkpt lat="45.4620009" lon="8.3892745"><ele>166.0</ele><time>2026-04-12T17:10:25.314Z</time></trkpt><trkpt lat="45.4619824" lon="8.3888363"><ele>166.0</ele><time>2026-04-12T17:10:26.307Z</time></trkpt><trkpt lat="45.4619647" lon="8.3884003"><ele>166.0</ele><time>2026-04-12T17:10:27.302Z</time></trkpt><trkpt lat="45.461948" lon="8.387965"><ele>166.0</ele><time>2026-04-12T17:10:28.312Z</time></trkpt><trkpt lat="45.4619312" lon="8.3875286"><ele>165.5</ele><time>2026-04-12T17:10:29.31Z</time></trkpt><trkpt lat="45.4619141" lon="8.3870897"><ele>165.0</ele><time>2026-04-12T17:10:30.314Z</time></trkpt><trkpt lat="45.4618947" lon="8.386649"><ele>166.5</ele><time>2026-04-12T17:10:31.328Z</time></trkpt><trkpt lat="45.461873" lon="8.3862077"><ele>168.0</ele><time>2026-04-12T17:10:32.309Z</time></trkpt><trkpt lat="45.4618517" lon="8.3857649"><ele>167.5</ele><time>2026-04-12T17:10:33.306Z</time></trkpt><trkpt lat="45.4618299" lon="8.3853218"><ele>167.0</ele><time>2026-04-12T17:10:34.313Z</time></trkpt><trkpt lat="45.4618082" lon="8.3848784"><ele>165.0</ele><time>2026-04-12T17:10:35.324Z</time></trkpt><trkpt lat="45.4617846" lon="8.3844323"><ele>163.0</ele><time>2026-04-12T17:10:36.331Z</time></trkpt><trkpt lat="45.46176" lon="8.3839838"><ele>164.0</ele><time>2026-04-12T17:10:37.308Z</time></trkpt><trkpt lat="45.4617368" lon="8.3835365"><ele>165.0</ele><time>2026-04-12T17:10:38.311Z</time></trkpt><trkpt lat="45.461714" lon="8.3830908"><ele>165.0</ele><time>2026-04-12T17:10:39.302Z</time></trkpt><trkpt lat="45.4616901" lon="8.3826457"><ele>165.0</ele><time>2026-04-12T17:10:40.307Z</time></trkpt><trkpt lat="45.4616661" lon="8.3822008"><ele>165.0</ele><time>2026-04-12T17:10:41.313Z</time></trkpt><trkpt lat="45.4616451" lon="8.381758"><ele>165.0</ele><time>2026-04-12T17:10:42.31Z</time></trkpt><trkpt lat="45.4616229" lon="8.3813151"><ele>165.0</ele><time>2026-04-12T17:10:43.328Z</time></trkpt><trkpt lat="45.461601" lon="8.3808748"><ele>165.0</ele><time>2026-04-12T17:10:44.329Z</time></trkpt><trkpt lat="45.4615791" lon="8.3804378"><ele>164.5</ele><time>2026-04-12T17:10:45.331Z</time></trkpt><trkpt lat="45.4615542" lon="8.3800015"><ele>164.0</ele><time>2026-04-12T17:10:46.312Z</time></trkpt><trkpt lat="45.4615286" lon="8.3795651"><ele>165.0</ele><time>2026-04-12T17:10:47.312Z</time></trkpt><trkpt lat="45.4615009" lon="8.3791287"><ele>166.0</ele><time>2026-04-12T17:10:48.326Z</time></trkpt><trkpt lat="45.4614727" lon="8.3786953"><ele>166.0</ele><time>2026-04-12T17:10:49.307Z</time></trkpt><trkpt lat="45.4614441" lon="8.3782642"><ele>166.0</ele><time>2026-04-12T17:10:50.303Z</time></trkpt><trkpt lat="45.4614164" lon="8.3778362"><ele>166.0</ele><time>2026-04-12T17:10:51.329Z</time></trkpt><trkpt lat="45.4613874" lon="8.377411"><ele>166.0</ele><time>2026-04-12T17:10:52.329Z</time></trkpt><trkpt lat="45.4613582" lon="8.3769866"><ele>166.0</ele><time>2026-04-12T17:10:53.312Z</time></trkpt><trkpt lat="45.4613286" lon="8.3765615"><ele>166.0</ele><time>2026-04-12T17:10:54.302Z</time></trkpt><trkpt lat="45.4612986" lon="8.3761389"><ele>164.5</ele><time>2026-04-12T17:10:55.315Z</time></trkpt><trkpt lat="45.4612649" lon="8.3757221"><ele>163.0</ele><time>2026-04-12T17:10:56.309Z</time></trkpt><trkpt lat="45.4612314" lon="8.3753005"><ele>163.0</ele><time>2026-04-12T17:10:57.328Z</time></trkpt><trkpt lat="45.4611977" lon="8.374877"><ele>163.0</ele><time>2026-04-12T17:10:58.316Z</time></trkpt><trkpt lat="45.4611605" lon="8.3744505"><ele>163.0</ele><time>2026-04-12T17:10:59.305Z</time></trkpt><trkpt lat="45.4611229" lon="8.3740257"><ele>163.0</ele><time>2026-04-12T17:11:00.306Z</time></trkpt><trkpt lat="45.4610841" lon="8.3736011"><ele>163.0</ele><time>2026-04-12T17:11:01.313Z</time></trkpt><trkpt lat="45.4610457" lon="8.3731748"><ele>163.0</ele><time>2026-04-12T17:11:02.317Z</time></trkpt><trkpt lat="45.461006" lon="8.3727475"><ele>164.0</ele><time>2026-04-12T17:11:03.321Z</time></trkpt><trkpt lat="45.4609667" lon="8.3723226"><ele>165.0</ele><time>2026-04-12T17:11:04.324Z</time></trkpt><trkpt lat="45.4609263" lon="8.3718978"><ele>165.0</ele><time>2026-04-12T17:11:05.311Z</time></trkpt><trkpt lat="45.4608835" lon="8.3714732"><ele>165.0</ele><time>2026-04-12T17:11:06.312Z</time></trkpt><trkpt lat="45.4608391" lon="8.3710493"><ele>164.5</ele><time>2026-04-12T17:11:07.311Z</time></trkpt><trkpt lat="45.4607927" lon="8.3706246"><ele>164.0</ele><time>2026-04-12T17:11:08.312Z</time></trkpt><trkpt lat="45.4607458" lon="8.3701968"><ele>164.0</ele><time>2026-04-12T17:11:09.327Z</time></trkpt><trkpt lat="45.4606974" lon="8.3697686"><ele>164.0</ele><time>2026-04-12T17:11:10.3Z</time></trkpt><trkpt lat="45.4606479" lon="8.3693395"><ele>163.5</ele><time>2026-04-12T17:11:11.306Z</time></trkpt><trkpt lat="45.4605966" lon="8.3689121"><ele>163.0</ele><time>2026-04-12T17:11:12.317Z</time></trkpt><trkpt lat="45.4605455" lon="8.3684836"><ele>163.0</ele><time>2026-04-12T17:11:13.309Z</time></trkpt><trkpt lat="45.4604943" lon="8.3680542"><ele>163.0</ele><time>2026-04-12T17:11:14.324Z</time></trkpt><trkpt lat="45.4604433" lon="8.3676253"><ele>162.5</ele><time>2026-04-12T17:11:15.31Z</time></trkpt><trkpt lat="45.4603899" lon="8.3671979"><ele>162.0</ele><time>2026-04-12T17:11:16.308Z</time></trkpt><trkpt lat="45.4603331" lon="8.3667708"><ele>162.5</ele><time>2026-04-12T17:11:17.31Z</time></trkpt><trkpt lat="45.4602742" lon="8.3663427"><ele>163.0</ele><time>2026-04-12T17:11:18.312Z</time></trkpt><trkpt lat="45.460213" lon="8.3659147"><ele>163.5</ele><time>2026-04-12T17:11:19.309Z</time></trkpt><trkpt lat="45.4601523" lon="8.3654881"><ele>164.0</ele><time>2026-04-12T17:11:20.312Z</time></trkpt><trkpt lat="45.460092" lon="8.3650589"><ele>163.5</ele><time>2026-04-12T17:11:21.312Z</time></trkpt><trkpt lat="45.4600316" lon="8.3646291"><ele>163.0</ele><time>2026-04-12T17:11:22.312Z</time></trkpt><trkpt lat="45.4599719" lon="8.3642022"><ele>164.5</ele><time>2026-04-12T17:11:23.322Z</time></trkpt><trkpt lat="45.4599102" lon="8.3637769"><ele>166.0</ele><time>2026-04-12T17:11:24.31Z</time></trkpt><trkpt lat="45.4598443" lon="8.363355"><ele>167.0</ele><time>2026-04-12T17:11:25.33Z</time></trkpt><trkpt lat="45.4597762" lon="8.3629355"><ele>168.0</ele><time>2026-04-12T17:11:26.322Z</time></trkpt><trkpt lat="45.4597053" lon="8.362516"><ele>168.5</ele><time>2026-04-12T17:11:27.309Z</time></trkpt><trkpt lat="45.4596342" lon="8.362098"><ele>169.0</ele><time>2026-04-12T17:11:28.312Z</time></trkpt><trkpt lat="45.4595637" lon="8.3616791"><ele>169.0</ele><time>2026-04-12T17:11:29.308Z</time></trkpt><trkpt lat="45.459495" lon="8.3612597"><ele>169.0</ele><time>2026-04-12T17:11:30.329Z</time></trkpt><trkpt lat="45.459427" lon="8.3608425"><ele>169.5</ele><time>2026-04-12T17:11:31.309Z</time></trkpt><trkpt lat="45.4593574" lon="8.3604289"><ele>170.0</ele><time>2026-04-12T17:11:32.307Z</time></trkpt><trkpt lat="45.4592853" lon="8.3600187"><ele>169.5</ele><time>2026-04-12T17:11:33.319Z</time></trkpt><trkpt lat="45.4592119" lon="8.359613"><ele>169.0</ele><time>2026-04-12T17:11:34.318Z</time></trkpt><trkpt lat="45.4591391" lon="8.3592082"><ele>168.5</ele><time>2026-04-12T17:11:35.325Z</time></trkpt><trkpt lat="45.4590662" lon="8.358798"><ele>168.0</ele><time>2026-04-12T17:11:36.315Z</time></trkpt><trkpt lat="45.4589942" lon="8.3583867"><ele>166.5</ele><time>2026-04-12T17:11:37.316Z</time></trkpt><trkpt lat="45.4589214" lon="8.3579795"><ele>165.0</ele><time>2026-04-12T17:11:38.312Z</time></trkpt><trkpt lat="45.458848" lon="8.3575714"><ele>165.0</ele><time>2026-04-12T17:11:39.308Z</time></trkpt><trkpt lat="45.4587783" lon="8.357167"><ele>165.0</ele><time>2026-04-12T17:11:40.311Z</time></trkpt><trkpt lat="45.4587099" lon="8.3567667"><ele>166.5</ele><time>2026-04-12T17:11:41.313Z</time></trkpt><trkpt lat="45.4586425" lon="8.3563691"><ele>168.0</ele><time>2026-04-12T17:11:42.314Z</time></trkpt><trkpt lat="45.4585762" lon="8.3559722"><ele>168.0</ele><time>2026-04-12T17:11:43.312Z</time></trkpt><trkpt lat="45.4585124" lon="8.355575"><ele>168.0</ele><time>2026-04-12T17:11:44.318Z</time></trkpt><trkpt lat="45.4584479" lon="8.3551745"><ele>168.0</ele><time>2026-04-12T17:11:45.325Z</time></trkpt><trkpt lat="45.4583835" lon="8.35477"><ele>168.0</ele><time>2026-04-12T17:11:46.307Z</time></trkpt><trkpt lat="45.4583169" lon="8.3543629"><ele>168.0</ele><time>2026-04-12T17:11:47.311Z</time></trkpt><trkpt lat="45.4582485" lon="8.3539551"><ele>168.0</ele><time>2026-04-12T17:11:48.304Z</time></trkpt><trkpt lat="45.4581802" lon="8.3535467"><ele>168.5</ele><time>2026-04-12T17:11:49.325Z</time></trkpt><trkpt lat="45.4581102" lon="8.3531363"><ele>169.0</ele><time>2026-04-12T17:11:50.308Z</time></trkpt><trkpt lat="45.4580424" lon="8.3527257"><ele>169.0</ele><time>2026-04-12T17:11:51.309Z</time></trkpt><trkpt lat="45.4579761" lon="8.3523164"><ele>169.0</ele><time>2026-04-12T17:11:52.323Z</time></trkpt><trkpt lat="45.4579105" lon="8.3519061"><ele>170.0</ele><time>2026-04-12T17:11:53.312Z</time></trkpt><trkpt lat="45.4578392" lon="8.3514895"><ele>171.0</ele><time>2026-04-12T17:11:54.327Z</time></trkpt><trkpt lat="45.4577678" lon="8.3510689"><ele>171.0</ele><time>2026-04-12T17:11:55.331Z</time></trkpt><trkpt lat="45.4576993" lon="8.3506514"><ele>171.0</ele><time>2026-04-12T17:11:56.312Z</time></trkpt><trkpt lat="45.4576325" lon="8.3502322"><ele>171.0</ele><time>2026-04-12T17:11:57.327Z</time></trkpt><trkpt lat="45.4575693" lon="8.3498157"><ele>171.0</ele><time>2026-04-12T17:11:58.306Z</time></trkpt><trkpt lat="45.4575069" lon="8.349397"><ele>171.0</ele><time>2026-04-12T17:11:59.311Z</time></trkpt><trkpt lat="45.4574456" lon="8.3489769"><ele>171.0</ele><time>2026-04-12T17:12:00.31Z</time></trkpt><trkpt lat="45.4573808" lon="8.348555"><ele>171.0</ele><time>2026-04-12T17:12:01.313Z</time></trkpt><trkpt lat="45.4573149" lon="8.3481323"><ele>171.0</ele><time>2026-04-12T17:12:02.304Z</time></trkpt><trkpt lat="45.457249" lon="8.3477086"><ele>171.0</ele><time>2026-04-12T17:12:03.308Z</time></trkpt><trkpt lat="45.4571841" lon="8.3472871"><ele>171.0</ele><time>2026-04-12T17:12:04.313Z</time></trkpt><trkpt lat="45.4571191" lon="8.3468655"><ele>171.0</ele><time>2026-04-12T17:12:05.325Z</time></trkpt><trkpt lat="45.4570535" lon="8.3464457"><ele>171.0</ele><time>2026-04-12T17:12:06.312Z</time></trkpt><trkpt lat="45.4569859" lon="8.3460248"><ele>171.0</ele><time>2026-04-12T17:12:07.31Z</time></trkpt><trkpt lat="45.4569143" lon="8.3456022"><ele>171.0</ele><time>2026-04-12T17:12:08.306Z</time></trkpt><trkpt lat="45.4568429" lon="8.34518"><ele>171.0</ele><time>2026-04-12T17:12:09.322Z</time></trkpt><trkpt lat="45.456771" lon="8.3447606"><ele>171.0</ele><time>2026-04-12T17:12:10.312Z</time></trkpt><trkpt lat="45.4566983" lon="8.3443421"><ele>171.0</ele><time>2026-04-12T17:12:11.314Z</time></trkpt><trkpt lat="45.4566258" lon="8.3439232"><ele>171.0</ele><time>2026-04-12T17:12:12.314Z</time></trkpt><trkpt lat="45.4565531" lon="8.3435029"><ele>171.0</ele><time>2026-04-12T17:12:13.307Z</time></trkpt><trkpt lat="45.4564808" lon="8.3430809"><ele>171.0</ele><time>2026-04-12T17:12:14.31Z</time></trkpt><trkpt lat="45.4564112" lon="8.3426549"><ele>170.5</ele><time>2026-04-12T17:12:15.313Z</time></trkpt><trkpt lat="45.4563411" lon="8.3422246"><ele>170.0</ele><time>2026-04-12T17:12:16.31Z</time></trkpt><trkpt lat="45.4562682" lon="8.3417914"><ele>170.5</ele><time>2026-04-12T17:12:17.315Z</time></trkpt><trkpt lat="45.4561943" lon="8.3413591"><ele>171.0</ele><time>2026-04-12T17:12:18.305Z</time></trkpt><trkpt lat="45.456121" lon="8.3409226"><ele>168.5</ele><time>2026-04-12T17:12:19.325Z</time></trkpt><trkpt lat="45.4560489" lon="8.3404839"><ele>166.0</ele><time>2026-04-12T17:12:20.309Z</time></trkpt><trkpt lat="45.455978" lon="8.3400451"><ele>164.0</ele><time>2026-04-12T17:12:21.317Z</time></trkpt><trkpt lat="45.4559049" lon="8.339605"><ele>162.0</ele><time>2026-04-12T17:12:22.313Z</time></trkpt><trkpt lat="45.4558291" lon="8.3391672"><ele>162.5</ele><time>2026-04-12T17:12:23.327Z</time></trkpt><trkpt lat="45.4557547" lon="8.3387308"><ele>163.0</ele><time>2026-04-12T17:12:24.305Z</time></trkpt><trkpt lat="45.4556809" lon="8.3382966"><ele>164.0</ele><time>2026-04-12T17:12:25.317Z</time></trkpt><trkpt lat="45.4556098" lon="8.3378639"><ele>165.0</ele><time>2026-04-12T17:12:26.321Z</time></trkpt><trkpt lat="45.4555397" lon="8.3374327"><ele>165.0</ele><time>2026-04-12T17:12:27.308Z</time></trkpt><trkpt lat="45.4554697" lon="8.3370001"><ele>165.0</ele><time>2026-04-12T17:12:28.311Z</time></trkpt><trkpt lat="45.4553997" lon="8.3365668"><ele>165.0</ele><time>2026-04-12T17:12:29.31Z</time></trkpt><trkpt lat="45.4553312" lon="8.3361308"><ele>165.0</ele><time>2026-04-12T17:12:30.328Z</time></trkpt><trkpt lat="45.4552661" lon="8.3356944"><ele>165.0</ele><time>2026-04-12T17:12:31.307Z</time></trkpt><trkpt lat="45.4552029" lon="8.3352578"><ele>165.0</ele><time>2026-04-12T17:12:32.311Z</time></trkpt><trkpt lat="45.4551379" lon="8.3348198"><ele>165.0</ele><time>2026-04-12T17:12:33.302Z</time></trkpt><trkpt lat="45.4550717" lon="8.3343835"><ele>165.0</ele><time>2026-04-12T17:12:34.301Z</time></trkpt><trkpt lat="45.4550021" lon="8.3339468"><ele>165.5</ele><time>2026-04-12T17:12:35.314Z</time></trkpt><trkpt lat="45.4549286" lon="8.3335107"><ele>166.0</ele><time>2026-04-12T17:12:36.312Z</time></trkpt><trkpt lat="45.4548522" lon="8.333076"><ele>167.5</ele><time>2026-04-12T17:12:37.306Z</time></trkpt><trkpt lat="45.4547733" lon="8.3326394"><ele>169.0</ele><time>2026-04-12T17:12:38.308Z</time></trkpt><trkpt lat="45.4546923" lon="8.3322039"><ele>169.5</ele><time>2026-04-12T17:12:39.31Z</time></trkpt><trkpt lat="45.4546141" lon="8.331769"><ele>170.0</ele><time>2026-04-12T17:12:40.318Z</time></trkpt><trkpt lat="45.4545382" lon="8.3313332"><ele>170.0</ele><time>2026-04-12T17:12:41.316Z</time></trkpt><trkpt lat="45.4544642" lon="8.3308977"><ele>170.0</ele><time>2026-04-12T17:12:42.315Z</time></trkpt><trkpt lat="45.4543889" lon="8.3304591"><ele>170.0</ele><time>2026-04-12T17:12:43.313Z</time></trkpt><trkpt lat="45.4543179" lon="8.330019"><ele>170.0</ele><time>2026-04-12T17:12:44.304Z</time></trkpt><trkpt lat="45.4542486" lon="8.3295805"><ele>170.5</ele><time>2026-04-12T17:12:45.322Z</time></trkpt><trkpt lat="45.4541785" lon="8.3291393"><ele>171.0</ele><time>2026-04-12T17:12:46.313Z</time></trkpt><trkpt lat="45.4541075" lon="8.3286966"><ele>171.0</ele><time>2026-04-12T17:12:47.322Z</time></trkpt><trkpt lat="45.4540376" lon="8.3282546"><ele>171.0</ele><time>2026-04-12T17:12:48.305Z</time></trkpt><trkpt lat="45.4539672" lon="8.327816"><ele>171.0</ele><time>2026-04-12T17:12:49.305Z</time></trkpt><trkpt lat="45.4538931" lon="8.3273763"><ele>171.0</ele><time>2026-04-12T17:12:50.325Z</time></trkpt><trkpt lat="45.4538184" lon="8.326939"><ele>171.0</ele><time>2026-04-12T17:12:51.311Z</time></trkpt><trkpt lat="45.4537422" lon="8.326499"><ele>171.0</ele><time>2026-04-12T17:12:52.309Z</time></trkpt><trkpt lat="45.4536681" lon="8.3260605"><ele>171.0</ele><time>2026-04-12T17:12:53.329Z</time></trkpt><trkpt lat="45.4535946" lon="8.3256234"><ele>171.0</ele><time>2026-04-12T17:12:54.307Z</time></trkpt><trkpt lat="45.4535246" lon="8.3251849"><ele>171.0</ele><time>2026-04-12T17:12:55.327Z</time></trkpt><trkpt lat="45.4534585" lon="8.3247457"><ele>171.0</ele><time>2026-04-12T17:12:56.321Z</time></trkpt><trkpt lat="45.4533941" lon="8.3243061"><ele>171.5</ele><time>2026-04-12T17:12:57.325Z</time></trkpt><trkpt lat="45.4533285" lon="8.3238714"><ele>172.0</ele><time>2026-04-12T17:12:58.309Z</time></trkpt><trkpt lat="45.4532602" lon="8.3234375"><ele>171.0</ele><time>2026-04-12T17:12:59.314Z</time></trkpt><trkpt lat="45.4531901" lon="8.3230055"><ele>170.0</ele><time>2026-04-12T17:13:00.315Z</time></trkpt><trkpt lat="45.4531183" lon="8.3225743"><ele>170.5</ele><time>2026-04-12T17:13:01.312Z</time></trkpt><trkpt lat="45.4530453" lon="8.3221424"><ele>171.0</ele><time>2026-04-12T17:13:02.323Z</time></trkpt><trkpt lat="45.4529733" lon="8.3217094"><ele>170.5</ele><time>2026-04-12T17:13:03.31Z</time></trkpt><trkpt lat="45.4529024" lon="8.3212742"><ele>170.0</ele><time>2026-04-12T17:13:04.311Z</time></trkpt><trkpt lat="45.4528301" lon="8.3208384"><ele>170.0</ele><time>2026-04-12T17:13:05.304Z</time></trkpt><trkpt lat="45.452758" lon="8.3204019"><ele>170.0</ele><time>2026-04-12T17:13:06.312Z</time></trkpt><trkpt lat="45.4526848" lon="8.3199639"><ele>170.5</ele><time>2026-04-12T17:13:07.31Z</time></trkpt><trkpt lat="45.4526102" lon="8.3195265"><ele>171.0</ele><time>2026-04-12T17:13:08.31Z</time></trkpt><trkpt lat="45.4525355" lon="8.3190927"><ele>170.0</ele><time>2026-04-12T17:13:09.326Z</time></trkpt><trkpt lat="45.4524615" lon="8.3186604"><ele>169.0</ele><time>2026-04-12T17:13:10.329Z</time></trkpt><trkpt lat="45.4523877" lon="8.3182269"><ele>169.5</ele><time>2026-04-12T17:13:11.334Z</time></trkpt><trkpt lat="45.4523142" lon="8.3177926"><ele>170.0</ele><time>2026-04-12T17:13:12.311Z</time></trkpt><trkpt lat="45.4522407" lon="8.3173597"><ele>170.0</ele><time>2026-04-12T17:13:13.313Z</time></trkpt><trkpt lat="45.4521675" lon="8.3169278"><ele>170.0</ele><time>2026-04-12T17:13:14.309Z</time></trkpt><trkpt lat="45.4520958" lon="8.3164941"><ele>169.0</ele><time>2026-04-12T17:13:15.312Z</time></trkpt><trkpt lat="45.4520249" lon="8.3160606"><ele>168.0</ele><time>2026-04-12T17:13:16.33Z</time></trkpt><trkpt lat="45.4519534" lon="8.315629"><ele>168.5</ele><time>2026-04-12T17:13:17.319Z</time></trkpt><trkpt lat="45.451881" lon="8.3151963"><ele>169.0</ele><time>2026-04-12T17:13:18.314Z</time></trkpt><trkpt lat="45.4518097" lon="8.314763"><ele>170.0</ele><time>2026-04-12T17:13:19.311Z</time></trkpt><trkpt lat="45.4517379" lon="8.3143302"><ele>171.0</ele><time>2026-04-12T17:13:20.313Z</time></trkpt><trkpt lat="45.4516641" lon="8.3138934"><ele>171.0</ele><time>2026-04-12T17:13:21.313Z</time></trkpt><trkpt lat="45.4515918" lon="8.3134533"><ele>171.0</ele><time>2026-04-12T17:13:22.33Z</time></trkpt><trkpt lat="45.4515201" lon="8.3130125"><ele>171.0</ele><time>2026-04-12T17:13:23.317Z</time></trkpt><trkpt lat="45.4514506" lon="8.3125684"><ele>171.0</ele><time>2026-04-12T17:13:24.312Z</time></trkpt><trkpt lat="45.4513811" lon="8.3121231"><ele>169.0</ele><time>2026-04-12T17:13:25.308Z</time></trkpt><trkpt lat="45.4513103" lon="8.3116764"><ele>167.0</ele><time>2026-04-12T17:13:26.329Z</time></trkpt><trkpt lat="45.4512398" lon="8.3112297"><ele>163.0</ele><time>2026-04-12T17:13:27.312Z</time></trkpt><trkpt lat="45.451168" lon="8.3107797"><ele>159.0</ele><time>2026-04-12T17:13:28.313Z</time></trkpt><trkpt lat="45.4510943" lon="8.3103294"><ele>159.0</ele><time>2026-04-12T17:13:29.312Z</time></trkpt><trkpt lat="45.4510196" lon="8.3098814"><ele>159.0</ele><time>2026-04-12T17:13:30.309Z</time></trkpt><trkpt lat="45.4509445" lon="8.3094321"><ele>159.5</ele><time>2026-04-12T17:13:31.313Z</time></trkpt><trkpt lat="45.45087" lon="8.3089844"><ele>160.0</ele><time>2026-04-12T17:13:32.32Z</time></trkpt><trkpt lat="45.4507959" lon="8.3085387"><ele>160.0</ele><time>2026-04-12T17:13:33.313Z</time></trkpt><trkpt lat="45.4507223" lon="8.3080949"><ele>160.0</ele><time>2026-04-12T17:13:34.312Z</time></trkpt><trkpt lat="45.4506507" lon="8.3076507"><ele>160.5</ele><time>2026-04-12T17:13:35.308Z</time></trkpt><trkpt lat="45.45058" lon="8.3072074"><ele>161.0</ele><time>2026-04-12T17:13:36.309Z</time></trkpt><trkpt lat="45.4505095" lon="8.3067626"><ele>159.5</ele><time>2026-04-12T17:13:37.307Z</time></trkpt><trkpt lat="45.450439" lon="8.306318"><ele>158.0</ele><time>2026-04-12T17:13:38.319Z</time></trkpt><trkpt lat="45.4503669" lon="8.3058784"><ele>158.5</ele><time>2026-04-12T17:13:39.327Z</time></trkpt><trkpt lat="45.4502929" lon="8.3054351"><ele>159.0</ele><time>2026-04-12T17:13:40.312Z</time></trkpt><trkpt lat="45.450219" lon="8.30499"><ele>159.0</ele><time>2026-04-12T17:13:41.308Z</time></trkpt><trkpt lat="45.4501468" lon="8.3045438"><ele>159.0</ele><time>2026-04-12T17:13:42.309Z</time></trkpt><trkpt lat="45.4500744" lon="8.304096"><ele>159.5</ele><time>2026-04-12T17:13:43.311Z</time></trkpt><trkpt lat="45.4500002" lon="8.3036479"><ele>160.0</ele><time>2026-04-12T17:13:44.331Z</time></trkpt><trkpt lat="45.4499236" lon="8.3031974"><ele>159.5</ele><time>2026-04-12T17:13:45.312Z</time></trkpt><trkpt lat="45.4498437" lon="8.3027445"><ele>159.0</ele><time>2026-04-12T17:13:46.314Z</time></trkpt><trkpt lat="45.4497662" lon="8.3022934"><ele>159.0</ele><time>2026-04-12T17:13:47.305Z</time></trkpt><trkpt lat="45.449692" lon="8.3018417"><ele>159.0</ele><time>2026-04-12T17:13:48.303Z</time></trkpt><trkpt lat="45.4496188" lon="8.3013886"><ele>160.0</ele><time>2026-04-12T17:13:49.312Z</time></trkpt><trkpt lat="45.4495451" lon="8.3009379"><ele>161.0</ele><time>2026-04-12T17:13:50.328Z</time></trkpt><trkpt lat="45.4494699" lon="8.3004902"><ele>161.0</ele><time>2026-04-12T17:13:51.315Z</time></trkpt><trkpt lat="45.4493945" lon="8.3000389"><ele>161.0</ele><time>2026-04-12T17:13:52.313Z</time></trkpt><trkpt lat="45.4493169" lon="8.2995867"><ele>160.0</ele><time>2026-04-12T17:13:53.314Z</time></trkpt><trkpt lat="45.4492378" lon="8.2991359"><ele>159.0</ele><time>2026-04-12T17:13:54.313Z</time></trkpt><trkpt lat="45.4491576" lon="8.2986881"><ele>159.0</ele><time>2026-04-12T17:13:55.325Z</time></trkpt><trkpt lat="45.4490801" lon="8.2982382"><ele>159.0</ele><time>2026-04-12T17:13:56.312Z</time></trkpt><trkpt lat="45.4490026" lon="8.2977856"><ele>159.0</ele><time>2026-04-12T17:13:57.329Z</time></trkpt><trkpt lat="45.4489244" lon="8.2973373"><ele>159.0</ele><time>2026-04-12T17:13:58.321Z</time></trkpt><trkpt lat="45.4488472" lon="8.2968908"><ele>159.0</ele><time>2026-04-12T17:13:59.306Z</time></trkpt><trkpt lat="45.4487732" lon="8.2964442"><ele>159.0</ele><time>2026-04-12T17:14:00.314Z</time></trkpt><trkpt lat="45.4486996" lon="8.2959971"><ele>159.5</ele><time>2026-04-12T17:14:01.311Z</time></trkpt><trkpt lat="45.448625" lon="8.2955499"><ele>160.0</ele><time>2026-04-12T17:14:02.328Z</time></trkpt><trkpt lat="45.4485479" lon="8.2951015"><ele>161.0</ele><time>2026-04-12T17:14:03.308Z</time></trkpt><trkpt lat="45.4484691" lon="8.2946558"><ele>162.0</ele><time>2026-04-12T17:14:04.324Z</time></trkpt><trkpt lat="45.4483905" lon="8.2942137"><ele>162.0</ele><time>2026-04-12T17:14:05.319Z</time></trkpt><trkpt lat="45.4483132" lon="8.2937742"><ele>162.0</ele><time>2026-04-12T17:14:06.309Z</time></trkpt><trkpt lat="45.4482366" lon="8.2933391"><ele>161.5</ele><time>2026-04-12T17:14:07.311Z</time></trkpt><trkpt lat="45.4481622" lon="8.2929046"><ele>161.0</ele><time>2026-04-12T17:14:08.322Z</time></trkpt><trkpt lat="45.4480907" lon="8.2924718"><ele>161.5</ele><time>2026-04-12T17:14:09.308Z</time></trkpt><trkpt lat="45.4480211" lon="8.2920361"><ele>162.0</ele><time>2026-04-12T17:14:10.311Z</time></trkpt><trkpt lat="45.4479499" lon="8.2916012"><ele>161.5</ele><time>2026-04-12T17:14:11.313Z</time></trkpt><trkpt lat="45.4478796" lon="8.2911675"><ele>161.0</ele><time>2026-04-12T17:14:12.321Z</time></trkpt><trkpt lat="45.4478102" lon="8.2907361"><ele>161.0</ele><time>2026-04-12T17:14:13.323Z</time></trkpt><trkpt lat="45.4477402" lon="8.2903047"><ele>161.0</ele><time>2026-04-12T17:14:14.31Z</time></trkpt><trkpt lat="45.4476719" lon="8.2898813"><ele>160.5</ele><time>2026-04-12T17:14:15.315Z</time></trkpt><trkpt lat="45.4476048" lon="8.2894715"><ele>160.0</ele><time>2026-04-12T17:14:16.323Z</time></trkpt><trkpt lat="45.4475352" lon="8.2890744"><ele>159.5</ele><time>2026-04-12T17:14:17.331Z</time></trkpt><trkpt lat="45.4474658" lon="8.2886772"><ele>159.0</ele><time>2026-04-12T17:14:18.308Z</time></trkpt><trkpt lat="45.4473971" lon="8.2882798"><ele>159.5</ele><time>2026-04-12T17:14:19.303Z</time></trkpt><trkpt lat="45.4473308" lon="8.2878872"><ele>160.0</ele><time>2026-04-12T17:14:20.309Z</time></trkpt><trkpt lat="45.4472674" lon="8.2875104"><ele>160.5</ele><time>2026-04-12T17:14:21.328Z</time></trkpt><trkpt lat="45.4472048" lon="8.2871479"><ele>161.0</ele><time>2026-04-12T17:14:22.322Z</time></trkpt><trkpt lat="45.4471458" lon="8.2867938"><ele>161.0</ele><time>2026-04-12T17:14:23.314Z</time></trkpt><trkpt lat="45.4470888" lon="8.2864418"><ele>161.0</ele><time>2026-04-12T17:14:24.307Z</time></trkpt><trkpt lat="45.4470347" lon="8.2860971"><ele>161.0</ele><time>2026-04-12T17:14:25.314Z</time></trkpt><trkpt lat="45.4469833" lon="8.2857583"><ele>161.0</ele><time>2026-04-12T17:14:26.313Z</time></trkpt><trkpt lat="45.4469327" lon="8.2854153"><ele>161.0</ele><time>2026-04-12T17:14:27.324Z</time></trkpt><trkpt lat="45.4468769" lon="8.285063"><ele>161.0</ele><time>2026-04-12T17:14:28.324Z</time></trkpt><trkpt lat="45.4468188" lon="8.2847073"><ele>160.0</ele><time>2026-04-12T17:14:29.312Z</time></trkpt><trkpt lat="45.4467584" lon="8.2843517"><ele>159.0</ele><time>2026-04-12T17:14:30.313Z</time></trkpt><trkpt lat="45.4466994" lon="8.2839953"><ele>158.5</ele><time>2026-04-12T17:14:31.306Z</time></trkpt><trkpt lat="45.4466395" lon="8.2836398"><ele>158.0</ele><time>2026-04-12T17:14:32.308Z</time></trkpt><trkpt lat="45.4465794" lon="8.283279"><ele>158.5</ele><time>2026-04-12T17:14:33.327Z</time></trkpt><trkpt lat="45.4465199" lon="8.2829195"><ele>159.0</ele><time>2026-04-12T17:14:34.308Z</time></trkpt><trkpt lat="45.4464597" lon="8.2825559"><ele>159.0</ele><time>2026-04-12T17:14:35.313Z</time></trkpt><trkpt lat="45.4463996" lon="8.2821892"><ele>159.0</ele><time>2026-04-12T17:14:36.314Z</time></trkpt><trkpt lat="45.4463365" lon="8.2818136"><ele>160.0</ele><time>2026-04-12T17:14:37.312Z</time></trkpt><trkpt lat="45.4462728" lon="8.2814274"><ele>161.0</ele><time>2026-04-12T17:14:38.311Z</time></trkpt><trkpt lat="45.4462103" lon="8.2810224"><ele>161.0</ele><time>2026-04-12T17:14:39.311Z</time></trkpt><trkpt lat="45.4461498" lon="8.2806051"><ele>161.0</ele><time>2026-04-12T17:14:40.328Z</time></trkpt><trkpt lat="45.4460891" lon="8.2801766"><ele>161.0</ele><time>2026-04-12T17:14:41.314Z</time></trkpt><trkpt lat="45.446026" lon="8.2797374"><ele>161.0</ele><time>2026-04-12T17:14:42.312Z</time></trkpt><trkpt lat="45.445953" lon="8.2792901"><ele>161.0</ele><time>2026-04-12T17:14:43.313Z</time></trkpt><trkpt lat="45.4458761" lon="8.2788406"><ele>161.0</ele><time>2026-04-12T17:14:44.309Z</time></trkpt><trkpt lat="45.4457994" lon="8.2783901"><ele>161.5</ele><time>2026-04-12T17:14:45.314Z</time></trkpt><trkpt lat="45.4457249" lon="8.2779366"><ele>162.0</ele><time>2026-04-12T17:14:46.313Z</time></trkpt><trkpt lat="45.4456536" lon="8.2774822"><ele>162.0</ele><time>2026-04-12T17:14:47.314Z</time></trkpt><trkpt lat="45.445586" lon="8.2770307"><ele>162.0</ele><time>2026-04-12T17:14:48.309Z</time></trkpt><trkpt lat="45.4455203" lon="8.2765782"><ele>162.0</ele><time>2026-04-12T17:14:49.312Z</time></trkpt><trkpt lat="45.4454606" lon="8.2761238"><ele>162.0</ele><time>2026-04-12T17:14:50.312Z</time></trkpt><trkpt lat="45.4454021" lon="8.2756686"><ele>162.0</ele><time>2026-04-12T17:14:51.324Z</time></trkpt><trkpt lat="45.4453441" lon="8.2752152"><ele>162.0</ele><time>2026-04-12T17:14:52.31Z</time></trkpt><trkpt lat="45.4452846" lon="8.2747639"><ele>162.5</ele><time>2026-04-12T17:14:53.314Z</time></trkpt><trkpt lat="45.4452222" lon="8.2743128"><ele>163.0</ele><time>2026-04-12T17:14:54.304Z</time></trkpt><trkpt lat="45.4451591" lon="8.2738623"><ele>162.0</ele><time>2026-04-12T17:14:55.326Z</time></trkpt><trkpt lat="45.445094" lon="8.2734137"><ele>161.0</ele><time>2026-04-12T17:14:56.309Z</time></trkpt><trkpt lat="45.4450285" lon="8.2729616"><ele>161.0</ele><time>2026-04-12T17:14:57.326Z</time></trkpt><trkpt lat="45.4449622" lon="8.2725117"><ele>161.0</ele><time>2026-04-12T17:14:58.323Z</time></trkpt><trkpt lat="45.4448963" lon="8.2720613"><ele>161.0</ele><time>2026-04-12T17:14:59.304Z</time></trkpt><trkpt lat="45.4448326" lon="8.2716101"><ele>161.0</ele><time>2026-04-12T17:15:00.312Z</time></trkpt><trkpt lat="45.4447704" lon="8.2711586"><ele>161.5</ele><time>2026-04-12T17:15:01.312Z</time></trkpt><trkpt lat="45.4447067" lon="8.2707077"><ele>162.0</ele><time>2026-04-12T17:15:02.322Z</time></trkpt><trkpt lat="45.4446379" lon="8.2702592"><ele>161.0</ele><time>2026-04-12T17:15:03.31Z</time></trkpt><trkpt lat="45.4445665" lon="8.26981"><ele>160.0</ele><time>2026-04-12T17:15:04.311Z</time></trkpt><trkpt lat="45.4444925" lon="8.2693637"><ele>163.0</ele><time>2026-04-12T17:15:05.312Z</time></trkpt><trkpt lat="45.4444154" lon="8.2689192"><ele>166.0</ele><time>2026-04-12T17:15:06.306Z</time></trkpt><trkpt lat="45.4443369" lon="8.2684749"><ele>167.0</ele><time>2026-04-12T17:15:07.311Z</time></trkpt><trkpt lat="45.4442575" lon="8.2680319"><ele>168.0</ele><time>2026-04-12T17:15:08.312Z</time></trkpt><trkpt lat="45.4441781" lon="8.2675913"><ele>168.0</ele><time>2026-04-12T17:15:09.311Z</time></trkpt><trkpt lat="45.4440982" lon="8.2671488"><ele>168.0</ele><time>2026-04-12T17:15:10.311Z</time></trkpt><trkpt lat="45.4440168" lon="8.2667079"><ele>168.0</ele><time>2026-04-12T17:15:11.313Z</time></trkpt><trkpt lat="45.4439352" lon="8.2662727"><ele>168.0</ele><time>2026-04-12T17:15:12.305Z</time></trkpt><trkpt lat="45.4438529" lon="8.2658375"><ele>170.0</ele><time>2026-04-12T17:15:13.308Z</time></trkpt><trkpt lat="45.4437706" lon="8.265402"><ele>172.0</ele><time>2026-04-12T17:15:14.309Z</time></trkpt><trkpt lat="45.4436883" lon="8.2649676"><ele>172.0</ele><time>2026-04-12T17:15:15.313Z</time></trkpt><trkpt lat="45.4436047" lon="8.2645359"><ele>172.0</ele><time>2026-04-12T17:15:16.32Z</time></trkpt><trkpt lat="45.4435204" lon="8.264104"><ele>171.5</ele><time>2026-04-12T17:15:17.308Z</time></trkpt><trkpt lat="45.4434348" lon="8.2636728"><ele>171.0</ele><time>2026-04-12T17:15:18.307Z</time></trkpt><trkpt lat="45.44335" lon="8.2632423"><ele>171.5</ele><time>2026-04-12T17:15:19.303Z</time></trkpt><trkpt lat="45.4432668" lon="8.2628121"><ele>172.0</ele><time>2026-04-12T17:15:20.33Z</time></trkpt><trkpt lat="45.4431851" lon="8.2623825"><ele>171.5</ele><time>2026-04-12T17:15:21.315Z</time></trkpt><trkpt lat="45.4431058" lon="8.2619515"><ele>171.0</ele><time>2026-04-12T17:15:22.333Z</time></trkpt><trkpt lat="45.4430261" lon="8.2615212"><ele>172.0</ele><time>2026-04-12T17:15:23.315Z</time></trkpt><trkpt lat="45.4429451" lon="8.2610949"><ele>173.0</ele><time>2026-04-12T17:15:24.315Z</time></trkpt><trkpt lat="45.4428643" lon="8.2606703"><ele>173.0</ele><time>2026-04-12T17:15:25.318Z</time></trkpt><trkpt lat="45.442783" lon="8.260244"><ele>173.0</ele><time>2026-04-12T17:15:26.313Z</time></trkpt><trkpt lat="45.4427028" lon="8.2598172"><ele>173.0</ele><time>2026-04-12T17:15:27.33Z</time></trkpt><trkpt lat="45.4426264" lon="8.2593875"><ele>173.0</ele><time>2026-04-12T17:15:28.325Z</time></trkpt><trkpt lat="45.4425523" lon="8.2589567"><ele>173.5</ele><time>2026-04-12T17:15:29.307Z</time></trkpt><trkpt lat="45.44248" lon="8.258525"><ele>174.0</ele><time>2026-04-12T17:15:30.322Z</time></trkpt><trkpt lat="45.4424087" lon="8.2580899"><ele>174.0</ele><time>2026-04-12T17:15:31.312Z</time></trkpt><trkpt lat="45.4423364" lon="8.2576535"><ele>174.0</ele><time>2026-04-12T17:15:32.314Z</time></trkpt><trkpt lat="45.4422649" lon="8.2572194"><ele>173.5</ele><time>2026-04-12T17:15:33.314Z</time></trkpt><trkpt lat="45.4421915" lon="8.2567861"><ele>173.0</ele><time>2026-04-12T17:15:34.32Z</time></trkpt><trkpt lat="45.4421174" lon="8.2563525"><ele>173.0</ele><time>2026-04-12T17:15:35.308Z</time></trkpt><trkpt lat="45.4420432" lon="8.2559181"><ele>173.0</ele><time>2026-04-12T17:15:36.328Z</time></trkpt><trkpt lat="45.4419689" lon="8.255483"><ele>173.0</ele><time>2026-04-12T17:15:37.311Z</time></trkpt><trkpt lat="45.441895" lon="8.2550438"><ele>173.0</ele><time>2026-04-12T17:15:38.311Z</time></trkpt><trkpt lat="45.4418229" lon="8.2546029"><ele>173.0</ele><time>2026-04-12T17:15:39.306Z</time></trkpt><trkpt lat="45.4417516" lon="8.2541616"><ele>173.0</ele><time>2026-04-12T17:15:40.322Z</time></trkpt><trkpt lat="45.4416802" lon="8.2537204"><ele>173.0</ele><time>2026-04-12T17:15:41.317Z</time></trkpt><trkpt lat="45.4416087" lon="8.2532785"><ele>173.0</ele><time>2026-04-12T17:15:42.324Z</time></trkpt><trkpt lat="45.441537" lon="8.2528345"><ele>173.5</ele><time>2026-04-12T17:15:43.323Z</time></trkpt><trkpt lat="45.441465" lon="8.2523897"><ele>174.0</ele><time>2026-04-12T17:15:44.33Z</time></trkpt><trkpt lat="45.4413916" lon="8.2519451"><ele>174.0</ele><time>2026-04-12T17:15:45.313Z</time></trkpt><trkpt lat="45.4413183" lon="8.2514973"><ele>174.0</ele><time>2026-04-12T17:15:46.314Z</time></trkpt><trkpt lat="45.4412446" lon="8.2510525"><ele>173.0</ele><time>2026-04-12T17:15:47.305Z</time></trkpt><trkpt lat="45.441172" lon="8.2506059"><ele>172.0</ele><time>2026-04-12T17:15:48.312Z</time></trkpt><trkpt lat="45.4411004" lon="8.2501612"><ele>173.0</ele><time>2026-04-12T17:15:49.31Z</time></trkpt><trkpt lat="45.4410327" lon="8.2497162"><ele>174.0</ele><time>2026-04-12T17:15:50.306Z</time></trkpt><trkpt lat="45.4409659" lon="8.2492732"><ele>174.0</ele><time>2026-04-12T17:15:51.336Z</time></trkpt><trkpt lat="45.4408992" lon="8.2488334"><ele>174.0</ele><time>2026-04-12T17:15:52.309Z</time></trkpt><trkpt lat="45.4408308" lon="8.2483987"><ele>173.5</ele><time>2026-04-12T17:15:53.3Z</time></trkpt><trkpt lat="45.440761" lon="8.2479667"><ele>173.0</ele><time>2026-04-12T17:15:54.321Z</time></trkpt><trkpt lat="45.4406888" lon="8.2475375"><ele>174.5</ele><time>2026-04-12T17:15:55.305Z</time></trkpt><trkpt lat="45.4406172" lon="8.2471154"><ele>176.0</ele><time>2026-04-12T17:15:56.333Z</time></trkpt><trkpt lat="45.4405463" lon="8.2466949"><ele>176.0</ele><time>2026-04-12T17:15:57.313Z</time></trkpt><trkpt lat="45.4404744" lon="8.2462786"><ele>176.0</ele><time>2026-04-12T17:15:58.312Z</time></trkpt><trkpt lat="45.4404035" lon="8.2458652"><ele>177.5</ele><time>2026-04-12T17:15:59.312Z</time></trkpt><trkpt lat="45.4403345" lon="8.2454567"><ele>179.0</ele><time>2026-04-12T17:16:00.306Z</time></trkpt><trkpt lat="45.4402666" lon="8.2450551"><ele>179.0</ele><time>2026-04-12T17:16:01.314Z</time></trkpt><trkpt lat="45.4402011" lon="8.2446617"><ele>179.0</ele><time>2026-04-12T17:16:02.306Z</time></trkpt><trkpt lat="45.440138" lon="8.2442763"><ele>179.5</ele><time>2026-04-12T17:16:03.323Z</time></trkpt><trkpt lat="45.4400748" lon="8.2438927"><ele>180.0</ele><time>2026-04-12T17:16:04.313Z</time></trkpt><trkpt lat="45.4400063" lon="8.2434998"><ele>180.5</ele><time>2026-04-12T17:16:05.322Z</time></trkpt><trkpt lat="45.4399357" lon="8.2430967"><ele>181.0</ele><time>2026-04-12T17:16:06.323Z</time></trkpt><trkpt lat="45.4398635" lon="8.2426822"><ele>180.0</ele><time>2026-04-12T17:16:07.306Z</time></trkpt><trkpt lat="45.4397911" lon="8.2422583"><ele>179.0</ele><time>2026-04-12T17:16:08.311Z</time></trkpt><trkpt lat="45.4397187" lon="8.2418296"><ele>179.0</ele><time>2026-04-12T17:16:09.298Z</time></trkpt><trkpt lat="45.4396479" lon="8.241398"><ele>179.0</ele><time>2026-04-12T17:16:10.322Z</time></trkpt><trkpt lat="45.4395828" lon="8.2409643"><ele>180.0</ele><time>2026-04-12T17:16:11.314Z</time></trkpt><trkpt lat="45.43952" lon="8.2405327"><ele>181.0</ele><time>2026-04-12T17:16:12.311Z</time></trkpt><trkpt lat="45.4394576" lon="8.2401019"><ele>181.0</ele><time>2026-04-12T17:16:13.306Z</time></trkpt><trkpt lat="45.4393968" lon="8.2396722"><ele>181.0</ele><time>2026-04-12T17:16:14.312Z</time></trkpt><trkpt lat="45.4393358" lon="8.2392455"><ele>180.0</ele><time>2026-04-12T17:16:15.314Z</time></trkpt><trkpt lat="45.4392735" lon="8.238819"><ele>179.0</ele><time>2026-04-12T17:16:16.313Z</time></trkpt><trkpt lat="45.4392072" lon="8.2383934"><ele>179.0</ele><time>2026-04-12T17:16:17.31Z</time></trkpt><trkpt lat="45.4391376" lon="8.2379658"><ele>179.0</ele><time>2026-04-12T17:16:18.333Z</time></trkpt><trkpt lat="45.4390673" lon="8.2375373"><ele>179.0</ele><time>2026-04-12T17:16:19.331Z</time></trkpt><trkpt lat="45.4389962" lon="8.2371111"><ele>179.0</ele><time>2026-04-12T17:16:20.314Z</time></trkpt><trkpt lat="45.4389252" lon="8.2366848"><ele>178.5</ele><time>2026-04-12T17:16:21.31Z</time></trkpt><trkpt lat="45.4388542" lon="8.2362628"><ele>178.0</ele><time>2026-04-12T17:16:22.306Z</time></trkpt><trkpt lat="45.4387837" lon="8.2358441"><ele>178.5</ele><time>2026-04-12T17:16:23.313Z</time></trkpt><trkpt lat="45.4387147" lon="8.2354268"><ele>179.0</ele><time>2026-04-12T17:16:24.32Z</time></trkpt><trkpt lat="45.4386464" lon="8.2350101"><ele>178.5</ele><time>2026-04-12T17:16:25.307Z</time></trkpt><trkpt lat="45.4385788" lon="8.2345935"><ele>178.0</ele><time>2026-04-12T17:16:26.306Z</time></trkpt><trkpt lat="45.438512" lon="8.2341769"><ele>178.5</ele><time>2026-04-12T17:16:27.299Z</time></trkpt><trkpt lat="45.4384445" lon="8.2337599"><ele>179.0</ele><time>2026-04-12T17:16:28.319Z</time></trkpt><trkpt lat="45.4383773" lon="8.2333425"><ele>178.5</ele><time>2026-04-12T17:16:29.311Z</time></trkpt><trkpt lat="45.4383083" lon="8.2329225"><ele>178.0</ele><time>2026-04-12T17:16:30.312Z</time></trkpt><trkpt lat="45.4382379" lon="8.2324997"><ele>179.0</ele><time>2026-04-12T17:16:31.301Z</time></trkpt><trkpt lat="45.4381655" lon="8.2320767"><ele>180.0</ele><time>2026-04-12T17:16:32.312Z</time></trkpt><trkpt lat="45.4380921" lon="8.2316528"><ele>180.0</ele><time>2026-04-12T17:16:33.324Z</time></trkpt><trkpt lat="45.4380187" lon="8.2312248"><ele>180.0</ele><time>2026-04-12T17:16:34.31Z</time></trkpt><trkpt lat="45.4379444" lon="8.2307963"><ele>181.0</ele><time>2026-04-12T17:16:35.301Z</time></trkpt><trkpt lat="45.4378688" lon="8.2303655"><ele>182.0</ele><time>2026-04-12T17:16:36.312Z</time></trkpt><trkpt lat="45.4377912" lon="8.2299323"><ele>182.5</ele><time>2026-04-12T17:16:37.329Z</time></trkpt><trkpt lat="45.4377134" lon="8.2295003"><ele>183.0</ele><time>2026-04-12T17:16:38.306Z</time></trkpt><trkpt lat="45.437635" lon="8.229067"><ele>184.0</ele><time>2026-04-12T17:16:39.312Z</time></trkpt><trkpt lat="45.4375495" lon="8.2286286"><ele>185.0</ele><time>2026-04-12T17:16:40.317Z</time></trkpt><trkpt lat="45.4374628" lon="8.2281892"><ele>185.5</ele><time>2026-04-12T17:16:41.314Z</time></trkpt><trkpt lat="45.4373787" lon="8.2277489"><ele>186.0</ele><time>2026-04-12T17:16:42.326Z</time></trkpt><trkpt lat="45.4372943" lon="8.2273137"><ele>185.5</ele><time>2026-04-12T17:16:43.313Z</time></trkpt><trkpt lat="45.4372057" lon="8.2268843"><ele>185.0</ele><time>2026-04-12T17:16:44.304Z</time></trkpt><trkpt lat="45.4371166" lon="8.2264557"><ele>185.0</ele><time>2026-04-12T17:16:45.316Z</time></trkpt><trkpt lat="45.4370266" lon="8.2260308"><ele>185.0</ele><time>2026-04-12T17:16:46.31Z</time></trkpt><trkpt lat="45.4369352" lon="8.2256088"><ele>185.0</ele><time>2026-04-12T17:16:47.325Z</time></trkpt><trkpt lat="45.4368448" lon="8.225187"><ele>185.0</ele><time>2026-04-12T17:16:48.321Z</time></trkpt><trkpt lat="45.4367542" lon="8.2247657"><ele>185.0</ele><time>2026-04-12T17:16:49.307Z</time></trkpt><trkpt lat="45.4366623" lon="8.2243445"><ele>185.0</ele><time>2026-04-12T17:16:50.313Z</time></trkpt><trkpt lat="45.4365674" lon="8.223926"><ele>185.0</ele><time>2026-04-12T17:16:51.314Z</time></trkpt><trkpt lat="45.4364701" lon="8.2235092"><ele>185.0</ele><time>2026-04-12T17:16:52.327Z</time></trkpt><trkpt lat="45.4363707" lon="8.2230934"><ele>185.0</ele><time>2026-04-12T17:16:53.313Z</time></trkpt><trkpt lat="45.4362709" lon="8.2226786"><ele>185.0</ele><time>2026-04-12T17:16:54.312Z</time></trkpt><trkpt lat="45.4361697" lon="8.222266"><ele>185.0</ele><time>2026-04-12T17:16:55.313Z</time></trkpt><trkpt lat="45.4360679" lon="8.2218535"><ele>185.0</ele><time>2026-04-12T17:16:56.309Z</time></trkpt><trkpt lat="45.4359673" lon="8.2214394"><ele>185.0</ele><time>2026-04-12T17:16:57.321Z</time></trkpt><trkpt lat="45.4358686" lon="8.2210258"><ele>185.0</ele><time>2026-04-12T17:16:58.308Z</time></trkpt><trkpt lat="45.4357707" lon="8.22061"><ele>185.0</ele><time>2026-04-12T17:16:59.331Z</time></trkpt><trkpt lat="45.4356698" lon="8.2201924"><ele>185.0</ele><time>2026-04-12T17:17:00.32Z</time></trkpt><trkpt lat="45.4355671" lon="8.2197773"><ele>185.5</ele><time>2026-04-12T17:17:01.311Z</time></trkpt><trkpt lat="45.4354621" lon="8.219364"><ele>186.0</ele><time>2026-04-12T17:17:02.32Z</time></trkpt><trkpt lat="45.4353573" lon="8.2189504"><ele>186.0</ele><time>2026-04-12T17:17:03.312Z</time></trkpt><trkpt lat="45.4352537" lon="8.2185358"><ele>186.0</ele><time>2026-04-12T17:17:04.33Z</time></trkpt><trkpt lat="45.4351496" lon="8.218118"><ele>185.5</ele><time>2026-04-12T17:17:05.308Z</time></trkpt><trkpt lat="45.4350459" lon="8.2177003"><ele>185.0</ele><time>2026-04-12T17:17:06.313Z</time></trkpt><trkpt lat="45.4349407" lon="8.2172831"><ele>185.0</ele><time>2026-04-12T17:17:07.3Z</time></trkpt><trkpt lat="45.4348324" lon="8.2168684"><ele>185.0</ele><time>2026-04-12T17:17:08.303Z</time></trkpt><trkpt lat="45.4347192" lon="8.216455"><ele>185.5</ele><time>2026-04-12T17:17:09.311Z</time></trkpt><trkpt lat="45.4346033" lon="8.2160433"><ele>186.0</ele><time>2026-04-12T17:17:10.306Z</time></trkpt><trkpt lat="45.4344863" lon="8.2156329"><ele>186.0</ele><time>2026-04-12T17:17:11.312Z</time></trkpt><trkpt lat="45.4343692" lon="8.215224"><ele>186.0</ele><time>2026-04-12T17:17:12.324Z</time></trkpt><trkpt lat="45.4342516" lon="8.2148136"><ele>186.0</ele><time>2026-04-12T17:17:13.33Z</time></trkpt><trkpt lat="45.4341343" lon="8.2144049"><ele>186.0</ele><time>2026-04-12T17:17:14.311Z</time></trkpt><trkpt lat="45.4340148" lon="8.2140003"><ele>186.0</ele><time>2026-04-12T17:17:15.303Z</time></trkpt><trkpt lat="45.4338966" lon="8.2135991"><ele>186.0</ele><time>2026-04-12T17:17:16.307Z</time></trkpt><trkpt lat="45.4337793" lon="8.2132019"><ele>186.0</ele><time>2026-04-12T17:17:17.329Z</time></trkpt><trkpt lat="45.4336618" lon="8.2128059"><ele>186.0</ele><time>2026-04-12T17:17:18.318Z</time></trkpt><trkpt lat="45.4335433" lon="8.2124153"><ele>186.0</ele><time>2026-04-12T17:17:19.326Z</time></trkpt><trkpt lat="45.4334244" lon="8.2120257"><ele>186.0</ele><time>2026-04-12T17:17:20.307Z</time></trkpt><trkpt lat="45.4333039" lon="8.2116388"><ele>186.0</ele><time>2026-04-12T17:17:21.313Z</time></trkpt><trkpt lat="45.4331833" lon="8.2112523"><ele>186.0</ele><time>2026-04-12T17:17:22.311Z</time></trkpt><trkpt lat="45.4330619" lon="8.2108683"><ele>187.0</ele><time>2026-04-12T17:17:23.319Z</time></trkpt><trkpt lat="45.432939" lon="8.2104845"><ele>188.0</ele><time>2026-04-12T17:17:24.307Z</time></trkpt><trkpt lat="45.4328138" lon="8.2101028"><ele>188.5</ele><time>2026-04-12T17:17:25.328Z</time></trkpt><trkpt lat="45.4326874" lon="8.2097208"><ele>189.0</ele><time>2026-04-12T17:17:26.313Z</time></trkpt><trkpt lat="45.4325583" lon="8.2093414"><ele>189.5</ele><time>2026-04-12T17:17:27.311Z</time></trkpt><trkpt lat="45.4324292" lon="8.2089609"><ele>190.0</ele><time>2026-04-12T17:17:28.306Z</time></trkpt><trkpt lat="45.4323003" lon="8.2085798"><ele>190.0</ele><time>2026-04-12T17:17:29.307Z</time></trkpt><trkpt lat="45.4321713" lon="8.2082015"><ele>190.0</ele><time>2026-04-12T17:17:30.307Z</time></trkpt><trkpt lat="45.432042" lon="8.2078232"><ele>190.0</ele><time>2026-04-12T17:17:31.311Z</time></trkpt><trkpt lat="45.4319109" lon="8.2074458"><ele>190.0</ele><time>2026-04-12T17:17:32.302Z</time></trkpt><trkpt lat="45.4317789" lon="8.2070694"><ele>190.0</ele><time>2026-04-12T17:17:33.319Z</time></trkpt><trkpt lat="45.4316445" lon="8.2066952"><ele>190.0</ele><time>2026-04-12T17:17:34.322Z</time></trkpt><trkpt lat="45.4315084" lon="8.2063223"><ele>190.0</ele><time>2026-04-12T17:17:35.3Z</time></trkpt><trkpt lat="45.4313724" lon="8.2059511"><ele>190.0</ele><time>2026-04-12T17:17:36.303Z</time></trkpt><trkpt lat="45.4312361" lon="8.205579"><ele>190.0</ele><time>2026-04-12T17:17:37.304Z</time></trkpt><trkpt lat="45.4311" lon="8.2052038"><ele>190.0</ele><time>2026-04-12T17:17:38.322Z</time></trkpt><trkpt lat="45.4309638" lon="8.2048278"><ele>189.5</ele><time>2026-04-12T17:17:39.321Z</time></trkpt><trkpt lat="45.4308294" lon="8.2044521"><ele>189.0</ele><time>2026-04-12T17:17:40.325Z</time></trkpt><trkpt lat="45.430695" lon="8.2040789"><ele>189.0</ele><time>2026-04-12T17:17:41.307Z</time></trkpt><trkpt lat="45.4305609" lon="8.203705"><ele>189.0</ele><time>2026-04-12T17:17:42.308Z</time></trkpt><trkpt lat="45.4304263" lon="8.2033312"><ele>189.0</ele><time>2026-04-12T17:17:43.313Z</time></trkpt><trkpt lat="45.4302905" lon="8.2029563"><ele>189.0</ele><time>2026-04-12T17:17:44.313Z</time></trkpt><trkpt lat="45.430154" lon="8.2025804"><ele>188.5</ele><time>2026-04-12T17:17:45.309Z</time></trkpt><trkpt lat="45.4300186" lon="8.2022014"><ele>188.0</ele><time>2026-04-12T17:17:46.309Z</time></trkpt><trkpt lat="45.4298835" lon="8.2018209"><ele>188.5</ele><time>2026-04-12T17:17:47.307Z</time></trkpt><trkpt lat="45.4297468" lon="8.2014371"><ele>189.0</ele><time>2026-04-12T17:17:48.312Z</time></trkpt><trkpt lat="45.429607" lon="8.2010546"><ele>189.0</ele><time>2026-04-12T17:17:49.31Z</time></trkpt><trkpt lat="45.4294649" lon="8.2006742"><ele>189.0</ele><time>2026-04-12T17:17:50.313Z</time></trkpt><trkpt lat="45.4293221" lon="8.2002915"><ele>189.5</ele><time>2026-04-12T17:17:51.315Z</time></trkpt><trkpt lat="45.4291766" lon="8.1999074"><ele>190.0</ele><time>2026-04-12T17:17:52.307Z</time></trkpt><trkpt lat="45.4290292" lon="8.1995274"><ele>190.5</ele><time>2026-04-12T17:17:53.313Z</time></trkpt><trkpt lat="45.4288804" lon="8.1991508"><ele>191.0</ele><time>2026-04-12T17:17:54.323Z</time></trkpt><trkpt lat="45.4287313" lon="8.1987752"><ele>191.5</ele><time>2026-04-12T17:17:55.313Z</time></trkpt><trkpt lat="45.4285811" lon="8.1984011"><ele>192.0</ele><time>2026-04-12T17:17:56.329Z</time></trkpt><trkpt lat="45.4284304" lon="8.1980307"><ele>192.0</ele><time>2026-04-12T17:17:57.313Z</time></trkpt><trkpt lat="45.4282778" lon="8.1976594"><ele>192.0</ele><time>2026-04-12T17:17:58.309Z</time></trkpt><trkpt lat="45.4281248" lon="8.1972924"><ele>191.0</ele><time>2026-04-12T17:17:59.324Z</time></trkpt><trkpt lat="45.4279708" lon="8.1969267"><ele>190.0</ele><time>2026-04-12T17:18:00.325Z</time></trkpt><trkpt lat="45.4278104" lon="8.1965576"><ele>190.0</ele><time>2026-04-12T17:18:01.336Z</time></trkpt><trkpt lat="45.4276474" lon="8.1961888"><ele>190.0</ele><time>2026-04-12T17:18:02.323Z</time></trkpt><trkpt lat="45.4274896" lon="8.1958327"><ele>191.0</ele><time>2026-04-12T17:18:03.32Z</time></trkpt><trkpt lat="45.4273399" lon="8.1954939"><ele>192.0</ele><time>2026-04-12T17:18:04.311Z</time></trkpt><trkpt lat="45.4271949" lon="8.195171"><ele>191.5</ele><time>2026-04-12T17:18:05.313Z</time></trkpt><trkpt lat="45.4270499" lon="8.194856"><ele>191.0</ele><time>2026-04-12T17:18:06.324Z</time></trkpt><trkpt lat="45.4269009" lon="8.1945386"><ele>190.5</ele><time>2026-04-12T17:18:07.324Z</time></trkpt><trkpt lat="45.4267439" lon="8.1942112"><ele>190.0</ele><time>2026-04-12T17:18:08.304Z</time></trkpt><trkpt lat="45.4265816" lon="8.1938721"><ele>190.0</ele><time>2026-04-12T17:18:09.306Z</time></trkpt><trkpt lat="45.4264175" lon="8.193526"><ele>190.0</ele><time>2026-04-12T17:18:10.332Z</time></trkpt><trkpt lat="45.4262517" lon="8.193175"><ele>189.5</ele><time>2026-04-12T17:18:11.31Z</time></trkpt><trkpt lat="45.4260847" lon="8.1928163"><ele>189.0</ele><time>2026-04-12T17:18:12.314Z</time></trkpt><trkpt lat="45.4259161" lon="8.1924536"><ele>188.0</ele><time>2026-04-12T17:18:13.311Z</time></trkpt><trkpt lat="45.4257435" lon="8.1920864"><ele>187.0</ele><time>2026-04-12T17:18:14.31Z</time></trkpt><trkpt lat="45.4255656" lon="8.1917172"><ele>187.0</ele><time>2026-04-12T17:18:15.312Z</time></trkpt><trkpt lat="45.4253857" lon="8.191349"><ele>187.0</ele><time>2026-04-12T17:18:16.309Z</time></trkpt><trkpt lat="45.4252039" lon="8.1909846"><ele>187.0</ele><time>2026-04-12T17:18:17.312Z</time></trkpt><trkpt lat="45.4250198" lon="8.1906214"><ele>187.0</ele><time>2026-04-12T17:18:18.31Z</time></trkpt><trkpt lat="45.4248343" lon="8.1902624"><ele>187.0</ele><time>2026-04-12T17:18:19.311Z</time></trkpt><trkpt lat="45.4246469" lon="8.1899065"><ele>187.0</ele><time>2026-04-12T17:18:20.312Z</time></trkpt><trkpt lat="45.4244584" lon="8.189551"><ele>187.0</ele><time>2026-04-12T17:18:21.328Z</time></trkpt><trkpt lat="45.4242683" lon="8.1891954"><ele>187.0</ele><time>2026-04-12T17:18:22.312Z</time></trkpt><trkpt lat="45.4240774" lon="8.1888434"><ele>187.5</ele><time>2026-04-12T17:18:23.314Z</time></trkpt><trkpt lat="45.4238858" lon="8.1884975"><ele>188.0</ele><time>2026-04-12T17:18:24.31Z</time></trkpt><trkpt lat="45.4236944" lon="8.1881557"><ele>188.0</ele><time>2026-04-12T17:18:25.299Z</time></trkpt><trkpt lat="45.4235033" lon="8.1878199"><ele>188.0</ele><time>2026-04-12T17:18:26.306Z</time></trkpt><trkpt lat="45.4233106" lon="8.1874827"><ele>188.5</ele><time>2026-04-12T17:18:27.31Z</time></trkpt><trkpt lat="45.4231174" lon="8.1871468"><ele>189.0</ele><time>2026-04-12T17:18:28.308Z</time></trkpt><trkpt lat="45.4229243" lon="8.1868106"><ele>188.5</ele><time>2026-04-12T17:18:29.325Z</time></trkpt><trkpt lat="45.422731" lon="8.1864784"><ele>188.0</ele><time>2026-04-12T17:18:30.306Z</time></trkpt><trkpt lat="45.4225368" lon="8.1861491"><ele>188.0</ele><time>2026-04-12T17:18:31.337Z</time></trkpt><trkpt lat="45.4223416" lon="8.1858205"><ele>188.0</ele><time>2026-04-12T17:18:32.305Z</time></trkpt><trkpt lat="45.4221452" lon="8.185493"><ele>188.5</ele><time>2026-04-12T17:18:33.311Z</time></trkpt><trkpt lat="45.4219458" lon="8.1851666"><ele>189.0</ele><time>2026-04-12T17:18:34.321Z</time></trkpt><trkpt lat="45.4217423" lon="8.1848427"><ele>189.0</ele><time>2026-04-12T17:18:35.313Z</time></trkpt><trkpt lat="45.4215374" lon="8.1845185"><ele>189.0</ele><time>2026-04-12T17:18:36.313Z</time></trkpt><trkpt lat="45.4213323" lon="8.1841924"><ele>189.0</ele><time>2026-04-12T17:18:37.309Z</time></trkpt><trkpt lat="45.4211255" lon="8.1838689"><ele>189.0</ele><time>2026-04-12T17:18:38.321Z</time></trkpt><trkpt lat="45.420918" lon="8.1835485"><ele>189.0</ele><time>2026-04-12T17:18:39.303Z</time></trkpt><trkpt lat="45.4207095" lon="8.1832252"><ele>189.0</ele><time>2026-04-12T17:18:40.309Z</time></trkpt><trkpt lat="45.4204995" lon="8.1829055"><ele>188.5</ele><time>2026-04-12T17:18:41.327Z</time></trkpt><trkpt lat="45.4202875" lon="8.1825848"><ele>188.0</ele><time>2026-04-12T17:18:42.314Z</time></trkpt><trkpt lat="45.4200742" lon="8.1822656"><ele>188.0</ele><time>2026-04-12T17:18:43.302Z</time></trkpt><trkpt lat="45.4198597" lon="8.1819462"><ele>188.0</ele><time>2026-04-12T17:18:44.307Z</time></trkpt><trkpt lat="45.4196441" lon="8.1816273"><ele>189.0</ele><time>2026-04-12T17:18:45.313Z</time></trkpt><trkpt lat="45.4194268" lon="8.1813057"><ele>190.0</ele><time>2026-04-12T17:18:46.314Z</time></trkpt><trkpt lat="45.4192104" lon="8.180983"><ele>189.5</ele><time>2026-04-12T17:18:47.322Z</time></trkpt><trkpt lat="45.4189949" lon="8.1806625"><ele>189.0</ele><time>2026-04-12T17:18:48.314Z</time></trkpt><trkpt lat="45.4187811" lon="8.180342"><ele>190.0</ele><time>2026-04-12T17:18:49.326Z</time></trkpt><trkpt lat="45.4185675" lon="8.1800241"><ele>191.0</ele><time>2026-04-12T17:18:50.308Z</time></trkpt><trkpt lat="45.418354" lon="8.1797072"><ele>191.0</ele><time>2026-04-12T17:18:51.31Z</time></trkpt><trkpt lat="45.4181397" lon="8.1793923"><ele>191.0</ele><time>2026-04-12T17:18:52.302Z</time></trkpt><trkpt lat="45.4179261" lon="8.1790814"><ele>194.0</ele><time>2026-04-12T17:18:53.312Z</time></trkpt><trkpt lat="45.4177138" lon="8.1787737"><ele>197.0</ele><time>2026-04-12T17:18:54.312Z</time></trkpt><trkpt lat="45.417506" lon="8.1784662"><ele>198.0</ele><time>2026-04-12T17:18:55.314Z</time></trkpt><trkpt lat="45.4173008" lon="8.1781646"><ele>199.0</ele><time>2026-04-12T17:18:56.303Z</time></trkpt><trkpt lat="45.4170954" lon="8.1778633"><ele>206.0</ele><time>2026-04-12T17:18:57.313Z</time></trkpt><trkpt lat="45.4168881" lon="8.1775637"><ele>213.0</ele><time>2026-04-12T17:18:58.307Z</time></trkpt><trkpt lat="45.4166774" lon="8.177262"><ele>213.0</ele><time>2026-04-12T17:18:59.314Z</time></trkpt><trkpt lat="45.4164662" lon="8.1769625"><ele>213.0</ele><time>2026-04-12T17:19:00.323Z</time></trkpt><trkpt lat="45.4162529" lon="8.1766636"><ele>213.0</ele><time>2026-04-12T17:19:01.328Z</time></trkpt><trkpt lat="45.4160344" lon="8.176364"><ele>213.0</ele><time>2026-04-12T17:19:02.308Z</time></trkpt><trkpt lat="45.4158147" lon="8.176062"><ele>213.0</ele><time>2026-04-12T17:19:03.315Z</time></trkpt><trkpt lat="45.4155959" lon="8.1757609"><ele>213.0</ele><time>2026-04-12T17:19:04.313Z</time></trkpt><trkpt lat="45.415378" lon="8.17546"><ele>212.5</ele><time>2026-04-12T17:19:05.309Z</time></trkpt><trkpt lat="45.4151594" lon="8.1751614"><ele>212.0</ele><time>2026-04-12T17:19:06.302Z</time></trkpt><trkpt lat="45.4149402" lon="8.1748663"><ele>212.5</ele><time>2026-04-12T17:19:07.308Z</time></trkpt><trkpt lat="45.4147181" lon="8.1745736"><ele>213.0</ele><time>2026-04-12T17:19:08.319Z</time></trkpt><trkpt lat="45.414495" lon="8.1742833"><ele>212.0</ele><time>2026-04-12T17:19:09.31Z</time></trkpt><trkpt lat="45.4142727" lon="8.1739929"><ele>211.0</ele><time>2026-04-12T17:19:10.311Z</time></trkpt><trkpt lat="45.4140487" lon="8.1737056"><ele>211.0</ele><time>2026-04-12T17:19:11.313Z</time></trkpt><trkpt lat="45.4138242" lon="8.1734183"><ele>211.0</ele><time>2026-04-12T17:19:12.314Z</time></trkpt><trkpt lat="45.4135988" lon="8.1731301"><ele>210.0</ele><time>2026-04-12T17:19:13.309Z</time></trkpt><trkpt lat="45.4133731" lon="8.17284"><ele>209.0</ele><time>2026-04-12T17:19:14.313Z</time></trkpt><trkpt lat="45.4131465" lon="8.17255"><ele>207.5</ele><time>2026-04-12T17:19:15.312Z</time></trkpt><trkpt lat="45.4129181" lon="8.1722588"><ele>206.0</ele><time>2026-04-12T17:19:16.323Z</time></trkpt><trkpt lat="45.4126867" lon="8.1719686"><ele>206.0</ele><time>2026-04-12T17:19:17.305Z</time></trkpt><trkpt lat="45.4124541" lon="8.1716787"><ele>206.0</ele><time>2026-04-12T17:19:18.311Z</time></trkpt><trkpt lat="45.4122199" lon="8.1713913"><ele>204.0</ele><time>2026-04-12T17:19:19.308Z</time></trkpt><trkpt lat="45.4119845" lon="8.1711077"><ele>202.0</ele><time>2026-04-12T17:19:20.332Z</time></trkpt><trkpt lat="45.4117493" lon="8.1708241"><ele>201.5</ele><time>2026-04-12T17:19:21.312Z</time></trkpt><trkpt lat="45.411515" lon="8.1705411"><ele>201.0</ele><time>2026-04-12T17:19:22.311Z</time></trkpt><trkpt lat="45.4112813" lon="8.1702578"><ele>203.5</ele><time>2026-04-12T17:19:23.304Z</time></trkpt><trkpt lat="45.4110474" lon="8.1699765"><ele>206.0</ele><time>2026-04-12T17:19:24.304Z</time></trkpt><trkpt lat="45.4108111" lon="8.169699"><ele>206.5</ele><time>2026-04-12T17:19:25.315Z</time></trkpt><trkpt lat="45.4105756" lon="8.169424"><ele>207.0</ele><time>2026-04-12T17:19:26.303Z</time></trkpt><trkpt lat="45.4103399" lon="8.1691493"><ele>208.0</ele><time>2026-04-12T17:19:27.311Z</time></trkpt><trkpt lat="45.4101036" lon="8.1688766"><ele>209.0</ele><time>2026-04-12T17:19:28.331Z</time></trkpt><trkpt lat="45.4098662" lon="8.1686052"><ele>208.5</ele><time>2026-04-12T17:19:29.309Z</time></trkpt><trkpt lat="45.4096266" lon="8.1683319"><ele>208.0</ele><time>2026-04-12T17:19:30.311Z</time></trkpt><trkpt lat="45.4093845" lon="8.1680629"><ele>208.0</ele><time>2026-04-12T17:19:31.312Z</time></trkpt><trkpt lat="45.4091398" lon="8.1677969"><ele>208.0</ele><time>2026-04-12T17:19:32.306Z</time></trkpt><trkpt lat="45.4088958" lon="8.1675316"><ele>208.0</ele><time>2026-04-12T17:19:33.313Z</time></trkpt><trkpt lat="45.4086522" lon="8.1672639"><ele>208.0</ele><time>2026-04-12T17:19:34.311Z</time></trkpt><trkpt lat="45.4084085" lon="8.1669952"><ele>208.0</ele><time>2026-04-12T17:19:35.323Z</time></trkpt><trkpt lat="45.4081654" lon="8.1667266"><ele>208.0</ele><time>2026-04-12T17:19:36.304Z</time></trkpt><trkpt lat="45.40792" lon="8.1664581"><ele>209.5</ele><time>2026-04-12T17:19:37.31Z</time></trkpt><trkpt lat="45.4076735" lon="8.1661882"><ele>211.0</ele><time>2026-04-12T17:19:38.314Z</time></trkpt><trkpt lat="45.4074268" lon="8.1659209"><ele>211.5</ele><time>2026-04-12T17:19:39.311Z</time></trkpt><trkpt lat="45.4071809" lon="8.1656541"><ele>212.0</ele><time>2026-04-12T17:19:40.312Z</time></trkpt><trkpt lat="45.4069345" lon="8.1653863"><ele>212.0</ele><time>2026-04-12T17:19:41.329Z</time></trkpt><trkpt lat="45.4066866" lon="8.1651188"><ele>212.0</ele><time>2026-04-12T17:19:42.312Z</time></trkpt><trkpt lat="45.4064381" lon="8.1648533"><ele>210.5</ele><time>2026-04-12T17:19:43.307Z</time></trkpt><trkpt lat="45.4061891" lon="8.1645877"><ele>209.0</ele><time>2026-04-12T17:19:44.311Z</time></trkpt><trkpt lat="45.4059411" lon="8.1643201"><ele>209.0</ele><time>2026-04-12T17:19:45.309Z</time></trkpt><trkpt lat="45.4056929" lon="8.1640493"><ele>209.0</ele><time>2026-04-12T17:19:46.303Z</time></trkpt><trkpt lat="45.4054434" lon="8.1637785"><ele>208.5</ele><time>2026-04-12T17:19:47.311Z</time></trkpt><trkpt lat="45.4051967" lon="8.1635077"><ele>208.0</ele><time>2026-04-12T17:19:48.321Z</time></trkpt><trkpt lat="45.4049491" lon="8.1632397"><ele>208.0</ele><time>2026-04-12T17:19:49.314Z</time></trkpt><trkpt lat="45.404702" lon="8.1629722"><ele>208.0</ele><time>2026-04-12T17:19:50.312Z</time></trkpt><trkpt lat="45.4044559" lon="8.1627083"><ele>208.0</ele><time>2026-04-12T17:19:51.313Z</time></trkpt><trkpt lat="45.4042091" lon="8.1624424"><ele>208.0</ele><time>2026-04-12T17:19:52.321Z</time></trkpt><trkpt lat="45.4039604" lon="8.162174"><ele>209.0</ele><time>2026-04-12T17:19:53.322Z</time></trkpt><trkpt lat="45.4037113" lon="8.1619034"><ele>210.0</ele><time>2026-04-12T17:19:54.299Z</time></trkpt><trkpt lat="45.4034629" lon="8.1616347"><ele>209.5</ele><time>2026-04-12T17:19:55.328Z</time></trkpt><trkpt lat="45.4032173" lon="8.1613677"><ele>209.0</ele><time>2026-04-12T17:19:56.312Z</time></trkpt><trkpt lat="45.4029714" lon="8.1611095"><ele>209.0</ele><time>2026-04-12T17:19:57.306Z</time></trkpt><trkpt lat="45.4027263" lon="8.1608533"><ele>209.0</ele><time>2026-04-12T17:19:58.33Z</time></trkpt><trkpt lat="45.4024833" lon="8.1605977"><ele>209.5</ele><time>2026-04-12T17:19:59.305Z</time></trkpt><trkpt lat="45.4022422" lon="8.1603433"><ele>210.0</ele><time>2026-04-12T17:20:00.319Z</time></trkpt><trkpt lat="45.4020025" lon="8.1600912"><ele>210.0</ele><time>2026-04-12T17:20:01.308Z</time></trkpt><trkpt lat="45.4017657" lon="8.1598401"><ele>210.0</ele><time>2026-04-12T17:20:02.311Z</time></trkpt><trkpt lat="45.4015338" lon="8.1595931"><ele>209.5</ele><time>2026-04-12T17:20:03.311Z</time></trkpt><trkpt lat="45.4013065" lon="8.159347"><ele>209.0</ele><time>2026-04-12T17:20:04.307Z</time></trkpt><trkpt lat="45.401085" lon="8.1591023"><ele>209.5</ele><time>2026-04-12T17:20:05.311Z</time></trkpt><trkpt lat="45.4008632" lon="8.158863"><ele>210.0</ele><time>2026-04-12T17:20:06.311Z</time></trkpt><trkpt lat="45.4006405" lon="8.1586219"><ele>209.5</ele><time>2026-04-12T17:20:07.312Z</time></trkpt><trkpt lat="45.4004195" lon="8.1583728"><ele>209.0</ele><time>2026-04-12T17:20:08.314Z</time></trkpt><trkpt lat="45.4001974" lon="8.1581161"><ele>209.0</ele><time>2026-04-12T17:20:09.325Z</time></trkpt><trkpt lat="45.3999713" lon="8.1578574"><ele>209.0</ele><time>2026-04-12T17:20:10.313Z</time></trkpt><trkpt lat="45.3997429" lon="8.1575991"><ele>207.0</ele><time>2026-04-12T17:20:11.311Z</time></trkpt><trkpt lat="45.3995116" lon="8.1573431"><ele>205.0</ele><time>2026-04-12T17:20:12.317Z</time></trkpt><trkpt lat="45.3992797" lon="8.1570892"><ele>205.0</ele><time>2026-04-12T17:20:13.305Z</time></trkpt><trkpt lat="45.3990459" lon="8.1568366"><ele>205.0</ele><time>2026-04-12T17:20:14.332Z</time></trkpt><trkpt lat="45.398811" lon="8.1565847"><ele>203.0</ele><time>2026-04-12T17:20:15.314Z</time></trkpt><trkpt lat="45.3985746" lon="8.1563324"><ele>201.0</ele><time>2026-04-12T17:20:16.301Z</time></trkpt><trkpt lat="45.398338" lon="8.1560741"><ele>201.0</ele><time>2026-04-12T17:20:17.307Z</time></trkpt><trkpt lat="45.3981033" lon="8.1558159"><ele>201.0</ele><time>2026-04-12T17:20:18.303Z</time></trkpt><trkpt lat="45.397869" lon="8.155557"><ele>201.0</ele><time>2026-04-12T17:20:19.314Z</time></trkpt><trkpt lat="45.3976344" lon="8.1553002"><ele>201.0</ele><time>2026-04-12T17:20:20.32Z</time></trkpt><trkpt lat="45.3973988" lon="8.1550473"><ele>202.0</ele><time>2026-04-12T17:20:21.313Z</time></trkpt><trkpt lat="45.3971627" lon="8.1547927"><ele>203.0</ele><time>2026-04-12T17:20:22.313Z</time></trkpt><trkpt lat="45.3969273" lon="8.1545365"><ele>203.0</ele><time>2026-04-12T17:20:23.311Z</time></trkpt><trkpt lat="45.3966914" lon="8.154281"><ele>203.0</ele><time>2026-04-12T17:20:24.329Z</time></trkpt><trkpt lat="45.3964557" lon="8.1540289"><ele>201.0</ele><time>2026-04-12T17:20:25.329Z</time></trkpt><trkpt lat="45.3962215" lon="8.153778"><ele>199.0</ele><time>2026-04-12T17:20:26.313Z</time></trkpt><trkpt lat="45.3959884" lon="8.1535269"><ele>199.0</ele><time>2026-04-12T17:20:27.303Z</time></trkpt><trkpt lat="45.3957573" lon="8.1532769"><ele>199.0</ele><time>2026-04-12T17:20:28.309Z</time></trkpt><trkpt lat="45.3955275" lon="8.1530292"><ele>199.5</ele><time>2026-04-12T17:20:29.315Z</time></trkpt><trkpt lat="45.3952979" lon="8.152786"><ele>200.0</ele><time>2026-04-12T17:20:30.316Z</time></trkpt><trkpt lat="45.3950676" lon="8.1525453"><ele>199.5</ele><time>2026-04-12T17:20:31.312Z</time></trkpt><trkpt lat="45.3948381" lon="8.1523053"><ele>199.0</ele><time>2026-04-12T17:20:32.301Z</time></trkpt><trkpt lat="45.394607" lon="8.1520643"><ele>199.0</ele><time>2026-04-12T17:20:33.304Z</time></trkpt><trkpt lat="45.3943754" lon="8.1518213"><ele>199.0</ele><time>2026-04-12T17:20:34.308Z</time></trkpt><trkpt lat="45.3941432" lon="8.1515738"><ele>199.5</ele><time>2026-04-12T17:20:35.31Z</time></trkpt><trkpt lat="45.393911" lon="8.1513216"><ele>200.0</ele><time>2026-04-12T17:20:36.307Z</time></trkpt><trkpt lat="45.3936776" lon="8.1510678"><ele>200.0</ele><time>2026-04-12T17:20:37.33Z</time></trkpt><trkpt lat="45.3934427" lon="8.1508109"><ele>200.0</ele><time>2026-04-12T17:20:38.314Z</time></trkpt><trkpt lat="45.3932063" lon="8.1505535"><ele>200.0</ele><time>2026-04-12T17:20:39.323Z</time></trkpt><trkpt lat="45.3929714" lon="8.1502982"><ele>200.0</ele><time>2026-04-12T17:20:40.312Z</time></trkpt><trkpt lat="45.3927364" lon="8.1500442"><ele>200.0</ele><time>2026-04-12T17:20:41.313Z</time></trkpt><trkpt lat="45.3925015" lon="8.1497926"><ele>200.0</ele><time>2026-04-12T17:20:42.309Z</time></trkpt><trkpt lat="45.392267" lon="8.1495371"><ele>200.5</ele><time>2026-04-12T17:20:43.312Z</time></trkpt><trkpt lat="45.3920321" lon="8.1492801"><ele>201.0</ele><time>2026-04-12T17:20:44.328Z</time></trkpt><trkpt lat="45.3917972" lon="8.149023"><ele>201.0</ele><time>2026-04-12T17:20:45.318Z</time></trkpt><trkpt lat="45.3915598" lon="8.1487647"><ele>201.0</ele><time>2026-04-12T17:20:46.325Z</time></trkpt><trkpt lat="45.3913187" lon="8.1485064"><ele>201.5</ele><time>2026-04-12T17:20:47.305Z</time></trkpt><trkpt lat="45.3910769" lon="8.1482461"><ele>202.0</ele><time>2026-04-12T17:20:48.313Z</time></trkpt><trkpt lat="45.3908335" lon="8.1479872"><ele>202.5</ele><time>2026-04-12T17:20:49.311Z</time></trkpt><trkpt lat="45.3905922" lon="8.1477293"><ele>203.0</ele><time>2026-04-12T17:20:50.311Z</time></trkpt><trkpt lat="45.3903525" lon="8.1474702"><ele>203.5</ele><time>2026-04-12T17:20:51.312Z</time></trkpt><trkpt lat="45.3901139" lon="8.1472115"><ele>204.0</ele><time>2026-04-12T17:20:52.329Z</time></trkpt><trkpt lat="45.3898756" lon="8.14695"><ele>204.0</ele><time>2026-04-12T17:20:53.312Z</time></trkpt><trkpt lat="45.3896389" lon="8.1466959"><ele>204.0</ele><time>2026-04-12T17:20:54.327Z</time></trkpt><trkpt lat="45.3894016" lon="8.1464391"><ele>204.0</ele><time>2026-04-12T17:20:55.323Z</time></trkpt><trkpt lat="45.3891635" lon="8.1461774"><ele>204.0</ele><time>2026-04-12T17:20:56.314Z</time></trkpt><trkpt lat="45.3889249" lon="8.1459126"><ele>204.0</ele><time>2026-04-12T17:20:57.318Z</time></trkpt><trkpt lat="45.388687" lon="8.1456497"><ele>204.0</ele><time>2026-04-12T17:20:58.313Z</time></trkpt><trkpt lat="45.3884494" lon="8.145388"><ele>204.0</ele><time>2026-04-12T17:20:59.306Z</time></trkpt><trkpt lat="45.3882108" lon="8.1451259"><ele>204.0</ele><time>2026-04-12T17:21:00.301Z</time></trkpt><trkpt lat="45.3879737" lon="8.1448625"><ele>204.5</ele><time>2026-04-12T17:21:01.304Z</time></trkpt><trkpt lat="45.3877342" lon="8.1446017"><ele>205.0</ele><time>2026-04-12T17:21:02.311Z</time></trkpt><trkpt lat="45.3874946" lon="8.1443423"><ele>205.0</ele><time>2026-04-12T17:21:03.325Z</time></trkpt><trkpt lat="45.3872547" lon="8.1440821"><ele>205.0</ele><time>2026-04-12T17:21:04.312Z</time></trkpt><trkpt lat="45.3870138" lon="8.1438215"><ele>205.5</ele><time>2026-04-12T17:21:05.314Z</time></trkpt><trkpt lat="45.3867731" lon="8.1435558"><ele>206.0</ele><time>2026-04-12T17:21:06.312Z</time></trkpt><trkpt lat="45.3865341" lon="8.1432887"><ele>206.5</ele><time>2026-04-12T17:21:07.321Z</time></trkpt><trkpt lat="45.3862952" lon="8.1430183"><ele>207.0</ele><time>2026-04-12T17:21:08.307Z</time></trkpt><trkpt lat="45.3860561" lon="8.1427492"><ele>207.0</ele><time>2026-04-12T17:21:09.311Z</time></trkpt><trkpt lat="45.3858153" lon="8.142483"><ele>207.0</ele><time>2026-04-12T17:21:10.318Z</time></trkpt><trkpt lat="45.3855721" lon="8.1422193"><ele>207.5</ele><time>2026-04-12T17:21:11.316Z</time></trkpt><trkpt lat="45.3853308" lon="8.141957"><ele>208.0</ele><time>2026-04-12T17:21:12.313Z</time></trkpt><trkpt lat="45.3850904" lon="8.1416922"><ele>207.5</ele><time>2026-04-12T17:21:13.309Z</time></trkpt><trkpt lat="45.3848488" lon="8.141425"><ele>207.0</ele><time>2026-04-12T17:21:14.323Z</time></trkpt><trkpt lat="45.3846077" lon="8.1411586"><ele>207.5</ele><time>2026-04-12T17:21:15.325Z</time></trkpt><trkpt lat="45.3843657" lon="8.140897"><ele>208.0</ele><time>2026-04-12T17:21:16.312Z</time></trkpt><trkpt lat="45.3841247" lon="8.1406392"><ele>208.0</ele><time>2026-04-12T17:21:17.312Z</time></trkpt><trkpt lat="45.3838847" lon="8.1403798"><ele>208.0</ele><time>2026-04-12T17:21:18.304Z</time></trkpt><trkpt lat="45.3836428" lon="8.1401192"><ele>208.0</ele><time>2026-04-12T17:21:19.309Z</time></trkpt><trkpt lat="45.3834009" lon="8.1398562"><ele>208.0</ele><time>2026-04-12T17:21:20.306Z</time></trkpt><trkpt lat="45.3831627" lon="8.1395932"><ele>209.5</ele><time>2026-04-12T17:21:21.314Z</time></trkpt><trkpt lat="45.3829251" lon="8.1393307"><ele>211.0</ele><time>2026-04-12T17:21:22.322Z</time></trkpt><trkpt lat="45.3826844" lon="8.1390683"><ele>211.0</ele><time>2026-04-12T17:21:23.331Z</time></trkpt><trkpt lat="45.3824435" lon="8.1388058"><ele>211.0</ele><time>2026-04-12T17:21:24.313Z</time></trkpt><trkpt lat="45.3822042" lon="8.1385441"><ele>211.0</ele><time>2026-04-12T17:21:25.305Z</time></trkpt><trkpt lat="45.3819669" lon="8.1382831"><ele>211.0</ele><time>2026-04-12T17:21:26.313Z</time></trkpt><trkpt lat="45.3817281" lon="8.1380248"><ele>210.5</ele><time>2026-04-12T17:21:27.309Z</time></trkpt><trkpt lat="45.3814894" lon="8.1377675"><ele>210.0</ele><time>2026-04-12T17:21:28.313Z</time></trkpt><trkpt lat="45.381252" lon="8.1375099"><ele>209.5</ele><time>2026-04-12T17:21:29.308Z</time></trkpt><trkpt lat="45.3810149" lon="8.1372522"><ele>209.0</ele><time>2026-04-12T17:21:30.309Z</time></trkpt><trkpt lat="45.3807787" lon="8.1369975"><ele>209.0</ele><time>2026-04-12T17:21:31.33Z</time></trkpt><trkpt lat="45.3805478" lon="8.1367402"><ele>209.0</ele><time>2026-04-12T17:21:32.305Z</time></trkpt><trkpt lat="45.3803152" lon="8.1364812"><ele>209.0</ele><time>2026-04-12T17:21:33.313Z</time></trkpt><trkpt lat="45.380074" lon="8.1362209"><ele>209.0</ele><time>2026-04-12T17:21:34.32Z</time></trkpt><trkpt lat="45.3798306" lon="8.135957"><ele>209.0</ele><time>2026-04-12T17:21:35.307Z</time></trkpt><trkpt lat="45.379584" lon="8.1356879"><ele>209.0</ele><time>2026-04-12T17:21:36.332Z</time></trkpt><trkpt lat="45.379335" lon="8.1354216"><ele>209.0</ele><time>2026-04-12T17:21:37.312Z</time></trkpt><trkpt lat="45.3790851" lon="8.1351539"><ele>209.0</ele><time>2026-04-12T17:21:38.307Z</time></trkpt><trkpt lat="45.3788357" lon="8.1348823"><ele>208.5</ele><time>2026-04-12T17:21:39.313Z</time></trkpt><trkpt lat="45.3785867" lon="8.1346104"><ele>208.0</ele><time>2026-04-12T17:21:40.307Z</time></trkpt><trkpt lat="45.3783362" lon="8.1343381"><ele>208.0</ele><time>2026-04-12T17:21:41.333Z</time></trkpt><trkpt lat="45.3780864" lon="8.1340684"><ele>208.0</ele><time>2026-04-12T17:21:42.312Z</time></trkpt><trkpt lat="45.3778374" lon="8.1337996"><ele>208.0</ele><time>2026-04-12T17:21:43.312Z</time></trkpt><trkpt lat="45.3775883" lon="8.1335299"><ele>208.0</ele><time>2026-04-12T17:21:44.312Z</time></trkpt><trkpt lat="45.3773397" lon="8.1332589"><ele>208.5</ele><time>2026-04-12T17:21:45.309Z</time></trkpt><trkpt lat="45.3770914" lon="8.1329877"><ele>209.0</ele><time>2026-04-12T17:21:46.313Z</time></trkpt><trkpt lat="45.3768436" lon="8.132719"><ele>209.0</ele><time>2026-04-12T17:21:47.31Z</time></trkpt><trkpt lat="45.3765974" lon="8.1324492"><ele>209.0</ele><time>2026-04-12T17:21:48.331Z</time></trkpt><trkpt lat="45.3763506" lon="8.1321805"><ele>210.0</ele><time>2026-04-12T17:21:49.305Z</time></trkpt><trkpt lat="45.3761035" lon="8.1319141"><ele>211.0</ele><time>2026-04-12T17:21:50.308Z</time></trkpt><trkpt lat="45.3758554" lon="8.1316479"><ele>210.5</ele><time>2026-04-12T17:21:51.312Z</time></trkpt><trkpt lat="45.3756076" lon="8.1313806"><ele>210.0</ele><time>2026-04-12T17:21:52.312Z</time></trkpt><trkpt lat="45.3753617" lon="8.1311147"><ele>210.0</ele><time>2026-04-12T17:21:53.319Z</time></trkpt><trkpt lat="45.375117" lon="8.1308483"><ele>210.0</ele><time>2026-04-12T17:21:54.312Z</time></trkpt><trkpt lat="45.3748703" lon="8.1305813"><ele>210.0</ele><time>2026-04-12T17:21:55.314Z</time></trkpt><trkpt lat="45.3746232" lon="8.1303155"><ele>210.0</ele><time>2026-04-12T17:21:56.311Z</time></trkpt><trkpt lat="45.3743762" lon="8.1300474"><ele>209.5</ele><time>2026-04-12T17:21:57.313Z</time></trkpt><trkpt lat="45.3741274" lon="8.129778"><ele>209.0</ele><time>2026-04-12T17:21:58.321Z</time></trkpt><trkpt lat="45.3738785" lon="8.1295071"><ele>209.0</ele><time>2026-04-12T17:21:59.321Z</time></trkpt><trkpt lat="45.3736307" lon="8.1292342"><ele>209.0</ele><time>2026-04-12T17:22:00.312Z</time></trkpt><trkpt lat="45.3733821" lon="8.1289601"><ele>210.0</ele><time>2026-04-12T17:22:01.313Z</time></trkpt><trkpt lat="45.3731333" lon="8.1286876"><ele>211.0</ele><time>2026-04-12T17:22:02.308Z</time></trkpt><trkpt lat="45.3728829" lon="8.1284179"><ele>211.5</ele><time>2026-04-12T17:22:03.33Z</time></trkpt><trkpt lat="45.372635" lon="8.1281488"><ele>212.0</ele><time>2026-04-12T17:22:04.315Z</time></trkpt><trkpt lat="45.3723892" lon="8.1278757"><ele>210.5</ele><time>2026-04-12T17:22:05.32Z</time></trkpt><trkpt lat="45.3721385" lon="8.1276084"><ele>209.0</ele><time>2026-04-12T17:22:06.322Z</time></trkpt><trkpt lat="45.3718851" lon="8.1273444"><ele>209.0</ele><time>2026-04-12T17:22:07.313Z</time></trkpt><trkpt lat="45.3716341" lon="8.1270746"><ele>209.0</ele><time>2026-04-12T17:22:08.307Z</time></trkpt><trkpt lat="45.3713858" lon="8.1267997"><ele>210.0</ele><time>2026-04-12T17:22:09.322Z</time></trkpt><trkpt lat="45.3711368" lon="8.1265265"><ele>211.0</ele><time>2026-04-12T17:22:10.311Z</time></trkpt><trkpt lat="45.3708891" lon="8.1262539"><ele>211.0</ele><time>2026-04-12T17:22:11.308Z</time></trkpt><trkpt lat="45.3706395" lon="8.1259807"><ele>211.0</ele><time>2026-04-12T17:22:12.32Z</time></trkpt><trkpt lat="45.3703897" lon="8.1257081"><ele>210.5</ele><time>2026-04-12T17:22:13.325Z</time></trkpt><trkpt lat="45.3701395" lon="8.1254353"><ele>210.0</ele><time>2026-04-12T17:22:14.311Z</time></trkpt><trkpt lat="45.3698864" lon="8.1251639"><ele>210.5</ele><time>2026-04-12T17:22:15.33Z</time></trkpt><trkpt lat="45.3696334" lon="8.1248901"><ele>211.0</ele><time>2026-04-12T17:22:16.322Z</time></trkpt><trkpt lat="45.3693818" lon="8.1246133"><ele>211.0</ele><time>2026-04-12T17:22:17.312Z</time></trkpt><trkpt lat="45.3691296" lon="8.1243373"><ele>211.0</ele><time>2026-04-12T17:22:18.313Z</time></trkpt><trkpt lat="45.3688758" lon="8.1240609"><ele>211.5</ele><time>2026-04-12T17:22:19.312Z</time></trkpt><trkpt lat="45.3686218" lon="8.1237862"><ele>212.0</ele><time>2026-04-12T17:22:20.309Z</time></trkpt><trkpt lat="45.3683675" lon="8.123512"><ele>212.0</ele><time>2026-04-12T17:22:21.313Z</time></trkpt><trkpt lat="45.3681132" lon="8.1232404"><ele>212.0</ele><time>2026-04-12T17:22:22.307Z</time></trkpt><trkpt lat="45.3678578" lon="8.1229713"><ele>210.5</ele><time>2026-04-12T17:22:23.313Z</time></trkpt><trkpt lat="45.3676041" lon="8.1227013"><ele>209.0</ele><time>2026-04-12T17:22:24.312Z</time></trkpt><trkpt lat="45.3673518" lon="8.122431"><ele>209.5</ele><time>2026-04-12T17:22:25.312Z</time></trkpt><trkpt lat="45.3670993" lon="8.1221606"><ele>210.0</ele><time>2026-04-12T17:22:26.321Z</time></trkpt><trkpt lat="45.3668485" lon="8.121887"><ele>210.0</ele><time>2026-04-12T17:22:27.31Z</time></trkpt><trkpt lat="45.3665982" lon="8.1216108"><ele>210.0</ele><time>2026-04-12T17:22:28.318Z</time></trkpt><trkpt lat="45.3663463" lon="8.1213347"><ele>209.0</ele><time>2026-04-12T17:22:29.303Z</time></trkpt><trkpt lat="45.3660953" lon="8.1210572"><ele>208.0</ele><time>2026-04-12T17:22:30.306Z</time></trkpt><trkpt lat="45.365844" lon="8.1207832"><ele>208.0</ele><time>2026-04-12T17:22:31.312Z</time></trkpt><trkpt lat="45.3655909" lon="8.1205061"><ele>208.0</ele><time>2026-04-12T17:22:32.31Z</time></trkpt><trkpt lat="45.3653365" lon="8.1202313"><ele>208.0</ele><time>2026-04-12T17:22:33.312Z</time></trkpt><trkpt lat="45.3650827" lon="8.1199562"><ele>208.0</ele><time>2026-04-12T17:22:34.306Z</time></trkpt><trkpt lat="45.3648292" lon="8.1196825"><ele>208.0</ele><time>2026-04-12T17:22:35.307Z</time></trkpt><trkpt lat="45.3645756" lon="8.1194087"><ele>208.0</ele><time>2026-04-12T17:22:36.312Z</time></trkpt><trkpt lat="45.3643218" lon="8.1191344"><ele>208.0</ele><time>2026-04-12T17:22:37.313Z</time></trkpt><trkpt lat="45.3640692" lon="8.1188576"><ele>208.0</ele><time>2026-04-12T17:22:38.313Z</time></trkpt><trkpt lat="45.3638177" lon="8.1185821"><ele>208.0</ele><time>2026-04-12T17:22:39.326Z</time></trkpt><trkpt lat="45.3635662" lon="8.1183094"><ele>208.0</ele><time>2026-04-12T17:22:40.314Z</time></trkpt><trkpt lat="45.3633141" lon="8.118037"><ele>208.0</ele><time>2026-04-12T17:22:41.31Z</time></trkpt><trkpt lat="45.3630634" lon="8.1177661"><ele>208.0</ele><time>2026-04-12T17:22:42.306Z</time></trkpt><trkpt lat="45.3628127" lon="8.1174948"><ele>208.0</ele><time>2026-04-12T17:22:43.313Z</time></trkpt><trkpt lat="45.3625626" lon="8.1172254"><ele>208.0</ele><time>2026-04-12T17:22:44.327Z</time></trkpt><trkpt lat="45.3623126" lon="8.1169546"><ele>209.0</ele><time>2026-04-12T17:22:45.314Z</time></trkpt><trkpt lat="45.3620628" lon="8.1166835"><ele>210.0</ele><time>2026-04-12T17:22:46.312Z</time></trkpt><trkpt lat="45.3618128" lon="8.1164112"><ele>210.0</ele><time>2026-04-12T17:22:47.307Z</time></trkpt><trkpt lat="45.361562" lon="8.1161373"><ele>210.0</ele><time>2026-04-12T17:22:48.31Z</time></trkpt><trkpt lat="45.3613091" lon="8.1158612"><ele>209.5</ele><time>2026-04-12T17:22:49.32Z</time></trkpt><trkpt lat="45.361056" lon="8.115584"><ele>209.0</ele><time>2026-04-12T17:22:50.324Z</time></trkpt><trkpt lat="45.3608004" lon="8.1153085"><ele>209.0</ele><time>2026-04-12T17:22:51.332Z</time></trkpt><trkpt lat="45.360545" lon="8.1150346"><ele>209.0</ele><time>2026-04-12T17:22:52.311Z</time></trkpt><trkpt lat="45.3602871" lon="8.1147572"><ele>209.0</ele><time>2026-04-12T17:22:53.312Z</time></trkpt><trkpt lat="45.3600285" lon="8.1144802"><ele>209.0</ele><time>2026-04-12T17:22:54.306Z</time></trkpt><trkpt lat="45.3597722" lon="8.1142029"><ele>209.0</ele><time>2026-04-12T17:22:55.312Z</time></trkpt><trkpt lat="45.3595162" lon="8.1139281"><ele>209.0</ele><time>2026-04-12T17:22:56.308Z</time></trkpt><trkpt lat="45.3592599" lon="8.1136518"><ele>209.0</ele><time>2026-04-12T17:22:57.304Z</time></trkpt><trkpt lat="45.3590046" lon="8.1133762"><ele>209.0</ele><time>2026-04-12T17:22:58.306Z</time></trkpt><trkpt lat="45.3587514" lon="8.1130984"><ele>208.0</ele><time>2026-04-12T17:22:59.313Z</time></trkpt><trkpt lat="45.3584987" lon="8.112821"><ele>207.0</ele><time>2026-04-12T17:23:00.324Z</time></trkpt><trkpt lat="45.358247" lon="8.1125477"><ele>208.5</ele><time>2026-04-12T17:23:01.335Z</time></trkpt><trkpt lat="45.3579959" lon="8.1122761"><ele>210.0</ele><time>2026-04-12T17:23:02.308Z</time></trkpt><trkpt lat="45.357747" lon="8.1120049"><ele>210.0</ele><time>2026-04-12T17:23:03.311Z</time></trkpt><trkpt lat="45.3574984" lon="8.1117369"><ele>210.0</ele><time>2026-04-12T17:23:04.311Z</time></trkpt><trkpt lat="45.3572493" lon="8.1114708"><ele>210.0</ele><time>2026-04-12T17:23:05.313Z</time></trkpt><trkpt lat="45.3569993" lon="8.1112036"><ele>210.0</ele><time>2026-04-12T17:23:06.306Z</time></trkpt><trkpt lat="45.3567509" lon="8.1109341"><ele>210.0</ele><time>2026-04-12T17:23:07.313Z</time></trkpt><trkpt lat="45.3565019" lon="8.1106619"><ele>210.0</ele><time>2026-04-12T17:23:08.314Z</time></trkpt><trkpt lat="45.3562534" lon="8.1103905"><ele>209.5</ele><time>2026-04-12T17:23:09.311Z</time></trkpt><trkpt lat="45.3560057" lon="8.110121"><ele>209.0</ele><time>2026-04-12T17:23:10.328Z</time></trkpt><trkpt lat="45.3557571" lon="8.109853"><ele>209.5</ele><time>2026-04-12T17:23:11.315Z</time></trkpt><trkpt lat="45.3555073" lon="8.109583"><ele>210.0</ele><time>2026-04-12T17:23:12.307Z</time></trkpt><trkpt lat="45.3552569" lon="8.1093136"><ele>209.5</ele><time>2026-04-12T17:23:13.323Z</time></trkpt><trkpt lat="45.3550063" lon="8.1090444"><ele>209.0</ele><time>2026-04-12T17:23:14.305Z</time></trkpt><trkpt lat="45.3547565" lon="8.108773"><ele>209.0</ele><time>2026-04-12T17:23:15.327Z</time></trkpt><trkpt lat="45.3545076" lon="8.1085033"><ele>209.0</ele><time>2026-04-12T17:23:16.312Z</time></trkpt><trkpt lat="45.3542592" lon="8.108233"><ele>209.0</ele><time>2026-04-12T17:23:17.324Z</time></trkpt><trkpt lat="45.3540096" lon="8.1079577"><ele>209.0</ele><time>2026-04-12T17:23:18.32Z</time></trkpt><trkpt lat="45.3537593" lon="8.1076845"><ele>208.0</ele><time>2026-04-12T17:23:19.314Z</time></trkpt><trkpt lat="45.3535109" lon="8.1074153"><ele>207.0</ele><time>2026-04-12T17:23:20.312Z</time></trkpt><trkpt lat="45.3532632" lon="8.1071487"><ele>207.0</ele><time>2026-04-12T17:23:21.314Z</time></trkpt><trkpt lat="45.3530161" lon="8.1068822"><ele>207.0</ele><time>2026-04-12T17:23:22.312Z</time></trkpt><trkpt lat="45.3527684" lon="8.1066165"><ele>208.0</ele><time>2026-04-12T17:23:23.32Z</time></trkpt><trkpt lat="45.35252" lon="8.1063498"><ele>209.0</ele><time>2026-04-12T17:23:24.309Z</time></trkpt><trkpt lat="45.3522734" lon="8.1060841"><ele>209.0</ele><time>2026-04-12T17:23:25.308Z</time></trkpt><trkpt lat="45.3520266" lon="8.1058195"><ele>209.0</ele><time>2026-04-12T17:23:26.312Z</time></trkpt><trkpt lat="45.3517803" lon="8.1055521"><ele>209.0</ele><time>2026-04-12T17:23:27.308Z</time></trkpt><trkpt lat="45.351535" lon="8.1052845"><ele>209.0</ele><time>2026-04-12T17:23:28.325Z</time></trkpt><trkpt lat="45.3512904" lon="8.105017"><ele>208.5</ele><time>2026-04-12T17:23:29.312Z</time></trkpt><trkpt lat="45.3510449" lon="8.1047508"><ele>208.0</ele><time>2026-04-12T17:23:30.33Z</time></trkpt><trkpt lat="45.3507975" lon="8.1044843"><ele>208.0</ele><time>2026-04-12T17:23:31.325Z</time></trkpt><trkpt lat="45.3505519" lon="8.1042172"><ele>208.0</ele><time>2026-04-12T17:23:32.311Z</time></trkpt><trkpt lat="45.3503068" lon="8.1039486"><ele>208.0</ele><time>2026-04-12T17:23:33.312Z</time></trkpt><trkpt lat="45.3500622" lon="8.1036783"><ele>208.0</ele><time>2026-04-12T17:23:34.312Z</time></trkpt><trkpt lat="45.3498169" lon="8.1034093"><ele>207.5</ele><time>2026-04-12T17:23:35.302Z</time></trkpt><trkpt lat="45.3495702" lon="8.1031434"><ele>207.0</ele><time>2026-04-12T17:23:36.309Z</time></trkpt><trkpt lat="45.3493246" lon="8.1028792"><ele>207.0</ele><time>2026-04-12T17:23:37.313Z</time></trkpt><trkpt lat="45.3490791" lon="8.1026129"><ele>207.0</ele><time>2026-04-12T17:23:38.307Z</time></trkpt><trkpt lat="45.3488338" lon="8.1023441"><ele>207.5</ele><time>2026-04-12T17:23:39.328Z</time></trkpt><trkpt lat="45.3485871" lon="8.102075"><ele>208.0</ele><time>2026-04-12T17:23:40.312Z</time></trkpt><trkpt lat="45.3483371" lon="8.1018063"><ele>208.0</ele><time>2026-04-12T17:23:41.337Z</time></trkpt><trkpt lat="45.3480869" lon="8.1015398"><ele>208.0</ele><time>2026-04-12T17:23:42.311Z</time></trkpt><trkpt lat="45.347837" lon="8.1012701"><ele>208.0</ele><time>2026-04-12T17:23:43.306Z</time></trkpt><trkpt lat="45.3475879" lon="8.101002"><ele>208.0</ele><time>2026-04-12T17:23:44.321Z</time></trkpt><trkpt lat="45.3473393" lon="8.1007365"><ele>208.0</ele><time>2026-04-12T17:23:45.314Z</time></trkpt><trkpt lat="45.3470912" lon="8.1004731"><ele>208.0</ele><time>2026-04-12T17:23:46.313Z</time></trkpt><trkpt lat="45.3468442" lon="8.1002082"><ele>208.0</ele><time>2026-04-12T17:23:47.305Z</time></trkpt><trkpt lat="45.3465979" lon="8.0999423"><ele>208.0</ele><time>2026-04-12T17:23:48.309Z</time></trkpt><trkpt lat="45.3463531" lon="8.0996786"><ele>208.0</ele><time>2026-04-12T17:23:49.312Z</time></trkpt><trkpt lat="45.3461068" lon="8.099417"><ele>208.0</ele><time>2026-04-12T17:23:50.322Z</time></trkpt><trkpt lat="45.3458616" lon="8.0991564"><ele>208.5</ele><time>2026-04-12T17:23:51.308Z</time></trkpt><trkpt lat="45.345618" lon="8.0988965"><ele>209.0</ele><time>2026-04-12T17:23:52.313Z</time></trkpt><trkpt lat="45.3453764" lon="8.098638"><ele>208.5</ele><time>2026-04-12T17:23:53.326Z</time></trkpt><trkpt lat="45.3451345" lon="8.0983795"><ele>208.0</ele><time>2026-04-12T17:23:54.316Z</time></trkpt><trkpt lat="45.3448932" lon="8.0981179"><ele>208.0</ele><time>2026-04-12T17:23:55.331Z</time></trkpt><trkpt lat="45.3446537" lon="8.0978578"><ele>208.0</ele><time>2026-04-12T17:23:56.313Z</time></trkpt><trkpt lat="45.3444154" lon="8.0975998"><ele>208.5</ele><time>2026-04-12T17:23:57.314Z</time></trkpt><trkpt lat="45.3441773" lon="8.0973397"><ele>209.0</ele><time>2026-04-12T17:23:58.325Z</time></trkpt><trkpt lat="45.3439374" lon="8.0970782"><ele>208.5</ele><time>2026-04-12T17:23:59.314Z</time></trkpt><trkpt lat="45.343698" lon="8.0968189"><ele>208.0</ele><time>2026-04-12T17:24:00.307Z</time></trkpt><trkpt lat="45.343458" lon="8.0965582"><ele>207.5</ele><time>2026-04-12T17:24:01.311Z</time></trkpt><trkpt lat="45.3432155" lon="8.0962916"><ele>207.0</ele><time>2026-04-12T17:24:02.314Z</time></trkpt><trkpt lat="45.3429715" lon="8.0960253"><ele>206.5</ele><time>2026-04-12T17:24:03.31Z</time></trkpt><trkpt lat="45.3427256" lon="8.0957632"><ele>206.0</ele><time>2026-04-12T17:24:04.308Z</time></trkpt><trkpt lat="45.3424767" lon="8.0954999"><ele>206.0</ele><time>2026-04-12T17:24:05.323Z</time></trkpt><trkpt lat="45.3422286" lon="8.0952343"><ele>206.0</ele><time>2026-04-12T17:24:06.312Z</time></trkpt><trkpt lat="45.3419789" lon="8.0949668"><ele>207.0</ele><time>2026-04-12T17:24:07.323Z</time></trkpt><trkpt lat="45.3417294" lon="8.0946974"><ele>208.0</ele><time>2026-04-12T17:24:08.313Z</time></trkpt><trkpt lat="45.3414792" lon="8.0944274"><ele>207.5</ele><time>2026-04-12T17:24:09.32Z</time></trkpt><trkpt lat="45.3412284" lon="8.0941554"><ele>207.0</ele><time>2026-04-12T17:24:10.312Z</time></trkpt><trkpt lat="45.340977" lon="8.0938801"><ele>207.0</ele><time>2026-04-12T17:24:11.313Z</time></trkpt><trkpt lat="45.3407252" lon="8.0936047"><ele>207.0</ele><time>2026-04-12T17:24:12.309Z</time></trkpt><trkpt lat="45.3404727" lon="8.0933296"><ele>206.5</ele><time>2026-04-12T17:24:13.313Z</time></trkpt><trkpt lat="45.3402207" lon="8.0930553"><ele>206.0</ele><time>2026-04-12T17:24:14.326Z</time></trkpt><trkpt lat="45.3399678" lon="8.0927799"><ele>206.0</ele><time>2026-04-12T17:24:15.313Z</time></trkpt><trkpt lat="45.3397147" lon="8.092502"><ele>206.0</ele><time>2026-04-12T17:24:16.325Z</time></trkpt><trkpt lat="45.339463" lon="8.0922218"><ele>206.5</ele><time>2026-04-12T17:24:17.307Z</time></trkpt><trkpt lat="45.339213" lon="8.0919419"><ele>207.0</ele><time>2026-04-12T17:24:18.313Z</time></trkpt><trkpt lat="45.3389656" lon="8.0916639"><ele>207.5</ele><time>2026-04-12T17:24:19.324Z</time></trkpt><trkpt lat="45.3387206" lon="8.0913897"><ele>208.0</ele><time>2026-04-12T17:24:20.313Z</time></trkpt><trkpt lat="45.3384791" lon="8.091119"><ele>208.0</ele><time>2026-04-12T17:24:21.316Z</time></trkpt><trkpt lat="45.3382406" lon="8.0908578"><ele>208.0</ele><time>2026-04-12T17:24:22.313Z</time></trkpt><trkpt lat="45.3380032" lon="8.0905992"><ele>208.0</ele><time>2026-04-12T17:24:23.313Z</time></trkpt><trkpt lat="45.3377684" lon="8.0903472"><ele>208.0</ele><time>2026-04-12T17:24:24.307Z</time></trkpt><trkpt lat="45.3375358" lon="8.0900949"><ele>208.0</ele><time>2026-04-12T17:24:25.312Z</time></trkpt><trkpt lat="45.3373037" lon="8.0898418"><ele>208.0</ele><time>2026-04-12T17:24:26.312Z</time></trkpt><trkpt lat="45.3370737" lon="8.089589"><ele>208.0</ele><time>2026-04-12T17:24:27.332Z</time></trkpt><trkpt lat="45.3368433" lon="8.0893352"><ele>208.0</ele><time>2026-04-12T17:24:28.312Z</time></trkpt><trkpt lat="45.3366123" lon="8.0890842"><ele>207.0</ele><time>2026-04-12T17:24:29.302Z</time></trkpt><trkpt lat="45.3363821" lon="8.0888308"><ele>206.0</ele><time>2026-04-12T17:24:30.314Z</time></trkpt><trkpt lat="45.3361527" lon="8.0885778"><ele>206.0</ele><time>2026-04-12T17:24:31.314Z</time></trkpt><trkpt lat="45.3359229" lon="8.0883245"><ele>206.0</ele><time>2026-04-12T17:24:32.315Z</time></trkpt><trkpt lat="45.3356914" lon="8.0880746"><ele>206.5</ele><time>2026-04-12T17:24:33.323Z</time></trkpt><trkpt lat="45.3354594" lon="8.0878254"><ele>207.0</ele><time>2026-04-12T17:24:34.311Z</time></trkpt><trkpt lat="45.3352269" lon="8.0875757"><ele>207.5</ele><time>2026-04-12T17:24:35.333Z</time></trkpt><trkpt lat="45.3349938" lon="8.0873246"><ele>208.0</ele><time>2026-04-12T17:24:36.307Z</time></trkpt><trkpt lat="45.334761" lon="8.0870712"><ele>208.0</ele><time>2026-04-12T17:24:37.31Z</time></trkpt><trkpt lat="45.3345273" lon="8.0868205"><ele>208.0</ele><time>2026-04-12T17:24:38.322Z</time></trkpt><trkpt lat="45.3342943" lon="8.086568"><ele>208.0</ele><time>2026-04-12T17:24:39.309Z</time></trkpt><trkpt lat="45.3340631" lon="8.0863172"><ele>208.0</ele><time>2026-04-12T17:24:40.325Z</time></trkpt><trkpt lat="45.3338331" lon="8.0860668"><ele>207.5</ele><time>2026-04-12T17:24:41.311Z</time></trkpt><trkpt lat="45.3336007" lon="8.0858161"><ele>207.0</ele><time>2026-04-12T17:24:42.314Z</time></trkpt><trkpt lat="45.3333682" lon="8.0855669"><ele>207.0</ele><time>2026-04-12T17:24:43.308Z</time></trkpt><trkpt lat="45.3331345" lon="8.0853154"><ele>207.0</ele><time>2026-04-12T17:24:44.311Z</time></trkpt><trkpt lat="45.3329016" lon="8.0850622"><ele>207.5</ele><time>2026-04-12T17:24:45.315Z</time></trkpt><trkpt lat="45.3326683" lon="8.0848103"><ele>208.0</ele><time>2026-04-12T17:24:46.314Z</time></trkpt><trkpt lat="45.3324333" lon="8.0845582"><ele>208.0</ele><time>2026-04-12T17:24:47.33Z</time></trkpt><trkpt lat="45.3321988" lon="8.0843042"><ele>208.0</ele><time>2026-04-12T17:24:48.313Z</time></trkpt><trkpt lat="45.3319647" lon="8.084049"><ele>207.5</ele><time>2026-04-12T17:24:49.313Z</time></trkpt><trkpt lat="45.3317322" lon="8.0837971"><ele>207.0</ele><time>2026-04-12T17:24:50.312Z</time></trkpt><trkpt lat="45.3314998" lon="8.083545"><ele>207.0</ele><time>2026-04-12T17:24:51.305Z</time></trkpt><trkpt lat="45.3312666" lon="8.083293"><ele>207.0</ele><time>2026-04-12T17:24:52.321Z</time></trkpt><trkpt lat="45.3310326" lon="8.0830408"><ele>207.0</ele><time>2026-04-12T17:24:53.311Z</time></trkpt><trkpt lat="45.3307989" lon="8.0827842"><ele>207.0</ele><time>2026-04-12T17:24:54.33Z</time></trkpt><trkpt lat="45.3305657" lon="8.0825251"><ele>207.0</ele><time>2026-04-12T17:24:55.309Z</time></trkpt><trkpt lat="45.3303303" lon="8.0822661"><ele>207.0</ele><time>2026-04-12T17:24:56.313Z</time></trkpt><trkpt lat="45.3300904" lon="8.0820137"><ele>207.0</ele><time>2026-04-12T17:24:57.316Z</time></trkpt><trkpt lat="45.3298518" lon="8.0817591"><ele>207.0</ele><time>2026-04-12T17:24:58.323Z</time></trkpt><trkpt lat="45.3296121" lon="8.0815027"><ele>207.5</ele><time>2026-04-12T17:24:59.33Z</time></trkpt><trkpt lat="45.3293733" lon="8.0812428"><ele>208.0</ele><time>2026-04-12T17:25:00.308Z</time></trkpt><trkpt lat="45.3291354" lon="8.0809827"><ele>208.0</ele><time>2026-04-12T17:25:01.303Z</time></trkpt><trkpt lat="45.3288964" lon="8.0807204"><ele>208.0</ele><time>2026-04-12T17:25:02.318Z</time></trkpt><trkpt lat="45.3286566" lon="8.0804601"><ele>207.5</ele><time>2026-04-12T17:25:03.305Z</time></trkpt><trkpt lat="45.3284168" lon="8.0802013"><ele>207.0</ele><time>2026-04-12T17:25:04.311Z</time></trkpt><trkpt lat="45.3281778" lon="8.0799411"><ele>207.0</ele><time>2026-04-12T17:25:05.314Z</time></trkpt><trkpt lat="45.3279406" lon="8.0796797"><ele>207.0</ele><time>2026-04-12T17:25:06.329Z</time></trkpt><trkpt lat="45.3277047" lon="8.0794219"><ele>207.0</ele><time>2026-04-12T17:25:07.309Z</time></trkpt><trkpt lat="45.3274702" lon="8.0791633"><ele>207.0</ele><time>2026-04-12T17:25:08.307Z</time></trkpt><trkpt lat="45.327237" lon="8.0789084"><ele>206.0</ele><time>2026-04-12T17:25:09.312Z</time></trkpt><trkpt lat="45.3270026" lon="8.0786555"><ele>205.0</ele><time>2026-04-12T17:25:10.306Z</time></trkpt><trkpt lat="45.3267676" lon="8.0784069"><ele>206.0</ele><time>2026-04-12T17:25:11.313Z</time></trkpt><trkpt lat="45.3265337" lon="8.0781573"><ele>207.0</ele><time>2026-04-12T17:25:12.314Z</time></trkpt><trkpt lat="45.3263004" lon="8.0779062"><ele>207.0</ele><time>2026-04-12T17:25:13.313Z</time></trkpt><trkpt lat="45.3260677" lon="8.0776554"><ele>207.0</ele><time>2026-04-12T17:25:14.333Z</time></trkpt><trkpt lat="45.3258341" lon="8.0774015"><ele>207.0</ele><time>2026-04-12T17:25:15.323Z</time></trkpt><trkpt lat="45.3256001" lon="8.0771492"><ele>207.0</ele><time>2026-04-12T17:25:16.327Z</time></trkpt><trkpt lat="45.3253676" lon="8.0768959"><ele>206.5</ele><time>2026-04-12T17:25:17.308Z</time></trkpt><trkpt lat="45.3251333" lon="8.0766403"><ele>206.0</ele><time>2026-04-12T17:25:18.312Z</time></trkpt><trkpt lat="45.3248976" lon="8.0763826"><ele>206.5</ele><time>2026-04-12T17:25:19.31Z</time></trkpt><trkpt lat="45.3246597" lon="8.0761276"><ele>207.0</ele><time>2026-04-12T17:25:20.313Z</time></trkpt><trkpt lat="45.3244247" lon="8.0758711"><ele>207.5</ele><time>2026-04-12T17:25:21.327Z</time></trkpt><trkpt lat="45.3241888" lon="8.0756146"><ele>208.0</ele><time>2026-04-12T17:25:22.314Z</time></trkpt><trkpt lat="45.3239539" lon="8.0753588"><ele>207.5</ele><time>2026-04-12T17:25:23.312Z</time></trkpt><trkpt lat="45.3237171" lon="8.0751033"><ele>207.0</ele><time>2026-04-12T17:25:24.312Z</time></trkpt><trkpt lat="45.323481" lon="8.0748462"><ele>207.0</ele><time>2026-04-12T17:25:25.314Z</time></trkpt><trkpt lat="45.3232435" lon="8.0745908"><ele>207.0</ele><time>2026-04-12T17:25:26.327Z</time></trkpt><trkpt lat="45.3230049" lon="8.0743349"><ele>206.5</ele><time>2026-04-12T17:25:27.329Z</time></trkpt><trkpt lat="45.3227673" lon="8.0740759"><ele>206.0</ele><time>2026-04-12T17:25:28.311Z</time></trkpt><trkpt lat="45.3225297" lon="8.0738154"><ele>206.0</ele><time>2026-04-12T17:25:29.299Z</time></trkpt><trkpt lat="45.322292" lon="8.0735592"><ele>206.0</ele><time>2026-04-12T17:25:30.305Z</time></trkpt><trkpt lat="45.3220552" lon="8.0733043"><ele>205.5</ele><time>2026-04-12T17:25:31.309Z</time></trkpt><trkpt lat="45.3218188" lon="8.0730495"><ele>205.0</ele><time>2026-04-12T17:25:32.329Z</time></trkpt><trkpt lat="45.3215815" lon="8.0727948"><ele>205.0</ele><time>2026-04-12T17:25:33.313Z</time></trkpt><trkpt lat="45.3213445" lon="8.0725416"><ele>205.0</ele><time>2026-04-12T17:25:34.312Z</time></trkpt><trkpt lat="45.3211079" lon="8.0722881"><ele>205.0</ele><time>2026-04-12T17:25:35.312Z</time></trkpt><trkpt lat="45.3208721" lon="8.0720337"><ele>205.0</ele><time>2026-04-12T17:25:36.318Z</time></trkpt><trkpt lat="45.3206374" lon="8.0717767"><ele>206.5</ele><time>2026-04-12T17:25:37.329Z</time></trkpt><trkpt lat="45.3204046" lon="8.0715196"><ele>208.0</ele><time>2026-04-12T17:25:38.308Z</time></trkpt><trkpt lat="45.320169" lon="8.0712629"><ele>208.0</ele><time>2026-04-12T17:25:39.309Z</time></trkpt><trkpt lat="45.3199332" lon="8.0710045"><ele>208.0</ele><time>2026-04-12T17:25:40.308Z</time></trkpt><trkpt lat="45.3196967" lon="8.0707498"><ele>208.0</ele><time>2026-04-12T17:25:41.313Z</time></trkpt><trkpt lat="45.3194594" lon="8.0704954"><ele>208.0</ele><time>2026-04-12T17:25:42.332Z</time></trkpt><trkpt lat="45.3192218" lon="8.0702413"><ele>208.0</ele><time>2026-04-12T17:25:43.309Z</time></trkpt><trkpt lat="45.3189844" lon="8.0699859"><ele>208.0</ele><time>2026-04-12T17:25:44.313Z</time></trkpt><trkpt lat="45.3187467" lon="8.0697303"><ele>207.0</ele><time>2026-04-12T17:25:45.311Z</time></trkpt><trkpt lat="45.3185108" lon="8.0694717"><ele>206.0</ele><time>2026-04-12T17:25:46.313Z</time></trkpt><trkpt lat="45.3182752" lon="8.0692132"><ele>205.5</ele><time>2026-04-12T17:25:47.311Z</time></trkpt><trkpt lat="45.3180395" lon="8.0689537"><ele>205.0</ele><time>2026-04-12T17:25:48.328Z</time></trkpt><trkpt lat="45.3178038" lon="8.0686935"><ele>205.0</ele><time>2026-04-12T17:25:49.323Z</time></trkpt><trkpt lat="45.3175674" lon="8.0684352"><ele>205.0</ele><time>2026-04-12T17:25:50.314Z</time></trkpt><trkpt lat="45.317332" lon="8.0681791"><ele>205.5</ele><time>2026-04-12T17:25:51.322Z</time></trkpt><trkpt lat="45.3170959" lon="8.0679229"><ele>206.0</ele><time>2026-04-12T17:25:52.321Z</time></trkpt><trkpt lat="45.3168604" lon="8.0676668"><ele>206.5</ele><time>2026-04-12T17:25:53.311Z</time></trkpt><trkpt lat="45.3166255" lon="8.0674102"><ele>207.0</ele><time>2026-04-12T17:25:54.303Z</time></trkpt><trkpt lat="45.3163913" lon="8.0671581"><ele>207.0</ele><time>2026-04-12T17:25:55.312Z</time></trkpt><trkpt lat="45.3161585" lon="8.0669067"><ele>207.0</ele><time>2026-04-12T17:25:56.322Z</time></trkpt><trkpt lat="45.3159288" lon="8.0666575"><ele>207.0</ele><time>2026-04-12T17:25:57.323Z</time></trkpt><trkpt lat="45.3157012" lon="8.0664083"><ele>207.0</ele><time>2026-04-12T17:25:58.308Z</time></trkpt><trkpt lat="45.3154757" lon="8.0661624"><ele>207.0</ele><time>2026-04-12T17:25:59.307Z</time></trkpt><trkpt lat="45.3152509" lon="8.0659169"><ele>207.0</ele><time>2026-04-12T17:26:00.312Z</time></trkpt><trkpt lat="45.3150275" lon="8.0656727"><ele>207.5</ele><time>2026-04-12T17:26:01.327Z</time></trkpt><trkpt lat="45.3148045" lon="8.065431"><ele>208.0</ele><time>2026-04-12T17:26:02.314Z</time></trkpt><trkpt lat="45.3145811" lon="8.0651916"><ele>208.0</ele><time>2026-04-12T17:26:03.316Z</time></trkpt><trkpt lat="45.3143576" lon="8.0649544"><ele>208.0</ele><time>2026-04-12T17:26:04.312Z</time></trkpt><trkpt lat="45.3141365" lon="8.0647164"><ele>208.0</ele><time>2026-04-12T17:26:05.323Z</time></trkpt><trkpt lat="45.3139154" lon="8.0644799"><ele>208.0</ele><time>2026-04-12T17:26:06.308Z</time></trkpt><trkpt lat="45.3136961" lon="8.0642407"><ele>208.0</ele><time>2026-04-12T17:26:07.313Z</time></trkpt><trkpt lat="45.3134762" lon="8.0640029"><ele>208.0</ele><time>2026-04-12T17:26:08.324Z</time></trkpt><trkpt lat="45.3132574" lon="8.0637655"><ele>208.0</ele><time>2026-04-12T17:26:09.308Z</time></trkpt><trkpt lat="45.3130386" lon="8.0635283"><ele>208.0</ele><time>2026-04-12T17:26:10.316Z</time></trkpt><trkpt lat="45.3128203" lon="8.0632887"><ele>208.5</ele><time>2026-04-12T17:26:11.313Z</time></trkpt><trkpt lat="45.3126025" lon="8.0630496"><ele>209.0</ele><time>2026-04-12T17:26:12.33Z</time></trkpt><trkpt lat="45.3123857" lon="8.0628153"><ele>209.0</ele><time>2026-04-12T17:26:13.312Z</time></trkpt><trkpt lat="45.3121686" lon="8.0625829"><ele>209.0</ele><time>2026-04-12T17:26:14.315Z</time></trkpt><trkpt lat="45.3119526" lon="8.0623518"><ele>208.5</ele><time>2026-04-12T17:26:15.313Z</time></trkpt><trkpt lat="45.3117364" lon="8.0621197"><ele>208.0</ele><time>2026-04-12T17:26:16.312Z</time></trkpt><trkpt lat="45.3115198" lon="8.0618866"><ele>208.5</ele><time>2026-04-12T17:26:17.312Z</time></trkpt><trkpt lat="45.3113032" lon="8.0616501"><ele>209.0</ele><time>2026-04-12T17:26:18.325Z</time></trkpt><trkpt lat="45.3110863" lon="8.0614145"><ele>209.0</ele><time>2026-04-12T17:26:19.309Z</time></trkpt><trkpt lat="45.3108682" lon="8.0611816"><ele>209.0</ele><time>2026-04-12T17:26:20.323Z</time></trkpt><trkpt lat="45.3106512" lon="8.0609466"><ele>209.5</ele><time>2026-04-12T17:26:21.317Z</time></trkpt><trkpt lat="45.3104332" lon="8.0607101"><ele>210.0</ele><time>2026-04-12T17:26:22.312Z</time></trkpt><trkpt lat="45.3102135" lon="8.0604744"><ele>210.0</ele><time>2026-04-12T17:26:23.332Z</time></trkpt><trkpt lat="45.3099941" lon="8.0602373"><ele>210.0</ele><time>2026-04-12T17:26:24.319Z</time></trkpt><trkpt lat="45.3097753" lon="8.0600021"><ele>211.0</ele><time>2026-04-12T17:26:25.332Z</time></trkpt><trkpt lat="45.309557" lon="8.0597647"><ele>212.0</ele><time>2026-04-12T17:26:26.324Z</time></trkpt><trkpt lat="45.3093392" lon="8.0595268"><ele>212.0</ele><time>2026-04-12T17:26:27.312Z</time></trkpt><trkpt lat="45.3091196" lon="8.0592915"><ele>212.0</ele><time>2026-04-12T17:26:28.312Z</time></trkpt><trkpt lat="45.3089004" lon="8.0590558"><ele>210.5</ele><time>2026-04-12T17:26:29.331Z</time></trkpt><trkpt lat="45.3086808" lon="8.0588192"><ele>209.0</ele><time>2026-04-12T17:26:30.31Z</time></trkpt><trkpt lat="45.3084601" lon="8.0585799"><ele>209.0</ele><time>2026-04-12T17:26:31.335Z</time></trkpt><trkpt lat="45.3082402" lon="8.0583392"><ele>209.0</ele><time>2026-04-12T17:26:32.315Z</time></trkpt><trkpt lat="45.3080194" lon="8.0580989"><ele>210.5</ele><time>2026-04-12T17:26:33.307Z</time></trkpt><trkpt lat="45.3078022" lon="8.0578602"><ele>212.0</ele><time>2026-04-12T17:26:34.309Z</time></trkpt><trkpt lat="45.3075854" lon="8.0576292"><ele>211.5</ele><time>2026-04-12T17:26:35.318Z</time></trkpt><trkpt lat="45.3073687" lon="8.0573988"><ele>211.0</ele><time>2026-04-12T17:26:36.329Z</time></trkpt><trkpt lat="45.3071528" lon="8.0571673"><ele>210.0</ele><time>2026-04-12T17:26:37.321Z</time></trkpt><trkpt lat="45.3069376" lon="8.0569344"><ele>209.0</ele><time>2026-04-12T17:26:38.307Z</time></trkpt><trkpt lat="45.3067225" lon="8.0566995"><ele>209.0</ele><time>2026-04-12T17:26:39.32Z</time></trkpt><trkpt lat="45.3065079" lon="8.0564661"><ele>209.0</ele><time>2026-04-12T17:26:40.312Z</time></trkpt><trkpt lat="45.3062942" lon="8.0562322"><ele>209.0</ele><time>2026-04-12T17:26:41.314Z</time></trkpt><trkpt lat="45.3060801" lon="8.0560014"><ele>209.0</ele><time>2026-04-12T17:26:42.312Z</time></trkpt><trkpt lat="45.305867" lon="8.0557702"><ele>210.0</ele><time>2026-04-12T17:26:43.325Z</time></trkpt><trkpt lat="45.3056532" lon="8.0555341"><ele>211.0</ele><time>2026-04-12T17:26:44.312Z</time></trkpt><trkpt lat="45.3054401" lon="8.0552988"><ele>211.0</ele><time>2026-04-12T17:26:45.312Z</time></trkpt><trkpt lat="45.3052249" lon="8.0550656"><ele>211.0</ele><time>2026-04-12T17:26:46.308Z</time></trkpt><trkpt lat="45.3050088" lon="8.0548359"><ele>211.0</ele><time>2026-04-12T17:26:47.322Z</time></trkpt><trkpt lat="45.3047931" lon="8.054604"><ele>211.0</ele><time>2026-04-12T17:26:48.312Z</time></trkpt><trkpt lat="45.3045768" lon="8.0543728"><ele>211.0</ele><time>2026-04-12T17:26:49.31Z</time></trkpt><trkpt lat="45.3043602" lon="8.0541384"><ele>211.0</ele><time>2026-04-12T17:26:50.305Z</time></trkpt><trkpt lat="45.3041435" lon="8.0539056"><ele>211.0</ele><time>2026-04-12T17:26:51.312Z</time></trkpt><trkpt lat="45.3039263" lon="8.0536709"><ele>211.0</ele><time>2026-04-12T17:26:52.312Z</time></trkpt><trkpt lat="45.3037096" lon="8.0534365"><ele>211.0</ele><time>2026-04-12T17:26:53.308Z</time></trkpt><trkpt lat="45.3034923" lon="8.0532012"><ele>211.0</ele><time>2026-04-12T17:26:54.331Z</time></trkpt><trkpt lat="45.3032734" lon="8.0529648"><ele>210.5</ele><time>2026-04-12T17:26:55.313Z</time></trkpt><trkpt lat="45.303052" lon="8.0527281"><ele>210.0</ele><time>2026-04-12T17:26:56.311Z</time></trkpt><trkpt lat="45.3028304" lon="8.0524896"><ele>210.0</ele><time>2026-04-12T17:26:57.328Z</time></trkpt><trkpt lat="45.3026064" lon="8.052247"><ele>210.0</ele><time>2026-04-12T17:26:58.315Z</time></trkpt><trkpt lat="45.3023822" lon="8.0520039"><ele>209.5</ele><time>2026-04-12T17:26:59.312Z</time></trkpt><trkpt lat="45.3021553" lon="8.0517578"><ele>209.0</ele><time>2026-04-12T17:27:00.322Z</time></trkpt><trkpt lat="45.3019272" lon="8.0515149"><ele>209.0</ele><time>2026-04-12T17:27:01.314Z</time></trkpt><trkpt lat="45.3016979" lon="8.0512688"><ele>209.0</ele><time>2026-04-12T17:27:02.321Z</time></trkpt><trkpt lat="45.3014707" lon="8.0510254"><ele>209.5</ele><time>2026-04-12T17:27:03.312Z</time></trkpt><trkpt lat="45.3012538" lon="8.0507873"><ele>210.0</ele><time>2026-04-12T17:27:04.312Z</time></trkpt><trkpt lat="45.3010476" lon="8.0505601"><ele>210.0</ele><time>2026-04-12T17:27:05.302Z</time></trkpt><trkpt lat="45.3008467" lon="8.0503442"><ele>210.0</ele><time>2026-04-12T17:27:06.312Z</time></trkpt><trkpt lat="45.3006493" lon="8.0501343"><ele>209.5</ele><time>2026-04-12T17:27:07.307Z</time></trkpt><trkpt lat="45.3004505" lon="8.0499299"><ele>209.0</ele><time>2026-04-12T17:27:08.312Z</time></trkpt><trkpt lat="45.3002467" lon="8.0497248"><ele>209.0</ele><time>2026-04-12T17:27:09.321Z</time></trkpt><trkpt lat="45.30004" lon="8.0495102"><ele>209.0</ele><time>2026-04-12T17:27:10.311Z</time></trkpt><trkpt lat="45.2998288" lon="8.0492823"><ele>210.5</ele><time>2026-04-12T17:27:11.334Z</time></trkpt><trkpt lat="45.2996127" lon="8.0490391"><ele>212.0</ele><time>2026-04-12T17:27:12.311Z</time></trkpt><trkpt lat="45.2993922" lon="8.0487805"><ele>212.0</ele><time>2026-04-12T17:27:13.307Z</time></trkpt><trkpt lat="45.2991665" lon="8.0485181"><ele>212.0</ele><time>2026-04-12T17:27:14.326Z</time></trkpt><trkpt lat="45.2989357" lon="8.0482525"><ele>211.0</ele><time>2026-04-12T17:27:15.31Z</time></trkpt><trkpt lat="45.2987001" lon="8.0479909"><ele>210.0</ele><time>2026-04-12T17:27:16.33Z</time></trkpt><trkpt lat="45.2984613" lon="8.0477283"><ele>210.0</ele><time>2026-04-12T17:27:17.305Z</time></trkpt><trkpt lat="45.2982182" lon="8.0474674"><ele>210.0</ele><time>2026-04-12T17:27:18.309Z</time></trkpt><trkpt lat="45.2979726" lon="8.0472029"><ele>210.0</ele><time>2026-04-12T17:27:19.322Z</time></trkpt><trkpt lat="45.2977274" lon="8.0469368"><ele>210.0</ele><time>2026-04-12T17:27:20.325Z</time></trkpt><trkpt lat="45.2974817" lon="8.0466693"><ele>210.0</ele><time>2026-04-12T17:27:21.313Z</time></trkpt><trkpt lat="45.2972356" lon="8.0463975"><ele>210.0</ele><time>2026-04-12T17:27:22.317Z</time></trkpt><trkpt lat="45.2969896" lon="8.0461261"><ele>210.0</ele><time>2026-04-12T17:27:23.319Z</time></trkpt><trkpt lat="45.2967427" lon="8.0458535"><ele>210.0</ele><time>2026-04-12T17:27:24.312Z</time></trkpt><trkpt lat="45.2964959" lon="8.0455825"><ele>209.5</ele><time>2026-04-12T17:27:25.321Z</time></trkpt><trkpt lat="45.2962473" lon="8.0453143"><ele>209.0</ele><time>2026-04-12T17:27:26.312Z</time></trkpt><trkpt lat="45.2959977" lon="8.0450467"><ele>209.5</ele><time>2026-04-12T17:27:27.312Z</time></trkpt><trkpt lat="45.2957491" lon="8.0447772"><ele>210.0</ele><time>2026-04-12T17:27:28.308Z</time></trkpt><trkpt lat="45.295501" lon="8.0445089"><ele>210.0</ele><time>2026-04-12T17:27:29.304Z</time></trkpt><trkpt lat="45.2952537" lon="8.0442445"><ele>210.0</ele><time>2026-04-12T17:27:30.311Z</time></trkpt><trkpt lat="45.2950076" lon="8.04398"><ele>210.0</ele><time>2026-04-12T17:27:31.31Z</time></trkpt><trkpt lat="45.2947621" lon="8.0437178"><ele>210.0</ele><time>2026-04-12T17:27:32.329Z</time></trkpt><trkpt lat="45.2945179" lon="8.0434547"><ele>210.5</ele><time>2026-04-12T17:27:33.312Z</time></trkpt><trkpt lat="45.2942739" lon="8.0431894"><ele>211.0</ele><time>2026-04-12T17:27:34.318Z</time></trkpt><trkpt lat="45.2940303" lon="8.0429231"><ele>210.5</ele><time>2026-04-12T17:27:35.306Z</time></trkpt><trkpt lat="45.2937859" lon="8.0426544"><ele>210.0</ele><time>2026-04-12T17:27:36.319Z</time></trkpt><trkpt lat="45.2935406" lon="8.0423845"><ele>210.0</ele><time>2026-04-12T17:27:37.31Z</time></trkpt><trkpt lat="45.2932958" lon="8.0421174"><ele>210.0</ele><time>2026-04-12T17:27:38.306Z</time></trkpt><trkpt lat="45.2930521" lon="8.0418507"><ele>210.5</ele><time>2026-04-12T17:27:39.313Z</time></trkpt><trkpt lat="45.2928052" lon="8.0415856"><ele>211.0</ele><time>2026-04-12T17:27:40.312Z</time></trkpt><trkpt lat="45.2925607" lon="8.0413211"><ele>211.0</ele><time>2026-04-12T17:27:41.313Z</time></trkpt><trkpt lat="45.2923168" lon="8.0410561"><ele>211.0</ele><time>2026-04-12T17:27:42.314Z</time></trkpt><trkpt lat="45.2920721" lon="8.0407911"><ele>212.0</ele><time>2026-04-12T17:27:43.317Z</time></trkpt><trkpt lat="45.2918271" lon="8.0405268"><ele>213.0</ele><time>2026-04-12T17:27:44.326Z</time></trkpt><trkpt lat="45.291582" lon="8.0402643"><ele>212.0</ele><time>2026-04-12T17:27:45.329Z</time></trkpt><trkpt lat="45.2913367" lon="8.0399994"><ele>211.0</ele><time>2026-04-12T17:27:46.322Z</time></trkpt><trkpt lat="45.2910917" lon="8.0397328"><ele>211.0</ele><time>2026-04-12T17:27:47.322Z</time></trkpt><trkpt lat="45.2908488" lon="8.0394638"><ele>211.0</ele><time>2026-04-12T17:27:48.334Z</time></trkpt><trkpt lat="45.2906048" lon="8.039194"><ele>212.0</ele><time>2026-04-12T17:27:49.309Z</time></trkpt><trkpt lat="45.2903615" lon="8.0389298"><ele>213.0</ele><time>2026-04-12T17:27:50.31Z</time></trkpt><trkpt lat="45.2901194" lon="8.0386665"><ele>213.0</ele><time>2026-04-12T17:27:51.314Z</time></trkpt><trkpt lat="45.2898769" lon="8.038404"><ele>213.0</ele><time>2026-04-12T17:27:52.316Z</time></trkpt><trkpt lat="45.2896331" lon="8.0381396"><ele>213.5</ele><time>2026-04-12T17:27:53.307Z</time></trkpt><trkpt lat="45.2893903" lon="8.0378748"><ele>214.0</ele><time>2026-04-12T17:27:54.326Z</time></trkpt><trkpt lat="45.2891479" lon="8.0376105"><ele>213.0</ele><time>2026-04-12T17:27:55.309Z</time></trkpt><trkpt lat="45.2889052" lon="8.0373468"><ele>212.0</ele><time>2026-04-12T17:27:56.323Z</time></trkpt><trkpt lat="45.2886632" lon="8.0370837"><ele>212.0</ele><time>2026-04-12T17:27:57.316Z</time></trkpt><trkpt lat="45.2884217" lon="8.0368235"><ele>212.0</ele><time>2026-04-12T17:27:58.313Z</time></trkpt><trkpt lat="45.2881795" lon="8.0365633"><ele>213.0</ele><time>2026-04-12T17:27:59.307Z</time></trkpt><trkpt lat="45.2879376" lon="8.0363019"><ele>214.0</ele><time>2026-04-12T17:28:00.319Z</time></trkpt><trkpt lat="45.287697" lon="8.0360393"><ele>214.5</ele><time>2026-04-12T17:28:01.325Z</time></trkpt><trkpt lat="45.2874556" lon="8.0357749"><ele>215.0</ele><time>2026-04-12T17:28:02.322Z</time></trkpt><trkpt lat="45.2872138" lon="8.0355102"><ele>214.0</ele><time>2026-04-12T17:28:03.325Z</time></trkpt><trkpt lat="45.2869721" lon="8.0352458"><ele>213.0</ele><time>2026-04-12T17:28:04.323Z</time></trkpt><trkpt lat="45.2867301" lon="8.0349836"><ele>212.5</ele><time>2026-04-12T17:28:05.31Z</time></trkpt><trkpt lat="45.2864881" lon="8.0347239"><ele>212.0</ele><time>2026-04-12T17:28:06.311Z</time></trkpt><trkpt lat="45.2862449" lon="8.0344667"><ele>212.0</ele><time>2026-04-12T17:28:07.314Z</time></trkpt><trkpt lat="45.2860022" lon="8.0342072"><ele>212.0</ele><time>2026-04-12T17:28:08.312Z</time></trkpt><trkpt lat="45.2857603" lon="8.0339442"><ele>212.5</ele><time>2026-04-12T17:28:09.327Z</time></trkpt><trkpt lat="45.2855184" lon="8.0336807"><ele>213.0</ele><time>2026-04-12T17:28:10.309Z</time></trkpt><trkpt lat="45.2852771" lon="8.0334185"><ele>212.5</ele><time>2026-04-12T17:28:11.313Z</time></trkpt><trkpt lat="45.2850365" lon="8.0331571"><ele>212.0</ele><time>2026-04-12T17:28:12.309Z</time></trkpt><trkpt lat="45.284796" lon="8.0328951"><ele>213.0</ele><time>2026-04-12T17:28:13.325Z</time></trkpt><trkpt lat="45.2845544" lon="8.0326343"><ele>214.0</ele><time>2026-04-12T17:28:14.305Z</time></trkpt><trkpt lat="45.284315" lon="8.0323783"><ele>214.0</ele><time>2026-04-12T17:28:15.333Z</time></trkpt><trkpt lat="45.284076" lon="8.032126"><ele>214.0</ele><time>2026-04-12T17:28:16.325Z</time></trkpt><trkpt lat="45.2838382" lon="8.0318754"><ele>214.5</ele><time>2026-04-12T17:28:17.31Z</time></trkpt><trkpt lat="45.2835992" lon="8.0316291"><ele>215.0</ele><time>2026-04-12T17:28:18.316Z</time></trkpt><trkpt lat="45.2833594" lon="8.0313773"><ele>215.0</ele><time>2026-04-12T17:28:19.314Z</time></trkpt><trkpt lat="45.2831193" lon="8.0311235"><ele>215.0</ele><time>2026-04-12T17:28:20.318Z</time></trkpt><trkpt lat="45.2828798" lon="8.0308664"><ele>214.5</ele><time>2026-04-12T17:28:21.311Z</time></trkpt><trkpt lat="45.2826404" lon="8.0306068"><ele>214.0</ele><time>2026-04-12T17:28:22.317Z</time></trkpt><trkpt lat="45.2824028" lon="8.0303438"><ele>213.5</ele><time>2026-04-12T17:28:23.304Z</time></trkpt><trkpt lat="45.2821653" lon="8.0300778"><ele>213.0</ele><time>2026-04-12T17:28:24.332Z</time></trkpt><trkpt lat="45.2819272" lon="8.0298114"><ele>213.0</ele><time>2026-04-12T17:28:25.309Z</time></trkpt><trkpt lat="45.2816892" lon="8.0295419"><ele>213.0</ele><time>2026-04-12T17:28:26.302Z</time></trkpt><trkpt lat="45.2814492" lon="8.029272"><ele>214.5</ele><time>2026-04-12T17:28:27.313Z</time></trkpt><trkpt lat="45.2812066" lon="8.0290008"><ele>216.0</ele><time>2026-04-12T17:28:28.309Z</time></trkpt><trkpt lat="45.2809636" lon="8.0287276"><ele>216.0</ele><time>2026-04-12T17:28:29.314Z</time></trkpt><trkpt lat="45.2807185" lon="8.0284523"><ele>216.0</ele><time>2026-04-12T17:28:30.331Z</time></trkpt><trkpt lat="45.2804711" lon="8.0281786"><ele>215.5</ele><time>2026-04-12T17:28:31.312Z</time></trkpt><trkpt lat="45.2802205" lon="8.0279099"><ele>215.0</ele><time>2026-04-12T17:28:32.312Z</time></trkpt><trkpt lat="45.27997" lon="8.0276391"><ele>213.5</ele><time>2026-04-12T17:28:33.314Z</time></trkpt><trkpt lat="45.2797215" lon="8.0273668"><ele>212.0</ele><time>2026-04-12T17:28:34.3Z</time></trkpt><trkpt lat="45.2794728" lon="8.0270938"><ele>212.0</ele><time>2026-04-12T17:28:35.312Z</time></trkpt><trkpt lat="45.2792251" lon="8.0268262"><ele>212.0</ele><time>2026-04-12T17:28:36.313Z</time></trkpt><trkpt lat="45.2789789" lon="8.0265602"><ele>213.5</ele><time>2026-04-12T17:28:37.313Z</time></trkpt><trkpt lat="45.2787338" lon="8.0262983"><ele>215.0</ele><time>2026-04-12T17:28:38.309Z</time></trkpt><trkpt lat="45.2784887" lon="8.0260345"><ele>214.5</ele><time>2026-04-12T17:28:39.305Z</time></trkpt><trkpt lat="45.2782457" lon="8.0257717"><ele>214.0</ele><time>2026-04-12T17:28:40.304Z</time></trkpt><trkpt lat="45.2780038" lon="8.025509"><ele>214.0</ele><time>2026-04-12T17:28:41.314Z</time></trkpt><trkpt lat="45.2777625" lon="8.0252473"><ele>214.0</ele><time>2026-04-12T17:28:42.31Z</time></trkpt><trkpt lat="45.2775231" lon="8.0249856"><ele>214.5</ele><time>2026-04-12T17:28:43.311Z</time></trkpt><trkpt lat="45.277284" lon="8.024724"><ele>215.0</ele><time>2026-04-12T17:28:44.314Z</time></trkpt><trkpt lat="45.2770489" lon="8.024468"><ele>214.0</ele><time>2026-04-12T17:28:45.305Z</time></trkpt><trkpt lat="45.2768135" lon="8.0242112"><ele>213.0</ele><time>2026-04-12T17:28:46.308Z</time></trkpt><trkpt lat="45.276574" lon="8.0239475"><ele>212.5</ele><time>2026-04-12T17:28:47.309Z</time></trkpt><trkpt lat="45.2763345" lon="8.0236851"><ele>212.0</ele><time>2026-04-12T17:28:48.312Z</time></trkpt><trkpt lat="45.2760936" lon="8.0234258"><ele>212.5</ele><time>2026-04-12T17:28:49.332Z</time></trkpt><trkpt lat="45.2758517" lon="8.0231671"><ele>213.0</ele><time>2026-04-12T17:28:50.323Z</time></trkpt><trkpt lat="45.2756111" lon="8.0229076"><ele>213.0</ele><time>2026-04-12T17:28:51.31Z</time></trkpt><trkpt lat="45.2753707" lon="8.0226471"><ele>213.0</ele><time>2026-04-12T17:28:52.326Z</time></trkpt><trkpt lat="45.2751285" lon="8.0223863"><ele>213.0</ele><time>2026-04-12T17:28:53.314Z</time></trkpt><trkpt lat="45.274886" lon="8.0221281"><ele>213.0</ele><time>2026-04-12T17:28:54.315Z</time></trkpt><trkpt lat="45.2746456" lon="8.0218673"><ele>213.5</ele><time>2026-04-12T17:28:55.315Z</time></trkpt><trkpt lat="45.2744045" lon="8.0216068"><ele>214.0</ele><time>2026-04-12T17:28:56.312Z</time></trkpt><trkpt lat="45.2741641" lon="8.0213457"><ele>213.5</ele><time>2026-04-12T17:28:57.313Z</time></trkpt><trkpt lat="45.2739232" lon="8.0210831"><ele>213.0</ele><time>2026-04-12T17:28:58.316Z</time></trkpt><trkpt lat="45.2736812" lon="8.0208214"><ele>213.5</ele><time>2026-04-12T17:28:59.326Z</time></trkpt><trkpt lat="45.2734378" lon="8.0205598"><ele>214.0</ele><time>2026-04-12T17:29:00.312Z</time></trkpt><trkpt lat="45.2731949" lon="8.0202977"><ele>214.0</ele><time>2026-04-12T17:29:01.333Z</time></trkpt><trkpt lat="45.272954" lon="8.0200355"><ele>214.0</ele><time>2026-04-12T17:29:02.321Z</time></trkpt><trkpt lat="45.2727122" lon="8.0197739"><ele>213.5</ele><time>2026-04-12T17:29:03.314Z</time></trkpt><trkpt lat="45.2724713" lon="8.0195125"><ele>213.0</ele><time>2026-04-12T17:29:04.307Z</time></trkpt><trkpt lat="45.2722304" lon="8.0192551"><ele>212.0</ele><time>2026-04-12T17:29:05.323Z</time></trkpt><trkpt lat="45.2719907" lon="8.018996"><ele>211.0</ele><time>2026-04-12T17:29:06.325Z</time></trkpt><trkpt lat="45.2717534" lon="8.0187389"><ele>211.0</ele><time>2026-04-12T17:29:07.306Z</time></trkpt><trkpt lat="45.2715165" lon="8.0184804"><ele>211.0</ele><time>2026-04-12T17:29:08.314Z</time></trkpt><trkpt lat="45.2712805" lon="8.0182211"><ele>211.5</ele><time>2026-04-12T17:29:09.31Z</time></trkpt><trkpt lat="45.2710455" lon="8.0179593"><ele>212.0</ele><time>2026-04-12T17:29:10.331Z</time></trkpt><trkpt lat="45.270809" lon="8.0176993"><ele>212.0</ele><time>2026-04-12T17:29:11.313Z</time></trkpt><trkpt lat="45.2705714" lon="8.0174402"><ele>212.0</ele><time>2026-04-12T17:29:12.321Z</time></trkpt><trkpt lat="45.2703332" lon="8.0171803"><ele>212.0</ele><time>2026-04-12T17:29:13.313Z</time></trkpt><trkpt lat="45.2700938" lon="8.0169212"><ele>212.0</ele><time>2026-04-12T17:29:14.313Z</time></trkpt><trkpt lat="45.2698557" lon="8.0166638"><ele>212.0</ele><time>2026-04-12T17:29:15.331Z</time></trkpt><trkpt lat="45.269618" lon="8.0164055"><ele>212.0</ele><time>2026-04-12T17:29:16.312Z</time></trkpt><trkpt lat="45.2693792" lon="8.0161452"><ele>212.0</ele><time>2026-04-12T17:29:17.314Z</time></trkpt><trkpt lat="45.2691383" lon="8.015882"><ele>212.0</ele><time>2026-04-12T17:29:18.31Z</time></trkpt><trkpt lat="45.2688969" lon="8.0156175"><ele>211.5</ele><time>2026-04-12T17:29:19.31Z</time></trkpt><trkpt lat="45.2686544" lon="8.0153527"><ele>211.0</ele><time>2026-04-12T17:29:20.307Z</time></trkpt><trkpt lat="45.2684102" lon="8.0150915"><ele>211.0</ele><time>2026-04-12T17:29:21.319Z</time></trkpt><trkpt lat="45.2681643" lon="8.0148301"><ele>211.0</ele><time>2026-04-12T17:29:22.326Z</time></trkpt><trkpt lat="45.2679186" lon="8.0145634"><ele>211.0</ele><time>2026-04-12T17:29:23.31Z</time></trkpt><trkpt lat="45.267672" lon="8.0142941"><ele>211.0</ele><time>2026-04-12T17:29:24.312Z</time></trkpt><trkpt lat="45.2674239" lon="8.0140264"><ele>209.5</ele><time>2026-04-12T17:29:25.312Z</time></trkpt><trkpt lat="45.2671751" lon="8.0137593"><ele>208.0</ele><time>2026-04-12T17:29:26.331Z</time></trkpt><trkpt lat="45.2669266" lon="8.0134898"><ele>208.5</ele><time>2026-04-12T17:29:27.316Z</time></trkpt><trkpt lat="45.2666781" lon="8.013221"><ele>209.0</ele><time>2026-04-12T17:29:28.312Z</time></trkpt><trkpt lat="45.2664287" lon="8.0129537"><ele>209.0</ele><time>2026-04-12T17:29:29.314Z</time></trkpt><trkpt lat="45.2661794" lon="8.0126845"><ele>209.0</ele><time>2026-04-12T17:29:30.322Z</time></trkpt><trkpt lat="45.265931" lon="8.0124148"><ele>209.5</ele><time>2026-04-12T17:29:31.315Z</time></trkpt><trkpt lat="45.2656831" lon="8.0121424"><ele>210.0</ele><time>2026-04-12T17:29:32.332Z</time></trkpt><trkpt lat="45.2654354" lon="8.0118751"><ele>211.5</ele><time>2026-04-12T17:29:33.32Z</time></trkpt><trkpt lat="45.265188" lon="8.011607"><ele>213.0</ele><time>2026-04-12T17:29:34.325Z</time></trkpt><trkpt lat="45.2649421" lon="8.0113391"><ele>212.5</ele><time>2026-04-12T17:29:35.312Z</time></trkpt><trkpt lat="45.2646961" lon="8.01107"><ele>212.0</ele><time>2026-04-12T17:29:36.321Z</time></trkpt><trkpt lat="45.2644469" lon="8.0108016"><ele>210.5</ele><time>2026-04-12T17:29:37.314Z</time></trkpt><trkpt lat="45.2641976" lon="8.0105334"><ele>209.0</ele><time>2026-04-12T17:29:38.308Z</time></trkpt><trkpt lat="45.2639474" lon="8.0102673"><ele>209.0</ele><time>2026-04-12T17:29:39.316Z</time></trkpt><trkpt lat="45.2636993" lon="8.0100007"><ele>209.0</ele><time>2026-04-12T17:29:40.33Z</time></trkpt><trkpt lat="45.2634537" lon="8.0097341"><ele>209.0</ele><time>2026-04-12T17:29:41.338Z</time></trkpt><trkpt lat="45.2632095" lon="8.009467"><ele>209.0</ele><time>2026-04-12T17:29:42.309Z</time></trkpt><trkpt lat="45.2629656" lon="8.0092003"><ele>208.5</ele><time>2026-04-12T17:29:43.322Z</time></trkpt><trkpt lat="45.2627222" lon="8.0089328"><ele>208.0</ele><time>2026-04-12T17:29:44.308Z</time></trkpt><trkpt lat="45.2624761" lon="8.0086637"><ele>208.0</ele><time>2026-04-12T17:29:45.323Z</time></trkpt><trkpt lat="45.2622284" lon="8.0083956"><ele>208.0</ele><time>2026-04-12T17:29:46.312Z</time></trkpt><trkpt lat="45.2619785" lon="8.0081256"><ele>208.0</ele><time>2026-04-12T17:29:47.319Z</time></trkpt><trkpt lat="45.2617291" lon="8.0078529"><ele>208.0</ele><time>2026-04-12T17:29:48.306Z</time></trkpt><trkpt lat="45.2614798" lon="8.0075812"><ele>207.5</ele><time>2026-04-12T17:29:49.307Z</time></trkpt><trkpt lat="45.2612303" lon="8.0073087"><ele>207.0</ele><time>2026-04-12T17:29:50.323Z</time></trkpt><trkpt lat="45.2609802" lon="8.007038"><ele>207.0</ele><time>2026-04-12T17:29:51.329Z</time></trkpt><trkpt lat="45.2607308" lon="8.0067663"><ele>207.0</ele><time>2026-04-12T17:29:52.334Z</time></trkpt><trkpt lat="45.260483" lon="8.0064933"><ele>206.5</ele><time>2026-04-12T17:29:53.325Z</time></trkpt><trkpt lat="45.2602357" lon="8.0062213"><ele>206.0</ele><time>2026-04-12T17:29:54.313Z</time></trkpt><trkpt lat="45.2599885" lon="8.0059466"><ele>207.0</ele><time>2026-04-12T17:29:55.322Z</time></trkpt><trkpt lat="45.259743" lon="8.0056731"><ele>208.0</ele><time>2026-04-12T17:29:56.316Z</time></trkpt><trkpt lat="45.2594989" lon="8.0054006"><ele>208.0</ele><time>2026-04-12T17:29:57.331Z</time></trkpt><trkpt lat="45.2592555" lon="8.0051259"><ele>208.0</ele><time>2026-04-12T17:29:58.327Z</time></trkpt><trkpt lat="45.2590125" lon="8.0048524"><ele>207.0</ele><time>2026-04-12T17:29:59.321Z</time></trkpt><trkpt lat="45.2587728" lon="8.0045782"><ele>206.0</ele><time>2026-04-12T17:30:00.327Z</time></trkpt><trkpt lat="45.2585368" lon="8.0042966"><ele>206.0</ele><time>2026-04-12T17:30:01.31Z</time></trkpt><trkpt lat="45.2583032" lon="8.0040129"><ele>206.0</ele><time>2026-04-12T17:30:02.303Z</time></trkpt><trkpt lat="45.2580715" lon="8.0037266"><ele>206.0</ele><time>2026-04-12T17:30:03.323Z</time></trkpt><trkpt lat="45.2578391" lon="8.0034391"><ele>206.0</ele><time>2026-04-12T17:30:04.314Z</time></trkpt><trkpt lat="45.2576087" lon="8.0031541"><ele>206.0</ele><time>2026-04-12T17:30:05.325Z</time></trkpt><trkpt lat="45.2573798" lon="8.0028681"><ele>206.0</ele><time>2026-04-12T17:30:06.303Z</time></trkpt><trkpt lat="45.2571527" lon="8.0025828"><ele>205.5</ele><time>2026-04-12T17:30:07.321Z</time></trkpt><trkpt lat="45.2569289" lon="8.0022972"><ele>205.0</ele><time>2026-04-12T17:30:08.31Z</time></trkpt><trkpt lat="45.2567069" lon="8.0020141"><ele>205.0</ele><time>2026-04-12T17:30:09.317Z</time></trkpt><trkpt lat="45.256485" lon="8.0017316"><ele>205.0</ele><time>2026-04-12T17:30:10.32Z</time></trkpt><trkpt lat="45.2562637" lon="8.0014459"><ele>205.5</ele><time>2026-04-12T17:30:11.309Z</time></trkpt><trkpt lat="45.2560428" lon="8.0011562"><ele>206.0</ele><time>2026-04-12T17:30:12.301Z</time></trkpt><trkpt lat="45.2558222" lon="8.0008617"><ele>205.0</ele><time>2026-04-12T17:30:13.314Z</time></trkpt><trkpt lat="45.2556025" lon="8.0005646"><ele>204.0</ele><time>2026-04-12T17:30:14.333Z</time></trkpt><trkpt lat="45.2553843" lon="8.0002633"><ele>204.0</ele><time>2026-04-12T17:30:15.312Z</time></trkpt><trkpt lat="45.2551688" lon="7.9999554"><ele>204.0</ele><time>2026-04-12T17:30:16.31Z</time></trkpt><trkpt lat="45.254955" lon="7.9996418"><ele>204.5</ele><time>2026-04-12T17:30:17.31Z</time></trkpt><trkpt lat="45.2547429" lon="7.9993278"><ele>205.0</ele><time>2026-04-12T17:30:18.31Z</time></trkpt><trkpt lat="45.2545312" lon="7.9990122"><ele>207.0</ele><time>2026-04-12T17:30:19.312Z</time></trkpt><trkpt lat="45.2543194" lon="7.9986943"><ele>209.0</ele><time>2026-04-12T17:30:20.325Z</time></trkpt><trkpt lat="45.2541086" lon="7.9983744"><ele>206.0</ele><time>2026-04-12T17:30:21.313Z</time></trkpt><trkpt lat="45.2538983" lon="7.9980557"><ele>203.0</ele><time>2026-04-12T17:30:22.312Z</time></trkpt><trkpt lat="45.2536912" lon="7.9977332"><ele>202.0</ele><time>2026-04-12T17:30:23.322Z</time></trkpt><trkpt lat="45.2534867" lon="7.9974051"><ele>201.0</ele><time>2026-04-12T17:30:24.315Z</time></trkpt><trkpt lat="45.2532828" lon="7.9970748"><ele>200.5</ele><time>2026-04-12T17:30:25.334Z</time></trkpt><trkpt lat="45.2530788" lon="7.9967422"><ele>200.0</ele><time>2026-04-12T17:30:26.331Z</time></trkpt><trkpt lat="45.2528739" lon="7.9964101"><ele>200.0</ele><time>2026-04-12T17:30:27.324Z</time></trkpt><trkpt lat="45.2526691" lon="7.996079"><ele>200.0</ele><time>2026-04-12T17:30:28.312Z</time></trkpt><trkpt lat="45.2524643" lon="7.9957447"><ele>201.0</ele><time>2026-04-12T17:30:29.31Z</time></trkpt><trkpt lat="45.2522598" lon="7.9954103"><ele>202.0</ele><time>2026-04-12T17:30:30.317Z</time></trkpt><trkpt lat="45.2520573" lon="7.9950724"><ele>200.5</ele><time>2026-04-12T17:30:31.326Z</time></trkpt><trkpt lat="45.2518605" lon="7.9947299"><ele>199.0</ele><time>2026-04-12T17:30:32.33Z</time></trkpt><trkpt lat="45.2516671" lon="7.9943881"><ele>198.5</ele><time>2026-04-12T17:30:33.312Z</time></trkpt><trkpt lat="45.2514723" lon="7.9940484"><ele>198.0</ele><time>2026-04-12T17:30:34.313Z</time></trkpt><trkpt lat="45.2512747" lon="7.9937071"><ele>197.5</ele><time>2026-04-12T17:30:35.332Z</time></trkpt><trkpt lat="45.2510771" lon="7.9933679"><ele>197.0</ele><time>2026-04-12T17:30:36.319Z</time></trkpt><trkpt lat="45.2508809" lon="7.9930274"><ele>195.5</ele><time>2026-04-12T17:30:37.325Z</time></trkpt><trkpt lat="45.2506847" lon="7.992685"><ele>194.0</ele><time>2026-04-12T17:30:38.326Z</time></trkpt><trkpt lat="45.250489" lon="7.9923419"><ele>191.0</ele><time>2026-04-12T17:30:39.304Z</time></trkpt><trkpt lat="45.2502937" lon="7.9919953"><ele>188.0</ele><time>2026-04-12T17:30:40.314Z</time></trkpt><trkpt lat="45.2501033" lon="7.9916482"><ele>187.0</ele><time>2026-04-12T17:30:41.329Z</time></trkpt><trkpt lat="45.2499141" lon="7.9913002"><ele>186.0</ele><time>2026-04-12T17:30:42.322Z</time></trkpt><trkpt lat="45.2497248" lon="7.990953"><ele>185.0</ele><time>2026-04-12T17:30:43.321Z</time></trkpt><trkpt lat="45.2495352" lon="7.9906044"><ele>184.0</ele><time>2026-04-12T17:30:44.324Z</time></trkpt><trkpt lat="45.2493462" lon="7.9902548"><ele>184.5</ele><time>2026-04-12T17:30:45.308Z</time></trkpt><trkpt lat="45.2491609" lon="7.989903"><ele>185.0</ele><time>2026-04-12T17:30:46.325Z</time></trkpt><trkpt lat="45.2489775" lon="7.9895513"><ele>184.0</ele><time>2026-04-12T17:30:47.332Z</time></trkpt><trkpt lat="45.2487953" lon="7.9891999"><ele>183.0</ele><time>2026-04-12T17:30:48.312Z</time></trkpt><trkpt lat="45.2486163" lon="7.9888465"><ele>185.0</ele><time>2026-04-12T17:30:49.323Z</time></trkpt><trkpt lat="45.2484371" lon="7.9884937"><ele>187.0</ele><time>2026-04-12T17:30:50.314Z</time></trkpt><trkpt lat="45.248261" lon="7.9881418"><ele>186.0</ele><time>2026-04-12T17:30:51.33Z</time></trkpt><trkpt lat="45.2480882" lon="7.9877888"><ele>185.0</ele><time>2026-04-12T17:30:52.324Z</time></trkpt><trkpt lat="45.2479189" lon="7.9874359"><ele>185.0</ele><time>2026-04-12T17:30:53.31Z</time></trkpt><trkpt lat="45.2477516" lon="7.9870822"><ele>185.0</ele><time>2026-04-12T17:30:54.32Z</time></trkpt><trkpt lat="45.247585" lon="7.9867296"><ele>185.5</ele><time>2026-04-12T17:30:55.327Z</time></trkpt><trkpt lat="45.2474183" lon="7.9863762"><ele>186.0</ele><time>2026-04-12T17:30:56.331Z</time></trkpt><trkpt lat="45.2472557" lon="7.9860208"><ele>186.0</ele><time>2026-04-12T17:30:57.327Z</time></trkpt><trkpt lat="45.2470943" lon="7.9856663"><ele>186.0</ele><time>2026-04-12T17:30:58.308Z</time></trkpt><trkpt lat="45.2469332" lon="7.9853119"><ele>186.5</ele><time>2026-04-12T17:30:59.323Z</time></trkpt><trkpt lat="45.2467732" lon="7.9849554"><ele>187.0</ele><time>2026-04-12T17:31:00.32Z</time></trkpt><trkpt lat="45.2466131" lon="7.9845978"><ele>186.5</ele><time>2026-04-12T17:31:01.329Z</time></trkpt><trkpt lat="45.2464552" lon="7.9842384"><ele>186.0</ele><time>2026-04-12T17:31:02.308Z</time></trkpt><trkpt lat="45.2462999" lon="7.9838786"><ele>186.0</ele><time>2026-04-12T17:31:03.311Z</time></trkpt><trkpt lat="45.246147" lon="7.9835169"><ele>186.0</ele><time>2026-04-12T17:31:04.32Z</time></trkpt><trkpt lat="45.2459956" lon="7.9831573"><ele>187.5</ele><time>2026-04-12T17:31:05.309Z</time></trkpt><trkpt lat="45.2458494" lon="7.9827996"><ele>189.0</ele><time>2026-04-12T17:31:06.307Z</time></trkpt><trkpt lat="45.2457072" lon="7.9824465"><ele>186.5</ele><time>2026-04-12T17:31:07.313Z</time></trkpt><trkpt lat="45.2455671" lon="7.9820946"><ele>184.0</ele><time>2026-04-12T17:31:08.318Z</time></trkpt><trkpt lat="45.2454275" lon="7.9817429"><ele>184.0</ele><time>2026-04-12T17:31:09.329Z</time></trkpt><trkpt lat="45.2452904" lon="7.9813877"><ele>184.0</ele><time>2026-04-12T17:31:10.308Z</time></trkpt><trkpt lat="45.2451537" lon="7.9810319"><ele>185.5</ele><time>2026-04-12T17:31:11.315Z</time></trkpt><trkpt lat="45.2450187" lon="7.9806758"><ele>187.0</ele><time>2026-04-12T17:31:12.307Z</time></trkpt><trkpt lat="45.244883" lon="7.9803192"><ele>187.0</ele><time>2026-04-12T17:31:13.313Z</time></trkpt><trkpt lat="45.2447479" lon="7.9799621"><ele>187.0</ele><time>2026-04-12T17:31:14.323Z</time></trkpt><trkpt lat="45.2446136" lon="7.9796048"><ele>187.0</ele><time>2026-04-12T17:31:15.326Z</time></trkpt><trkpt lat="45.2444785" lon="7.9792465"><ele>187.0</ele><time>2026-04-12T17:31:16.33Z</time></trkpt><trkpt lat="45.2443452" lon="7.9788876"><ele>187.0</ele><time>2026-04-12T17:31:17.315Z</time></trkpt><trkpt lat="45.2442137" lon="7.9785281"><ele>187.0</ele><time>2026-04-12T17:31:18.319Z</time></trkpt><trkpt lat="45.2440827" lon="7.9781655"><ele>188.5</ele><time>2026-04-12T17:31:19.326Z</time></trkpt><trkpt lat="45.2439529" lon="7.9777982"><ele>190.0</ele><time>2026-04-12T17:31:20.311Z</time></trkpt><trkpt lat="45.2438221" lon="7.9774258"><ele>190.0</ele><time>2026-04-12T17:31:21.329Z</time></trkpt><trkpt lat="45.2436918" lon="7.9770482"><ele>190.0</ele><time>2026-04-12T17:31:22.316Z</time></trkpt><trkpt lat="45.2435632" lon="7.9766684"><ele>191.0</ele><time>2026-04-12T17:31:23.308Z</time></trkpt><trkpt lat="45.2434326" lon="7.9762851"><ele>192.0</ele><time>2026-04-12T17:31:24.312Z</time></trkpt><trkpt lat="45.2433031" lon="7.9758995"><ele>192.0</ele><time>2026-04-12T17:31:25.318Z</time></trkpt><trkpt lat="45.243175" lon="7.9755155"><ele>192.0</ele><time>2026-04-12T17:31:26.31Z</time></trkpt><trkpt lat="45.243048" lon="7.9751335"><ele>191.5</ele><time>2026-04-12T17:31:27.313Z</time></trkpt><trkpt lat="45.2429216" lon="7.9747544"><ele>191.0</ele><time>2026-04-12T17:31:28.326Z</time></trkpt><trkpt lat="45.2427942" lon="7.9743766"><ele>191.5</ele><time>2026-04-12T17:31:29.314Z</time></trkpt><trkpt lat="45.2426669" lon="7.9740024"><ele>192.0</ele><time>2026-04-12T17:31:30.32Z</time></trkpt><trkpt lat="45.2425392" lon="7.9736282"><ele>192.0</ele><time>2026-04-12T17:31:31.311Z</time></trkpt><trkpt lat="45.2424128" lon="7.9732573"><ele>192.0</ele><time>2026-04-12T17:31:32.312Z</time></trkpt><trkpt lat="45.2422881" lon="7.9728901"><ele>191.5</ele><time>2026-04-12T17:31:33.326Z</time></trkpt><trkpt lat="45.2421654" lon="7.9725239"><ele>191.0</ele><time>2026-04-12T17:31:34.312Z</time></trkpt><trkpt lat="45.2420437" lon="7.9721571"><ele>193.0</ele><time>2026-04-12T17:31:35.313Z</time></trkpt><trkpt lat="45.2419237" lon="7.9717903"><ele>195.0</ele><time>2026-04-12T17:31:36.319Z</time></trkpt><trkpt lat="45.241805" lon="7.9714256"><ele>198.5</ele><time>2026-04-12T17:31:37.324Z</time></trkpt><trkpt lat="45.2416852" lon="7.9710665"><ele>202.0</ele><time>2026-04-12T17:31:38.309Z</time></trkpt><trkpt lat="45.241566" lon="7.9707127"><ele>204.0</ele><time>2026-04-12T17:31:39.311Z</time></trkpt><trkpt lat="45.2414486" lon="7.9703679"><ele>206.0</ele><time>2026-04-12T17:31:40.313Z</time></trkpt><trkpt lat="45.2413343" lon="7.9700311"><ele>205.5</ele><time>2026-04-12T17:31:41.308Z</time></trkpt><trkpt lat="45.241226" lon="7.969708"><ele>205.0</ele><time>2026-04-12T17:31:42.334Z</time></trkpt><trkpt lat="45.2411245" lon="7.9693951"><ele>205.0</ele><time>2026-04-12T17:31:43.309Z</time></trkpt><trkpt lat="45.2410298" lon="7.9690863"><ele>205.0</ele><time>2026-04-12T17:31:44.322Z</time></trkpt><trkpt lat="45.2409403" lon="7.9687796"><ele>205.0</ele><time>2026-04-12T17:31:45.323Z</time></trkpt><trkpt lat="45.2408538" lon="7.9684754"><ele>205.0</ele><time>2026-04-12T17:31:46.325Z</time></trkpt><trkpt lat="45.2407715" lon="7.9681747"><ele>205.0</ele><time>2026-04-12T17:31:47.312Z</time></trkpt><trkpt lat="45.2406939" lon="7.9678763"><ele>205.0</ele><time>2026-04-12T17:31:48.32Z</time></trkpt><trkpt lat="45.2406185" lon="7.9675834"><ele>205.0</ele><time>2026-04-12T17:31:49.332Z</time></trkpt><trkpt lat="45.240546" lon="7.9672939"><ele>205.33333333333331</ele><time>2026-04-12T17:31:50.319Z</time></trkpt><trkpt lat="45.2404751" lon="7.9670075"><ele>205.66666666666669</ele><time>2026-04-12T17:31:51.33Z</time></trkpt><trkpt lat="45.2404073" lon="7.9667257"><ele>206.0</ele><time>2026-04-12T17:31:52.31Z</time></trkpt><trkpt lat="45.2403392" lon="7.966455"><ele>206.0</ele><time>2026-04-12T17:31:53.31Z</time></trkpt><trkpt lat="45.2402724" lon="7.9661956"><ele>206.0</ele><time>2026-04-12T17:31:54.3Z</time></trkpt><trkpt lat="45.2402075" lon="7.9659461"><ele>206.0</ele><time>2026-04-12T17:31:55.323Z</time></trkpt><trkpt lat="45.240141" lon="7.9657079"><ele>206.33333333333334</ele><time>2026-04-12T17:31:56.325Z</time></trkpt><trkpt lat="45.2400753" lon="7.96548"><ele>206.66666666666669</ele><time>2026-04-12T17:31:57.31Z</time></trkpt><trkpt lat="45.2400107" lon="7.9652618"><ele>207.0</ele><time>2026-04-12T17:31:58.313Z</time></trkpt><trkpt lat="45.2399491" lon="7.965053"><ele>207.5</ele><time>2026-04-12T17:31:59.307Z</time></trkpt><trkpt lat="45.2398903" lon="7.9648518"><ele>208.0</ele><time>2026-04-12T17:32:00.323Z</time></trkpt><trkpt lat="45.2398302" lon="7.9646562"><ele>208.5</ele><time>2026-04-12T17:32:01.325Z</time></trkpt><trkpt lat="45.2397721" lon="7.9644674"><ele>209.0</ele><time>2026-04-12T17:32:02.307Z</time></trkpt><trkpt lat="45.2397167" lon="7.9642886"><ele>209.39999999999998</ele><time>2026-04-12T17:32:03.325Z</time></trkpt><trkpt lat="45.2396674" lon="7.9641316"><ele>209.8</ele><time>2026-04-12T17:32:04.323Z</time></trkpt><trkpt lat="45.2396264" lon="7.9639991"><ele>210.2</ele><time>2026-04-12T17:32:05.322Z</time></trkpt><trkpt lat="45.2395925" lon="7.9638758"><ele>210.60000000000002</ele><time>2026-04-12T17:32:06.324Z</time></trkpt><trkpt lat="45.2395686" lon="7.9637753"><ele>211.0</ele><time>2026-04-12T17:32:07.313Z</time></trkpt><trkpt lat="45.2395118" lon="7.9636804"><ele>211.0</ele><time>2026-04-12T17:32:39.31Z</time></trkpt><trkpt lat="45.2394729" lon="7.9635155"><ele>211.0</ele><time>2026-04-12T17:32:52.328Z</time></trkpt><trkpt lat="45.2394459" lon="7.9634189"><ele>211.0</ele><time>2026-04-12T17:32:53.327Z</time></trkpt><trkpt lat="45.2394163" lon="7.9633051"><ele>211.0</ele><time>2026-04-12T17:32:54.323Z</time></trkpt><trkpt lat="45.2393943" lon="7.9631762"><ele>211.0</ele><time>2026-04-12T17:32:55.315Z</time></trkpt><trkpt lat="45.2393756" lon="7.9630305"><ele>210.4</ele><time>2026-04-12T17:32:56.315Z</time></trkpt><trkpt lat="45.2393579" lon="7.9628772"><ele>209.8</ele><time>2026-04-12T17:32:57.324Z</time></trkpt><trkpt lat="45.2393474" lon="7.9627268"><ele>209.20000000000002</ele><time>2026-04-12T17:32:58.31Z</time></trkpt><trkpt lat="45.2393448" lon="7.9625935"><ele>208.60000000000002</ele><time>2026-04-12T17:32:59.314Z</time></trkpt><trkpt lat="45.2393594" lon="7.9624868"><ele>208.0</ele><time>2026-04-12T17:33:00.322Z</time></trkpt><trkpt lat="45.2394425" lon="7.9623497"><ele>207.60000000000002</ele><time>2026-04-12T17:33:02.323Z</time></trkpt><trkpt lat="45.239492" lon="7.9622938"><ele>207.20000000000002</ele><time>2026-04-12T17:33:03.332Z</time></trkpt><trkpt lat="45.2395538" lon="7.9621579"><ele>206.8</ele><time>2026-04-12T17:33:05.314Z</time></trkpt><trkpt lat="45.2395724" lon="7.9619922"><ele>206.4</ele><time>2026-04-12T17:33:07.311Z</time></trkpt><trkpt lat="45.2395656" lon="7.961828"><ele>206.0</ele><time>2026-04-12T17:33:09.32Z</time></trkpt><trkpt lat="45.2395392" lon="7.9617188"><ele>205.8</ele><time>2026-04-12T17:33:11.315Z</time></trkpt><trkpt lat="45.2394696" lon="7.9616024"><ele>205.60000000000002</ele><time>2026-04-12T17:33:21.322Z</time></trkpt><trkpt lat="45.2394106" lon="7.9615235"><ele>205.4</ele><time>2026-04-12T17:33:22.313Z</time></trkpt><trkpt lat="45.2393376" lon="7.9614317"><ele>205.2</ele><time>2026-04-12T17:33:23.331Z</time></trkpt><trkpt lat="45.2392565" lon="7.9613383"><ele>205.0</ele><time>2026-04-12T17:33:24.313Z</time></trkpt><trkpt lat="45.2391645" lon="7.9612391"><ele>205.0</ele><time>2026-04-12T17:33:25.329Z</time></trkpt><trkpt lat="45.2390593" lon="7.9611292"><ele>205.0</ele><time>2026-04-12T17:33:26.327Z</time></trkpt><trkpt lat="45.2389437" lon="7.961012"><ele>205.0</ele><time>2026-04-12T17:33:27.322Z</time></trkpt><trkpt lat="45.2388244" lon="7.9608854"><ele>205.0</ele><time>2026-04-12T17:33:28.327Z</time></trkpt><trkpt lat="45.2387067" lon="7.9607511"><ele>204.5</ele><time>2026-04-12T17:33:29.326Z</time></trkpt><trkpt lat="45.2385924" lon="7.9606234"><ele>204.0</ele><time>2026-04-12T17:33:30.33Z</time></trkpt><trkpt lat="45.2384787" lon="7.9605013"><ele>203.5</ele><time>2026-04-12T17:33:31.31Z</time></trkpt><trkpt lat="45.2383667" lon="7.9603741"><ele>203.0</ele><time>2026-04-12T17:33:32.313Z</time></trkpt><trkpt lat="45.2382615" lon="7.9602313"><ele>203.0</ele><time>2026-04-12T17:33:33.336Z</time></trkpt><trkpt lat="45.2381675" lon="7.9600593"><ele>203.0</ele><time>2026-04-12T17:33:34.303Z</time></trkpt><trkpt lat="45.2380773" lon="7.9598539"><ele>203.0</ele><time>2026-04-12T17:33:35.336Z</time></trkpt><trkpt lat="45.2379884" lon="7.9596132"><ele>203.33333333333334</ele><time>2026-04-12T17:33:36.328Z</time></trkpt><trkpt lat="45.2378988" lon="7.9593388"><ele>203.66666666666669</ele><time>2026-04-12T17:33:37.324Z</time></trkpt><trkpt lat="45.2378079" lon="7.9590473"><ele>204.0</ele><time>2026-04-12T17:33:38.326Z</time></trkpt><trkpt lat="45.2377178" lon="7.9587549"><ele>205.0</ele><time>2026-04-12T17:33:39.331Z</time></trkpt><trkpt lat="45.2376206" lon="7.9584587"><ele>206.0</ele><time>2026-04-12T17:33:40.312Z</time></trkpt><trkpt lat="45.2375197" lon="7.9581583"><ele>206.0</ele><time>2026-04-12T17:33:41.329Z</time></trkpt><trkpt lat="45.237417" lon="7.9578512"><ele>206.0</ele><time>2026-04-12T17:33:42.325Z</time></trkpt><trkpt lat="45.2373133" lon="7.9575493"><ele>208.0</ele><time>2026-04-12T17:33:43.31Z</time></trkpt><trkpt lat="45.2372102" lon="7.957251"><ele>210.0</ele><time>2026-04-12T17:33:44.312Z</time></trkpt><trkpt lat="45.2371072" lon="7.9569565"><ele>211.0</ele><time>2026-04-12T17:33:45.317Z</time></trkpt><trkpt lat="45.2370044" lon="7.9566585"><ele>212.0</ele><time>2026-04-12T17:33:46.313Z</time></trkpt><trkpt lat="45.2369001" lon="7.956355"><ele>212.0</ele><time>2026-04-12T17:33:47.331Z</time></trkpt><trkpt lat="45.236794" lon="7.9560441"><ele>212.0</ele><time>2026-04-12T17:33:48.333Z</time></trkpt><trkpt lat="45.2366838" lon="7.9557278"><ele>209.0</ele><time>2026-04-12T17:33:49.319Z</time></trkpt><trkpt lat="45.2365707" lon="7.9554066"><ele>206.0</ele><time>2026-04-12T17:33:50.329Z</time></trkpt><trkpt lat="45.2364554" lon="7.955079"><ele>205.0</ele><time>2026-04-12T17:33:51.313Z</time></trkpt><trkpt lat="45.2363409" lon="7.9547512"><ele>204.0</ele><time>2026-04-12T17:33:52.313Z</time></trkpt><trkpt lat="45.2362258" lon="7.9544251"><ele>204.5</ele><time>2026-04-12T17:33:53.323Z</time></trkpt><trkpt lat="45.2361109" lon="7.9540978"><ele>205.0</ele><time>2026-04-12T17:33:54.314Z</time></trkpt><trkpt lat="45.2359937" lon="7.9537683"><ele>205.0</ele><time>2026-04-12T17:33:55.32Z</time></trkpt><trkpt lat="45.2358746" lon="7.9534362"><ele>205.0</ele><time>2026-04-12T17:33:56.322Z</time></trkpt><trkpt lat="45.2357532" lon="7.9531024"><ele>202.5</ele><time>2026-04-12T17:33:57.324Z</time></trkpt><trkpt lat="45.2356303" lon="7.9527647"><ele>200.0</ele><time>2026-04-12T17:33:58.316Z</time></trkpt><trkpt lat="45.2355044" lon="7.9524235"><ele>199.5</ele><time>2026-04-12T17:33:59.322Z</time></trkpt><trkpt lat="45.2353776" lon="7.9520786"><ele>199.0</ele><time>2026-04-12T17:34:00.322Z</time></trkpt><trkpt lat="45.2352486" lon="7.9517296"><ele>200.5</ele><time>2026-04-12T17:34:01.313Z</time></trkpt><trkpt lat="45.2351183" lon="7.9513794"><ele>202.0</ele><time>2026-04-12T17:34:02.327Z</time></trkpt><trkpt lat="45.2349898" lon="7.9510358"><ele>202.0</ele><time>2026-04-12T17:34:03.321Z</time></trkpt><trkpt lat="45.2348627" lon="7.9506962"><ele>202.0</ele><time>2026-04-12T17:34:04.311Z</time></trkpt><trkpt lat="45.2347331" lon="7.9503551"><ele>201.0</ele><time>2026-04-12T17:34:05.329Z</time></trkpt><trkpt lat="45.2346004" lon="7.9500107"><ele>200.0</ele><time>2026-04-12T17:34:06.326Z</time></trkpt><trkpt lat="45.2344653" lon="7.9496621"><ele>200.0</ele><time>2026-04-12T17:34:07.324Z</time></trkpt><trkpt lat="45.2343275" lon="7.9493119"><ele>200.0</ele><time>2026-04-12T17:34:08.309Z</time></trkpt><trkpt lat="45.2341884" lon="7.9489584"><ele>201.0</ele><time>2026-04-12T17:34:09.328Z</time></trkpt><trkpt lat="45.2340483" lon="7.9486033"><ele>202.0</ele><time>2026-04-12T17:34:10.322Z</time></trkpt><trkpt lat="45.2339063" lon="7.9482496"><ele>202.0</ele><time>2026-04-12T17:34:11.332Z</time></trkpt><trkpt lat="45.2337628" lon="7.9478989"><ele>202.0</ele><time>2026-04-12T17:34:12.326Z</time></trkpt><trkpt lat="45.233617" lon="7.9475477"><ele>203.0</ele><time>2026-04-12T17:34:13.315Z</time></trkpt><trkpt lat="45.233472" lon="7.9471954"><ele>204.0</ele><time>2026-04-12T17:34:14.315Z</time></trkpt><trkpt lat="45.2333273" lon="7.9468414"><ele>204.0</ele><time>2026-04-12T17:34:15.328Z</time></trkpt><trkpt lat="45.2331817" lon="7.9464872"><ele>204.0</ele><time>2026-04-12T17:34:16.317Z</time></trkpt><trkpt lat="45.2330362" lon="7.9461311"><ele>203.5</ele><time>2026-04-12T17:34:17.31Z</time></trkpt><trkpt lat="45.2328901" lon="7.9457752"><ele>203.0</ele><time>2026-04-12T17:34:18.312Z</time></trkpt><trkpt lat="45.2327439" lon="7.9454181"><ele>203.0</ele><time>2026-04-12T17:34:19.317Z</time></trkpt><trkpt lat="45.2325953" lon="7.9450618"><ele>203.0</ele><time>2026-04-12T17:34:20.33Z</time></trkpt><trkpt lat="45.232447" lon="7.9447059"><ele>203.0</ele><time>2026-04-12T17:34:21.339Z</time></trkpt><trkpt lat="45.2322993" lon="7.9443475"><ele>203.0</ele><time>2026-04-12T17:34:22.334Z</time></trkpt><trkpt lat="45.2321517" lon="7.9439866"><ele>203.0</ele><time>2026-04-12T17:34:23.327Z</time></trkpt><trkpt lat="45.2320055" lon="7.9436233"><ele>203.0</ele><time>2026-04-12T17:34:24.316Z</time></trkpt><trkpt lat="45.2318581" lon="7.9432587"><ele>203.5</ele><time>2026-04-12T17:34:25.322Z</time></trkpt><trkpt lat="45.2317081" lon="7.9428931"><ele>204.0</ele><time>2026-04-12T17:34:26.326Z</time></trkpt><trkpt lat="45.2315563" lon="7.9425242"><ele>202.5</ele><time>2026-04-12T17:34:27.322Z</time></trkpt><trkpt lat="45.2314044" lon="7.9421538"><ele>201.0</ele><time>2026-04-12T17:34:28.317Z</time></trkpt><trkpt lat="45.231254" lon="7.9417825"><ele>201.0</ele><time>2026-04-12T17:34:29.324Z</time></trkpt><trkpt lat="45.2311025" lon="7.9414101"><ele>201.0</ele><time>2026-04-12T17:34:30.325Z</time></trkpt><trkpt lat="45.2309509" lon="7.9410386"><ele>201.0</ele><time>2026-04-12T17:34:31.329Z</time></trkpt><trkpt lat="45.2307996" lon="7.940667"><ele>201.0</ele><time>2026-04-12T17:34:32.321Z</time></trkpt><trkpt lat="45.2306477" lon="7.9402945"><ele>200.0</ele><time>2026-04-12T17:34:33.334Z</time></trkpt><trkpt lat="45.2304954" lon="7.9399237"><ele>199.0</ele><time>2026-04-12T17:34:34.327Z</time></trkpt><trkpt lat="45.230341" lon="7.9395523"><ele>199.5</ele><time>2026-04-12T17:34:35.323Z</time></trkpt><trkpt lat="45.2301858" lon="7.9391784"><ele>200.0</ele><time>2026-04-12T17:34:36.328Z</time></trkpt><trkpt lat="45.2300334" lon="7.9388039"><ele>200.0</ele><time>2026-04-12T17:34:37.327Z</time></trkpt><trkpt lat="45.2298797" lon="7.9384263"><ele>200.0</ele><time>2026-04-12T17:34:38.321Z</time></trkpt><trkpt lat="45.2297263" lon="7.9380471"><ele>200.0</ele><time>2026-04-12T17:34:39.33Z</time></trkpt><trkpt lat="45.2295731" lon="7.9376689"><ele>200.0</ele><time>2026-04-12T17:34:40.326Z</time></trkpt><trkpt lat="45.2294193" lon="7.9372911"><ele>200.0</ele><time>2026-04-12T17:34:41.316Z</time></trkpt><trkpt lat="45.2292638" lon="7.9369132"><ele>200.0</ele><time>2026-04-12T17:34:42.312Z</time></trkpt><trkpt lat="45.2291094" lon="7.9365384"><ele>201.0</ele><time>2026-04-12T17:34:43.31Z</time></trkpt><trkpt lat="45.2289559" lon="7.9361672"><ele>202.0</ele><time>2026-04-12T17:34:44.311Z</time></trkpt><trkpt lat="45.2288053" lon="7.9358005"><ele>202.0</ele><time>2026-04-12T17:34:45.326Z</time></trkpt><trkpt lat="45.228658" lon="7.9354377"><ele>202.0</ele><time>2026-04-12T17:34:46.327Z</time></trkpt><trkpt lat="45.228512" lon="7.9350783"><ele>201.5</ele><time>2026-04-12T17:34:47.337Z</time></trkpt><trkpt lat="45.2283662" lon="7.9347207"><ele>201.0</ele><time>2026-04-12T17:34:48.328Z</time></trkpt><trkpt lat="45.2282195" lon="7.9343629"><ele>199.5</ele><time>2026-04-12T17:34:49.32Z</time></trkpt><trkpt lat="45.2280726" lon="7.9340045"><ele>198.0</ele><time>2026-04-12T17:34:50.313Z</time></trkpt><trkpt lat="45.2279259" lon="7.9336458"><ele>199.0</ele><time>2026-04-12T17:34:51.33Z</time></trkpt><trkpt lat="45.2277798" lon="7.9332868"><ele>200.0</ele><time>2026-04-12T17:34:52.324Z</time></trkpt><trkpt lat="45.2276325" lon="7.9329286"><ele>200.0</ele><time>2026-04-12T17:34:53.316Z</time></trkpt><trkpt lat="45.2274826" lon="7.9325684"><ele>200.0</ele><time>2026-04-12T17:34:54.324Z</time></trkpt><trkpt lat="45.2273334" lon="7.9322083"><ele>198.5</ele><time>2026-04-12T17:34:55.312Z</time></trkpt><trkpt lat="45.2271839" lon="7.931848"><ele>197.0</ele><time>2026-04-12T17:34:56.333Z</time></trkpt><trkpt lat="45.2270353" lon="7.9314874"><ele>196.5</ele><time>2026-04-12T17:34:57.322Z</time></trkpt><trkpt lat="45.2268865" lon="7.9311265"><ele>196.0</ele><time>2026-04-12T17:34:58.313Z</time></trkpt><trkpt lat="45.2267375" lon="7.9307655"><ele>198.5</ele><time>2026-04-12T17:34:59.324Z</time></trkpt><trkpt lat="45.2265839" lon="7.9304068"><ele>201.0</ele><time>2026-04-12T17:35:00.318Z</time></trkpt><trkpt lat="45.2264292" lon="7.9300493"><ele>201.0</ele><time>2026-04-12T17:35:01.324Z</time></trkpt><trkpt lat="45.226275" lon="7.9296892"><ele>201.0</ele><time>2026-04-12T17:35:02.317Z</time></trkpt><trkpt lat="45.22612" lon="7.9293282"><ele>200.0</ele><time>2026-04-12T17:35:03.324Z</time></trkpt><trkpt lat="45.2259677" lon="7.9289651"><ele>199.0</ele><time>2026-04-12T17:35:04.318Z</time></trkpt><trkpt lat="45.2258172" lon="7.9285983"><ele>199.5</ele><time>2026-04-12T17:35:05.323Z</time></trkpt><trkpt lat="45.2256681" lon="7.9282277"><ele>200.0</ele><time>2026-04-12T17:35:06.32Z</time></trkpt><trkpt lat="45.2255178" lon="7.9278561"><ele>200.0</ele><time>2026-04-12T17:35:07.314Z</time></trkpt><trkpt lat="45.2253653" lon="7.9274863"><ele>200.0</ele><time>2026-04-12T17:35:08.329Z</time></trkpt><trkpt lat="45.2252142" lon="7.9271157"><ele>200.0</ele><time>2026-04-12T17:35:09.328Z</time></trkpt><trkpt lat="45.2250611" lon="7.9267445"><ele>200.0</ele><time>2026-04-12T17:35:10.311Z</time></trkpt><trkpt lat="45.2249058" lon="7.926375"><ele>199.5</ele><time>2026-04-12T17:35:11.33Z</time></trkpt><trkpt lat="45.2247527" lon="7.9260033"><ele>199.0</ele><time>2026-04-12T17:35:12.326Z</time></trkpt><trkpt lat="45.2246004" lon="7.9256306"><ele>199.0</ele><time>2026-04-12T17:35:13.332Z</time></trkpt><trkpt lat="45.2244486" lon="7.9252566"><ele>199.0</ele><time>2026-04-12T17:35:14.33Z</time></trkpt><trkpt lat="45.2242982" lon="7.924882"><ele>200.0</ele><time>2026-04-12T17:35:15.325Z</time></trkpt><trkpt lat="45.2241492" lon="7.9245052"><ele>201.0</ele><time>2026-04-12T17:35:16.325Z</time></trkpt><trkpt lat="45.2240014" lon="7.9241277"><ele>200.5</ele><time>2026-04-12T17:35:17.315Z</time></trkpt><trkpt lat="45.2238538" lon="7.9237493"><ele>200.0</ele><time>2026-04-12T17:35:18.336Z</time></trkpt><trkpt lat="45.2237044" lon="7.9233705"><ele>201.0</ele><time>2026-04-12T17:35:19.313Z</time></trkpt><trkpt lat="45.2235507" lon="7.9229953"><ele>202.0</ele><time>2026-04-12T17:35:20.324Z</time></trkpt><trkpt lat="45.2233974" lon="7.9226204"><ele>201.5</ele><time>2026-04-12T17:35:21.327Z</time></trkpt><trkpt lat="45.2232433" lon="7.922245"><ele>201.0</ele><time>2026-04-12T17:35:22.335Z</time></trkpt><trkpt lat="45.2230889" lon="7.9218685"><ele>200.5</ele><time>2026-04-12T17:35:23.333Z</time></trkpt><trkpt lat="45.2229349" lon="7.9214908"><ele>200.0</ele><time>2026-04-12T17:35:24.324Z</time></trkpt><trkpt lat="45.2227811" lon="7.9211115"><ele>200.5</ele><time>2026-04-12T17:35:25.312Z</time></trkpt><trkpt lat="45.2226281" lon="7.9207308"><ele>201.0</ele><time>2026-04-12T17:35:26.329Z</time></trkpt><trkpt lat="45.2224736" lon="7.9203491"><ele>202.5</ele><time>2026-04-12T17:35:27.324Z</time></trkpt><trkpt lat="45.2223162" lon="7.9199661"><ele>204.0</ele><time>2026-04-12T17:35:28.33Z</time></trkpt><trkpt lat="45.2221565" lon="7.919583"><ele>202.0</ele><time>2026-04-12T17:35:29.307Z</time></trkpt><trkpt lat="45.2219954" lon="7.9191985"><ele>200.0</ele><time>2026-04-12T17:35:30.325Z</time></trkpt><trkpt lat="45.2218346" lon="7.918813"><ele>200.0</ele><time>2026-04-12T17:35:31.313Z</time></trkpt><trkpt lat="45.221675" lon="7.918425"><ele>200.0</ele><time>2026-04-12T17:35:32.313Z</time></trkpt><trkpt lat="45.2215164" lon="7.9180358"><ele>199.0</ele><time>2026-04-12T17:35:33.311Z</time></trkpt><trkpt lat="45.2213583" lon="7.9176456"><ele>198.0</ele><time>2026-04-12T17:35:34.321Z</time></trkpt><trkpt lat="45.2211999" lon="7.9172571"><ele>198.0</ele><time>2026-04-12T17:35:35.313Z</time></trkpt><trkpt lat="45.2210418" lon="7.9168704"><ele>198.0</ele><time>2026-04-12T17:35:36.335Z</time></trkpt><trkpt lat="45.2208827" lon="7.9164814"><ele>199.5</ele><time>2026-04-12T17:35:37.322Z</time></trkpt><trkpt lat="45.2207218" lon="7.9160914"><ele>201.0</ele><time>2026-04-12T17:35:38.333Z</time></trkpt><trkpt lat="45.2205623" lon="7.9157"><ele>201.0</ele><time>2026-04-12T17:35:39.323Z</time></trkpt><trkpt lat="45.2204042" lon="7.9153073"><ele>201.0</ele><time>2026-04-12T17:35:40.325Z</time></trkpt><trkpt lat="45.2202458" lon="7.9149152"><ele>201.0</ele><time>2026-04-12T17:35:41.329Z</time></trkpt><trkpt lat="45.2200886" lon="7.9145221"><ele>201.0</ele><time>2026-04-12T17:35:42.325Z</time></trkpt><trkpt lat="45.2199296" lon="7.9141304"><ele>200.5</ele><time>2026-04-12T17:35:43.335Z</time></trkpt><trkpt lat="45.2197699" lon="7.9137422"><ele>200.0</ele><time>2026-04-12T17:35:44.325Z</time></trkpt><trkpt lat="45.2196104" lon="7.9133562"><ele>200.0</ele><time>2026-04-12T17:35:45.315Z</time></trkpt><trkpt lat="45.2194515" lon="7.9129706"><ele>200.0</ele><time>2026-04-12T17:35:46.308Z</time></trkpt><trkpt lat="45.2192921" lon="7.9125861"><ele>199.5</ele><time>2026-04-12T17:35:47.306Z</time></trkpt><trkpt lat="45.2191332" lon="7.9122016"><ele>199.0</ele><time>2026-04-12T17:35:48.314Z</time></trkpt><trkpt lat="45.2189758" lon="7.9118156"><ele>200.0</ele><time>2026-04-12T17:35:49.324Z</time></trkpt><trkpt lat="45.2188191" lon="7.9114297"><ele>201.0</ele><time>2026-04-12T17:35:50.333Z</time></trkpt><trkpt lat="45.218662" lon="7.9110454"><ele>201.0</ele><time>2026-04-12T17:35:51.336Z</time></trkpt><trkpt lat="45.2185053" lon="7.9106622"><ele>201.0</ele><time>2026-04-12T17:35:52.313Z</time></trkpt><trkpt lat="45.2183468" lon="7.9102791"><ele>200.0</ele><time>2026-04-12T17:35:53.333Z</time></trkpt><trkpt lat="45.21819" lon="7.9098973"><ele>199.0</ele><time>2026-04-12T17:35:54.315Z</time></trkpt><trkpt lat="45.2180339" lon="7.9095138"><ele>197.0</ele><time>2026-04-12T17:35:55.307Z</time></trkpt><trkpt lat="45.2178771" lon="7.9091319"><ele>195.0</ele><time>2026-04-12T17:35:56.314Z</time></trkpt><trkpt lat="45.2177201" lon="7.9087508"><ele>196.0</ele><time>2026-04-12T17:35:57.315Z</time></trkpt><trkpt lat="45.2175627" lon="7.90837"><ele>197.0</ele><time>2026-04-12T17:35:58.321Z</time></trkpt><trkpt lat="45.2174048" lon="7.9079887"><ele>197.5</ele><time>2026-04-12T17:35:59.329Z</time></trkpt><trkpt lat="45.2172472" lon="7.9076076"><ele>198.0</ele><time>2026-04-12T17:36:00.327Z</time></trkpt><trkpt lat="45.2170893" lon="7.9072258"><ele>198.0</ele><time>2026-04-12T17:36:01.332Z</time></trkpt><trkpt lat="45.2169316" lon="7.9068432"><ele>198.0</ele><time>2026-04-12T17:36:02.322Z</time></trkpt><trkpt lat="45.2167722" lon="7.906462"><ele>198.0</ele><time>2026-04-12T17:36:03.32Z</time></trkpt><trkpt lat="45.216614" lon="7.9060791"><ele>198.0</ele><time>2026-04-12T17:36:04.323Z</time></trkpt><trkpt lat="45.2164574" lon="7.9056928"><ele>198.5</ele><time>2026-04-12T17:36:05.324Z</time></trkpt><trkpt lat="45.2163008" lon="7.9053036"><ele>199.0</ele><time>2026-04-12T17:36:06.336Z</time></trkpt><trkpt lat="45.2161433" lon="7.9049136"><ele>201.0</ele><time>2026-04-12T17:36:07.315Z</time></trkpt><trkpt lat="45.2159852" lon="7.9045226"><ele>203.0</ele><time>2026-04-12T17:36:08.327Z</time></trkpt><trkpt lat="45.2158258" lon="7.9041328"><ele>204.0</ele><time>2026-04-12T17:36:09.323Z</time></trkpt><trkpt lat="45.2156646" lon="7.9037452"><ele>205.0</ele><time>2026-04-12T17:36:10.312Z</time></trkpt><trkpt lat="45.2155033" lon="7.9033569"><ele>205.5</ele><time>2026-04-12T17:36:11.338Z</time></trkpt><trkpt lat="45.215343" lon="7.9029671"><ele>206.0</ele><time>2026-04-12T17:36:12.313Z</time></trkpt><trkpt lat="45.2151835" lon="7.9025773"><ele>203.5</ele><time>2026-04-12T17:36:13.325Z</time></trkpt><trkpt lat="45.215024" lon="7.9021883"><ele>201.0</ele><time>2026-04-12T17:36:14.326Z</time></trkpt><trkpt lat="45.214865" lon="7.9017971"><ele>198.5</ele><time>2026-04-12T17:36:15.328Z</time></trkpt><trkpt lat="45.2147073" lon="7.9014037"><ele>196.0</ele><time>2026-04-12T17:36:16.311Z</time></trkpt><trkpt lat="45.2145493" lon="7.9010128"><ele>196.5</ele><time>2026-04-12T17:36:17.334Z</time></trkpt><trkpt lat="45.2143931" lon="7.9006222"><ele>197.0</ele><time>2026-04-12T17:36:18.324Z</time></trkpt><trkpt lat="45.2142376" lon="7.9002322"><ele>197.0</ele><time>2026-04-12T17:36:19.327Z</time></trkpt><trkpt lat="45.214082" lon="7.8998409"><ele>197.0</ele><time>2026-04-12T17:36:20.312Z</time></trkpt><trkpt lat="45.2139247" lon="7.8994512"><ele>197.0</ele><time>2026-04-12T17:36:21.324Z</time></trkpt><trkpt lat="45.2137649" lon="7.8990634"><ele>197.0</ele><time>2026-04-12T17:36:22.325Z</time></trkpt><trkpt lat="45.2136047" lon="7.8986767"><ele>198.5</ele><time>2026-04-12T17:36:23.313Z</time></trkpt><trkpt lat="45.2134444" lon="7.8982912"><ele>200.0</ele><time>2026-04-12T17:36:24.333Z</time></trkpt><trkpt lat="45.2132835" lon="7.8979059"><ele>201.0</ele><time>2026-04-12T17:36:25.329Z</time></trkpt><trkpt lat="45.2131204" lon="7.8975229"><ele>202.0</ele><time>2026-04-12T17:36:26.32Z</time></trkpt><trkpt lat="45.2129549" lon="7.897141"><ele>202.0</ele><time>2026-04-12T17:36:27.328Z</time></trkpt><trkpt lat="45.2127868" lon="7.8967622"><ele>202.0</ele><time>2026-04-12T17:36:28.322Z</time></trkpt><trkpt lat="45.2126188" lon="7.8963824"><ele>201.5</ele><time>2026-04-12T17:36:29.331Z</time></trkpt><trkpt lat="45.2124471" lon="7.8960034"><ele>201.0</ele><time>2026-04-12T17:36:30.329Z</time></trkpt><trkpt lat="45.2122758" lon="7.8956226"><ele>199.0</ele><time>2026-04-12T17:36:31.314Z</time></trkpt><trkpt lat="45.2121039" lon="7.8952425"><ele>197.0</ele><time>2026-04-12T17:36:32.33Z</time></trkpt><trkpt lat="45.2119324" lon="7.8948589"><ele>197.0</ele><time>2026-04-12T17:36:33.314Z</time></trkpt><trkpt lat="45.2117608" lon="7.8944735"><ele>197.0</ele><time>2026-04-12T17:36:34.332Z</time></trkpt><trkpt lat="45.2115909" lon="7.8940835"><ele>196.5</ele><time>2026-04-12T17:36:35.319Z</time></trkpt><trkpt lat="45.2114205" lon="7.8936891"><ele>196.0</ele><time>2026-04-12T17:36:36.321Z</time></trkpt><trkpt lat="45.2112506" lon="7.8932931"><ele>196.0</ele><time>2026-04-12T17:36:37.323Z</time></trkpt><trkpt lat="45.2110802" lon="7.8928976"><ele>196.0</ele><time>2026-04-12T17:36:38.312Z</time></trkpt><trkpt lat="45.2109098" lon="7.8925031"><ele>196.0</ele><time>2026-04-12T17:36:39.327Z</time></trkpt><trkpt lat="45.2107403" lon="7.8921095"><ele>196.0</ele><time>2026-04-12T17:36:40.312Z</time></trkpt><trkpt lat="45.2105718" lon="7.8917152"><ele>195.0</ele><time>2026-04-12T17:36:41.326Z</time></trkpt><trkpt lat="45.2104018" lon="7.8913203"><ele>194.0</ele><time>2026-04-12T17:36:42.312Z</time></trkpt><trkpt lat="45.2102334" lon="7.8909289"><ele>194.0</ele><time>2026-04-12T17:36:43.332Z</time></trkpt><trkpt lat="45.2100661" lon="7.8905384"><ele>194.0</ele><time>2026-04-12T17:36:44.317Z</time></trkpt><trkpt lat="45.2099012" lon="7.8901482"><ele>196.0</ele><time>2026-04-12T17:36:45.325Z</time></trkpt><trkpt lat="45.209737" lon="7.8897604"><ele>198.0</ele><time>2026-04-12T17:36:46.322Z</time></trkpt><trkpt lat="45.2095719" lon="7.8893757"><ele>195.5</ele><time>2026-04-12T17:36:47.328Z</time></trkpt><trkpt lat="45.209404" lon="7.8889961"><ele>193.0</ele><time>2026-04-12T17:36:48.31Z</time></trkpt><trkpt lat="45.2092362" lon="7.8886165"><ele>194.5</ele><time>2026-04-12T17:36:49.321Z</time></trkpt><trkpt lat="45.2090708" lon="7.8882329"><ele>196.0</ele><time>2026-04-12T17:36:50.31Z</time></trkpt><trkpt lat="45.2089048" lon="7.8878488"><ele>196.0</ele><time>2026-04-12T17:36:51.332Z</time></trkpt><trkpt lat="45.2087404" lon="7.8874649"><ele>196.0</ele><time>2026-04-12T17:36:52.31Z</time></trkpt><trkpt lat="45.2085747" lon="7.8870832"><ele>196.0</ele><time>2026-04-12T17:36:53.312Z</time></trkpt><trkpt lat="45.2084079" lon="7.8867008"><ele>196.0</ele><time>2026-04-12T17:36:54.332Z</time></trkpt><trkpt lat="45.2082396" lon="7.8863192"><ele>196.0</ele><time>2026-04-12T17:36:55.324Z</time></trkpt><trkpt lat="45.2080715" lon="7.8859359"><ele>196.0</ele><time>2026-04-12T17:36:56.312Z</time></trkpt><trkpt lat="45.2079034" lon="7.8855531"><ele>196.0</ele><time>2026-04-12T17:36:57.313Z</time></trkpt><trkpt lat="45.2077389" lon="7.8851689"><ele>196.0</ele><time>2026-04-12T17:36:58.312Z</time></trkpt><trkpt lat="45.2075758" lon="7.8847838"><ele>195.0</ele><time>2026-04-12T17:36:59.324Z</time></trkpt><trkpt lat="45.2074128" lon="7.8844028"><ele>194.0</ele><time>2026-04-12T17:37:00.324Z</time></trkpt><trkpt lat="45.2072481" lon="7.8840272"><ele>193.0</ele><time>2026-04-12T17:37:01.332Z</time></trkpt><trkpt lat="45.2070807" lon="7.8836547"><ele>192.0</ele><time>2026-04-12T17:37:02.325Z</time></trkpt><trkpt lat="45.2069093" lon="7.8832823"><ele>192.0</ele><time>2026-04-12T17:37:03.334Z</time></trkpt><trkpt lat="45.2067379" lon="7.8829071"><ele>192.0</ele><time>2026-04-12T17:37:04.311Z</time></trkpt><trkpt lat="45.2065655" lon="7.8825283"><ele>191.5</ele><time>2026-04-12T17:37:05.312Z</time></trkpt><trkpt lat="45.2063938" lon="7.8821464"><ele>191.0</ele><time>2026-04-12T17:37:06.311Z</time></trkpt><trkpt lat="45.2062228" lon="7.8817613"><ele>191.0</ele><time>2026-04-12T17:37:07.317Z</time></trkpt><trkpt lat="45.2060522" lon="7.8813748"><ele>191.0</ele><time>2026-04-12T17:37:08.329Z</time></trkpt><trkpt lat="45.2058841" lon="7.8809885"><ele>191.0</ele><time>2026-04-12T17:37:09.309Z</time></trkpt><trkpt lat="45.2057172" lon="7.8806001"><ele>191.0</ele><time>2026-04-12T17:37:10.319Z</time></trkpt><trkpt lat="45.2055515" lon="7.88021"><ele>193.0</ele><time>2026-04-12T17:37:11.327Z</time></trkpt><trkpt lat="45.2053867" lon="7.8798184"><ele>195.0</ele><time>2026-04-12T17:37:12.332Z</time></trkpt><trkpt lat="45.2052247" lon="7.8794236"><ele>195.0</ele><time>2026-04-12T17:37:13.327Z</time></trkpt><trkpt lat="45.2050629" lon="7.8790307"><ele>195.0</ele><time>2026-04-12T17:37:14.322Z</time></trkpt><trkpt lat="45.2049003" lon="7.8786398"><ele>193.5</ele><time>2026-04-12T17:37:15.324Z</time></trkpt><trkpt lat="45.2047355" lon="7.8782485"><ele>192.0</ele><time>2026-04-12T17:37:16.319Z</time></trkpt><trkpt lat="45.2045709" lon="7.8778537"><ele>192.0</ele><time>2026-04-12T17:37:17.327Z</time></trkpt><trkpt lat="45.2044062" lon="7.8774561"><ele>192.0</ele><time>2026-04-12T17:37:18.312Z</time></trkpt><trkpt lat="45.2042409" lon="7.8770551"><ele>191.5</ele><time>2026-04-12T17:37:19.329Z</time></trkpt><trkpt lat="45.2040729" lon="7.8766536"><ele>191.0</ele><time>2026-04-12T17:37:20.318Z</time></trkpt><trkpt lat="45.2039037" lon="7.8762536"><ele>191.0</ele><time>2026-04-12T17:37:21.339Z</time></trkpt><trkpt lat="45.2037336" lon="7.8758539"><ele>191.0</ele><time>2026-04-12T17:37:22.312Z</time></trkpt><trkpt lat="45.2035633" lon="7.8754556"><ele>192.5</ele><time>2026-04-12T17:37:23.327Z</time></trkpt><trkpt lat="45.2033893" lon="7.8750588"><ele>194.0</ele><time>2026-04-12T17:37:24.32Z</time></trkpt><trkpt lat="45.2032157" lon="7.874664"><ele>192.5</ele><time>2026-04-12T17:37:25.329Z</time></trkpt><trkpt lat="45.2030422" lon="7.87427"><ele>191.0</ele><time>2026-04-12T17:37:26.324Z</time></trkpt><trkpt lat="45.2028694" lon="7.8738795"><ele>191.0</ele><time>2026-04-12T17:37:27.32Z</time></trkpt><trkpt lat="45.2026939" lon="7.8734922"><ele>191.0</ele><time>2026-04-12T17:37:28.324Z</time></trkpt><trkpt lat="45.2025174" lon="7.8731071"><ele>191.5</ele><time>2026-04-12T17:37:29.306Z</time></trkpt><trkpt lat="45.2023411" lon="7.8727247"><ele>192.0</ele><time>2026-04-12T17:37:30.317Z</time></trkpt><trkpt lat="45.2021664" lon="7.8723448"><ele>191.0</ele><time>2026-04-12T17:37:31.336Z</time></trkpt><trkpt lat="45.2019915" lon="7.8719674"><ele>190.0</ele><time>2026-04-12T17:37:32.327Z</time></trkpt><trkpt lat="45.2018161" lon="7.8715909"><ele>188.5</ele><time>2026-04-12T17:37:33.31Z</time></trkpt><trkpt lat="45.2016438" lon="7.8712158"><ele>187.0</ele><time>2026-04-12T17:37:34.309Z</time></trkpt><trkpt lat="45.2014763" lon="7.8708407"><ele>186.0</ele><time>2026-04-12T17:37:35.317Z</time></trkpt><trkpt lat="45.2013088" lon="7.870466"><ele>185.0</ele><time>2026-04-12T17:37:36.319Z</time></trkpt><trkpt lat="45.2011445" lon="7.870092"><ele>185.0</ele><time>2026-04-12T17:37:37.331Z</time></trkpt><trkpt lat="45.2009807" lon="7.8697164"><ele>185.0</ele><time>2026-04-12T17:37:38.325Z</time></trkpt><trkpt lat="45.2008167" lon="7.8693431"><ele>186.0</ele><time>2026-04-12T17:37:39.325Z</time></trkpt><trkpt lat="45.2006519" lon="7.8689695"><ele>187.0</ele><time>2026-04-12T17:37:40.322Z</time></trkpt><trkpt lat="45.2004855" lon="7.8685948"><ele>185.0</ele><time>2026-04-12T17:37:41.328Z</time></trkpt><trkpt lat="45.2003208" lon="7.8682177"><ele>183.0</ele><time>2026-04-12T17:37:42.312Z</time></trkpt><trkpt lat="45.2001538" lon="7.8678414"><ele>183.0</ele><time>2026-04-12T17:37:43.322Z</time></trkpt><trkpt lat="45.199988" lon="7.8674637"><ele>183.0</ele><time>2026-04-12T17:37:44.314Z</time></trkpt><trkpt lat="45.199823" lon="7.8670846"><ele>185.0</ele><time>2026-04-12T17:37:45.327Z</time></trkpt><trkpt lat="45.1996574" lon="7.866705"><ele>187.0</ele><time>2026-04-12T17:37:46.324Z</time></trkpt><trkpt lat="45.1994927" lon="7.8663263"><ele>187.0</ele><time>2026-04-12T17:37:47.332Z</time></trkpt><trkpt lat="45.1993288" lon="7.8659465"><ele>187.0</ele><time>2026-04-12T17:37:48.312Z</time></trkpt><trkpt lat="45.1991641" lon="7.8655655"><ele>187.0</ele><time>2026-04-12T17:37:49.328Z</time></trkpt><trkpt lat="45.1990002" lon="7.8651829"><ele>187.0</ele><time>2026-04-12T17:37:50.312Z</time></trkpt><trkpt lat="45.198837" lon="7.8648004"><ele>187.0</ele><time>2026-04-12T17:37:51.325Z</time></trkpt><trkpt lat="45.1986757" lon="7.8644172"><ele>187.0</ele><time>2026-04-12T17:37:52.332Z</time></trkpt><trkpt lat="45.1985166" lon="7.8640332"><ele>186.5</ele><time>2026-04-12T17:37:53.323Z</time></trkpt><trkpt lat="45.1983572" lon="7.8636494"><ele>186.0</ele><time>2026-04-12T17:37:54.329Z</time></trkpt><trkpt lat="45.1981989" lon="7.8632651"><ele>186.0</ele><time>2026-04-12T17:37:55.315Z</time></trkpt><trkpt lat="45.1980424" lon="7.8628796"><ele>186.0</ele><time>2026-04-12T17:37:56.319Z</time></trkpt><trkpt lat="45.1978866" lon="7.8624978"><ele>186.0</ele><time>2026-04-12T17:37:57.325Z</time></trkpt><trkpt lat="45.1977298" lon="7.8621212"><ele>186.0</ele><time>2026-04-12T17:37:58.326Z</time></trkpt><trkpt lat="45.1975742" lon="7.8617459"><ele>185.5</ele><time>2026-04-12T17:37:59.325Z</time></trkpt><trkpt lat="45.1974215" lon="7.8613714"><ele>185.0</ele><time>2026-04-12T17:38:00.333Z</time></trkpt><trkpt lat="45.1972718" lon="7.8609931"><ele>186.5</ele><time>2026-04-12T17:38:01.313Z</time></trkpt><trkpt lat="45.197122" lon="7.860614"><ele>188.0</ele><time>2026-04-12T17:38:02.31Z</time></trkpt><trkpt lat="45.1969712" lon="7.8602348"><ele>189.0</ele><time>2026-04-12T17:38:03.311Z</time></trkpt><trkpt lat="45.1968172" lon="7.8598584"><ele>190.0</ele><time>2026-04-12T17:38:04.327Z</time></trkpt><trkpt lat="45.1966633" lon="7.8594845"><ele>189.5</ele><time>2026-04-12T17:38:05.324Z</time></trkpt><trkpt lat="45.1965069" lon="7.8591105"><ele>189.0</ele><time>2026-04-12T17:38:06.315Z</time></trkpt><trkpt lat="45.1963514" lon="7.8587374"><ele>188.0</ele><time>2026-04-12T17:38:07.322Z</time></trkpt><trkpt lat="45.1961944" lon="7.8583629"><ele>187.0</ele><time>2026-04-12T17:38:08.322Z</time></trkpt><trkpt lat="45.1960361" lon="7.8579855"><ele>186.5</ele><time>2026-04-12T17:38:09.336Z</time></trkpt><trkpt lat="45.1958756" lon="7.8576077"><ele>186.0</ele><time>2026-04-12T17:38:10.326Z</time></trkpt><trkpt lat="45.1957123" lon="7.8572295"><ele>185.0</ele><time>2026-04-12T17:38:11.328Z</time></trkpt><trkpt lat="45.1955475" lon="7.8568525"><ele>184.0</ele><time>2026-04-12T17:38:12.329Z</time></trkpt><trkpt lat="45.1953833" lon="7.8564783"><ele>184.0</ele><time>2026-04-12T17:38:13.319Z</time></trkpt><trkpt lat="45.1952202" lon="7.8561057"><ele>184.0</ele><time>2026-04-12T17:38:14.312Z</time></trkpt><trkpt lat="45.1950562" lon="7.8557346"><ele>185.5</ele><time>2026-04-12T17:38:15.329Z</time></trkpt><trkpt lat="45.1948904" lon="7.8553618"><ele>187.0</ele><time>2026-04-12T17:38:16.324Z</time></trkpt><trkpt lat="45.1947237" lon="7.8549879"><ele>187.5</ele><time>2026-04-12T17:38:17.334Z</time></trkpt><trkpt lat="45.1945548" lon="7.8546139"><ele>188.0</ele><time>2026-04-12T17:38:18.323Z</time></trkpt><trkpt lat="45.1943876" lon="7.8542392"><ele>189.0</ele><time>2026-04-12T17:38:19.318Z</time></trkpt><trkpt lat="45.1942219" lon="7.8538649"><ele>190.0</ele><time>2026-04-12T17:38:20.323Z</time></trkpt><trkpt lat="45.1940561" lon="7.8534921"><ele>187.5</ele><time>2026-04-12T17:38:21.315Z</time></trkpt><trkpt lat="45.1938904" lon="7.8531186"><ele>185.0</ele><time>2026-04-12T17:38:22.318Z</time></trkpt><trkpt lat="45.1937261" lon="7.852748"><ele>185.0</ele><time>2026-04-12T17:38:23.31Z</time></trkpt><trkpt lat="45.1935632" lon="7.8523765"><ele>185.0</ele><time>2026-04-12T17:38:24.328Z</time></trkpt><trkpt lat="45.1934001" lon="7.8520032"><ele>185.0</ele><time>2026-04-12T17:38:25.321Z</time></trkpt><trkpt lat="45.1932376" lon="7.8516296"><ele>185.0</ele><time>2026-04-12T17:38:26.333Z</time></trkpt><trkpt lat="45.1930735" lon="7.8512587"><ele>186.5</ele><time>2026-04-12T17:38:27.327Z</time></trkpt><trkpt lat="45.192908" lon="7.8508914"><ele>188.0</ele><time>2026-04-12T17:38:28.315Z</time></trkpt><trkpt lat="45.1927414" lon="7.850525"><ele>188.0</ele><time>2026-04-12T17:38:29.329Z</time></trkpt><trkpt lat="45.1925727" lon="7.8501604"><ele>188.0</ele><time>2026-04-12T17:38:30.318Z</time></trkpt><trkpt lat="45.1924028" lon="7.8497954"><ele>188.5</ele><time>2026-04-12T17:38:31.334Z</time></trkpt><trkpt lat="45.1922313" lon="7.849433"><ele>189.0</ele><time>2026-04-12T17:38:32.324Z</time></trkpt><trkpt lat="45.1920597" lon="7.8490693"><ele>189.0</ele><time>2026-04-12T17:38:33.321Z</time></trkpt><trkpt lat="45.191887" lon="7.8487049"><ele>189.0</ele><time>2026-04-12T17:38:34.328Z</time></trkpt><trkpt lat="45.1917137" lon="7.8483434"><ele>189.0</ele><time>2026-04-12T17:38:35.311Z</time></trkpt><trkpt lat="45.1915426" lon="7.8479844"><ele>189.0</ele><time>2026-04-12T17:38:36.311Z</time></trkpt><trkpt lat="45.1913712" lon="7.8476261"><ele>187.0</ele><time>2026-04-12T17:38:37.314Z</time></trkpt><trkpt lat="45.1911996" lon="7.8472689"><ele>185.0</ele><time>2026-04-12T17:38:38.324Z</time></trkpt><trkpt lat="45.1910272" lon="7.8469135"><ele>186.0</ele><time>2026-04-12T17:38:39.313Z</time></trkpt><trkpt lat="45.190854" lon="7.8465617"><ele>187.0</ele><time>2026-04-12T17:38:40.333Z</time></trkpt><trkpt lat="45.1906801" lon="7.8462104"><ele>187.0</ele><time>2026-04-12T17:38:41.332Z</time></trkpt><trkpt lat="45.1905066" lon="7.8458561"><ele>187.0</ele><time>2026-04-12T17:38:42.312Z</time></trkpt><trkpt lat="45.1903321" lon="7.8454985"><ele>187.0</ele><time>2026-04-12T17:38:43.322Z</time></trkpt><trkpt lat="45.1901584" lon="7.8451386"><ele>187.0</ele><time>2026-04-12T17:38:44.325Z</time></trkpt><trkpt lat="45.1899832" lon="7.844777"><ele>186.0</ele><time>2026-04-12T17:38:45.312Z</time></trkpt><trkpt lat="45.1898061" lon="7.8444145"><ele>185.0</ele><time>2026-04-12T17:38:46.322Z</time></trkpt><trkpt lat="45.1896265" lon="7.8440501"><ele>187.0</ele><time>2026-04-12T17:38:47.33Z</time></trkpt><trkpt lat="45.189445" lon="7.8436848"><ele>189.0</ele><time>2026-04-12T17:38:48.336Z</time></trkpt><trkpt lat="45.1892618" lon="7.84332"><ele>189.0</ele><time>2026-04-12T17:38:49.323Z</time></trkpt><trkpt lat="45.1890775" lon="7.8429551"><ele>189.0</ele><time>2026-04-12T17:38:50.328Z</time></trkpt><trkpt lat="45.1888912" lon="7.8425883"><ele>187.5</ele><time>2026-04-12T17:38:51.311Z</time></trkpt><trkpt lat="45.1887027" lon="7.8422213"><ele>186.0</ele><time>2026-04-12T17:38:52.33Z</time></trkpt><trkpt lat="45.1885152" lon="7.8418575"><ele>186.0</ele><time>2026-04-12T17:38:53.321Z</time></trkpt><trkpt lat="45.1883273" lon="7.8414959"><ele>186.0</ele><time>2026-04-12T17:38:54.316Z</time></trkpt><trkpt lat="45.1881389" lon="7.8411347"><ele>186.5</ele><time>2026-04-12T17:38:55.33Z</time></trkpt><trkpt lat="45.1879497" lon="7.8407758"><ele>187.0</ele><time>2026-04-12T17:38:56.334Z</time></trkpt><trkpt lat="45.1877606" lon="7.8404188"><ele>187.0</ele><time>2026-04-12T17:38:57.332Z</time></trkpt><trkpt lat="45.1875699" lon="7.8400636"><ele>187.0</ele><time>2026-04-12T17:38:58.325Z</time></trkpt><trkpt lat="45.1873797" lon="7.8397088"><ele>187.0</ele><time>2026-04-12T17:38:59.31Z</time></trkpt><trkpt lat="45.1871892" lon="7.8393562"><ele>187.0</ele><time>2026-04-12T17:39:00.312Z</time></trkpt><trkpt lat="45.1869994" lon="7.8390057"><ele>187.5</ele><time>2026-04-12T17:39:01.321Z</time></trkpt><trkpt lat="45.1868127" lon="7.8386548"><ele>188.0</ele><time>2026-04-12T17:39:02.33Z</time></trkpt><trkpt lat="45.1866264" lon="7.8383051"><ele>188.0</ele><time>2026-04-12T17:39:03.306Z</time></trkpt><trkpt lat="45.1864402" lon="7.8379535"><ele>188.0</ele><time>2026-04-12T17:39:04.325Z</time></trkpt><trkpt lat="45.1862521" lon="7.8376003"><ele>188.0</ele><time>2026-04-12T17:39:05.321Z</time></trkpt><trkpt lat="45.1860631" lon="7.8372452"><ele>188.0</ele><time>2026-04-12T17:39:06.327Z</time></trkpt><trkpt lat="45.1858723" lon="7.8368876"><ele>188.5</ele><time>2026-04-12T17:39:07.319Z</time></trkpt><trkpt lat="45.1856823" lon="7.8365296"><ele>189.0</ele><time>2026-04-12T17:39:08.321Z</time></trkpt><trkpt lat="45.1854943" lon="7.8361687"><ele>188.5</ele><time>2026-04-12T17:39:09.33Z</time></trkpt><trkpt lat="45.185306" lon="7.835805"><ele>188.0</ele><time>2026-04-12T17:39:10.326Z</time></trkpt><trkpt lat="45.1851173" lon="7.8354392"><ele>188.5</ele><time>2026-04-12T17:39:11.336Z</time></trkpt><trkpt lat="45.1849317" lon="7.835067"><ele>189.0</ele><time>2026-04-12T17:39:12.326Z</time></trkpt><trkpt lat="45.1847489" lon="7.8346927"><ele>189.0</ele><time>2026-04-12T17:39:13.322Z</time></trkpt><trkpt lat="45.1845687" lon="7.8343206"><ele>189.0</ele><time>2026-04-12T17:39:14.327Z</time></trkpt><trkpt lat="45.1843885" lon="7.8339485"><ele>189.0</ele><time>2026-04-12T17:39:15.33Z</time></trkpt><trkpt lat="45.1842093" lon="7.8335801"><ele>189.0</ele><time>2026-04-12T17:39:16.333Z</time></trkpt><trkpt lat="45.1840293" lon="7.8332144"><ele>188.5</ele><time>2026-04-12T17:39:17.326Z</time></trkpt><trkpt lat="45.1838471" lon="7.8328473"><ele>188.0</ele><time>2026-04-12T17:39:18.326Z</time></trkpt><trkpt lat="45.1836632" lon="7.8324819"><ele>188.0</ele><time>2026-04-12T17:39:19.332Z</time></trkpt><trkpt lat="45.1834805" lon="7.8321192"><ele>188.0</ele><time>2026-04-12T17:39:20.31Z</time></trkpt><trkpt lat="45.1832992" lon="7.8317582"><ele>189.5</ele><time>2026-04-12T17:39:21.333Z</time></trkpt><trkpt lat="45.183118" lon="7.8313968"><ele>191.0</ele><time>2026-04-12T17:39:22.327Z</time></trkpt><trkpt lat="45.182938" lon="7.8310326"><ele>191.5</ele><time>2026-04-12T17:39:23.311Z</time></trkpt><trkpt lat="45.1827581" lon="7.8306682"><ele>192.0</ele><time>2026-04-12T17:39:24.322Z</time></trkpt><trkpt lat="45.1825781" lon="7.830303"><ele>192.0</ele><time>2026-04-12T17:39:25.328Z</time></trkpt><trkpt lat="45.1823992" lon="7.8299353"><ele>192.0</ele><time>2026-04-12T17:39:26.321Z</time></trkpt><trkpt lat="45.1822199" lon="7.8295662"><ele>192.5</ele><time>2026-04-12T17:39:27.334Z</time></trkpt><trkpt lat="45.1820393" lon="7.8291967"><ele>193.0</ele><time>2026-04-12T17:39:28.311Z</time></trkpt><trkpt lat="45.1818574" lon="7.8288239"><ele>192.0</ele><time>2026-04-12T17:39:29.327Z</time></trkpt><trkpt lat="45.1816749" lon="7.8284507"><ele>191.0</ele><time>2026-04-12T17:39:30.309Z</time></trkpt><trkpt lat="45.1814918" lon="7.8280785"><ele>191.0</ele><time>2026-04-12T17:39:31.34Z</time></trkpt><trkpt lat="45.1813062" lon="7.8277048"><ele>191.0</ele><time>2026-04-12T17:39:32.329Z</time></trkpt><trkpt lat="45.1811195" lon="7.8273313"><ele>191.0</ele><time>2026-04-12T17:39:33.316Z</time></trkpt><trkpt lat="45.1809343" lon="7.8269594"><ele>191.0</ele><time>2026-04-12T17:39:34.312Z</time></trkpt><trkpt lat="45.1807477" lon="7.826588"><ele>191.0</ele><time>2026-04-12T17:39:35.323Z</time></trkpt><trkpt lat="45.1805609" lon="7.8262179"><ele>191.0</ele><time>2026-04-12T17:39:36.327Z</time></trkpt><trkpt lat="45.1803742" lon="7.8258503"><ele>190.5</ele><time>2026-04-12T17:39:37.319Z</time></trkpt><trkpt lat="45.1801873" lon="7.8254856"><ele>190.0</ele><time>2026-04-12T17:39:38.316Z</time></trkpt><trkpt lat="45.1800012" lon="7.8251234"><ele>191.5</ele><time>2026-04-12T17:39:39.326Z</time></trkpt><trkpt lat="45.1798188" lon="7.8247626"><ele>193.0</ele><time>2026-04-12T17:39:40.33Z</time></trkpt><trkpt lat="45.1796386" lon="7.8244048"><ele>193.5</ele><time>2026-04-12T17:39:41.321Z</time></trkpt><trkpt lat="45.179462" lon="7.8240521"><ele>194.0</ele><time>2026-04-12T17:39:42.337Z</time></trkpt><trkpt lat="45.1792876" lon="7.8237032"><ele>194.5</ele><time>2026-04-12T17:39:43.325Z</time></trkpt><trkpt lat="45.1791138" lon="7.8233553"><ele>195.0</ele><time>2026-04-12T17:39:44.321Z</time></trkpt><trkpt lat="45.1789412" lon="7.823006"><ele>195.0</ele><time>2026-04-12T17:39:45.321Z</time></trkpt><trkpt lat="45.1787694" lon="7.8226555"><ele>195.0</ele><time>2026-04-12T17:39:46.323Z</time></trkpt><trkpt lat="45.1785962" lon="7.8223065"><ele>194.5</ele><time>2026-04-12T17:39:47.329Z</time></trkpt><trkpt lat="45.1784226" lon="7.8219579"><ele>194.0</ele><time>2026-04-12T17:39:48.321Z</time></trkpt><trkpt lat="45.1782498" lon="7.8216107"><ele>194.5</ele><time>2026-04-12T17:39:49.334Z</time></trkpt><trkpt lat="45.1780786" lon="7.8212635"><ele>195.0</ele><time>2026-04-12T17:39:50.31Z</time></trkpt><trkpt lat="45.1779111" lon="7.8209198"><ele>194.0</ele><time>2026-04-12T17:39:51.332Z</time></trkpt><trkpt lat="45.1777476" lon="7.8205784"><ele>193.0</ele><time>2026-04-12T17:39:52.327Z</time></trkpt><trkpt lat="45.1775885" lon="7.8202316"><ele>193.0</ele><time>2026-04-12T17:39:53.31Z</time></trkpt><trkpt lat="45.1774275" lon="7.8198798"><ele>193.0</ele><time>2026-04-12T17:39:54.323Z</time></trkpt><trkpt lat="45.1772629" lon="7.8195303"><ele>194.5</ele><time>2026-04-12T17:39:55.325Z</time></trkpt><trkpt lat="45.1770938" lon="7.8191836"><ele>196.0</ele><time>2026-04-12T17:39:56.333Z</time></trkpt><trkpt lat="45.1769222" lon="7.8188365"><ele>196.0</ele><time>2026-04-12T17:39:57.335Z</time></trkpt><trkpt lat="45.1767478" lon="7.8184907"><ele>196.0</ele><time>2026-04-12T17:39:58.323Z</time></trkpt><trkpt lat="45.1765745" lon="7.8181426"><ele>196.0</ele><time>2026-04-12T17:39:59.324Z</time></trkpt><trkpt lat="45.1764001" lon="7.8177932"><ele>196.0</ele><time>2026-04-12T17:40:00.321Z</time></trkpt><trkpt lat="45.1762269" lon="7.8174474"><ele>196.0</ele><time>2026-04-12T17:40:01.323Z</time></trkpt><trkpt lat="45.1760546" lon="7.8171074"><ele>196.0</ele><time>2026-04-12T17:40:02.316Z</time></trkpt><trkpt lat="45.1758847" lon="7.8167697"><ele>196.5</ele><time>2026-04-12T17:40:03.32Z</time></trkpt><trkpt lat="45.1757164" lon="7.8164325"><ele>197.0</ele><time>2026-04-12T17:40:04.319Z</time></trkpt><trkpt lat="45.175547" lon="7.8160913"><ele>196.5</ele><time>2026-04-12T17:40:05.329Z</time></trkpt><trkpt lat="45.1753775" lon="7.8157463"><ele>196.0</ele><time>2026-04-12T17:40:06.32Z</time></trkpt><trkpt lat="45.1752058" lon="7.8153998"><ele>197.0</ele><time>2026-04-12T17:40:07.32Z</time></trkpt><trkpt lat="45.1750342" lon="7.8150524"><ele>198.0</ele><time>2026-04-12T17:40:08.319Z</time></trkpt><trkpt lat="45.1748603" lon="7.8147047"><ele>198.0</ele><time>2026-04-12T17:40:09.319Z</time></trkpt><trkpt lat="45.174688" lon="7.8143561"><ele>198.0</ele><time>2026-04-12T17:40:10.312Z</time></trkpt><trkpt lat="45.1745157" lon="7.8140086"><ele>198.0</ele><time>2026-04-12T17:40:11.337Z</time></trkpt><trkpt lat="45.1743435" lon="7.8136645"><ele>198.0</ele><time>2026-04-12T17:40:12.325Z</time></trkpt><trkpt lat="45.1741713" lon="7.8133216"><ele>197.5</ele><time>2026-04-12T17:40:13.321Z</time></trkpt><trkpt lat="45.1740022" lon="7.8129772"><ele>197.0</ele><time>2026-04-12T17:40:14.324Z</time></trkpt><trkpt lat="45.1738338" lon="7.8126334"><ele>197.0</ele><time>2026-04-12T17:40:15.329Z</time></trkpt><trkpt lat="45.1736659" lon="7.8122876"><ele>197.0</ele><time>2026-04-12T17:40:16.331Z</time></trkpt><trkpt lat="45.1734955" lon="7.8119422"><ele>197.0</ele><time>2026-04-12T17:40:17.313Z</time></trkpt><trkpt lat="45.1733234" lon="7.8115965"><ele>197.0</ele><time>2026-04-12T17:40:18.325Z</time></trkpt><trkpt lat="45.1731511" lon="7.8112501"><ele>196.5</ele><time>2026-04-12T17:40:19.324Z</time></trkpt><trkpt lat="45.1729783" lon="7.8109031"><ele>196.0</ele><time>2026-04-12T17:40:20.325Z</time></trkpt><trkpt lat="45.172805" lon="7.8105551"><ele>196.0</ele><time>2026-04-12T17:40:21.314Z</time></trkpt><trkpt lat="45.17263" lon="7.8102073"><ele>196.0</ele><time>2026-04-12T17:40:22.324Z</time></trkpt><trkpt lat="45.1724574" lon="7.8098549"><ele>197.0</ele><time>2026-04-12T17:40:23.323Z</time></trkpt><trkpt lat="45.1722837" lon="7.8095029"><ele>198.0</ele><time>2026-04-12T17:40:24.313Z</time></trkpt><trkpt lat="45.1721101" lon="7.809149"><ele>198.5</ele><time>2026-04-12T17:40:25.33Z</time></trkpt><trkpt lat="45.1719359" lon="7.8087938"><ele>199.0</ele><time>2026-04-12T17:40:26.325Z</time></trkpt><trkpt lat="45.1717609" lon="7.8084389"><ele>199.5</ele><time>2026-04-12T17:40:27.331Z</time></trkpt><trkpt lat="45.1715839" lon="7.8080827"><ele>200.0</ele><time>2026-04-12T17:40:28.329Z</time></trkpt><trkpt lat="45.1714067" lon="7.8077273"><ele>199.5</ele><time>2026-04-12T17:40:29.33Z</time></trkpt><trkpt lat="45.1712292" lon="7.8073705"><ele>199.0</ele><time>2026-04-12T17:40:30.332Z</time></trkpt><trkpt lat="45.1710498" lon="7.8070143"><ele>199.0</ele><time>2026-04-12T17:40:31.331Z</time></trkpt><trkpt lat="45.170869" lon="7.8066557"><ele>199.0</ele><time>2026-04-12T17:40:32.329Z</time></trkpt><trkpt lat="45.1706884" lon="7.8062945"><ele>199.5</ele><time>2026-04-12T17:40:33.331Z</time></trkpt><trkpt lat="45.1705062" lon="7.8059335"><ele>200.0</ele><time>2026-04-12T17:40:34.326Z</time></trkpt><trkpt lat="45.1703234" lon="7.8055694"><ele>200.0</ele><time>2026-04-12T17:40:35.325Z</time></trkpt><trkpt lat="45.1701403" lon="7.8052022"><ele>200.0</ele><time>2026-04-12T17:40:36.333Z</time></trkpt><trkpt lat="45.1699582" lon="7.8048369"><ele>200.0</ele><time>2026-04-12T17:40:37.323Z</time></trkpt><trkpt lat="45.1697778" lon="7.804472"><ele>200.0</ele><time>2026-04-12T17:40:38.332Z</time></trkpt><trkpt lat="45.1695971" lon="7.8041064"><ele>199.5</ele><time>2026-04-12T17:40:39.322Z</time></trkpt><trkpt lat="45.1694161" lon="7.8037404"><ele>199.0</ele><time>2026-04-12T17:40:40.335Z</time></trkpt><trkpt lat="45.169234" lon="7.8033764"><ele>199.0</ele><time>2026-04-12T17:40:41.346Z</time></trkpt><trkpt lat="45.1690512" lon="7.8030141"><ele>199.0</ele><time>2026-04-12T17:40:42.326Z</time></trkpt><trkpt lat="45.1688695" lon="7.8026549"><ele>199.5</ele><time>2026-04-12T17:40:43.321Z</time></trkpt><trkpt lat="45.1686872" lon="7.8022939"><ele>200.0</ele><time>2026-04-12T17:40:44.313Z</time></trkpt><trkpt lat="45.1685069" lon="7.8019312"><ele>200.0</ele><time>2026-04-12T17:40:45.334Z</time></trkpt><trkpt lat="45.1683263" lon="7.8015687"><ele>200.0</ele><time>2026-04-12T17:40:46.336Z</time></trkpt><trkpt lat="45.1681454" lon="7.8012084"><ele>201.0</ele><time>2026-04-12T17:40:47.309Z</time></trkpt><trkpt lat="45.1679643" lon="7.80085"><ele>202.0</ele><time>2026-04-12T17:40:48.311Z</time></trkpt><trkpt lat="45.167783" lon="7.8004957"><ele>202.0</ele><time>2026-04-12T17:40:49.324Z</time></trkpt><trkpt lat="45.1676023" lon="7.8001407"><ele>202.0</ele><time>2026-04-12T17:40:50.324Z</time></trkpt><trkpt lat="45.1674206" lon="7.7997841"><ele>201.5</ele><time>2026-04-12T17:40:51.33Z</time></trkpt><trkpt lat="45.1672386" lon="7.7994263"><ele>201.0</ele><time>2026-04-12T17:40:52.313Z</time></trkpt><trkpt lat="45.1670601" lon="7.7990727"><ele>201.0</ele><time>2026-04-12T17:40:53.333Z</time></trkpt><trkpt lat="45.1668851" lon="7.7987276"><ele>201.0</ele><time>2026-04-12T17:40:54.336Z</time></trkpt><trkpt lat="45.166715" lon="7.7983868"><ele>201.0</ele><time>2026-04-12T17:40:55.331Z</time></trkpt><trkpt lat="45.166549" lon="7.798045"><ele>201.0</ele><time>2026-04-12T17:40:56.313Z</time></trkpt><trkpt lat="45.1663841" lon="7.7977014"><ele>201.0</ele><time>2026-04-12T17:40:57.336Z</time></trkpt><trkpt lat="45.1662205" lon="7.7973522"><ele>201.0</ele><time>2026-04-12T17:40:58.311Z</time></trkpt><trkpt lat="45.1660537" lon="7.797001"><ele>203.0</ele><time>2026-04-12T17:40:59.333Z</time></trkpt><trkpt lat="45.1658847" lon="7.796646"><ele>205.0</ele><time>2026-04-12T17:41:00.309Z</time></trkpt><trkpt lat="45.1657118" lon="7.7962892"><ele>203.5</ele><time>2026-04-12T17:41:01.31Z</time></trkpt><trkpt lat="45.1655363" lon="7.7959279"><ele>202.0</ele><time>2026-04-12T17:41:02.323Z</time></trkpt><trkpt lat="45.1653616" lon="7.7955632"><ele>202.0</ele><time>2026-04-12T17:41:03.325Z</time></trkpt><trkpt lat="45.1651859" lon="7.7951965"><ele>202.0</ele><time>2026-04-12T17:41:04.339Z</time></trkpt><trkpt lat="45.165009" lon="7.7948241"><ele>202.5</ele><time>2026-04-12T17:41:05.331Z</time></trkpt><trkpt lat="45.164832" lon="7.794449"><ele>203.0</ele><time>2026-04-12T17:41:06.327Z</time></trkpt><trkpt lat="45.1646551" lon="7.7940716"><ele>203.0</ele><time>2026-04-12T17:41:07.313Z</time></trkpt><trkpt lat="45.164479" lon="7.7936944"><ele>203.0</ele><time>2026-04-12T17:41:08.329Z</time></trkpt><trkpt lat="45.1643019" lon="7.7933161"><ele>203.0</ele><time>2026-04-12T17:41:09.322Z</time></trkpt><trkpt lat="45.1641239" lon="7.7929391"><ele>203.0</ele><time>2026-04-12T17:41:10.328Z</time></trkpt><trkpt lat="45.1639474" lon="7.7925651"><ele>203.5</ele><time>2026-04-12T17:41:11.331Z</time></trkpt><trkpt lat="45.1637693" lon="7.7921955"><ele>204.0</ele><time>2026-04-12T17:41:12.325Z</time></trkpt><trkpt lat="45.163592" lon="7.79183"><ele>204.0</ele><time>2026-04-12T17:41:13.337Z</time></trkpt><trkpt lat="45.1634122" lon="7.7914683"><ele>204.0</ele><time>2026-04-12T17:41:14.327Z</time></trkpt><trkpt lat="45.163231" lon="7.7911078"><ele>203.5</ele><time>2026-04-12T17:41:15.325Z</time></trkpt><trkpt lat="45.163049" lon="7.7907504"><ele>203.0</ele><time>2026-04-12T17:41:16.321Z</time></trkpt><trkpt lat="45.1628682" lon="7.7903913"><ele>203.5</ele><time>2026-04-12T17:41:17.326Z</time></trkpt><trkpt lat="45.162686" lon="7.7900327"><ele>204.0</ele><time>2026-04-12T17:41:18.339Z</time></trkpt><trkpt lat="45.1625039" lon="7.7896729"><ele>204.5</ele><time>2026-04-12T17:41:19.324Z</time></trkpt><trkpt lat="45.1623221" lon="7.7893099"><ele>205.0</ele><time>2026-04-12T17:41:20.331Z</time></trkpt><trkpt lat="45.1621418" lon="7.7889472"><ele>205.0</ele><time>2026-04-12T17:41:21.314Z</time></trkpt><trkpt lat="45.1619614" lon="7.7885844"><ele>205.0</ele><time>2026-04-12T17:41:22.315Z</time></trkpt><trkpt lat="45.1617801" lon="7.7882221"><ele>206.5</ele><time>2026-04-12T17:41:23.329Z</time></trkpt><trkpt lat="45.1615988" lon="7.7878588"><ele>208.0</ele><time>2026-04-12T17:41:24.325Z</time></trkpt><trkpt lat="45.1614186" lon="7.7874983"><ele>208.5</ele><time>2026-04-12T17:41:25.333Z</time></trkpt><trkpt lat="45.1612394" lon="7.7871351"><ele>209.0</ele><time>2026-04-12T17:41:26.32Z</time></trkpt><trkpt lat="45.1610579" lon="7.7867722"><ele>209.0</ele><time>2026-04-12T17:41:27.327Z</time></trkpt><trkpt lat="45.1608758" lon="7.78641"><ele>209.0</ele><time>2026-04-12T17:41:28.33Z</time></trkpt><trkpt lat="45.1606938" lon="7.7860464"><ele>208.0</ele><time>2026-04-12T17:41:29.32Z</time></trkpt><trkpt lat="45.1605121" lon="7.7856851"><ele>207.0</ele><time>2026-04-12T17:41:30.336Z</time></trkpt><trkpt lat="45.1603327" lon="7.7853251"><ele>208.0</ele><time>2026-04-12T17:41:31.314Z</time></trkpt><trkpt lat="45.1601542" lon="7.7849643"><ele>209.0</ele><time>2026-04-12T17:41:32.327Z</time></trkpt><trkpt lat="45.1599772" lon="7.7846035"><ele>207.0</ele><time>2026-04-12T17:41:33.331Z</time></trkpt><trkpt lat="45.1597988" lon="7.7842439"><ele>205.0</ele><time>2026-04-12T17:41:34.326Z</time></trkpt><trkpt lat="45.1596186" lon="7.7838894"><ele>205.0</ele><time>2026-04-12T17:41:35.336Z</time></trkpt><trkpt lat="45.159438" lon="7.7835294"><ele>205.0</ele><time>2026-04-12T17:41:36.308Z</time></trkpt><trkpt lat="45.1592579" lon="7.7831665"><ele>206.0</ele><time>2026-04-12T17:41:37.312Z</time></trkpt><trkpt lat="45.1590758" lon="7.7828048"><ele>207.0</ele><time>2026-04-12T17:41:38.322Z</time></trkpt><trkpt lat="45.1588939" lon="7.7824449"><ele>207.5</ele><time>2026-04-12T17:41:39.322Z</time></trkpt><trkpt lat="45.1587123" lon="7.7820881"><ele>208.0</ele><time>2026-04-12T17:41:40.309Z</time></trkpt><trkpt lat="45.1585295" lon="7.7817354"><ele>207.0</ele><time>2026-04-12T17:41:41.33Z</time></trkpt><trkpt lat="45.158346" lon="7.7813838"><ele>206.0</ele><time>2026-04-12T17:41:42.32Z</time></trkpt><trkpt lat="45.1581631" lon="7.7810348"><ele>204.0</ele><time>2026-04-12T17:41:43.331Z</time></trkpt><trkpt lat="45.1579821" lon="7.7806939"><ele>202.0</ele><time>2026-04-12T17:41:44.314Z</time></trkpt><trkpt lat="45.1578037" lon="7.7803574"><ele>204.0</ele><time>2026-04-12T17:41:45.327Z</time></trkpt><trkpt lat="45.1576291" lon="7.7800215"><ele>206.0</ele><time>2026-04-12T17:41:46.329Z</time></trkpt><trkpt lat="45.1574565" lon="7.7796907"><ele>206.5</ele><time>2026-04-12T17:41:47.325Z</time></trkpt><trkpt lat="45.1572859" lon="7.7793677"><ele>207.0</ele><time>2026-04-12T17:41:48.334Z</time></trkpt><trkpt lat="45.1571163" lon="7.7790543"><ele>207.0</ele><time>2026-04-12T17:41:49.314Z</time></trkpt><trkpt lat="45.1569463" lon="7.7787436"><ele>207.0</ele><time>2026-04-12T17:41:50.327Z</time></trkpt><trkpt lat="45.1567758" lon="7.7784235"><ele>207.0</ele><time>2026-04-12T17:41:51.316Z</time></trkpt><trkpt lat="45.1566068" lon="7.7780932"><ele>207.0</ele><time>2026-04-12T17:41:52.333Z</time></trkpt><trkpt lat="45.1564422" lon="7.7777579"><ele>207.0</ele><time>2026-04-12T17:41:53.322Z</time></trkpt><trkpt lat="45.1562804" lon="7.7774155"><ele>207.0</ele><time>2026-04-12T17:41:54.324Z</time></trkpt><trkpt lat="45.1561213" lon="7.7770667"><ele>207.0</ele><time>2026-04-12T17:41:55.316Z</time></trkpt><trkpt lat="45.1559603" lon="7.7767137"><ele>207.0</ele><time>2026-04-12T17:41:56.32Z</time></trkpt><trkpt lat="45.1557932" lon="7.7763641"><ele>207.5</ele><time>2026-04-12T17:41:57.324Z</time></trkpt><trkpt lat="45.1556213" lon="7.7760163"><ele>208.0</ele><time>2026-04-12T17:41:58.32Z</time></trkpt><trkpt lat="45.1554455" lon="7.7756659"><ele>208.0</ele><time>2026-04-12T17:41:59.325Z</time></trkpt><trkpt lat="45.1552669" lon="7.7753147"><ele>208.0</ele><time>2026-04-12T17:42:00.318Z</time></trkpt><trkpt lat="45.1550878" lon="7.7749626"><ele>208.0</ele><time>2026-04-12T17:42:01.328Z</time></trkpt><trkpt lat="45.1549087" lon="7.7746075"><ele>208.0</ele><time>2026-04-12T17:42:02.31Z</time></trkpt><trkpt lat="45.1547307" lon="7.7742518"><ele>208.0</ele><time>2026-04-12T17:42:03.33Z</time></trkpt><trkpt lat="45.1545518" lon="7.7738935"><ele>208.0</ele><time>2026-04-12T17:42:04.312Z</time></trkpt><trkpt lat="45.1543738" lon="7.7735331"><ele>209.0</ele><time>2026-04-12T17:42:05.326Z</time></trkpt><trkpt lat="45.1541923" lon="7.7731702"><ele>210.0</ele><time>2026-04-12T17:42:06.317Z</time></trkpt><trkpt lat="45.1540106" lon="7.7728063"><ele>208.5</ele><time>2026-04-12T17:42:07.321Z</time></trkpt><trkpt lat="45.1538288" lon="7.7724389"><ele>207.0</ele><time>2026-04-12T17:42:08.327Z</time></trkpt><trkpt lat="45.1536478" lon="7.7720747"><ele>209.0</ele><time>2026-04-12T17:42:09.326Z</time></trkpt><trkpt lat="45.1534671" lon="7.7717105"><ele>211.0</ele><time>2026-04-12T17:42:10.311Z</time></trkpt><trkpt lat="45.1532878" lon="7.7713485"><ele>211.0</ele><time>2026-04-12T17:42:11.344Z</time></trkpt><trkpt lat="45.1531096" lon="7.7709888"><ele>211.0</ele><time>2026-04-12T17:42:12.306Z</time></trkpt><trkpt lat="45.1529312" lon="7.770631"><ele>211.0</ele><time>2026-04-12T17:42:13.329Z</time></trkpt><trkpt lat="45.152753" lon="7.7702743"><ele>211.0</ele><time>2026-04-12T17:42:14.331Z</time></trkpt><trkpt lat="45.1525763" lon="7.769916"><ele>211.0</ele><time>2026-04-12T17:42:15.321Z</time></trkpt><trkpt lat="45.1523998" lon="7.7695589"><ele>211.0</ele><time>2026-04-12T17:42:16.327Z</time></trkpt><trkpt lat="45.1522224" lon="7.7692008"><ele>208.5</ele><time>2026-04-12T17:42:17.313Z</time></trkpt><trkpt lat="45.1520434" lon="7.7688412"><ele>206.0</ele><time>2026-04-12T17:42:18.325Z</time></trkpt><trkpt lat="45.1518661" lon="7.7684794"><ele>206.0</ele><time>2026-04-12T17:42:19.325Z</time></trkpt><trkpt lat="45.1516868" lon="7.7681175"><ele>206.0</ele><time>2026-04-12T17:42:20.337Z</time></trkpt><trkpt lat="45.1515067" lon="7.7677548"><ele>207.5</ele><time>2026-04-12T17:42:21.316Z</time></trkpt><trkpt lat="45.1513238" lon="7.7673941"><ele>209.0</ele><time>2026-04-12T17:42:22.325Z</time></trkpt><trkpt lat="45.1511419" lon="7.7670333"><ele>209.0</ele><time>2026-04-12T17:42:23.331Z</time></trkpt><trkpt lat="45.1509599" lon="7.7666723"><ele>209.0</ele><time>2026-04-12T17:42:24.329Z</time></trkpt><trkpt lat="45.1507811" lon="7.7663085"><ele>209.5</ele><time>2026-04-12T17:42:25.321Z</time></trkpt><trkpt lat="45.1506045" lon="7.7659435"><ele>210.0</ele><time>2026-04-12T17:42:26.324Z</time></trkpt><trkpt lat="45.1504286" lon="7.7655807"><ele>210.0</ele><time>2026-04-12T17:42:27.332Z</time></trkpt><trkpt lat="45.1502519" lon="7.765219"><ele>210.0</ele><time>2026-04-12T17:42:28.312Z</time></trkpt><trkpt lat="45.1500767" lon="7.7648596"><ele>210.0</ele><time>2026-04-12T17:42:29.334Z</time></trkpt><trkpt lat="45.1499" lon="7.7645033"><ele>210.0</ele><time>2026-04-12T17:42:30.33Z</time></trkpt><trkpt lat="45.149725" lon="7.7641505"><ele>210.0</ele><time>2026-04-12T17:42:31.327Z</time></trkpt><trkpt lat="45.1495496" lon="7.7637982"><ele>210.0</ele><time>2026-04-12T17:42:32.304Z</time></trkpt><trkpt lat="45.1493756" lon="7.7634455"><ele>210.0</ele><time>2026-04-12T17:42:33.326Z</time></trkpt><trkpt lat="45.1492019" lon="7.7630978"><ele>210.0</ele><time>2026-04-12T17:42:34.334Z</time></trkpt><trkpt lat="45.1490275" lon="7.7627509"><ele>211.0</ele><time>2026-04-12T17:42:35.324Z</time></trkpt><trkpt lat="45.1488532" lon="7.7624037"><ele>212.0</ele><time>2026-04-12T17:42:36.324Z</time></trkpt><trkpt lat="45.1486818" lon="7.7620536"><ele>212.5</ele><time>2026-04-12T17:42:37.311Z</time></trkpt><trkpt lat="45.148509" lon="7.7617034"><ele>213.0</ele><time>2026-04-12T17:42:38.323Z</time></trkpt><trkpt lat="45.1483381" lon="7.7613552"><ele>212.5</ele><time>2026-04-12T17:42:39.329Z</time></trkpt><trkpt lat="45.1481659" lon="7.7610063"><ele>212.0</ele><time>2026-04-12T17:42:40.315Z</time></trkpt><trkpt lat="45.1479918" lon="7.7606558"><ele>212.0</ele><time>2026-04-12T17:42:41.317Z</time></trkpt><trkpt lat="45.1478163" lon="7.760304"><ele>212.0</ele><time>2026-04-12T17:42:42.327Z</time></trkpt><trkpt lat="45.1476413" lon="7.7599495"><ele>212.5</ele><time>2026-04-12T17:42:43.319Z</time></trkpt><trkpt lat="45.1474643" lon="7.7595927"><ele>213.0</ele><time>2026-04-12T17:42:44.32Z</time></trkpt><trkpt lat="45.1472875" lon="7.7592311"><ele>213.0</ele><time>2026-04-12T17:42:45.323Z</time></trkpt><trkpt lat="45.1471114" lon="7.7588684"><ele>213.0</ele><time>2026-04-12T17:42:46.323Z</time></trkpt><trkpt lat="45.1469342" lon="7.7585033"><ele>213.5</ele><time>2026-04-12T17:42:47.322Z</time></trkpt><trkpt lat="45.1467546" lon="7.7581398"><ele>214.0</ele><time>2026-04-12T17:42:48.321Z</time></trkpt><trkpt lat="45.1465717" lon="7.7577783"><ele>214.5</ele><time>2026-04-12T17:42:49.326Z</time></trkpt><trkpt lat="45.1463925" lon="7.757418"><ele>215.0</ele><time>2026-04-12T17:42:50.325Z</time></trkpt><trkpt lat="45.1462142" lon="7.757057"><ele>214.5</ele><time>2026-04-12T17:42:51.341Z</time></trkpt><trkpt lat="45.1460325" lon="7.7566946"><ele>214.0</ele><time>2026-04-12T17:42:52.307Z</time></trkpt><trkpt lat="45.1458502" lon="7.7563329"><ele>214.0</ele><time>2026-04-12T17:42:53.312Z</time></trkpt><trkpt lat="45.1456668" lon="7.7559741"><ele>214.0</ele><time>2026-04-12T17:42:54.329Z</time></trkpt><trkpt lat="45.1454844" lon="7.7556163"><ele>214.0</ele><time>2026-04-12T17:42:55.323Z</time></trkpt><trkpt lat="45.1453021" lon="7.7552612"><ele>214.0</ele><time>2026-04-12T17:42:56.31Z</time></trkpt><trkpt lat="45.1451205" lon="7.7549085"><ele>213.5</ele><time>2026-04-12T17:42:57.33Z</time></trkpt><trkpt lat="45.1449405" lon="7.7545557"><ele>213.0</ele><time>2026-04-12T17:42:58.309Z</time></trkpt><trkpt lat="45.144763" lon="7.7542002"><ele>213.0</ele><time>2026-04-12T17:42:59.321Z</time></trkpt><trkpt lat="45.1445894" lon="7.7538408"><ele>213.0</ele><time>2026-04-12T17:43:00.32Z</time></trkpt><trkpt lat="45.1444208" lon="7.7534801"><ele>213.0</ele><time>2026-04-12T17:43:01.318Z</time></trkpt><trkpt lat="45.144253" lon="7.7531221"><ele>213.0</ele><time>2026-04-12T17:43:02.326Z</time></trkpt><trkpt lat="45.1440843" lon="7.7527669"><ele>213.5</ele><time>2026-04-12T17:43:03.336Z</time></trkpt><trkpt lat="45.1439136" lon="7.7524137"><ele>214.0</ele><time>2026-04-12T17:43:04.33Z</time></trkpt><trkpt lat="45.1437417" lon="7.752064"><ele>214.0</ele><time>2026-04-12T17:43:05.327Z</time></trkpt><trkpt lat="45.1435672" lon="7.7517138"><ele>214.0</ele><time>2026-04-12T17:43:06.327Z</time></trkpt><trkpt lat="45.1433913" lon="7.7513633"><ele>214.0</ele><time>2026-04-12T17:43:07.319Z</time></trkpt><trkpt lat="45.1432156" lon="7.7510121"><ele>214.0</ele><time>2026-04-12T17:43:08.322Z</time></trkpt><trkpt lat="45.1430383" lon="7.7506595"><ele>214.5</ele><time>2026-04-12T17:43:09.32Z</time></trkpt><trkpt lat="45.1428613" lon="7.7503049"><ele>215.0</ele><time>2026-04-12T17:43:10.327Z</time></trkpt><trkpt lat="45.1426843" lon="7.7499474"><ele>215.0</ele><time>2026-04-12T17:43:11.339Z</time></trkpt><trkpt lat="45.1425062" lon="7.7495893"><ele>215.0</ele><time>2026-04-12T17:43:12.323Z</time></trkpt><trkpt lat="45.1423272" lon="7.7492326"><ele>216.0</ele><time>2026-04-12T17:43:13.329Z</time></trkpt><trkpt lat="45.142146" lon="7.7488784"><ele>217.0</ele><time>2026-04-12T17:43:14.313Z</time></trkpt><trkpt lat="45.1419637" lon="7.7485279"><ele>217.5</ele><time>2026-04-12T17:43:15.33Z</time></trkpt><trkpt lat="45.1417805" lon="7.7481775"><ele>218.0</ele><time>2026-04-12T17:43:16.323Z</time></trkpt><trkpt lat="45.1415955" lon="7.7478278"><ele>218.5</ele><time>2026-04-12T17:43:17.327Z</time></trkpt><trkpt lat="45.1414128" lon="7.7474745"><ele>219.0</ele><time>2026-04-12T17:43:18.311Z</time></trkpt><trkpt lat="45.141235" lon="7.7471157"><ele>219.0</ele><time>2026-04-12T17:43:19.321Z</time></trkpt><trkpt lat="45.141062" lon="7.7467505"><ele>219.0</ele><time>2026-04-12T17:43:20.325Z</time></trkpt><trkpt lat="45.1408936" lon="7.7463818"><ele>218.5</ele><time>2026-04-12T17:43:21.322Z</time></trkpt><trkpt lat="45.1407253" lon="7.7460102"><ele>218.0</ele><time>2026-04-12T17:43:22.328Z</time></trkpt><trkpt lat="45.140554" lon="7.745641"><ele>217.5</ele><time>2026-04-12T17:43:23.324Z</time></trkpt><trkpt lat="45.1403787" lon="7.7452754"><ele>217.0</ele><time>2026-04-12T17:43:24.327Z</time></trkpt><trkpt lat="45.1401993" lon="7.7449146"><ele>217.0</ele><time>2026-04-12T17:43:25.325Z</time></trkpt><trkpt lat="45.1400172" lon="7.7445561"><ele>217.0</ele><time>2026-04-12T17:43:26.331Z</time></trkpt><trkpt lat="45.1398357" lon="7.7441966"><ele>217.5</ele><time>2026-04-12T17:43:27.333Z</time></trkpt><trkpt lat="45.1396546" lon="7.743835"><ele>218.0</ele><time>2026-04-12T17:43:28.321Z</time></trkpt><trkpt lat="45.1394727" lon="7.7434725"><ele>218.0</ele><time>2026-04-12T17:43:29.322Z</time></trkpt><trkpt lat="45.1392928" lon="7.7431065"><ele>218.0</ele><time>2026-04-12T17:43:30.329Z</time></trkpt><trkpt lat="45.1391132" lon="7.7427397"><ele>218.5</ele><time>2026-04-12T17:43:31.333Z</time></trkpt><trkpt lat="45.1389344" lon="7.7423725"><ele>219.0</ele><time>2026-04-12T17:43:32.333Z</time></trkpt><trkpt lat="45.1387551" lon="7.7420049"><ele>219.0</ele><time>2026-04-12T17:43:33.327Z</time></trkpt><trkpt lat="45.1385747" lon="7.7416397"><ele>219.0</ele><time>2026-04-12T17:43:34.329Z</time></trkpt><trkpt lat="45.1383945" lon="7.7412769"><ele>217.5</ele><time>2026-04-12T17:43:35.329Z</time></trkpt><trkpt lat="45.1382155" lon="7.7409144"><ele>216.0</ele><time>2026-04-12T17:43:36.323Z</time></trkpt><trkpt lat="45.1380365" lon="7.7405539"><ele>216.5</ele><time>2026-04-12T17:43:37.332Z</time></trkpt><trkpt lat="45.137857" lon="7.7401956"><ele>217.0</ele><time>2026-04-12T17:43:38.319Z</time></trkpt><trkpt lat="45.1376791" lon="7.7398399"><ele>217.0</ele><time>2026-04-12T17:43:39.33Z</time></trkpt><trkpt lat="45.1375023" lon="7.7394874"><ele>217.0</ele><time>2026-04-12T17:43:40.331Z</time></trkpt><trkpt lat="45.1373284" lon="7.739139"><ele>218.0</ele><time>2026-04-12T17:43:41.328Z</time></trkpt><trkpt lat="45.1371586" lon="7.7387963"><ele>219.0</ele><time>2026-04-12T17:43:42.329Z</time></trkpt><trkpt lat="45.136992" lon="7.7384573"><ele>219.5</ele><time>2026-04-12T17:43:43.33Z</time></trkpt><trkpt lat="45.136827" lon="7.7381253"><ele>220.0</ele><time>2026-04-12T17:43:44.31Z</time></trkpt><trkpt lat="45.1366664" lon="7.7377964"><ele>218.5</ele><time>2026-04-12T17:43:45.329Z</time></trkpt><trkpt lat="45.1365065" lon="7.7374747"><ele>217.0</ele><time>2026-04-12T17:43:46.328Z</time></trkpt><trkpt lat="45.1363509" lon="7.7371614"><ele>217.5</ele><time>2026-04-12T17:43:47.327Z</time></trkpt><trkpt lat="45.1362006" lon="7.7368587"><ele>218.0</ele><time>2026-04-12T17:43:48.322Z</time></trkpt><trkpt lat="45.1360547" lon="7.7365682"><ele>218.0</ele><time>2026-04-12T17:43:49.328Z</time></trkpt><trkpt lat="45.1359152" lon="7.7362849"><ele>218.0</ele><time>2026-04-12T17:43:50.335Z</time></trkpt><trkpt lat="45.1357796" lon="7.7360122"><ele>218.0</ele><time>2026-04-12T17:43:51.315Z</time></trkpt><trkpt lat="45.1356476" lon="7.7357508"><ele>218.0</ele><time>2026-04-12T17:43:52.32Z</time></trkpt><trkpt lat="45.1355211" lon="7.7354971"><ele>218.0</ele><time>2026-04-12T17:43:53.328Z</time></trkpt><trkpt lat="45.1354001" lon="7.7352522"><ele>218.33333333333334</ele><time>2026-04-12T17:43:54.328Z</time></trkpt><trkpt lat="45.1352813" lon="7.7350149"><ele>218.66666666666669</ele><time>2026-04-12T17:43:55.312Z</time></trkpt><trkpt lat="45.1351692" lon="7.7347866"><ele>219.0</ele><time>2026-04-12T17:43:56.322Z</time></trkpt><trkpt lat="45.1350617" lon="7.7345647"><ele>219.33333333333331</ele><time>2026-04-12T17:43:57.313Z</time></trkpt><trkpt lat="45.1349542" lon="7.7343447"><ele>219.66666666666666</ele><time>2026-04-12T17:43:58.312Z</time></trkpt><trkpt lat="45.1348465" lon="7.7341207"><ele>220.0</ele><time>2026-04-12T17:43:59.32Z</time></trkpt><trkpt lat="45.1347387" lon="7.7338898"><ele>219.33333333333331</ele><time>2026-04-12T17:44:00.316Z</time></trkpt><trkpt lat="45.1346298" lon="7.7336556"><ele>218.66666666666669</ele><time>2026-04-12T17:44:01.311Z</time></trkpt><trkpt lat="45.1345209" lon="7.7334174"><ele>218.0</ele><time>2026-04-12T17:44:02.317Z</time></trkpt><trkpt lat="45.1344105" lon="7.7331798"><ele>217.66666666666669</ele><time>2026-04-12T17:44:03.314Z</time></trkpt><trkpt lat="45.1343019" lon="7.7329477"><ele>217.33333333333331</ele><time>2026-04-12T17:44:04.33Z</time></trkpt><trkpt lat="45.1341946" lon="7.7327204"><ele>217.0</ele><time>2026-04-12T17:44:05.311Z</time></trkpt><trkpt lat="45.1340853" lon="7.7324951"><ele>216.66666666666666</ele><time>2026-04-12T17:44:06.324Z</time></trkpt><trkpt lat="45.1339743" lon="7.7322697"><ele>216.33333333333331</ele><time>2026-04-12T17:44:07.32Z</time></trkpt><trkpt lat="45.1338624" lon="7.7320438"><ele>216.0</ele><time>2026-04-12T17:44:08.326Z</time></trkpt><trkpt lat="45.1337518" lon="7.7318151"><ele>217.0</ele><time>2026-04-12T17:44:09.32Z</time></trkpt><trkpt lat="45.1336456" lon="7.7315797"><ele>218.0</ele><time>2026-04-12T17:44:10.324Z</time></trkpt><trkpt lat="45.1335491" lon="7.7313397"><ele>219.0</ele><time>2026-04-12T17:44:11.314Z</time></trkpt><trkpt lat="45.1334684" lon="7.7310932"><ele>219.33333333333331</ele><time>2026-04-12T17:44:12.33Z</time></trkpt><trkpt lat="45.1334022" lon="7.7308415"><ele>219.66666666666666</ele><time>2026-04-12T17:44:13.331Z</time></trkpt><trkpt lat="45.1333603" lon="7.7305878"><ele>220.0</ele><time>2026-04-12T17:44:14.325Z</time></trkpt><trkpt lat="45.1333488" lon="7.730344"><ele>220.5</ele><time>2026-04-12T17:44:15.327Z</time></trkpt><trkpt lat="45.1333629" lon="7.7301263"><ele>221.0</ele><time>2026-04-12T17:44:16.324Z</time></trkpt><trkpt lat="45.1334055" lon="7.7299354"><ele>221.5</ele><time>2026-04-12T17:44:17.333Z</time></trkpt><trkpt lat="45.1334767" lon="7.7297567"><ele>222.0</ele><time>2026-04-12T17:44:18.325Z</time></trkpt><trkpt lat="45.1335519" lon="7.7295992"><ele>222.0</ele><time>2026-04-12T17:44:19.33Z</time></trkpt><trkpt lat="45.1336391" lon="7.7294425"><ele>222.0</ele><time>2026-04-12T17:44:20.322Z</time></trkpt><trkpt lat="45.1337317" lon="7.7292904"><ele>222.0</ele><time>2026-04-12T17:44:21.324Z</time></trkpt><trkpt lat="45.1338223" lon="7.7291372"><ele>222.0</ele><time>2026-04-12T17:44:22.322Z</time></trkpt><trkpt lat="45.1339296" lon="7.7289782"><ele>221.66666666666669</ele><time>2026-04-12T17:44:23.317Z</time></trkpt><trkpt lat="45.1340469" lon="7.7288281"><ele>221.33333333333334</ele><time>2026-04-12T17:44:24.331Z</time></trkpt><trkpt lat="45.1341613" lon="7.7286781"><ele>221.0</ele><time>2026-04-12T17:44:25.329Z</time></trkpt><trkpt lat="45.1342802" lon="7.7285198"><ele>222.0</ele><time>2026-04-12T17:44:26.313Z</time></trkpt><trkpt lat="45.1344023" lon="7.7283534"><ele>223.0</ele><time>2026-04-12T17:44:27.33Z</time></trkpt><trkpt lat="45.1345308" lon="7.7281827"><ele>224.0</ele><time>2026-04-12T17:44:28.315Z</time></trkpt><trkpt lat="45.1346622" lon="7.7280069"><ele>224.0</ele><time>2026-04-12T17:44:29.33Z</time></trkpt><trkpt lat="45.1347985" lon="7.7278333"><ele>224.0</ele><time>2026-04-12T17:44:30.326Z</time></trkpt><trkpt lat="45.13494" lon="7.7276604"><ele>224.0</ele><time>2026-04-12T17:44:31.309Z</time></trkpt><trkpt lat="45.1350904" lon="7.7274845"><ele>224.0</ele><time>2026-04-12T17:44:32.322Z</time></trkpt><trkpt lat="45.1352512" lon="7.727305"><ele>224.0</ele><time>2026-04-12T17:44:33.319Z</time></trkpt><trkpt lat="45.1354201" lon="7.7271218"><ele>224.0</ele><time>2026-04-12T17:44:34.324Z</time></trkpt><trkpt lat="45.1355921" lon="7.7269375"><ele>224.0</ele><time>2026-04-12T17:44:35.326Z</time></trkpt><trkpt lat="45.1357646" lon="7.7267568"><ele>224.0</ele><time>2026-04-12T17:44:36.311Z</time></trkpt><trkpt lat="45.1359364" lon="7.7265725"><ele>224.0</ele><time>2026-04-12T17:44:37.319Z</time></trkpt><trkpt lat="45.1361081" lon="7.7263799"><ele>224.0</ele><time>2026-04-12T17:44:38.322Z</time></trkpt><trkpt lat="45.1362812" lon="7.7261776"><ele>224.0</ele><time>2026-04-12T17:44:39.333Z</time></trkpt><trkpt lat="45.1364518" lon="7.725966"><ele>224.5</ele><time>2026-04-12T17:44:40.325Z</time></trkpt><trkpt lat="45.1366168" lon="7.7257403"><ele>225.0</ele><time>2026-04-12T17:44:41.322Z</time></trkpt><trkpt lat="45.1367702" lon="7.7254964"><ele>225.0</ele><time>2026-04-12T17:44:42.325Z</time></trkpt><trkpt lat="45.1369108" lon="7.7252356"><ele>225.0</ele><time>2026-04-12T17:44:43.314Z</time></trkpt><trkpt lat="45.1370357" lon="7.7249678"><ele>224.5</ele><time>2026-04-12T17:44:44.322Z</time></trkpt><trkpt lat="45.1371456" lon="7.7246869"><ele>224.0</ele><time>2026-04-12T17:44:45.326Z</time></trkpt><trkpt lat="45.1372377" lon="7.7243944"><ele>223.66666666666669</ele><time>2026-04-12T17:44:46.313Z</time></trkpt><trkpt lat="45.1373136" lon="7.7240971"><ele>223.33333333333331</ele><time>2026-04-12T17:44:47.328Z</time></trkpt><trkpt lat="45.1373727" lon="7.7237896"><ele>223.0</ele><time>2026-04-12T17:44:48.324Z</time></trkpt><trkpt lat="45.137416" lon="7.7234796"><ele>224.5</ele><time>2026-04-12T17:44:49.313Z</time></trkpt><trkpt lat="45.1374381" lon="7.7231627"><ele>226.0</ele><time>2026-04-12T17:44:50.332Z</time></trkpt><trkpt lat="45.1374394" lon="7.7228382"><ele>226.0</ele><time>2026-04-12T17:44:51.323Z</time></trkpt><trkpt lat="45.1374174" lon="7.7225113"><ele>226.0</ele><time>2026-04-12T17:44:52.325Z</time></trkpt><trkpt lat="45.1373824" lon="7.7221937"><ele>225.0</ele><time>2026-04-12T17:44:53.323Z</time></trkpt><trkpt lat="45.1373382" lon="7.7218819"><ele>224.0</ele><time>2026-04-12T17:44:54.324Z</time></trkpt><trkpt lat="45.1372783" lon="7.7215814"><ele>223.0</ele><time>2026-04-12T17:44:55.307Z</time></trkpt><trkpt lat="45.1371973" lon="7.7212852"><ele>223.33333333333331</ele><time>2026-04-12T17:44:56.324Z</time></trkpt><trkpt lat="45.1371042" lon="7.7210004"><ele>223.66666666666669</ele><time>2026-04-12T17:44:57.33Z</time></trkpt><trkpt lat="45.1370089" lon="7.720714"><ele>224.0</ele><time>2026-04-12T17:44:58.327Z</time></trkpt><trkpt lat="45.1369179" lon="7.7204264"><ele>224.0</ele><time>2026-04-12T17:44:59.325Z</time></trkpt><trkpt lat="45.136825" lon="7.7201438"><ele>224.0</ele><time>2026-04-12T17:45:00.327Z</time></trkpt><trkpt lat="45.1367275" lon="7.71987"><ele>224.0</ele><time>2026-04-12T17:45:01.311Z</time></trkpt><trkpt lat="45.1366316" lon="7.7196053"><ele>224.0</ele><time>2026-04-12T17:45:02.327Z</time></trkpt><trkpt lat="45.1365372" lon="7.719353"><ele>224.0</ele><time>2026-04-12T17:45:03.325Z</time></trkpt><trkpt lat="45.1364449" lon="7.7191115"><ele>224.0</ele><time>2026-04-12T17:45:04.307Z</time></trkpt><trkpt lat="45.1363558" lon="7.7188806"><ele>224.0</ele><time>2026-04-12T17:45:05.318Z</time></trkpt><trkpt lat="45.1362668" lon="7.7186602"><ele>224.0</ele><time>2026-04-12T17:45:06.31Z</time></trkpt><trkpt lat="45.1361753" lon="7.7184549"><ele>224.0</ele><time>2026-04-12T17:45:07.305Z</time></trkpt><trkpt lat="45.1360826" lon="7.7182605"><ele>224.33333333333334</ele><time>2026-04-12T17:45:08.313Z</time></trkpt><trkpt lat="45.1359902" lon="7.7180759"><ele>224.66666666666669</ele><time>2026-04-12T17:45:09.309Z</time></trkpt><trkpt lat="45.1359021" lon="7.7178968"><ele>225.0</ele><time>2026-04-12T17:45:10.322Z</time></trkpt><trkpt lat="45.1358149" lon="7.7177267"><ele>225.5</ele><time>2026-04-12T17:45:11.325Z</time></trkpt><trkpt lat="45.1357218" lon="7.7175705"><ele>226.0</ele><time>2026-04-12T17:45:12.321Z</time></trkpt><trkpt lat="45.1356262" lon="7.7174258"><ele>226.5</ele><time>2026-04-12T17:45:13.332Z</time></trkpt><trkpt lat="45.1355327" lon="7.7172936"><ele>227.0</ele><time>2026-04-12T17:45:14.336Z</time></trkpt><trkpt lat="45.1354421" lon="7.7171709"><ele>227.0</ele><time>2026-04-12T17:45:15.335Z</time></trkpt><trkpt lat="45.1353566" lon="7.7170525"><ele>227.0</ele><time>2026-04-12T17:45:16.331Z</time></trkpt><trkpt lat="45.1352767" lon="7.7169358"><ele>227.0</ele><time>2026-04-12T17:45:17.329Z</time></trkpt><trkpt lat="45.1352022" lon="7.7168191"><ele>227.0</ele><time>2026-04-12T17:45:18.323Z</time></trkpt><trkpt lat="45.1351338" lon="7.7167035"><ele>227.0</ele><time>2026-04-12T17:45:19.322Z</time></trkpt><trkpt lat="45.1350705" lon="7.7165923"><ele>227.0</ele><time>2026-04-12T17:45:20.333Z</time></trkpt><trkpt lat="45.1350111" lon="7.7164839"><ele>227.0</ele><time>2026-04-12T17:45:21.332Z</time></trkpt><trkpt lat="45.1349544" lon="7.7163795"><ele>227.0</ele><time>2026-04-12T17:45:22.325Z</time></trkpt><trkpt lat="45.1349022" lon="7.7162832"><ele>227.0</ele><time>2026-04-12T17:45:23.308Z</time></trkpt><trkpt lat="45.1348557" lon="7.7161963"><ele>227.00000000000003</ele><time>2026-04-12T17:45:24.333Z</time></trkpt><trkpt lat="45.1348095" lon="7.7161153"><ele>227.0</ele><time>2026-04-12T17:45:25.324Z</time></trkpt><trkpt lat="45.1347645" lon="7.7160347"><ele>227.0</ele><time>2026-04-12T17:45:26.325Z</time></trkpt><trkpt lat="45.1347169" lon="7.7159458"><ele>227.0</ele><time>2026-04-12T17:45:27.33Z</time></trkpt><trkpt lat="45.1346582" lon="7.7158326"><ele>227.00000000000003</ele><time>2026-04-12T17:45:28.325Z</time></trkpt><trkpt lat="45.1345836" lon="7.7156904"><ele>227.0</ele><time>2026-04-12T17:45:29.326Z</time></trkpt><trkpt lat="45.1344977" lon="7.7155218"><ele>226.75</ele><time>2026-04-12T17:45:30.333Z</time></trkpt><trkpt lat="45.1344129" lon="7.7153526"><ele>226.5</ele><time>2026-04-12T17:45:31.323Z</time></trkpt><trkpt lat="45.1343313" lon="7.7151896"><ele>226.25</ele><time>2026-04-12T17:45:32.324Z</time></trkpt><trkpt lat="45.1342523" lon="7.7150276"><ele>226.0</ele><time>2026-04-12T17:45:33.331Z</time></trkpt><trkpt lat="45.1341778" lon="7.7148629"><ele>225.66666666666666</ele><time>2026-04-12T17:45:34.335Z</time></trkpt><trkpt lat="45.1341015" lon="7.7146898"><ele>225.33333333333331</ele><time>2026-04-12T17:45:35.323Z</time></trkpt><trkpt lat="45.134022" lon="7.7145045"><ele>225.0</ele><time>2026-04-12T17:45:36.33Z</time></trkpt><trkpt lat="45.1339386" lon="7.7143065"><ele>226.0</ele><time>2026-04-12T17:45:37.312Z</time></trkpt><trkpt lat="45.1338509" lon="7.7140968"><ele>227.0</ele><time>2026-04-12T17:45:38.324Z</time></trkpt><trkpt lat="45.1337665" lon="7.7138786"><ele>228.0</ele><time>2026-04-12T17:45:39.316Z</time></trkpt><trkpt lat="45.133689" lon="7.7136538"><ele>228.33333333333331</ele><time>2026-04-12T17:45:40.327Z</time></trkpt><trkpt lat="45.1336172" lon="7.7134127"><ele>228.66666666666666</ele><time>2026-04-12T17:45:41.329Z</time></trkpt><trkpt lat="45.1335607" lon="7.7131484"><ele>229.0</ele><time>2026-04-12T17:45:42.327Z</time></trkpt><trkpt lat="45.1335229" lon="7.7128702"><ele>228.66666666666666</ele><time>2026-04-12T17:45:43.327Z</time></trkpt><trkpt lat="45.1335068" lon="7.7125871"><ele>228.33333333333331</ele><time>2026-04-12T17:45:44.326Z</time></trkpt><trkpt lat="45.1335175" lon="7.7122926"><ele>228.0</ele><time>2026-04-12T17:45:45.33Z</time></trkpt><trkpt lat="45.1335484" lon="7.7120053"><ele>228.33333333333331</ele><time>2026-04-12T17:45:46.316Z</time></trkpt><trkpt lat="45.1335969" lon="7.7117208"><ele>228.66666666666666</ele><time>2026-04-12T17:45:47.334Z</time></trkpt><trkpt lat="45.1336688" lon="7.7114363"><ele>229.0</ele><time>2026-04-12T17:45:48.326Z</time></trkpt><trkpt lat="45.1337631" lon="7.7111596"><ele>229.0</ele><time>2026-04-12T17:45:49.325Z</time></trkpt><trkpt lat="45.1338721" lon="7.7108827"><ele>229.0</ele><time>2026-04-12T17:45:50.32Z</time></trkpt><trkpt lat="45.1339829" lon="7.7106122"><ele>229.0</ele><time>2026-04-12T17:45:51.328Z</time></trkpt><trkpt lat="45.1340872" lon="7.7103514"><ele>228.66666666666666</ele><time>2026-04-12T17:45:52.308Z</time></trkpt><trkpt lat="45.1341844" lon="7.710099"><ele>228.33333333333331</ele><time>2026-04-12T17:45:53.332Z</time></trkpt><trkpt lat="45.1342737" lon="7.7098566"><ele>228.0</ele><time>2026-04-12T17:45:54.323Z</time></trkpt><trkpt lat="45.1343622" lon="7.7096235"><ele>227.66666666666669</ele><time>2026-04-12T17:45:55.33Z</time></trkpt><trkpt lat="45.1344473" lon="7.7093951"><ele>227.33333333333334</ele><time>2026-04-12T17:45:56.32Z</time></trkpt><trkpt lat="45.1345218" lon="7.7091681"><ele>227.0</ele><time>2026-04-12T17:45:57.324Z</time></trkpt><trkpt lat="45.1345828" lon="7.7089364"><ele>227.0</ele><time>2026-04-12T17:45:58.327Z</time></trkpt><trkpt lat="45.134623" lon="7.7086993"><ele>227.0</ele><time>2026-04-12T17:45:59.32Z</time></trkpt><trkpt lat="45.1346455" lon="7.7084608"><ele>227.0</ele><time>2026-04-12T17:46:00.335Z</time></trkpt><trkpt lat="45.1346418" lon="7.7082197"><ele>227.33333333333334</ele><time>2026-04-12T17:46:01.325Z</time></trkpt><trkpt lat="45.13461" lon="7.7079948"><ele>227.66666666666669</ele><time>2026-04-12T17:46:02.333Z</time></trkpt><trkpt lat="45.1345547" lon="7.7077878"><ele>228.0</ele><time>2026-04-12T17:46:03.323Z</time></trkpt><trkpt lat="45.1344829" lon="7.7075942"><ele>228.0</ele><time>2026-04-12T17:46:04.318Z</time></trkpt><trkpt lat="45.1343948" lon="7.707414"><ele>228.0</ele><time>2026-04-12T17:46:05.312Z</time></trkpt><trkpt lat="45.1342856" lon="7.7072518"><ele>228.0</ele><time>2026-04-12T17:46:06.329Z</time></trkpt><trkpt lat="45.1341636" lon="7.7071126"><ele>227.33333333333331</ele><time>2026-04-12T17:46:07.322Z</time></trkpt><trkpt lat="45.1340206" lon="7.7069975"><ele>226.66666666666666</ele><time>2026-04-12T17:46:08.323Z</time></trkpt><trkpt lat="45.1338636" lon="7.706899"><ele>226.0</ele><time>2026-04-12T17:46:09.322Z</time></trkpt><trkpt lat="45.1336916" lon="7.7067896"><ele>226.66666666666666</ele><time>2026-04-12T17:46:10.316Z</time></trkpt><trkpt lat="45.1335199" lon="7.7066691"><ele>227.33333333333331</ele><time>2026-04-12T17:46:11.329Z</time></trkpt><trkpt lat="45.1333439" lon="7.7065309"><ele>228.0</ele><time>2026-04-12T17:46:12.31Z</time></trkpt><trkpt lat="45.1331693" lon="7.7063815"><ele>228.0</ele><time>2026-04-12T17:46:13.323Z</time></trkpt><trkpt lat="45.1329946" lon="7.7062227"><ele>228.0</ele><time>2026-04-12T17:46:14.326Z</time></trkpt><trkpt lat="45.1328277" lon="7.7060445"><ele>228.0</ele><time>2026-04-12T17:46:15.328Z</time></trkpt><trkpt lat="45.1326782" lon="7.7058362"><ele>227.5</ele><time>2026-04-12T17:46:16.338Z</time></trkpt><trkpt lat="45.1325412" lon="7.7055882"><ele>227.0</ele><time>2026-04-12T17:46:17.324Z</time></trkpt><trkpt lat="45.1324159" lon="7.7053058"><ele>225.5</ele><time>2026-04-12T17:46:18.322Z</time></trkpt><trkpt lat="45.1323124" lon="7.7049959"><ele>224.0</ele><time>2026-04-12T17:46:19.321Z</time></trkpt><trkpt lat="45.1322245" lon="7.7046747"><ele>225.5</ele><time>2026-04-12T17:46:20.327Z</time></trkpt><trkpt lat="45.1321309" lon="7.7043616"><ele>227.0</ele><time>2026-04-12T17:46:21.339Z</time></trkpt><trkpt lat="45.1320278" lon="7.7040482"><ele>227.0</ele><time>2026-04-12T17:46:22.332Z</time></trkpt><trkpt lat="45.1319176" lon="7.7037377"><ele>227.0</ele><time>2026-04-12T17:46:23.311Z</time></trkpt><trkpt lat="45.1318002" lon="7.7034238"><ele>227.5</ele><time>2026-04-12T17:46:24.323Z</time></trkpt><trkpt lat="45.1316802" lon="7.7031035"><ele>228.0</ele><time>2026-04-12T17:46:25.324Z</time></trkpt><trkpt lat="45.1315583" lon="7.7027745"><ele>226.5</ele><time>2026-04-12T17:46:26.325Z</time></trkpt><trkpt lat="45.1314416" lon="7.7024349"><ele>225.0</ele><time>2026-04-12T17:46:27.324Z</time></trkpt><trkpt lat="45.1313268" lon="7.7020829"><ele>225.5</ele><time>2026-04-12T17:46:28.322Z</time></trkpt><trkpt lat="45.1312201" lon="7.7017196"><ele>226.0</ele><time>2026-04-12T17:46:29.321Z</time></trkpt><trkpt lat="45.1311119" lon="7.7013487"><ele>227.0</ele><time>2026-04-12T17:46:30.323Z</time></trkpt><trkpt lat="45.1310092" lon="7.7009745"><ele>228.0</ele><time>2026-04-12T17:46:31.319Z</time></trkpt><trkpt lat="45.1309057" lon="7.7005955"><ele>229.0</ele><time>2026-04-12T17:46:32.338Z</time></trkpt><trkpt lat="45.130804" lon="7.7002158"><ele>230.0</ele><time>2026-04-12T17:46:33.32Z</time></trkpt><trkpt lat="45.1307048" lon="7.6998365"><ele>230.5</ele><time>2026-04-12T17:46:34.33Z</time></trkpt><trkpt lat="45.1306098" lon="7.699457"><ele>231.0</ele><time>2026-04-12T17:46:35.31Z</time></trkpt><trkpt lat="45.1305196" lon="7.6990818"><ele>229.5</ele><time>2026-04-12T17:46:36.326Z</time></trkpt><trkpt lat="45.130431" lon="7.6987172"><ele>228.0</ele><time>2026-04-12T17:46:37.313Z</time></trkpt><trkpt lat="45.1303407" lon="7.6983568"><ele>227.5</ele><time>2026-04-12T17:46:38.33Z</time></trkpt><trkpt lat="45.1302529" lon="7.6979934"><ele>227.0</ele><time>2026-04-12T17:46:39.321Z</time></trkpt><trkpt lat="45.1301689" lon="7.6976257"><ele>227.5</ele><time>2026-04-12T17:46:40.312Z</time></trkpt><trkpt lat="45.1300887" lon="7.6972514"><ele>228.0</ele><time>2026-04-12T17:46:41.333Z</time></trkpt><trkpt lat="45.1300122" lon="7.6968701"><ele>228.0</ele><time>2026-04-12T17:46:42.325Z</time></trkpt><trkpt lat="45.1299378" lon="7.6964791"><ele>228.0</ele><time>2026-04-12T17:46:43.333Z</time></trkpt><trkpt lat="45.1298663" lon="7.696079"><ele>228.5</ele><time>2026-04-12T17:46:44.33Z</time></trkpt><trkpt lat="45.1297965" lon="7.6956735"><ele>229.0</ele><time>2026-04-12T17:46:45.322Z</time></trkpt><trkpt lat="45.1297309" lon="7.6952653"><ele>230.0</ele><time>2026-04-12T17:46:46.328Z</time></trkpt><trkpt lat="45.1296693" lon="7.6948544"><ele>231.0</ele><time>2026-04-12T17:46:47.332Z</time></trkpt><trkpt lat="45.129609" lon="7.6944376"><ele>230.5</ele><time>2026-04-12T17:46:48.334Z</time></trkpt><trkpt lat="45.1295505" lon="7.6940202"><ele>230.0</ele><time>2026-04-12T17:46:49.319Z</time></trkpt><trkpt lat="45.1294954" lon="7.693601"><ele>229.0</ele><time>2026-04-12T17:46:50.33Z</time></trkpt><trkpt lat="45.1294443" lon="7.6931789"><ele>228.0</ele><time>2026-04-12T17:46:51.324Z</time></trkpt><trkpt lat="45.1293952" lon="7.6927572"><ele>228.5</ele><time>2026-04-12T17:46:52.323Z</time></trkpt><trkpt lat="45.1293497" lon="7.6923351"><ele>229.0</ele><time>2026-04-12T17:46:53.307Z</time></trkpt><trkpt lat="45.1293093" lon="7.6919122"><ele>229.5</ele><time>2026-04-12T17:46:54.315Z</time></trkpt><trkpt lat="45.1292737" lon="7.6914877"><ele>230.0</ele><time>2026-04-12T17:46:55.33Z</time></trkpt><trkpt lat="45.1292423" lon="7.6910628"><ele>230.5</ele><time>2026-04-12T17:46:56.326Z</time></trkpt><trkpt lat="45.1292123" lon="7.6906384"><ele>231.0</ele><time>2026-04-12T17:46:57.321Z</time></trkpt><trkpt lat="45.1291841" lon="7.6902161"><ele>231.0</ele><time>2026-04-12T17:46:58.324Z</time></trkpt><trkpt lat="45.1291561" lon="7.689792"><ele>231.0</ele><time>2026-04-12T17:46:59.328Z</time></trkpt><trkpt lat="45.129127" lon="7.6893671"><ele>230.5</ele><time>2026-04-12T17:47:00.332Z</time></trkpt><trkpt lat="45.1290944" lon="7.688944"><ele>230.0</ele><time>2026-04-12T17:47:01.315Z</time></trkpt><trkpt lat="45.1290597" lon="7.6885206"><ele>230.5</ele><time>2026-04-12T17:47:02.33Z</time></trkpt><trkpt lat="45.1290216" lon="7.6880965"><ele>231.0</ele><time>2026-04-12T17:47:03.328Z</time></trkpt><trkpt lat="45.1289814" lon="7.6876712"><ele>231.0</ele><time>2026-04-12T17:47:04.323Z</time></trkpt><trkpt lat="45.1289417" lon="7.6872466"><ele>231.0</ele><time>2026-04-12T17:47:05.32Z</time></trkpt><trkpt lat="45.1289025" lon="7.6868223"><ele>231.0</ele><time>2026-04-12T17:47:06.333Z</time></trkpt><trkpt lat="45.1288632" lon="7.6863956"><ele>231.0</ele><time>2026-04-12T17:47:07.312Z</time></trkpt><trkpt lat="45.1288255" lon="7.6859677"><ele>229.5</ele><time>2026-04-12T17:47:08.335Z</time></trkpt><trkpt lat="45.1287907" lon="7.6855383"><ele>228.0</ele><time>2026-04-12T17:47:09.322Z</time></trkpt><trkpt lat="45.1287556" lon="7.685107"><ele>227.5</ele><time>2026-04-12T17:47:10.323Z</time></trkpt><trkpt lat="45.128719" lon="7.6846766"><ele>227.0</ele><time>2026-04-12T17:47:11.327Z</time></trkpt><trkpt lat="45.1286838" lon="7.6842452"><ele>228.5</ele><time>2026-04-12T17:47:12.333Z</time></trkpt><trkpt lat="45.1286507" lon="7.6838134"><ele>230.0</ele><time>2026-04-12T17:47:13.327Z</time></trkpt><trkpt lat="45.1286167" lon="7.6833826"><ele>231.0</ele><time>2026-04-12T17:47:14.34Z</time></trkpt><trkpt lat="45.1285804" lon="7.6829553"><ele>232.0</ele><time>2026-04-12T17:47:15.336Z</time></trkpt><trkpt lat="45.1285436" lon="7.6825284"><ele>232.0</ele><time>2026-04-12T17:47:16.324Z</time></trkpt><trkpt lat="45.1285054" lon="7.6821015"><ele>232.0</ele><time>2026-04-12T17:47:17.33Z</time></trkpt><trkpt lat="45.1284677" lon="7.6816761"><ele>230.5</ele><time>2026-04-12T17:47:18.329Z</time></trkpt><trkpt lat="45.1284305" lon="7.6812495"><ele>229.0</ele><time>2026-04-12T17:47:19.335Z</time></trkpt><trkpt lat="45.1283919" lon="7.6808219"><ele>229.0</ele><time>2026-04-12T17:47:20.333Z</time></trkpt><trkpt lat="45.1283546" lon="7.6803944"><ele>229.0</ele><time>2026-04-12T17:47:21.321Z</time></trkpt><trkpt lat="45.1283185" lon="7.6799681"><ele>230.5</ele><time>2026-04-12T17:47:22.326Z</time></trkpt><trkpt lat="45.1282836" lon="7.6795415"><ele>232.0</ele><time>2026-04-12T17:47:23.325Z</time></trkpt><trkpt lat="45.12825" lon="7.6791143"><ele>232.5</ele><time>2026-04-12T17:47:24.332Z</time></trkpt><trkpt lat="45.1282152" lon="7.6786883"><ele>233.0</ele><time>2026-04-12T17:47:25.324Z</time></trkpt><trkpt lat="45.1281787" lon="7.6782618"><ele>232.0</ele><time>2026-04-12T17:47:26.327Z</time></trkpt><trkpt lat="45.1281429" lon="7.6778327"><ele>231.0</ele><time>2026-04-12T17:47:27.321Z</time></trkpt><trkpt lat="45.1281074" lon="7.6774052"><ele>231.0</ele><time>2026-04-12T17:47:28.325Z</time></trkpt><trkpt lat="45.1280757" lon="7.676978"><ele>231.0</ele><time>2026-04-12T17:47:29.331Z</time></trkpt><trkpt lat="45.1280449" lon="7.6765507"><ele>231.0</ele><time>2026-04-12T17:47:30.318Z</time></trkpt><trkpt lat="45.1280144" lon="7.6761221"><ele>231.0</ele><time>2026-04-12T17:47:31.324Z</time></trkpt><trkpt lat="45.1279844" lon="7.6756947"><ele>231.5</ele><time>2026-04-12T17:47:32.324Z</time></trkpt><trkpt lat="45.1279518" lon="7.675269"><ele>232.0</ele><time>2026-04-12T17:47:33.329Z</time></trkpt><trkpt lat="45.1279192" lon="7.6748449"><ele>231.0</ele><time>2026-04-12T17:47:34.327Z</time></trkpt><trkpt lat="45.1278834" lon="7.6744222"><ele>230.0</ele><time>2026-04-12T17:47:35.323Z</time></trkpt><trkpt lat="45.1278471" lon="7.6739996"><ele>231.0</ele><time>2026-04-12T17:47:36.326Z</time></trkpt><trkpt lat="45.127808" lon="7.6735751"><ele>232.0</ele><time>2026-04-12T17:47:37.328Z</time></trkpt><trkpt lat="45.1277669" lon="7.6731517"><ele>234.5</ele><time>2026-04-12T17:47:38.338Z</time></trkpt><trkpt lat="45.1277267" lon="7.6727278"><ele>237.0</ele><time>2026-04-12T17:47:39.32Z</time></trkpt><trkpt lat="45.1276877" lon="7.6723004"><ele>236.0</ele><time>2026-04-12T17:47:40.332Z</time></trkpt><trkpt lat="45.1276506" lon="7.6718733"><ele>235.0</ele><time>2026-04-12T17:47:41.33Z</time></trkpt><trkpt lat="45.1276134" lon="7.6714478"><ele>236.5</ele><time>2026-04-12T17:47:42.322Z</time></trkpt><trkpt lat="45.1275771" lon="7.6710207"><ele>238.0</ele><time>2026-04-12T17:47:43.331Z</time></trkpt><trkpt lat="45.1275423" lon="7.6705939"><ele>237.5</ele><time>2026-04-12T17:47:44.324Z</time></trkpt><trkpt lat="45.12751" lon="7.6701658"><ele>237.0</ele><time>2026-04-12T17:47:45.321Z</time></trkpt><trkpt lat="45.1274765" lon="7.6697351"><ele>237.0</ele><time>2026-04-12T17:47:46.334Z</time></trkpt><trkpt lat="45.1274401" lon="7.6693042"><ele>237.0</ele><time>2026-04-12T17:47:47.327Z</time></trkpt><trkpt lat="45.1274023" lon="7.6688733"><ele>235.5</ele><time>2026-04-12T17:47:48.323Z</time></trkpt><trkpt lat="45.1273652" lon="7.6684412"><ele>234.0</ele><time>2026-04-12T17:47:49.331Z</time></trkpt><trkpt lat="45.1273277" lon="7.6680077"><ele>234.0</ele><time>2026-04-12T17:47:50.326Z</time></trkpt><trkpt lat="45.1272918" lon="7.6675725"><ele>234.0</ele><time>2026-04-12T17:47:51.328Z</time></trkpt><trkpt lat="45.1272553" lon="7.6671382"><ele>235.0</ele><time>2026-04-12T17:47:52.328Z</time></trkpt><trkpt lat="45.1272185" lon="7.6667044"><ele>236.0</ele><time>2026-04-12T17:47:53.337Z</time></trkpt><trkpt lat="45.1271824" lon="7.6662694"><ele>236.5</ele><time>2026-04-12T17:47:54.313Z</time></trkpt><trkpt lat="45.1271475" lon="7.6658341"><ele>237.0</ele><time>2026-04-12T17:47:55.335Z</time></trkpt><trkpt lat="45.1271171" lon="7.6653986"><ele>236.5</ele><time>2026-04-12T17:47:56.328Z</time></trkpt><trkpt lat="45.1270917" lon="7.6649598"><ele>236.0</ele><time>2026-04-12T17:47:57.329Z</time></trkpt><trkpt lat="45.127065" lon="7.6645211"><ele>236.5</ele><time>2026-04-12T17:47:58.33Z</time></trkpt><trkpt lat="45.1270355" lon="7.6640829"><ele>237.0</ele><time>2026-04-12T17:47:59.325Z</time></trkpt><trkpt lat="45.1270012" lon="7.6636429"><ele>237.5</ele><time>2026-04-12T17:48:00.318Z</time></trkpt><trkpt lat="45.1269649" lon="7.663204"><ele>238.0</ele><time>2026-04-12T17:48:01.317Z</time></trkpt><trkpt lat="45.1269279" lon="7.6627648"><ele>238.0</ele><time>2026-04-12T17:48:02.329Z</time></trkpt><trkpt lat="45.1268912" lon="7.662326"><ele>238.0</ele><time>2026-04-12T17:48:03.333Z</time></trkpt><trkpt lat="45.1268534" lon="7.661889"><ele>239.0</ele><time>2026-04-12T17:48:04.328Z</time></trkpt><trkpt lat="45.1268112" lon="7.661452"><ele>240.0</ele><time>2026-04-12T17:48:05.324Z</time></trkpt><trkpt lat="45.1267623" lon="7.6610162"><ele>240.5</ele><time>2026-04-12T17:48:06.33Z</time></trkpt><trkpt lat="45.1267054" lon="7.6605844"><ele>241.0</ele><time>2026-04-12T17:48:07.312Z</time></trkpt><trkpt lat="45.1266321" lon="7.6601583"><ele>241.5</ele><time>2026-04-12T17:48:08.336Z</time></trkpt><trkpt lat="45.1265515" lon="7.6597315"><ele>242.0</ele><time>2026-04-12T17:48:09.329Z</time></trkpt><trkpt lat="45.1264652" lon="7.6593032"><ele>242.0</ele><time>2026-04-12T17:48:10.334Z</time></trkpt><trkpt lat="45.1263733" lon="7.658876"><ele>242.0</ele><time>2026-04-12T17:48:11.325Z</time></trkpt><trkpt lat="45.1262721" lon="7.6584526"><ele>241.5</ele><time>2026-04-12T17:48:12.335Z</time></trkpt><trkpt lat="45.1261595" lon="7.6580322"><ele>241.0</ele><time>2026-04-12T17:48:13.326Z</time></trkpt><trkpt lat="45.1260366" lon="7.6576196"><ele>239.5</ele><time>2026-04-12T17:48:14.323Z</time></trkpt><trkpt lat="45.1259078" lon="7.6572103"><ele>238.0</ele><time>2026-04-12T17:48:15.333Z</time></trkpt><trkpt lat="45.1257725" lon="7.6568064"><ele>238.0</ele><time>2026-04-12T17:48:16.309Z</time></trkpt><trkpt lat="45.1256369" lon="7.6564066"><ele>238.0</ele><time>2026-04-12T17:48:17.328Z</time></trkpt><trkpt lat="45.1255046" lon="7.65601"><ele>237.0</ele><time>2026-04-12T17:48:18.322Z</time></trkpt><trkpt lat="45.125375" lon="7.6556136"><ele>236.0</ele><time>2026-04-12T17:48:19.329Z</time></trkpt><trkpt lat="45.1252471" lon="7.6552178"><ele>235.0</ele><time>2026-04-12T17:48:20.313Z</time></trkpt><trkpt lat="45.1251197" lon="7.6548212"><ele>234.0</ele><time>2026-04-12T17:48:21.324Z</time></trkpt><trkpt lat="45.1249926" lon="7.6544251"><ele>237.5</ele><time>2026-04-12T17:48:22.331Z</time></trkpt><trkpt lat="45.1248688" lon="7.6540273"><ele>241.0</ele><time>2026-04-12T17:48:23.331Z</time></trkpt><trkpt lat="45.1247438" lon="7.6536318"><ele>244.5</ele><time>2026-04-12T17:48:24.332Z</time></trkpt><trkpt lat="45.124621" lon="7.6532366"><ele>248.0</ele><time>2026-04-12T17:48:25.329Z</time></trkpt><trkpt lat="45.1244923" lon="7.6528415"><ele>249.5</ele><time>2026-04-12T17:48:26.333Z</time></trkpt><trkpt lat="45.1243595" lon="7.6524479"><ele>251.0</ele><time>2026-04-12T17:48:27.317Z</time></trkpt><trkpt lat="45.1242325" lon="7.6520605"><ele>251.0</ele><time>2026-04-12T17:48:28.315Z</time></trkpt><trkpt lat="45.1241044" lon="7.651673"><ele>251.0</ele><time>2026-04-12T17:48:29.308Z</time></trkpt><trkpt lat="45.1239741" lon="7.65128"><ele>250.5</ele><time>2026-04-12T17:48:30.321Z</time></trkpt><trkpt lat="45.12385" lon="7.650888"><ele>250.0</ele><time>2026-04-12T17:48:31.326Z</time></trkpt><trkpt lat="45.1237254" lon="7.650497"><ele>251.0</ele><time>2026-04-12T17:48:32.323Z</time></trkpt><trkpt lat="45.1236018" lon="7.6501044"><ele>252.0</ele><time>2026-04-12T17:48:33.333Z</time></trkpt><trkpt lat="45.1234778" lon="7.6497065"><ele>251.0</ele><time>2026-04-12T17:48:34.331Z</time></trkpt><trkpt lat="45.1233547" lon="7.6493064"><ele>250.0</ele><time>2026-04-12T17:48:35.335Z</time></trkpt><trkpt lat="45.1232328" lon="7.6489059"><ele>250.5</ele><time>2026-04-12T17:48:36.332Z</time></trkpt><trkpt lat="45.1231091" lon="7.6485069"><ele>251.0</ele><time>2026-04-12T17:48:37.331Z</time></trkpt><trkpt lat="45.1229863" lon="7.6481089"><ele>253.0</ele><time>2026-04-12T17:48:38.328Z</time></trkpt><trkpt lat="45.1228637" lon="7.6477124"><ele>255.0</ele><time>2026-04-12T17:48:39.311Z</time></trkpt><trkpt lat="45.1227394" lon="7.6473155"><ele>254.0</ele><time>2026-04-12T17:48:40.327Z</time></trkpt><trkpt lat="45.1226176" lon="7.6469173"><ele>253.0</ele><time>2026-04-12T17:48:41.332Z</time></trkpt><trkpt lat="45.1224953" lon="7.6465181"><ele>254.0</ele><time>2026-04-12T17:48:42.329Z</time></trkpt><trkpt lat="45.1223726" lon="7.6461186"><ele>255.0</ele><time>2026-04-12T17:48:43.308Z</time></trkpt><trkpt lat="45.1222496" lon="7.6457281"><ele>255.0</ele><time>2026-04-12T17:48:44.329Z</time></trkpt><trkpt lat="45.1221228" lon="7.6453396"><ele>255.0</ele><time>2026-04-12T17:48:45.325Z</time></trkpt><trkpt lat="45.1219954" lon="7.6449444"><ele>253.0</ele><time>2026-04-12T17:48:46.308Z</time></trkpt><trkpt lat="45.1218639" lon="7.6445457"><ele>251.0</ele><time>2026-04-12T17:48:47.326Z</time></trkpt><trkpt lat="45.1217352" lon="7.6441417"><ele>251.0</ele><time>2026-04-12T17:48:48.321Z</time></trkpt><trkpt lat="45.1216057" lon="7.6437375"><ele>251.0</ele><time>2026-04-12T17:48:49.333Z</time></trkpt><trkpt lat="45.1214805" lon="7.6433302"><ele>252.0</ele><time>2026-04-12T17:48:50.309Z</time></trkpt><trkpt lat="45.1213531" lon="7.6429234"><ele>253.0</ele><time>2026-04-12T17:48:51.328Z</time></trkpt><trkpt lat="45.1212216" lon="7.6425209"><ele>253.0</ele><time>2026-04-12T17:48:52.318Z</time></trkpt><trkpt lat="45.1210895" lon="7.6421212"><ele>253.0</ele><time>2026-04-12T17:48:53.312Z</time></trkpt><trkpt lat="45.1209578" lon="7.6417219"><ele>253.0</ele><time>2026-04-12T17:48:54.327Z</time></trkpt><trkpt lat="45.1208254" lon="7.6413251"><ele>253.0</ele><time>2026-04-12T17:48:55.316Z</time></trkpt><trkpt lat="45.1206911" lon="7.640933"><ele>253.5</ele><time>2026-04-12T17:48:56.312Z</time></trkpt><trkpt lat="45.1205596" lon="7.6405418"><ele>254.0</ele><time>2026-04-12T17:48:57.315Z</time></trkpt><trkpt lat="45.1204307" lon="7.6401497"><ele>254.5</ele><time>2026-04-12T17:48:58.328Z</time></trkpt><trkpt lat="45.1203048" lon="7.6397564"><ele>255.0</ele><time>2026-04-12T17:48:59.316Z</time></trkpt><trkpt lat="45.1201819" lon="7.6393607"><ele>255.0</ele><time>2026-04-12T17:49:00.312Z</time></trkpt><trkpt lat="45.1200602" lon="7.638966"><ele>255.0</ele><time>2026-04-12T17:49:01.325Z</time></trkpt><trkpt lat="45.1199402" lon="7.6385694"><ele>255.5</ele><time>2026-04-12T17:49:02.313Z</time></trkpt><trkpt lat="45.1198191" lon="7.6381692"><ele>256.0</ele><time>2026-04-12T17:49:03.311Z</time></trkpt><trkpt lat="45.1196974" lon="7.6377693"><ele>257.0</ele><time>2026-04-12T17:49:04.32Z</time></trkpt><trkpt lat="45.1195754" lon="7.637373"><ele>258.0</ele><time>2026-04-12T17:49:05.317Z</time></trkpt><trkpt lat="45.1194509" lon="7.6369773"><ele>258.5</ele><time>2026-04-12T17:49:06.323Z</time></trkpt><trkpt lat="45.1193262" lon="7.6365807"><ele>259.0</ele><time>2026-04-12T17:49:07.317Z</time></trkpt><trkpt lat="45.1192002" lon="7.6361831"><ele>260.0</ele><time>2026-04-12T17:49:08.332Z</time></trkpt><trkpt lat="45.1190738" lon="7.6357854"><ele>261.0</ele><time>2026-04-12T17:49:09.326Z</time></trkpt><trkpt lat="45.1189471" lon="7.635388"><ele>259.5</ele><time>2026-04-12T17:49:10.316Z</time></trkpt><trkpt lat="45.118819" lon="7.6349908"><ele>258.0</ele><time>2026-04-12T17:49:11.312Z</time></trkpt><trkpt lat="45.1186915" lon="7.6345943"><ele>259.0</ele><time>2026-04-12T17:49:12.332Z</time></trkpt><trkpt lat="45.118564" lon="7.6341987"><ele>260.0</ele><time>2026-04-12T17:49:13.311Z</time></trkpt><trkpt lat="45.1184377" lon="7.633802"><ele>260.0</ele><time>2026-04-12T17:49:14.313Z</time></trkpt><trkpt lat="45.1183117" lon="7.633403"><ele>260.0</ele><time>2026-04-12T17:49:15.325Z</time></trkpt><trkpt lat="45.1181856" lon="7.6330028"><ele>261.0</ele><time>2026-04-12T17:49:16.32Z</time></trkpt><trkpt lat="45.1180583" lon="7.6326015"><ele>262.0</ele><time>2026-04-12T17:49:17.336Z</time></trkpt><trkpt lat="45.117929" lon="7.6321987"><ele>263.0</ele><time>2026-04-12T17:49:18.322Z</time></trkpt><trkpt lat="45.1177994" lon="7.6317958"><ele>264.0</ele><time>2026-04-12T17:49:19.332Z</time></trkpt><trkpt lat="45.1176695" lon="7.631391"><ele>264.0</ele><time>2026-04-12T17:49:20.328Z</time></trkpt><trkpt lat="45.1175416" lon="7.6309872"><ele>264.0</ele><time>2026-04-12T17:49:21.321Z</time></trkpt><trkpt lat="45.1174152" lon="7.6305845"><ele>264.0</ele><time>2026-04-12T17:49:22.318Z</time></trkpt><trkpt lat="45.1172887" lon="7.6301813"><ele>264.0</ele><time>2026-04-12T17:49:23.327Z</time></trkpt><trkpt lat="45.1171622" lon="7.6297769"><ele>263.5</ele><time>2026-04-12T17:49:24.327Z</time></trkpt><trkpt lat="45.1170365" lon="7.6293746"><ele>263.0</ele><time>2026-04-12T17:49:25.317Z</time></trkpt><trkpt lat="45.1169126" lon="7.6289724"><ele>264.5</ele><time>2026-04-12T17:49:26.316Z</time></trkpt><trkpt lat="45.1167887" lon="7.6285725"><ele>266.0</ele><time>2026-04-12T17:49:27.318Z</time></trkpt><trkpt lat="45.1166638" lon="7.628175"><ele>265.0</ele><time>2026-04-12T17:49:28.327Z</time></trkpt><trkpt lat="45.1165386" lon="7.6277805"><ele>264.0</ele><time>2026-04-12T17:49:29.311Z</time></trkpt><trkpt lat="45.1164118" lon="7.6273877"><ele>264.0</ele><time>2026-04-12T17:49:30.312Z</time></trkpt><trkpt lat="45.1162852" lon="7.6269983"><ele>264.0</ele><time>2026-04-12T17:49:31.325Z</time></trkpt><trkpt lat="45.1161563" lon="7.6266101"><ele>264.0</ele><time>2026-04-12T17:49:32.335Z</time></trkpt><trkpt lat="45.116025" lon="7.6262264"><ele>264.0</ele><time>2026-04-12T17:49:33.325Z</time></trkpt><trkpt lat="45.11589" lon="7.625845"><ele>264.5</ele><time>2026-04-12T17:49:34.323Z</time></trkpt><trkpt lat="45.1157515" lon="7.6254689"><ele>265.0</ele><time>2026-04-12T17:49:35.32Z</time></trkpt><trkpt lat="45.1156085" lon="7.6250977"><ele>264.0</ele><time>2026-04-12T17:49:36.327Z</time></trkpt><trkpt lat="45.1154617" lon="7.6247284"><ele>263.0</ele><time>2026-04-12T17:49:37.33Z</time></trkpt><trkpt lat="45.115312" lon="7.6243605"><ele>265.0</ele><time>2026-04-12T17:49:38.311Z</time></trkpt><trkpt lat="45.1151617" lon="7.6239942"><ele>267.0</ele><time>2026-04-12T17:49:39.332Z</time></trkpt><trkpt lat="45.1150118" lon="7.6236296"><ele>267.0</ele><time>2026-04-12T17:49:40.325Z</time></trkpt><trkpt lat="45.1148585" lon="7.6232655"><ele>267.0</ele><time>2026-04-12T17:49:41.32Z</time></trkpt><trkpt lat="45.1147007" lon="7.6229036"><ele>267.5</ele><time>2026-04-12T17:49:42.308Z</time></trkpt><trkpt lat="45.114538" lon="7.6225448"><ele>268.0</ele><time>2026-04-12T17:49:43.324Z</time></trkpt><trkpt lat="45.1143709" lon="7.6221893"><ele>269.0</ele><time>2026-04-12T17:49:44.312Z</time></trkpt><trkpt lat="45.1142002" lon="7.6218355"><ele>270.0</ele><time>2026-04-12T17:49:45.324Z</time></trkpt><trkpt lat="45.1140271" lon="7.621483"><ele>270.0</ele><time>2026-04-12T17:49:46.33Z</time></trkpt><trkpt lat="45.1138539" lon="7.6211314"><ele>270.0</ele><time>2026-04-12T17:49:47.321Z</time></trkpt><trkpt lat="45.1136814" lon="7.6207774"><ele>270.0</ele><time>2026-04-12T17:49:48.322Z</time></trkpt><trkpt lat="45.1135064" lon="7.6204257"><ele>270.0</ele><time>2026-04-12T17:49:49.311Z</time></trkpt><trkpt lat="45.1133361" lon="7.6200702"><ele>270.0</ele><time>2026-04-12T17:49:50.316Z</time></trkpt><trkpt lat="45.1131658" lon="7.6197145"><ele>270.0</ele><time>2026-04-12T17:49:51.33Z</time></trkpt><trkpt lat="45.1129979" lon="7.6193551"><ele>271.0</ele><time>2026-04-12T17:49:52.326Z</time></trkpt><trkpt lat="45.1128277" lon="7.6189977"><ele>272.0</ele><time>2026-04-12T17:49:53.322Z</time></trkpt><trkpt lat="45.1126555" lon="7.6186399"><ele>272.0</ele><time>2026-04-12T17:49:54.324Z</time></trkpt><trkpt lat="45.1124844" lon="7.6182825"><ele>272.0</ele><time>2026-04-12T17:49:55.322Z</time></trkpt><trkpt lat="45.1123135" lon="7.6179231"><ele>272.5</ele><time>2026-04-12T17:49:56.309Z</time></trkpt><trkpt lat="45.1121436" lon="7.6175642"><ele>273.0</ele><time>2026-04-12T17:49:57.322Z</time></trkpt><trkpt lat="45.1119722" lon="7.6172072"><ele>273.0</ele><time>2026-04-12T17:49:58.325Z</time></trkpt><trkpt lat="45.111802" lon="7.6168488"><ele>273.0</ele><time>2026-04-12T17:49:59.332Z</time></trkpt><trkpt lat="45.1116327" lon="7.6164895"><ele>273.0</ele><time>2026-04-12T17:50:00.311Z</time></trkpt><trkpt lat="45.1114646" lon="7.6161289"><ele>273.0</ele><time>2026-04-12T17:50:01.319Z</time></trkpt><trkpt lat="45.1112956" lon="7.6157693"><ele>273.0</ele><time>2026-04-12T17:50:02.307Z</time></trkpt><trkpt lat="45.1111244" lon="7.6154119"><ele>273.0</ele><time>2026-04-12T17:50:03.322Z</time></trkpt><trkpt lat="45.1109506" lon="7.6150564"><ele>273.0</ele><time>2026-04-12T17:50:04.326Z</time></trkpt><trkpt lat="45.1107773" lon="7.6147014"><ele>273.0</ele><time>2026-04-12T17:50:05.316Z</time></trkpt><trkpt lat="45.1106036" lon="7.6143478"><ele>273.0</ele><time>2026-04-12T17:50:06.32Z</time></trkpt><trkpt lat="45.110429" lon="7.6139934"><ele>273.0</ele><time>2026-04-12T17:50:07.331Z</time></trkpt><trkpt lat="45.1102556" lon="7.6136371"><ele>273.5</ele><time>2026-04-12T17:50:08.319Z</time></trkpt><trkpt lat="45.1100837" lon="7.6132799"><ele>274.0</ele><time>2026-04-12T17:50:09.334Z</time></trkpt><trkpt lat="45.1099108" lon="7.6129225"><ele>274.5</ele><time>2026-04-12T17:50:10.324Z</time></trkpt><trkpt lat="45.1097393" lon="7.6125653"><ele>275.0</ele><time>2026-04-12T17:50:11.332Z</time></trkpt><trkpt lat="45.1095728" lon="7.6122032"><ele>274.0</ele><time>2026-04-12T17:50:12.32Z</time></trkpt><trkpt lat="45.1094086" lon="7.61184"><ele>273.0</ele><time>2026-04-12T17:50:13.331Z</time></trkpt><trkpt lat="45.1092477" lon="7.611474"><ele>272.5</ele><time>2026-04-12T17:50:14.337Z</time></trkpt><trkpt lat="45.1090857" lon="7.6111104"><ele>272.0</ele><time>2026-04-12T17:50:15.32Z</time></trkpt><trkpt lat="45.1089236" lon="7.6107472"><ele>271.5</ele><time>2026-04-12T17:50:16.331Z</time></trkpt><trkpt lat="45.1087577" lon="7.6103875"><ele>271.0</ele><time>2026-04-12T17:50:17.333Z</time></trkpt><trkpt lat="45.1085905" lon="7.6100279"><ele>272.0</ele><time>2026-04-12T17:50:18.329Z</time></trkpt><trkpt lat="45.1084218" lon="7.6096706"><ele>273.0</ele><time>2026-04-12T17:50:19.325Z</time></trkpt><trkpt lat="45.1082509" lon="7.6093208"><ele>273.0</ele><time>2026-04-12T17:50:20.321Z</time></trkpt><trkpt lat="45.1080803" lon="7.6089789"><ele>273.0</ele><time>2026-04-12T17:50:21.337Z</time></trkpt><trkpt lat="45.1079106" lon="7.6086403"><ele>273.0</ele><time>2026-04-12T17:50:22.328Z</time></trkpt><trkpt lat="45.1077474" lon="7.6082986"><ele>273.0</ele><time>2026-04-12T17:50:23.336Z</time></trkpt><trkpt lat="45.1075881" lon="7.6079521"><ele>275.0</ele><time>2026-04-12T17:50:24.324Z</time></trkpt><trkpt lat="45.107431" lon="7.6076045"><ele>277.0</ele><time>2026-04-12T17:50:25.329Z</time></trkpt><trkpt lat="45.10728" lon="7.6072563"><ele>275.0</ele><time>2026-04-12T17:50:26.325Z</time></trkpt><trkpt lat="45.1071323" lon="7.6069075"><ele>273.0</ele><time>2026-04-12T17:50:27.323Z</time></trkpt><trkpt lat="45.1069914" lon="7.6065588"><ele>273.0</ele><time>2026-04-12T17:50:28.322Z</time></trkpt><trkpt lat="45.106853" lon="7.6062095"><ele>273.0</ele><time>2026-04-12T17:50:29.324Z</time></trkpt><trkpt lat="45.1067164" lon="7.6058585"><ele>275.0</ele><time>2026-04-12T17:50:30.334Z</time></trkpt><trkpt lat="45.1065822" lon="7.6055056"><ele>277.0</ele><time>2026-04-12T17:50:31.324Z</time></trkpt><trkpt lat="45.1064473" lon="7.6051483"><ele>277.0</ele><time>2026-04-12T17:50:32.311Z</time></trkpt><trkpt lat="45.1063109" lon="7.6047834"><ele>277.0</ele><time>2026-04-12T17:50:33.329Z</time></trkpt><trkpt lat="45.1061788" lon="7.6044132"><ele>277.0</ele><time>2026-04-12T17:50:34.327Z</time></trkpt><trkpt lat="45.1060502" lon="7.6040396"><ele>277.0</ele><time>2026-04-12T17:50:35.337Z</time></trkpt><trkpt lat="45.1059258" lon="7.6036655"><ele>277.5</ele><time>2026-04-12T17:50:36.308Z</time></trkpt><trkpt lat="45.1058038" lon="7.60329"><ele>278.0</ele><time>2026-04-12T17:50:37.323Z</time></trkpt><trkpt lat="45.1056843" lon="7.6029136"><ele>277.5</ele><time>2026-04-12T17:50:38.322Z</time></trkpt><trkpt lat="45.1055709" lon="7.6025339"><ele>277.0</ele><time>2026-04-12T17:50:39.332Z</time></trkpt><trkpt lat="45.1054624" lon="7.6021479"><ele>277.0</ele><time>2026-04-12T17:50:40.331Z</time></trkpt><trkpt lat="45.1053561" lon="7.6017598"><ele>277.0</ele><time>2026-04-12T17:50:41.324Z</time></trkpt><trkpt lat="45.1052498" lon="7.6013692"><ele>278.0</ele><time>2026-04-12T17:50:42.328Z</time></trkpt><trkpt lat="45.1051429" lon="7.6009794"><ele>279.0</ele><time>2026-04-12T17:50:43.324Z</time></trkpt><trkpt lat="45.105038" lon="7.6005887"><ele>279.0</ele><time>2026-04-12T17:50:44.32Z</time></trkpt><trkpt lat="45.1049331" lon="7.6001981"><ele>279.0</ele><time>2026-04-12T17:50:45.324Z</time></trkpt><trkpt lat="45.1048263" lon="7.5998091"><ele>279.5</ele><time>2026-04-12T17:50:46.321Z</time></trkpt><trkpt lat="45.1047192" lon="7.5994226"><ele>280.0</ele><time>2026-04-12T17:50:47.334Z</time></trkpt><trkpt lat="45.1046116" lon="7.5990387"><ele>281.0</ele><time>2026-04-12T17:50:48.329Z</time></trkpt><trkpt lat="45.1045048" lon="7.5986574"><ele>282.0</ele><time>2026-04-12T17:50:49.333Z</time></trkpt><trkpt lat="45.1043988" lon="7.5982781"><ele>282.0</ele><time>2026-04-12T17:50:50.323Z</time></trkpt><trkpt lat="45.1042964" lon="7.5979018"><ele>282.0</ele><time>2026-04-12T17:50:51.334Z</time></trkpt><trkpt lat="45.1041952" lon="7.5975266"><ele>282.0</ele><time>2026-04-12T17:50:52.328Z</time></trkpt><trkpt lat="45.1040935" lon="7.5971522"><ele>282.0</ele><time>2026-04-12T17:50:53.323Z</time></trkpt><trkpt lat="45.1039932" lon="7.5967797"><ele>282.0</ele><time>2026-04-12T17:50:54.328Z</time></trkpt><trkpt lat="45.1038907" lon="7.5964076"><ele>282.0</ele><time>2026-04-12T17:50:55.312Z</time></trkpt><trkpt lat="45.1037869" lon="7.5960367"><ele>282.0</ele><time>2026-04-12T17:50:56.337Z</time></trkpt><trkpt lat="45.1036833" lon="7.5956707"><ele>282.0</ele><time>2026-04-12T17:50:57.328Z</time></trkpt><trkpt lat="45.1035764" lon="7.5953075"><ele>282.0</ele><time>2026-04-12T17:50:58.331Z</time></trkpt><trkpt lat="45.103468" lon="7.5949466"><ele>282.0</ele><time>2026-04-12T17:50:59.329Z</time></trkpt><trkpt lat="45.103361" lon="7.5945883"><ele>282.5</ele><time>2026-04-12T17:51:00.329Z</time></trkpt><trkpt lat="45.1032574" lon="7.5942298"><ele>283.0</ele><time>2026-04-12T17:51:01.329Z</time></trkpt><trkpt lat="45.1031578" lon="7.5938675"><ele>282.0</ele><time>2026-04-12T17:51:02.331Z</time></trkpt><trkpt lat="45.1030563" lon="7.5935002"><ele>281.0</ele><time>2026-04-12T17:51:03.318Z</time></trkpt><trkpt lat="45.1029548" lon="7.5931305"><ele>282.0</ele><time>2026-04-12T17:51:04.337Z</time></trkpt><trkpt lat="45.102851" lon="7.5927587"><ele>283.0</ele><time>2026-04-12T17:51:05.324Z</time></trkpt><trkpt lat="45.102748" lon="7.5923824"><ele>284.5</ele><time>2026-04-12T17:51:06.332Z</time></trkpt><trkpt lat="45.1026438" lon="7.5920047"><ele>286.0</ele><time>2026-04-12T17:51:07.335Z</time></trkpt><trkpt lat="45.102539" lon="7.5916247"><ele>286.0</ele><time>2026-04-12T17:51:08.332Z</time></trkpt><trkpt lat="45.1024337" lon="7.5912432"><ele>286.0</ele><time>2026-04-12T17:51:09.325Z</time></trkpt><trkpt lat="45.1023276" lon="7.590862"><ele>285.5</ele><time>2026-04-12T17:51:10.312Z</time></trkpt><trkpt lat="45.1022212" lon="7.5904782"><ele>285.0</ele><time>2026-04-12T17:51:11.334Z</time></trkpt><trkpt lat="45.1021131" lon="7.5900943"><ele>284.5</ele><time>2026-04-12T17:51:12.325Z</time></trkpt><trkpt lat="45.1020043" lon="7.5897088"><ele>284.0</ele><time>2026-04-12T17:51:13.331Z</time></trkpt><trkpt lat="45.1018955" lon="7.5893215"><ele>284.0</ele><time>2026-04-12T17:51:14.311Z</time></trkpt><trkpt lat="45.1017875" lon="7.5889354"><ele>284.0</ele><time>2026-04-12T17:51:15.334Z</time></trkpt><trkpt lat="45.1016801" lon="7.5885487"><ele>285.0</ele><time>2026-04-12T17:51:16.317Z</time></trkpt><trkpt lat="45.1015746" lon="7.5881612"><ele>286.0</ele><time>2026-04-12T17:51:17.327Z</time></trkpt><trkpt lat="45.1014675" lon="7.5877766"><ele>286.0</ele><time>2026-04-12T17:51:18.331Z</time></trkpt><trkpt lat="45.1013602" lon="7.5873953"><ele>286.0</ele><time>2026-04-12T17:51:19.325Z</time></trkpt><trkpt lat="45.1012552" lon="7.5870147"><ele>286.5</ele><time>2026-04-12T17:51:20.333Z</time></trkpt><trkpt lat="45.1011551" lon="7.5866297"><ele>287.0</ele><time>2026-04-12T17:51:21.324Z</time></trkpt><trkpt lat="45.1010599" lon="7.5862425"><ele>287.0</ele><time>2026-04-12T17:51:22.338Z</time></trkpt><trkpt lat="45.1009627" lon="7.5858559"><ele>287.0</ele><time>2026-04-12T17:51:23.329Z</time></trkpt><trkpt lat="45.1008636" lon="7.5854718"><ele>287.0</ele><time>2026-04-12T17:51:24.331Z</time></trkpt><trkpt lat="45.1007627" lon="7.5850911"><ele>287.0</ele><time>2026-04-12T17:51:25.309Z</time></trkpt><trkpt lat="45.1006586" lon="7.5847107"><ele>286.5</ele><time>2026-04-12T17:51:26.328Z</time></trkpt><trkpt lat="45.1005533" lon="7.58433"><ele>286.0</ele><time>2026-04-12T17:51:27.328Z</time></trkpt><trkpt lat="45.100449" lon="7.5839477"><ele>287.0</ele><time>2026-04-12T17:51:28.331Z</time></trkpt><trkpt lat="45.100345" lon="7.5835641"><ele>288.0</ele><time>2026-04-12T17:51:29.328Z</time></trkpt><trkpt lat="45.1002405" lon="7.583178"><ele>289.0</ele><time>2026-04-12T17:51:30.326Z</time></trkpt><trkpt lat="45.1001365" lon="7.5827923"><ele>290.0</ele><time>2026-04-12T17:51:31.337Z</time></trkpt><trkpt lat="45.1000304" lon="7.5824061"><ele>290.0</ele><time>2026-04-12T17:51:32.312Z</time></trkpt><trkpt lat="45.0999221" lon="7.5820173"><ele>290.0</ele><time>2026-04-12T17:51:33.324Z</time></trkpt><trkpt lat="45.0998126" lon="7.5816288"><ele>290.0</ele><time>2026-04-12T17:51:34.321Z</time></trkpt><trkpt lat="45.0997038" lon="7.5812408"><ele>290.0</ele><time>2026-04-12T17:51:35.325Z</time></trkpt><trkpt lat="45.0995952" lon="7.5808519"><ele>290.0</ele><time>2026-04-12T17:51:36.325Z</time></trkpt><trkpt lat="45.0994863" lon="7.5804617"><ele>290.0</ele><time>2026-04-12T17:51:37.315Z</time></trkpt><trkpt lat="45.0993787" lon="7.5800691"><ele>291.0</ele><time>2026-04-12T17:51:38.324Z</time></trkpt><trkpt lat="45.0992716" lon="7.5796759"><ele>292.0</ele><time>2026-04-12T17:51:39.324Z</time></trkpt><trkpt lat="45.0991643" lon="7.5792847"><ele>292.0</ele><time>2026-04-12T17:51:40.338Z</time></trkpt><trkpt lat="45.0990558" lon="7.5788949"><ele>292.0</ele><time>2026-04-12T17:51:41.331Z</time></trkpt><trkpt lat="45.0989454" lon="7.5785071"><ele>293.0</ele><time>2026-04-12T17:51:42.313Z</time></trkpt><trkpt lat="45.0988353" lon="7.5781219"><ele>294.0</ele><time>2026-04-12T17:51:43.331Z</time></trkpt><trkpt lat="45.0987239" lon="7.5777385"><ele>294.5</ele><time>2026-04-12T17:51:44.328Z</time></trkpt><trkpt lat="45.09861" lon="7.5773569"><ele>295.0</ele><time>2026-04-12T17:51:45.325Z</time></trkpt><trkpt lat="45.098492" lon="7.5769786"><ele>294.5</ele><time>2026-04-12T17:51:46.324Z</time></trkpt><trkpt lat="45.0983672" lon="7.576607"><ele>294.0</ele><time>2026-04-12T17:51:47.327Z</time></trkpt><trkpt lat="45.0982326" lon="7.576243"><ele>295.0</ele><time>2026-04-12T17:51:48.335Z</time></trkpt><trkpt lat="45.0980873" lon="7.5758887"><ele>296.0</ele><time>2026-04-12T17:51:49.317Z</time></trkpt><trkpt lat="45.0979343" lon="7.5755487"><ele>296.0</ele><time>2026-04-12T17:51:50.314Z</time></trkpt><trkpt lat="45.0977719" lon="7.5752218"><ele>296.0</ele><time>2026-04-12T17:51:51.33Z</time></trkpt><trkpt lat="45.09761" lon="7.5749001"><ele>296.0</ele><time>2026-04-12T17:51:52.314Z</time></trkpt><trkpt lat="45.0974449" lon="7.5745795"><ele>296.0</ele><time>2026-04-12T17:51:53.331Z</time></trkpt><trkpt lat="45.097273" lon="7.5742641"><ele>296.0</ele><time>2026-04-12T17:51:54.319Z</time></trkpt><trkpt lat="45.0970915" lon="7.5739517"><ele>296.0</ele><time>2026-04-12T17:51:55.326Z</time></trkpt><trkpt lat="45.0969003" lon="7.5736385"><ele>296.0</ele><time>2026-04-12T17:51:56.321Z</time></trkpt><trkpt lat="45.096701" lon="7.5733238"><ele>296.0</ele><time>2026-04-12T17:51:57.32Z</time></trkpt><trkpt lat="45.0964954" lon="7.5730111"><ele>297.0</ele><time>2026-04-12T17:51:58.329Z</time></trkpt><trkpt lat="45.0962832" lon="7.572702"><ele>298.0</ele><time>2026-04-12T17:51:59.332Z</time></trkpt><trkpt lat="45.0960646" lon="7.5723992"><ele>298.0</ele><time>2026-04-12T17:52:00.323Z</time></trkpt><trkpt lat="45.095846" lon="7.5721018"><ele>298.0</ele><time>2026-04-12T17:52:01.329Z</time></trkpt><trkpt lat="45.0956274" lon="7.5718127"><ele>297.5</ele><time>2026-04-12T17:52:02.324Z</time></trkpt><trkpt lat="45.0954051" lon="7.57153"><ele>297.0</ele><time>2026-04-12T17:52:03.336Z</time></trkpt><trkpt lat="45.095173" lon="7.5712454"><ele>298.0</ele><time>2026-04-12T17:52:04.316Z</time></trkpt><trkpt lat="45.0949409" lon="7.5709622"><ele>299.0</ele><time>2026-04-12T17:52:05.321Z</time></trkpt><trkpt lat="45.0947135" lon="7.5706775"><ele>299.0</ele><time>2026-04-12T17:52:06.333Z</time></trkpt><trkpt lat="45.094487" lon="7.5703871"><ele>299.0</ele><time>2026-04-12T17:52:07.33Z</time></trkpt><trkpt lat="45.0942627" lon="7.5700943"><ele>300.0</ele><time>2026-04-12T17:52:08.324Z</time></trkpt><trkpt lat="45.0940364" lon="7.5698011"><ele>301.0</ele><time>2026-04-12T17:52:09.325Z</time></trkpt><trkpt lat="45.0938046" lon="7.5695089"><ele>301.5</ele><time>2026-04-12T17:52:10.313Z</time></trkpt><trkpt lat="45.0935692" lon="7.5692197"><ele>302.0</ele><time>2026-04-12T17:52:11.312Z</time></trkpt><trkpt lat="45.0933304" lon="7.5689311"><ele>300.5</ele><time>2026-04-12T17:52:12.327Z</time></trkpt><trkpt lat="45.0930872" lon="7.5686399"><ele>299.0</ele><time>2026-04-12T17:52:13.331Z</time></trkpt><trkpt lat="45.0928456" lon="7.5683449"><ele>299.0</ele><time>2026-04-12T17:52:14.337Z</time></trkpt><trkpt lat="45.0926059" lon="7.5680457"><ele>299.0</ele><time>2026-04-12T17:52:15.33Z</time></trkpt><trkpt lat="45.0923664" lon="7.5677472"><ele>298.0</ele><time>2026-04-12T17:52:16.327Z</time></trkpt><trkpt lat="45.0921263" lon="7.567448"><ele>297.0</ele><time>2026-04-12T17:52:17.325Z</time></trkpt><trkpt lat="45.0918873" lon="7.5671493"><ele>298.0</ele><time>2026-04-12T17:52:18.325Z</time></trkpt><trkpt lat="45.0916498" lon="7.5668519"><ele>299.0</ele><time>2026-04-12T17:52:19.328Z</time></trkpt><trkpt lat="45.0914136" lon="7.5665536"><ele>297.0</ele><time>2026-04-12T17:52:20.328Z</time></trkpt><trkpt lat="45.0911782" lon="7.5662583"><ele>295.0</ele><time>2026-04-12T17:52:21.33Z</time></trkpt><trkpt lat="45.0909428" lon="7.5659647"><ele>293.5</ele><time>2026-04-12T17:52:22.337Z</time></trkpt><trkpt lat="45.0907063" lon="7.5656742"><ele>292.0</ele><time>2026-04-12T17:52:23.335Z</time></trkpt><trkpt lat="45.0904707" lon="7.5653857"><ele>292.5</ele><time>2026-04-12T17:52:24.322Z</time></trkpt><trkpt lat="45.090234" lon="7.5651004"><ele>293.0</ele><time>2026-04-12T17:52:25.329Z</time></trkpt><trkpt lat="45.0899969" lon="7.564815"><ele>293.5</ele><time>2026-04-12T17:52:26.307Z</time></trkpt><trkpt lat="45.089762" lon="7.5645269"><ele>294.0</ele><time>2026-04-12T17:52:27.334Z</time></trkpt><trkpt lat="45.0895301" lon="7.564236"><ele>294.0</ele><time>2026-04-12T17:52:28.324Z</time></trkpt><trkpt lat="45.0893037" lon="7.5639408"><ele>294.0</ele><time>2026-04-12T17:52:29.325Z</time></trkpt><trkpt lat="45.0890806" lon="7.5636406"><ele>293.5</ele><time>2026-04-12T17:52:30.329Z</time></trkpt><trkpt lat="45.0888586" lon="7.5633394"><ele>293.0</ele><time>2026-04-12T17:52:31.329Z</time></trkpt><trkpt lat="45.0886353" lon="7.5630401"><ele>293.0</ele><time>2026-04-12T17:52:32.315Z</time></trkpt><trkpt lat="45.0884113" lon="7.5627436"><ele>293.0</ele><time>2026-04-12T17:52:33.325Z</time></trkpt><trkpt lat="45.0881873" lon="7.5624495"><ele>295.0</ele><time>2026-04-12T17:52:34.334Z</time></trkpt><trkpt lat="45.0879639" lon="7.5621599"><ele>297.0</ele><time>2026-04-12T17:52:35.313Z</time></trkpt><trkpt lat="45.0877401" lon="7.5618721"><ele>297.5</ele><time>2026-04-12T17:52:36.317Z</time></trkpt><trkpt lat="45.0875158" lon="7.5615859"><ele>298.0</ele><time>2026-04-12T17:52:37.314Z</time></trkpt><trkpt lat="45.0872928" lon="7.5613015"><ele>302.0</ele><time>2026-04-12T17:52:38.313Z</time></trkpt><trkpt lat="45.0870689" lon="7.5610167"><ele>306.0</ele><time>2026-04-12T17:52:39.326Z</time></trkpt><trkpt lat="45.0868432" lon="7.560733"><ele>306.0</ele><time>2026-04-12T17:52:40.325Z</time></trkpt><trkpt lat="45.0866174" lon="7.5604505"><ele>306.0</ele><time>2026-04-12T17:52:41.341Z</time></trkpt><trkpt lat="45.0863918" lon="7.5601698"><ele>308.5</ele><time>2026-04-12T17:52:42.319Z</time></trkpt><trkpt lat="45.0861648" lon="7.5598927"><ele>311.0</ele><time>2026-04-12T17:52:43.325Z</time></trkpt><trkpt lat="45.0859378" lon="7.5596188"><ele>313.0</ele><time>2026-04-12T17:52:44.321Z</time></trkpt><trkpt lat="45.0857137" lon="7.5593486"><ele>315.0</ele><time>2026-04-12T17:52:45.323Z</time></trkpt><trkpt lat="45.0854919" lon="7.5590777"><ele>315.0</ele><time>2026-04-12T17:52:46.316Z</time></trkpt><trkpt lat="45.0852749" lon="7.5588026"><ele>315.0</ele><time>2026-04-12T17:52:47.325Z</time></trkpt><trkpt lat="45.0850615" lon="7.5585203"><ele>314.0</ele><time>2026-04-12T17:52:48.311Z</time></trkpt><trkpt lat="45.0848494" lon="7.5582356"><ele>313.0</ele><time>2026-04-12T17:52:49.338Z</time></trkpt><trkpt lat="45.0846325" lon="7.5579502"><ele>312.5</ele><time>2026-04-12T17:52:50.325Z</time></trkpt><trkpt lat="45.0844121" lon="7.5576646"><ele>312.0</ele><time>2026-04-12T17:52:51.33Z</time></trkpt><trkpt lat="45.0841874" lon="7.5573799"><ele>312.5</ele><time>2026-04-12T17:52:52.324Z</time></trkpt><trkpt lat="45.0839612" lon="7.5570911"><ele>313.0</ele><time>2026-04-12T17:52:53.327Z</time></trkpt><trkpt lat="45.0837388" lon="7.5567969"><ele>314.0</ele><time>2026-04-12T17:52:54.323Z</time></trkpt><trkpt lat="45.0835239" lon="7.5564947"><ele>315.0</ele><time>2026-04-12T17:52:55.324Z</time></trkpt><trkpt lat="45.0833178" lon="7.5561867"><ele>316.0</ele><time>2026-04-12T17:52:56.321Z</time></trkpt><trkpt lat="45.0831187" lon="7.5558717"><ele>317.0</ele><time>2026-04-12T17:52:57.328Z</time></trkpt><trkpt lat="45.0829309" lon="7.5555521"><ele>317.0</ele><time>2026-04-12T17:52:58.331Z</time></trkpt><trkpt lat="45.0827511" lon="7.5552291"><ele>317.0</ele><time>2026-04-12T17:52:59.324Z</time></trkpt><trkpt lat="45.0825786" lon="7.5549008"><ele>316.0</ele><time>2026-04-12T17:53:00.338Z</time></trkpt><trkpt lat="45.0824152" lon="7.55456"><ele>315.0</ele><time>2026-04-12T17:53:01.32Z</time></trkpt><trkpt lat="45.0822619" lon="7.5542127"><ele>315.0</ele><time>2026-04-12T17:53:02.334Z</time></trkpt><trkpt lat="45.082117" lon="7.5538557"><ele>315.0</ele><time>2026-04-12T17:53:03.325Z</time></trkpt><trkpt lat="45.0819811" lon="7.553491"><ele>315.5</ele><time>2026-04-12T17:53:04.313Z</time></trkpt><trkpt lat="45.0818523" lon="7.553114"><ele>316.0</ele><time>2026-04-12T17:53:05.325Z</time></trkpt><trkpt lat="45.0817335" lon="7.5527299"><ele>318.0</ele><time>2026-04-12T17:53:06.33Z</time></trkpt><trkpt lat="45.081629" lon="7.5523366"><ele>320.0</ele><time>2026-04-12T17:53:07.332Z</time></trkpt><trkpt lat="45.0815375" lon="7.5519534"><ele>316.0</ele><time>2026-04-12T17:53:08.32Z</time></trkpt><trkpt lat="45.0814527" lon="7.5515848"><ele>312.0</ele><time>2026-04-12T17:53:09.334Z</time></trkpt><trkpt lat="45.0813707" lon="7.5512241"><ele>313.5</ele><time>2026-04-12T17:53:10.326Z</time></trkpt><trkpt lat="45.0812855" lon="7.5508727"><ele>315.0</ele><time>2026-04-12T17:53:11.328Z</time></trkpt><trkpt lat="45.0811927" lon="7.5505404"><ele>317.5</ele><time>2026-04-12T17:53:12.322Z</time></trkpt><trkpt lat="45.0810766" lon="7.5502286"><ele>320.0</ele><time>2026-04-12T17:53:13.325Z</time></trkpt><trkpt lat="45.0809354" lon="7.5499304"><ele>320.0</ele><time>2026-04-12T17:53:14.311Z</time></trkpt><trkpt lat="45.0807702" lon="7.5496533"><ele>320.0</ele><time>2026-04-12T17:53:15.331Z</time></trkpt><trkpt lat="45.0805736" lon="7.5494027"><ele>319.5</ele><time>2026-04-12T17:53:16.321Z</time></trkpt><trkpt lat="45.0803618" lon="7.5491638"><ele>319.0</ele><time>2026-04-12T17:53:17.336Z</time></trkpt><trkpt lat="45.0801401" lon="7.5489552"><ele>320.0</ele><time>2026-04-12T17:53:18.312Z</time></trkpt><trkpt lat="45.0799021" lon="7.5487742"><ele>321.0</ele><time>2026-04-12T17:53:19.327Z</time></trkpt><trkpt lat="45.0796545" lon="7.5486159"><ele>322.0</ele><time>2026-04-12T17:53:20.311Z</time></trkpt><trkpt lat="45.0794015" lon="7.5484842"><ele>323.0</ele><time>2026-04-12T17:53:21.319Z</time></trkpt><trkpt lat="45.0791293" lon="7.5483891"><ele>323.5</ele><time>2026-04-12T17:53:22.324Z</time></trkpt><trkpt lat="45.0788434" lon="7.5483164"><ele>324.0</ele><time>2026-04-12T17:53:23.309Z</time></trkpt><trkpt lat="45.078556" lon="7.5482376"><ele>323.5</ele><time>2026-04-12T17:53:24.338Z</time></trkpt><trkpt lat="45.0782654" lon="7.548155"><ele>323.0</ele><time>2026-04-12T17:53:25.33Z</time></trkpt><trkpt lat="45.0779758" lon="7.5480586"><ele>323.0</ele><time>2026-04-12T17:53:26.328Z</time></trkpt><trkpt lat="45.0776917" lon="7.5479688"><ele>323.0</ele><time>2026-04-12T17:53:27.326Z</time></trkpt><trkpt lat="45.0774201" lon="7.5478813"><ele>325.5</ele><time>2026-04-12T17:53:28.33Z</time></trkpt><trkpt lat="45.077156" lon="7.5477983"><ele>328.0</ele><time>2026-04-12T17:53:29.312Z</time></trkpt><trkpt lat="45.0768974" lon="7.5477175"><ele>328.0</ele><time>2026-04-12T17:53:30.328Z</time></trkpt><trkpt lat="45.0766364" lon="7.5476439"><ele>328.0</ele><time>2026-04-12T17:53:31.325Z</time></trkpt><trkpt lat="45.0763712" lon="7.5475679"><ele>328.0</ele><time>2026-04-12T17:53:32.339Z</time></trkpt><trkpt lat="45.0761008" lon="7.5474867"><ele>328.0</ele><time>2026-04-12T17:53:33.325Z</time></trkpt><trkpt lat="45.0758243" lon="7.5474017"><ele>326.0</ele><time>2026-04-12T17:53:34.314Z</time></trkpt><trkpt lat="45.0755443" lon="7.5473135"><ele>324.0</ele><time>2026-04-12T17:53:35.32Z</time></trkpt><trkpt lat="45.0752606" lon="7.5472251"><ele>324.0</ele><time>2026-04-12T17:53:36.309Z</time></trkpt><trkpt lat="45.074973" lon="7.5471351"><ele>324.0</ele><time>2026-04-12T17:53:37.337Z</time></trkpt><trkpt lat="45.0746831" lon="7.5470434"><ele>325.0</ele><time>2026-04-12T17:53:38.329Z</time></trkpt><trkpt lat="45.0743886" lon="7.5469533"><ele>326.0</ele><time>2026-04-12T17:53:39.322Z</time></trkpt><trkpt lat="45.0740925" lon="7.5468639"><ele>326.0</ele><time>2026-04-12T17:53:40.326Z</time></trkpt><trkpt lat="45.0737943" lon="7.5467704"><ele>326.0</ele><time>2026-04-12T17:53:41.313Z</time></trkpt><trkpt lat="45.0734963" lon="7.5466758"><ele>324.5</ele><time>2026-04-12T17:53:42.326Z</time></trkpt><trkpt lat="45.073198" lon="7.5465778"><ele>323.0</ele><time>2026-04-12T17:53:43.331Z</time></trkpt><trkpt lat="45.0728985" lon="7.5464793"><ele>323.0</ele><time>2026-04-12T17:53:44.335Z</time></trkpt><trkpt lat="45.0725963" lon="7.5463857"><ele>323.0</ele><time>2026-04-12T17:53:45.325Z</time></trkpt><trkpt lat="45.0722914" lon="7.546293"><ele>326.0</ele><time>2026-04-12T17:53:46.319Z</time></trkpt><trkpt lat="45.0719852" lon="7.5461987"><ele>329.0</ele><time>2026-04-12T17:53:47.327Z</time></trkpt><trkpt lat="45.0716806" lon="7.5461022"><ele>327.0</ele><time>2026-04-12T17:53:48.339Z</time></trkpt><trkpt lat="45.0713771" lon="7.5460097"><ele>325.0</ele><time>2026-04-12T17:53:49.336Z</time></trkpt><trkpt lat="45.071077" lon="7.545923"><ele>325.0</ele><time>2026-04-12T17:53:50.323Z</time></trkpt><trkpt lat="45.0707844" lon="7.5458422"><ele>325.0</ele><time>2026-04-12T17:53:51.316Z</time></trkpt><trkpt lat="45.0704939" lon="7.5457644"><ele>325.0</ele><time>2026-04-12T17:53:52.326Z</time></trkpt><trkpt lat="45.0702017" lon="7.5456865"><ele>325.0</ele><time>2026-04-12T17:53:53.314Z</time></trkpt><trkpt lat="45.0699061" lon="7.545605"><ele>324.0</ele><time>2026-04-12T17:53:54.325Z</time></trkpt><trkpt lat="45.0696058" lon="7.5455207"><ele>323.0</ele><time>2026-04-12T17:53:55.319Z</time></trkpt><trkpt lat="45.0692989" lon="7.5454331"><ele>322.5</ele><time>2026-04-12T17:53:56.333Z</time></trkpt><trkpt lat="45.0689871" lon="7.5453438"><ele>322.0</ele><time>2026-04-12T17:53:57.323Z</time></trkpt><trkpt lat="45.0686745" lon="7.5452511"><ele>322.0</ele><time>2026-04-12T17:53:58.324Z</time></trkpt><trkpt lat="45.068362" lon="7.5451556"><ele>322.0</ele><time>2026-04-12T17:53:59.314Z</time></trkpt><trkpt lat="45.0680515" lon="7.5450595"><ele>320.5</ele><time>2026-04-12T17:54:00.312Z</time></trkpt><trkpt lat="45.0677434" lon="7.5449585"><ele>319.0</ele><time>2026-04-12T17:54:01.329Z</time></trkpt><trkpt lat="45.067437" lon="7.5448549"><ele>319.0</ele><time>2026-04-12T17:54:02.311Z</time></trkpt><trkpt lat="45.0671317" lon="7.5447515"><ele>319.0</ele><time>2026-04-12T17:54:03.337Z</time></trkpt><trkpt lat="45.0668291" lon="7.5446464"><ele>320.0</ele><time>2026-04-12T17:54:04.332Z</time></trkpt><trkpt lat="45.0665266" lon="7.5445432"><ele>321.0</ele><time>2026-04-12T17:54:05.311Z</time></trkpt><trkpt lat="45.0662232" lon="7.5444442"><ele>321.0</ele><time>2026-04-12T17:54:06.308Z</time></trkpt><trkpt lat="45.0659174" lon="7.5443519"><ele>321.0</ele><time>2026-04-12T17:54:07.323Z</time></trkpt><trkpt lat="45.0656113" lon="7.5442596"><ele>319.5</ele><time>2026-04-12T17:54:08.328Z</time></trkpt><trkpt lat="45.0653048" lon="7.5441652"><ele>318.0</ele><time>2026-04-12T17:54:09.323Z</time></trkpt><trkpt lat="45.065001" lon="7.5440692"><ele>317.5</ele><time>2026-04-12T17:54:10.329Z</time></trkpt><trkpt lat="45.0646971" lon="7.5439722"><ele>317.0</ele><time>2026-04-12T17:54:11.324Z</time></trkpt><trkpt lat="45.0643943" lon="7.543873"><ele>316.0</ele><time>2026-04-12T17:54:12.332Z</time></trkpt><trkpt lat="45.0640919" lon="7.5437754"><ele>315.0</ele><time>2026-04-12T17:54:13.325Z</time></trkpt><trkpt lat="45.0637863" lon="7.5436766"><ele>315.0</ele><time>2026-04-12T17:54:14.331Z</time></trkpt><trkpt lat="45.0634813" lon="7.5435863"><ele>315.0</ele><time>2026-04-12T17:54:15.33Z</time></trkpt><trkpt lat="45.0631798" lon="7.5435021"><ele>313.5</ele><time>2026-04-12T17:54:16.333Z</time></trkpt><trkpt lat="45.0628789" lon="7.5434227"><ele>312.0</ele><time>2026-04-12T17:54:17.331Z</time></trkpt><trkpt lat="45.0625795" lon="7.5433511"><ele>313.0</ele><time>2026-04-12T17:54:18.328Z</time></trkpt><trkpt lat="45.0622823" lon="7.5432904"><ele>314.0</ele><time>2026-04-12T17:54:19.334Z</time></trkpt><trkpt lat="45.0619834" lon="7.5432519"><ele>314.0</ele><time>2026-04-12T17:54:20.316Z</time></trkpt><trkpt lat="45.0616875" lon="7.543233"><ele>314.0</ele><time>2026-04-12T17:54:21.333Z</time></trkpt><trkpt lat="45.0614016" lon="7.5432339"><ele>313.5</ele><time>2026-04-12T17:54:22.309Z</time></trkpt><trkpt lat="45.0611272" lon="7.5432482"><ele>313.0</ele><time>2026-04-12T17:54:23.332Z</time></trkpt><trkpt lat="45.0608624" lon="7.5432777"><ele>313.5</ele><time>2026-04-12T17:54:24.328Z</time></trkpt><trkpt lat="45.0606003" lon="7.5433234"><ele>314.0</ele><time>2026-04-12T17:54:25.33Z</time></trkpt><trkpt lat="45.0603374" lon="7.5433921"><ele>314.0</ele><time>2026-04-12T17:54:26.333Z</time></trkpt><trkpt lat="45.0600688" lon="7.5434713"><ele>314.0</ele><time>2026-04-12T17:54:27.331Z</time></trkpt><trkpt lat="45.0597927" lon="7.5435706"><ele>315.0</ele><time>2026-04-12T17:54:28.313Z</time></trkpt><trkpt lat="45.0595133" lon="7.5436689"><ele>316.0</ele><time>2026-04-12T17:54:29.329Z</time></trkpt><trkpt lat="45.0592287" lon="7.543764"><ele>313.5</ele><time>2026-04-12T17:54:30.332Z</time></trkpt><trkpt lat="45.0589414" lon="7.5438617"><ele>311.0</ele><time>2026-04-12T17:54:31.327Z</time></trkpt><trkpt lat="45.0586487" lon="7.5439581"><ele>311.0</ele><time>2026-04-12T17:54:32.328Z</time></trkpt><trkpt lat="45.0583518" lon="7.5440514"><ele>311.0</ele><time>2026-04-12T17:54:33.332Z</time></trkpt><trkpt lat="45.0580528" lon="7.5441448"><ele>311.0</ele><time>2026-04-12T17:54:34.333Z</time></trkpt><trkpt lat="45.0577516" lon="7.5442431"><ele>311.0</ele><time>2026-04-12T17:54:35.328Z</time></trkpt><trkpt lat="45.0574506" lon="7.5443437"><ele>310.0</ele><time>2026-04-12T17:54:36.328Z</time></trkpt><trkpt lat="45.0571513" lon="7.5444453"><ele>309.0</ele><time>2026-04-12T17:54:37.324Z</time></trkpt><trkpt lat="45.0568507" lon="7.5445474"><ele>308.0</ele><time>2026-04-12T17:54:38.329Z</time></trkpt><trkpt lat="45.0565527" lon="7.5446487"><ele>307.0</ele><time>2026-04-12T17:54:39.321Z</time></trkpt><trkpt lat="45.0562551" lon="7.5447498"><ele>307.0</ele><time>2026-04-12T17:54:40.329Z</time></trkpt><trkpt lat="45.0559541" lon="7.5448538"><ele>307.0</ele><time>2026-04-12T17:54:41.325Z</time></trkpt><trkpt lat="45.0556549" lon="7.54496"><ele>307.5</ele><time>2026-04-12T17:54:42.32Z</time></trkpt><trkpt lat="45.055357" lon="7.545063"><ele>308.0</ele><time>2026-04-12T17:54:43.321Z</time></trkpt><trkpt lat="45.0550575" lon="7.5451647"><ele>307.5</ele><time>2026-04-12T17:54:44.332Z</time></trkpt><trkpt lat="45.0547551" lon="7.5452639"><ele>307.0</ele><time>2026-04-12T17:54:45.325Z</time></trkpt><trkpt lat="45.0544506" lon="7.5453594"><ele>307.5</ele><time>2026-04-12T17:54:46.337Z</time></trkpt><trkpt lat="45.0541438" lon="7.5454546"><ele>308.0</ele><time>2026-04-12T17:54:47.331Z</time></trkpt><trkpt lat="45.0538341" lon="7.5455509"><ele>308.0</ele><time>2026-04-12T17:54:48.335Z</time></trkpt><trkpt lat="45.0535244" lon="7.5456498"><ele>308.0</ele><time>2026-04-12T17:54:49.326Z</time></trkpt><trkpt lat="45.0532154" lon="7.5457492"><ele>307.5</ele><time>2026-04-12T17:54:50.322Z</time></trkpt><trkpt lat="45.0529087" lon="7.5458509"><ele>307.0</ele><time>2026-04-12T17:54:51.313Z</time></trkpt><trkpt lat="45.0526021" lon="7.5459557"><ele>306.0</ele><time>2026-04-12T17:54:52.33Z</time></trkpt><trkpt lat="45.0522966" lon="7.5460623"><ele>305.0</ele><time>2026-04-12T17:54:53.333Z</time></trkpt><trkpt lat="45.0519917" lon="7.5461695"><ele>305.0</ele><time>2026-04-12T17:54:54.324Z</time></trkpt><trkpt lat="45.0516849" lon="7.5462755"><ele>305.0</ele><time>2026-04-12T17:54:55.335Z</time></trkpt><trkpt lat="45.051379" lon="7.5463815"><ele>305.0</ele><time>2026-04-12T17:54:56.328Z</time></trkpt><trkpt lat="45.0510718" lon="7.5464868"><ele>305.0</ele><time>2026-04-12T17:54:57.322Z</time></trkpt><trkpt lat="45.0507643" lon="7.5465917"><ele>304.5</ele><time>2026-04-12T17:54:58.325Z</time></trkpt><trkpt lat="45.0504572" lon="7.5466976"><ele>304.0</ele><time>2026-04-12T17:54:59.326Z</time></trkpt><trkpt lat="45.0501513" lon="7.5468038"><ele>303.0</ele><time>2026-04-12T17:55:00.33Z</time></trkpt><trkpt lat="45.0498462" lon="7.5469109"><ele>302.0</ele><time>2026-04-12T17:55:01.33Z</time></trkpt><trkpt lat="45.0495407" lon="7.5470181"><ele>301.5</ele><time>2026-04-12T17:55:02.332Z</time></trkpt><trkpt lat="45.0492377" lon="7.5471245"><ele>301.0</ele><time>2026-04-12T17:55:03.316Z</time></trkpt><trkpt lat="45.0489356" lon="7.5472304"><ele>301.0</ele><time>2026-04-12T17:55:04.327Z</time></trkpt><trkpt lat="45.0486331" lon="7.5473348"><ele>301.0</ele><time>2026-04-12T17:55:05.325Z</time></trkpt><trkpt lat="45.0483323" lon="7.5474415"><ele>300.5</ele><time>2026-04-12T17:55:06.324Z</time></trkpt><trkpt lat="45.0480371" lon="7.5475447"><ele>300.0</ele><time>2026-04-12T17:55:07.333Z</time></trkpt><trkpt lat="45.0477502" lon="7.5476466"><ele>300.0</ele><time>2026-04-12T17:55:08.327Z</time></trkpt><trkpt lat="45.0474742" lon="7.5477467"><ele>300.0</ele><time>2026-04-12T17:55:09.333Z</time></trkpt><trkpt lat="45.0472064" lon="7.5478479"><ele>298.0</ele><time>2026-04-12T17:55:10.31Z</time></trkpt><trkpt lat="45.0469488" lon="7.5479502"><ele>296.0</ele><time>2026-04-12T17:55:11.333Z</time></trkpt><trkpt lat="45.0466993" lon="7.5480566"><ele>297.0</ele><time>2026-04-12T17:55:12.331Z</time></trkpt><trkpt lat="45.0464572" lon="7.5481754"><ele>298.0</ele><time>2026-04-12T17:55:13.337Z</time></trkpt><trkpt lat="45.0462235" lon="7.5483111"><ele>298.0</ele><time>2026-04-12T17:55:14.336Z</time></trkpt><trkpt lat="45.0459982" lon="7.548461"><ele>298.0</ele><time>2026-04-12T17:55:15.325Z</time></trkpt><trkpt lat="45.0457763" lon="7.5486184"><ele>297.5</ele><time>2026-04-12T17:55:16.321Z</time></trkpt><trkpt lat="45.0455566" lon="7.5487858"><ele>297.0</ele><time>2026-04-12T17:55:17.337Z</time></trkpt><trkpt lat="45.0453364" lon="7.5489633"><ele>297.0</ele><time>2026-04-12T17:55:18.325Z</time></trkpt><trkpt lat="45.0451164" lon="7.5491526"><ele>297.0</ele><time>2026-04-12T17:55:19.336Z</time></trkpt><trkpt lat="45.0448998" lon="7.5493485"><ele>294.0</ele><time>2026-04-12T17:55:20.327Z</time></trkpt><trkpt lat="45.0446834" lon="7.5495545"><ele>291.0</ele><time>2026-04-12T17:55:21.332Z</time></trkpt><trkpt lat="45.0444669" lon="7.5497714"><ele>291.0</ele><time>2026-04-12T17:55:22.329Z</time></trkpt><trkpt lat="45.044248" lon="7.5499921"><ele>291.0</ele><time>2026-04-12T17:55:23.311Z</time></trkpt><trkpt lat="45.0440266" lon="7.550224"><ele>293.0</ele><time>2026-04-12T17:55:24.326Z</time></trkpt><trkpt lat="45.0438042" lon="7.5504662"><ele>295.0</ele><time>2026-04-12T17:55:25.332Z</time></trkpt><trkpt lat="45.0435839" lon="7.5507266"><ele>295.0</ele><time>2026-04-12T17:55:26.328Z</time></trkpt><trkpt lat="45.0433697" lon="7.5510064"><ele>295.0</ele><time>2026-04-12T17:55:27.332Z</time></trkpt><trkpt lat="45.0431651" lon="7.5513044"><ele>294.5</ele><time>2026-04-12T17:55:28.325Z</time></trkpt><trkpt lat="45.0429687" lon="7.5516107"><ele>294.0</ele><time>2026-04-12T17:55:29.324Z</time></trkpt><trkpt lat="45.042779" lon="7.551929"><ele>295.0</ele><time>2026-04-12T17:55:30.329Z</time></trkpt><trkpt lat="45.0425932" lon="7.5522573"><ele>296.0</ele><time>2026-04-12T17:55:31.334Z</time></trkpt><trkpt lat="45.0424164" lon="7.5525911"><ele>293.5</ele><time>2026-04-12T17:55:32.314Z</time></trkpt><trkpt lat="45.0422451" lon="7.55293"><ele>291.0</ele><time>2026-04-12T17:55:33.334Z</time></trkpt><trkpt lat="45.0420832" lon="7.5532745"><ele>291.0</ele><time>2026-04-12T17:55:34.335Z</time></trkpt><trkpt lat="45.0419306" lon="7.5536272"><ele>291.0</ele><time>2026-04-12T17:55:35.33Z</time></trkpt><trkpt lat="45.0417893" lon="7.5539799"><ele>290.5</ele><time>2026-04-12T17:55:36.335Z</time></trkpt><trkpt lat="45.0416568" lon="7.5543377"><ele>290.0</ele><time>2026-04-12T17:55:37.32Z</time></trkpt><trkpt lat="45.0415355" lon="7.5546991"><ele>290.0</ele><time>2026-04-12T17:55:38.327Z</time></trkpt><trkpt lat="45.0414232" lon="7.5550684"><ele>290.0</ele><time>2026-04-12T17:55:39.322Z</time></trkpt><trkpt lat="45.0413165" lon="7.555441"><ele>290.0</ele><time>2026-04-12T17:55:40.327Z</time></trkpt><trkpt lat="45.0412115" lon="7.5558107"><ele>290.0</ele><time>2026-04-12T17:55:41.322Z</time></trkpt><trkpt lat="45.0411106" lon="7.5561806"><ele>290.0</ele><time>2026-04-12T17:55:42.322Z</time></trkpt><trkpt lat="45.0410115" lon="7.5565534"><ele>290.0</ele><time>2026-04-12T17:55:43.338Z</time></trkpt><trkpt lat="45.040911" lon="7.5569228"><ele>290.0</ele><time>2026-04-12T17:55:44.322Z</time></trkpt><trkpt lat="45.0408095" lon="7.5572862"><ele>290.0</ele><time>2026-04-12T17:55:45.334Z</time></trkpt><trkpt lat="45.0407094" lon="7.5576362"><ele>289.0</ele><time>2026-04-12T17:55:46.319Z</time></trkpt><trkpt lat="45.040612" lon="7.5579691"><ele>288.0</ele><time>2026-04-12T17:55:47.324Z</time></trkpt><trkpt lat="45.0405185" lon="7.5582941"><ele>288.0</ele><time>2026-04-12T17:55:48.311Z</time></trkpt><trkpt lat="45.0404325" lon="7.5586074"><ele>288.0</ele><time>2026-04-12T17:55:49.326Z</time></trkpt><trkpt lat="45.0403474" lon="7.5589088"><ele>288.0</ele><time>2026-04-12T17:55:50.323Z</time></trkpt><trkpt lat="45.0402658" lon="7.5591985"><ele>288.0</ele><time>2026-04-12T17:55:51.312Z</time></trkpt><trkpt lat="45.0401907" lon="7.5594673"><ele>288.0</ele><time>2026-04-12T17:55:52.324Z</time></trkpt><trkpt lat="45.0401217" lon="7.559713"><ele>288.0</ele><time>2026-04-12T17:55:53.327Z</time></trkpt><trkpt lat="45.0400558" lon="7.5599359"><ele>288.0</ele><time>2026-04-12T17:55:54.326Z</time></trkpt><trkpt lat="45.0399904" lon="7.5601405"><ele>288.0</ele><time>2026-04-12T17:55:55.332Z</time></trkpt><trkpt lat="45.0399136" lon="7.560325"><ele>287.5</ele><time>2026-04-12T17:55:56.322Z</time></trkpt><trkpt lat="45.0398202" lon="7.5604895"><ele>287.0</ele><time>2026-04-12T17:55:57.329Z</time></trkpt><trkpt lat="45.0397175" lon="7.5606427"><ele>286.5</ele><time>2026-04-12T17:55:58.313Z</time></trkpt><trkpt lat="45.0396154" lon="7.5607947"><ele>286.0</ele><time>2026-04-12T17:55:59.325Z</time></trkpt><trkpt lat="45.0395277" lon="7.5609402"><ele>286.0</ele><time>2026-04-12T17:56:00.32Z</time></trkpt><trkpt lat="45.0394517" lon="7.5610728"><ele>286.0</ele><time>2026-04-12T17:56:01.333Z</time></trkpt><trkpt lat="45.0393829" lon="7.5611735"><ele>286.0</ele><time>2026-04-12T17:56:02.312Z</time></trkpt><trkpt lat="45.0393128" lon="7.5612452"><ele>286.0</ele><time>2026-04-12T17:56:03.322Z</time></trkpt><trkpt lat="45.0392391" lon="7.5612789"><ele>286.0</ele><time>2026-04-12T17:56:04.332Z</time></trkpt><trkpt lat="45.0391583" lon="7.5612735"><ele>286.0</ele><time>2026-04-12T17:56:05.322Z</time></trkpt><trkpt lat="45.0390775" lon="7.5612341"><ele>286.0</ele><time>2026-04-12T17:56:06.326Z</time></trkpt><trkpt lat="45.0390037" lon="7.5611728"><ele>286.0</ele><time>2026-04-12T17:56:07.313Z</time></trkpt><trkpt lat="45.038922" lon="7.561104"><ele>286.0</ele><time>2026-04-12T17:56:08.32Z</time></trkpt><trkpt lat="45.0388289" lon="7.5610233"><ele>286.0</ele><time>2026-04-12T17:56:09.321Z</time></trkpt><trkpt lat="45.0387345" lon="7.5609352"><ele>286.0</ele><time>2026-04-12T17:56:10.33Z</time></trkpt><trkpt lat="45.0386457" lon="7.5608286"><ele>286.0</ele><time>2026-04-12T17:56:11.312Z</time></trkpt><trkpt lat="45.0385617" lon="7.5607003"><ele>286.0</ele><time>2026-04-12T17:56:12.321Z</time></trkpt><trkpt lat="45.038483" lon="7.5605666"><ele>286.0</ele><time>2026-04-12T17:56:13.325Z</time></trkpt><trkpt lat="45.0383924" lon="7.5604238"><ele>286.0</ele><time>2026-04-12T17:56:14.334Z</time></trkpt><trkpt lat="45.0383023" lon="7.5602826"><ele>286.0</ele><time>2026-04-12T17:56:15.324Z</time></trkpt><trkpt lat="45.0382115" lon="7.5601378"><ele>286.0</ele><time>2026-04-12T17:56:16.308Z</time></trkpt><trkpt lat="45.038111" lon="7.5599902"><ele>286.0</ele><time>2026-04-12T17:56:17.311Z</time></trkpt><trkpt lat="45.0380052" lon="7.5598331"><ele>286.0</ele><time>2026-04-12T17:56:18.318Z</time></trkpt><trkpt lat="45.0378945" lon="7.559666"><ele>286.0</ele><time>2026-04-12T17:56:19.325Z</time></trkpt><trkpt lat="45.037779" lon="7.5594875"><ele>286.0</ele><time>2026-04-12T17:56:20.313Z</time></trkpt><trkpt lat="45.037662" lon="7.5593079"><ele>286.3333333333333</ele><time>2026-04-12T17:56:21.336Z</time></trkpt><trkpt lat="45.0375478" lon="7.5591329"><ele>286.6666666666667</ele><time>2026-04-12T17:56:22.321Z</time></trkpt><trkpt lat="45.0374379" lon="7.5589669"><ele>287.0</ele><time>2026-04-12T17:56:23.33Z</time></trkpt><trkpt lat="45.0373334" lon="7.5588118"><ele>287.0</ele><time>2026-04-12T17:56:24.323Z</time></trkpt><trkpt lat="45.0372353" lon="7.5586646"><ele>287.0</ele><time>2026-04-12T17:56:25.317Z</time></trkpt><trkpt lat="45.037145" lon="7.5585217"><ele>287.0</ele><time>2026-04-12T17:56:26.331Z</time></trkpt><trkpt lat="45.03706" lon="7.5583827"><ele>287.0</ele><time>2026-04-12T17:56:27.325Z</time></trkpt><trkpt lat="45.0369792" lon="7.558252"><ele>287.0</ele><time>2026-04-12T17:56:28.325Z</time></trkpt><trkpt lat="45.0369034" lon="7.558128"><ele>287.0</ele><time>2026-04-12T17:56:29.321Z</time></trkpt><trkpt lat="45.0368304" lon="7.5580052"><ele>287.0</ele><time>2026-04-12T17:56:30.324Z</time></trkpt><trkpt lat="45.0367573" lon="7.5578842"><ele>287.0</ele><time>2026-04-12T17:56:31.329Z</time></trkpt><trkpt lat="45.0366816" lon="7.5577608"><ele>286.75</ele><time>2026-04-12T17:56:32.314Z</time></trkpt><trkpt lat="45.0365994" lon="7.557631"><ele>286.5</ele><time>2026-04-12T17:56:33.326Z</time></trkpt><trkpt lat="45.036513" lon="7.5575039"><ele>286.25</ele><time>2026-04-12T17:56:34.318Z</time></trkpt><trkpt lat="45.0364291" lon="7.5573788"><ele>286.0</ele><time>2026-04-12T17:56:35.33Z</time></trkpt><trkpt lat="45.0363479" lon="7.557256"><ele>286.0</ele><time>2026-04-12T17:56:36.313Z</time></trkpt><trkpt lat="45.0362678" lon="7.5571323"><ele>286.0</ele><time>2026-04-12T17:56:37.322Z</time></trkpt><trkpt lat="45.0361894" lon="7.5570104"><ele>286.0</ele><time>2026-04-12T17:56:38.326Z</time></trkpt><trkpt lat="45.0361139" lon="7.5568924"><ele>286.0</ele><time>2026-04-12T17:56:39.314Z</time></trkpt><trkpt lat="45.0360403" lon="7.5567793"><ele>285.66666666666663</ele><time>2026-04-12T17:56:40.328Z</time></trkpt><trkpt lat="45.035969" lon="7.5566694"><ele>285.3333333333333</ele><time>2026-04-12T17:56:41.326Z</time></trkpt><trkpt lat="45.0359016" lon="7.5565687"><ele>285.0</ele><time>2026-04-12T17:56:42.325Z</time></trkpt><trkpt lat="45.0358425" lon="7.5564816"><ele>284.6666666666667</ele><time>2026-04-12T17:56:43.325Z</time></trkpt><trkpt lat="45.0357939" lon="7.5564116"><ele>284.33333333333337</ele><time>2026-04-12T17:56:44.313Z</time></trkpt><trkpt lat="45.0357333" lon="7.5563466"><ele>284.0</ele><time>2026-04-12T17:56:46.324Z</time></trkpt><trkpt lat="45.0356388" lon="7.5564002"><ele>283.8</ele><time>2026-04-12T17:56:49.325Z</time></trkpt><trkpt lat="45.0355901" lon="7.5564675"><ele>283.59999999999997</ele><time>2026-04-12T17:56:50.321Z</time></trkpt><trkpt lat="45.0355267" lon="7.5565551"><ele>283.4</ele><time>2026-04-12T17:56:51.341Z</time></trkpt><trkpt lat="45.0354539" lon="7.5566489"><ele>283.2</ele><time>2026-04-12T17:56:52.327Z</time></trkpt><trkpt lat="45.0353784" lon="7.5567398"><ele>283.0</ele><time>2026-04-12T17:56:53.32Z</time></trkpt><trkpt lat="45.0352993" lon="7.5568428"><ele>283.0</ele><time>2026-04-12T17:56:54.332Z</time></trkpt><trkpt lat="45.0352111" lon="7.5569591"><ele>283.0</ele><time>2026-04-12T17:56:55.321Z</time></trkpt><trkpt lat="45.0351167" lon="7.5570879"><ele>283.0</ele><time>2026-04-12T17:56:56.315Z</time></trkpt><trkpt lat="45.03502" lon="7.5572229"><ele>283.0</ele><time>2026-04-12T17:56:57.328Z</time></trkpt><trkpt lat="45.0349178" lon="7.5573529"><ele>282.25</ele><time>2026-04-12T17:56:58.327Z</time></trkpt><trkpt lat="45.0348181" lon="7.5574774"><ele>281.5</ele><time>2026-04-12T17:56:59.328Z</time></trkpt><trkpt lat="45.0347212" lon="7.5576021"><ele>280.75</ele><time>2026-04-12T17:57:00.313Z</time></trkpt><trkpt lat="45.0346271" lon="7.5577251"><ele>280.0</ele><time>2026-04-12T17:57:01.322Z</time></trkpt><trkpt lat="45.0345296" lon="7.5578442"><ele>280.75</ele><time>2026-04-12T17:57:02.33Z</time></trkpt><trkpt lat="45.0344326" lon="7.5579656"><ele>281.5</ele><time>2026-04-12T17:57:03.331Z</time></trkpt><trkpt lat="45.034337" lon="7.5580795"><ele>282.25</ele><time>2026-04-12T17:57:04.324Z</time></trkpt><trkpt lat="45.0342463" lon="7.5581894"><ele>283.0</ele><time>2026-04-12T17:57:05.322Z</time></trkpt><trkpt lat="45.0341601" lon="7.5582975"><ele>282.4</ele><time>2026-04-12T17:57:06.315Z</time></trkpt><trkpt lat="45.0340775" lon="7.5584038"><ele>281.8</ele><time>2026-04-12T17:57:07.31Z</time></trkpt><trkpt lat="45.0339987" lon="7.5585071"><ele>281.2</ele><time>2026-04-12T17:57:08.322Z</time></trkpt><trkpt lat="45.0339233" lon="7.558604"><ele>280.6</ele><time>2026-04-12T17:57:09.313Z</time></trkpt><trkpt lat="45.0338484" lon="7.5586953"><ele>280.0</ele><time>2026-04-12T17:57:10.329Z</time></trkpt><trkpt lat="45.0337791" lon="7.558781"><ele>280.0</ele><time>2026-04-12T17:57:11.326Z</time></trkpt><trkpt lat="45.0337208" lon="7.5588603"><ele>280.0</ele><time>2026-04-12T17:57:12.31Z</time></trkpt><trkpt lat="45.0336693" lon="7.5589271"><ele>280.0</ele><time>2026-04-12T17:57:13.324Z</time></trkpt><trkpt lat="45.0335682" lon="7.5589779"><ele>280.0</ele><time>2026-04-12T17:57:15.332Z</time></trkpt><trkpt lat="45.0334655" lon="7.5589079"><ele>280.0</ele><time>2026-04-12T17:57:17.328Z</time></trkpt><trkpt lat="45.0333569" lon="7.5588699"><ele>279.75</ele><time>2026-04-12T17:57:19.326Z</time></trkpt><trkpt lat="45.0332462" lon="7.5590083"><ele>279.5</ele><time>2026-04-12T17:57:21.321Z</time></trkpt><trkpt lat="45.0331785" lon="7.5591299"><ele>279.25</ele><time>2026-04-12T17:57:22.318Z</time></trkpt><trkpt lat="45.0330974" lon="7.5592589"><ele>279.0</ele><time>2026-04-12T17:57:23.313Z</time></trkpt><trkpt lat="45.0330052" lon="7.5593917"><ele>279.0</ele><time>2026-04-12T17:57:24.327Z</time></trkpt><trkpt lat="45.0329116" lon="7.5595178"><ele>279.0</ele><time>2026-04-12T17:57:25.33Z</time></trkpt><trkpt lat="45.0328191" lon="7.5596346"><ele>279.0</ele><time>2026-04-12T17:57:26.327Z</time></trkpt><trkpt lat="45.0327313" lon="7.5597449"><ele>279.0</ele><time>2026-04-12T17:57:27.33Z</time></trkpt><trkpt lat="45.0326451" lon="7.559852"><ele>278.8</ele><time>2026-04-12T17:57:28.341Z</time></trkpt><trkpt lat="45.0325618" lon="7.5599543"><ele>278.59999999999997</ele><time>2026-04-12T17:57:29.318Z</time></trkpt><trkpt lat="45.0324804" lon="7.5600517"><ele>278.4</ele><time>2026-04-12T17:57:30.323Z</time></trkpt><trkpt lat="45.0323986" lon="7.5601397"><ele>278.2</ele><time>2026-04-12T17:57:31.336Z</time></trkpt><trkpt lat="45.0323144" lon="7.5602109"><ele>278.0</ele><time>2026-04-12T17:57:32.328Z</time></trkpt><trkpt lat="45.0322319" lon="7.5602557"><ele>277.6666666666667</ele><time>2026-04-12T17:57:33.319Z</time></trkpt><trkpt lat="45.0321472" lon="7.560279"><ele>277.33333333333337</ele><time>2026-04-12T17:57:34.31Z</time></trkpt><trkpt lat="45.0320622" lon="7.5602785"><ele>277.0</ele><time>2026-04-12T17:57:35.327Z</time></trkpt><trkpt lat="45.031975" lon="7.5602596"><ele>276.6666666666667</ele><time>2026-04-12T17:57:36.322Z</time></trkpt><trkpt lat="45.0318887" lon="7.5602401"><ele>276.3333333333333</ele><time>2026-04-12T17:57:37.334Z</time></trkpt><trkpt lat="45.0318075" lon="7.5602224"><ele>276.0</ele><time>2026-04-12T17:57:38.329Z</time></trkpt><trkpt lat="45.0317387" lon="7.5602007"><ele>276.0</ele><time>2026-04-12T17:57:39.322Z</time></trkpt><trkpt lat="45.0316501" lon="7.5601245"><ele>276.0</ele><time>2026-04-12T17:57:41.328Z</time></trkpt><trkpt lat="45.0316406" lon="7.5599678"><ele>276.0</ele><time>2026-04-12T17:57:43.319Z</time></trkpt><trkpt lat="45.0316558" lon="7.5598446"><ele>276.0</ele><time>2026-04-12T17:57:44.334Z</time></trkpt><trkpt lat="45.0316791" lon="7.5596941"><ele>276.0</ele><time>2026-04-12T17:57:45.332Z</time></trkpt><trkpt lat="45.0316932" lon="7.5595261"><ele>276.5</ele><time>2026-04-12T17:57:46.326Z</time></trkpt><trkpt lat="45.0317089" lon="7.5593431"><ele>277.0</ele><time>2026-04-12T17:57:47.329Z</time></trkpt><trkpt lat="45.0317227" lon="7.5591325"><ele>277.5</ele><time>2026-04-12T17:57:48.323Z</time></trkpt><trkpt lat="45.0317314" lon="7.5589145"><ele>278.0</ele><time>2026-04-12T17:57:49.327Z</time></trkpt><trkpt lat="45.0317405" lon="7.5586921"><ele>279.33333333333337</ele><time>2026-04-12T17:57:50.327Z</time></trkpt><trkpt lat="45.0317518" lon="7.558468"><ele>280.6666666666667</ele><time>2026-04-12T17:57:51.329Z</time></trkpt><trkpt lat="45.0317661" lon="7.5582372"><ele>282.0</ele><time>2026-04-12T17:57:52.322Z</time></trkpt><trkpt lat="45.031777" lon="7.5580006"><ele>282.3333333333333</ele><time>2026-04-12T17:57:53.326Z</time></trkpt><trkpt lat="45.0317899" lon="7.5577539"><ele>282.66666666666663</ele><time>2026-04-12T17:57:54.327Z</time></trkpt><trkpt lat="45.0318058" lon="7.5574977"><ele>283.0</ele><time>2026-04-12T17:57:55.33Z</time></trkpt><trkpt lat="45.031826" lon="7.5572337"><ele>282.66666666666663</ele><time>2026-04-12T17:57:56.325Z</time></trkpt><trkpt lat="45.0318506" lon="7.5569687"><ele>282.3333333333333</ele><time>2026-04-12T17:57:57.329Z</time></trkpt><trkpt lat="45.0318742" lon="7.5567157"><ele>282.0</ele><time>2026-04-12T17:57:58.322Z</time></trkpt><trkpt lat="45.0318955" lon="7.5564736"><ele>282.0</ele><time>2026-04-12T17:57:59.328Z</time></trkpt><trkpt lat="45.031914" lon="7.5562493"><ele>282.0</ele><time>2026-04-12T17:58:00.316Z</time></trkpt><trkpt lat="45.0319307" lon="7.556037"><ele>282.0</ele><time>2026-04-12T17:58:01.328Z</time></trkpt><trkpt lat="45.031946" lon="7.5558329"><ele>282.25</ele><time>2026-04-12T17:58:02.326Z</time></trkpt><trkpt lat="45.0319607" lon="7.5556391"><ele>282.5</ele><time>2026-04-12T17:58:03.32Z</time></trkpt><trkpt lat="45.0319737" lon="7.5554545"><ele>282.75</ele><time>2026-04-12T17:58:04.326Z</time></trkpt><trkpt lat="45.0319873" lon="7.555282"><ele>283.0</ele><time>2026-04-12T17:58:05.329Z</time></trkpt><trkpt lat="45.0320044" lon="7.5551245"><ele>283.0</ele><time>2026-04-12T17:58:06.328Z</time></trkpt><trkpt lat="45.0320298" lon="7.5549849"><ele>283.0</ele><time>2026-04-12T17:58:07.326Z</time></trkpt><trkpt lat="45.0320707" lon="7.5548559"><ele>283.0</ele><time>2026-04-12T17:58:08.327Z</time></trkpt><trkpt lat="45.0321202" lon="7.5547453"><ele>283.0</ele><time>2026-04-12T17:58:09.31Z</time></trkpt><trkpt lat="45.0321814" lon="7.5546433"><ele>283.0</ele><time>2026-04-12T17:58:10.31Z</time></trkpt><trkpt lat="45.0322499" lon="7.5545512"><ele>282.5</ele><time>2026-04-12T17:58:11.31Z</time></trkpt><trkpt lat="45.0323228" lon="7.554466"><ele>282.0</ele><time>2026-04-12T17:58:12.326Z</time></trkpt><trkpt lat="45.0323824" lon="7.554378"><ele>281.5</ele><time>2026-04-12T17:58:13.32Z</time></trkpt><trkpt lat="45.0324299" lon="7.5542809"><ele>281.0</ele><time>2026-04-12T17:58:14.322Z</time></trkpt><trkpt lat="45.0324442" lon="7.5541772"><ele>280.5</ele><time>2026-04-12T17:58:15.32Z</time></trkpt><trkpt lat="45.0324211" lon="7.5540709"><ele>280.0</ele><time>2026-04-12T17:58:16.322Z</time></trkpt><trkpt lat="45.0323654" lon="7.5539709"><ele>280.0</ele><time>2026-04-12T17:58:17.318Z</time></trkpt><trkpt lat="45.0322841" lon="7.5538791"><ele>280.0</ele><time>2026-04-12T17:58:18.326Z</time></trkpt><trkpt lat="45.0321929" lon="7.5538225"><ele>280.0</ele><time>2026-04-12T17:58:19.336Z</time></trkpt><trkpt lat="45.0320884" lon="7.553817"><ele>280.0</ele><time>2026-04-12T17:58:20.325Z</time></trkpt><trkpt lat="45.0319889" lon="7.553856"><ele>280.0</ele><time>2026-04-12T17:58:21.325Z</time></trkpt><trkpt lat="45.0318922" lon="7.5539194"><ele>280.0</ele><time>2026-04-12T17:58:22.333Z</time></trkpt><trkpt lat="45.0317979" lon="7.5539911"><ele>280.0</ele><time>2026-04-12T17:58:23.31Z</time></trkpt><trkpt lat="45.0317079" lon="7.5540393"><ele>280.0</ele><time>2026-04-12T17:58:24.324Z</time></trkpt><trkpt lat="45.0316062" lon="7.5540577"><ele>280.0</ele><time>2026-04-12T17:58:25.331Z</time></trkpt><trkpt lat="45.031512" lon="7.5540217"><ele>280.0</ele><time>2026-04-12T17:58:26.328Z</time></trkpt><trkpt lat="45.0313917" lon="7.5539789"><ele>280.25</ele><time>2026-04-12T17:58:27.325Z</time></trkpt><trkpt lat="45.0312704" lon="7.5539106"><ele>280.5</ele><time>2026-04-12T17:58:28.334Z</time></trkpt><trkpt lat="45.0311445" lon="7.553845"><ele>280.75</ele><time>2026-04-12T17:58:29.337Z</time></trkpt><trkpt lat="45.031019" lon="7.5537846"><ele>281.0</ele><time>2026-04-12T17:58:30.319Z</time></trkpt><trkpt lat="45.0308982" lon="7.5537285"><ele>280.75</ele><time>2026-04-12T17:58:31.333Z</time></trkpt><trkpt lat="45.0307777" lon="7.5536835"><ele>280.5</ele><time>2026-04-12T17:58:32.327Z</time></trkpt><trkpt lat="45.0306633" lon="7.5536395"><ele>280.25</ele><time>2026-04-12T17:58:33.322Z</time></trkpt><trkpt lat="45.0305505" lon="7.5535977"><ele>280.0</ele><time>2026-04-12T17:58:34.335Z</time></trkpt><trkpt lat="45.0304385" lon="7.5535528"><ele>280.0</ele><time>2026-04-12T17:58:35.328Z</time></trkpt><trkpt lat="45.0303249" lon="7.5535121"><ele>280.0</ele><time>2026-04-12T17:58:36.332Z</time></trkpt><trkpt lat="45.0302096" lon="7.5534681"><ele>280.0</ele><time>2026-04-12T17:58:37.329Z</time></trkpt><trkpt lat="45.030092" lon="7.5534201"><ele>280.0</ele><time>2026-04-12T17:58:38.321Z</time></trkpt><trkpt lat="45.0299711" lon="7.5533713"><ele>280.75</ele><time>2026-04-12T17:58:39.323Z</time></trkpt><trkpt lat="45.0298462" lon="7.553326"><ele>281.5</ele><time>2026-04-12T17:58:40.331Z</time></trkpt><trkpt lat="45.029719" lon="7.5532791"><ele>282.25</ele><time>2026-04-12T17:58:41.334Z</time></trkpt><trkpt lat="45.0295887" lon="7.5532276"><ele>283.0</ele><time>2026-04-12T17:58:42.309Z</time></trkpt><trkpt lat="45.0294577" lon="7.5531719"><ele>283.0</ele><time>2026-04-12T17:58:43.33Z</time></trkpt><trkpt lat="45.0293273" lon="7.5531173"><ele>283.0</ele><time>2026-04-12T17:58:44.319Z</time></trkpt><trkpt lat="45.0291945" lon="7.5530611"><ele>283.0</ele><time>2026-04-12T17:58:45.314Z</time></trkpt><trkpt lat="45.0290578" lon="7.5530064"><ele>283.0</ele><time>2026-04-12T17:58:46.311Z</time></trkpt><trkpt lat="45.0289216" lon="7.5529506"><ele>283.25</ele><time>2026-04-12T17:58:47.311Z</time></trkpt><trkpt lat="45.0287831" lon="7.5528951"><ele>283.5</ele><time>2026-04-12T17:58:48.317Z</time></trkpt><trkpt lat="45.0286456" lon="7.5528396"><ele>283.75</ele><time>2026-04-12T17:58:49.308Z</time></trkpt><trkpt lat="45.0285099" lon="7.5527841"><ele>284.0</ele><time>2026-04-12T17:58:50.315Z</time></trkpt><trkpt lat="45.0283727" lon="7.5527306"><ele>283.5</ele><time>2026-04-12T17:58:51.308Z</time></trkpt><trkpt lat="45.0282361" lon="7.5526748"><ele>283.0</ele><time>2026-04-12T17:58:52.314Z</time></trkpt><trkpt lat="45.0280978" lon="7.5526178"><ele>282.5</ele><time>2026-04-12T17:58:53.316Z</time></trkpt><trkpt lat="45.0279563" lon="7.5525607"><ele>282.0</ele><time>2026-04-12T17:58:54.329Z</time></trkpt><trkpt lat="45.0278137" lon="7.5525026"><ele>282.0</ele><time>2026-04-12T17:58:55.323Z</time></trkpt><trkpt lat="45.0276731" lon="7.5524467"><ele>282.0</ele><time>2026-04-12T17:58:56.326Z</time></trkpt><trkpt lat="45.0275343" lon="7.5523894"><ele>282.0</ele><time>2026-04-12T17:58:57.32Z</time></trkpt><trkpt lat="45.0274" lon="7.5523352"><ele>282.0</ele><time>2026-04-12T17:58:58.311Z</time></trkpt><trkpt lat="45.0272724" lon="7.5522831"><ele>279.5</ele><time>2026-04-12T17:58:59.326Z</time></trkpt><trkpt lat="45.027148" lon="7.5522332"><ele>277.0</ele><time>2026-04-12T17:59:00.318Z</time></trkpt><trkpt lat="45.0270279" lon="7.5521853"><ele>274.5</ele><time>2026-04-12T17:59:01.31Z</time></trkpt><trkpt lat="45.0269122" lon="7.5521397"><ele>272.0</ele><time>2026-04-12T17:59:02.311Z</time></trkpt><trkpt lat="45.0268" lon="7.5520976"><ele>272.0</ele><time>2026-04-12T17:59:03.325Z</time></trkpt><trkpt lat="45.0266941" lon="7.5520571"><ele>272.0</ele><time>2026-04-12T17:59:04.331Z</time></trkpt><trkpt lat="45.0265959" lon="7.5520106"><ele>272.0</ele><time>2026-04-12T17:59:05.319Z</time></trkpt><trkpt lat="45.0265121" lon="7.5519606"><ele>272.0</ele><time>2026-04-12T17:59:06.32Z</time></trkpt><trkpt lat="45.026451" lon="7.5519018"><ele>272.0</ele><time>2026-04-12T17:59:07.325Z</time></trkpt><trkpt lat="45.0263839" lon="7.5517529"><ele>271.1666666666667</ele><time>2026-04-12T17:59:09.313Z</time></trkpt><trkpt lat="45.0263546" lon="7.5516627"><ele>270.33333333333337</ele><time>2026-04-12T17:59:10.319Z</time></trkpt><trkpt lat="45.0263061" lon="7.551571"><ele>269.5</ele><time>2026-04-12T17:59:11.323Z</time></trkpt><trkpt lat="45.0262332" lon="7.5514979"><ele>268.6666666666667</ele><time>2026-04-12T17:59:12.317Z</time></trkpt><trkpt lat="45.0261409" lon="7.5514589"><ele>267.8333333333333</ele><time>2026-04-12T17:59:13.328Z</time></trkpt><trkpt lat="45.0260359" lon="7.5514649"><ele>267.0</ele><time>2026-04-12T17:59:14.319Z</time></trkpt><trkpt lat="45.0259215" lon="7.5515142"><ele>267.0</ele><time>2026-04-12T17:59:15.33Z</time></trkpt><trkpt lat="45.0258082" lon="7.551589"><ele>267.0</ele><time>2026-04-12T17:59:16.318Z</time></trkpt><trkpt lat="45.0257054" lon="7.5516714"><ele>267.0</ele><time>2026-04-12T17:59:17.326Z</time></trkpt><trkpt lat="45.0255979" lon="7.5517276"><ele>267.0</ele><time>2026-04-12T17:59:18.324Z</time></trkpt><trkpt lat="45.0254817" lon="7.5517534"><ele>267.0</ele><time>2026-04-12T17:59:19.312Z</time></trkpt><trkpt lat="45.0253588" lon="7.5517354"><ele>267.0</ele><time>2026-04-12T17:59:20.338Z</time></trkpt><trkpt lat="45.0252239" lon="7.551701"><ele>267.0</ele><time>2026-04-12T17:59:21.327Z</time></trkpt><trkpt lat="45.0250817" lon="7.551664"><ele>267.0</ele><time>2026-04-12T17:59:22.314Z</time></trkpt><trkpt lat="45.0249363" lon="7.5516319"><ele>266.75</ele><time>2026-04-12T17:59:23.333Z</time></trkpt><trkpt lat="45.0247958" lon="7.5516057"><ele>266.5</ele><time>2026-04-12T17:59:24.325Z</time></trkpt><trkpt lat="45.0246537" lon="7.5515917"><ele>266.25</ele><time>2026-04-12T17:59:25.336Z</time></trkpt><trkpt lat="45.0245104" lon="7.5515883"><ele>266.0</ele><time>2026-04-12T17:59:26.33Z</time></trkpt><trkpt lat="45.0243671" lon="7.5515896"><ele>266.0</ele><time>2026-04-12T17:59:27.331Z</time></trkpt><trkpt lat="45.0242236" lon="7.5515947"><ele>266.0</ele><time>2026-04-12T17:59:28.323Z</time></trkpt><trkpt lat="45.0240836" lon="7.5516077"><ele>266.0</ele><time>2026-04-12T17:59:29.325Z</time></trkpt><trkpt lat="45.0239437" lon="7.5516246"><ele>266.0</ele><time>2026-04-12T17:59:30.327Z</time></trkpt><trkpt lat="45.0238064" lon="7.5516486"><ele>264.5</ele><time>2026-04-12T17:59:31.331Z</time></trkpt><trkpt lat="45.0236706" lon="7.5516784"><ele>263.0</ele><time>2026-04-12T17:59:32.331Z</time></trkpt><trkpt lat="45.0235346" lon="7.5517117"><ele>261.5</ele><time>2026-04-12T17:59:33.317Z</time></trkpt><trkpt lat="45.0233978" lon="7.5517445"><ele>260.0</ele><time>2026-04-12T17:59:34.329Z</time></trkpt><trkpt lat="45.0232606" lon="7.5517774"><ele>260.0</ele><time>2026-04-12T17:59:35.318Z</time></trkpt><trkpt lat="45.0231245" lon="7.5518095"><ele>260.0</ele><time>2026-04-12T17:59:36.327Z</time></trkpt><trkpt lat="45.0229882" lon="7.5518428"><ele>260.0</ele><time>2026-04-12T17:59:37.329Z</time></trkpt><trkpt lat="45.0228523" lon="7.5518767"><ele>260.0</ele><time>2026-04-12T17:59:38.33Z</time></trkpt><trkpt lat="45.022717" lon="7.5519095"><ele>260.0</ele><time>2026-04-12T17:59:39.337Z</time></trkpt><trkpt lat="45.022581" lon="7.551943"><ele>260.0</ele><time>2026-04-12T17:59:40.326Z</time></trkpt><trkpt lat="45.0224447" lon="7.5519738"><ele>260.0</ele><time>2026-04-12T17:59:41.328Z</time></trkpt><trkpt lat="45.0223077" lon="7.5520057"><ele>260.0</ele><time>2026-04-12T17:59:42.331Z</time></trkpt><trkpt lat="45.0221695" lon="7.5520381"><ele>260.0</ele><time>2026-04-12T17:59:43.326Z</time></trkpt><trkpt lat="45.0220301" lon="7.5520707"><ele>260.0</ele><time>2026-04-12T17:59:44.337Z</time></trkpt><trkpt lat="45.021885" lon="7.5521045"><ele>260.0</ele><time>2026-04-12T17:59:45.333Z</time></trkpt><trkpt lat="45.0217365" lon="7.5521366"><ele>260.0</ele><time>2026-04-12T17:59:46.328Z</time></trkpt><trkpt lat="45.0215875" lon="7.5521698"><ele>258.6666666666667</ele><time>2026-04-12T17:59:47.337Z</time></trkpt><trkpt lat="45.021438" lon="7.5522043"><ele>257.3333333333333</ele><time>2026-04-12T17:59:48.332Z</time></trkpt><trkpt lat="45.0212874" lon="7.5522401"><ele>256.0</ele><time>2026-04-12T17:59:49.332Z</time></trkpt><trkpt lat="45.021134" lon="7.552277"><ele>256.0</ele><time>2026-04-12T17:59:50.32Z</time></trkpt><trkpt lat="45.0209794" lon="7.5523114"><ele>256.0</ele><time>2026-04-12T17:59:51.324Z</time></trkpt><trkpt lat="45.0208232" lon="7.5523463"><ele>256.0</ele><time>2026-04-12T17:59:52.332Z</time></trkpt><trkpt lat="45.0206668" lon="7.5523807"><ele>256.66666666666663</ele><time>2026-04-12T17:59:53.323Z</time></trkpt><trkpt lat="45.0205098" lon="7.5524171"><ele>257.3333333333333</ele><time>2026-04-12T17:59:54.321Z</time></trkpt><trkpt lat="45.0203497" lon="7.5524561"><ele>258.0</ele><time>2026-04-12T17:59:55.323Z</time></trkpt><trkpt lat="45.0201891" lon="7.552496"><ele>258.0</ele><time>2026-04-12T17:59:56.33Z</time></trkpt><trkpt lat="45.0200286" lon="7.5525338"><ele>258.0</ele><time>2026-04-12T17:59:57.327Z</time></trkpt><trkpt lat="45.0198677" lon="7.5525693"><ele>258.0</ele><time>2026-04-12T17:59:58.335Z</time></trkpt><trkpt lat="45.0197053" lon="7.5526053"><ele>258.0</ele><time>2026-04-12T17:59:59.324Z</time></trkpt><trkpt lat="45.0195412" lon="7.5526419"><ele>258.0</ele><time>2026-04-12T18:00:00.318Z</time></trkpt><trkpt lat="45.0193764" lon="7.552679"><ele>258.0</ele><time>2026-04-12T18:00:01.331Z</time></trkpt><trkpt lat="45.0192106" lon="7.5527165"><ele>259.6666666666667</ele><time>2026-04-12T18:00:02.322Z</time></trkpt><trkpt lat="45.0190445" lon="7.552755"><ele>261.33333333333337</ele><time>2026-04-12T18:00:03.316Z</time></trkpt><trkpt lat="45.0188763" lon="7.552795"><ele>263.0</ele><time>2026-04-12T18:00:04.328Z</time></trkpt><trkpt lat="45.0187082" lon="7.5528338"><ele>263.0</ele><time>2026-04-12T18:00:05.324Z</time></trkpt><trkpt lat="45.0185399" lon="7.5528726"><ele>263.0</ele><time>2026-04-12T18:00:06.334Z</time></trkpt><trkpt lat="45.0183715" lon="7.5529199"><ele>263.0</ele><time>2026-04-12T18:00:07.328Z</time></trkpt><trkpt lat="45.0182064" lon="7.5529762"><ele>262.33333333333337</ele><time>2026-04-12T18:00:08.334Z</time></trkpt><trkpt lat="45.0180438" lon="7.5530381"><ele>261.6666666666667</ele><time>2026-04-12T18:00:09.316Z</time></trkpt><trkpt lat="45.0178832" lon="7.5531054"><ele>261.0</ele><time>2026-04-12T18:00:10.335Z</time></trkpt><trkpt lat="45.0177249" lon="7.5531759"><ele>261.0</ele><time>2026-04-12T18:00:11.329Z</time></trkpt><trkpt lat="45.0175683" lon="7.5532495"><ele>261.0</ele><time>2026-04-12T18:00:12.315Z</time></trkpt><trkpt lat="45.0174132" lon="7.5533293"><ele>261.0</ele><time>2026-04-12T18:00:13.328Z</time></trkpt><trkpt lat="45.0172599" lon="7.5534143"><ele>259.6666666666667</ele><time>2026-04-12T18:00:14.324Z</time></trkpt><trkpt lat="45.0171084" lon="7.5535033"><ele>258.33333333333337</ele><time>2026-04-12T18:00:15.338Z</time></trkpt><trkpt lat="45.0169568" lon="7.5535932"><ele>257.0</ele><time>2026-04-12T18:00:16.325Z</time></trkpt><trkpt lat="45.0168041" lon="7.5536854"><ele>258.6666666666667</ele><time>2026-04-12T18:00:17.331Z</time></trkpt><trkpt lat="45.0166513" lon="7.5537781"><ele>260.3333333333333</ele><time>2026-04-12T18:00:18.322Z</time></trkpt><trkpt lat="45.0164971" lon="7.55387"><ele>262.0</ele><time>2026-04-12T18:00:19.321Z</time></trkpt><trkpt lat="45.0163426" lon="7.5539622"><ele>262.0</ele><time>2026-04-12T18:00:20.327Z</time></trkpt><trkpt lat="45.0161906" lon="7.5540521"><ele>262.0</ele><time>2026-04-12T18:00:21.337Z</time></trkpt><trkpt lat="45.0160443" lon="7.5541398"><ele>262.0</ele><time>2026-04-12T18:00:22.338Z</time></trkpt><trkpt lat="45.0159009" lon="7.5542253"><ele>262.0</ele><time>2026-04-12T18:00:23.332Z</time></trkpt><trkpt lat="45.015759" lon="7.55431"><ele>262.0</ele><time>2026-04-12T18:00:24.327Z</time></trkpt><trkpt lat="45.0156175" lon="7.5543945"><ele>262.0</ele><time>2026-04-12T18:00:25.33Z</time></trkpt><trkpt lat="45.0154753" lon="7.5544783"><ele>262.0</ele><time>2026-04-12T18:00:26.335Z</time></trkpt><trkpt lat="45.0153338" lon="7.5545603"><ele>262.0</ele><time>2026-04-12T18:00:27.335Z</time></trkpt><trkpt lat="45.0151951" lon="7.5546379"><ele>262.0</ele><time>2026-04-12T18:00:28.323Z</time></trkpt><trkpt lat="45.0150617" lon="7.5547129"><ele>262.0</ele><time>2026-04-12T18:00:29.327Z</time></trkpt><trkpt lat="45.0149316" lon="7.5547887"><ele>262.0</ele><time>2026-04-12T18:00:30.317Z</time></trkpt><trkpt lat="45.0148017" lon="7.5548694"><ele>262.0</ele><time>2026-04-12T18:00:31.322Z</time></trkpt><trkpt lat="45.0146696" lon="7.5549523"><ele>262.0</ele><time>2026-04-12T18:00:32.312Z</time></trkpt><trkpt lat="45.0145374" lon="7.5550337"><ele>262.0</ele><time>2026-04-12T18:00:33.323Z</time></trkpt><trkpt lat="45.0144074" lon="7.5551106"><ele>262.0</ele><time>2026-04-12T18:00:34.326Z</time></trkpt><trkpt lat="45.0142801" lon="7.5551858"><ele>262.0</ele><time>2026-04-12T18:00:35.333Z</time></trkpt><trkpt lat="45.0141576" lon="7.5552589"><ele>262.0</ele><time>2026-04-12T18:00:36.324Z</time></trkpt><trkpt lat="45.0140395" lon="7.5553318"><ele>262.0</ele><time>2026-04-12T18:00:37.327Z</time></trkpt><trkpt lat="45.013925" lon="7.555401"><ele>261.6</ele><time>2026-04-12T18:00:38.319Z</time></trkpt><trkpt lat="45.0138127" lon="7.5554589"><ele>261.2</ele><time>2026-04-12T18:00:39.323Z</time></trkpt><trkpt lat="45.0137041" lon="7.5554936"><ele>260.8</ele><time>2026-04-12T18:00:40.33Z</time></trkpt><trkpt lat="45.0136011" lon="7.5554931"><ele>260.4</ele><time>2026-04-12T18:00:41.327Z</time></trkpt><trkpt lat="45.0134997" lon="7.5554645"><ele>260.0</ele><time>2026-04-12T18:00:42.323Z</time></trkpt><trkpt lat="45.0134027" lon="7.5554362"><ele>260.8</ele><time>2026-04-12T18:00:43.324Z</time></trkpt><trkpt lat="45.0133154" lon="7.5554442"><ele>261.6</ele><time>2026-04-12T18:00:44.33Z</time></trkpt><trkpt lat="45.0132361" lon="7.5554972"><ele>262.4</ele><time>2026-04-12T18:00:45.315Z</time></trkpt><trkpt lat="45.0131573" lon="7.5555797"><ele>263.2</ele><time>2026-04-12T18:00:46.324Z</time></trkpt><trkpt lat="45.0130759" lon="7.5556632"><ele>264.0</ele><time>2026-04-12T18:00:47.319Z</time></trkpt><trkpt lat="45.012987" lon="7.55572"><ele>264.0</ele><time>2026-04-12T18:00:48.328Z</time></trkpt><trkpt lat="45.0128871" lon="7.555733"><ele>264.0</ele><time>2026-04-12T18:00:49.324Z</time></trkpt><trkpt lat="45.0127725" lon="7.5557065"><ele>264.0</ele><time>2026-04-12T18:00:50.33Z</time></trkpt><trkpt lat="45.0126448" lon="7.5556525"><ele>264.0</ele><time>2026-04-12T18:00:51.316Z</time></trkpt><trkpt lat="45.0125022" lon="7.5555939"><ele>263.6666666666667</ele><time>2026-04-12T18:00:52.325Z</time></trkpt><trkpt lat="45.0123561" lon="7.5555377"><ele>263.33333333333337</ele><time>2026-04-12T18:00:53.33Z</time></trkpt><trkpt lat="45.0122098" lon="7.555486"><ele>263.0</ele><time>2026-04-12T18:00:54.328Z</time></trkpt><trkpt lat="45.0120635" lon="7.5554521"><ele>263.0</ele><time>2026-04-12T18:00:55.309Z</time></trkpt><trkpt lat="45.0119225" lon="7.5554397"><ele>263.0</ele><time>2026-04-12T18:00:56.309Z</time></trkpt><trkpt lat="45.0117893" lon="7.5554548"><ele>263.0</ele><time>2026-04-12T18:00:57.324Z</time></trkpt><trkpt lat="45.0116707" lon="7.5554973"><ele>263.0</ele><time>2026-04-12T18:00:58.322Z</time></trkpt><trkpt lat="45.0115672" lon="7.5555529"><ele>263.4</ele><time>2026-04-12T18:00:59.326Z</time></trkpt><trkpt lat="45.0114695" lon="7.5556157"><ele>263.8</ele><time>2026-04-12T18:01:00.319Z</time></trkpt><trkpt lat="45.011381" lon="7.5556722"><ele>264.2</ele><time>2026-04-12T18:01:01.309Z</time></trkpt><trkpt lat="45.0112948" lon="7.5557205"><ele>264.6</ele><time>2026-04-12T18:01:02.314Z</time></trkpt><trkpt lat="45.0112112" lon="7.5557539"><ele>265.0</ele><time>2026-04-12T18:01:03.309Z</time></trkpt><trkpt lat="45.0111286" lon="7.5557609"><ele>265.0</ele><time>2026-04-12T18:01:04.314Z</time></trkpt><trkpt lat="45.0110408" lon="7.555733"><ele>265.0</ele><time>2026-04-12T18:01:05.33Z</time></trkpt><trkpt lat="45.0109483" lon="7.5556733"><ele>265.0</ele><time>2026-04-12T18:01:06.319Z</time></trkpt><trkpt lat="45.0108483" lon="7.5556138"><ele>265.0</ele><time>2026-04-12T18:01:07.323Z</time></trkpt><trkpt lat="45.0107428" lon="7.5555853"><ele>265.0</ele><time>2026-04-12T18:01:08.325Z</time></trkpt><trkpt lat="45.0106266" lon="7.5555893"><ele>265.75</ele><time>2026-04-12T18:01:09.324Z</time></trkpt><trkpt lat="45.0105074" lon="7.5556296"><ele>266.5</ele><time>2026-04-12T18:01:10.332Z</time></trkpt><trkpt lat="45.0103808" lon="7.555691"><ele>267.25</ele><time>2026-04-12T18:01:11.343Z</time></trkpt><trkpt lat="45.0102513" lon="7.5557311"><ele>268.0</ele><time>2026-04-12T18:01:12.327Z</time></trkpt><trkpt lat="45.0101174" lon="7.5557416"><ele>268.0</ele><time>2026-04-12T18:01:13.324Z</time></trkpt><trkpt lat="45.0099839" lon="7.5557145"><ele>268.0</ele><time>2026-04-12T18:01:14.329Z</time></trkpt><trkpt lat="45.0098461" lon="7.5556577"><ele>268.0</ele><time>2026-04-12T18:01:15.324Z</time></trkpt><trkpt lat="45.0097053" lon="7.555584"><ele>268.0</ele><time>2026-04-12T18:01:16.31Z</time></trkpt><trkpt lat="45.0095729" lon="7.5555177"><ele>268.0</ele><time>2026-04-12T18:01:17.317Z</time></trkpt><trkpt lat="45.0094407" lon="7.5554555"><ele>268.0</ele><time>2026-04-12T18:01:18.333Z</time></trkpt><trkpt lat="45.0093091" lon="7.5553981"><ele>268.0</ele><time>2026-04-12T18:01:19.337Z</time></trkpt><trkpt lat="45.0091809" lon="7.5553429"><ele>268.0</ele><time>2026-04-12T18:01:20.328Z</time></trkpt><trkpt lat="45.0090558" lon="7.5552903"><ele>268.25</ele><time>2026-04-12T18:01:21.324Z</time></trkpt><trkpt lat="45.0089343" lon="7.5552401"><ele>268.5</ele><time>2026-04-12T18:01:22.32Z</time></trkpt><trkpt lat="45.0088148" lon="7.5551889"><ele>268.75</ele><time>2026-04-12T18:01:23.333Z</time></trkpt><trkpt lat="45.0086957" lon="7.555135"><ele>269.0</ele><time>2026-04-12T18:01:24.336Z</time></trkpt><trkpt lat="45.0085757" lon="7.5550852"><ele>269.0</ele><time>2026-04-12T18:01:25.322Z</time></trkpt><trkpt lat="45.0084569" lon="7.5550354"><ele>269.0</ele><time>2026-04-12T18:01:26.315Z</time></trkpt><trkpt lat="45.0083381" lon="7.5549866"><ele>269.0</ele><time>2026-04-12T18:01:27.332Z</time></trkpt><trkpt lat="45.0082174" lon="7.5549384"><ele>269.0</ele><time>2026-04-12T18:01:28.319Z</time></trkpt><trkpt lat="45.0080951" lon="7.5548921"><ele>268.5</ele><time>2026-04-12T18:01:29.316Z</time></trkpt><trkpt lat="45.0079725" lon="7.5548412"><ele>268.0</ele><time>2026-04-12T18:01:30.318Z</time></trkpt><trkpt lat="45.0078539" lon="7.5547946"><ele>267.5</ele><time>2026-04-12T18:01:31.324Z</time></trkpt><trkpt lat="45.0077384" lon="7.5547501"><ele>267.0</ele><time>2026-04-12T18:01:32.317Z</time></trkpt><trkpt lat="45.0076297" lon="7.5547073"><ele>267.0</ele><time>2026-04-12T18:01:33.323Z</time></trkpt><trkpt lat="45.0075271" lon="7.5546672"><ele>267.0</ele><time>2026-04-12T18:01:34.326Z</time></trkpt><trkpt lat="45.0074285" lon="7.5546313"><ele>267.0</ele><time>2026-04-12T18:01:35.33Z</time></trkpt><trkpt lat="45.007334" lon="7.5545984"><ele>267.0</ele><time>2026-04-12T18:01:36.321Z</time></trkpt><trkpt lat="45.0072431" lon="7.5545684"><ele>267.0</ele><time>2026-04-12T18:01:37.321Z</time></trkpt><trkpt lat="45.0071589" lon="7.5545367"><ele>267.0</ele><time>2026-04-12T18:01:38.331Z</time></trkpt><trkpt lat="45.0070802" lon="7.5545021"><ele>267.0</ele><time>2026-04-12T18:01:39.327Z</time></trkpt><trkpt lat="45.0070094" lon="7.5544654"><ele>267.0</ele><time>2026-04-12T18:01:40.325Z</time></trkpt><trkpt lat="45.0069477" lon="7.5544297"><ele>267.0</ele><time>2026-04-12T18:01:41.322Z</time></trkpt><trkpt lat="45.0068508" lon="7.5543261"><ele>267.0</ele><time>2026-04-12T18:01:43.322Z</time></trkpt><trkpt lat="45.0068091" lon="7.5542557"><ele>267.0</ele><time>2026-04-12T18:01:44.325Z</time></trkpt><trkpt lat="45.0067585" lon="7.554188"><ele>267.0</ele><time>2026-04-12T18:01:45.327Z</time></trkpt><trkpt lat="45.0066982" lon="7.5541454"><ele>267.0</ele><time>2026-04-12T18:01:46.329Z</time></trkpt><trkpt lat="45.0066242" lon="7.5541396"><ele>267.0</ele><time>2026-04-12T18:01:47.315Z</time></trkpt><trkpt lat="45.0065344" lon="7.5541593"><ele>267.0</ele><time>2026-04-12T18:01:48.33Z</time></trkpt><trkpt lat="45.0064204" lon="7.5541776"><ele>267.0</ele><time>2026-04-12T18:01:49.33Z</time></trkpt><trkpt lat="45.0062802" lon="7.5541758"><ele>266.3333333333333</ele><time>2026-04-12T18:01:50.313Z</time></trkpt><trkpt lat="45.006131" lon="7.5541346"><ele>265.66666666666663</ele><time>2026-04-12T18:01:51.325Z</time></trkpt><trkpt lat="45.0059825" lon="7.5540702"><ele>265.0</ele><time>2026-04-12T18:01:52.327Z</time></trkpt><trkpt lat="45.0058316" lon="7.5539958"><ele>265.3333333333333</ele><time>2026-04-12T18:01:53.32Z</time></trkpt><trkpt lat="45.0056731" lon="7.5539249"><ele>265.6666666666667</ele><time>2026-04-12T18:01:54.33Z</time></trkpt><trkpt lat="45.0055097" lon="7.5538572"><ele>266.0</ele><time>2026-04-12T18:01:55.332Z</time></trkpt><trkpt lat="45.0053432" lon="7.5537902"><ele>266.0</ele><time>2026-04-12T18:01:56.339Z</time></trkpt><trkpt lat="45.0051747" lon="7.5537191"><ele>266.0</ele><time>2026-04-12T18:01:57.309Z</time></trkpt><trkpt lat="45.0049986" lon="7.5536477"><ele>266.0</ele><time>2026-04-12T18:01:58.325Z</time></trkpt><trkpt lat="45.004818" lon="7.5535742"><ele>266.0</ele><time>2026-04-12T18:01:59.326Z</time></trkpt><trkpt lat="45.0046319" lon="7.553498"><ele>266.0</ele><time>2026-04-12T18:02:00.336Z</time></trkpt><trkpt lat="45.0044428" lon="7.5534194"><ele>266.0</ele><time>2026-04-12T18:02:01.337Z</time></trkpt><trkpt lat="45.0042514" lon="7.5533396"><ele>265.33333333333337</ele><time>2026-04-12T18:02:02.313Z</time></trkpt><trkpt lat="45.0040596" lon="7.5532613"><ele>264.6666666666667</ele><time>2026-04-12T18:02:03.312Z</time></trkpt><trkpt lat="45.0038672" lon="7.5531805"><ele>264.0</ele><time>2026-04-12T18:02:04.331Z</time></trkpt><trkpt lat="45.0036715" lon="7.5530996"><ele>264.0</ele><time>2026-04-12T18:02:05.338Z</time></trkpt><trkpt lat="45.003471" lon="7.5530186"><ele>264.0</ele><time>2026-04-12T18:02:06.333Z</time></trkpt><trkpt lat="45.0032673" lon="7.5529353"><ele>264.0</ele><time>2026-04-12T18:02:07.33Z</time></trkpt><trkpt lat="45.0030592" lon="7.5528495"><ele>264.3333333333333</ele><time>2026-04-12T18:02:08.325Z</time></trkpt><trkpt lat="45.0028476" lon="7.5527627"><ele>264.66666666666663</ele><time>2026-04-12T18:02:09.326Z</time></trkpt><trkpt lat="45.0026345" lon="7.5526729"><ele>265.0</ele><time>2026-04-12T18:02:10.325Z</time></trkpt><trkpt lat="45.0024203" lon="7.5525823"><ele>265.3333333333333</ele><time>2026-04-12T18:02:11.328Z</time></trkpt><trkpt lat="45.0022104" lon="7.5524937"><ele>265.6666666666667</ele><time>2026-04-12T18:02:12.332Z</time></trkpt><trkpt lat="45.0020073" lon="7.5524084"><ele>266.0</ele><time>2026-04-12T18:02:13.337Z</time></trkpt><trkpt lat="45.0018125" lon="7.5523262"><ele>265.6666666666667</ele><time>2026-04-12T18:02:14.318Z</time></trkpt><trkpt lat="45.0016254" lon="7.55225"><ele>265.3333333333333</ele><time>2026-04-12T18:02:15.323Z</time></trkpt><trkpt lat="45.0014468" lon="7.5521736"><ele>265.0</ele><time>2026-04-12T18:02:16.332Z</time></trkpt><trkpt lat="45.0012719" lon="7.5520993"><ele>265.0</ele><time>2026-04-12T18:02:17.326Z</time></trkpt><trkpt lat="45.0010986" lon="7.5520294"><ele>265.0</ele><time>2026-04-12T18:02:18.331Z</time></trkpt><trkpt lat="45.0009263" lon="7.5519588"><ele>265.0</ele><time>2026-04-12T18:02:19.333Z</time></trkpt><trkpt lat="45.0007567" lon="7.5518866"><ele>264.66666666666663</ele><time>2026-04-12T18:02:20.316Z</time></trkpt><trkpt lat="45.0005894" lon="7.5518148"><ele>264.3333333333333</ele><time>2026-04-12T18:02:21.32Z</time></trkpt><trkpt lat="45.0004279" lon="7.551748"><ele>264.0</ele><time>2026-04-12T18:02:22.311Z</time></trkpt><trkpt lat="45.0002733" lon="7.5516818"><ele>264.0</ele><time>2026-04-12T18:02:23.314Z</time></trkpt><trkpt lat="45.0001261" lon="7.5516118"><ele>264.0</ele><time>2026-04-12T18:02:24.333Z</time></trkpt><trkpt lat="44.9999861" lon="7.5515364"><ele>264.0</ele><time>2026-04-12T18:02:25.331Z</time></trkpt><trkpt lat="44.9998518" lon="7.5514581"><ele>264.0</ele><time>2026-04-12T18:02:26.323Z</time></trkpt><trkpt lat="44.9997265" lon="7.5513777"><ele>264.0</ele><time>2026-04-12T18:02:27.325Z</time></trkpt><trkpt lat="44.9996134" lon="7.551298"><ele>264.0</ele><time>2026-04-12T18:02:28.329Z</time></trkpt><trkpt lat="44.9995176" lon="7.5512163"><ele>264.0</ele><time>2026-04-12T18:02:29.321Z</time></trkpt><trkpt lat="44.9994408" lon="7.5511355"><ele>263.8333333333333</ele><time>2026-04-12T18:02:30.328Z</time></trkpt><trkpt lat="44.9993896" lon="7.5510514"><ele>263.6666666666667</ele><time>2026-04-12T18:02:31.321Z</time></trkpt><trkpt lat="44.9993569" lon="7.5509711"><ele>263.5</ele><time>2026-04-12T18:02:32.323Z</time></trkpt><trkpt lat="44.9992746" lon="7.5508439"><ele>263.33333333333337</ele><time>2026-04-12T18:02:34.335Z</time></trkpt><trkpt lat="44.9992136" lon="7.550811"><ele>263.1666666666667</ele><time>2026-04-12T18:02:35.324Z</time></trkpt><trkpt lat="44.9991487" lon="7.5508152"><ele>263.0</ele><time>2026-04-12T18:02:36.313Z</time></trkpt><trkpt lat="44.9990484" lon="7.5509161"><ele>263.0</ele><time>2026-04-12T18:02:38.321Z</time></trkpt><trkpt lat="44.9990276" lon="7.5510027"><ele>263.0</ele><time>2026-04-12T18:02:39.324Z</time></trkpt><trkpt lat="44.9990194" lon="7.5511102"><ele>263.0</ele><time>2026-04-12T18:02:40.32Z</time></trkpt><trkpt lat="44.999027" lon="7.5512201"><ele>263.0</ele><time>2026-04-12T18:02:41.319Z</time></trkpt><trkpt lat="44.9990327" lon="7.5513351"><ele>263.0</ele><time>2026-04-12T18:02:42.326Z</time></trkpt><trkpt lat="44.9990186" lon="7.5514496"><ele>263.0</ele><time>2026-04-12T18:02:43.312Z</time></trkpt><trkpt lat="44.998984" lon="7.5515657"><ele>263.2</ele><time>2026-04-12T18:02:44.331Z</time></trkpt><trkpt lat="44.9989335" lon="7.5516906"><ele>263.4</ele><time>2026-04-12T18:02:45.327Z</time></trkpt><trkpt lat="44.9988767" lon="7.5518104"><ele>263.59999999999997</ele><time>2026-04-12T18:02:46.334Z</time></trkpt><trkpt lat="44.9988246" lon="7.5519304"><ele>263.8</ele><time>2026-04-12T18:02:47.326Z</time></trkpt><trkpt lat="44.9987772" lon="7.5520502"><ele>264.0</ele><time>2026-04-12T18:02:48.331Z</time></trkpt><trkpt lat="44.9987328" lon="7.5521652"><ele>264.0</ele><time>2026-04-12T18:02:49.324Z</time></trkpt><trkpt lat="44.9986888" lon="7.5522744"><ele>264.0</ele><time>2026-04-12T18:02:50.32Z</time></trkpt><trkpt lat="44.9986407" lon="7.5523729"><ele>264.0</ele><time>2026-04-12T18:02:51.339Z</time></trkpt><trkpt lat="44.9985849" lon="7.5524526"><ele>264.0</ele><time>2026-04-12T18:02:52.326Z</time></trkpt><trkpt lat="44.9985191" lon="7.552497"><ele>264.0</ele><time>2026-04-12T18:02:53.328Z</time></trkpt><trkpt lat="44.998451" lon="7.5525059"><ele>264.0</ele><time>2026-04-12T18:02:54.329Z</time></trkpt><trkpt lat="44.9983871" lon="7.5524783"><ele>264.0</ele><time>2026-04-12T18:02:55.32Z</time></trkpt><trkpt lat="44.9983354" lon="7.5524237"><ele>264.0</ele><time>2026-04-12T18:02:56.32Z</time></trkpt><trkpt lat="44.9982905" lon="7.5522857"><ele>264.0</ele><time>2026-04-12T18:02:58.322Z</time></trkpt><trkpt lat="44.9983276" lon="7.5521639"><ele>264.0</ele><time>2026-04-12T18:03:00.33Z</time></trkpt><trkpt lat="44.9983988" lon="7.5520737"><ele>264.0</ele><time>2026-04-12T18:03:02.323Z</time></trkpt><trkpt lat="44.9984614" lon="7.5519462"><ele>264.0</ele><time>2026-04-12T18:03:04.326Z</time></trkpt><trkpt lat="44.9985058" lon="7.5517925"><ele>264.0</ele><time>2026-04-12T18:03:06.315Z</time></trkpt><trkpt lat="44.9985477" lon="7.5516431"><ele>264.0</ele><time>2026-04-12T18:03:08.33Z</time></trkpt><trkpt lat="44.998587" lon="7.5515263"><ele>264.0</ele><time>2026-04-12T18:03:10.332Z</time></trkpt><trkpt lat="44.998615" lon="7.5514292"><ele>264.0</ele><time>2026-04-12T18:03:12.309Z</time></trkpt><trkpt lat="44.9985955" lon="7.5513254"><ele>264.0</ele><time>2026-04-12T18:03:15.324Z</time></trkpt><trkpt lat="44.9985306" lon="7.5513569"><ele>264.0</ele><time>2026-04-12T18:11:35.249Z</time></trkpt><trkpt lat="44.998488" lon="7.5514327"><ele>264.0</ele><time>2026-04-12T18:11:40.229Z</time></trkpt><trkpt lat="44.9984385" lon="7.5515305"><ele>264.0</ele><time>2026-04-12T18:11:46.488Z</time></trkpt><trkpt lat="44.9983922" lon="7.5515935"><ele>264.0</ele><time>2026-04-12T18:11:52.868Z</time></trkpt><trkpt lat="44.9983421" lon="7.5516475"><ele>264.0</ele><time>2026-04-12T18:11:59.088Z</time></trkpt><trkpt lat="44.9983118" lon="7.5517449"><ele>264.0</ele><time>2026-04-12T18:12:05.388Z</time></trkpt><trkpt lat="44.9982809" lon="7.5518326"><ele>264.0</ele><time>2026-04-12T18:12:12.568Z</time></trkpt><trkpt lat="44.9983418" lon="7.5518566"><ele>264.0</ele><time>2026-04-12T18:12:59.305Z</time></trkpt><trkpt lat="44.9982323" lon="7.5518213"><ele>264.0</ele><time>2026-04-12T18:13:28.334Z</time></trkpt><trkpt lat="44.99817" lon="7.5518344"><ele>264.0</ele><time>2026-04-12T18:13:50.304Z</time></trkpt><trkpt lat="44.9981037" lon="7.5518736"><ele>264.0</ele><time>2026-04-12T18:13:59.348Z</time></trkpt><trkpt lat="44.9981319" lon="7.5519546"><ele>264.0</ele><time>2026-04-12T18:14:08.305Z</time></trkpt><trkpt lat="44.9981805" lon="7.5520175"><ele>264.0</ele><time>2026-04-12T18:14:17.299Z</time></trkpt><trkpt lat="44.9982468" lon="7.5520285"><ele>264.0</ele><time>2026-04-12T18:14:24.128Z</time></trkpt><trkpt lat="44.998293" lon="7.5519599"><ele>264.0</ele><time>2026-04-12T18:14:29.128Z</time></trkpt><trkpt lat="44.9983297" lon="7.5518732"><ele>264.0</ele><time>2026-04-12T18:14:35.229Z</time></trkpt><trkpt lat="44.9983737" lon="7.551794"><ele>264.0</ele><time>2026-04-12T18:14:41.029Z</time></trkpt><trkpt lat="44.9984064" lon="7.5517169"><ele>264.0</ele><time>2026-04-12T18:14:50.809Z</time></trkpt><trkpt lat="44.9984127" lon="7.5516258"><ele>264.0</ele><time>2026-04-12T18:14:57.188Z</time></trkpt><trkpt lat="44.9984779" lon="7.5515048"><ele>264.0</ele><time>2026-04-12T18:15:08.709Z</time></trkpt><trkpt lat="44.9984582" lon="7.5513069"><ele>263.8333333333333</ele><time>2026-04-12T18:20:59.881Z</time></trkpt><trkpt lat="44.9984437" lon="7.5511861"><ele>263.6666666666667</ele><time>2026-04-12T18:21:01.968Z</time></trkpt><trkpt lat="44.9984121" lon="7.5510947"><ele>263.5</ele><time>2026-04-12T18:21:02.97Z</time></trkpt><trkpt lat="44.9984503" lon="7.5509817"><ele>263.33333333333337</ele><time>2026-04-12T18:21:04.968Z</time></trkpt><trkpt lat="44.9984866" lon="7.5508688"><ele>263.1666666666667</ele><time>2026-04-12T18:21:06.969Z</time></trkpt><trkpt lat="44.9984487" lon="7.5507445"><ele>263.0</ele><time>2026-04-12T18:21:08.971Z</time></trkpt><trkpt lat="44.9983384" lon="7.5506481"><ele>262.6666666666667</ele><time>2026-04-12T18:21:10.97Z</time></trkpt><trkpt lat="44.9982634" lon="7.5506134"><ele>262.33333333333337</ele><time>2026-04-12T18:21:11.978Z</time></trkpt><trkpt lat="44.9981903" lon="7.5505742"><ele>262.0</ele><time>2026-04-12T18:21:12.973Z</time></trkpt><trkpt lat="44.9981248" lon="7.5505339"><ele>261.6666666666667</ele><time>2026-04-12T18:21:13.968Z</time></trkpt><trkpt lat="44.9980656" lon="7.5504994"><ele>261.3333333333333</ele><time>2026-04-12T18:21:14.979Z</time></trkpt><trkpt lat="44.9979663" lon="7.5504323"><ele>261.0</ele><time>2026-04-12T18:21:16.974Z</time></trkpt><trkpt lat="44.9979029" lon="7.5503396"><ele>260.8333333333333</ele><time>2026-04-12T18:21:18.969Z</time></trkpt><trkpt lat="44.997911" lon="7.5502242"><ele>260.6666666666667</ele><time>2026-04-12T18:21:20.976Z</time></trkpt><trkpt lat="44.9979975" lon="7.5501445"><ele>260.5</ele><time>2026-04-12T18:21:22.97Z</time></trkpt><trkpt lat="44.9980669" lon="7.5501388"><ele>260.33333333333337</ele><time>2026-04-12T18:21:23.971Z</time></trkpt><trkpt lat="44.9981427" lon="7.5501674"><ele>260.1666666666667</ele><time>2026-04-12T18:21:24.967Z</time></trkpt><trkpt lat="44.9982132" lon="7.5502325"><ele>260.0</ele><time>2026-04-12T18:21:25.971Z</time></trkpt><trkpt lat="44.9982842" lon="7.5503174"><ele>260.6</ele><time>2026-04-12T18:21:26.971Z</time></trkpt><trkpt lat="44.9983632" lon="7.5504058"><ele>261.2</ele><time>2026-04-12T18:21:27.979Z</time></trkpt><trkpt lat="44.9984434" lon="7.5504861"><ele>261.8</ele><time>2026-04-12T18:21:28.959Z</time></trkpt><trkpt lat="44.9985246" lon="7.5505625"><ele>262.4</ele><time>2026-04-12T18:21:29.979Z</time></trkpt><trkpt lat="44.9986075" lon="7.5506421"><ele>263.0</ele><time>2026-04-12T18:21:30.99Z</time></trkpt><trkpt lat="44.9986924" lon="7.5507213"><ele>263.0</ele><time>2026-04-12T18:21:31.981Z</time></trkpt><trkpt lat="44.998776" lon="7.5508003"><ele>263.0</ele><time>2026-04-12T18:21:32.974Z</time></trkpt><trkpt lat="44.998854" lon="7.5508775"><ele>263.0</ele><time>2026-04-12T18:21:33.992Z</time></trkpt><trkpt lat="44.9989258" lon="7.5509553"><ele>263.0</ele><time>2026-04-12T18:21:34.971Z</time></trkpt><trkpt lat="44.9989917" lon="7.5510361"><ele>263.0</ele><time>2026-04-12T18:21:35.973Z</time></trkpt><trkpt lat="44.9990505" lon="7.5511184"><ele>263.0</ele><time>2026-04-12T18:21:36.988Z</time></trkpt><trkpt lat="44.9991032" lon="7.5511906"><ele>263.0</ele><time>2026-04-12T18:21:37.983Z</time></trkpt><trkpt lat="44.999155" lon="7.5512422"><ele>263.0</ele><time>2026-04-12T18:21:38.976Z</time></trkpt><trkpt lat="44.9992698" lon="7.5512634"><ele>263.0</ele><time>2026-04-12T18:21:40.968Z</time></trkpt><trkpt lat="44.9993684" lon="7.5511624"><ele>263.0</ele><time>2026-04-12T18:21:42.964Z</time></trkpt><trkpt lat="44.9993857" lon="7.5510757"><ele>263.0</ele><time>2026-04-12T18:21:43.982Z</time></trkpt><trkpt lat="44.9993759" lon="7.5509758"><ele>263.0</ele><time>2026-04-12T18:21:44.964Z</time></trkpt><trkpt lat="44.9993402" lon="7.5508865"><ele>263.0</ele><time>2026-04-12T18:21:45.982Z</time></trkpt><trkpt lat="44.9992834" lon="7.5508217"><ele>263.0</ele><time>2026-04-12T18:21:46.978Z</time></trkpt><trkpt lat="44.999218" lon="7.5507833"><ele>263.0</ele><time>2026-04-12T18:21:47.975Z</time></trkpt><trkpt lat="44.9991497" lon="7.5507702"><ele>263.0</ele><time>2026-04-12T18:21:48.985Z</time></trkpt><trkpt lat="44.9990736" lon="7.550757"><ele>263.0</ele><time>2026-04-12T18:21:49.976Z</time></trkpt><trkpt lat="44.9989831" lon="7.5507286"><ele>263.0</ele><time>2026-04-12T18:21:50.977Z</time></trkpt><trkpt lat="44.9988819" lon="7.5506796"><ele>263.0</ele><time>2026-04-12T18:21:51.984Z</time></trkpt><trkpt lat="44.9987818" lon="7.5506153"><ele>263.0</ele><time>2026-04-12T18:21:52.988Z</time></trkpt><trkpt lat="44.998684" lon="7.5505359"><ele>263.0</ele><time>2026-04-12T18:21:53.978Z</time></trkpt><trkpt lat="44.9985802" lon="7.5504478"><ele>263.25</ele><time>2026-04-12T18:21:54.976Z</time></trkpt><trkpt lat="44.9984717" lon="7.5503514"><ele>263.5</ele><time>2026-04-12T18:21:55.984Z</time></trkpt><trkpt lat="44.998362" lon="7.550245"><ele>263.75</ele><time>2026-04-12T18:21:56.979Z</time></trkpt><trkpt lat="44.998252" lon="7.5501345"><ele>264.0</ele><time>2026-04-12T18:21:57.989Z</time></trkpt><trkpt lat="44.9981409" lon="7.5500152"><ele>264.0</ele><time>2026-04-12T18:21:58.976Z</time></trkpt><trkpt lat="44.9980294" lon="7.5498893"><ele>264.0</ele><time>2026-04-12T18:21:59.984Z</time></trkpt><trkpt lat="44.997917" lon="7.5497565"><ele>264.0</ele><time>2026-04-12T18:22:00.977Z</time></trkpt><trkpt lat="44.9978033" lon="7.5496169"><ele>264.0</ele><time>2026-04-12T18:22:01.977Z</time></trkpt><trkpt lat="44.9976875" lon="7.5494683"><ele>264.0</ele><time>2026-04-12T18:22:02.99Z</time></trkpt><trkpt lat="44.9975686" lon="7.5493129"><ele>264.0</ele><time>2026-04-12T18:22:03.972Z</time></trkpt><trkpt lat="44.9974491" lon="7.5491443"><ele>264.0</ele><time>2026-04-12T18:22:04.977Z</time></trkpt><trkpt lat="44.9973346" lon="7.5489612"><ele>264.0</ele><time>2026-04-12T18:22:05.987Z</time></trkpt><trkpt lat="44.9972245" lon="7.548763"><ele>264.0</ele><time>2026-04-12T18:22:06.982Z</time></trkpt><trkpt lat="44.9971193" lon="7.5485596"><ele>264.0</ele><time>2026-04-12T18:22:07.983Z</time></trkpt><trkpt lat="44.9970175" lon="7.548357"><ele>265.0</ele><time>2026-04-12T18:22:08.992Z</time></trkpt><trkpt lat="44.996915" lon="7.5481527"><ele>266.0</ele><time>2026-04-12T18:22:09.973Z</time></trkpt><trkpt lat="44.9968132" lon="7.5479416"><ele>267.0</ele><time>2026-04-12T18:22:10.984Z</time></trkpt><trkpt lat="44.9967111" lon="7.547726"><ele>266.3333333333333</ele><time>2026-04-12T18:22:11.991Z</time></trkpt><trkpt lat="44.996614" lon="7.5475006"><ele>265.66666666666663</ele><time>2026-04-12T18:22:12.983Z</time></trkpt><trkpt lat="44.9965124" lon="7.5472734"><ele>265.0</ele><time>2026-04-12T18:22:13.992Z</time></trkpt><trkpt lat="44.9964146" lon="7.5470411"><ele>264.66666666666663</ele><time>2026-04-12T18:22:14.968Z</time></trkpt><trkpt lat="44.9963218" lon="7.5468015"><ele>264.3333333333333</ele><time>2026-04-12T18:22:15.987Z</time></trkpt><trkpt lat="44.9962328" lon="7.5465571"><ele>264.0</ele><time>2026-04-12T18:22:16.977Z</time></trkpt><trkpt lat="44.9961493" lon="7.5463064"><ele>264.3333333333333</ele><time>2026-04-12T18:22:17.98Z</time></trkpt><trkpt lat="44.996069" lon="7.5460513"><ele>264.66666666666663</ele><time>2026-04-12T18:22:18.981Z</time></trkpt><trkpt lat="44.9959919" lon="7.5457936"><ele>265.0</ele><time>2026-04-12T18:22:19.987Z</time></trkpt><trkpt lat="44.995921" lon="7.5455325"><ele>264.3333333333333</ele><time>2026-04-12T18:22:20.978Z</time></trkpt><trkpt lat="44.9958569" lon="7.54527"><ele>263.6666666666667</ele><time>2026-04-12T18:22:21.982Z</time></trkpt><trkpt lat="44.9957968" lon="7.5450024"><ele>263.0</ele><time>2026-04-12T18:22:22.967Z</time></trkpt><trkpt lat="44.9957432" lon="7.5447286"><ele>263.0</ele><time>2026-04-12T18:22:23.979Z</time></trkpt><trkpt lat="44.9956962" lon="7.5444518"><ele>263.0</ele><time>2026-04-12T18:22:24.982Z</time></trkpt><trkpt lat="44.9956542" lon="7.5441688"><ele>263.0</ele><time>2026-04-12T18:22:25.97Z</time></trkpt><trkpt lat="44.9956161" lon="7.5438817"><ele>263.6666666666667</ele><time>2026-04-12T18:22:26.968Z</time></trkpt><trkpt lat="44.9955837" lon="7.5435905"><ele>264.3333333333333</ele><time>2026-04-12T18:22:27.986Z</time></trkpt><trkpt lat="44.995555" lon="7.543293"><ele>265.0</ele><time>2026-04-12T18:22:28.988Z</time></trkpt><trkpt lat="44.9955323" lon="7.542998"><ele>265.0</ele><time>2026-04-12T18:22:29.983Z</time></trkpt><trkpt lat="44.9955174" lon="7.5427139"><ele>265.0</ele><time>2026-04-12T18:22:30.984Z</time></trkpt><trkpt lat="44.9955085" lon="7.5424371"><ele>265.0</ele><time>2026-04-12T18:22:31.986Z</time></trkpt><trkpt lat="44.9955059" lon="7.5421586"><ele>265.66666666666663</ele><time>2026-04-12T18:22:32.978Z</time></trkpt><trkpt lat="44.9955075" lon="7.541871"><ele>266.3333333333333</ele><time>2026-04-12T18:22:33.977Z</time></trkpt><trkpt lat="44.9955146" lon="7.5415739"><ele>267.0</ele><time>2026-04-12T18:22:34.987Z</time></trkpt><trkpt lat="44.9955278" lon="7.5412675"><ele>265.5</ele><time>2026-04-12T18:22:35.985Z</time></trkpt><trkpt lat="44.9955478" lon="7.5409484"><ele>264.0</ele><time>2026-04-12T18:22:36.974Z</time></trkpt><trkpt lat="44.995574" lon="7.5406225"><ele>264.0</ele><time>2026-04-12T18:22:37.979Z</time></trkpt><trkpt lat="44.9956021" lon="7.5402906"><ele>264.0</ele><time>2026-04-12T18:22:38.99Z</time></trkpt><trkpt lat="44.99563" lon="7.5399534"><ele>264.0</ele><time>2026-04-12T18:22:39.986Z</time></trkpt><trkpt lat="44.9956576" lon="7.5396129"><ele>264.0</ele><time>2026-04-12T18:22:40.982Z</time></trkpt><trkpt lat="44.9956832" lon="7.5392742"><ele>265.0</ele><time>2026-04-12T18:22:41.978Z</time></trkpt><trkpt lat="44.9957068" lon="7.5389475"><ele>266.0</ele><time>2026-04-12T18:22:42.977Z</time></trkpt><trkpt lat="44.99573" lon="7.5386279"><ele>267.0</ele><time>2026-04-12T18:22:43.989Z</time></trkpt><trkpt lat="44.9957542" lon="7.5383078"><ele>268.0</ele><time>2026-04-12T18:22:44.971Z</time></trkpt><trkpt lat="44.9957799" lon="7.5379831"><ele>268.5</ele><time>2026-04-12T18:22:45.981Z</time></trkpt><trkpt lat="44.9958055" lon="7.5376541"><ele>269.0</ele><time>2026-04-12T18:22:46.976Z</time></trkpt><trkpt lat="44.9958315" lon="7.5373233"><ele>268.5</ele><time>2026-04-12T18:22:47.981Z</time></trkpt><trkpt lat="44.9958577" lon="7.536988"><ele>268.0</ele><time>2026-04-12T18:22:48.981Z</time></trkpt><trkpt lat="44.9958832" lon="7.5366525"><ele>268.0</ele><time>2026-04-12T18:22:49.988Z</time></trkpt><trkpt lat="44.9959097" lon="7.5363191"><ele>268.0</ele><time>2026-04-12T18:22:50.973Z</time></trkpt><trkpt lat="44.9959372" lon="7.5359923"><ele>268.0</ele><time>2026-04-12T18:22:51.981Z</time></trkpt><trkpt lat="44.9959638" lon="7.5356719"><ele>268.0</ele><time>2026-04-12T18:22:52.985Z</time></trkpt><trkpt lat="44.9959872" lon="7.5353629"><ele>268.0</ele><time>2026-04-12T18:22:53.983Z</time></trkpt><trkpt lat="44.9960078" lon="7.5350687"><ele>268.0</ele><time>2026-04-12T18:22:54.975Z</time></trkpt><trkpt lat="44.9960287" lon="7.5347875"><ele>268.0</ele><time>2026-04-12T18:22:55.981Z</time></trkpt><trkpt lat="44.99605" lon="7.5345138"><ele>268.0</ele><time>2026-04-12T18:22:56.969Z</time></trkpt><trkpt lat="44.9960699" lon="7.5342465"><ele>268.3333333333333</ele><time>2026-04-12T18:22:57.983Z</time></trkpt><trkpt lat="44.9960895" lon="7.5339853"><ele>268.6666666666667</ele><time>2026-04-12T18:22:58.976Z</time></trkpt><trkpt lat="44.9961064" lon="7.5337343"><ele>269.0</ele><time>2026-04-12T18:22:59.98Z</time></trkpt><trkpt lat="44.9961234" lon="7.5334924"><ele>269.33333333333337</ele><time>2026-04-12T18:23:00.977Z</time></trkpt><trkpt lat="44.9961426" lon="7.5332613"><ele>269.6666666666667</ele><time>2026-04-12T18:23:01.979Z</time></trkpt><trkpt lat="44.9961646" lon="7.5330391"><ele>270.0</ele><time>2026-04-12T18:23:02.984Z</time></trkpt><trkpt lat="44.996192" lon="7.5328324"><ele>270.5</ele><time>2026-04-12T18:23:03.985Z</time></trkpt><trkpt lat="44.9962211" lon="7.5326447"><ele>271.0</ele><time>2026-04-12T18:23:04.975Z</time></trkpt><trkpt lat="44.9962559" lon="7.5324762"><ele>271.5</ele><time>2026-04-12T18:23:05.982Z</time></trkpt><trkpt lat="44.9962995" lon="7.5323199"><ele>272.0</ele><time>2026-04-12T18:23:06.983Z</time></trkpt><trkpt lat="44.9963419" lon="7.5321744"><ele>271.8</ele><time>2026-04-12T18:23:07.973Z</time></trkpt><trkpt lat="44.9963672" lon="7.5320295"><ele>271.6</ele><time>2026-04-12T18:23:08.986Z</time></trkpt><trkpt lat="44.9963734" lon="7.5318838"><ele>271.40000000000003</ele><time>2026-04-12T18:23:09.973Z</time></trkpt><trkpt lat="44.9963619" lon="7.5317317"><ele>271.2</ele><time>2026-04-12T18:23:10.974Z</time></trkpt><trkpt lat="44.9963458" lon="7.5315681"><ele>271.0</ele><time>2026-04-12T18:23:11.981Z</time></trkpt><trkpt lat="44.9963393" lon="7.5313922"><ele>270.0</ele><time>2026-04-12T18:23:12.978Z</time></trkpt><trkpt lat="44.9963275" lon="7.5311826"><ele>269.0</ele><time>2026-04-12T18:23:13.965Z</time></trkpt><trkpt lat="44.9963362" lon="7.5309677"><ele>268.0</ele><time>2026-04-12T18:23:14.973Z</time></trkpt><trkpt lat="44.9963501" lon="7.5307392"><ele>268.0</ele><time>2026-04-12T18:23:15.984Z</time></trkpt><trkpt lat="44.9963666" lon="7.530497"><ele>268.0</ele><time>2026-04-12T18:23:16.963Z</time></trkpt><trkpt lat="44.9963822" lon="7.5302513"><ele>268.0</ele><time>2026-04-12T18:23:17.982Z</time></trkpt><trkpt lat="44.9964015" lon="7.5300112"><ele>268.66666666666663</ele><time>2026-04-12T18:23:18.985Z</time></trkpt><trkpt lat="44.9964173" lon="7.5297588"><ele>269.3333333333333</ele><time>2026-04-12T18:23:19.974Z</time></trkpt><trkpt lat="44.9964355" lon="7.5294974"><ele>270.0</ele><time>2026-04-12T18:23:20.965Z</time></trkpt><trkpt lat="44.9964569" lon="7.5292231"><ele>270.0</ele><time>2026-04-12T18:23:21.983Z</time></trkpt><trkpt lat="44.9964797" lon="7.5289383"><ele>270.0</ele><time>2026-04-12T18:23:22.971Z</time></trkpt><trkpt lat="44.9965025" lon="7.5286455"><ele>270.0</ele><time>2026-04-12T18:23:23.988Z</time></trkpt><trkpt lat="44.996525" lon="7.528346"><ele>270.0</ele><time>2026-04-12T18:23:24.981Z</time></trkpt><trkpt lat="44.9965478" lon="7.528046"><ele>270.0</ele><time>2026-04-12T18:23:25.987Z</time></trkpt><trkpt lat="44.9965697" lon="7.5277475"><ele>270.0</ele><time>2026-04-12T18:23:26.967Z</time></trkpt><trkpt lat="44.9965889" lon="7.5274442"><ele>271.3333333333333</ele><time>2026-04-12T18:23:27.97Z</time></trkpt><trkpt lat="44.9966043" lon="7.5271343"><ele>272.66666666666663</ele><time>2026-04-12T18:23:28.977Z</time></trkpt><trkpt lat="44.9966122" lon="7.5268163"><ele>274.0</ele><time>2026-04-12T18:23:29.992Z</time></trkpt><trkpt lat="44.9966131" lon="7.5264894"><ele>274.0</ele><time>2026-04-12T18:23:30.992Z</time></trkpt><trkpt lat="44.9966046" lon="7.5261559"><ele>274.0</ele><time>2026-04-12T18:23:31.987Z</time></trkpt><trkpt lat="44.9965853" lon="7.525814"><ele>274.0</ele><time>2026-04-12T18:23:32.986Z</time></trkpt><trkpt lat="44.9965586" lon="7.5254686"><ele>274.0</ele><time>2026-04-12T18:23:33.993Z</time></trkpt><trkpt lat="44.9965242" lon="7.5251313"><ele>273.0</ele><time>2026-04-12T18:23:34.982Z</time></trkpt><trkpt lat="44.9964807" lon="7.524799"><ele>272.0</ele><time>2026-04-12T18:23:35.986Z</time></trkpt><trkpt lat="44.9964311" lon="7.5244688"><ele>271.5</ele><time>2026-04-12T18:23:36.982Z</time></trkpt><trkpt lat="44.9963729" lon="7.5241356"><ele>271.0</ele><time>2026-04-12T18:23:37.988Z</time></trkpt><trkpt lat="44.9963049" lon="7.5238018"><ele>271.5</ele><time>2026-04-12T18:23:38.983Z</time></trkpt><trkpt lat="44.9962274" lon="7.52347"><ele>272.0</ele><time>2026-04-12T18:23:39.974Z</time></trkpt><trkpt lat="44.9961422" lon="7.5231412"><ele>272.5</ele><time>2026-04-12T18:23:40.99Z</time></trkpt><trkpt lat="44.9960491" lon="7.5228177"><ele>273.0</ele><time>2026-04-12T18:23:41.98Z</time></trkpt><trkpt lat="44.9959486" lon="7.5224961"><ele>273.0</ele><time>2026-04-12T18:23:42.985Z</time></trkpt><trkpt lat="44.9958394" lon="7.5221771"><ele>273.0</ele><time>2026-04-12T18:23:43.976Z</time></trkpt><trkpt lat="44.99572" lon="7.5218611"><ele>274.5</ele><time>2026-04-12T18:23:44.977Z</time></trkpt><trkpt lat="44.9955927" lon="7.5215517"><ele>276.0</ele><time>2026-04-12T18:23:45.985Z</time></trkpt><trkpt lat="44.9954544" lon="7.5212464"><ele>275.0</ele><time>2026-04-12T18:23:46.979Z</time></trkpt><trkpt lat="44.9953075" lon="7.5209444"><ele>274.0</ele><time>2026-04-12T18:23:47.975Z</time></trkpt><trkpt lat="44.9951542" lon="7.5206516"><ele>274.5</ele><time>2026-04-12T18:23:48.983Z</time></trkpt><trkpt lat="44.9949978" lon="7.5203664"><ele>275.0</ele><time>2026-04-12T18:23:49.984Z</time></trkpt><trkpt lat="44.9948404" lon="7.5200902"><ele>275.0</ele><time>2026-04-12T18:23:50.975Z</time></trkpt><trkpt lat="44.9946869" lon="7.519824"><ele>275.0</ele><time>2026-04-12T18:23:51.981Z</time></trkpt><trkpt lat="44.9945391" lon="7.5195642"><ele>276.0</ele><time>2026-04-12T18:23:52.978Z</time></trkpt><trkpt lat="44.994396" lon="7.5193114"><ele>277.0</ele><time>2026-04-12T18:23:53.974Z</time></trkpt><trkpt lat="44.994258" lon="7.5190649"><ele>276.3333333333333</ele><time>2026-04-12T18:23:54.978Z</time></trkpt><trkpt lat="44.9941225" lon="7.5188201"><ele>275.6666666666667</ele><time>2026-04-12T18:23:55.98Z</time></trkpt><trkpt lat="44.9939858" lon="7.5185766"><ele>275.0</ele><time>2026-04-12T18:23:56.986Z</time></trkpt><trkpt lat="44.993848" lon="7.5183327"><ele>276.0</ele><time>2026-04-12T18:23:57.978Z</time></trkpt><trkpt lat="44.9937094" lon="7.5180907"><ele>277.0</ele><time>2026-04-12T18:23:58.971Z</time></trkpt><trkpt lat="44.9935708" lon="7.5178462"><ele>278.0</ele><time>2026-04-12T18:23:59.988Z</time></trkpt><trkpt lat="44.9934303" lon="7.5175984"><ele>277.5</ele><time>2026-04-12T18:24:00.979Z</time></trkpt><trkpt lat="44.9932874" lon="7.5173465"><ele>277.0</ele><time>2026-04-12T18:24:01.98Z</time></trkpt><trkpt lat="44.9931428" lon="7.517092"><ele>276.5</ele><time>2026-04-12T18:24:02.983Z</time></trkpt><trkpt lat="44.9929961" lon="7.5168349"><ele>276.0</ele><time>2026-04-12T18:24:03.983Z</time></trkpt><trkpt lat="44.9928481" lon="7.5165761"><ele>276.0</ele><time>2026-04-12T18:24:04.984Z</time></trkpt><trkpt lat="44.9927" lon="7.5163157"><ele>276.0</ele><time>2026-04-12T18:24:05.987Z</time></trkpt><trkpt lat="44.9925502" lon="7.5160522"><ele>275.0</ele><time>2026-04-12T18:24:06.981Z</time></trkpt><trkpt lat="44.9923985" lon="7.5157867"><ele>274.0</ele><time>2026-04-12T18:24:07.987Z</time></trkpt><trkpt lat="44.9922444" lon="7.5155206"><ele>274.5</ele><time>2026-04-12T18:24:08.983Z</time></trkpt><trkpt lat="44.9920863" lon="7.5152554"><ele>275.0</ele><time>2026-04-12T18:24:09.975Z</time></trkpt><trkpt lat="44.9919286" lon="7.5149921"><ele>275.0</ele><time>2026-04-12T18:24:10.973Z</time></trkpt><trkpt lat="44.9917773" lon="7.5147326"><ele>275.0</ele><time>2026-04-12T18:24:11.989Z</time></trkpt><trkpt lat="44.9916327" lon="7.5144778"><ele>275.0</ele><time>2026-04-12T18:24:12.981Z</time></trkpt><trkpt lat="44.9914938" lon="7.5142304"><ele>275.0</ele><time>2026-04-12T18:24:13.989Z</time></trkpt><trkpt lat="44.9913572" lon="7.5139917"><ele>275.0</ele><time>2026-04-12T18:24:14.983Z</time></trkpt><trkpt lat="44.9912234" lon="7.51376"><ele>274.33333333333337</ele><time>2026-04-12T18:24:15.978Z</time></trkpt><trkpt lat="44.9910895" lon="7.5135297"><ele>273.6666666666667</ele><time>2026-04-12T18:24:16.984Z</time></trkpt><trkpt lat="44.9909545" lon="7.5132932"><ele>273.0</ele><time>2026-04-12T18:24:17.976Z</time></trkpt><trkpt lat="44.9908181" lon="7.5130512"><ele>274.0</ele><time>2026-04-12T18:24:18.984Z</time></trkpt><trkpt lat="44.9906783" lon="7.5128044"><ele>275.0</ele><time>2026-04-12T18:24:19.97Z</time></trkpt><trkpt lat="44.9905359" lon="7.5125531"><ele>275.0</ele><time>2026-04-12T18:24:20.972Z</time></trkpt><trkpt lat="44.9903914" lon="7.5122986"><ele>275.0</ele><time>2026-04-12T18:24:21.977Z</time></trkpt><trkpt lat="44.9902449" lon="7.5120404"><ele>273.0</ele><time>2026-04-12T18:24:22.987Z</time></trkpt><trkpt lat="44.9900963" lon="7.5117793"><ele>271.0</ele><time>2026-04-12T18:24:23.991Z</time></trkpt><trkpt lat="44.989948" lon="7.5115181"><ele>271.0</ele><time>2026-04-12T18:24:24.982Z</time></trkpt><trkpt lat="44.9897998" lon="7.5112568"><ele>271.0</ele><time>2026-04-12T18:24:25.987Z</time></trkpt><trkpt lat="44.9896524" lon="7.5109957"><ele>271.0</ele><time>2026-04-12T18:24:26.971Z</time></trkpt><trkpt lat="44.9895069" lon="7.5107318"><ele>271.0</ele><time>2026-04-12T18:24:27.99Z</time></trkpt><trkpt lat="44.9893628" lon="7.5104629"><ele>270.5</ele><time>2026-04-12T18:24:28.985Z</time></trkpt><trkpt lat="44.989223" lon="7.510191"><ele>270.0</ele><time>2026-04-12T18:24:29.98Z</time></trkpt><trkpt lat="44.9890859" lon="7.5099176"><ele>270.5</ele><time>2026-04-12T18:24:30.98Z</time></trkpt><trkpt lat="44.9889506" lon="7.5096418"><ele>271.0</ele><time>2026-04-12T18:24:31.985Z</time></trkpt><trkpt lat="44.9888153" lon="7.5093661"><ele>271.0</ele><time>2026-04-12T18:24:32.987Z</time></trkpt><trkpt lat="44.9886791" lon="7.5090913"><ele>271.0</ele><time>2026-04-12T18:24:33.981Z</time></trkpt><trkpt lat="44.9885414" lon="7.5088197"><ele>272.0</ele><time>2026-04-12T18:24:34.987Z</time></trkpt><trkpt lat="44.9884002" lon="7.50855"><ele>273.0</ele><time>2026-04-12T18:24:35.994Z</time></trkpt><trkpt lat="44.9882563" lon="7.5082817"><ele>274.0</ele><time>2026-04-12T18:24:36.983Z</time></trkpt><trkpt lat="44.9881132" lon="7.5080151"><ele>275.0</ele><time>2026-04-12T18:24:37.98Z</time></trkpt><trkpt lat="44.9879722" lon="7.5077469"><ele>275.5</ele><time>2026-04-12T18:24:38.98Z</time></trkpt><trkpt lat="44.9878344" lon="7.5074756"><ele>276.0</ele><time>2026-04-12T18:24:39.984Z</time></trkpt><trkpt lat="44.9876995" lon="7.5071998"><ele>276.0</ele><time>2026-04-12T18:24:40.989Z</time></trkpt><trkpt lat="44.987566" lon="7.5069214"><ele>276.0</ele><time>2026-04-12T18:24:41.982Z</time></trkpt><trkpt lat="44.9874315" lon="7.5066431"><ele>276.0</ele><time>2026-04-12T18:24:42.989Z</time></trkpt><trkpt lat="44.9872962" lon="7.5063676"><ele>276.0</ele><time>2026-04-12T18:24:43.976Z</time></trkpt><trkpt lat="44.9871625" lon="7.5061004"><ele>276.6666666666667</ele><time>2026-04-12T18:24:44.981Z</time></trkpt><trkpt lat="44.9870304" lon="7.5058385"><ele>277.33333333333337</ele><time>2026-04-12T18:24:45.971Z</time></trkpt><trkpt lat="44.9869031" lon="7.5055823"><ele>278.0</ele><time>2026-04-12T18:24:46.975Z</time></trkpt><trkpt lat="44.9867787" lon="7.5053315"><ele>277.33333333333337</ele><time>2026-04-12T18:24:47.975Z</time></trkpt><trkpt lat="44.9866559" lon="7.5050878"><ele>276.6666666666667</ele><time>2026-04-12T18:24:48.984Z</time></trkpt><trkpt lat="44.9865346" lon="7.5048523"><ele>276.0</ele><time>2026-04-12T18:24:49.98Z</time></trkpt><trkpt lat="44.986415" lon="7.5046201"><ele>276.0</ele><time>2026-04-12T18:24:50.982Z</time></trkpt><trkpt lat="44.9862999" lon="7.504395"><ele>276.0</ele><time>2026-04-12T18:24:51.988Z</time></trkpt><trkpt lat="44.9861893" lon="7.5041754"><ele>276.0</ele><time>2026-04-12T18:24:52.973Z</time></trkpt><trkpt lat="44.9860821" lon="7.5039644"><ele>276.0</ele><time>2026-04-12T18:24:53.985Z</time></trkpt><trkpt lat="44.9859779" lon="7.5037608"><ele>276.0</ele><time>2026-04-12T18:24:54.97Z</time></trkpt><trkpt lat="44.985878" lon="7.5035628"><ele>276.0</ele><time>2026-04-12T18:24:55.974Z</time></trkpt><trkpt lat="44.9857819" lon="7.5033726"><ele>276.0</ele><time>2026-04-12T18:24:56.973Z</time></trkpt><trkpt lat="44.9856924" lon="7.5031886"><ele>276.0</ele><time>2026-04-12T18:24:57.978Z</time></trkpt><trkpt lat="44.9856144" lon="7.503004"><ele>276.0</ele><time>2026-04-12T18:24:58.989Z</time></trkpt><trkpt lat="44.9855538" lon="7.5028163"><ele>276.25</ele><time>2026-04-12T18:24:59.97Z</time></trkpt><trkpt lat="44.9855124" lon="7.5026242"><ele>276.5</ele><time>2026-04-12T18:25:00.969Z</time></trkpt><trkpt lat="44.985489" lon="7.502428"><ele>276.75</ele><time>2026-04-12T18:25:01.978Z</time></trkpt><trkpt lat="44.9854775" lon="7.5022389"><ele>277.0</ele><time>2026-04-12T18:25:02.976Z</time></trkpt><trkpt lat="44.9854658" lon="7.5020615"><ele>277.0</ele><time>2026-04-12T18:25:03.979Z</time></trkpt><trkpt lat="44.9854369" lon="7.5019102"><ele>277.0</ele><time>2026-04-12T18:25:04.97Z</time></trkpt><trkpt lat="44.9853836" lon="7.5017851"><ele>277.0</ele><time>2026-04-12T18:25:05.971Z</time></trkpt><trkpt lat="44.9853043" lon="7.5016789"><ele>277.0</ele><time>2026-04-12T18:25:06.969Z</time></trkpt><trkpt lat="44.9852045" lon="7.5015969"><ele>277.0</ele><time>2026-04-12T18:25:07.987Z</time></trkpt><trkpt lat="44.9850908" lon="7.5015281"><ele>276.75</ele><time>2026-04-12T18:25:08.985Z</time></trkpt><trkpt lat="44.9849735" lon="7.5014472"><ele>276.5</ele><time>2026-04-12T18:25:09.984Z</time></trkpt><trkpt lat="44.9848561" lon="7.5013498"><ele>276.25</ele><time>2026-04-12T18:25:10.981Z</time></trkpt><trkpt lat="44.9847429" lon="7.5012204"><ele>276.0</ele><time>2026-04-12T18:25:11.985Z</time></trkpt><trkpt lat="44.9846424" lon="7.5010563"><ele>275.0</ele><time>2026-04-12T18:25:12.979Z</time></trkpt><trkpt lat="44.9845504" lon="7.500872"><ele>274.0</ele><time>2026-04-12T18:25:13.975Z</time></trkpt><trkpt lat="44.9844598" lon="7.5006787"><ele>273.0</ele><time>2026-04-12T18:25:14.982Z</time></trkpt><trkpt lat="44.9843648" lon="7.500478"><ele>273.0</ele><time>2026-04-12T18:25:15.993Z</time></trkpt><trkpt lat="44.984266" lon="7.5002641"><ele>273.0</ele><time>2026-04-12T18:25:16.977Z</time></trkpt><trkpt lat="44.9841603" lon="7.5000466"><ele>273.0</ele><time>2026-04-12T18:25:17.98Z</time></trkpt><trkpt lat="44.984048" lon="7.4998247"><ele>273.0</ele><time>2026-04-12T18:25:18.978Z</time></trkpt><trkpt lat="44.9839308" lon="7.499594"><ele>273.0</ele><time>2026-04-12T18:25:19.983Z</time></trkpt><trkpt lat="44.9838127" lon="7.4993561"><ele>273.0</ele><time>2026-04-12T18:25:20.99Z</time></trkpt><trkpt lat="44.983696" lon="7.4991124"><ele>273.3333333333333</ele><time>2026-04-12T18:25:21.991Z</time></trkpt><trkpt lat="44.9835853" lon="7.498871"><ele>273.66666666666663</ele><time>2026-04-12T18:25:22.989Z</time></trkpt><trkpt lat="44.9834778" lon="7.4986297"><ele>274.0</ele><time>2026-04-12T18:25:23.97Z</time></trkpt><trkpt lat="44.9833703" lon="7.4983875"><ele>274.0</ele><time>2026-04-12T18:25:24.989Z</time></trkpt><trkpt lat="44.9832628" lon="7.4981405"><ele>274.0</ele><time>2026-04-12T18:25:25.976Z</time></trkpt><trkpt lat="44.9831554" lon="7.4978872"><ele>274.0</ele><time>2026-04-12T18:25:26.987Z</time></trkpt><trkpt lat="44.9830493" lon="7.4976299"><ele>273.3333333333333</ele><time>2026-04-12T18:25:27.984Z</time></trkpt><trkpt lat="44.9829444" lon="7.497368"><ele>272.6666666666667</ele><time>2026-04-12T18:25:28.991Z</time></trkpt><trkpt lat="44.9828413" lon="7.4971021"><ele>272.0</ele><time>2026-04-12T18:25:29.985Z</time></trkpt><trkpt lat="44.9827421" lon="7.4968327"><ele>272.0</ele><time>2026-04-12T18:25:30.981Z</time></trkpt><trkpt lat="44.9826455" lon="7.496563"><ele>272.0</ele><time>2026-04-12T18:25:31.995Z</time></trkpt><trkpt lat="44.9825485" lon="7.4962886"><ele>272.0</ele><time>2026-04-12T18:25:32.983Z</time></trkpt><trkpt lat="44.9824526" lon="7.496007"><ele>272.0</ele><time>2026-04-12T18:25:33.968Z</time></trkpt><trkpt lat="44.9823587" lon="7.4957215"><ele>272.0</ele><time>2026-04-12T18:25:34.989Z</time></trkpt><trkpt lat="44.9822693" lon="7.4954318"><ele>272.0</ele><time>2026-04-12T18:25:35.995Z</time></trkpt><trkpt lat="44.9821831" lon="7.4951377"><ele>273.5</ele><time>2026-04-12T18:25:36.99Z</time></trkpt><trkpt lat="44.9821005" lon="7.4948382"><ele>275.0</ele><time>2026-04-12T18:25:37.972Z</time></trkpt><trkpt lat="44.9820222" lon="7.4945358"><ele>276.0</ele><time>2026-04-12T18:25:38.969Z</time></trkpt><trkpt lat="44.9819461" lon="7.494231"><ele>277.0</ele><time>2026-04-12T18:25:39.981Z</time></trkpt><trkpt lat="44.9818724" lon="7.4939242"><ele>276.5</ele><time>2026-04-12T18:25:40.978Z</time></trkpt><trkpt lat="44.9818021" lon="7.4936139"><ele>276.0</ele><time>2026-04-12T18:25:41.991Z</time></trkpt><trkpt lat="44.9817352" lon="7.4933003"><ele>276.0</ele><time>2026-04-12T18:25:42.978Z</time></trkpt><trkpt lat="44.9816729" lon="7.4929848"><ele>276.0</ele><time>2026-04-12T18:25:43.978Z</time></trkpt><trkpt lat="44.981615" lon="7.4926666"><ele>276.0</ele><time>2026-04-12T18:25:44.981Z</time></trkpt><trkpt lat="44.9815607" lon="7.4923463"><ele>276.0</ele><time>2026-04-12T18:25:45.981Z</time></trkpt><trkpt lat="44.9815097" lon="7.4920252"><ele>274.0</ele><time>2026-04-12T18:25:46.98Z</time></trkpt><trkpt lat="44.9814611" lon="7.4917044"><ele>272.0</ele><time>2026-04-12T18:25:47.989Z</time></trkpt><trkpt lat="44.9814154" lon="7.491384"><ele>273.0</ele><time>2026-04-12T18:25:48.985Z</time></trkpt><trkpt lat="44.9813725" lon="7.4910623"><ele>274.0</ele><time>2026-04-12T18:25:49.98Z</time></trkpt><trkpt lat="44.9813313" lon="7.4907381"><ele>275.0</ele><time>2026-04-12T18:25:50.992Z</time></trkpt><trkpt lat="44.9812902" lon="7.4904131"><ele>276.0</ele><time>2026-04-12T18:25:51.986Z</time></trkpt><trkpt lat="44.9812488" lon="7.490087"><ele>276.0</ele><time>2026-04-12T18:25:52.992Z</time></trkpt><trkpt lat="44.9812072" lon="7.4897606"><ele>276.0</ele><time>2026-04-12T18:25:53.983Z</time></trkpt><trkpt lat="44.9811662" lon="7.4894338"><ele>277.0</ele><time>2026-04-12T18:25:54.974Z</time></trkpt><trkpt lat="44.9811259" lon="7.489109"><ele>278.0</ele><time>2026-04-12T18:25:55.99Z</time></trkpt><trkpt lat="44.9810848" lon="7.4887831"><ele>279.0</ele><time>2026-04-12T18:25:56.991Z</time></trkpt><trkpt lat="44.9810423" lon="7.4884553"><ele>280.0</ele><time>2026-04-12T18:25:57.978Z</time></trkpt><trkpt lat="44.9810012" lon="7.4881284"><ele>279.0</ele><time>2026-04-12T18:25:58.979Z</time></trkpt><trkpt lat="44.9809598" lon="7.4878002"><ele>278.0</ele><time>2026-04-12T18:25:59.98Z</time></trkpt><trkpt lat="44.9809186" lon="7.4874738"><ele>278.0</ele><time>2026-04-12T18:26:00.988Z</time></trkpt><trkpt lat="44.9808773" lon="7.4871495"><ele>278.0</ele><time>2026-04-12T18:26:01.997Z</time></trkpt><trkpt lat="44.9808371" lon="7.4868234"><ele>278.5</ele><time>2026-04-12T18:26:02.978Z</time></trkpt><trkpt lat="44.9807974" lon="7.486496"><ele>279.0</ele><time>2026-04-12T18:26:03.98Z</time></trkpt><trkpt lat="44.9807556" lon="7.486169"><ele>279.0</ele><time>2026-04-12T18:26:04.979Z</time></trkpt><trkpt lat="44.9807125" lon="7.4858389"><ele>279.0</ele><time>2026-04-12T18:26:05.983Z</time></trkpt><trkpt lat="44.9806682" lon="7.4855071"><ele>280.5</ele><time>2026-04-12T18:26:06.987Z</time></trkpt><trkpt lat="44.980624" lon="7.4851749"><ele>282.0</ele><time>2026-04-12T18:26:07.983Z</time></trkpt><trkpt lat="44.9805789" lon="7.484842"><ele>280.5</ele><time>2026-04-12T18:26:08.998Z</time></trkpt><trkpt lat="44.9805337" lon="7.4845054"><ele>279.0</ele><time>2026-04-12T18:26:09.979Z</time></trkpt><trkpt lat="44.9804891" lon="7.4841655"><ele>279.0</ele><time>2026-04-12T18:26:10.962Z</time></trkpt><trkpt lat="44.980445" lon="7.483828"><ele>279.0</ele><time>2026-04-12T18:26:11.971Z</time></trkpt><trkpt lat="44.9804014" lon="7.4834895"><ele>278.5</ele><time>2026-04-12T18:26:12.976Z</time></trkpt><trkpt lat="44.9803576" lon="7.4831516"><ele>278.0</ele><time>2026-04-12T18:26:13.987Z</time></trkpt><trkpt lat="44.9803152" lon="7.4828144"><ele>278.0</ele><time>2026-04-12T18:26:14.98Z</time></trkpt><trkpt lat="44.9802729" lon="7.4824797"><ele>278.0</ele><time>2026-04-12T18:26:15.992Z</time></trkpt><trkpt lat="44.9802316" lon="7.4821451"><ele>277.0</ele><time>2026-04-12T18:26:16.986Z</time></trkpt><trkpt lat="44.9801895" lon="7.4818101"><ele>276.0</ele><time>2026-04-12T18:26:17.98Z</time></trkpt><trkpt lat="44.9801461" lon="7.4814748"><ele>276.0</ele><time>2026-04-12T18:26:18.984Z</time></trkpt><trkpt lat="44.9801017" lon="7.4811392"><ele>276.0</ele><time>2026-04-12T18:26:19.985Z</time></trkpt><trkpt lat="44.9800569" lon="7.4808002"><ele>277.5</ele><time>2026-04-12T18:26:20.992Z</time></trkpt><trkpt lat="44.9800129" lon="7.4804589"><ele>279.0</ele><time>2026-04-12T18:26:21.995Z</time></trkpt><trkpt lat="44.9799693" lon="7.4801151"><ele>279.5</ele><time>2026-04-12T18:26:22.988Z</time></trkpt><trkpt lat="44.9799255" lon="7.4797691"><ele>280.0</ele><time>2026-04-12T18:26:23.985Z</time></trkpt><trkpt lat="44.979883" lon="7.4794229"><ele>280.0</ele><time>2026-04-12T18:26:24.966Z</time></trkpt><trkpt lat="44.9798418" lon="7.4790764"><ele>280.0</ele><time>2026-04-12T18:26:25.985Z</time></trkpt><trkpt lat="44.9797984" lon="7.4787318"><ele>280.0</ele><time>2026-04-12T18:26:26.977Z</time></trkpt><trkpt lat="44.9797542" lon="7.4783872"><ele>280.0</ele><time>2026-04-12T18:26:27.991Z</time></trkpt><trkpt lat="44.9797112" lon="7.4780431"><ele>279.5</ele><time>2026-04-12T18:26:28.978Z</time></trkpt><trkpt lat="44.9796688" lon="7.4776993"><ele>279.0</ele><time>2026-04-12T18:26:29.979Z</time></trkpt><trkpt lat="44.9796241" lon="7.4773542"><ele>279.0</ele><time>2026-04-12T18:26:30.986Z</time></trkpt><trkpt lat="44.9795791" lon="7.4770075"><ele>279.0</ele><time>2026-04-12T18:26:31.989Z</time></trkpt><trkpt lat="44.9795329" lon="7.4766616"><ele>279.0</ele><time>2026-04-12T18:26:32.98Z</time></trkpt><trkpt lat="44.9794877" lon="7.4763155"><ele>279.0</ele><time>2026-04-12T18:26:33.971Z</time></trkpt><trkpt lat="44.9794432" lon="7.4759686"><ele>279.5</ele><time>2026-04-12T18:26:34.971Z</time></trkpt><trkpt lat="44.9793978" lon="7.4756202"><ele>280.0</ele><time>2026-04-12T18:26:35.979Z</time></trkpt><trkpt lat="44.9793527" lon="7.475272"><ele>279.0</ele><time>2026-04-12T18:26:36.991Z</time></trkpt><trkpt lat="44.9793096" lon="7.4749227"><ele>278.0</ele><time>2026-04-12T18:26:37.975Z</time></trkpt><trkpt lat="44.9792666" lon="7.474571"><ele>278.0</ele><time>2026-04-12T18:26:38.993Z</time></trkpt><trkpt lat="44.9792232" lon="7.4742197"><ele>278.0</ele><time>2026-04-12T18:26:39.975Z</time></trkpt><trkpt lat="44.9791782" lon="7.4738733"><ele>278.0</ele><time>2026-04-12T18:26:40.981Z</time></trkpt><trkpt lat="44.979132" lon="7.4735285"><ele>278.0</ele><time>2026-04-12T18:26:41.989Z</time></trkpt><trkpt lat="44.9790851" lon="7.473183"><ele>278.5</ele><time>2026-04-12T18:26:42.98Z</time></trkpt><trkpt lat="44.9790367" lon="7.4728389"><ele>279.0</ele><time>2026-04-12T18:26:43.987Z</time></trkpt><trkpt lat="44.9789877" lon="7.4724953"><ele>279.0</ele><time>2026-04-12T18:26:44.968Z</time></trkpt><trkpt lat="44.9789379" lon="7.4721493"><ele>279.0</ele><time>2026-04-12T18:26:45.99Z</time></trkpt><trkpt lat="44.9788913" lon="7.4717981"><ele>279.0</ele><time>2026-04-12T18:26:46.965Z</time></trkpt><trkpt lat="44.9788457" lon="7.4714456"><ele>279.0</ele><time>2026-04-12T18:26:47.987Z</time></trkpt><trkpt lat="44.9788" lon="7.4710906"><ele>279.0</ele><time>2026-04-12T18:26:48.988Z</time></trkpt><trkpt lat="44.9787536" lon="7.4707347"><ele>279.0</ele><time>2026-04-12T18:26:49.993Z</time></trkpt><trkpt lat="44.9787049" lon="7.4703769"><ele>278.0</ele><time>2026-04-12T18:26:50.991Z</time></trkpt><trkpt lat="44.9786519" lon="7.4700181"><ele>277.0</ele><time>2026-04-12T18:26:51.981Z</time></trkpt><trkpt lat="44.9785955" lon="7.4696602"><ele>278.0</ele><time>2026-04-12T18:26:52.996Z</time></trkpt><trkpt lat="44.9785399" lon="7.4693025"><ele>279.0</ele><time>2026-04-12T18:26:53.986Z</time></trkpt><trkpt lat="44.9784853" lon="7.4689455"><ele>278.0</ele><time>2026-04-12T18:26:54.979Z</time></trkpt><trkpt lat="44.9784319" lon="7.4685908"><ele>277.0</ele><time>2026-04-12T18:26:55.976Z</time></trkpt><trkpt lat="44.9783818" lon="7.4682378"><ele>278.0</ele><time>2026-04-12T18:26:56.985Z</time></trkpt><trkpt lat="44.978332" lon="7.4678848"><ele>279.0</ele><time>2026-04-12T18:26:57.981Z</time></trkpt><trkpt lat="44.9782824" lon="7.467532"><ele>279.0</ele><time>2026-04-12T18:26:58.985Z</time></trkpt><trkpt lat="44.978233" lon="7.467181"><ele>279.0</ele><time>2026-04-12T18:26:59.982Z</time></trkpt><trkpt lat="44.9781854" lon="7.4668324"><ele>279.0</ele><time>2026-04-12T18:27:00.98Z</time></trkpt><trkpt lat="44.9781395" lon="7.4664831"><ele>279.0</ele><time>2026-04-12T18:27:01.985Z</time></trkpt><trkpt lat="44.9780956" lon="7.4661333"><ele>279.5</ele><time>2026-04-12T18:27:02.985Z</time></trkpt><trkpt lat="44.9780523" lon="7.4657823"><ele>280.0</ele><time>2026-04-12T18:27:03.993Z</time></trkpt><trkpt lat="44.9780098" lon="7.4654303"><ele>280.5</ele><time>2026-04-12T18:27:04.983Z</time></trkpt><trkpt lat="44.9779665" lon="7.4650768"><ele>281.0</ele><time>2026-04-12T18:27:05.987Z</time></trkpt><trkpt lat="44.977923" lon="7.4647241"><ele>280.5</ele><time>2026-04-12T18:27:06.981Z</time></trkpt><trkpt lat="44.9778782" lon="7.4643722"><ele>280.0</ele><time>2026-04-12T18:27:07.98Z</time></trkpt><trkpt lat="44.9778336" lon="7.4640207"><ele>279.5</ele><time>2026-04-12T18:27:08.987Z</time></trkpt><trkpt lat="44.9777879" lon="7.4636698"><ele>279.0</ele><time>2026-04-12T18:27:09.981Z</time></trkpt><trkpt lat="44.977741" lon="7.4633195"><ele>279.0</ele><time>2026-04-12T18:27:10.966Z</time></trkpt><trkpt lat="44.9776943" lon="7.4629681"><ele>279.0</ele><time>2026-04-12T18:27:11.978Z</time></trkpt><trkpt lat="44.9776465" lon="7.4626182"><ele>279.5</ele><time>2026-04-12T18:27:12.984Z</time></trkpt><trkpt lat="44.9775992" lon="7.4622697"><ele>280.0</ele><time>2026-04-12T18:27:13.991Z</time></trkpt><trkpt lat="44.9775523" lon="7.4619216"><ele>280.5</ele><time>2026-04-12T18:27:14.98Z</time></trkpt><trkpt lat="44.977507" lon="7.4615729"><ele>281.0</ele><time>2026-04-12T18:27:15.978Z</time></trkpt><trkpt lat="44.9774619" lon="7.4612252"><ele>281.5</ele><time>2026-04-12T18:27:16.986Z</time></trkpt><trkpt lat="44.9774172" lon="7.4608791"><ele>282.0</ele><time>2026-04-12T18:27:17.967Z</time></trkpt><trkpt lat="44.9773715" lon="7.4605333"><ele>281.0</ele><time>2026-04-12T18:27:18.992Z</time></trkpt><trkpt lat="44.9773257" lon="7.460189"><ele>280.0</ele><time>2026-04-12T18:27:19.99Z</time></trkpt><trkpt lat="44.9772787" lon="7.4598453"><ele>279.5</ele><time>2026-04-12T18:27:20.981Z</time></trkpt><trkpt lat="44.977232" lon="7.4595011"><ele>279.0</ele><time>2026-04-12T18:27:21.972Z</time></trkpt><trkpt lat="44.9771853" lon="7.4591581"><ele>279.0</ele><time>2026-04-12T18:27:22.974Z</time></trkpt><trkpt lat="44.9771383" lon="7.4588158"><ele>279.0</ele><time>2026-04-12T18:27:23.987Z</time></trkpt><trkpt lat="44.9770899" lon="7.4584752"><ele>279.0</ele><time>2026-04-12T18:27:24.972Z</time></trkpt><trkpt lat="44.9770419" lon="7.4581342"><ele>279.0</ele><time>2026-04-12T18:27:25.978Z</time></trkpt><trkpt lat="44.9769958" lon="7.4577939"><ele>279.0</ele><time>2026-04-12T18:27:26.987Z</time></trkpt><trkpt lat="44.97695" lon="7.4574556"><ele>279.0</ele><time>2026-04-12T18:27:27.993Z</time></trkpt><trkpt lat="44.9769048" lon="7.4571189"><ele>279.5</ele><time>2026-04-12T18:27:28.987Z</time></trkpt><trkpt lat="44.9768582" lon="7.4567818"><ele>280.0</ele><time>2026-04-12T18:27:29.98Z</time></trkpt><trkpt lat="44.9768113" lon="7.4564445"><ele>280.0</ele><time>2026-04-12T18:27:30.977Z</time></trkpt><trkpt lat="44.9767659" lon="7.4561065"><ele>280.0</ele><time>2026-04-12T18:27:31.993Z</time></trkpt><trkpt lat="44.9767203" lon="7.4557687"><ele>279.5</ele><time>2026-04-12T18:27:32.983Z</time></trkpt><trkpt lat="44.9766745" lon="7.4554306"><ele>279.0</ele><time>2026-04-12T18:27:33.988Z</time></trkpt><trkpt lat="44.9766287" lon="7.4550924"><ele>279.0</ele><time>2026-04-12T18:27:34.977Z</time></trkpt><trkpt lat="44.9765827" lon="7.454752"><ele>279.0</ele><time>2026-04-12T18:27:35.979Z</time></trkpt><trkpt lat="44.9765371" lon="7.4544105"><ele>279.0</ele><time>2026-04-12T18:27:36.992Z</time></trkpt><trkpt lat="44.9764913" lon="7.4540703"><ele>279.0</ele><time>2026-04-12T18:27:37.982Z</time></trkpt><trkpt lat="44.9764458" lon="7.4537307"><ele>278.0</ele><time>2026-04-12T18:27:38.986Z</time></trkpt><trkpt lat="44.9763998" lon="7.4533902"><ele>277.0</ele><time>2026-04-12T18:27:39.991Z</time></trkpt><trkpt lat="44.9763538" lon="7.4530493"><ele>278.0</ele><time>2026-04-12T18:27:40.984Z</time></trkpt><trkpt lat="44.9763073" lon="7.4527069"><ele>279.0</ele><time>2026-04-12T18:27:41.982Z</time></trkpt><trkpt lat="44.9762607" lon="7.4523647"><ele>278.5</ele><time>2026-04-12T18:27:42.992Z</time></trkpt><trkpt lat="44.9762138" lon="7.4520225"><ele>278.0</ele><time>2026-04-12T18:27:43.984Z</time></trkpt><trkpt lat="44.9761668" lon="7.4516809"><ele>278.0</ele><time>2026-04-12T18:27:44.987Z</time></trkpt><trkpt lat="44.9761194" lon="7.4513455"><ele>278.0</ele><time>2026-04-12T18:27:45.974Z</time></trkpt><trkpt lat="44.9760726" lon="7.4510241"><ele>278.33333333333337</ele><time>2026-04-12T18:27:46.981Z</time></trkpt><trkpt lat="44.9760266" lon="7.4507168"><ele>278.6666666666667</ele><time>2026-04-12T18:27:47.98Z</time></trkpt><trkpt lat="44.9759822" lon="7.4504215"><ele>279.0</ele><time>2026-04-12T18:27:48.97Z</time></trkpt><trkpt lat="44.9759406" lon="7.4501405"><ele>279.3333333333333</ele><time>2026-04-12T18:27:49.989Z</time></trkpt><trkpt lat="44.9759007" lon="7.4498735"><ele>279.66666666666663</ele><time>2026-04-12T18:27:50.981Z</time></trkpt><trkpt lat="44.9758579" lon="7.4496172"><ele>280.0</ele><time>2026-04-12T18:27:51.985Z</time></trkpt><trkpt lat="44.975816" lon="7.4493696"><ele>279.3333333333333</ele><time>2026-04-12T18:27:52.981Z</time></trkpt><trkpt lat="44.9757733" lon="7.4491204"><ele>278.6666666666667</ele><time>2026-04-12T18:27:53.977Z</time></trkpt><trkpt lat="44.9757294" lon="7.4488685"><ele>278.0</ele><time>2026-04-12T18:27:54.98Z</time></trkpt><trkpt lat="44.9756831" lon="7.4486165"><ele>278.0</ele><time>2026-04-12T18:27:55.981Z</time></trkpt><trkpt lat="44.9756364" lon="7.4483665"><ele>278.0</ele><time>2026-04-12T18:27:56.975Z</time></trkpt><trkpt lat="44.97559" lon="7.4481248"><ele>278.0</ele><time>2026-04-12T18:27:57.989Z</time></trkpt><trkpt lat="44.9755424" lon="7.4478921"><ele>278.0</ele><time>2026-04-12T18:27:58.98Z</time></trkpt><trkpt lat="44.9754949" lon="7.4476708"><ele>278.0</ele><time>2026-04-12T18:27:59.971Z</time></trkpt><trkpt lat="44.9754512" lon="7.4474627"><ele>278.0</ele><time>2026-04-12T18:28:00.974Z</time></trkpt><trkpt lat="44.9754116" lon="7.4472713"><ele>278.1666666666667</ele><time>2026-04-12T18:28:01.982Z</time></trkpt><trkpt lat="44.9753841" lon="7.4471112"><ele>278.33333333333337</ele><time>2026-04-12T18:28:02.985Z</time></trkpt><trkpt lat="44.9753752" lon="7.4469773"><ele>278.5</ele><time>2026-04-12T18:28:03.984Z</time></trkpt><trkpt lat="44.9753948" lon="7.4468701"><ele>278.6666666666667</ele><time>2026-04-12T18:28:04.973Z</time></trkpt><trkpt lat="44.9754472" lon="7.4467952"><ele>278.8333333333333</ele><time>2026-04-12T18:28:05.981Z</time></trkpt><trkpt lat="44.9755075" lon="7.4467292"><ele>279.0</ele><time>2026-04-12T18:28:06.983Z</time></trkpt><trkpt lat="44.9755518" lon="7.4466588"><ele>279.0</ele><time>2026-04-12T18:28:07.977Z</time></trkpt><trkpt lat="44.9755757" lon="7.4464933"><ele>279.0</ele><time>2026-04-12T18:28:09.981Z</time></trkpt><trkpt lat="44.9755529" lon="7.4464063"><ele>279.0</ele><time>2026-04-12T18:28:10.969Z</time></trkpt><trkpt lat="44.9755077" lon="7.4463235"><ele>279.0</ele><time>2026-04-12T18:28:11.982Z</time></trkpt><trkpt lat="44.9754361" lon="7.4462251"><ele>279.0</ele><time>2026-04-12T18:28:12.967Z</time></trkpt><trkpt lat="44.9753557" lon="7.4461295"><ele>279.0</ele><time>2026-04-12T18:28:13.985Z</time></trkpt><trkpt lat="44.9752671" lon="7.4460184"><ele>279.0</ele><time>2026-04-12T18:28:14.97Z</time></trkpt><trkpt lat="44.9751766" lon="7.4458848"><ele>279.0</ele><time>2026-04-12T18:28:15.968Z</time></trkpt><trkpt lat="44.9750882" lon="7.4457355"><ele>279.0</ele><time>2026-04-12T18:28:16.981Z</time></trkpt><trkpt lat="44.9750088" lon="7.4455802"><ele>280.0</ele><time>2026-04-12T18:28:17.976Z</time></trkpt><trkpt lat="44.9749317" lon="7.4454109"><ele>281.0</ele><time>2026-04-12T18:28:18.985Z</time></trkpt><trkpt lat="44.9748513" lon="7.44523"><ele>282.0</ele><time>2026-04-12T18:28:19.981Z</time></trkpt><trkpt lat="44.9747713" lon="7.4450361"><ele>282.0</ele><time>2026-04-12T18:28:20.977Z</time></trkpt><trkpt lat="44.9746897" lon="7.4448337"><ele>282.0</ele><time>2026-04-12T18:28:21.982Z</time></trkpt><trkpt lat="44.9746064" lon="7.4446253"><ele>282.0</ele><time>2026-04-12T18:28:22.983Z</time></trkpt><trkpt lat="44.9745215" lon="7.4444188"><ele>281.0</ele><time>2026-04-12T18:28:23.982Z</time></trkpt><trkpt lat="44.9744369" lon="7.4442144"><ele>280.0</ele><time>2026-04-12T18:28:24.984Z</time></trkpt><trkpt lat="44.9743537" lon="7.4440106"><ele>279.0</ele><time>2026-04-12T18:28:25.973Z</time></trkpt><trkpt lat="44.9742719" lon="7.4438069"><ele>279.3333333333333</ele><time>2026-04-12T18:28:26.981Z</time></trkpt><trkpt lat="44.9741903" lon="7.4436104"><ele>279.66666666666663</ele><time>2026-04-12T18:28:27.977Z</time></trkpt><trkpt lat="44.97411" lon="7.4434201"><ele>280.0</ele><time>2026-04-12T18:28:28.975Z</time></trkpt><trkpt lat="44.9740347" lon="7.4432397"><ele>279.0</ele><time>2026-04-12T18:28:29.98Z</time></trkpt><trkpt lat="44.9739644" lon="7.4430669"><ele>278.0</ele><time>2026-04-12T18:28:30.98Z</time></trkpt><trkpt lat="44.9739001" lon="7.442902"><ele>277.0</ele><time>2026-04-12T18:28:31.987Z</time></trkpt><trkpt lat="44.9738388" lon="7.4427453"><ele>276.0</ele><time>2026-04-12T18:28:32.97Z</time></trkpt><trkpt lat="44.9737816" lon="7.4425961"><ele>276.0</ele><time>2026-04-12T18:28:33.983Z</time></trkpt><trkpt lat="44.9737349" lon="7.4424546"><ele>276.0</ele><time>2026-04-12T18:28:34.967Z</time></trkpt><trkpt lat="44.9737087" lon="7.4423221"><ele>276.0</ele><time>2026-04-12T18:28:35.988Z</time></trkpt><trkpt lat="44.9737077" lon="7.4421996"><ele>276.0</ele><time>2026-04-12T18:28:36.969Z</time></trkpt><trkpt lat="44.9737356" lon="7.4420885"><ele>276.0</ele><time>2026-04-12T18:28:37.984Z</time></trkpt><trkpt lat="44.9737916" lon="7.441986"><ele>275.75</ele><time>2026-04-12T18:28:38.966Z</time></trkpt><trkpt lat="44.973875" lon="7.4419022"><ele>275.5</ele><time>2026-04-12T18:28:39.974Z</time></trkpt><trkpt lat="44.9739888" lon="7.4418243"><ele>275.25</ele><time>2026-04-12T18:28:40.991Z</time></trkpt><trkpt lat="44.9741144" lon="7.4417269"><ele>275.0</ele><time>2026-04-12T18:28:41.972Z</time></trkpt><trkpt lat="44.9742451" lon="7.4416152"><ele>276.0</ele><time>2026-04-12T18:28:42.974Z</time></trkpt><trkpt lat="44.9743752" lon="7.4415"><ele>277.0</ele><time>2026-04-12T18:28:43.983Z</time></trkpt><trkpt lat="44.9745057" lon="7.4413872"><ele>278.0</ele><time>2026-04-12T18:28:44.98Z</time></trkpt><trkpt lat="44.9746371" lon="7.4412741"><ele>278.33333333333337</ele><time>2026-04-12T18:28:45.98Z</time></trkpt><trkpt lat="44.9747699" lon="7.44115"><ele>278.6666666666667</ele><time>2026-04-12T18:28:46.984Z</time></trkpt><trkpt lat="44.9748986" lon="7.4410139"><ele>279.0</ele><time>2026-04-12T18:28:47.976Z</time></trkpt><trkpt lat="44.9750133" lon="7.4408622"><ele>279.25</ele><time>2026-04-12T18:28:48.966Z</time></trkpt><trkpt lat="44.9751098" lon="7.440699"><ele>279.5</ele><time>2026-04-12T18:28:49.991Z</time></trkpt><trkpt lat="44.9751785" lon="7.440515"><ele>279.75</ele><time>2026-04-12T18:28:50.984Z</time></trkpt><trkpt lat="44.9752248" lon="7.4403162"><ele>280.0</ele><time>2026-04-12T18:28:51.988Z</time></trkpt><trkpt lat="44.9752468" lon="7.4400904"><ele>280.0</ele><time>2026-04-12T18:28:52.974Z</time></trkpt><trkpt lat="44.975248" lon="7.4398467"><ele>280.0</ele><time>2026-04-12T18:28:53.981Z</time></trkpt><trkpt lat="44.975236" lon="7.4395913"><ele>280.0</ele><time>2026-04-12T18:28:54.977Z</time></trkpt><trkpt lat="44.9752157" lon="7.4393186"><ele>280.0</ele><time>2026-04-12T18:28:55.971Z</time></trkpt><trkpt lat="44.9751946" lon="7.4390393"><ele>280.0</ele><time>2026-04-12T18:28:56.988Z</time></trkpt><trkpt lat="44.975181" lon="7.438771"><ele>280.0</ele><time>2026-04-12T18:28:57.978Z</time></trkpt><trkpt lat="44.9751734" lon="7.4385045"><ele>280.0</ele><time>2026-04-12T18:28:58.98Z</time></trkpt><trkpt lat="44.9751687" lon="7.438232"><ele>280.0</ele><time>2026-04-12T18:28:59.986Z</time></trkpt><trkpt lat="44.9751655" lon="7.4379524"><ele>280.0</ele><time>2026-04-12T18:29:00.977Z</time></trkpt><trkpt lat="44.97516" lon="7.4376668"><ele>280.0</ele><time>2026-04-12T18:29:01.992Z</time></trkpt><trkpt lat="44.9751519" lon="7.4373727"><ele>280.0</ele><time>2026-04-12T18:29:02.982Z</time></trkpt><trkpt lat="44.9751431" lon="7.4370697"><ele>280.0</ele><time>2026-04-12T18:29:03.98Z</time></trkpt><trkpt lat="44.9751351" lon="7.4367575"><ele>280.0</ele><time>2026-04-12T18:29:04.983Z</time></trkpt><trkpt lat="44.9751245" lon="7.4364419"><ele>280.0</ele><time>2026-04-12T18:29:05.988Z</time></trkpt><trkpt lat="44.9751134" lon="7.4361189"><ele>279.5</ele><time>2026-04-12T18:29:06.981Z</time></trkpt><trkpt lat="44.9751028" lon="7.435798"><ele>279.0</ele><time>2026-04-12T18:29:07.984Z</time></trkpt><trkpt lat="44.9750941" lon="7.435483"><ele>279.3333333333333</ele><time>2026-04-12T18:29:08.983Z</time></trkpt><trkpt lat="44.9750864" lon="7.4351675"><ele>279.66666666666663</ele><time>2026-04-12T18:29:09.963Z</time></trkpt><trkpt lat="44.9750788" lon="7.4348495"><ele>280.0</ele><time>2026-04-12T18:29:10.991Z</time></trkpt><trkpt lat="44.9750688" lon="7.4345302"><ele>279.0</ele><time>2026-04-12T18:29:11.981Z</time></trkpt><trkpt lat="44.9750587" lon="7.4342085"><ele>278.0</ele><time>2026-04-12T18:29:12.98Z</time></trkpt><trkpt lat="44.975048" lon="7.4338791"><ele>279.0</ele><time>2026-04-12T18:29:13.965Z</time></trkpt><trkpt lat="44.9750371" lon="7.4335454"><ele>280.0</ele><time>2026-04-12T18:29:14.981Z</time></trkpt><trkpt lat="44.9750253" lon="7.4332071"><ele>277.5</ele><time>2026-04-12T18:29:15.99Z</time></trkpt><trkpt lat="44.9750134" lon="7.4328666"><ele>275.0</ele><time>2026-04-12T18:29:16.985Z</time></trkpt><trkpt lat="44.9750011" lon="7.432525"><ele>275.0</ele><time>2026-04-12T18:29:17.98Z</time></trkpt><trkpt lat="44.9749859" lon="7.4321812"><ele>275.0</ele><time>2026-04-12T18:29:18.976Z</time></trkpt><trkpt lat="44.9749693" lon="7.4318358"><ele>275.0</ele><time>2026-04-12T18:29:19.979Z</time></trkpt><trkpt lat="44.974956" lon="7.4314881"><ele>275.0</ele><time>2026-04-12T18:29:20.979Z</time></trkpt><trkpt lat="44.9749446" lon="7.4311383"><ele>275.0</ele><time>2026-04-12T18:29:21.981Z</time></trkpt><trkpt lat="44.9749337" lon="7.4307877"><ele>275.0</ele><time>2026-04-12T18:29:22.987Z</time></trkpt><trkpt lat="44.9749235" lon="7.4304367"><ele>275.0</ele><time>2026-04-12T18:29:23.962Z</time></trkpt><trkpt lat="44.9749133" lon="7.4300888"><ele>275.0</ele><time>2026-04-12T18:29:24.99Z</time></trkpt><trkpt lat="44.9749014" lon="7.4297416"><ele>275.5</ele><time>2026-04-12T18:29:25.986Z</time></trkpt><trkpt lat="44.9748877" lon="7.4293915"><ele>276.0</ele><time>2026-04-12T18:29:26.983Z</time></trkpt><trkpt lat="44.9748749" lon="7.4290422"><ele>277.0</ele><time>2026-04-12T18:29:27.98Z</time></trkpt><trkpt lat="44.9748637" lon="7.4286921"><ele>278.0</ele><time>2026-04-12T18:29:28.988Z</time></trkpt><trkpt lat="44.9748556" lon="7.4283401"><ele>278.0</ele><time>2026-04-12T18:29:29.994Z</time></trkpt><trkpt lat="44.9748546" lon="7.4279833"><ele>278.0</ele><time>2026-04-12T18:29:30.977Z</time></trkpt><trkpt lat="44.974864" lon="7.427625"><ele>278.0</ele><time>2026-04-12T18:29:31.989Z</time></trkpt><trkpt lat="44.9748851" lon="7.4272662"><ele>278.0</ele><time>2026-04-12T18:29:32.981Z</time></trkpt><trkpt lat="44.9749175" lon="7.4269062"><ele>278.0</ele><time>2026-04-12T18:29:33.986Z</time></trkpt><trkpt lat="44.9749603" lon="7.4265443"><ele>278.0</ele><time>2026-04-12T18:29:34.981Z</time></trkpt><trkpt lat="44.9750051" lon="7.4261797"><ele>277.5</ele><time>2026-04-12T18:29:35.98Z</time></trkpt><trkpt lat="44.9750522" lon="7.4258082"><ele>277.0</ele><time>2026-04-12T18:29:36.987Z</time></trkpt><trkpt lat="44.9750997" lon="7.4254312"><ele>277.0</ele><time>2026-04-12T18:29:37.981Z</time></trkpt><trkpt lat="44.9751447" lon="7.4250517"><ele>277.0</ele><time>2026-04-12T18:29:38.977Z</time></trkpt><trkpt lat="44.975184" lon="7.4246679"><ele>278.0</ele><time>2026-04-12T18:29:39.985Z</time></trkpt><trkpt lat="44.9752207" lon="7.4242858"><ele>279.0</ele><time>2026-04-12T18:29:40.986Z</time></trkpt><trkpt lat="44.9752572" lon="7.4239038"><ele>279.0</ele><time>2026-04-12T18:29:41.964Z</time></trkpt><trkpt lat="44.9752964" lon="7.4235193"><ele>279.0</ele><time>2026-04-12T18:29:42.98Z</time></trkpt><trkpt lat="44.9753375" lon="7.423135"><ele>279.5</ele><time>2026-04-12T18:29:43.983Z</time></trkpt><trkpt lat="44.9753809" lon="7.4227507"><ele>280.0</ele><time>2026-04-12T18:29:44.975Z</time></trkpt><trkpt lat="44.9754231" lon="7.4223661"><ele>280.5</ele><time>2026-04-12T18:29:45.984Z</time></trkpt><trkpt lat="44.9754639" lon="7.4219838"><ele>281.0</ele><time>2026-04-12T18:29:46.979Z</time></trkpt><trkpt lat="44.9755038" lon="7.4216056"><ele>282.0</ele><time>2026-04-12T18:29:47.983Z</time></trkpt><trkpt lat="44.9755448" lon="7.4212305"><ele>283.0</ele><time>2026-04-12T18:29:48.979Z</time></trkpt><trkpt lat="44.9755857" lon="7.420858"><ele>283.0</ele><time>2026-04-12T18:29:49.984Z</time></trkpt><trkpt lat="44.9756242" lon="7.4204893"><ele>283.0</ele><time>2026-04-12T18:29:50.967Z</time></trkpt><trkpt lat="44.9756603" lon="7.4201248"><ele>284.0</ele><time>2026-04-12T18:29:51.993Z</time></trkpt><trkpt lat="44.9756981" lon="7.4197642"><ele>285.0</ele><time>2026-04-12T18:29:52.982Z</time></trkpt><trkpt lat="44.9757355" lon="7.4194054"><ele>285.5</ele><time>2026-04-12T18:29:53.984Z</time></trkpt><trkpt lat="44.9757729" lon="7.4190482"><ele>286.0</ele><time>2026-04-12T18:29:54.99Z</time></trkpt><trkpt lat="44.9758085" lon="7.4186901"><ele>286.5</ele><time>2026-04-12T18:29:55.981Z</time></trkpt><trkpt lat="44.9758422" lon="7.4183293"><ele>287.0</ele><time>2026-04-12T18:29:56.991Z</time></trkpt><trkpt lat="44.9758776" lon="7.4179665"><ele>288.5</ele><time>2026-04-12T18:29:57.987Z</time></trkpt><trkpt lat="44.9759163" lon="7.4176024"><ele>290.0</ele><time>2026-04-12T18:29:58.981Z</time></trkpt><trkpt lat="44.9759561" lon="7.4172362"><ele>290.5</ele><time>2026-04-12T18:29:59.987Z</time></trkpt><trkpt lat="44.9759969" lon="7.416868"><ele>291.0</ele><time>2026-04-12T18:30:00.977Z</time></trkpt><trkpt lat="44.9760403" lon="7.4164999"><ele>293.0</ele><time>2026-04-12T18:30:01.988Z</time></trkpt><trkpt lat="44.9760829" lon="7.416132"><ele>295.0</ele><time>2026-04-12T18:30:02.97Z</time></trkpt><trkpt lat="44.9761259" lon="7.4157636"><ele>295.0</ele><time>2026-04-12T18:30:03.974Z</time></trkpt><trkpt lat="44.9761669" lon="7.4153951"><ele>295.0</ele><time>2026-04-12T18:30:04.973Z</time></trkpt><trkpt lat="44.9762082" lon="7.4150269"><ele>295.0</ele><time>2026-04-12T18:30:05.977Z</time></trkpt><trkpt lat="44.9762476" lon="7.414662"><ele>295.0</ele><time>2026-04-12T18:30:06.976Z</time></trkpt><trkpt lat="44.9762869" lon="7.4143062"><ele>295.5</ele><time>2026-04-12T18:30:07.98Z</time></trkpt><trkpt lat="44.9763247" lon="7.4139616"><ele>296.0</ele><time>2026-04-12T18:30:08.979Z</time></trkpt><trkpt lat="44.9763605" lon="7.4136274"><ele>296.0</ele><time>2026-04-12T18:30:09.983Z</time></trkpt><trkpt lat="44.9763953" lon="7.4132993"><ele>296.0</ele><time>2026-04-12T18:30:10.991Z</time></trkpt><trkpt lat="44.9764289" lon="7.4129737"><ele>297.0</ele><time>2026-04-12T18:30:11.973Z</time></trkpt><trkpt lat="44.9764623" lon="7.4126445"><ele>298.0</ele><time>2026-04-12T18:30:12.983Z</time></trkpt><trkpt lat="44.9764968" lon="7.4123119"><ele>300.0</ele><time>2026-04-12T18:30:13.991Z</time></trkpt><trkpt lat="44.9765303" lon="7.4119732"><ele>302.0</ele><time>2026-04-12T18:30:14.983Z</time></trkpt><trkpt lat="44.9765626" lon="7.4116288"><ele>302.5</ele><time>2026-04-12T18:30:15.991Z</time></trkpt><trkpt lat="44.9765952" lon="7.4112811"><ele>303.0</ele><time>2026-04-12T18:30:16.979Z</time></trkpt><trkpt lat="44.9766283" lon="7.4109316"><ele>303.0</ele><time>2026-04-12T18:30:17.982Z</time></trkpt><trkpt lat="44.9766632" lon="7.4105776"><ele>303.0</ele><time>2026-04-12T18:30:18.979Z</time></trkpt><trkpt lat="44.9767004" lon="7.4102198"><ele>303.0</ele><time>2026-04-12T18:30:19.98Z</time></trkpt><trkpt lat="44.976739" lon="7.4098645"><ele>303.0</ele><time>2026-04-12T18:30:20.963Z</time></trkpt><trkpt lat="44.9767779" lon="7.4095183"><ele>303.0</ele><time>2026-04-12T18:30:21.981Z</time></trkpt><trkpt lat="44.9768148" lon="7.4091857"><ele>303.0</ele><time>2026-04-12T18:30:22.98Z</time></trkpt><trkpt lat="44.9768491" lon="7.4088654"><ele>303.0</ele><time>2026-04-12T18:30:23.969Z</time></trkpt><trkpt lat="44.9768821" lon="7.4085559"><ele>303.0</ele><time>2026-04-12T18:30:24.981Z</time></trkpt><trkpt lat="44.9769142" lon="7.4082509"><ele>303.0</ele><time>2026-04-12T18:30:25.982Z</time></trkpt><trkpt lat="44.976949" lon="7.4079473"><ele>303.3333333333333</ele><time>2026-04-12T18:30:26.983Z</time></trkpt><trkpt lat="44.9769876" lon="7.4076469"><ele>303.66666666666663</ele><time>2026-04-12T18:30:27.971Z</time></trkpt><trkpt lat="44.97703" lon="7.4073537"><ele>304.0</ele><time>2026-04-12T18:30:28.978Z</time></trkpt><trkpt lat="44.9770777" lon="7.4070677"><ele>304.66666666666663</ele><time>2026-04-12T18:30:29.968Z</time></trkpt><trkpt lat="44.9771317" lon="7.4067917"><ele>305.3333333333333</ele><time>2026-04-12T18:30:30.968Z</time></trkpt><trkpt lat="44.9771963" lon="7.406526"><ele>306.0</ele><time>2026-04-12T18:30:31.988Z</time></trkpt><trkpt lat="44.9772727" lon="7.4062645"><ele>306.6666666666667</ele><time>2026-04-12T18:30:32.979Z</time></trkpt><trkpt lat="44.9773569" lon="7.4060066"><ele>307.33333333333337</ele><time>2026-04-12T18:30:33.987Z</time></trkpt><trkpt lat="44.9774448" lon="7.4057404"><ele>308.0</ele><time>2026-04-12T18:30:34.964Z</time></trkpt><trkpt lat="44.977527" lon="7.4054622"><ele>309.33333333333337</ele><time>2026-04-12T18:30:35.981Z</time></trkpt><trkpt lat="44.9776092" lon="7.4051764"><ele>310.6666666666667</ele><time>2026-04-12T18:30:36.978Z</time></trkpt><trkpt lat="44.9776967" lon="7.4048852"><ele>312.0</ele><time>2026-04-12T18:30:37.978Z</time></trkpt><trkpt lat="44.9777876" lon="7.4045895"><ele>312.5</ele><time>2026-04-12T18:30:38.994Z</time></trkpt><trkpt lat="44.9778838" lon="7.4042915"><ele>313.0</ele><time>2026-04-12T18:30:39.985Z</time></trkpt><trkpt lat="44.9779821" lon="7.4039886"><ele>313.0</ele><time>2026-04-12T18:30:40.986Z</time></trkpt><trkpt lat="44.9780818" lon="7.4036783"><ele>313.0</ele><time>2026-04-12T18:30:41.98Z</time></trkpt><trkpt lat="44.9781827" lon="7.4033636"><ele>313.0</ele><time>2026-04-12T18:30:42.989Z</time></trkpt><trkpt lat="44.9782865" lon="7.4030428"><ele>313.0</ele><time>2026-04-12T18:30:43.985Z</time></trkpt><trkpt lat="44.9783939" lon="7.4027193"><ele>315.5</ele><time>2026-04-12T18:30:44.967Z</time></trkpt><trkpt lat="44.9785018" lon="7.4023911"><ele>318.0</ele><time>2026-04-12T18:30:45.983Z</time></trkpt><trkpt lat="44.97861" lon="7.4020605"><ele>319.0</ele><time>2026-04-12T18:30:46.974Z</time></trkpt><trkpt lat="44.9787186" lon="7.401728"><ele>320.0</ele><time>2026-04-12T18:30:47.991Z</time></trkpt><trkpt lat="44.9788291" lon="7.4013938"><ele>319.5</ele><time>2026-04-12T18:30:48.986Z</time></trkpt><trkpt lat="44.9789396" lon="7.4010586"><ele>319.0</ele><time>2026-04-12T18:30:49.985Z</time></trkpt><trkpt lat="44.9790504" lon="7.4007214"><ele>321.0</ele><time>2026-04-12T18:30:50.986Z</time></trkpt><trkpt lat="44.9791615" lon="7.400383"><ele>323.0</ele><time>2026-04-12T18:30:51.978Z</time></trkpt><trkpt lat="44.979272" lon="7.4000451"><ele>323.0</ele><time>2026-04-12T18:30:52.989Z</time></trkpt><trkpt lat="44.9793818" lon="7.3997079"><ele>323.0</ele><time>2026-04-12T18:30:53.993Z</time></trkpt><trkpt lat="44.9794916" lon="7.3993719"><ele>322.5</ele><time>2026-04-12T18:30:54.977Z</time></trkpt><trkpt lat="44.9795982" lon="7.3990402"><ele>322.0</ele><time>2026-04-12T18:30:55.974Z</time></trkpt><trkpt lat="44.9797028" lon="7.3987132"><ele>324.0</ele><time>2026-04-12T18:30:56.977Z</time></trkpt><trkpt lat="44.9798058" lon="7.3983908"><ele>326.0</ele><time>2026-04-12T18:30:57.985Z</time></trkpt><trkpt lat="44.9799074" lon="7.3980752"><ele>326.0</ele><time>2026-04-12T18:30:58.986Z</time></trkpt><trkpt lat="44.9800054" lon="7.3977667"><ele>326.0</ele><time>2026-04-12T18:30:59.989Z</time></trkpt><trkpt lat="44.9801009" lon="7.3974657"><ele>327.5</ele><time>2026-04-12T18:31:00.984Z</time></trkpt><trkpt lat="44.9801942" lon="7.3971682"><ele>329.0</ele><time>2026-04-12T18:31:01.986Z</time></trkpt><trkpt lat="44.9802858" lon="7.3968732"><ele>329.0</ele><time>2026-04-12T18:31:02.983Z</time></trkpt><trkpt lat="44.9803751" lon="7.3965826"><ele>329.0</ele><time>2026-04-12T18:31:03.976Z</time></trkpt><trkpt lat="44.9804627" lon="7.3962996"><ele>329.0</ele><time>2026-04-12T18:31:04.981Z</time></trkpt><trkpt lat="44.9805498" lon="7.3960276"><ele>330.33333333333337</ele><time>2026-04-12T18:31:05.969Z</time></trkpt><trkpt lat="44.9806334" lon="7.3957682"><ele>331.6666666666667</ele><time>2026-04-12T18:31:06.981Z</time></trkpt><trkpt lat="44.9807124" lon="7.3955243"><ele>333.0</ele><time>2026-04-12T18:31:07.979Z</time></trkpt><trkpt lat="44.9807868" lon="7.3952944"><ele>334.0</ele><time>2026-04-12T18:31:08.977Z</time></trkpt><trkpt lat="44.9808549" lon="7.3950766"><ele>335.0</ele><time>2026-04-12T18:31:09.969Z</time></trkpt><trkpt lat="44.9809181" lon="7.3948726"><ele>336.0</ele><time>2026-04-12T18:31:10.984Z</time></trkpt><trkpt lat="44.980979" lon="7.3946817"><ele>336.0</ele><time>2026-04-12T18:31:11.987Z</time></trkpt><trkpt lat="44.981033" lon="7.3945089"><ele>336.0</ele><time>2026-04-12T18:31:12.978Z</time></trkpt><trkpt lat="44.9810821" lon="7.3943575"><ele>336.0</ele><time>2026-04-12T18:31:13.976Z</time></trkpt><trkpt lat="44.9811246" lon="7.3942296"><ele>336.0</ele><time>2026-04-12T18:31:14.97Z</time></trkpt><trkpt lat="44.981162" lon="7.3941256"><ele>336.0</ele><time>2026-04-12T18:31:15.985Z</time></trkpt><trkpt lat="44.9811866" lon="7.3940435"><ele>336.0</ele><time>2026-04-12T18:31:16.976Z</time></trkpt><trkpt lat="44.9811669" lon="7.3939091"><ele>336.0</ele><time>2026-04-12T18:31:18.967Z</time></trkpt><trkpt lat="44.9810651" lon="7.3937946"><ele>336.0</ele><time>2026-04-12T18:31:20.968Z</time></trkpt><trkpt lat="44.9810032" lon="7.3937204"><ele>336.0</ele><time>2026-04-12T18:31:21.966Z</time></trkpt><trkpt lat="44.9809426" lon="7.393621"><ele>336.0</ele><time>2026-04-12T18:31:22.963Z</time></trkpt><trkpt lat="44.9808817" lon="7.393489"><ele>336.0</ele><time>2026-04-12T18:31:23.977Z</time></trkpt><trkpt lat="44.9808121" lon="7.3933341"><ele>336.0</ele><time>2026-04-12T18:31:24.979Z</time></trkpt><trkpt lat="44.9807394" lon="7.3931811"><ele>336.0</ele><time>2026-04-12T18:31:25.977Z</time></trkpt><trkpt lat="44.9806683" lon="7.3930353"><ele>336.0</ele><time>2026-04-12T18:31:26.982Z</time></trkpt><trkpt lat="44.9805949" lon="7.3928901"><ele>336.25</ele><time>2026-04-12T18:31:27.984Z</time></trkpt><trkpt lat="44.9805158" lon="7.3927401"><ele>336.5</ele><time>2026-04-12T18:31:28.974Z</time></trkpt><trkpt lat="44.9804364" lon="7.3925824"><ele>336.75</ele><time>2026-04-12T18:31:29.987Z</time></trkpt><trkpt lat="44.9803563" lon="7.3924213"><ele>337.0</ele><time>2026-04-12T18:31:30.965Z</time></trkpt><trkpt lat="44.9802744" lon="7.3922589"><ele>336.75</ele><time>2026-04-12T18:31:31.97Z</time></trkpt><trkpt lat="44.9801885" lon="7.392101"><ele>336.5</ele><time>2026-04-12T18:31:32.979Z</time></trkpt><trkpt lat="44.9801002" lon="7.3919459"><ele>336.25</ele><time>2026-04-12T18:31:33.969Z</time></trkpt><trkpt lat="44.9800133" lon="7.3917915"><ele>336.0</ele><time>2026-04-12T18:31:34.989Z</time></trkpt><trkpt lat="44.9799263" lon="7.391635"><ele>335.0</ele><time>2026-04-12T18:31:35.977Z</time></trkpt><trkpt lat="44.9798392" lon="7.3914762"><ele>334.0</ele><time>2026-04-12T18:31:36.983Z</time></trkpt><trkpt lat="44.9797516" lon="7.3913148"><ele>333.0</ele><time>2026-04-12T18:31:37.978Z</time></trkpt><trkpt lat="44.9796617" lon="7.3911528"><ele>332.0</ele><time>2026-04-12T18:31:38.966Z</time></trkpt><trkpt lat="44.9795722" lon="7.3909898"><ele>332.0</ele><time>2026-04-12T18:31:39.978Z</time></trkpt><trkpt lat="44.9794818" lon="7.3908204"><ele>332.0</ele><time>2026-04-12T18:31:40.973Z</time></trkpt><trkpt lat="44.9793913" lon="7.3906461"><ele>332.0</ele><time>2026-04-12T18:31:41.97Z</time></trkpt><trkpt lat="44.9793014" lon="7.3904681"><ele>332.0</ele><time>2026-04-12T18:31:42.983Z</time></trkpt><trkpt lat="44.9792114" lon="7.3902875"><ele>332.0</ele><time>2026-04-12T18:31:43.977Z</time></trkpt><trkpt lat="44.9791201" lon="7.3901058"><ele>332.0</ele><time>2026-04-12T18:31:44.966Z</time></trkpt><trkpt lat="44.9790303" lon="7.3899244"><ele>330.0</ele><time>2026-04-12T18:31:45.994Z</time></trkpt><trkpt lat="44.9789412" lon="7.3897434"><ele>328.0</ele><time>2026-04-12T18:31:46.98Z</time></trkpt><trkpt lat="44.97885" lon="7.3895635"><ele>326.0</ele><time>2026-04-12T18:31:47.975Z</time></trkpt><trkpt lat="44.978757" lon="7.3893871"><ele>326.0</ele><time>2026-04-12T18:31:48.987Z</time></trkpt><trkpt lat="44.978663" lon="7.3892144"><ele>326.0</ele><time>2026-04-12T18:31:49.982Z</time></trkpt><trkpt lat="44.9785703" lon="7.3890476"><ele>326.0</ele><time>2026-04-12T18:31:50.974Z</time></trkpt><trkpt lat="44.9784721" lon="7.3888874"><ele>326.0</ele><time>2026-04-12T18:31:51.968Z</time></trkpt><trkpt lat="44.9783685" lon="7.3887348"><ele>326.0</ele><time>2026-04-12T18:31:52.988Z</time></trkpt><trkpt lat="44.978262" lon="7.3885885"><ele>326.0</ele><time>2026-04-12T18:31:53.984Z</time></trkpt><trkpt lat="44.9781615" lon="7.3884374"><ele>326.0</ele><time>2026-04-12T18:31:54.98Z</time></trkpt><trkpt lat="44.9780753" lon="7.3882726"><ele>326.0</ele><time>2026-04-12T18:31:55.984Z</time></trkpt><trkpt lat="44.9780072" lon="7.3880909"><ele>326.0</ele><time>2026-04-12T18:31:56.988Z</time></trkpt><trkpt lat="44.9779568" lon="7.3878898"><ele>326.0</ele><time>2026-04-12T18:31:57.982Z</time></trkpt><trkpt lat="44.977911" lon="7.3876866"><ele>326.0</ele><time>2026-04-12T18:31:58.98Z</time></trkpt><trkpt lat="44.9778677" lon="7.387492"><ele>327.0</ele><time>2026-04-12T18:31:59.983Z</time></trkpt><trkpt lat="44.9778286" lon="7.3873054"><ele>328.0</ele><time>2026-04-12T18:32:00.971Z</time></trkpt><trkpt lat="44.9777939" lon="7.3871319"><ele>329.0</ele><time>2026-04-12T18:32:01.982Z</time></trkpt><trkpt lat="44.9777566" lon="7.3869738"><ele>330.0</ele><time>2026-04-12T18:32:02.988Z</time></trkpt><trkpt lat="44.9777163" lon="7.3868283"><ele>330.8</ele><time>2026-04-12T18:32:03.982Z</time></trkpt><trkpt lat="44.9776734" lon="7.3866923"><ele>331.6</ele><time>2026-04-12T18:32:04.982Z</time></trkpt><trkpt lat="44.9776321" lon="7.3865591"><ele>332.4</ele><time>2026-04-12T18:32:05.97Z</time></trkpt><trkpt lat="44.9775905" lon="7.3864291"><ele>333.2</ele><time>2026-04-12T18:32:06.992Z</time></trkpt><trkpt lat="44.9775525" lon="7.3863051"><ele>334.0</ele><time>2026-04-12T18:32:07.972Z</time></trkpt><trkpt lat="44.9775187" lon="7.3861888"><ele>334.0</ele><time>2026-04-12T18:32:08.976Z</time></trkpt><trkpt lat="44.9774889" lon="7.386082"><ele>334.0</ele><time>2026-04-12T18:32:09.981Z</time></trkpt><trkpt lat="44.9774626" lon="7.38599"><ele>334.0</ele><time>2026-04-12T18:32:10.981Z</time></trkpt><trkpt lat="44.9774357" lon="7.3859022"><ele>334.0</ele><time>2026-04-12T18:32:11.977Z</time></trkpt><trkpt lat="44.9774053" lon="7.3858045"><ele>334.0</ele><time>2026-04-12T18:32:12.992Z</time></trkpt><trkpt lat="44.9773711" lon="7.3856942"><ele>334.0</ele><time>2026-04-12T18:32:13.978Z</time></trkpt><trkpt lat="44.9773381" lon="7.3855747"><ele>334.3333333333333</ele><time>2026-04-12T18:32:14.981Z</time></trkpt><trkpt lat="44.9773035" lon="7.3854544"><ele>334.66666666666663</ele><time>2026-04-12T18:32:15.982Z</time></trkpt><trkpt lat="44.9772687" lon="7.3853414"><ele>335.0</ele><time>2026-04-12T18:32:16.972Z</time></trkpt><trkpt lat="44.9772368" lon="7.3852413"><ele>335.3333333333333</ele><time>2026-04-12T18:32:17.977Z</time></trkpt><trkpt lat="44.9772067" lon="7.3851503"><ele>335.6666666666667</ele><time>2026-04-12T18:32:18.982Z</time></trkpt><trkpt lat="44.9771755" lon="7.3850702"><ele>336.0</ele><time>2026-04-12T18:32:19.983Z</time></trkpt><trkpt lat="44.9771055" lon="7.3849337"><ele>336.0</ele><time>2026-04-12T18:32:21.987Z</time></trkpt><trkpt lat="44.9770346" lon="7.3847792"><ele>336.0</ele><time>2026-04-12T18:32:23.981Z</time></trkpt><trkpt lat="44.9770058" lon="7.3846761"><ele>336.0</ele><time>2026-04-12T18:32:24.982Z</time></trkpt><trkpt lat="44.9769869" lon="7.3845682"><ele>336.0</ele><time>2026-04-12T18:32:25.98Z</time></trkpt><trkpt lat="44.9769725" lon="7.3844671"><ele>336.0</ele><time>2026-04-12T18:32:26.979Z</time></trkpt><trkpt lat="44.9769601" lon="7.3843777"><ele>336.0</ele><time>2026-04-12T18:32:27.981Z</time></trkpt><trkpt lat="44.9769293" lon="7.3842378"><ele>338.0</ele><time>2026-04-12T18:32:29.966Z</time></trkpt><trkpt lat="44.9769053" lon="7.3841292"><ele>338.0</ele><time>2026-04-12T18:32:31.98Z</time></trkpt><trkpt lat="44.9769016" lon="7.3840169"><ele>338.0</ele><time>2026-04-12T18:32:33.979Z</time></trkpt><trkpt lat="44.9768955" lon="7.3839176"><ele>338.0</ele><time>2026-04-12T18:32:35.971Z</time></trkpt><trkpt lat="44.9768769" lon="7.383813"><ele>340.0</ele><time>2026-04-12T18:32:38.979Z</time></trkpt></trkseg></trk></gpx>